<?xml version="1.0" encoding="UTF-8" standalone="no" ?>
<gpx xmlns="http://www.topografix.com/GPX/1/1" xmlns:xsi="http://www.w3.org/2001/XMLSchema-instance" xsi:schemaLocation="http://www.topografix.com/GPX/1/1 http://www.topografix.com/GPX/1/1/gpx.xsd" version="1.1" creator="VisuGPX - https://www.visugpx.com">
  <metadata>
    <name>Rando Vtt Smarves Pictave 2020</name>
    <desc><![CDATA[Rando enduro...]]></desc>
  </metadata>
  <trk>
    <name><![CDATA[Rando Vtt Smarves Pictave 2020_1]]></name>
    <trkseg>
      <trkpt lat="46.50632" lon="0.36871">
        <ele>136.4</ele>
        <time>2020-09-13T06:03:13Z</time>
      </trkpt>
      <trkpt lat="46.50633" lon="0.36863">
        <ele>136</ele>
        <time>2020-09-13T06:03:20Z</time>
      </trkpt>
      <trkpt lat="46.50637" lon="0.36851">
        <ele>136</ele>
        <time>2020-09-13T06:03:27Z</time>
      </trkpt>
      <trkpt lat="46.50638" lon="0.3684">
        <ele>135.8</ele>
        <time>2020-09-13T06:03:32Z</time>
      </trkpt>
      <trkpt lat="46.50637" lon="0.36837">
        <ele>135.8</ele>
        <time>2020-09-13T06:03:34Z</time>
      </trkpt>
      <trkpt lat="46.50633" lon="0.36833">
        <ele>135.4</ele>
        <time>2020-09-13T06:03:37Z</time>
      </trkpt>
      <trkpt lat="46.50633" lon="0.3683">
        <ele>135.4</ele>
        <time>2020-09-13T06:03:38Z</time>
      </trkpt>
      <trkpt lat="46.50634" lon="0.36828">
        <ele>135.4</ele>
        <time>2020-09-13T06:03:39Z</time>
      </trkpt>
      <trkpt lat="46.50635" lon="0.36818">
        <ele>135</ele>
        <time>2020-09-13T06:03:43Z</time>
      </trkpt>
      <trkpt lat="46.50634" lon="0.36814">
        <ele>135</ele>
        <time>2020-09-13T06:03:46Z</time>
      </trkpt>
      <trkpt lat="46.50634" lon="0.36811">
        <ele>134.6</ele>
        <time>2020-09-13T06:03:49Z</time>
      </trkpt>
      <trkpt lat="46.50633" lon="0.3681">
        <ele>134.6</ele>
        <time>2020-09-13T06:03:52Z</time>
      </trkpt>
      <trkpt lat="46.50634" lon="0.36808">
        <ele>134.4</ele>
        <time>2020-09-13T06:04:17Z</time>
      </trkpt>
      <trkpt lat="46.5064" lon="0.36793">
        <ele>134.4</ele>
        <time>2020-09-13T06:04:26Z</time>
      </trkpt>
      <trkpt lat="46.50642" lon="0.36788">
        <ele>134.2</ele>
        <time>2020-09-13T06:04:29Z</time>
      </trkpt>
      <trkpt lat="46.50645" lon="0.36777">
        <ele>133.8</ele>
        <time>2020-09-13T06:04:33Z</time>
      </trkpt>
      <trkpt lat="46.50648" lon="0.36768">
        <ele>133.2</ele>
        <time>2020-09-13T06:04:38Z</time>
      </trkpt>
      <trkpt lat="46.50649" lon="0.36767">
        <ele>133.2</ele>
        <time>2020-09-13T06:04:39Z</time>
      </trkpt>
      <trkpt lat="46.50651" lon="0.36762">
        <ele>133</ele>
        <time>2020-09-13T06:04:42Z</time>
      </trkpt>
      <trkpt lat="46.50649" lon="0.36756">
        <ele>133</ele>
        <time>2020-09-13T06:04:45Z</time>
      </trkpt>
      <trkpt lat="46.50647" lon="0.36754">
        <ele>133</ele>
        <time>2020-09-13T06:04:46Z</time>
      </trkpt>
      <trkpt lat="46.50642" lon="0.36749">
        <ele>133</ele>
        <time>2020-09-13T06:04:49Z</time>
      </trkpt>
      <trkpt lat="46.50641" lon="0.36741">
        <ele>133</ele>
        <time>2020-09-13T06:04:51Z</time>
      </trkpt>
      <trkpt lat="46.50644" lon="0.36706">
        <ele>132.2</ele>
        <time>2020-09-13T06:04:57Z</time>
      </trkpt>
      <trkpt lat="46.50645" lon="0.367">
        <ele>132</ele>
        <time>2020-09-13T06:04:58Z</time>
      </trkpt>
      <trkpt lat="46.50646" lon="0.36678">
        <ele>131</ele>
        <time>2020-09-13T06:05:01Z</time>
      </trkpt>
      <trkpt lat="46.50649" lon="0.36653">
        <ele>130</ele>
        <time>2020-09-13T06:05:04Z</time>
      </trkpt>
      <trkpt lat="46.5065" lon="0.36646">
        <ele>129.8</ele>
        <time>2020-09-13T06:05:05Z</time>
      </trkpt>
      <trkpt lat="46.50658" lon="0.36632">
        <ele>129</ele>
        <time>2020-09-13T06:05:07Z</time>
      </trkpt>
      <trkpt lat="46.50664" lon="0.36625">
        <ele>128.6</ele>
        <time>2020-09-13T06:05:08Z</time>
      </trkpt>
      <trkpt lat="46.5067" lon="0.36619">
        <ele>128</ele>
        <time>2020-09-13T06:05:09Z</time>
      </trkpt>
      <trkpt lat="46.50677" lon="0.36613">
        <ele>127.6</ele>
        <time>2020-09-13T06:05:10Z</time>
      </trkpt>
      <trkpt lat="46.50682" lon="0.36606">
        <ele>127.2</ele>
        <time>2020-09-13T06:05:11Z</time>
      </trkpt>
      <trkpt lat="46.5069" lon="0.36588">
        <ele>126.2</ele>
        <time>2020-09-13T06:05:13Z</time>
      </trkpt>
      <trkpt lat="46.50692" lon="0.36578">
        <ele>125.8</ele>
        <time>2020-09-13T06:05:14Z</time>
      </trkpt>
      <trkpt lat="46.50698" lon="0.36548">
        <ele>125</ele>
        <time>2020-09-13T06:05:17Z</time>
      </trkpt>
      <trkpt lat="46.50702" lon="0.36509">
        <ele>125.2</ele>
        <time>2020-09-13T06:05:21Z</time>
      </trkpt>
      <trkpt lat="46.50705" lon="0.36493">
        <ele>125.4</ele>
        <time>2020-09-13T06:05:23Z</time>
      </trkpt>
      <trkpt lat="46.50711" lon="0.36458">
        <ele>125.8</ele>
        <time>2020-09-13T06:05:28Z</time>
      </trkpt>
      <trkpt lat="46.50711" lon="0.36452">
        <ele>125.8</ele>
        <time>2020-09-13T06:05:29Z</time>
      </trkpt>
      <trkpt lat="46.50717" lon="0.36416">
        <ele>126.8</ele>
        <time>2020-09-13T06:05:35Z</time>
      </trkpt>
      <trkpt lat="46.50718" lon="0.3641">
        <ele>127</ele>
        <time>2020-09-13T06:05:36Z</time>
      </trkpt>
      <trkpt lat="46.50721" lon="0.36393">
        <ele>127.6</ele>
        <time>2020-09-13T06:05:39Z</time>
      </trkpt>
      <trkpt lat="46.50723" lon="0.36381">
        <ele>128</ele>
        <time>2020-09-13T06:05:41Z</time>
      </trkpt>
      <trkpt lat="46.50724" lon="0.36373">
        <ele>128.2</ele>
        <time>2020-09-13T06:05:42Z</time>
      </trkpt>
      <trkpt lat="46.5073" lon="0.36339">
        <ele>129.2</ele>
        <time>2020-09-13T06:05:47Z</time>
      </trkpt>
      <trkpt lat="46.50733" lon="0.36311">
        <ele>129.6</ele>
        <time>2020-09-13T06:05:51Z</time>
      </trkpt>
      <trkpt lat="46.50736" lon="0.3629">
        <ele>130.4</ele>
        <time>2020-09-13T06:05:54Z</time>
      </trkpt>
      <trkpt lat="46.5074" lon="0.3626">
        <ele>131</ele>
        <time>2020-09-13T06:05:58Z</time>
      </trkpt>
      <trkpt lat="46.50742" lon="0.36245">
        <ele>131.4</ele>
        <time>2020-09-13T06:06:00Z</time>
      </trkpt>
      <trkpt lat="46.50749" lon="0.36188">
        <ele>132.4</ele>
        <time>2020-09-13T06:06:08Z</time>
      </trkpt>
      <trkpt lat="46.50751" lon="0.36182">
        <ele>132.6</ele>
        <time>2020-09-13T06:06:09Z</time>
      </trkpt>
      <trkpt lat="46.50758" lon="0.36142">
        <ele>133</ele>
        <time>2020-09-13T06:06:15Z</time>
      </trkpt>
      <trkpt lat="46.5076" lon="0.36136">
        <ele>133</ele>
        <time>2020-09-13T06:06:16Z</time>
      </trkpt>
      <trkpt lat="46.50763" lon="0.3613">
        <ele>133</ele>
        <time>2020-09-13T06:06:17Z</time>
      </trkpt>
      <trkpt lat="46.50769" lon="0.36122">
        <ele>133</ele>
        <time>2020-09-13T06:06:19Z</time>
      </trkpt>
      <trkpt lat="46.50772" lon="0.36117">
        <ele>133</ele>
        <time>2020-09-13T06:06:20Z</time>
      </trkpt>
      <trkpt lat="46.50781" lon="0.36096">
        <ele>132.8</ele>
        <time>2020-09-13T06:06:23Z</time>
      </trkpt>
      <trkpt lat="46.50782" lon="0.3609">
        <ele>132.4</ele>
        <time>2020-09-13T06:06:24Z</time>
      </trkpt>
      <trkpt lat="46.50784" lon="0.36071">
        <ele>131.4</ele>
        <time>2020-09-13T06:06:27Z</time>
      </trkpt>
      <trkpt lat="46.50784" lon="0.36065">
        <ele>131.2</ele>
        <time>2020-09-13T06:06:28Z</time>
      </trkpt>
      <trkpt lat="46.50785" lon="0.36052">
        <ele>131</ele>
        <time>2020-09-13T06:06:30Z</time>
      </trkpt>
      <trkpt lat="46.50783" lon="0.36019">
        <ele>132.4</ele>
        <time>2020-09-13T06:06:36Z</time>
      </trkpt>
      <trkpt lat="46.50781" lon="0.36002">
        <ele>133.8</ele>
        <time>2020-09-13T06:06:40Z</time>
      </trkpt>
      <trkpt lat="46.5078" lon="0.35998">
        <ele>134</ele>
        <time>2020-09-13T06:06:41Z</time>
      </trkpt>
      <trkpt lat="46.50778" lon="0.35974">
        <ele>135</ele>
        <time>2020-09-13T06:06:46Z</time>
      </trkpt>
      <trkpt lat="46.50777" lon="0.35969">
        <ele>135.4</ele>
        <time>2020-09-13T06:06:47Z</time>
      </trkpt>
      <trkpt lat="46.50774" lon="0.35948">
        <ele>136</ele>
        <time>2020-09-13T06:06:51Z</time>
      </trkpt>
      <trkpt lat="46.50771" lon="0.35925">
        <ele>136.4</ele>
        <time>2020-09-13T06:06:55Z</time>
      </trkpt>
      <trkpt lat="46.50761" lon="0.35885">
        <ele>137.2</ele>
        <time>2020-09-13T06:07:02Z</time>
      </trkpt>
      <trkpt lat="46.50759" lon="0.3588">
        <ele>137.4</ele>
        <time>2020-09-13T06:07:03Z</time>
      </trkpt>
      <trkpt lat="46.50758" lon="0.35849">
        <ele>138.2</ele>
        <time>2020-09-13T06:07:09Z</time>
      </trkpt>
      <trkpt lat="46.50762" lon="0.35833">
        <ele>138.4</ele>
        <time>2020-09-13T06:07:12Z</time>
      </trkpt>
      <trkpt lat="46.50769" lon="0.35811">
        <ele>138.8</ele>
        <time>2020-09-13T06:07:16Z</time>
      </trkpt>
      <trkpt lat="46.50791" lon="0.35772">
        <ele>139</ele>
        <time>2020-09-13T06:07:23Z</time>
      </trkpt>
      <trkpt lat="46.50803" lon="0.35757">
        <ele>138.6</ele>
        <time>2020-09-13T06:07:26Z</time>
      </trkpt>
      <trkpt lat="46.50809" lon="0.35749">
        <ele>138.4</ele>
        <time>2020-09-13T06:07:28Z</time>
      </trkpt>
      <trkpt lat="46.50826" lon="0.35729">
        <ele>138.4</ele>
        <time>2020-09-13T06:07:33Z</time>
      </trkpt>
      <trkpt lat="46.5083" lon="0.35723">
        <ele>138.4</ele>
        <time>2020-09-13T06:07:34Z</time>
      </trkpt>
      <trkpt lat="46.50849" lon="0.35687">
        <ele>138.6</ele>
        <time>2020-09-13T06:07:40Z</time>
      </trkpt>
      <trkpt lat="46.50858" lon="0.35678">
        <ele>138.4</ele>
        <time>2020-09-13T06:07:42Z</time>
      </trkpt>
      <trkpt lat="46.50866" lon="0.35669">
        <ele>138.4</ele>
        <time>2020-09-13T06:07:44Z</time>
      </trkpt>
      <trkpt lat="46.50869" lon="0.35664">
        <ele>138.4</ele>
        <time>2020-09-13T06:07:45Z</time>
      </trkpt>
      <trkpt lat="46.50885" lon="0.35641">
        <ele>138.2</ele>
        <time>2020-09-13T06:07:49Z</time>
      </trkpt>
      <trkpt lat="46.50915" lon="0.35592">
        <ele>136.8</ele>
        <time>2020-09-13T06:07:56Z</time>
      </trkpt>
      <trkpt lat="46.50923" lon="0.35578">
        <ele>136.8</ele>
        <time>2020-09-13T06:07:57Z</time>
      </trkpt>
      <trkpt lat="46.50948" lon="0.35538">
        <ele>135.8</ele>
        <time>2020-09-13T06:08:03Z</time>
      </trkpt>
      <trkpt lat="46.50952" lon="0.35531">
        <ele>135.6</ele>
        <time>2020-09-13T06:08:04Z</time>
      </trkpt>
      <trkpt lat="46.50956" lon="0.35523">
        <ele>135.4</ele>
        <time>2020-09-13T06:08:05Z</time>
      </trkpt>
      <trkpt lat="46.50963" lon="0.35507">
        <ele>135</ele>
        <time>2020-09-13T06:08:07Z</time>
      </trkpt>
      <trkpt lat="46.50967" lon="0.355">
        <ele>134.6</ele>
        <time>2020-09-13T06:08:08Z</time>
      </trkpt>
      <trkpt lat="46.50981" lon="0.35479">
        <ele>134.2</ele>
        <time>2020-09-13T06:08:11Z</time>
      </trkpt>
      <trkpt lat="46.50985" lon="0.35473">
        <ele>134</ele>
        <time>2020-09-13T06:08:12Z</time>
      </trkpt>
      <trkpt lat="46.51" lon="0.35456">
        <ele>134</ele>
        <time>2020-09-13T06:08:15Z</time>
      </trkpt>
      <trkpt lat="46.51013" lon="0.35437">
        <ele>133.6</ele>
        <time>2020-09-13T06:08:18Z</time>
      </trkpt>
      <trkpt lat="46.51022" lon="0.35427">
        <ele>133.4</ele>
        <time>2020-09-13T06:08:20Z</time>
      </trkpt>
      <trkpt lat="46.51027" lon="0.35424">
        <ele>133.4</ele>
        <time>2020-09-13T06:08:21Z</time>
      </trkpt>
      <trkpt lat="46.51032" lon="0.35423">
        <ele>133.4</ele>
        <time>2020-09-13T06:08:22Z</time>
      </trkpt>
      <trkpt lat="46.51042" lon="0.35419">
        <ele>133.2</ele>
        <time>2020-09-13T06:08:24Z</time>
      </trkpt>
      <trkpt lat="46.51047" lon="0.35414">
        <ele>133</ele>
        <time>2020-09-13T06:08:25Z</time>
      </trkpt>
      <trkpt lat="46.5105" lon="0.35408">
        <ele>133</ele>
        <time>2020-09-13T06:08:26Z</time>
      </trkpt>
      <trkpt lat="46.51051" lon="0.35393">
        <ele>132.8</ele>
        <time>2020-09-13T06:08:28Z</time>
      </trkpt>
      <trkpt lat="46.51043" lon="0.35372">
        <ele>132.8</ele>
        <time>2020-09-13T06:08:31Z</time>
      </trkpt>
      <trkpt lat="46.51042" lon="0.35356">
        <ele>132.8</ele>
        <time>2020-09-13T06:08:33Z</time>
      </trkpt>
      <trkpt lat="46.51043" lon="0.35347">
        <ele>132.8</ele>
        <time>2020-09-13T06:08:34Z</time>
      </trkpt>
      <trkpt lat="46.51048" lon="0.3531">
        <ele>132.6</ele>
        <time>2020-09-13T06:08:39Z</time>
      </trkpt>
      <trkpt lat="46.5105" lon="0.35286">
        <ele>132.2</ele>
        <time>2020-09-13T06:08:42Z</time>
      </trkpt>
      <trkpt lat="46.51054" lon="0.35261">
        <ele>131.6</ele>
        <time>2020-09-13T06:08:45Z</time>
      </trkpt>
      <trkpt lat="46.51055" lon="0.35252">
        <ele>131.2</ele>
        <time>2020-09-13T06:08:46Z</time>
      </trkpt>
      <trkpt lat="46.51061" lon="0.35195">
        <ele>130.4</ele>
        <time>2020-09-13T06:08:52Z</time>
      </trkpt>
      <trkpt lat="46.51062" lon="0.35185">
        <ele>130.2</ele>
        <time>2020-09-13T06:08:53Z</time>
      </trkpt>
      <trkpt lat="46.51065" lon="0.35151">
        <ele>129</ele>
        <time>2020-09-13T06:08:57Z</time>
      </trkpt>
      <trkpt lat="46.51069" lon="0.35121">
        <ele>127.8</ele>
        <time>2020-09-13T06:09:01Z</time>
      </trkpt>
      <trkpt lat="46.51072" lon="0.35105">
        <ele>127.2</ele>
        <time>2020-09-13T06:09:03Z</time>
      </trkpt>
      <trkpt lat="46.51074" lon="0.35096">
        <ele>126.8</ele>
        <time>2020-09-13T06:09:04Z</time>
      </trkpt>
      <trkpt lat="46.5108" lon="0.3507">
        <ele>125.6</ele>
        <time>2020-09-13T06:09:07Z</time>
      </trkpt>
      <trkpt lat="46.51083" lon="0.35062">
        <ele>124.8</ele>
        <time>2020-09-13T06:09:08Z</time>
      </trkpt>
      <trkpt lat="46.51086" lon="0.35055">
        <ele>124.2</ele>
        <time>2020-09-13T06:09:09Z</time>
      </trkpt>
      <trkpt lat="46.51089" lon="0.35045">
        <ele>122.8</ele>
        <time>2020-09-13T06:09:11Z</time>
      </trkpt>
      <trkpt lat="46.5109" lon="0.35041">
        <ele>122.4</ele>
        <time>2020-09-13T06:09:12Z</time>
      </trkpt>
      <trkpt lat="46.51091" lon="0.35039">
        <ele>122</ele>
        <time>2020-09-13T06:09:13Z</time>
      </trkpt>
      <trkpt lat="46.51095" lon="0.35034">
        <ele>121.6</ele>
        <time>2020-09-13T06:09:15Z</time>
      </trkpt>
      <trkpt lat="46.51098" lon="0.35031">
        <ele>121.2</ele>
        <time>2020-09-13T06:09:16Z</time>
      </trkpt>
      <trkpt lat="46.51104" lon="0.35023">
        <ele>120.4</ele>
        <time>2020-09-13T06:09:18Z</time>
      </trkpt>
      <trkpt lat="46.51106" lon="0.35018">
        <ele>120.2</ele>
        <time>2020-09-13T06:09:19Z</time>
      </trkpt>
      <trkpt lat="46.51109" lon="0.35011">
        <ele>119.4</ele>
        <time>2020-09-13T06:09:21Z</time>
      </trkpt>
      <trkpt lat="46.51109" lon="0.35011">
        <ele>119</ele>
        <time>2020-09-13T06:09:22Z</time>
      </trkpt>
      <trkpt lat="46.51111" lon="0.35008">
        <ele>119</ele>
        <time>2020-09-13T06:09:24Z</time>
      </trkpt>
      <trkpt lat="46.51113" lon="0.35007">
        <ele>118.6</ele>
        <time>2020-09-13T06:09:27Z</time>
      </trkpt>
      <trkpt lat="46.51124" lon="0.35005">
        <ele>118.4</ele>
        <time>2020-09-13T06:09:33Z</time>
      </trkpt>
      <trkpt lat="46.51137" lon="0.34984">
        <ele>118.6</ele>
        <time>2020-09-13T06:09:39Z</time>
      </trkpt>
      <trkpt lat="46.51149" lon="0.34971">
        <ele>118.8</ele>
        <time>2020-09-13T06:09:43Z</time>
      </trkpt>
      <trkpt lat="46.51152" lon="0.34967">
        <ele>119</ele>
        <time>2020-09-13T06:09:44Z</time>
      </trkpt>
      <trkpt lat="46.51153" lon="0.34958">
        <ele>119.6</ele>
        <time>2020-09-13T06:09:46Z</time>
      </trkpt>
      <trkpt lat="46.51152" lon="0.34953">
        <ele>120.2</ele>
        <time>2020-09-13T06:09:47Z</time>
      </trkpt>
      <trkpt lat="46.51151" lon="0.34937">
        <ele>121.2</ele>
        <time>2020-09-13T06:09:50Z</time>
      </trkpt>
      <trkpt lat="46.51151" lon="0.34922">
        <ele>122</ele>
        <time>2020-09-13T06:09:53Z</time>
      </trkpt>
      <trkpt lat="46.5115" lon="0.34916">
        <ele>122.4</ele>
        <time>2020-09-13T06:09:54Z</time>
      </trkpt>
      <trkpt lat="46.51149" lon="0.34893">
        <ele>123.6</ele>
        <time>2020-09-13T06:09:58Z</time>
      </trkpt>
      <trkpt lat="46.5115" lon="0.34888">
        <ele>124</ele>
        <time>2020-09-13T06:09:59Z</time>
      </trkpt>
      <trkpt lat="46.51155" lon="0.34881">
        <ele>124.6</ele>
        <time>2020-09-13T06:10:01Z</time>
      </trkpt>
      <trkpt lat="46.51159" lon="0.3488">
        <ele>124.8</ele>
        <time>2020-09-13T06:10:02Z</time>
      </trkpt>
      <trkpt lat="46.51179" lon="0.34877">
        <ele>125.6</ele>
        <time>2020-09-13T06:10:07Z</time>
      </trkpt>
      <trkpt lat="46.51187" lon="0.34877">
        <ele>125.6</ele>
        <time>2020-09-13T06:10:09Z</time>
      </trkpt>
      <trkpt lat="46.51199" lon="0.34878">
        <ele>125.4</ele>
        <time>2020-09-13T06:10:12Z</time>
      </trkpt>
      <trkpt lat="46.51204" lon="0.34879">
        <ele>125.2</ele>
        <time>2020-09-13T06:10:13Z</time>
      </trkpt>
      <trkpt lat="46.51208" lon="0.34881">
        <ele>124.8</ele>
        <time>2020-09-13T06:10:14Z</time>
      </trkpt>
      <trkpt lat="46.51213" lon="0.34883">
        <ele>124.6</ele>
        <time>2020-09-13T06:10:15Z</time>
      </trkpt>
      <trkpt lat="46.51228" lon="0.3489">
        <ele>123.8</ele>
        <time>2020-09-13T06:10:18Z</time>
      </trkpt>
      <trkpt lat="46.51232" lon="0.34893">
        <ele>123.6</ele>
        <time>2020-09-13T06:10:19Z</time>
      </trkpt>
      <trkpt lat="46.51236" lon="0.34894">
        <ele>123.4</ele>
        <time>2020-09-13T06:10:20Z</time>
      </trkpt>
      <trkpt lat="46.51247" lon="0.34899">
        <ele>123.2</ele>
        <time>2020-09-13T06:10:22Z</time>
      </trkpt>
      <trkpt lat="46.51265" lon="0.34908">
        <ele>122.4</ele>
        <time>2020-09-13T06:10:25Z</time>
      </trkpt>
      <trkpt lat="46.51274" lon="0.34913">
        <ele>121</ele>
        <time>2020-09-13T06:10:27Z</time>
      </trkpt>
      <trkpt lat="46.51281" lon="0.34916">
        <ele>119.8</ele>
        <time>2020-09-13T06:10:29Z</time>
      </trkpt>
      <trkpt lat="46.51286" lon="0.34918">
        <ele>118.8</ele>
        <time>2020-09-13T06:10:31Z</time>
      </trkpt>
      <trkpt lat="46.51292" lon="0.34914">
        <ele>118.2</ele>
        <time>2020-09-13T06:10:35Z</time>
      </trkpt>
      <trkpt lat="46.51292" lon="0.34912">
        <ele>118.4</ele>
        <time>2020-09-13T06:10:36Z</time>
      </trkpt>
      <trkpt lat="46.51292" lon="0.34905">
        <ele>118.8</ele>
        <time>2020-09-13T06:10:40Z</time>
      </trkpt>
      <trkpt lat="46.51291" lon="0.34895">
        <ele>119.6</ele>
        <time>2020-09-13T06:10:43Z</time>
      </trkpt>
      <trkpt lat="46.51291" lon="0.34893">
        <ele>120</ele>
        <time>2020-09-13T06:10:44Z</time>
      </trkpt>
      <trkpt lat="46.51292" lon="0.34892">
        <ele>120.2</ele>
        <time>2020-09-13T06:10:45Z</time>
      </trkpt>
      <trkpt lat="46.51293" lon="0.34891">
        <ele>120.6</ele>
        <time>2020-09-13T06:10:46Z</time>
      </trkpt>
      <trkpt lat="46.51295" lon="0.34886">
        <ele>121</ele>
        <time>2020-09-13T06:10:49Z</time>
      </trkpt>
      <trkpt lat="46.51296" lon="0.34881">
        <ele>121.2</ele>
        <time>2020-09-13T06:10:51Z</time>
      </trkpt>
      <trkpt lat="46.51296" lon="0.34879">
        <ele>121.2</ele>
        <time>2020-09-13T06:10:52Z</time>
      </trkpt>
      <trkpt lat="46.51295" lon="0.34861">
        <ele>122</ele>
        <time>2020-09-13T06:10:58Z</time>
      </trkpt>
      <trkpt lat="46.51295" lon="0.34856">
        <ele>122.2</ele>
        <time>2020-09-13T06:11:00Z</time>
      </trkpt>
      <trkpt lat="46.51293" lon="0.34837">
        <ele>123.4</ele>
        <time>2020-09-13T06:11:06Z</time>
      </trkpt>
      <trkpt lat="46.51294" lon="0.34834">
        <ele>123.6</ele>
        <time>2020-09-13T06:11:07Z</time>
      </trkpt>
      <trkpt lat="46.51295" lon="0.34829">
        <ele>123.8</ele>
        <time>2020-09-13T06:11:09Z</time>
      </trkpt>
      <trkpt lat="46.51297" lon="0.34826">
        <ele>123.8</ele>
        <time>2020-09-13T06:11:11Z</time>
      </trkpt>
      <trkpt lat="46.51298" lon="0.34824">
        <ele>123.8</ele>
        <time>2020-09-13T06:11:12Z</time>
      </trkpt>
      <trkpt lat="46.51301" lon="0.34821">
        <ele>123.8</ele>
        <time>2020-09-13T06:11:14Z</time>
      </trkpt>
      <trkpt lat="46.51306" lon="0.3482">
        <ele>123.8</ele>
        <time>2020-09-13T06:11:17Z</time>
      </trkpt>
      <trkpt lat="46.51312" lon="0.34826">
        <ele>123.4</ele>
        <time>2020-09-13T06:11:21Z</time>
      </trkpt>
      <trkpt lat="46.51313" lon="0.34828">
        <ele>123.4</ele>
        <time>2020-09-13T06:11:22Z</time>
      </trkpt>
      <trkpt lat="46.51314" lon="0.34828">
        <ele>123.4</ele>
        <time>2020-09-13T06:11:23Z</time>
      </trkpt>
      <trkpt lat="46.51319" lon="0.3483">
        <ele>122.8</ele>
        <time>2020-09-13T06:11:26Z</time>
      </trkpt>
      <trkpt lat="46.51327" lon="0.34831">
        <ele>122.2</ele>
        <time>2020-09-13T06:11:30Z</time>
      </trkpt>
      <trkpt lat="46.51331" lon="0.3483">
        <ele>122.2</ele>
        <time>2020-09-13T06:11:32Z</time>
      </trkpt>
      <trkpt lat="46.51336" lon="0.34831">
        <ele>122.2</ele>
        <time>2020-09-13T06:11:35Z</time>
      </trkpt>
      <trkpt lat="46.51342" lon="0.34834">
        <ele>122</ele>
        <time>2020-09-13T06:11:38Z</time>
      </trkpt>
      <trkpt lat="46.51349" lon="0.34838">
        <ele>121.2</ele>
        <time>2020-09-13T06:11:41Z</time>
      </trkpt>
      <trkpt lat="46.51355" lon="0.3484">
        <ele>120.2</ele>
        <time>2020-09-13T06:11:44Z</time>
      </trkpt>
      <trkpt lat="46.51358" lon="0.34841">
        <ele>120</ele>
        <time>2020-09-13T06:11:45Z</time>
      </trkpt>
      <trkpt lat="46.51364" lon="0.34843">
        <ele>118.8</ele>
        <time>2020-09-13T06:11:48Z</time>
      </trkpt>
      <trkpt lat="46.51366" lon="0.34843">
        <ele>118.2</ele>
        <time>2020-09-13T06:11:49Z</time>
      </trkpt>
      <trkpt lat="46.51368" lon="0.34844">
        <ele>117.6</ele>
        <time>2020-09-13T06:11:50Z</time>
      </trkpt>
      <trkpt lat="46.51375" lon="0.34843">
        <ele>116.2</ele>
        <time>2020-09-13T06:11:53Z</time>
      </trkpt>
      <trkpt lat="46.51378" lon="0.34841">
        <ele>115.6</ele>
        <time>2020-09-13T06:11:54Z</time>
      </trkpt>
      <trkpt lat="46.5138" lon="0.34837">
        <ele>115</ele>
        <time>2020-09-13T06:11:56Z</time>
      </trkpt>
      <trkpt lat="46.51383" lon="0.34832">
        <ele>115</ele>
        <time>2020-09-13T06:11:59Z</time>
      </trkpt>
      <trkpt lat="46.51385" lon="0.34829">
        <ele>115.2</ele>
        <time>2020-09-13T06:12:01Z</time>
      </trkpt>
      <trkpt lat="46.51389" lon="0.34829">
        <ele>116.2</ele>
        <time>2020-09-13T06:12:04Z</time>
      </trkpt>
      <trkpt lat="46.51391" lon="0.34826">
        <ele>116.6</ele>
        <time>2020-09-13T06:12:06Z</time>
      </trkpt>
      <trkpt lat="46.51393" lon="0.34825">
        <ele>116.8</ele>
        <time>2020-09-13T06:12:08Z</time>
      </trkpt>
      <trkpt lat="46.51401" lon="0.34821">
        <ele>115.6</ele>
        <time>2020-09-13T06:12:13Z</time>
      </trkpt>
      <trkpt lat="46.51402" lon="0.34819">
        <ele>115.2</ele>
        <time>2020-09-13T06:12:15Z</time>
      </trkpt>
      <trkpt lat="46.51408" lon="0.34805">
        <ele>115</ele>
        <time>2020-09-13T06:12:23Z</time>
      </trkpt>
      <trkpt lat="46.51416" lon="0.34785">
        <ele>114</ele>
        <time>2020-09-13T06:12:30Z</time>
      </trkpt>
      <trkpt lat="46.51417" lon="0.34782">
        <ele>113.6</ele>
        <time>2020-09-13T06:12:31Z</time>
      </trkpt>
      <trkpt lat="46.51419" lon="0.34769">
        <ele>113.2</ele>
        <time>2020-09-13T06:12:35Z</time>
      </trkpt>
      <trkpt lat="46.51422" lon="0.34757">
        <ele>112.8</ele>
        <time>2020-09-13T06:12:39Z</time>
      </trkpt>
      <trkpt lat="46.51424" lon="0.34753">
        <ele>112.4</ele>
        <time>2020-09-13T06:12:41Z</time>
      </trkpt>
      <trkpt lat="46.51427" lon="0.34747">
        <ele>111.6</ele>
        <time>2020-09-13T06:12:43Z</time>
      </trkpt>
      <trkpt lat="46.51429" lon="0.34737">
        <ele>110.4</ele>
        <time>2020-09-13T06:12:46Z</time>
      </trkpt>
      <trkpt lat="46.51428" lon="0.3473">
        <ele>110</ele>
        <time>2020-09-13T06:12:49Z</time>
      </trkpt>
      <trkpt lat="46.51428" lon="0.34727">
        <ele>110.2</ele>
        <time>2020-09-13T06:12:51Z</time>
      </trkpt>
      <trkpt lat="46.51429" lon="0.34715">
        <ele>111.6</ele>
        <time>2020-09-13T06:13:00Z</time>
      </trkpt>
      <trkpt lat="46.51431" lon="0.3471">
        <ele>111.8</ele>
        <time>2020-09-13T06:13:04Z</time>
      </trkpt>
      <trkpt lat="46.5143" lon="0.34702">
        <ele>112.6</ele>
        <time>2020-09-13T06:13:09Z</time>
      </trkpt>
      <trkpt lat="46.51432" lon="0.347">
        <ele>112.8</ele>
        <time>2020-09-13T06:13:10Z</time>
      </trkpt>
      <trkpt lat="46.51432" lon="0.34698">
        <ele>113</ele>
        <time>2020-09-13T06:13:12Z</time>
      </trkpt>
      <trkpt lat="46.51433" lon="0.34696">
        <ele>113</ele>
        <time>2020-09-13T06:13:14Z</time>
      </trkpt>
      <trkpt lat="46.51434" lon="0.34695">
        <ele>113</ele>
        <time>2020-09-13T06:13:16Z</time>
      </trkpt>
      <trkpt lat="46.51438" lon="0.34694">
        <ele>111.6</ele>
        <time>2020-09-13T06:13:24Z</time>
      </trkpt>
      <trkpt lat="46.51438" lon="0.34694">
        <ele>111.6</ele>
        <time>2020-09-13T06:13:25Z</time>
      </trkpt>
      <trkpt lat="46.51441" lon="0.34689">
        <ele>111</ele>
        <time>2020-09-13T06:13:30Z</time>
      </trkpt>
      <trkpt lat="46.51443" lon="0.34684">
        <ele>110.6</ele>
        <time>2020-09-13T06:13:32Z</time>
      </trkpt>
      <trkpt lat="46.51444" lon="0.34682">
        <ele>110.6</ele>
        <time>2020-09-13T06:13:33Z</time>
      </trkpt>
      <trkpt lat="46.51452" lon="0.34668">
        <ele>109.6</ele>
        <time>2020-09-13T06:13:41Z</time>
      </trkpt>
      <trkpt lat="46.51453" lon="0.34666">
        <ele>107.4</ele>
        <time>2020-09-13T06:13:43Z</time>
      </trkpt>
      <trkpt lat="46.51456" lon="0.34661">
        <ele>106.2</ele>
        <time>2020-09-13T06:13:46Z</time>
      </trkpt>
      <trkpt lat="46.51458" lon="0.34658">
        <ele>104.6</ele>
        <time>2020-09-13T06:13:48Z</time>
      </trkpt>
      <trkpt lat="46.5146" lon="0.34651">
        <ele>103.8</ele>
        <time>2020-09-13T06:13:51Z</time>
      </trkpt>
      <trkpt lat="46.51462" lon="0.34645">
        <ele>103.4</ele>
        <time>2020-09-13T06:13:53Z</time>
      </trkpt>
      <trkpt lat="46.51468" lon="0.34632">
        <ele>103.2</ele>
        <time>2020-09-13T06:13:57Z</time>
      </trkpt>
      <trkpt lat="46.5148" lon="0.34607">
        <ele>103.4</ele>
        <time>2020-09-13T06:14:04Z</time>
      </trkpt>
      <trkpt lat="46.51488" lon="0.34578">
        <ele>102.6</ele>
        <time>2020-09-13T06:14:08Z</time>
      </trkpt>
      <trkpt lat="46.5149" lon="0.34572">
        <ele>102.4</ele>
        <time>2020-09-13T06:14:09Z</time>
      </trkpt>
      <trkpt lat="46.51496" lon="0.34553">
        <ele>102.2</ele>
        <time>2020-09-13T06:14:13Z</time>
      </trkpt>
      <trkpt lat="46.51502" lon="0.34537">
        <ele>102.6</ele>
        <time>2020-09-13T06:14:17Z</time>
      </trkpt>
      <trkpt lat="46.51503" lon="0.34533">
        <ele>102.8</ele>
        <time>2020-09-13T06:14:18Z</time>
      </trkpt>
      <trkpt lat="46.51503" lon="0.34529">
        <ele>102.8</ele>
        <time>2020-09-13T06:14:19Z</time>
      </trkpt>
      <trkpt lat="46.51501" lon="0.34525">
        <ele>102.8</ele>
        <time>2020-09-13T06:14:20Z</time>
      </trkpt>
      <trkpt lat="46.51493" lon="0.34518">
        <ele>103.6</ele>
        <time>2020-09-13T06:14:23Z</time>
      </trkpt>
      <trkpt lat="46.51485" lon="0.34513">
        <ele>104.8</ele>
        <time>2020-09-13T06:14:26Z</time>
      </trkpt>
      <trkpt lat="46.51478" lon="0.34509">
        <ele>105.8</ele>
        <time>2020-09-13T06:14:28Z</time>
      </trkpt>
      <trkpt lat="46.51467" lon="0.34505">
        <ele>107.2</ele>
        <time>2020-09-13T06:14:31Z</time>
      </trkpt>
      <trkpt lat="46.51457" lon="0.34504">
        <ele>108.6</ele>
        <time>2020-09-13T06:14:34Z</time>
      </trkpt>
      <trkpt lat="46.51447" lon="0.34503">
        <ele>109.8</ele>
        <time>2020-09-13T06:14:37Z</time>
      </trkpt>
      <trkpt lat="46.51437" lon="0.34503">
        <ele>111</ele>
        <time>2020-09-13T06:14:40Z</time>
      </trkpt>
      <trkpt lat="46.5143" lon="0.34503">
        <ele>111.8</ele>
        <time>2020-09-13T06:14:42Z</time>
      </trkpt>
      <trkpt lat="46.51424" lon="0.34505">
        <ele>112.2</ele>
        <time>2020-09-13T06:14:44Z</time>
      </trkpt>
      <trkpt lat="46.51415" lon="0.34503">
        <ele>113.2</ele>
        <time>2020-09-13T06:14:47Z</time>
      </trkpt>
      <trkpt lat="46.5141" lon="0.34509">
        <ele>114.2</ele>
        <time>2020-09-13T06:14:50Z</time>
      </trkpt>
      <trkpt lat="46.51409" lon="0.34511">
        <ele>114.4</ele>
        <time>2020-09-13T06:14:51Z</time>
      </trkpt>
      <trkpt lat="46.51405" lon="0.34515">
        <ele>115.8</ele>
        <time>2020-09-13T06:14:54Z</time>
      </trkpt>
      <trkpt lat="46.51402" lon="0.34518">
        <ele>116.2</ele>
        <time>2020-09-13T06:14:56Z</time>
      </trkpt>
      <trkpt lat="46.51399" lon="0.34521">
        <ele>117</ele>
        <time>2020-09-13T06:14:58Z</time>
      </trkpt>
      <trkpt lat="46.51391" lon="0.3453">
        <ele>118.2</ele>
        <time>2020-09-13T06:15:02Z</time>
      </trkpt>
      <trkpt lat="46.51376" lon="0.34543">
        <ele>119.2</ele>
        <time>2020-09-13T06:15:07Z</time>
      </trkpt>
      <trkpt lat="46.51374" lon="0.34544">
        <ele>119.6</ele>
        <time>2020-09-13T06:15:08Z</time>
      </trkpt>
      <trkpt lat="46.51357" lon="0.34552">
        <ele>120.2</ele>
        <time>2020-09-13T06:15:13Z</time>
      </trkpt>
      <trkpt lat="46.51351" lon="0.34555">
        <ele>120.6</ele>
        <time>2020-09-13T06:15:15Z</time>
      </trkpt>
      <trkpt lat="46.51335" lon="0.34563">
        <ele>121.4</ele>
        <time>2020-09-13T06:15:20Z</time>
      </trkpt>
      <trkpt lat="46.51326" lon="0.3457">
        <ele>121.6</ele>
        <time>2020-09-13T06:15:23Z</time>
      </trkpt>
      <trkpt lat="46.51312" lon="0.34583">
        <ele>122.4</ele>
        <time>2020-09-13T06:15:28Z</time>
      </trkpt>
      <trkpt lat="46.51309" lon="0.34586">
        <ele>122.6</ele>
        <time>2020-09-13T06:15:29Z</time>
      </trkpt>
      <trkpt lat="46.51289" lon="0.34605">
        <ele>123.4</ele>
        <time>2020-09-13T06:15:36Z</time>
      </trkpt>
      <trkpt lat="46.51285" lon="0.34607">
        <ele>123.4</ele>
        <time>2020-09-13T06:15:37Z</time>
      </trkpt>
      <trkpt lat="46.51267" lon="0.34609">
        <ele>124</ele>
        <time>2020-09-13T06:15:42Z</time>
      </trkpt>
      <trkpt lat="46.51246" lon="0.34605">
        <ele>124.4</ele>
        <time>2020-09-13T06:15:48Z</time>
      </trkpt>
      <trkpt lat="46.51223" lon="0.34604">
        <ele>125.6</ele>
        <time>2020-09-13T06:15:54Z</time>
      </trkpt>
      <trkpt lat="46.51206" lon="0.34607">
        <ele>126</ele>
        <time>2020-09-13T06:15:58Z</time>
      </trkpt>
      <trkpt lat="46.51194" lon="0.34611">
        <ele>126.2</ele>
        <time>2020-09-13T06:16:01Z</time>
      </trkpt>
      <trkpt lat="46.51183" lon="0.34612">
        <ele>126.6</ele>
        <time>2020-09-13T06:16:05Z</time>
      </trkpt>
      <trkpt lat="46.51183" lon="0.3461">
        <ele>126.6</ele>
        <time>2020-09-13T06:16:06Z</time>
      </trkpt>
      <trkpt lat="46.51187" lon="0.34592">
        <ele>126.6</ele>
        <time>2020-09-13T06:16:10Z</time>
      </trkpt>
      <trkpt lat="46.51189" lon="0.34579">
        <ele>126.6</ele>
        <time>2020-09-13T06:16:12Z</time>
      </trkpt>
      <trkpt lat="46.5119" lon="0.34563">
        <ele>126.4</ele>
        <time>2020-09-13T06:16:14Z</time>
      </trkpt>
      <trkpt lat="46.51191" lon="0.34537">
        <ele>126.2</ele>
        <time>2020-09-13T06:16:17Z</time>
      </trkpt>
      <trkpt lat="46.5119" lon="0.34518">
        <ele>126</ele>
        <time>2020-09-13T06:16:19Z</time>
      </trkpt>
      <trkpt lat="46.51188" lon="0.34509">
        <ele>126</ele>
        <time>2020-09-13T06:16:20Z</time>
      </trkpt>
      <trkpt lat="46.51177" lon="0.34446">
        <ele>125.8</ele>
        <time>2020-09-13T06:16:27Z</time>
      </trkpt>
      <trkpt lat="46.51162" lon="0.34378">
        <ele>126</ele>
        <time>2020-09-13T06:16:35Z</time>
      </trkpt>
      <trkpt lat="46.51158" lon="0.34354">
        <ele>126.8</ele>
        <time>2020-09-13T06:16:38Z</time>
      </trkpt>
      <trkpt lat="46.51156" lon="0.34338">
        <ele>127</ele>
        <time>2020-09-13T06:16:40Z</time>
      </trkpt>
      <trkpt lat="46.51157" lon="0.34321">
        <ele>127.2</ele>
        <time>2020-09-13T06:16:42Z</time>
      </trkpt>
      <trkpt lat="46.51162" lon="0.343">
        <ele>127.4</ele>
        <time>2020-09-13T06:16:45Z</time>
      </trkpt>
      <trkpt lat="46.51164" lon="0.34294">
        <ele>127.4</ele>
        <time>2020-09-13T06:16:47Z</time>
      </trkpt>
      <trkpt lat="46.51174" lon="0.34254">
        <ele>127.4</ele>
        <time>2020-09-13T06:16:53Z</time>
      </trkpt>
      <trkpt lat="46.51181" lon="0.34221">
        <ele>127.4</ele>
        <time>2020-09-13T06:16:59Z</time>
      </trkpt>
      <trkpt lat="46.51182" lon="0.34215">
        <ele>127.4</ele>
        <time>2020-09-13T06:17:00Z</time>
      </trkpt>
      <trkpt lat="46.51189" lon="0.34187">
        <ele>127.6</ele>
        <time>2020-09-13T06:17:05Z</time>
      </trkpt>
      <trkpt lat="46.51192" lon="0.34178">
        <ele>127.6</ele>
        <time>2020-09-13T06:17:07Z</time>
      </trkpt>
      <trkpt lat="46.51198" lon="0.34172">
        <ele>127.6</ele>
        <time>2020-09-13T06:17:09Z</time>
      </trkpt>
      <trkpt lat="46.51205" lon="0.34166">
        <ele>127.2</ele>
        <time>2020-09-13T06:17:11Z</time>
      </trkpt>
      <trkpt lat="46.51211" lon="0.34161">
        <ele>126</ele>
        <time>2020-09-13T06:17:13Z</time>
      </trkpt>
      <trkpt lat="46.51214" lon="0.3416">
        <ele>125.4</ele>
        <time>2020-09-13T06:17:14Z</time>
      </trkpt>
      <trkpt lat="46.51216" lon="0.3416">
        <ele>125</ele>
        <time>2020-09-13T06:17:15Z</time>
      </trkpt>
      <trkpt lat="46.51217" lon="0.34159">
        <ele>124.4</ele>
        <time>2020-09-13T06:17:16Z</time>
      </trkpt>
      <trkpt lat="46.5122" lon="0.34154">
        <ele>123.2</ele>
        <time>2020-09-13T06:17:19Z</time>
      </trkpt>
      <trkpt lat="46.51221" lon="0.34151">
        <ele>121.8</ele>
        <time>2020-09-13T06:17:21Z</time>
      </trkpt>
      <trkpt lat="46.51221" lon="0.3415">
        <ele>121.4</ele>
        <time>2020-09-13T06:17:22Z</time>
      </trkpt>
      <trkpt lat="46.51221" lon="0.34148">
        <ele>120.6</ele>
        <time>2020-09-13T06:17:24Z</time>
      </trkpt>
      <trkpt lat="46.51222" lon="0.34147">
        <ele>119.8</ele>
        <time>2020-09-13T06:17:26Z</time>
      </trkpt>
      <trkpt lat="46.51223" lon="0.34146">
        <ele>119</ele>
        <time>2020-09-13T06:17:27Z</time>
      </trkpt>
      <trkpt lat="46.51225" lon="0.34143">
        <ele>118</ele>
        <time>2020-09-13T06:17:29Z</time>
      </trkpt>
      <trkpt lat="46.51226" lon="0.34141">
        <ele>117.4</ele>
        <time>2020-09-13T06:17:30Z</time>
      </trkpt>
      <trkpt lat="46.51227" lon="0.3414">
        <ele>116.8</ele>
        <time>2020-09-13T06:17:31Z</time>
      </trkpt>
      <trkpt lat="46.5123" lon="0.34138">
        <ele>115.4</ele>
        <time>2020-09-13T06:17:33Z</time>
      </trkpt>
      <trkpt lat="46.51232" lon="0.34137">
        <ele>114.6</ele>
        <time>2020-09-13T06:17:35Z</time>
      </trkpt>
      <trkpt lat="46.51233" lon="0.34137">
        <ele>114</ele>
        <time>2020-09-13T06:17:36Z</time>
      </trkpt>
      <trkpt lat="46.51233" lon="0.34137">
        <ele>113</ele>
        <time>2020-09-13T06:17:37Z</time>
      </trkpt>
      <trkpt lat="46.51235" lon="0.34137">
        <ele>111.6</ele>
        <time>2020-09-13T06:17:39Z</time>
      </trkpt>
      <trkpt lat="46.51235" lon="0.34137">
        <ele>110.4</ele>
        <time>2020-09-13T06:17:42Z</time>
      </trkpt>
      <trkpt lat="46.51235" lon="0.34137">
        <ele>110.4</ele>
        <time>2020-09-13T06:17:43Z</time>
      </trkpt>
      <trkpt lat="46.51238" lon="0.34134">
        <ele>110.4</ele>
        <time>2020-09-13T06:17:55Z</time>
      </trkpt>
      <trkpt lat="46.51241" lon="0.3413">
        <ele>110.4</ele>
        <time>2020-09-13T06:18:06Z</time>
      </trkpt>
      <trkpt lat="46.51244" lon="0.34125">
        <ele>110.4</ele>
        <time>2020-09-13T06:18:19Z</time>
      </trkpt>
      <trkpt lat="46.51247" lon="0.34116">
        <ele>110.4</ele>
        <time>2020-09-13T06:18:29Z</time>
      </trkpt>
      <trkpt lat="46.51251" lon="0.3411">
        <ele>109</ele>
        <time>2020-09-13T06:18:34Z</time>
      </trkpt>
      <trkpt lat="46.51252" lon="0.34108">
        <ele>105.2</ele>
        <time>2020-09-13T06:18:35Z</time>
      </trkpt>
      <trkpt lat="46.51253" lon="0.34107">
        <ele>101.8</ele>
        <time>2020-09-13T06:18:36Z</time>
      </trkpt>
      <trkpt lat="46.51254" lon="0.34104">
        <ele>99.8</ele>
        <time>2020-09-13T06:18:37Z</time>
      </trkpt>
      <trkpt lat="46.51254" lon="0.34101">
        <ele>98.4</ele>
        <time>2020-09-13T06:18:38Z</time>
      </trkpt>
      <trkpt lat="46.51254" lon="0.34095">
        <ele>97</ele>
        <time>2020-09-13T06:18:40Z</time>
      </trkpt>
      <trkpt lat="46.51253" lon="0.34088">
        <ele>95.6</ele>
        <time>2020-09-13T06:18:43Z</time>
      </trkpt>
      <trkpt lat="46.51253" lon="0.34085">
        <ele>95.4</ele>
        <time>2020-09-13T06:18:44Z</time>
      </trkpt>
      <trkpt lat="46.51253" lon="0.3408">
        <ele>94.6</ele>
        <time>2020-09-13T06:18:47Z</time>
      </trkpt>
      <trkpt lat="46.51253" lon="0.34071">
        <ele>94.2</ele>
        <time>2020-09-13T06:18:50Z</time>
      </trkpt>
      <trkpt lat="46.51252" lon="0.34065">
        <ele>93.2</ele>
        <time>2020-09-13T06:18:52Z</time>
      </trkpt>
      <trkpt lat="46.51249" lon="0.34053">
        <ele>91.6</ele>
        <time>2020-09-13T06:18:54Z</time>
      </trkpt>
      <trkpt lat="46.51247" lon="0.34042">
        <ele>90</ele>
        <time>2020-09-13T06:18:56Z</time>
      </trkpt>
      <trkpt lat="46.51246" lon="0.34031">
        <ele>88.8</ele>
        <time>2020-09-13T06:18:58Z</time>
      </trkpt>
      <trkpt lat="46.51245" lon="0.34026">
        <ele>88</ele>
        <time>2020-09-13T06:18:59Z</time>
      </trkpt>
      <trkpt lat="46.51245" lon="0.34021">
        <ele>86.8</ele>
        <time>2020-09-13T06:19:00Z</time>
      </trkpt>
      <trkpt lat="46.51245" lon="0.34014">
        <ele>85.6</ele>
        <time>2020-09-13T06:19:01Z</time>
      </trkpt>
      <trkpt lat="46.51249" lon="0.34007">
        <ele>83.6</ele>
        <time>2020-09-13T06:19:03Z</time>
      </trkpt>
      <trkpt lat="46.5125" lon="0.34005">
        <ele>82.4</ele>
        <time>2020-09-13T06:19:04Z</time>
      </trkpt>
      <trkpt lat="46.51252" lon="0.34004">
        <ele>81.2</ele>
        <time>2020-09-13T06:19:05Z</time>
      </trkpt>
      <trkpt lat="46.51253" lon="0.34004">
        <ele>79.6</ele>
        <time>2020-09-13T06:19:07Z</time>
      </trkpt>
      <trkpt lat="46.51261" lon="0.34004">
        <ele>78.6</ele>
        <time>2020-09-13T06:19:13Z</time>
      </trkpt>
      <trkpt lat="46.51266" lon="0.34009">
        <ele>78.6</ele>
        <time>2020-09-13T06:19:16Z</time>
      </trkpt>
      <trkpt lat="46.5127" lon="0.34014">
        <ele>78.6</ele>
        <time>2020-09-13T06:19:18Z</time>
      </trkpt>
      <trkpt lat="46.51291" lon="0.34024">
        <ele>78.8</ele>
        <time>2020-09-13T06:19:25Z</time>
      </trkpt>
      <trkpt lat="46.51295" lon="0.34032">
        <ele>78.6</ele>
        <time>2020-09-13T06:19:29Z</time>
      </trkpt>
      <trkpt lat="46.51295" lon="0.34036">
        <ele>79.8</ele>
        <time>2020-09-13T06:19:32Z</time>
      </trkpt>
      <trkpt lat="46.51295" lon="0.34036">
        <ele>80.6</ele>
        <time>2020-09-13T06:19:33Z</time>
      </trkpt>
      <trkpt lat="46.51297" lon="0.34038">
        <ele>81</ele>
        <time>2020-09-13T06:19:35Z</time>
      </trkpt>
      <trkpt lat="46.51299" lon="0.3404">
        <ele>82</ele>
        <time>2020-09-13T06:19:39Z</time>
      </trkpt>
      <trkpt lat="46.513" lon="0.34044">
        <ele>83</ele>
        <time>2020-09-13T06:19:43Z</time>
      </trkpt>
      <trkpt lat="46.51301" lon="0.34046">
        <ele>83.8</ele>
        <time>2020-09-13T06:19:46Z</time>
      </trkpt>
      <trkpt lat="46.51301" lon="0.34048">
        <ele>84.2</ele>
        <time>2020-09-13T06:19:48Z</time>
      </trkpt>
      <trkpt lat="46.51302" lon="0.34051">
        <ele>85.2</ele>
        <time>2020-09-13T06:19:52Z</time>
      </trkpt>
      <trkpt lat="46.51303" lon="0.34056">
        <ele>86.4</ele>
        <time>2020-09-13T06:19:57Z</time>
      </trkpt>
      <trkpt lat="46.51303" lon="0.34058">
        <ele>86.6</ele>
        <time>2020-09-13T06:19:58Z</time>
      </trkpt>
      <trkpt lat="46.51303" lon="0.34061">
        <ele>87.4</ele>
        <time>2020-09-13T06:20:01Z</time>
      </trkpt>
      <trkpt lat="46.51308" lon="0.34068">
        <ele>88.4</ele>
        <time>2020-09-13T06:20:09Z</time>
      </trkpt>
      <trkpt lat="46.51313" lon="0.34076">
        <ele>88.6</ele>
        <time>2020-09-13T06:20:13Z</time>
      </trkpt>
      <trkpt lat="46.51315" lon="0.34081">
        <ele>89</ele>
        <time>2020-09-13T06:20:16Z</time>
      </trkpt>
      <trkpt lat="46.51316" lon="0.34086">
        <ele>89.2</ele>
        <time>2020-09-13T06:20:19Z</time>
      </trkpt>
      <trkpt lat="46.51317" lon="0.34089">
        <ele>89.6</ele>
        <time>2020-09-13T06:20:20Z</time>
      </trkpt>
      <trkpt lat="46.51318" lon="0.34091">
        <ele>90</ele>
        <time>2020-09-13T06:20:21Z</time>
      </trkpt>
      <trkpt lat="46.51322" lon="0.34097">
        <ele>90.6</ele>
        <time>2020-09-13T06:20:24Z</time>
      </trkpt>
      <trkpt lat="46.51323" lon="0.34099">
        <ele>90.8</ele>
        <time>2020-09-13T06:20:25Z</time>
      </trkpt>
      <trkpt lat="46.51324" lon="0.341">
        <ele>90.8</ele>
        <time>2020-09-13T06:20:26Z</time>
      </trkpt>
      <trkpt lat="46.51331" lon="0.34108">
        <ele>91.2</ele>
        <time>2020-09-13T06:20:32Z</time>
      </trkpt>
      <trkpt lat="46.51337" lon="0.34113">
        <ele>91.8</ele>
        <time>2020-09-13T06:20:35Z</time>
      </trkpt>
      <trkpt lat="46.5134" lon="0.34117">
        <ele>92.2</ele>
        <time>2020-09-13T06:20:37Z</time>
      </trkpt>
      <trkpt lat="46.51348" lon="0.34126">
        <ele>92.8</ele>
        <time>2020-09-13T06:20:41Z</time>
      </trkpt>
      <trkpt lat="46.5135" lon="0.34128">
        <ele>92.8</ele>
        <time>2020-09-13T06:20:42Z</time>
      </trkpt>
      <trkpt lat="46.51359" lon="0.34132">
        <ele>91.8</ele>
        <time>2020-09-13T06:20:46Z</time>
      </trkpt>
      <trkpt lat="46.51365" lon="0.34135">
        <ele>91.4</ele>
        <time>2020-09-13T06:20:48Z</time>
      </trkpt>
      <trkpt lat="46.51374" lon="0.3414">
        <ele>90.8</ele>
        <time>2020-09-13T06:20:51Z</time>
      </trkpt>
      <trkpt lat="46.51377" lon="0.34141">
        <ele>90.4</ele>
        <time>2020-09-13T06:20:52Z</time>
      </trkpt>
      <trkpt lat="46.51379" lon="0.34141">
        <ele>90</ele>
        <time>2020-09-13T06:20:53Z</time>
      </trkpt>
      <trkpt lat="46.5138" lon="0.34142">
        <ele>89.6</ele>
        <time>2020-09-13T06:20:54Z</time>
      </trkpt>
      <trkpt lat="46.51382" lon="0.34143">
        <ele>89.4</ele>
        <time>2020-09-13T06:20:55Z</time>
      </trkpt>
      <trkpt lat="46.51389" lon="0.34143">
        <ele>88.6</ele>
        <time>2020-09-13T06:20:58Z</time>
      </trkpt>
      <trkpt lat="46.51392" lon="0.34142">
        <ele>88.4</ele>
        <time>2020-09-13T06:20:59Z</time>
      </trkpt>
      <trkpt lat="46.51398" lon="0.34141">
        <ele>87.6</ele>
        <time>2020-09-13T06:21:01Z</time>
      </trkpt>
      <trkpt lat="46.51401" lon="0.34142">
        <ele>87.4</ele>
        <time>2020-09-13T06:21:02Z</time>
      </trkpt>
      <trkpt lat="46.51404" lon="0.34142">
        <ele>87.2</ele>
        <time>2020-09-13T06:21:03Z</time>
      </trkpt>
      <trkpt lat="46.51418" lon="0.3414">
        <ele>85.8</ele>
        <time>2020-09-13T06:21:07Z</time>
      </trkpt>
      <trkpt lat="46.51423" lon="0.34139">
        <ele>85.4</ele>
        <time>2020-09-13T06:21:08Z</time>
      </trkpt>
      <trkpt lat="46.51429" lon="0.34137">
        <ele>84.6</ele>
        <time>2020-09-13T06:21:10Z</time>
      </trkpt>
      <trkpt lat="46.51439" lon="0.34131">
        <ele>83.4</ele>
        <time>2020-09-13T06:21:13Z</time>
      </trkpt>
      <trkpt lat="46.5145" lon="0.34117">
        <ele>82</ele>
        <time>2020-09-13T06:21:16Z</time>
      </trkpt>
      <trkpt lat="46.51454" lon="0.34113">
        <ele>81.2</ele>
        <time>2020-09-13T06:21:17Z</time>
      </trkpt>
      <trkpt lat="46.51458" lon="0.34111">
        <ele>80.2</ele>
        <time>2020-09-13T06:21:18Z</time>
      </trkpt>
      <trkpt lat="46.51465" lon="0.34109">
        <ele>79</ele>
        <time>2020-09-13T06:21:20Z</time>
      </trkpt>
      <trkpt lat="46.51468" lon="0.34107">
        <ele>78.2</ele>
        <time>2020-09-13T06:21:22Z</time>
      </trkpt>
      <trkpt lat="46.5147" lon="0.34106">
        <ele>77.8</ele>
        <time>2020-09-13T06:21:23Z</time>
      </trkpt>
      <trkpt lat="46.51474" lon="0.34103">
        <ele>76.6</ele>
        <time>2020-09-13T06:21:27Z</time>
      </trkpt>
      <trkpt lat="46.51475" lon="0.34103">
        <ele>76.4</ele>
        <time>2020-09-13T06:21:32Z</time>
      </trkpt>
      <trkpt lat="46.51475" lon="0.34103">
        <ele>76.2</ele>
        <time>2020-09-13T06:21:47Z</time>
      </trkpt>
      <trkpt lat="46.51475" lon="0.34102">
        <ele>76.2</ele>
        <time>2020-09-13T06:22:32Z</time>
      </trkpt>
      <trkpt lat="46.51475" lon="0.34099">
        <ele>75.8</ele>
        <time>2020-09-13T06:22:42Z</time>
      </trkpt>
      <trkpt lat="46.51475" lon="0.34095">
        <ele>76</ele>
        <time>2020-09-13T06:23:03Z</time>
      </trkpt>
      <trkpt lat="46.51475" lon="0.34094">
        <ele>75.4</ele>
        <time>2020-09-13T06:23:07Z</time>
      </trkpt>
      <trkpt lat="46.51476" lon="0.34093">
        <ele>75</ele>
        <time>2020-09-13T06:23:10Z</time>
      </trkpt>
      <trkpt lat="46.51478" lon="0.34084">
        <ele>74.4</ele>
        <time>2020-09-13T06:23:15Z</time>
      </trkpt>
      <trkpt lat="46.51478" lon="0.3408">
        <ele>73.6</ele>
        <time>2020-09-13T06:23:21Z</time>
      </trkpt>
      <trkpt lat="46.51479" lon="0.34077">
        <ele>73.4</ele>
        <time>2020-09-13T06:23:30Z</time>
      </trkpt>
      <trkpt lat="46.51478" lon="0.34076">
        <ele>73.6</ele>
        <time>2020-09-13T06:23:38Z</time>
      </trkpt>
      <trkpt lat="46.51478" lon="0.34072">
        <ele>73.8</ele>
        <time>2020-09-13T06:23:47Z</time>
      </trkpt>
      <trkpt lat="46.51477" lon="0.34065">
        <ele>73.8</ele>
        <time>2020-09-13T06:23:55Z</time>
      </trkpt>
      <trkpt lat="46.51479" lon="0.3406">
        <ele>74.2</ele>
        <time>2020-09-13T06:24:01Z</time>
      </trkpt>
      <trkpt lat="46.51483" lon="0.34051">
        <ele>74.4</ele>
        <time>2020-09-13T06:24:07Z</time>
      </trkpt>
      <trkpt lat="46.51484" lon="0.34044">
        <ele>75</ele>
        <time>2020-09-13T06:24:13Z</time>
      </trkpt>
      <trkpt lat="46.51484" lon="0.34045">
        <ele>75</ele>
        <time>2020-09-13T06:24:18Z</time>
      </trkpt>
      <trkpt lat="46.51485" lon="0.34044">
        <ele>75.2</ele>
        <time>2020-09-13T06:24:27Z</time>
      </trkpt>
      <trkpt lat="46.5149" lon="0.34046">
        <ele>75.4</ele>
        <time>2020-09-13T06:24:33Z</time>
      </trkpt>
      <trkpt lat="46.51501" lon="0.34054">
        <ele>75.6</ele>
        <time>2020-09-13T06:24:39Z</time>
      </trkpt>
      <trkpt lat="46.51515" lon="0.34065">
        <ele>75.4</ele>
        <time>2020-09-13T06:24:45Z</time>
      </trkpt>
      <trkpt lat="46.51533" lon="0.34076">
        <ele>76</ele>
        <time>2020-09-13T06:24:51Z</time>
      </trkpt>
      <trkpt lat="46.51536" lon="0.34077">
        <ele>76</ele>
        <time>2020-09-13T06:24:52Z</time>
      </trkpt>
      <trkpt lat="46.51553" lon="0.34081">
        <ele>76.6</ele>
        <time>2020-09-13T06:24:56Z</time>
      </trkpt>
      <trkpt lat="46.51557" lon="0.34081">
        <ele>76.6</ele>
        <time>2020-09-13T06:24:57Z</time>
      </trkpt>
      <trkpt lat="46.51568" lon="0.3408">
        <ele>76.2</ele>
        <time>2020-09-13T06:25:00Z</time>
      </trkpt>
      <trkpt lat="46.51574" lon="0.34076">
        <ele>76.2</ele>
        <time>2020-09-13T06:25:02Z</time>
      </trkpt>
      <trkpt lat="46.5159" lon="0.34076">
        <ele>76.4</ele>
        <time>2020-09-13T06:25:06Z</time>
      </trkpt>
      <trkpt lat="46.51622" lon="0.34067">
        <ele>76.4</ele>
        <time>2020-09-13T06:25:13Z</time>
      </trkpt>
      <trkpt lat="46.51637" lon="0.34064">
        <ele>76.2</ele>
        <time>2020-09-13T06:25:16Z</time>
      </trkpt>
      <trkpt lat="46.51647" lon="0.34063">
        <ele>76</ele>
        <time>2020-09-13T06:25:18Z</time>
      </trkpt>
      <trkpt lat="46.51656" lon="0.34064">
        <ele>76</ele>
        <time>2020-09-13T06:25:20Z</time>
      </trkpt>
      <trkpt lat="46.5167" lon="0.34064">
        <ele>76</ele>
        <time>2020-09-13T06:25:23Z</time>
      </trkpt>
      <trkpt lat="46.51679" lon="0.34062">
        <ele>76</ele>
        <time>2020-09-13T06:25:25Z</time>
      </trkpt>
      <trkpt lat="46.51687" lon="0.34057">
        <ele>76.4</ele>
        <time>2020-09-13T06:25:27Z</time>
      </trkpt>
      <trkpt lat="46.51695" lon="0.34052">
        <ele>76.4</ele>
        <time>2020-09-13T06:25:29Z</time>
      </trkpt>
      <trkpt lat="46.51708" lon="0.34043">
        <ele>77</ele>
        <time>2020-09-13T06:25:32Z</time>
      </trkpt>
      <trkpt lat="46.51717" lon="0.34039">
        <ele>77.4</ele>
        <time>2020-09-13T06:25:34Z</time>
      </trkpt>
      <trkpt lat="46.51728" lon="0.34033">
        <ele>77.4</ele>
        <time>2020-09-13T06:25:37Z</time>
      </trkpt>
      <trkpt lat="46.51734" lon="0.3403">
        <ele>76.8</ele>
        <time>2020-09-13T06:25:41Z</time>
      </trkpt>
      <trkpt lat="46.51737" lon="0.34028">
        <ele>76.4</ele>
        <time>2020-09-13T06:25:44Z</time>
      </trkpt>
      <trkpt lat="46.51741" lon="0.34029">
        <ele>76.2</ele>
        <time>2020-09-13T06:25:47Z</time>
      </trkpt>
      <trkpt lat="46.51755" lon="0.34037">
        <ele>76.4</ele>
        <time>2020-09-13T06:25:52Z</time>
      </trkpt>
      <trkpt lat="46.51782" lon="0.34053">
        <ele>76.6</ele>
        <time>2020-09-13T06:25:58Z</time>
      </trkpt>
      <trkpt lat="46.51796" lon="0.34059">
        <ele>76.8</ele>
        <time>2020-09-13T06:26:01Z</time>
      </trkpt>
      <trkpt lat="46.51801" lon="0.34059">
        <ele>76.8</ele>
        <time>2020-09-13T06:26:02Z</time>
      </trkpt>
      <trkpt lat="46.51806" lon="0.34058">
        <ele>76.8</ele>
        <time>2020-09-13T06:26:03Z</time>
      </trkpt>
      <trkpt lat="46.51811" lon="0.34056">
        <ele>76.8</ele>
        <time>2020-09-13T06:26:04Z</time>
      </trkpt>
      <trkpt lat="46.51836" lon="0.34053">
        <ele>77</ele>
        <time>2020-09-13T06:26:09Z</time>
      </trkpt>
      <trkpt lat="46.51841" lon="0.34054">
        <ele>77</ele>
        <time>2020-09-13T06:26:10Z</time>
      </trkpt>
      <trkpt lat="46.51857" lon="0.34064">
        <ele>77</ele>
        <time>2020-09-13T06:26:13Z</time>
      </trkpt>
      <trkpt lat="46.51873" lon="0.34065">
        <ele>77</ele>
        <time>2020-09-13T06:26:16Z</time>
      </trkpt>
      <trkpt lat="46.51905" lon="0.34057">
        <ele>76.6</ele>
        <time>2020-09-13T06:26:22Z</time>
      </trkpt>
      <trkpt lat="46.51928" lon="0.34052">
        <ele>76.4</ele>
        <time>2020-09-13T06:26:26Z</time>
      </trkpt>
      <trkpt lat="46.51939" lon="0.34048">
        <ele>76.4</ele>
        <time>2020-09-13T06:26:28Z</time>
      </trkpt>
      <trkpt lat="46.51975" lon="0.34032">
        <ele>76.8</ele>
        <time>2020-09-13T06:26:35Z</time>
      </trkpt>
      <trkpt lat="46.51979" lon="0.34024">
        <ele>76.6</ele>
        <time>2020-09-13T06:26:37Z</time>
      </trkpt>
      <trkpt lat="46.51979" lon="0.34018">
        <ele>76.6</ele>
        <time>2020-09-13T06:26:38Z</time>
      </trkpt>
      <trkpt lat="46.51975" lon="0.33993">
        <ele>76.4</ele>
        <time>2020-09-13T06:26:42Z</time>
      </trkpt>
      <trkpt lat="46.51971" lon="0.33964">
        <ele>76.4</ele>
        <time>2020-09-13T06:26:46Z</time>
      </trkpt>
      <trkpt lat="46.51973" lon="0.33949">
        <ele>76.4</ele>
        <time>2020-09-13T06:26:48Z</time>
      </trkpt>
      <trkpt lat="46.51979" lon="0.33932">
        <ele>76.4</ele>
        <time>2020-09-13T06:26:51Z</time>
      </trkpt>
      <trkpt lat="46.51983" lon="0.3392">
        <ele>76.4</ele>
        <time>2020-09-13T06:26:53Z</time>
      </trkpt>
      <trkpt lat="46.51989" lon="0.3387">
        <ele>76.4</ele>
        <time>2020-09-13T06:27:00Z</time>
      </trkpt>
      <trkpt lat="46.51991" lon="0.3385">
        <ele>76.2</ele>
        <time>2020-09-13T06:27:03Z</time>
      </trkpt>
      <trkpt lat="46.51994" lon="0.33831">
        <ele>76</ele>
        <time>2020-09-13T06:27:06Z</time>
      </trkpt>
      <trkpt lat="46.51994" lon="0.33824">
        <ele>75.8</ele>
        <time>2020-09-13T06:27:07Z</time>
      </trkpt>
      <trkpt lat="46.51996" lon="0.33772">
        <ele>76.2</ele>
        <time>2020-09-13T06:27:15Z</time>
      </trkpt>
      <trkpt lat="46.51995" lon="0.33753">
        <ele>76.2</ele>
        <time>2020-09-13T06:27:18Z</time>
      </trkpt>
      <trkpt lat="46.51995" lon="0.3374">
        <ele>76.2</ele>
        <time>2020-09-13T06:27:20Z</time>
      </trkpt>
      <trkpt lat="46.51999" lon="0.33732">
        <ele>76</ele>
        <time>2020-09-13T06:27:22Z</time>
      </trkpt>
      <trkpt lat="46.52002" lon="0.3373">
        <ele>76</ele>
        <time>2020-09-13T06:27:23Z</time>
      </trkpt>
      <trkpt lat="46.52004" lon="0.33728">
        <ele>76</ele>
        <time>2020-09-13T06:27:24Z</time>
      </trkpt>
      <trkpt lat="46.52009" lon="0.33726">
        <ele>76.2</ele>
        <time>2020-09-13T06:27:27Z</time>
      </trkpt>
      <trkpt lat="46.52027" lon="0.33731">
        <ele>76.4</ele>
        <time>2020-09-13T06:27:31Z</time>
      </trkpt>
      <trkpt lat="46.52059" lon="0.33741">
        <ele>76.6</ele>
        <time>2020-09-13T06:27:37Z</time>
      </trkpt>
      <trkpt lat="46.52063" lon="0.33743">
        <ele>76.6</ele>
        <time>2020-09-13T06:27:38Z</time>
      </trkpt>
      <trkpt lat="46.52066" lon="0.33748">
        <ele>76.8</ele>
        <time>2020-09-13T06:27:40Z</time>
      </trkpt>
      <trkpt lat="46.52065" lon="0.33767">
        <ele>77.8</ele>
        <time>2020-09-13T06:27:44Z</time>
      </trkpt>
      <trkpt lat="46.52065" lon="0.33801">
        <ele>77.8</ele>
        <time>2020-09-13T06:27:49Z</time>
      </trkpt>
      <trkpt lat="46.52069" lon="0.3386">
        <ele>77.6</ele>
        <time>2020-09-13T06:27:56Z</time>
      </trkpt>
      <trkpt lat="46.52076" lon="0.33902">
        <ele>77.6</ele>
        <time>2020-09-13T06:28:01Z</time>
      </trkpt>
      <trkpt lat="46.52078" lon="0.33909">
        <ele>77.6</ele>
        <time>2020-09-13T06:28:02Z</time>
      </trkpt>
      <trkpt lat="46.52087" lon="0.33945">
        <ele>77.6</ele>
        <time>2020-09-13T06:28:07Z</time>
      </trkpt>
      <trkpt lat="46.52089" lon="0.33951">
        <ele>77.6</ele>
        <time>2020-09-13T06:28:08Z</time>
      </trkpt>
      <trkpt lat="46.52098" lon="0.33961">
        <ele>77.4</ele>
        <time>2020-09-13T06:28:10Z</time>
      </trkpt>
      <trkpt lat="46.52103" lon="0.33964">
        <ele>77.4</ele>
        <time>2020-09-13T06:28:11Z</time>
      </trkpt>
      <trkpt lat="46.52108" lon="0.33967">
        <ele>77.4</ele>
        <time>2020-09-13T06:28:12Z</time>
      </trkpt>
      <trkpt lat="46.52131" lon="0.33976">
        <ele>77.4</ele>
        <time>2020-09-13T06:28:16Z</time>
      </trkpt>
      <trkpt lat="46.52168" lon="0.33984">
        <ele>77.2</ele>
        <time>2020-09-13T06:28:22Z</time>
      </trkpt>
      <trkpt lat="46.52174" lon="0.33984">
        <ele>77.2</ele>
        <time>2020-09-13T06:28:23Z</time>
      </trkpt>
      <trkpt lat="46.52197" lon="0.33982">
        <ele>76.8</ele>
        <time>2020-09-13T06:28:27Z</time>
      </trkpt>
      <trkpt lat="46.52214" lon="0.33979">
        <ele>76.8</ele>
        <time>2020-09-13T06:28:30Z</time>
      </trkpt>
      <trkpt lat="46.52225" lon="0.33971">
        <ele>76.8</ele>
        <time>2020-09-13T06:28:32Z</time>
      </trkpt>
      <trkpt lat="46.52268" lon="0.33931">
        <ele>77.4</ele>
        <time>2020-09-13T06:28:40Z</time>
      </trkpt>
      <trkpt lat="46.52312" lon="0.33898">
        <ele>77.6</ele>
        <time>2020-09-13T06:28:48Z</time>
      </trkpt>
      <trkpt lat="46.52345" lon="0.33875">
        <ele>77.2</ele>
        <time>2020-09-13T06:28:54Z</time>
      </trkpt>
      <trkpt lat="46.52397" lon="0.3384">
        <ele>77.6</ele>
        <time>2020-09-13T06:29:03Z</time>
      </trkpt>
      <trkpt lat="46.52409" lon="0.3383">
        <ele>77.4</ele>
        <time>2020-09-13T06:29:05Z</time>
      </trkpt>
      <trkpt lat="46.5245" lon="0.33787">
        <ele>76.8</ele>
        <time>2020-09-13T06:29:13Z</time>
      </trkpt>
      <trkpt lat="46.52483" lon="0.33747">
        <ele>76.6</ele>
        <time>2020-09-13T06:29:20Z</time>
      </trkpt>
      <trkpt lat="46.52487" lon="0.33741">
        <ele>76.6</ele>
        <time>2020-09-13T06:29:21Z</time>
      </trkpt>
      <trkpt lat="46.5249" lon="0.33735">
        <ele>76.8</ele>
        <time>2020-09-13T06:29:22Z</time>
      </trkpt>
      <trkpt lat="46.52503" lon="0.3371">
        <ele>76.8</ele>
        <time>2020-09-13T06:29:26Z</time>
      </trkpt>
      <trkpt lat="46.52505" lon="0.33703">
        <ele>76.8</ele>
        <time>2020-09-13T06:29:27Z</time>
      </trkpt>
      <trkpt lat="46.52506" lon="0.33689">
        <ele>77.4</ele>
        <time>2020-09-13T06:29:29Z</time>
      </trkpt>
      <trkpt lat="46.52505" lon="0.33676">
        <ele>77.8</ele>
        <time>2020-09-13T06:29:31Z</time>
      </trkpt>
      <trkpt lat="46.52507" lon="0.33664">
        <ele>78.2</ele>
        <time>2020-09-13T06:29:33Z</time>
      </trkpt>
      <trkpt lat="46.52512" lon="0.33651">
        <ele>79</ele>
        <time>2020-09-13T06:29:36Z</time>
      </trkpt>
      <trkpt lat="46.52516" lon="0.33644">
        <ele>80</ele>
        <time>2020-09-13T06:29:38Z</time>
      </trkpt>
      <trkpt lat="46.5252" lon="0.33634">
        <ele>81.4</ele>
        <time>2020-09-13T06:29:41Z</time>
      </trkpt>
      <trkpt lat="46.52525" lon="0.33624">
        <ele>82.2</ele>
        <time>2020-09-13T06:29:44Z</time>
      </trkpt>
      <trkpt lat="46.52527" lon="0.3362">
        <ele>82.4</ele>
        <time>2020-09-13T06:29:45Z</time>
      </trkpt>
      <trkpt lat="46.52531" lon="0.33606">
        <ele>83.8</ele>
        <time>2020-09-13T06:29:49Z</time>
      </trkpt>
      <trkpt lat="46.52532" lon="0.33601">
        <ele>84.2</ele>
        <time>2020-09-13T06:29:50Z</time>
      </trkpt>
      <trkpt lat="46.52533" lon="0.33584">
        <ele>85</ele>
        <time>2020-09-13T06:29:54Z</time>
      </trkpt>
      <trkpt lat="46.52532" lon="0.33575">
        <ele>85.4</ele>
        <time>2020-09-13T06:29:56Z</time>
      </trkpt>
      <trkpt lat="46.52531" lon="0.33563">
        <ele>86</ele>
        <time>2020-09-13T06:29:59Z</time>
      </trkpt>
      <trkpt lat="46.5253" lon="0.33545">
        <ele>86.6</ele>
        <time>2020-09-13T06:30:03Z</time>
      </trkpt>
      <trkpt lat="46.52529" lon="0.33536">
        <ele>87.2</ele>
        <time>2020-09-13T06:30:05Z</time>
      </trkpt>
      <trkpt lat="46.52529" lon="0.33519">
        <ele>88.2</ele>
        <time>2020-09-13T06:30:09Z</time>
      </trkpt>
      <trkpt lat="46.52529" lon="0.33511">
        <ele>88.6</ele>
        <time>2020-09-13T06:30:11Z</time>
      </trkpt>
      <trkpt lat="46.52529" lon="0.3349">
        <ele>89.4</ele>
        <time>2020-09-13T06:30:16Z</time>
      </trkpt>
      <trkpt lat="46.52529" lon="0.33477">
        <ele>89.6</ele>
        <time>2020-09-13T06:30:19Z</time>
      </trkpt>
      <trkpt lat="46.52533" lon="0.33453">
        <ele>90.4</ele>
        <time>2020-09-13T06:30:24Z</time>
      </trkpt>
      <trkpt lat="46.52533" lon="0.33441">
        <ele>90.8</ele>
        <time>2020-09-13T06:30:26Z</time>
      </trkpt>
      <trkpt lat="46.52529" lon="0.33412">
        <ele>91.4</ele>
        <time>2020-09-13T06:30:31Z</time>
      </trkpt>
      <trkpt lat="46.52524" lon="0.3337">
        <ele>92.6</ele>
        <time>2020-09-13T06:30:39Z</time>
      </trkpt>
      <trkpt lat="46.52526" lon="0.3336">
        <ele>93</ele>
        <time>2020-09-13T06:30:41Z</time>
      </trkpt>
      <trkpt lat="46.52533" lon="0.33354">
        <ele>93.4</ele>
        <time>2020-09-13T06:30:43Z</time>
      </trkpt>
      <trkpt lat="46.52541" lon="0.33353">
        <ele>93.6</ele>
        <time>2020-09-13T06:30:45Z</time>
      </trkpt>
      <trkpt lat="46.52559" lon="0.33352">
        <ele>93.8</ele>
        <time>2020-09-13T06:30:49Z</time>
      </trkpt>
      <trkpt lat="46.52579" lon="0.33359">
        <ele>93.8</ele>
        <time>2020-09-13T06:30:53Z</time>
      </trkpt>
      <trkpt lat="46.52589" lon="0.3336">
        <ele>93.6</ele>
        <time>2020-09-13T06:30:55Z</time>
      </trkpt>
      <trkpt lat="46.52595" lon="0.33367">
        <ele>93.6</ele>
        <time>2020-09-13T06:30:57Z</time>
      </trkpt>
      <trkpt lat="46.52616" lon="0.33393">
        <ele>93.6</ele>
        <time>2020-09-13T06:31:02Z</time>
      </trkpt>
      <trkpt lat="46.52631" lon="0.33409">
        <ele>93.8</ele>
        <time>2020-09-13T06:31:06Z</time>
      </trkpt>
      <trkpt lat="46.5264" lon="0.33415">
        <ele>94.2</ele>
        <time>2020-09-13T06:31:08Z</time>
      </trkpt>
      <trkpt lat="46.52647" lon="0.33418">
        <ele>94.6</ele>
        <time>2020-09-13T06:31:10Z</time>
      </trkpt>
      <trkpt lat="46.52656" lon="0.33422">
        <ele>94.6</ele>
        <time>2020-09-13T06:31:13Z</time>
      </trkpt>
      <trkpt lat="46.52671" lon="0.33427">
        <ele>95.6</ele>
        <time>2020-09-13T06:31:18Z</time>
      </trkpt>
      <trkpt lat="46.52674" lon="0.33428">
        <ele>96</ele>
        <time>2020-09-13T06:31:19Z</time>
      </trkpt>
      <trkpt lat="46.52687" lon="0.33432">
        <ele>97</ele>
        <time>2020-09-13T06:31:23Z</time>
      </trkpt>
      <trkpt lat="46.52694" lon="0.33433">
        <ele>97.2</ele>
        <time>2020-09-13T06:31:25Z</time>
      </trkpt>
      <trkpt lat="46.52708" lon="0.33434">
        <ele>98</ele>
        <time>2020-09-13T06:31:29Z</time>
      </trkpt>
      <trkpt lat="46.52717" lon="0.33434">
        <ele>98.8</ele>
        <time>2020-09-13T06:31:32Z</time>
      </trkpt>
      <trkpt lat="46.52722" lon="0.33435">
        <ele>99.2</ele>
        <time>2020-09-13T06:31:33Z</time>
      </trkpt>
      <trkpt lat="46.52736" lon="0.3344">
        <ele>99.8</ele>
        <time>2020-09-13T06:31:37Z</time>
      </trkpt>
      <trkpt lat="46.52755" lon="0.33445">
        <ele>99.8</ele>
        <time>2020-09-13T06:31:41Z</time>
      </trkpt>
      <trkpt lat="46.5276" lon="0.33446">
        <ele>99.8</ele>
        <time>2020-09-13T06:31:42Z</time>
      </trkpt>
      <trkpt lat="46.52763" lon="0.33446">
        <ele>99.8</ele>
        <time>2020-09-13T06:31:43Z</time>
      </trkpt>
      <trkpt lat="46.5277" lon="0.33445">
        <ele>99.8</ele>
        <time>2020-09-13T06:31:46Z</time>
      </trkpt>
      <trkpt lat="46.52782" lon="0.33444">
        <ele>100.2</ele>
        <time>2020-09-13T06:31:50Z</time>
      </trkpt>
      <trkpt lat="46.52785" lon="0.33443">
        <ele>100.4</ele>
        <time>2020-09-13T06:31:51Z</time>
      </trkpt>
      <trkpt lat="46.52796" lon="0.33441">
        <ele>101.4</ele>
        <time>2020-09-13T06:31:55Z</time>
      </trkpt>
      <trkpt lat="46.52803" lon="0.33438">
        <ele>101.6</ele>
        <time>2020-09-13T06:31:57Z</time>
      </trkpt>
      <trkpt lat="46.52832" lon="0.33426">
        <ele>101.8</ele>
        <time>2020-09-13T06:32:04Z</time>
      </trkpt>
      <trkpt lat="46.52844" lon="0.33424">
        <ele>101.6</ele>
        <time>2020-09-13T06:32:06Z</time>
      </trkpt>
      <trkpt lat="46.52861" lon="0.33423">
        <ele>101.4</ele>
        <time>2020-09-13T06:32:09Z</time>
      </trkpt>
      <trkpt lat="46.52876" lon="0.33425">
        <ele>102</ele>
        <time>2020-09-13T06:32:12Z</time>
      </trkpt>
      <trkpt lat="46.5288" lon="0.33425">
        <ele>102.4</ele>
        <time>2020-09-13T06:32:13Z</time>
      </trkpt>
      <trkpt lat="46.52883" lon="0.33426">
        <ele>102.8</ele>
        <time>2020-09-13T06:32:14Z</time>
      </trkpt>
      <trkpt lat="46.52896" lon="0.33426">
        <ele>103.6</ele>
        <time>2020-09-13T06:32:18Z</time>
      </trkpt>
      <trkpt lat="46.52903" lon="0.33426">
        <ele>104.6</ele>
        <time>2020-09-13T06:32:20Z</time>
      </trkpt>
      <trkpt lat="46.52908" lon="0.33425">
        <ele>104.8</ele>
        <time>2020-09-13T06:32:21Z</time>
      </trkpt>
      <trkpt lat="46.52916" lon="0.33425">
        <ele>105.4</ele>
        <time>2020-09-13T06:32:23Z</time>
      </trkpt>
      <trkpt lat="46.52922" lon="0.33427">
        <ele>106</ele>
        <time>2020-09-13T06:32:25Z</time>
      </trkpt>
      <trkpt lat="46.52925" lon="0.33426">
        <ele>106.2</ele>
        <time>2020-09-13T06:32:26Z</time>
      </trkpt>
      <trkpt lat="46.52929" lon="0.33422">
        <ele>106.6</ele>
        <time>2020-09-13T06:32:28Z</time>
      </trkpt>
      <trkpt lat="46.52932" lon="0.33412">
        <ele>107.2</ele>
        <time>2020-09-13T06:32:31Z</time>
      </trkpt>
      <trkpt lat="46.52932" lon="0.33409">
        <ele>107.6</ele>
        <time>2020-09-13T06:32:32Z</time>
      </trkpt>
      <trkpt lat="46.52933" lon="0.33398">
        <ele>108.4</ele>
        <time>2020-09-13T06:32:35Z</time>
      </trkpt>
      <trkpt lat="46.52935" lon="0.33381">
        <ele>109.2</ele>
        <time>2020-09-13T06:32:39Z</time>
      </trkpt>
      <trkpt lat="46.52935" lon="0.33376">
        <ele>109.6</ele>
        <time>2020-09-13T06:32:40Z</time>
      </trkpt>
      <trkpt lat="46.52933" lon="0.33363">
        <ele>110.8</ele>
        <time>2020-09-13T06:32:43Z</time>
      </trkpt>
      <trkpt lat="46.52932" lon="0.33354">
        <ele>111.4</ele>
        <time>2020-09-13T06:32:45Z</time>
      </trkpt>
      <trkpt lat="46.5293" lon="0.33345">
        <ele>111.8</ele>
        <time>2020-09-13T06:32:47Z</time>
      </trkpt>
      <trkpt lat="46.52928" lon="0.33328">
        <ele>112.8</ele>
        <time>2020-09-13T06:32:51Z</time>
      </trkpt>
      <trkpt lat="46.52927" lon="0.33324">
        <ele>113</ele>
        <time>2020-09-13T06:32:52Z</time>
      </trkpt>
      <trkpt lat="46.52924" lon="0.33299">
        <ele>113.8</ele>
        <time>2020-09-13T06:32:58Z</time>
      </trkpt>
      <trkpt lat="46.52923" lon="0.33295">
        <ele>114</ele>
        <time>2020-09-13T06:32:59Z</time>
      </trkpt>
      <trkpt lat="46.52922" lon="0.33281">
        <ele>115</ele>
        <time>2020-09-13T06:33:03Z</time>
      </trkpt>
      <trkpt lat="46.52922" lon="0.33271">
        <ele>115.2</ele>
        <time>2020-09-13T06:33:05Z</time>
      </trkpt>
      <trkpt lat="46.52918" lon="0.33256">
        <ele>115.6</ele>
        <time>2020-09-13T06:33:09Z</time>
      </trkpt>
      <trkpt lat="46.52911" lon="0.33225">
        <ele>116.2</ele>
        <time>2020-09-13T06:33:16Z</time>
      </trkpt>
      <trkpt lat="46.52909" lon="0.33214">
        <ele>116.2</ele>
        <time>2020-09-13T06:33:18Z</time>
      </trkpt>
      <trkpt lat="46.52908" lon="0.33209">
        <ele>116.4</ele>
        <time>2020-09-13T06:33:19Z</time>
      </trkpt>
      <trkpt lat="46.52907" lon="0.33188">
        <ele>117.2</ele>
        <time>2020-09-13T06:33:23Z</time>
      </trkpt>
      <trkpt lat="46.52906" lon="0.33183">
        <ele>117.4</ele>
        <time>2020-09-13T06:33:24Z</time>
      </trkpt>
      <trkpt lat="46.52906" lon="0.33179">
        <ele>117.4</ele>
        <time>2020-09-13T06:33:25Z</time>
      </trkpt>
      <trkpt lat="46.52905" lon="0.33171">
        <ele>117.4</ele>
        <time>2020-09-13T06:33:27Z</time>
      </trkpt>
      <trkpt lat="46.52907" lon="0.33167">
        <ele>117.4</ele>
        <time>2020-09-13T06:33:29Z</time>
      </trkpt>
      <trkpt lat="46.52916" lon="0.33156">
        <ele>118</ele>
        <time>2020-09-13T06:33:33Z</time>
      </trkpt>
      <trkpt lat="46.52925" lon="0.33152">
        <ele>118.4</ele>
        <time>2020-09-13T06:33:36Z</time>
      </trkpt>
      <trkpt lat="46.52935" lon="0.33147">
        <ele>119</ele>
        <time>2020-09-13T06:33:39Z</time>
      </trkpt>
      <trkpt lat="46.52939" lon="0.33145">
        <ele>119.4</ele>
        <time>2020-09-13T06:33:41Z</time>
      </trkpt>
      <trkpt lat="46.52945" lon="0.33141">
        <ele>120.2</ele>
        <time>2020-09-13T06:33:44Z</time>
      </trkpt>
      <trkpt lat="46.52956" lon="0.33137">
        <ele>120.6</ele>
        <time>2020-09-13T06:33:47Z</time>
      </trkpt>
      <trkpt lat="46.52964" lon="0.33132">
        <ele>120.8</ele>
        <time>2020-09-13T06:33:49Z</time>
      </trkpt>
      <trkpt lat="46.52978" lon="0.33128">
        <ele>121.6</ele>
        <time>2020-09-13T06:33:53Z</time>
      </trkpt>
      <trkpt lat="46.52987" lon="0.33124">
        <ele>122.2</ele>
        <time>2020-09-13T06:33:56Z</time>
      </trkpt>
      <trkpt lat="46.53003" lon="0.33118">
        <ele>122.6</ele>
        <time>2020-09-13T06:34:01Z</time>
      </trkpt>
      <trkpt lat="46.53007" lon="0.33117">
        <ele>122.8</ele>
        <time>2020-09-13T06:34:02Z</time>
      </trkpt>
      <trkpt lat="46.53018" lon="0.33113">
        <ele>123.4</ele>
        <time>2020-09-13T06:34:05Z</time>
      </trkpt>
      <trkpt lat="46.53026" lon="0.33109">
        <ele>123.6</ele>
        <time>2020-09-13T06:34:07Z</time>
      </trkpt>
      <trkpt lat="46.5303" lon="0.33107">
        <ele>123.8</ele>
        <time>2020-09-13T06:34:08Z</time>
      </trkpt>
      <trkpt lat="46.53038" lon="0.33103">
        <ele>123.8</ele>
        <time>2020-09-13T06:34:10Z</time>
      </trkpt>
      <trkpt lat="46.53046" lon="0.33102">
        <ele>124</ele>
        <time>2020-09-13T06:34:12Z</time>
      </trkpt>
      <trkpt lat="46.53053" lon="0.331">
        <ele>124</ele>
        <time>2020-09-13T06:34:14Z</time>
      </trkpt>
      <trkpt lat="46.53068" lon="0.33093">
        <ele>124.4</ele>
        <time>2020-09-13T06:34:18Z</time>
      </trkpt>
      <trkpt lat="46.53076" lon="0.33089">
        <ele>124.4</ele>
        <time>2020-09-13T06:34:20Z</time>
      </trkpt>
      <trkpt lat="46.53105" lon="0.33079">
        <ele>124.4</ele>
        <time>2020-09-13T06:34:26Z</time>
      </trkpt>
      <trkpt lat="46.5311" lon="0.33077">
        <ele>124.6</ele>
        <time>2020-09-13T06:34:27Z</time>
      </trkpt>
      <trkpt lat="46.53119" lon="0.33073">
        <ele>124.8</ele>
        <time>2020-09-13T06:34:29Z</time>
      </trkpt>
      <trkpt lat="46.53138" lon="0.33068">
        <ele>124.8</ele>
        <time>2020-09-13T06:34:33Z</time>
      </trkpt>
      <trkpt lat="46.53146" lon="0.33064">
        <ele>124.8</ele>
        <time>2020-09-13T06:34:35Z</time>
      </trkpt>
      <trkpt lat="46.53156" lon="0.33056">
        <ele>124.8</ele>
        <time>2020-09-13T06:34:37Z</time>
      </trkpt>
      <trkpt lat="46.5316" lon="0.33043">
        <ele>124.6</ele>
        <time>2020-09-13T06:34:39Z</time>
      </trkpt>
      <trkpt lat="46.53161" lon="0.33037">
        <ele>124.8</ele>
        <time>2020-09-13T06:34:40Z</time>
      </trkpt>
      <trkpt lat="46.53162" lon="0.33033">
        <ele>124.8</ele>
        <time>2020-09-13T06:34:41Z</time>
      </trkpt>
      <trkpt lat="46.53168" lon="0.33026">
        <ele>125</ele>
        <time>2020-09-13T06:34:43Z</time>
      </trkpt>
      <trkpt lat="46.53188" lon="0.33019">
        <ele>125</ele>
        <time>2020-09-13T06:34:47Z</time>
      </trkpt>
      <trkpt lat="46.53198" lon="0.33015">
        <ele>124.6</ele>
        <time>2020-09-13T06:34:49Z</time>
      </trkpt>
      <trkpt lat="46.53204" lon="0.3301">
        <ele>124.4</ele>
        <time>2020-09-13T06:34:51Z</time>
      </trkpt>
      <trkpt lat="46.53215" lon="0.33002">
        <ele>124.6</ele>
        <time>2020-09-13T06:34:53Z</time>
      </trkpt>
      <trkpt lat="46.53223" lon="0.33003">
        <ele>124.6</ele>
        <time>2020-09-13T06:34:55Z</time>
      </trkpt>
      <trkpt lat="46.53234" lon="0.33006">
        <ele>124.8</ele>
        <time>2020-09-13T06:34:57Z</time>
      </trkpt>
      <trkpt lat="46.5325" lon="0.33015">
        <ele>124.8</ele>
        <time>2020-09-13T06:35:00Z</time>
      </trkpt>
      <trkpt lat="46.53255" lon="0.33017">
        <ele>125</ele>
        <time>2020-09-13T06:35:01Z</time>
      </trkpt>
      <trkpt lat="46.53264" lon="0.33016">
        <ele>125</ele>
        <time>2020-09-13T06:35:03Z</time>
      </trkpt>
      <trkpt lat="46.5327" lon="0.33015">
        <ele>125</ele>
        <time>2020-09-13T06:35:04Z</time>
      </trkpt>
      <trkpt lat="46.53279" lon="0.33013">
        <ele>125</ele>
        <time>2020-09-13T06:35:06Z</time>
      </trkpt>
      <trkpt lat="46.53283" lon="0.33011">
        <ele>125</ele>
        <time>2020-09-13T06:35:07Z</time>
      </trkpt>
      <trkpt lat="46.53287" lon="0.33009">
        <ele>124.8</ele>
        <time>2020-09-13T06:35:08Z</time>
      </trkpt>
      <trkpt lat="46.533" lon="0.33006">
        <ele>125</ele>
        <time>2020-09-13T06:35:11Z</time>
      </trkpt>
      <trkpt lat="46.53308" lon="0.32999">
        <ele>125</ele>
        <time>2020-09-13T06:35:13Z</time>
      </trkpt>
      <trkpt lat="46.53313" lon="0.32991">
        <ele>125</ele>
        <time>2020-09-13T06:35:15Z</time>
      </trkpt>
      <trkpt lat="46.53317" lon="0.32982">
        <ele>125</ele>
        <time>2020-09-13T06:35:17Z</time>
      </trkpt>
      <trkpt lat="46.53322" lon="0.32974">
        <ele>125</ele>
        <time>2020-09-13T06:35:19Z</time>
      </trkpt>
      <trkpt lat="46.53325" lon="0.32971">
        <ele>124.8</ele>
        <time>2020-09-13T06:35:20Z</time>
      </trkpt>
      <trkpt lat="46.53331" lon="0.32966">
        <ele>124.8</ele>
        <time>2020-09-13T06:35:21Z</time>
      </trkpt>
      <trkpt lat="46.53334" lon="0.32961">
        <ele>124.8</ele>
        <time>2020-09-13T06:35:24Z</time>
      </trkpt>
      <trkpt lat="46.5334" lon="0.32954">
        <ele>124.6</ele>
        <time>2020-09-13T06:35:26Z</time>
      </trkpt>
      <trkpt lat="46.53345" lon="0.32954">
        <ele>124.6</ele>
        <time>2020-09-13T06:35:28Z</time>
      </trkpt>
      <trkpt lat="46.53348" lon="0.32962">
        <ele>124.2</ele>
        <time>2020-09-13T06:35:31Z</time>
      </trkpt>
      <trkpt lat="46.5335" lon="0.32967">
        <ele>124.2</ele>
        <time>2020-09-13T06:35:32Z</time>
      </trkpt>
      <trkpt lat="46.53353" lon="0.32971">
        <ele>124.2</ele>
        <time>2020-09-13T06:35:33Z</time>
      </trkpt>
      <trkpt lat="46.53358" lon="0.3298">
        <ele>124.4</ele>
        <time>2020-09-13T06:35:35Z</time>
      </trkpt>
      <trkpt lat="46.5336" lon="0.32985">
        <ele>124.4</ele>
        <time>2020-09-13T06:35:36Z</time>
      </trkpt>
      <trkpt lat="46.53366" lon="0.33002">
        <ele>124</ele>
        <time>2020-09-13T06:35:39Z</time>
      </trkpt>
      <trkpt lat="46.53368" lon="0.33006">
        <ele>123.8</ele>
        <time>2020-09-13T06:35:40Z</time>
      </trkpt>
      <trkpt lat="46.5337" lon="0.3301">
        <ele>123.2</ele>
        <time>2020-09-13T06:35:41Z</time>
      </trkpt>
      <trkpt lat="46.53372" lon="0.33018">
        <ele>122.2</ele>
        <time>2020-09-13T06:35:43Z</time>
      </trkpt>
      <trkpt lat="46.53373" lon="0.33022">
        <ele>121.8</ele>
        <time>2020-09-13T06:35:44Z</time>
      </trkpt>
      <trkpt lat="46.53375" lon="0.33027">
        <ele>121.2</ele>
        <time>2020-09-13T06:35:45Z</time>
      </trkpt>
      <trkpt lat="46.53376" lon="0.33031">
        <ele>120.6</ele>
        <time>2020-09-13T06:35:46Z</time>
      </trkpt>
      <trkpt lat="46.53383" lon="0.3304">
        <ele>120</ele>
        <time>2020-09-13T06:35:48Z</time>
      </trkpt>
      <trkpt lat="46.53386" lon="0.33043">
        <ele>119.8</ele>
        <time>2020-09-13T06:35:49Z</time>
      </trkpt>
      <trkpt lat="46.53388" lon="0.33045">
        <ele>119.2</ele>
        <time>2020-09-13T06:35:50Z</time>
      </trkpt>
      <trkpt lat="46.5339" lon="0.33047">
        <ele>118.4</ele>
        <time>2020-09-13T06:35:51Z</time>
      </trkpt>
      <trkpt lat="46.53392" lon="0.33049">
        <ele>117.8</ele>
        <time>2020-09-13T06:35:52Z</time>
      </trkpt>
      <trkpt lat="46.53396" lon="0.3305">
        <ele>117.2</ele>
        <time>2020-09-13T06:35:53Z</time>
      </trkpt>
      <trkpt lat="46.53401" lon="0.33053">
        <ele>116.6</ele>
        <time>2020-09-13T06:35:55Z</time>
      </trkpt>
      <trkpt lat="46.53406" lon="0.33056">
        <ele>116</ele>
        <time>2020-09-13T06:35:57Z</time>
      </trkpt>
      <trkpt lat="46.53409" lon="0.3306">
        <ele>115.6</ele>
        <time>2020-09-13T06:35:58Z</time>
      </trkpt>
      <trkpt lat="46.5341" lon="0.33064">
        <ele>115.2</ele>
        <time>2020-09-13T06:35:59Z</time>
      </trkpt>
      <trkpt lat="46.53412" lon="0.33068">
        <ele>114.8</ele>
        <time>2020-09-13T06:36:00Z</time>
      </trkpt>
      <trkpt lat="46.53415" lon="0.33072">
        <ele>114.4</ele>
        <time>2020-09-13T06:36:01Z</time>
      </trkpt>
      <trkpt lat="46.53417" lon="0.33078">
        <ele>114.2</ele>
        <time>2020-09-13T06:36:02Z</time>
      </trkpt>
      <trkpt lat="46.53418" lon="0.33085">
        <ele>114</ele>
        <time>2020-09-13T06:36:03Z</time>
      </trkpt>
      <trkpt lat="46.53419" lon="0.33091">
        <ele>113.6</ele>
        <time>2020-09-13T06:36:04Z</time>
      </trkpt>
      <trkpt lat="46.53419" lon="0.33097">
        <ele>113.4</ele>
        <time>2020-09-13T06:36:05Z</time>
      </trkpt>
      <trkpt lat="46.53419" lon="0.33102">
        <ele>113.6</ele>
        <time>2020-09-13T06:36:06Z</time>
      </trkpt>
      <trkpt lat="46.5342" lon="0.33107">
        <ele>113.4</ele>
        <time>2020-09-13T06:36:07Z</time>
      </trkpt>
      <trkpt lat="46.53422" lon="0.3311">
        <ele>113.6</ele>
        <time>2020-09-13T06:36:09Z</time>
      </trkpt>
      <trkpt lat="46.53423" lon="0.33113">
        <ele>113.8</ele>
        <time>2020-09-13T06:36:10Z</time>
      </trkpt>
      <trkpt lat="46.53429" lon="0.33125">
        <ele>114</ele>
        <time>2020-09-13T06:36:13Z</time>
      </trkpt>
      <trkpt lat="46.53433" lon="0.33135">
        <ele>114.4</ele>
        <time>2020-09-13T06:36:15Z</time>
      </trkpt>
      <trkpt lat="46.5344" lon="0.33146">
        <ele>115</ele>
        <time>2020-09-13T06:36:17Z</time>
      </trkpt>
      <trkpt lat="46.53444" lon="0.33159">
        <ele>115.8</ele>
        <time>2020-09-13T06:36:19Z</time>
      </trkpt>
      <trkpt lat="46.53446" lon="0.33166">
        <ele>116</ele>
        <time>2020-09-13T06:36:20Z</time>
      </trkpt>
      <trkpt lat="46.53453" lon="0.33179">
        <ele>116.4</ele>
        <time>2020-09-13T06:36:22Z</time>
      </trkpt>
      <trkpt lat="46.53457" lon="0.33183">
        <ele>116.4</ele>
        <time>2020-09-13T06:36:23Z</time>
      </trkpt>
      <trkpt lat="46.5348" lon="0.33207">
        <ele>116</ele>
        <time>2020-09-13T06:36:28Z</time>
      </trkpt>
      <trkpt lat="46.53488" lon="0.33217">
        <ele>116.2</ele>
        <time>2020-09-13T06:36:30Z</time>
      </trkpt>
      <trkpt lat="46.53502" lon="0.33235">
        <ele>116.2</ele>
        <time>2020-09-13T06:36:33Z</time>
      </trkpt>
      <trkpt lat="46.53526" lon="0.3326">
        <ele>116</ele>
        <time>2020-09-13T06:36:38Z</time>
      </trkpt>
      <trkpt lat="46.53531" lon="0.33265">
        <ele>116</ele>
        <time>2020-09-13T06:36:39Z</time>
      </trkpt>
      <trkpt lat="46.5355" lon="0.33297">
        <ele>116.2</ele>
        <time>2020-09-13T06:36:44Z</time>
      </trkpt>
      <trkpt lat="46.53555" lon="0.33303">
        <ele>116.2</ele>
        <time>2020-09-13T06:36:45Z</time>
      </trkpt>
      <trkpt lat="46.5356" lon="0.33308">
        <ele>116</ele>
        <time>2020-09-13T06:36:46Z</time>
      </trkpt>
      <trkpt lat="46.53572" lon="0.33314">
        <ele>115.8</ele>
        <time>2020-09-13T06:36:48Z</time>
      </trkpt>
      <trkpt lat="46.53577" lon="0.33317">
        <ele>115.6</ele>
        <time>2020-09-13T06:36:49Z</time>
      </trkpt>
      <trkpt lat="46.53612" lon="0.33329">
        <ele>115.2</ele>
        <time>2020-09-13T06:36:55Z</time>
      </trkpt>
      <trkpt lat="46.53623" lon="0.33327">
        <ele>115.2</ele>
        <time>2020-09-13T06:36:57Z</time>
      </trkpt>
      <trkpt lat="46.53628" lon="0.33323">
        <ele>115.4</ele>
        <time>2020-09-13T06:36:58Z</time>
      </trkpt>
      <trkpt lat="46.53633" lon="0.33318">
        <ele>115.6</ele>
        <time>2020-09-13T06:36:59Z</time>
      </trkpt>
      <trkpt lat="46.53654" lon="0.33294">
        <ele>115.8</ele>
        <time>2020-09-13T06:37:03Z</time>
      </trkpt>
      <trkpt lat="46.53664" lon="0.3328">
        <ele>115.6</ele>
        <time>2020-09-13T06:37:05Z</time>
      </trkpt>
      <trkpt lat="46.53669" lon="0.33273">
        <ele>114.6</ele>
        <time>2020-09-13T06:37:06Z</time>
      </trkpt>
      <trkpt lat="46.53679" lon="0.33258">
        <ele>114.6</ele>
        <time>2020-09-13T06:37:08Z</time>
      </trkpt>
      <trkpt lat="46.53684" lon="0.33251">
        <ele>114.2</ele>
        <time>2020-09-13T06:37:09Z</time>
      </trkpt>
      <trkpt lat="46.53701" lon="0.33232">
        <ele>113.4</ele>
        <time>2020-09-13T06:37:12Z</time>
      </trkpt>
      <trkpt lat="46.53706" lon="0.33225">
        <ele>113.2</ele>
        <time>2020-09-13T06:37:13Z</time>
      </trkpt>
      <trkpt lat="46.53719" lon="0.33209">
        <ele>112.2</ele>
        <time>2020-09-13T06:37:16Z</time>
      </trkpt>
      <trkpt lat="46.53725" lon="0.33203">
        <ele>111</ele>
        <time>2020-09-13T06:37:18Z</time>
      </trkpt>
      <trkpt lat="46.53727" lon="0.33202">
        <ele>110.4</ele>
        <time>2020-09-13T06:37:19Z</time>
      </trkpt>
      <trkpt lat="46.53729" lon="0.33202">
        <ele>110</ele>
        <time>2020-09-13T06:37:20Z</time>
      </trkpt>
      <trkpt lat="46.53732" lon="0.33204">
        <ele>109.8</ele>
        <time>2020-09-13T06:37:21Z</time>
      </trkpt>
      <trkpt lat="46.53736" lon="0.33206">
        <ele>109.2</ele>
        <time>2020-09-13T06:37:23Z</time>
      </trkpt>
      <trkpt lat="46.5374" lon="0.33208">
        <ele>108.6</ele>
        <time>2020-09-13T06:37:25Z</time>
      </trkpt>
      <trkpt lat="46.53741" lon="0.33209">
        <ele>108.6</ele>
        <time>2020-09-13T06:37:27Z</time>
      </trkpt>
      <trkpt lat="46.53746" lon="0.33219">
        <ele>108.4</ele>
        <time>2020-09-13T06:37:34Z</time>
      </trkpt>
      <trkpt lat="46.53751" lon="0.33217">
        <ele>107.4</ele>
        <time>2020-09-13T06:37:38Z</time>
      </trkpt>
      <trkpt lat="46.53753" lon="0.33217">
        <ele>106</ele>
        <time>2020-09-13T06:37:40Z</time>
      </trkpt>
      <trkpt lat="46.53756" lon="0.3322">
        <ele>105.6</ele>
        <time>2020-09-13T06:37:42Z</time>
      </trkpt>
      <trkpt lat="46.53759" lon="0.3323">
        <ele>105.2</ele>
        <time>2020-09-13T06:37:46Z</time>
      </trkpt>
      <trkpt lat="46.53765" lon="0.33247">
        <ele>105.2</ele>
        <time>2020-09-13T06:37:51Z</time>
      </trkpt>
      <trkpt lat="46.53765" lon="0.33251">
        <ele>105</ele>
        <time>2020-09-13T06:37:52Z</time>
      </trkpt>
      <trkpt lat="46.53768" lon="0.33255">
        <ele>103.6</ele>
        <time>2020-09-13T06:37:55Z</time>
      </trkpt>
      <trkpt lat="46.53769" lon="0.33255">
        <ele>103.2</ele>
        <time>2020-09-13T06:37:56Z</time>
      </trkpt>
      <trkpt lat="46.5377" lon="0.33254">
        <ele>102.6</ele>
        <time>2020-09-13T06:37:57Z</time>
      </trkpt>
      <trkpt lat="46.53772" lon="0.33253">
        <ele>101.2</ele>
        <time>2020-09-13T06:38:00Z</time>
      </trkpt>
      <trkpt lat="46.53773" lon="0.33255">
        <ele>100</ele>
        <time>2020-09-13T06:38:03Z</time>
      </trkpt>
      <trkpt lat="46.53774" lon="0.33256">
        <ele>99.2</ele>
        <time>2020-09-13T06:38:05Z</time>
      </trkpt>
      <trkpt lat="46.53776" lon="0.33258">
        <ele>99</ele>
        <time>2020-09-13T06:38:07Z</time>
      </trkpt>
      <trkpt lat="46.53777" lon="0.33259">
        <ele>98.8</ele>
        <time>2020-09-13T06:38:08Z</time>
      </trkpt>
      <trkpt lat="46.53777" lon="0.3326">
        <ele>98.8</ele>
        <time>2020-09-13T06:38:09Z</time>
      </trkpt>
      <trkpt lat="46.53778" lon="0.33262">
        <ele>98.8</ele>
        <time>2020-09-13T06:38:10Z</time>
      </trkpt>
      <trkpt lat="46.53778" lon="0.33264">
        <ele>98.6</ele>
        <time>2020-09-13T06:38:12Z</time>
      </trkpt>
      <trkpt lat="46.53781" lon="0.33269">
        <ele>97</ele>
        <time>2020-09-13T06:38:15Z</time>
      </trkpt>
      <trkpt lat="46.53781" lon="0.33274">
        <ele>95.6</ele>
        <time>2020-09-13T06:38:17Z</time>
      </trkpt>
      <trkpt lat="46.53782" lon="0.33279">
        <ele>94.6</ele>
        <time>2020-09-13T06:38:20Z</time>
      </trkpt>
      <trkpt lat="46.53782" lon="0.33281">
        <ele>94.4</ele>
        <time>2020-09-13T06:38:22Z</time>
      </trkpt>
      <trkpt lat="46.53783" lon="0.33283">
        <ele>94</ele>
        <time>2020-09-13T06:38:25Z</time>
      </trkpt>
      <trkpt lat="46.53786" lon="0.33282">
        <ele>93.2</ele>
        <time>2020-09-13T06:38:28Z</time>
      </trkpt>
      <trkpt lat="46.53787" lon="0.33282">
        <ele>92.4</ele>
        <time>2020-09-13T06:38:31Z</time>
      </trkpt>
      <trkpt lat="46.53788" lon="0.33282">
        <ele>92.2</ele>
        <time>2020-09-13T06:38:32Z</time>
      </trkpt>
      <trkpt lat="46.53789" lon="0.33283">
        <ele>92</ele>
        <time>2020-09-13T06:38:33Z</time>
      </trkpt>
      <trkpt lat="46.53792" lon="0.33285">
        <ele>91</ele>
        <time>2020-09-13T06:38:36Z</time>
      </trkpt>
      <trkpt lat="46.53794" lon="0.33284">
        <ele>90.6</ele>
        <time>2020-09-13T06:38:37Z</time>
      </trkpt>
      <trkpt lat="46.53795" lon="0.33283">
        <ele>89.8</ele>
        <time>2020-09-13T06:38:39Z</time>
      </trkpt>
      <trkpt lat="46.53796" lon="0.33282">
        <ele>89.2</ele>
        <time>2020-09-13T06:38:40Z</time>
      </trkpt>
      <trkpt lat="46.53799" lon="0.3328">
        <ele>88.6</ele>
        <time>2020-09-13T06:38:42Z</time>
      </trkpt>
      <trkpt lat="46.53804" lon="0.33279">
        <ele>87.6</ele>
        <time>2020-09-13T06:38:44Z</time>
      </trkpt>
      <trkpt lat="46.53807" lon="0.33278">
        <ele>87</ele>
        <time>2020-09-13T06:38:45Z</time>
      </trkpt>
      <trkpt lat="46.5381" lon="0.33276">
        <ele>86.6</ele>
        <time>2020-09-13T06:38:46Z</time>
      </trkpt>
      <trkpt lat="46.53813" lon="0.33273">
        <ele>85.6</ele>
        <time>2020-09-13T06:38:47Z</time>
      </trkpt>
      <trkpt lat="46.53815" lon="0.33269">
        <ele>84.6</ele>
        <time>2020-09-13T06:38:48Z</time>
      </trkpt>
      <trkpt lat="46.53819" lon="0.33264">
        <ele>83.8</ele>
        <time>2020-09-13T06:38:49Z</time>
      </trkpt>
      <trkpt lat="46.53824" lon="0.33254">
        <ele>82.4</ele>
        <time>2020-09-13T06:38:51Z</time>
      </trkpt>
      <trkpt lat="46.53828" lon="0.33246">
        <ele>81.4</ele>
        <time>2020-09-13T06:38:53Z</time>
      </trkpt>
      <trkpt lat="46.53829" lon="0.33239">
        <ele>80.6</ele>
        <time>2020-09-13T06:38:55Z</time>
      </trkpt>
      <trkpt lat="46.53828" lon="0.33238">
        <ele>80.6</ele>
        <time>2020-09-13T06:38:56Z</time>
      </trkpt>
      <trkpt lat="46.53821" lon="0.33229">
        <ele>81.8</ele>
        <time>2020-09-13T06:39:03Z</time>
      </trkpt>
      <trkpt lat="46.53819" lon="0.33226">
        <ele>82.6</ele>
        <time>2020-09-13T06:39:05Z</time>
      </trkpt>
      <trkpt lat="46.53816" lon="0.33221">
        <ele>84</ele>
        <time>2020-09-13T06:39:08Z</time>
      </trkpt>
      <trkpt lat="46.53815" lon="0.33219">
        <ele>84.6</ele>
        <time>2020-09-13T06:39:09Z</time>
      </trkpt>
      <trkpt lat="46.53815" lon="0.33219">
        <ele>85.4</ele>
        <time>2020-09-13T06:39:10Z</time>
      </trkpt>
      <trkpt lat="46.53813" lon="0.33217">
        <ele>85.4</ele>
        <time>2020-09-13T06:39:11Z</time>
      </trkpt>
      <trkpt lat="46.5381" lon="0.33216">
        <ele>86.6</ele>
        <time>2020-09-13T06:39:13Z</time>
      </trkpt>
      <trkpt lat="46.53808" lon="0.33214">
        <ele>87.6</ele>
        <time>2020-09-13T06:39:15Z</time>
      </trkpt>
      <trkpt lat="46.53807" lon="0.33213">
        <ele>88.2</ele>
        <time>2020-09-13T06:39:16Z</time>
      </trkpt>
      <trkpt lat="46.53806" lon="0.33212">
        <ele>88.6</ele>
        <time>2020-09-13T06:39:17Z</time>
      </trkpt>
      <trkpt lat="46.53804" lon="0.3321">
        <ele>90</ele>
        <time>2020-09-13T06:39:20Z</time>
      </trkpt>
      <trkpt lat="46.53802" lon="0.33209">
        <ele>90.6</ele>
        <time>2020-09-13T06:39:22Z</time>
      </trkpt>
      <trkpt lat="46.538" lon="0.33208">
        <ele>91</ele>
        <time>2020-09-13T06:39:24Z</time>
      </trkpt>
      <trkpt lat="46.53799" lon="0.33208">
        <ele>91.4</ele>
        <time>2020-09-13T06:39:25Z</time>
      </trkpt>
      <trkpt lat="46.53797" lon="0.33207">
        <ele>92.2</ele>
        <time>2020-09-13T06:39:28Z</time>
      </trkpt>
      <trkpt lat="46.53796" lon="0.33206">
        <ele>92.6</ele>
        <time>2020-09-13T06:39:30Z</time>
      </trkpt>
      <trkpt lat="46.53792" lon="0.33205">
        <ele>93.4</ele>
        <time>2020-09-13T06:39:34Z</time>
      </trkpt>
      <trkpt lat="46.53791" lon="0.33205">
        <ele>93.6</ele>
        <time>2020-09-13T06:39:35Z</time>
      </trkpt>
      <trkpt lat="46.5379" lon="0.33205">
        <ele>94.4</ele>
        <time>2020-09-13T06:39:39Z</time>
      </trkpt>
      <trkpt lat="46.53785" lon="0.33204">
        <ele>95.4</ele>
        <time>2020-09-13T06:39:45Z</time>
      </trkpt>
      <trkpt lat="46.53781" lon="0.33203">
        <ele>96.6</ele>
        <time>2020-09-13T06:39:50Z</time>
      </trkpt>
      <trkpt lat="46.5378" lon="0.33203">
        <ele>97</ele>
        <time>2020-09-13T06:39:51Z</time>
      </trkpt>
      <trkpt lat="46.53779" lon="0.33202">
        <ele>97.6</ele>
        <time>2020-09-13T06:39:53Z</time>
      </trkpt>
      <trkpt lat="46.53777" lon="0.332">
        <ele>98.2</ele>
        <time>2020-09-13T06:39:56Z</time>
      </trkpt>
      <trkpt lat="46.53775" lon="0.33199">
        <ele>98.8</ele>
        <time>2020-09-13T06:39:59Z</time>
      </trkpt>
      <trkpt lat="46.53772" lon="0.33198">
        <ele>99.8</ele>
        <time>2020-09-13T06:40:03Z</time>
      </trkpt>
      <trkpt lat="46.5377" lon="0.33197">
        <ele>100.4</ele>
        <time>2020-09-13T06:40:05Z</time>
      </trkpt>
      <trkpt lat="46.53768" lon="0.33198">
        <ele>100.8</ele>
        <time>2020-09-13T06:40:08Z</time>
      </trkpt>
      <trkpt lat="46.53764" lon="0.33198">
        <ele>101.8</ele>
        <time>2020-09-13T06:40:15Z</time>
      </trkpt>
      <trkpt lat="46.53762" lon="0.33198">
        <ele>102</ele>
        <time>2020-09-13T06:40:16Z</time>
      </trkpt>
      <trkpt lat="46.5376" lon="0.33198">
        <ele>102.8</ele>
        <time>2020-09-13T06:40:19Z</time>
      </trkpt>
      <trkpt lat="46.53759" lon="0.33198">
        <ele>103.2</ele>
        <time>2020-09-13T06:40:20Z</time>
      </trkpt>
      <trkpt lat="46.53755" lon="0.33196">
        <ele>104</ele>
        <time>2020-09-13T06:40:26Z</time>
      </trkpt>
      <trkpt lat="46.53754" lon="0.33195">
        <ele>104.2</ele>
        <time>2020-09-13T06:40:28Z</time>
      </trkpt>
      <trkpt lat="46.5375" lon="0.33187">
        <ele>104.8</ele>
        <time>2020-09-13T06:40:34Z</time>
      </trkpt>
      <trkpt lat="46.53749" lon="0.33186">
        <ele>104.8</ele>
        <time>2020-09-13T06:40:35Z</time>
      </trkpt>
      <trkpt lat="46.53748" lon="0.33184">
        <ele>105.2</ele>
        <time>2020-09-13T06:40:37Z</time>
      </trkpt>
      <trkpt lat="46.53748" lon="0.33183">
        <ele>105.2</ele>
        <time>2020-09-13T06:40:38Z</time>
      </trkpt>
      <trkpt lat="46.53746" lon="0.33181">
        <ele>106.2</ele>
        <time>2020-09-13T06:40:43Z</time>
      </trkpt>
      <trkpt lat="46.53745" lon="0.33179">
        <ele>106.6</ele>
        <time>2020-09-13T06:40:46Z</time>
      </trkpt>
      <trkpt lat="46.53743" lon="0.33175">
        <ele>107</ele>
        <time>2020-09-13T06:40:51Z</time>
      </trkpt>
      <trkpt lat="46.53743" lon="0.33173">
        <ele>107.4</ele>
        <time>2020-09-13T06:40:53Z</time>
      </trkpt>
      <trkpt lat="46.53743" lon="0.33172">
        <ele>107.4</ele>
        <time>2020-09-13T06:40:54Z</time>
      </trkpt>
      <trkpt lat="46.53742" lon="0.33171">
        <ele>107.6</ele>
        <time>2020-09-13T06:40:57Z</time>
      </trkpt>
      <trkpt lat="46.53743" lon="0.33169">
        <ele>107.4</ele>
        <time>2020-09-13T06:41:15Z</time>
      </trkpt>
      <trkpt lat="46.53743" lon="0.33169">
        <ele>107.2</ele>
        <time>2020-09-13T06:41:38Z</time>
      </trkpt>
      <trkpt lat="46.53747" lon="0.33163">
        <ele>107.4</ele>
        <time>2020-09-13T06:41:46Z</time>
      </trkpt>
      <trkpt lat="46.53758" lon="0.33145">
        <ele>107.6</ele>
        <time>2020-09-13T06:41:55Z</time>
      </trkpt>
      <trkpt lat="46.53767" lon="0.3313">
        <ele>108</ele>
        <time>2020-09-13T06:42:00Z</time>
      </trkpt>
      <trkpt lat="46.53775" lon="0.33112">
        <ele>108.4</ele>
        <time>2020-09-13T06:42:04Z</time>
      </trkpt>
      <trkpt lat="46.53777" lon="0.33107">
        <ele>108.4</ele>
        <time>2020-09-13T06:42:05Z</time>
      </trkpt>
      <trkpt lat="46.53779" lon="0.33102">
        <ele>108.4</ele>
        <time>2020-09-13T06:42:06Z</time>
      </trkpt>
      <trkpt lat="46.53787" lon="0.33085">
        <ele>108.4</ele>
        <time>2020-09-13T06:42:09Z</time>
      </trkpt>
      <trkpt lat="46.53804" lon="0.33049">
        <ele>107.2</ele>
        <time>2020-09-13T06:42:15Z</time>
      </trkpt>
      <trkpt lat="46.53809" lon="0.33041">
        <ele>106.4</ele>
        <time>2020-09-13T06:42:17Z</time>
      </trkpt>
      <trkpt lat="46.53812" lon="0.33039">
        <ele>106.2</ele>
        <time>2020-09-13T06:42:18Z</time>
      </trkpt>
      <trkpt lat="46.53828" lon="0.33028">
        <ele>105</ele>
        <time>2020-09-13T06:42:22Z</time>
      </trkpt>
      <trkpt lat="46.53831" lon="0.33024">
        <ele>104.6</ele>
        <time>2020-09-13T06:42:23Z</time>
      </trkpt>
      <trkpt lat="46.53834" lon="0.33021">
        <ele>104</ele>
        <time>2020-09-13T06:42:24Z</time>
      </trkpt>
      <trkpt lat="46.53838" lon="0.33015">
        <ele>103.6</ele>
        <time>2020-09-13T06:42:26Z</time>
      </trkpt>
      <trkpt lat="46.5385" lon="0.32995">
        <ele>104.8</ele>
        <time>2020-09-13T06:42:32Z</time>
      </trkpt>
      <trkpt lat="46.53854" lon="0.32986">
        <ele>105.2</ele>
        <time>2020-09-13T06:42:34Z</time>
      </trkpt>
      <trkpt lat="46.53859" lon="0.32973">
        <ele>106</ele>
        <time>2020-09-13T06:42:37Z</time>
      </trkpt>
      <trkpt lat="46.5386" lon="0.3297">
        <ele>106.6</ele>
        <time>2020-09-13T06:42:38Z</time>
      </trkpt>
      <trkpt lat="46.53866" lon="0.32962">
        <ele>107.8</ele>
        <time>2020-09-13T06:42:41Z</time>
      </trkpt>
      <trkpt lat="46.53874" lon="0.3295">
        <ele>108</ele>
        <time>2020-09-13T06:42:45Z</time>
      </trkpt>
      <trkpt lat="46.53876" lon="0.32948">
        <ele>108</ele>
        <time>2020-09-13T06:42:46Z</time>
      </trkpt>
      <trkpt lat="46.53886" lon="0.32933">
        <ele>108</ele>
        <time>2020-09-13T06:42:51Z</time>
      </trkpt>
      <trkpt lat="46.53891" lon="0.32916">
        <ele>108.8</ele>
        <time>2020-09-13T06:42:57Z</time>
      </trkpt>
      <trkpt lat="46.53891" lon="0.32913">
        <ele>109</ele>
        <time>2020-09-13T06:42:58Z</time>
      </trkpt>
      <trkpt lat="46.53892" lon="0.32911">
        <ele>109.6</ele>
        <time>2020-09-13T06:42:59Z</time>
      </trkpt>
      <trkpt lat="46.53892" lon="0.32908">
        <ele>110</ele>
        <time>2020-09-13T06:43:00Z</time>
      </trkpt>
      <trkpt lat="46.53893" lon="0.32906">
        <ele>110.2</ele>
        <time>2020-09-13T06:43:01Z</time>
      </trkpt>
      <trkpt lat="46.53896" lon="0.329">
        <ele>110.6</ele>
        <time>2020-09-13T06:43:03Z</time>
      </trkpt>
      <trkpt lat="46.53905" lon="0.32886">
        <ele>110.2</ele>
        <time>2020-09-13T06:43:08Z</time>
      </trkpt>
      <trkpt lat="46.53915" lon="0.32879">
        <ele>109.8</ele>
        <time>2020-09-13T06:43:12Z</time>
      </trkpt>
      <trkpt lat="46.53917" lon="0.32877">
        <ele>109.6</ele>
        <time>2020-09-13T06:43:13Z</time>
      </trkpt>
      <trkpt lat="46.53919" lon="0.32875">
        <ele>109.4</ele>
        <time>2020-09-13T06:43:14Z</time>
      </trkpt>
      <trkpt lat="46.53925" lon="0.32874">
        <ele>109</ele>
        <time>2020-09-13T06:43:16Z</time>
      </trkpt>
      <trkpt lat="46.53926" lon="0.32874">
        <ele>108.6</ele>
        <time>2020-09-13T06:43:17Z</time>
      </trkpt>
      <trkpt lat="46.53933" lon="0.32871">
        <ele>108</ele>
        <time>2020-09-13T06:43:19Z</time>
      </trkpt>
      <trkpt lat="46.53935" lon="0.32869">
        <ele>107.8</ele>
        <time>2020-09-13T06:43:20Z</time>
      </trkpt>
      <trkpt lat="46.53936" lon="0.32865">
        <ele>107.6</ele>
        <time>2020-09-13T06:43:21Z</time>
      </trkpt>
      <trkpt lat="46.53939" lon="0.32857">
        <ele>107.4</ele>
        <time>2020-09-13T06:43:24Z</time>
      </trkpt>
      <trkpt lat="46.53951" lon="0.3285">
        <ele>106.6</ele>
        <time>2020-09-13T06:43:29Z</time>
      </trkpt>
      <trkpt lat="46.53954" lon="0.32849">
        <ele>106.4</ele>
        <time>2020-09-13T06:43:30Z</time>
      </trkpt>
      <trkpt lat="46.53959" lon="0.32848">
        <ele>106.2</ele>
        <time>2020-09-13T06:43:33Z</time>
      </trkpt>
      <trkpt lat="46.53962" lon="0.32845">
        <ele>105.8</ele>
        <time>2020-09-13T06:43:35Z</time>
      </trkpt>
      <trkpt lat="46.5397" lon="0.3284">
        <ele>105.4</ele>
        <time>2020-09-13T06:43:38Z</time>
      </trkpt>
      <trkpt lat="46.53975" lon="0.32834">
        <ele>105</ele>
        <time>2020-09-13T06:43:40Z</time>
      </trkpt>
      <trkpt lat="46.53976" lon="0.32829">
        <ele>104</ele>
        <time>2020-09-13T06:43:42Z</time>
      </trkpt>
      <trkpt lat="46.53972" lon="0.32823">
        <ele>102.8</ele>
        <time>2020-09-13T06:43:46Z</time>
      </trkpt>
      <trkpt lat="46.53972" lon="0.32822">
        <ele>102.4</ele>
        <time>2020-09-13T06:43:47Z</time>
      </trkpt>
      <trkpt lat="46.53971" lon="0.32818">
        <ele>101.8</ele>
        <time>2020-09-13T06:43:49Z</time>
      </trkpt>
      <trkpt lat="46.53968" lon="0.32816">
        <ele>101.4</ele>
        <time>2020-09-13T06:43:51Z</time>
      </trkpt>
      <trkpt lat="46.53955" lon="0.32813">
        <ele>101.6</ele>
        <time>2020-09-13T06:43:57Z</time>
      </trkpt>
      <trkpt lat="46.53939" lon="0.32813">
        <ele>103</ele>
        <time>2020-09-13T06:44:03Z</time>
      </trkpt>
      <trkpt lat="46.53925" lon="0.32815">
        <ele>104.6</ele>
        <time>2020-09-13T06:44:09Z</time>
      </trkpt>
      <trkpt lat="46.53918" lon="0.32816">
        <ele>105.6</ele>
        <time>2020-09-13T06:44:12Z</time>
      </trkpt>
      <trkpt lat="46.53909" lon="0.32816">
        <ele>106.2</ele>
        <time>2020-09-13T06:44:15Z</time>
      </trkpt>
      <trkpt lat="46.53898" lon="0.32813">
        <ele>106.8</ele>
        <time>2020-09-13T06:44:19Z</time>
      </trkpt>
      <trkpt lat="46.53888" lon="0.3281">
        <ele>107.4</ele>
        <time>2020-09-13T06:44:22Z</time>
      </trkpt>
      <trkpt lat="46.53868" lon="0.328">
        <ele>107.6</ele>
        <time>2020-09-13T06:44:27Z</time>
      </trkpt>
      <trkpt lat="46.53844" lon="0.32786">
        <ele>107.8</ele>
        <time>2020-09-13T06:44:32Z</time>
      </trkpt>
      <trkpt lat="46.53839" lon="0.32784">
        <ele>107.8</ele>
        <time>2020-09-13T06:44:33Z</time>
      </trkpt>
      <trkpt lat="46.53833" lon="0.32781">
        <ele>107.8</ele>
        <time>2020-09-13T06:44:34Z</time>
      </trkpt>
      <trkpt lat="46.53824" lon="0.32777">
        <ele>108</ele>
        <time>2020-09-13T06:44:36Z</time>
      </trkpt>
      <trkpt lat="46.53815" lon="0.32774">
        <ele>108</ele>
        <time>2020-09-13T06:44:38Z</time>
      </trkpt>
      <trkpt lat="46.538" lon="0.32769">
        <ele>108.2</ele>
        <time>2020-09-13T06:44:41Z</time>
      </trkpt>
      <trkpt lat="46.53779" lon="0.32766">
        <ele>108.4</ele>
        <time>2020-09-13T06:44:45Z</time>
      </trkpt>
      <trkpt lat="46.53764" lon="0.32764">
        <ele>108.8</ele>
        <time>2020-09-13T06:44:48Z</time>
      </trkpt>
      <trkpt lat="46.53755" lon="0.32762">
        <ele>109</ele>
        <time>2020-09-13T06:44:50Z</time>
      </trkpt>
      <trkpt lat="46.53734" lon="0.32758">
        <ele>110</ele>
        <time>2020-09-13T06:44:55Z</time>
      </trkpt>
      <trkpt lat="46.53726" lon="0.32756">
        <ele>110.2</ele>
        <time>2020-09-13T06:44:57Z</time>
      </trkpt>
      <trkpt lat="46.53708" lon="0.32753">
        <ele>111</ele>
        <time>2020-09-13T06:45:01Z</time>
      </trkpt>
      <trkpt lat="46.53699" lon="0.32753">
        <ele>111.6</ele>
        <time>2020-09-13T06:45:03Z</time>
      </trkpt>
      <trkpt lat="46.53677" lon="0.32751">
        <ele>112</ele>
        <time>2020-09-13T06:45:09Z</time>
      </trkpt>
      <trkpt lat="46.53674" lon="0.32751">
        <ele>112.2</ele>
        <time>2020-09-13T06:45:10Z</time>
      </trkpt>
      <trkpt lat="46.5366" lon="0.32752">
        <ele>113.2</ele>
        <time>2020-09-13T06:45:14Z</time>
      </trkpt>
      <trkpt lat="46.53657" lon="0.32752">
        <ele>113.4</ele>
        <time>2020-09-13T06:45:15Z</time>
      </trkpt>
      <trkpt lat="46.53652" lon="0.32748">
        <ele>113.6</ele>
        <time>2020-09-13T06:45:17Z</time>
      </trkpt>
      <trkpt lat="46.53647" lon="0.32735">
        <ele>114</ele>
        <time>2020-09-13T06:45:20Z</time>
      </trkpt>
      <trkpt lat="46.53646" lon="0.3273">
        <ele>114</ele>
        <time>2020-09-13T06:45:21Z</time>
      </trkpt>
      <trkpt lat="46.53647" lon="0.32726">
        <ele>114</ele>
        <time>2020-09-13T06:45:22Z</time>
      </trkpt>
      <trkpt lat="46.53651" lon="0.32721">
        <ele>113.6</ele>
        <time>2020-09-13T06:45:24Z</time>
      </trkpt>
      <trkpt lat="46.53652" lon="0.32717">
        <ele>113</ele>
        <time>2020-09-13T06:45:25Z</time>
      </trkpt>
      <trkpt lat="46.53654" lon="0.32714">
        <ele>112</ele>
        <time>2020-09-13T06:45:26Z</time>
      </trkpt>
      <trkpt lat="46.53656" lon="0.32709">
        <ele>110.8</ele>
        <time>2020-09-13T06:45:27Z</time>
      </trkpt>
      <trkpt lat="46.53658" lon="0.32699">
        <ele>109.6</ele>
        <time>2020-09-13T06:45:29Z</time>
      </trkpt>
      <trkpt lat="46.53658" lon="0.32686">
        <ele>108.6</ele>
        <time>2020-09-13T06:45:31Z</time>
      </trkpt>
      <trkpt lat="46.53658" lon="0.32681">
        <ele>107.6</ele>
        <time>2020-09-13T06:45:32Z</time>
      </trkpt>
      <trkpt lat="46.53658" lon="0.32676">
        <ele>106.4</ele>
        <time>2020-09-13T06:45:33Z</time>
      </trkpt>
      <trkpt lat="46.53657" lon="0.32673">
        <ele>105.2</ele>
        <time>2020-09-13T06:45:34Z</time>
      </trkpt>
      <trkpt lat="46.53654" lon="0.32669">
        <ele>104.2</ele>
        <time>2020-09-13T06:45:35Z</time>
      </trkpt>
      <trkpt lat="46.53651" lon="0.32665">
        <ele>103.8</ele>
        <time>2020-09-13T06:45:36Z</time>
      </trkpt>
      <trkpt lat="46.53645" lon="0.32658">
        <ele>103.4</ele>
        <time>2020-09-13T06:45:38Z</time>
      </trkpt>
      <trkpt lat="46.53644" lon="0.32654">
        <ele>103.2</ele>
        <time>2020-09-13T06:45:39Z</time>
      </trkpt>
      <trkpt lat="46.53644" lon="0.32646">
        <ele>102.6</ele>
        <time>2020-09-13T06:45:41Z</time>
      </trkpt>
      <trkpt lat="46.53645" lon="0.32644">
        <ele>102.2</ele>
        <time>2020-09-13T06:45:42Z</time>
      </trkpt>
      <trkpt lat="46.53647" lon="0.32641">
        <ele>101.8</ele>
        <time>2020-09-13T06:45:43Z</time>
      </trkpt>
      <trkpt lat="46.53649" lon="0.32637">
        <ele>101.4</ele>
        <time>2020-09-13T06:45:44Z</time>
      </trkpt>
      <trkpt lat="46.53651" lon="0.32628">
        <ele>100.4</ele>
        <time>2020-09-13T06:45:46Z</time>
      </trkpt>
      <trkpt lat="46.53651" lon="0.32621">
        <ele>99.4</ele>
        <time>2020-09-13T06:45:48Z</time>
      </trkpt>
      <trkpt lat="46.53652" lon="0.32612">
        <ele>97.6</ele>
        <time>2020-09-13T06:45:50Z</time>
      </trkpt>
      <trkpt lat="46.53651" lon="0.32609">
        <ele>96.6</ele>
        <time>2020-09-13T06:45:51Z</time>
      </trkpt>
      <trkpt lat="46.5365" lon="0.32606">
        <ele>95.6</ele>
        <time>2020-09-13T06:45:52Z</time>
      </trkpt>
      <trkpt lat="46.53649" lon="0.32603">
        <ele>95</ele>
        <time>2020-09-13T06:45:53Z</time>
      </trkpt>
      <trkpt lat="46.53646" lon="0.32599">
        <ele>94.4</ele>
        <time>2020-09-13T06:45:55Z</time>
      </trkpt>
      <trkpt lat="46.5364" lon="0.32597">
        <ele>94.2</ele>
        <time>2020-09-13T06:45:58Z</time>
      </trkpt>
      <trkpt lat="46.53627" lon="0.32594">
        <ele>95.4</ele>
        <time>2020-09-13T06:46:03Z</time>
      </trkpt>
      <trkpt lat="46.53621" lon="0.32595">
        <ele>96.6</ele>
        <time>2020-09-13T06:46:06Z</time>
      </trkpt>
      <trkpt lat="46.53616" lon="0.32596">
        <ele>97.4</ele>
        <time>2020-09-13T06:46:09Z</time>
      </trkpt>
      <trkpt lat="46.53614" lon="0.32597">
        <ele>97.6</ele>
        <time>2020-09-13T06:46:10Z</time>
      </trkpt>
      <trkpt lat="46.53609" lon="0.326">
        <ele>98.8</ele>
        <time>2020-09-13T06:46:13Z</time>
      </trkpt>
      <trkpt lat="46.53606" lon="0.32602">
        <ele>99.4</ele>
        <time>2020-09-13T06:46:15Z</time>
      </trkpt>
      <trkpt lat="46.53602" lon="0.32604">
        <ele>100.2</ele>
        <time>2020-09-13T06:46:17Z</time>
      </trkpt>
      <trkpt lat="46.53592" lon="0.32606">
        <ele>101</ele>
        <time>2020-09-13T06:46:21Z</time>
      </trkpt>
      <trkpt lat="46.5359" lon="0.32607">
        <ele>101.2</ele>
        <time>2020-09-13T06:46:22Z</time>
      </trkpt>
      <trkpt lat="46.53579" lon="0.32607">
        <ele>102.4</ele>
        <time>2020-09-13T06:46:26Z</time>
      </trkpt>
      <trkpt lat="46.53573" lon="0.32607">
        <ele>103</ele>
        <time>2020-09-13T06:46:28Z</time>
      </trkpt>
      <trkpt lat="46.53569" lon="0.32607">
        <ele>103.6</ele>
        <time>2020-09-13T06:46:30Z</time>
      </trkpt>
      <trkpt lat="46.5356" lon="0.32608">
        <ele>104.4</ele>
        <time>2020-09-13T06:46:34Z</time>
      </trkpt>
      <trkpt lat="46.53556" lon="0.32609">
        <ele>104.6</ele>
        <time>2020-09-13T06:46:36Z</time>
      </trkpt>
      <trkpt lat="46.53547" lon="0.32613">
        <ele>105.8</ele>
        <time>2020-09-13T06:46:41Z</time>
      </trkpt>
      <trkpt lat="46.5354" lon="0.32617">
        <ele>106.8</ele>
        <time>2020-09-13T06:46:45Z</time>
      </trkpt>
      <trkpt lat="46.53535" lon="0.3262">
        <ele>107.4</ele>
        <time>2020-09-13T06:46:48Z</time>
      </trkpt>
      <trkpt lat="46.53527" lon="0.32622">
        <ele>108</ele>
        <time>2020-09-13T06:46:52Z</time>
      </trkpt>
      <trkpt lat="46.5352" lon="0.32626">
        <ele>109</ele>
        <time>2020-09-13T06:46:56Z</time>
      </trkpt>
      <trkpt lat="46.53518" lon="0.32626">
        <ele>109</ele>
        <time>2020-09-13T06:46:57Z</time>
      </trkpt>
      <trkpt lat="46.53508" lon="0.3263">
        <ele>109.8</ele>
        <time>2020-09-13T06:47:02Z</time>
      </trkpt>
      <trkpt lat="46.53506" lon="0.32631">
        <ele>110</ele>
        <time>2020-09-13T06:47:03Z</time>
      </trkpt>
      <trkpt lat="46.53494" lon="0.32635">
        <ele>111.2</ele>
        <time>2020-09-13T06:47:08Z</time>
      </trkpt>
      <trkpt lat="46.53489" lon="0.32636">
        <ele>111.6</ele>
        <time>2020-09-13T06:47:10Z</time>
      </trkpt>
      <trkpt lat="46.53483" lon="0.32638">
        <ele>112.2</ele>
        <time>2020-09-13T06:47:13Z</time>
      </trkpt>
      <trkpt lat="46.53476" lon="0.32641">
        <ele>112.4</ele>
        <time>2020-09-13T06:47:17Z</time>
      </trkpt>
      <trkpt lat="46.53469" lon="0.32643">
        <ele>113.2</ele>
        <time>2020-09-13T06:47:21Z</time>
      </trkpt>
      <trkpt lat="46.53464" lon="0.32646">
        <ele>113.6</ele>
        <time>2020-09-13T06:47:24Z</time>
      </trkpt>
      <trkpt lat="46.53457" lon="0.32649">
        <ele>114.2</ele>
        <time>2020-09-13T06:47:27Z</time>
      </trkpt>
      <trkpt lat="46.53451" lon="0.32651">
        <ele>114.8</ele>
        <time>2020-09-13T06:47:30Z</time>
      </trkpt>
      <trkpt lat="46.53441" lon="0.32654">
        <ele>115.4</ele>
        <time>2020-09-13T06:47:34Z</time>
      </trkpt>
      <trkpt lat="46.53434" lon="0.32654">
        <ele>115.6</ele>
        <time>2020-09-13T06:47:37Z</time>
      </trkpt>
      <trkpt lat="46.53421" lon="0.32654">
        <ele>116.6</ele>
        <time>2020-09-13T06:47:42Z</time>
      </trkpt>
      <trkpt lat="46.53418" lon="0.32655">
        <ele>116.8</ele>
        <time>2020-09-13T06:47:43Z</time>
      </trkpt>
      <trkpt lat="46.53405" lon="0.32656">
        <ele>117.2</ele>
        <time>2020-09-13T06:47:48Z</time>
      </trkpt>
      <trkpt lat="46.53389" lon="0.32652">
        <ele>117.6</ele>
        <time>2020-09-13T06:47:53Z</time>
      </trkpt>
      <trkpt lat="46.53386" lon="0.32651">
        <ele>117.8</ele>
        <time>2020-09-13T06:47:54Z</time>
      </trkpt>
      <trkpt lat="46.53365" lon="0.32638">
        <ele>117.6</ele>
        <time>2020-09-13T06:48:01Z</time>
      </trkpt>
      <trkpt lat="46.53344" lon="0.32627">
        <ele>117.8</ele>
        <time>2020-09-13T06:48:06Z</time>
      </trkpt>
      <trkpt lat="46.53329" lon="0.3262">
        <ele>118</ele>
        <time>2020-09-13T06:48:10Z</time>
      </trkpt>
      <trkpt lat="46.53322" lon="0.32615">
        <ele>118</ele>
        <time>2020-09-13T06:48:12Z</time>
      </trkpt>
      <trkpt lat="46.53305" lon="0.32603">
        <ele>117.8</ele>
        <time>2020-09-13T06:48:17Z</time>
      </trkpt>
      <trkpt lat="46.53304" lon="0.32599">
        <ele>117.8</ele>
        <time>2020-09-13T06:48:18Z</time>
      </trkpt>
      <trkpt lat="46.53301" lon="0.32589">
        <ele>117.8</ele>
        <time>2020-09-13T06:48:20Z</time>
      </trkpt>
      <trkpt lat="46.53298" lon="0.32577">
        <ele>117.4</ele>
        <time>2020-09-13T06:48:22Z</time>
      </trkpt>
      <trkpt lat="46.53297" lon="0.3257">
        <ele>117.2</ele>
        <time>2020-09-13T06:48:23Z</time>
      </trkpt>
      <trkpt lat="46.53295" lon="0.32563">
        <ele>117</ele>
        <time>2020-09-13T06:48:24Z</time>
      </trkpt>
      <trkpt lat="46.5329" lon="0.32548">
        <ele>116.4</ele>
        <time>2020-09-13T06:48:26Z</time>
      </trkpt>
      <trkpt lat="46.53287" lon="0.32535">
        <ele>116.2</ele>
        <time>2020-09-13T06:48:28Z</time>
      </trkpt>
      <trkpt lat="46.53283" lon="0.32524">
        <ele>115.6</ele>
        <time>2020-09-13T06:48:30Z</time>
      </trkpt>
      <trkpt lat="46.53283" lon="0.32518">
        <ele>115</ele>
        <time>2020-09-13T06:48:31Z</time>
      </trkpt>
      <trkpt lat="46.53282" lon="0.32511">
        <ele>114.6</ele>
        <time>2020-09-13T06:48:32Z</time>
      </trkpt>
      <trkpt lat="46.5328" lon="0.325">
        <ele>113.8</ele>
        <time>2020-09-13T06:48:34Z</time>
      </trkpt>
      <trkpt lat="46.53281" lon="0.32496">
        <ele>113.4</ele>
        <time>2020-09-13T06:48:35Z</time>
      </trkpt>
      <trkpt lat="46.53282" lon="0.32493">
        <ele>113.2</ele>
        <time>2020-09-13T06:48:36Z</time>
      </trkpt>
      <trkpt lat="46.53284" lon="0.32489">
        <ele>113</ele>
        <time>2020-09-13T06:48:37Z</time>
      </trkpt>
      <trkpt lat="46.53287" lon="0.32486">
        <ele>112.6</ele>
        <time>2020-09-13T06:48:38Z</time>
      </trkpt>
      <trkpt lat="46.53288" lon="0.32482">
        <ele>112.2</ele>
        <time>2020-09-13T06:48:39Z</time>
      </trkpt>
      <trkpt lat="46.53289" lon="0.32477">
        <ele>111.8</ele>
        <time>2020-09-13T06:48:40Z</time>
      </trkpt>
      <trkpt lat="46.53291" lon="0.32472">
        <ele>111.4</ele>
        <time>2020-09-13T06:48:41Z</time>
      </trkpt>
      <trkpt lat="46.53294" lon="0.32464">
        <ele>110.2</ele>
        <time>2020-09-13T06:48:43Z</time>
      </trkpt>
      <trkpt lat="46.53296" lon="0.32463">
        <ele>109.4</ele>
        <time>2020-09-13T06:48:44Z</time>
      </trkpt>
      <trkpt lat="46.53299" lon="0.32462">
        <ele>108.8</ele>
        <time>2020-09-13T06:48:45Z</time>
      </trkpt>
      <trkpt lat="46.53308" lon="0.32459">
        <ele>107.2</ele>
        <time>2020-09-13T06:48:48Z</time>
      </trkpt>
      <trkpt lat="46.5331" lon="0.3246">
        <ele>106.6</ele>
        <time>2020-09-13T06:48:49Z</time>
      </trkpt>
      <trkpt lat="46.53312" lon="0.32461">
        <ele>106</ele>
        <time>2020-09-13T06:48:50Z</time>
      </trkpt>
      <trkpt lat="46.53314" lon="0.32462">
        <ele>105.2</ele>
        <time>2020-09-13T06:48:51Z</time>
      </trkpt>
      <trkpt lat="46.53317" lon="0.32463">
        <ele>104.8</ele>
        <time>2020-09-13T06:48:52Z</time>
      </trkpt>
      <trkpt lat="46.5332" lon="0.32464">
        <ele>104</ele>
        <time>2020-09-13T06:48:53Z</time>
      </trkpt>
      <trkpt lat="46.5332" lon="0.32464">
        <ele>102</ele>
        <time>2020-09-13T06:48:54Z</time>
      </trkpt>
      <trkpt lat="46.53328" lon="0.32463">
        <ele>102</ele>
        <time>2020-09-13T06:48:55Z</time>
      </trkpt>
      <trkpt lat="46.53336" lon="0.32463">
        <ele>100</ele>
        <time>2020-09-13T06:48:57Z</time>
      </trkpt>
      <trkpt lat="46.5334" lon="0.32463">
        <ele>98.8</ele>
        <time>2020-09-13T06:48:58Z</time>
      </trkpt>
      <trkpt lat="46.53344" lon="0.32463">
        <ele>97.8</ele>
        <time>2020-09-13T06:48:59Z</time>
      </trkpt>
      <trkpt lat="46.53351" lon="0.32465">
        <ele>96.8</ele>
        <time>2020-09-13T06:49:01Z</time>
      </trkpt>
      <trkpt lat="46.53355" lon="0.32465">
        <ele>96.6</ele>
        <time>2020-09-13T06:49:02Z</time>
      </trkpt>
      <trkpt lat="46.53368" lon="0.32473">
        <ele>96.2</ele>
        <time>2020-09-13T06:49:07Z</time>
      </trkpt>
      <trkpt lat="46.53373" lon="0.32477">
        <ele>96.2</ele>
        <time>2020-09-13T06:49:09Z</time>
      </trkpt>
      <trkpt lat="46.5338" lon="0.32478">
        <ele>95.8</ele>
        <time>2020-09-13T06:49:12Z</time>
      </trkpt>
      <trkpt lat="46.53382" lon="0.32478">
        <ele>95.6</ele>
        <time>2020-09-13T06:49:13Z</time>
      </trkpt>
      <trkpt lat="46.53385" lon="0.32476">
        <ele>94.2</ele>
        <time>2020-09-13T06:49:15Z</time>
      </trkpt>
      <trkpt lat="46.53388" lon="0.32475">
        <ele>92.4</ele>
        <time>2020-09-13T06:49:17Z</time>
      </trkpt>
      <trkpt lat="46.53391" lon="0.32475">
        <ele>91.2</ele>
        <time>2020-09-13T06:49:19Z</time>
      </trkpt>
      <trkpt lat="46.53392" lon="0.32476">
        <ele>90.4</ele>
        <time>2020-09-13T06:49:20Z</time>
      </trkpt>
      <trkpt lat="46.53394" lon="0.32475">
        <ele>89.4</ele>
        <time>2020-09-13T06:49:21Z</time>
      </trkpt>
      <trkpt lat="46.53396" lon="0.32475">
        <ele>88.2</ele>
        <time>2020-09-13T06:49:23Z</time>
      </trkpt>
      <trkpt lat="46.53398" lon="0.32475">
        <ele>87.6</ele>
        <time>2020-09-13T06:49:25Z</time>
      </trkpt>
      <trkpt lat="46.53401" lon="0.32476">
        <ele>87</ele>
        <time>2020-09-13T06:49:27Z</time>
      </trkpt>
      <trkpt lat="46.53404" lon="0.32475">
        <ele>86.6</ele>
        <time>2020-09-13T06:49:31Z</time>
      </trkpt>
      <trkpt lat="46.53408" lon="0.32472">
        <ele>86</ele>
        <time>2020-09-13T06:49:34Z</time>
      </trkpt>
      <trkpt lat="46.53413" lon="0.3247">
        <ele>84.8</ele>
        <time>2020-09-13T06:49:38Z</time>
      </trkpt>
      <trkpt lat="46.53415" lon="0.32467">
        <ele>84.2</ele>
        <time>2020-09-13T06:49:42Z</time>
      </trkpt>
      <trkpt lat="46.53415" lon="0.32467">
        <ele>84</ele>
        <time>2020-09-13T06:49:44Z</time>
      </trkpt>
      <trkpt lat="46.53416" lon="0.32467">
        <ele>83.6</ele>
        <time>2020-09-13T06:49:45Z</time>
      </trkpt>
      <trkpt lat="46.53418" lon="0.32466">
        <ele>82.2</ele>
        <time>2020-09-13T06:49:48Z</time>
      </trkpt>
      <trkpt lat="46.53421" lon="0.32465">
        <ele>81.6</ele>
        <time>2020-09-13T06:49:55Z</time>
      </trkpt>
      <trkpt lat="46.53426" lon="0.3247">
        <ele>81.2</ele>
        <time>2020-09-13T06:49:59Z</time>
      </trkpt>
      <trkpt lat="46.53428" lon="0.32471">
        <ele>79.8</ele>
        <time>2020-09-13T06:50:01Z</time>
      </trkpt>
      <trkpt lat="46.53437" lon="0.32473">
        <ele>79.2</ele>
        <time>2020-09-13T06:50:03Z</time>
      </trkpt>
      <trkpt lat="46.5344" lon="0.32473">
        <ele>78.4</ele>
        <time>2020-09-13T06:50:04Z</time>
      </trkpt>
      <trkpt lat="46.53446" lon="0.32472">
        <ele>77.2</ele>
        <time>2020-09-13T06:50:06Z</time>
      </trkpt>
      <trkpt lat="46.5345" lon="0.3247">
        <ele>76.6</ele>
        <time>2020-09-13T06:50:08Z</time>
      </trkpt>
      <trkpt lat="46.53451" lon="0.32469">
        <ele>76.4</ele>
        <time>2020-09-13T06:50:09Z</time>
      </trkpt>
      <trkpt lat="46.53452" lon="0.32468">
        <ele>76.2</ele>
        <time>2020-09-13T06:50:10Z</time>
      </trkpt>
      <trkpt lat="46.53458" lon="0.32464">
        <ele>76</ele>
        <time>2020-09-13T06:50:14Z</time>
      </trkpt>
      <trkpt lat="46.53459" lon="0.32463">
        <ele>76</ele>
        <time>2020-09-13T06:50:15Z</time>
      </trkpt>
      <trkpt lat="46.53462" lon="0.3246">
        <ele>76.4</ele>
        <time>2020-09-13T06:50:18Z</time>
      </trkpt>
      <trkpt lat="46.53465" lon="0.32457">
        <ele>76.8</ele>
        <time>2020-09-13T06:50:20Z</time>
      </trkpt>
      <trkpt lat="46.53466" lon="0.32453">
        <ele>77</ele>
        <time>2020-09-13T06:50:22Z</time>
      </trkpt>
      <trkpt lat="46.53464" lon="0.32447">
        <ele>77.2</ele>
        <time>2020-09-13T06:50:24Z</time>
      </trkpt>
      <trkpt lat="46.53463" lon="0.32443">
        <ele>77.2</ele>
        <time>2020-09-13T06:50:25Z</time>
      </trkpt>
      <trkpt lat="46.53457" lon="0.32434">
        <ele>77.4</ele>
        <time>2020-09-13T06:50:29Z</time>
      </trkpt>
      <trkpt lat="46.53451" lon="0.32426">
        <ele>77.2</ele>
        <time>2020-09-13T06:50:35Z</time>
      </trkpt>
      <trkpt lat="46.53441" lon="0.32419">
        <ele>77.6</ele>
        <time>2020-09-13T06:50:41Z</time>
      </trkpt>
      <trkpt lat="46.53426" lon="0.32416">
        <ele>77</ele>
        <time>2020-09-13T06:50:47Z</time>
      </trkpt>
      <trkpt lat="46.53413" lon="0.32411">
        <ele>76.4</ele>
        <time>2020-09-13T06:50:52Z</time>
      </trkpt>
      <trkpt lat="46.53409" lon="0.32408">
        <ele>76.2</ele>
        <time>2020-09-13T06:50:54Z</time>
      </trkpt>
      <trkpt lat="46.53406" lon="0.32405">
        <ele>76</ele>
        <time>2020-09-13T06:50:57Z</time>
      </trkpt>
      <trkpt lat="46.53405" lon="0.32402">
        <ele>76.2</ele>
        <time>2020-09-13T06:50:59Z</time>
      </trkpt>
      <trkpt lat="46.53403" lon="0.32399">
        <ele>76.4</ele>
        <time>2020-09-13T06:51:02Z</time>
      </trkpt>
      <trkpt lat="46.534" lon="0.32397">
        <ele>76.6</ele>
        <time>2020-09-13T06:51:06Z</time>
      </trkpt>
      <trkpt lat="46.53399" lon="0.32393">
        <ele>76.2</ele>
        <time>2020-09-13T06:51:11Z</time>
      </trkpt>
      <trkpt lat="46.53399" lon="0.32393">
        <ele>76</ele>
        <time>2020-09-13T06:51:13Z</time>
      </trkpt>
      <trkpt lat="46.53401" lon="0.32392">
        <ele>75.8</ele>
        <time>2020-09-13T06:51:18Z</time>
      </trkpt>
      <trkpt lat="46.53398" lon="0.32391">
        <ele>75.8</ele>
        <time>2020-09-13T06:51:33Z</time>
      </trkpt>
      <trkpt lat="46.53394" lon="0.3238">
        <ele>76</ele>
        <time>2020-09-13T06:51:46Z</time>
      </trkpt>
      <trkpt lat="46.5339" lon="0.32367">
        <ele>76</ele>
        <time>2020-09-13T06:51:58Z</time>
      </trkpt>
      <trkpt lat="46.53389" lon="0.32364">
        <ele>75.8</ele>
        <time>2020-09-13T06:52:01Z</time>
      </trkpt>
      <trkpt lat="46.53389" lon="0.32363">
        <ele>76</ele>
        <time>2020-09-13T06:52:03Z</time>
      </trkpt>
      <trkpt lat="46.53385" lon="0.3236">
        <ele>76.2</ele>
        <time>2020-09-13T06:52:08Z</time>
      </trkpt>
      <trkpt lat="46.53379" lon="0.32358">
        <ele>76</ele>
        <time>2020-09-13T06:52:17Z</time>
      </trkpt>
      <trkpt lat="46.53371" lon="0.32359">
        <ele>77.2</ele>
        <time>2020-09-13T06:52:25Z</time>
      </trkpt>
      <trkpt lat="46.5337" lon="0.32358">
        <ele>77.2</ele>
        <time>2020-09-13T06:52:27Z</time>
      </trkpt>
      <trkpt lat="46.53367" lon="0.32356">
        <ele>77.4</ele>
        <time>2020-09-13T06:52:31Z</time>
      </trkpt>
      <trkpt lat="46.53362" lon="0.32349">
        <ele>77.6</ele>
        <time>2020-09-13T06:52:37Z</time>
      </trkpt>
      <trkpt lat="46.53359" lon="0.32345">
        <ele>78.4</ele>
        <time>2020-09-13T06:52:41Z</time>
      </trkpt>
      <trkpt lat="46.53355" lon="0.32342">
        <ele>79.4</ele>
        <time>2020-09-13T06:52:46Z</time>
      </trkpt>
      <trkpt lat="46.53354" lon="0.3234">
        <ele>79.8</ele>
        <time>2020-09-13T06:52:48Z</time>
      </trkpt>
      <trkpt lat="46.53349" lon="0.32332">
        <ele>80.2</ele>
        <time>2020-09-13T06:52:56Z</time>
      </trkpt>
      <trkpt lat="46.53342" lon="0.32319">
        <ele>80.8</ele>
        <time>2020-09-13T06:53:02Z</time>
      </trkpt>
      <trkpt lat="46.53334" lon="0.3231">
        <ele>81.4</ele>
        <time>2020-09-13T06:53:08Z</time>
      </trkpt>
      <trkpt lat="46.53331" lon="0.32306">
        <ele>82</ele>
        <time>2020-09-13T06:53:10Z</time>
      </trkpt>
      <trkpt lat="46.53328" lon="0.32304">
        <ele>82.6</ele>
        <time>2020-09-13T06:53:13Z</time>
      </trkpt>
      <trkpt lat="46.53325" lon="0.32301">
        <ele>83</ele>
        <time>2020-09-13T06:53:20Z</time>
      </trkpt>
      <trkpt lat="46.53324" lon="0.32301">
        <ele>83.6</ele>
        <time>2020-09-13T06:53:23Z</time>
      </trkpt>
      <trkpt lat="46.5332" lon="0.32298">
        <ele>84.2</ele>
        <time>2020-09-13T06:53:28Z</time>
      </trkpt>
      <trkpt lat="46.53318" lon="0.32297">
        <ele>84.6</ele>
        <time>2020-09-13T06:53:31Z</time>
      </trkpt>
      <trkpt lat="46.53318" lon="0.32296">
        <ele>84.8</ele>
        <time>2020-09-13T06:53:33Z</time>
      </trkpt>
      <trkpt lat="46.53318" lon="0.32295">
        <ele>85</ele>
        <time>2020-09-13T06:53:34Z</time>
      </trkpt>
      <trkpt lat="46.53316" lon="0.32294">
        <ele>85.2</ele>
        <time>2020-09-13T06:53:36Z</time>
      </trkpt>
      <trkpt lat="46.53309" lon="0.32285">
        <ele>86</ele>
        <time>2020-09-13T06:53:41Z</time>
      </trkpt>
      <trkpt lat="46.53306" lon="0.32283">
        <ele>86.2</ele>
        <time>2020-09-13T06:53:43Z</time>
      </trkpt>
      <trkpt lat="46.533" lon="0.3228">
        <ele>87</ele>
        <time>2020-09-13T06:53:47Z</time>
      </trkpt>
      <trkpt lat="46.53298" lon="0.32274">
        <ele>87.2</ele>
        <time>2020-09-13T06:53:50Z</time>
      </trkpt>
      <trkpt lat="46.53295" lon="0.32268">
        <ele>87.2</ele>
        <time>2020-09-13T06:53:53Z</time>
      </trkpt>
      <trkpt lat="46.53293" lon="0.32265">
        <ele>87</ele>
        <time>2020-09-13T06:53:54Z</time>
      </trkpt>
      <trkpt lat="46.53289" lon="0.32262">
        <ele>86.6</ele>
        <time>2020-09-13T06:53:57Z</time>
      </trkpt>
      <trkpt lat="46.5328" lon="0.32255">
        <ele>87.2</ele>
        <time>2020-09-13T06:54:07Z</time>
      </trkpt>
      <trkpt lat="46.53278" lon="0.32253">
        <ele>87.2</ele>
        <time>2020-09-13T06:54:09Z</time>
      </trkpt>
      <trkpt lat="46.53276" lon="0.3225">
        <ele>87.2</ele>
        <time>2020-09-13T06:54:11Z</time>
      </trkpt>
      <trkpt lat="46.53272" lon="0.32242">
        <ele>87.6</ele>
        <time>2020-09-13T06:54:16Z</time>
      </trkpt>
      <trkpt lat="46.53271" lon="0.3224">
        <ele>87.8</ele>
        <time>2020-09-13T06:54:17Z</time>
      </trkpt>
      <trkpt lat="46.53261" lon="0.32227">
        <ele>87.8</ele>
        <time>2020-09-13T06:54:23Z</time>
      </trkpt>
      <trkpt lat="46.53257" lon="0.32224">
        <ele>87.8</ele>
        <time>2020-09-13T06:54:25Z</time>
      </trkpt>
      <trkpt lat="46.53253" lon="0.32223">
        <ele>87.8</ele>
        <time>2020-09-13T06:54:27Z</time>
      </trkpt>
      <trkpt lat="46.53251" lon="0.32221">
        <ele>88</ele>
        <time>2020-09-13T06:54:28Z</time>
      </trkpt>
      <trkpt lat="46.5325" lon="0.32219">
        <ele>88.2</ele>
        <time>2020-09-13T06:54:29Z</time>
      </trkpt>
      <trkpt lat="46.53238" lon="0.32207">
        <ele>89</ele>
        <time>2020-09-13T06:54:35Z</time>
      </trkpt>
      <trkpt lat="46.5323" lon="0.32201">
        <ele>89.4</ele>
        <time>2020-09-13T06:54:39Z</time>
      </trkpt>
      <trkpt lat="46.53222" lon="0.32194">
        <ele>90</ele>
        <time>2020-09-13T06:54:43Z</time>
      </trkpt>
      <trkpt lat="46.53216" lon="0.32188">
        <ele>90.4</ele>
        <time>2020-09-13T06:54:46Z</time>
      </trkpt>
      <trkpt lat="46.53208" lon="0.32184">
        <ele>90.6</ele>
        <time>2020-09-13T06:54:49Z</time>
      </trkpt>
      <trkpt lat="46.53202" lon="0.32184">
        <ele>91.4</ele>
        <time>2020-09-13T06:54:53Z</time>
      </trkpt>
      <trkpt lat="46.532" lon="0.32182">
        <ele>92</ele>
        <time>2020-09-13T06:54:54Z</time>
      </trkpt>
      <trkpt lat="46.53198" lon="0.32183">
        <ele>92.6</ele>
        <time>2020-09-13T06:54:55Z</time>
      </trkpt>
      <trkpt lat="46.53194" lon="0.32183">
        <ele>93.6</ele>
        <time>2020-09-13T06:54:57Z</time>
      </trkpt>
      <trkpt lat="46.53187" lon="0.32181">
        <ele>94.6</ele>
        <time>2020-09-13T06:55:01Z</time>
      </trkpt>
      <trkpt lat="46.53176" lon="0.32177">
        <ele>95.8</ele>
        <time>2020-09-13T06:55:07Z</time>
      </trkpt>
      <trkpt lat="46.53175" lon="0.32177">
        <ele>96.2</ele>
        <time>2020-09-13T06:55:08Z</time>
      </trkpt>
      <trkpt lat="46.5317" lon="0.32176">
        <ele>97</ele>
        <time>2020-09-13T06:55:11Z</time>
      </trkpt>
      <trkpt lat="46.53165" lon="0.32175">
        <ele>97.6</ele>
        <time>2020-09-13T06:55:14Z</time>
      </trkpt>
      <trkpt lat="46.53163" lon="0.32175">
        <ele>98</ele>
        <time>2020-09-13T06:55:15Z</time>
      </trkpt>
      <trkpt lat="46.53155" lon="0.32173">
        <ele>99</ele>
        <time>2020-09-13T06:55:19Z</time>
      </trkpt>
      <trkpt lat="46.53151" lon="0.32172">
        <ele>99.2</ele>
        <time>2020-09-13T06:55:21Z</time>
      </trkpt>
      <trkpt lat="46.53143" lon="0.32172">
        <ele>99.4</ele>
        <time>2020-09-13T06:55:26Z</time>
      </trkpt>
      <trkpt lat="46.53135" lon="0.3217">
        <ele>99.6</ele>
        <time>2020-09-13T06:55:30Z</time>
      </trkpt>
      <trkpt lat="46.5313" lon="0.32168">
        <ele>99.6</ele>
        <time>2020-09-13T06:55:33Z</time>
      </trkpt>
      <trkpt lat="46.53129" lon="0.32168">
        <ele>99.6</ele>
        <time>2020-09-13T06:55:34Z</time>
      </trkpt>
      <trkpt lat="46.53122" lon="0.32166">
        <ele>100.2</ele>
        <time>2020-09-13T06:55:41Z</time>
      </trkpt>
      <trkpt lat="46.53121" lon="0.32166">
        <ele>100.4</ele>
        <time>2020-09-13T06:55:42Z</time>
      </trkpt>
      <trkpt lat="46.53118" lon="0.32166">
        <ele>100.6</ele>
        <time>2020-09-13T06:55:45Z</time>
      </trkpt>
      <trkpt lat="46.53115" lon="0.32166">
        <ele>100.6</ele>
        <time>2020-09-13T06:55:48Z</time>
      </trkpt>
      <trkpt lat="46.53111" lon="0.32165">
        <ele>100.8</ele>
        <time>2020-09-13T06:55:52Z</time>
      </trkpt>
      <trkpt lat="46.53102" lon="0.32163">
        <ele>101.2</ele>
        <time>2020-09-13T06:55:58Z</time>
      </trkpt>
      <trkpt lat="46.53101" lon="0.32162">
        <ele>101.4</ele>
        <time>2020-09-13T06:55:59Z</time>
      </trkpt>
      <trkpt lat="46.5309" lon="0.32155">
        <ele>101.6</ele>
        <time>2020-09-13T06:56:05Z</time>
      </trkpt>
      <trkpt lat="46.53088" lon="0.32156">
        <ele>101.6</ele>
        <time>2020-09-13T06:56:07Z</time>
      </trkpt>
      <trkpt lat="46.53083" lon="0.32152">
        <ele>102.2</ele>
        <time>2020-09-13T06:56:11Z</time>
      </trkpt>
      <trkpt lat="46.53082" lon="0.32151">
        <ele>102.2</ele>
        <time>2020-09-13T06:56:12Z</time>
      </trkpt>
      <trkpt lat="46.53075" lon="0.32145">
        <ele>102.2</ele>
        <time>2020-09-13T06:56:16Z</time>
      </trkpt>
      <trkpt lat="46.53067" lon="0.32136">
        <ele>102.4</ele>
        <time>2020-09-13T06:56:22Z</time>
      </trkpt>
      <trkpt lat="46.53059" lon="0.32123">
        <ele>102.6</ele>
        <time>2020-09-13T06:56:29Z</time>
      </trkpt>
      <trkpt lat="46.53048" lon="0.32112">
        <ele>103.4</ele>
        <time>2020-09-13T06:56:35Z</time>
      </trkpt>
      <trkpt lat="46.53047" lon="0.32111">
        <ele>103.6</ele>
        <time>2020-09-13T06:56:36Z</time>
      </trkpt>
      <trkpt lat="46.53039" lon="0.32103">
        <ele>104</ele>
        <time>2020-09-13T06:56:41Z</time>
      </trkpt>
      <trkpt lat="46.53037" lon="0.32101">
        <ele>104.2</ele>
        <time>2020-09-13T06:56:42Z</time>
      </trkpt>
      <trkpt lat="46.53034" lon="0.32095">
        <ele>104.6</ele>
        <time>2020-09-13T06:56:44Z</time>
      </trkpt>
      <trkpt lat="46.53029" lon="0.32089">
        <ele>105.4</ele>
        <time>2020-09-13T06:56:47Z</time>
      </trkpt>
      <trkpt lat="46.53023" lon="0.3208">
        <ele>105.6</ele>
        <time>2020-09-13T06:56:51Z</time>
      </trkpt>
      <trkpt lat="46.53017" lon="0.32073">
        <ele>106.2</ele>
        <time>2020-09-13T06:56:54Z</time>
      </trkpt>
      <trkpt lat="46.53013" lon="0.32067">
        <ele>106.6</ele>
        <time>2020-09-13T06:56:57Z</time>
      </trkpt>
      <trkpt lat="46.53013" lon="0.32063">
        <ele>106.6</ele>
        <time>2020-09-13T06:56:59Z</time>
      </trkpt>
      <trkpt lat="46.53019" lon="0.32055">
        <ele>105</ele>
        <time>2020-09-13T06:57:05Z</time>
      </trkpt>
      <trkpt lat="46.5302" lon="0.32053">
        <ele>104.2</ele>
        <time>2020-09-13T06:57:06Z</time>
      </trkpt>
      <trkpt lat="46.53021" lon="0.32051">
        <ele>102.4</ele>
        <time>2020-09-13T06:57:08Z</time>
      </trkpt>
      <trkpt lat="46.53022" lon="0.3205">
        <ele>100.8</ele>
        <time>2020-09-13T06:57:10Z</time>
      </trkpt>
      <trkpt lat="46.53023" lon="0.32048">
        <ele>100.2</ele>
        <time>2020-09-13T06:57:11Z</time>
      </trkpt>
      <trkpt lat="46.53023" lon="0.32046">
        <ele>99.6</ele>
        <time>2020-09-13T06:57:12Z</time>
      </trkpt>
      <trkpt lat="46.53024" lon="0.32044">
        <ele>98.4</ele>
        <time>2020-09-13T06:57:14Z</time>
      </trkpt>
      <trkpt lat="46.53025" lon="0.32042">
        <ele>97.8</ele>
        <time>2020-09-13T06:57:15Z</time>
      </trkpt>
      <trkpt lat="46.53025" lon="0.32041">
        <ele>97.2</ele>
        <time>2020-09-13T06:57:16Z</time>
      </trkpt>
      <trkpt lat="46.53025" lon="0.32039">
        <ele>96.6</ele>
        <time>2020-09-13T06:57:17Z</time>
      </trkpt>
      <trkpt lat="46.53026" lon="0.32038">
        <ele>96</ele>
        <time>2020-09-13T06:57:18Z</time>
      </trkpt>
      <trkpt lat="46.53028" lon="0.32034">
        <ele>95.2</ele>
        <time>2020-09-13T06:57:20Z</time>
      </trkpt>
      <trkpt lat="46.53029" lon="0.32032">
        <ele>94.6</ele>
        <time>2020-09-13T06:57:21Z</time>
      </trkpt>
      <trkpt lat="46.53031" lon="0.32026">
        <ele>92.6</ele>
        <time>2020-09-13T06:57:23Z</time>
      </trkpt>
      <trkpt lat="46.53031" lon="0.32024">
        <ele>91.2</ele>
        <time>2020-09-13T06:57:24Z</time>
      </trkpt>
      <trkpt lat="46.53031" lon="0.32022">
        <ele>90.2</ele>
        <time>2020-09-13T06:57:25Z</time>
      </trkpt>
      <trkpt lat="46.53031" lon="0.3202">
        <ele>89.2</ele>
        <time>2020-09-13T06:57:26Z</time>
      </trkpt>
      <trkpt lat="46.53032" lon="0.32018">
        <ele>88.4</ele>
        <time>2020-09-13T06:57:27Z</time>
      </trkpt>
      <trkpt lat="46.53032" lon="0.32016">
        <ele>88</ele>
        <time>2020-09-13T06:57:28Z</time>
      </trkpt>
      <trkpt lat="46.53033" lon="0.32012">
        <ele>87.4</ele>
        <time>2020-09-13T06:57:30Z</time>
      </trkpt>
      <trkpt lat="46.53032" lon="0.32011">
        <ele>87.2</ele>
        <time>2020-09-13T06:57:31Z</time>
      </trkpt>
      <trkpt lat="46.53035" lon="0.32008">
        <ele>87.2</ele>
        <time>2020-09-13T06:57:35Z</time>
      </trkpt>
      <trkpt lat="46.53034" lon="0.31998">
        <ele>87.4</ele>
        <time>2020-09-13T06:57:40Z</time>
      </trkpt>
      <trkpt lat="46.53033" lon="0.31985">
        <ele>88.2</ele>
        <time>2020-09-13T06:57:47Z</time>
      </trkpt>
      <trkpt lat="46.53034" lon="0.31972">
        <ele>88</ele>
        <time>2020-09-13T06:57:52Z</time>
      </trkpt>
      <trkpt lat="46.5304" lon="0.31953">
        <ele>86.4</ele>
        <time>2020-09-13T06:57:59Z</time>
      </trkpt>
      <trkpt lat="46.5304" lon="0.31949">
        <ele>86</ele>
        <time>2020-09-13T06:58:00Z</time>
      </trkpt>
      <trkpt lat="46.53041" lon="0.31941">
        <ele>85.4</ele>
        <time>2020-09-13T06:58:02Z</time>
      </trkpt>
      <trkpt lat="46.53041" lon="0.31937">
        <ele>85.2</ele>
        <time>2020-09-13T06:58:04Z</time>
      </trkpt>
      <trkpt lat="46.53041" lon="0.3193">
        <ele>85.4</ele>
        <time>2020-09-13T06:58:06Z</time>
      </trkpt>
      <trkpt lat="46.53042" lon="0.31921">
        <ele>86</ele>
        <time>2020-09-13T06:58:10Z</time>
      </trkpt>
      <trkpt lat="46.53041" lon="0.31909">
        <ele>86.6</ele>
        <time>2020-09-13T06:58:14Z</time>
      </trkpt>
      <trkpt lat="46.53042" lon="0.31904">
        <ele>86.4</ele>
        <time>2020-09-13T06:58:16Z</time>
      </trkpt>
      <trkpt lat="46.53044" lon="0.319">
        <ele>86.2</ele>
        <time>2020-09-13T06:58:18Z</time>
      </trkpt>
      <trkpt lat="46.53044" lon="0.31893">
        <ele>85</ele>
        <time>2020-09-13T06:58:22Z</time>
      </trkpt>
      <trkpt lat="46.53044" lon="0.31887">
        <ele>84.2</ele>
        <time>2020-09-13T06:58:24Z</time>
      </trkpt>
      <trkpt lat="46.53045" lon="0.31883">
        <ele>83.8</ele>
        <time>2020-09-13T06:58:26Z</time>
      </trkpt>
      <trkpt lat="46.53048" lon="0.31879">
        <ele>82.6</ele>
        <time>2020-09-13T06:58:29Z</time>
      </trkpt>
      <trkpt lat="46.5305" lon="0.31878">
        <ele>81.6</ele>
        <time>2020-09-13T06:58:30Z</time>
      </trkpt>
      <trkpt lat="46.5305" lon="0.31876">
        <ele>81.6</ele>
        <time>2020-09-13T06:58:32Z</time>
      </trkpt>
      <trkpt lat="46.53051" lon="0.31871">
        <ele>80.8</ele>
        <time>2020-09-13T06:58:35Z</time>
      </trkpt>
      <trkpt lat="46.5305" lon="0.31868">
        <ele>80.6</ele>
        <time>2020-09-13T06:58:36Z</time>
      </trkpt>
      <trkpt lat="46.53047" lon="0.3186">
        <ele>81.6</ele>
        <time>2020-09-13T06:58:42Z</time>
      </trkpt>
      <trkpt lat="46.53048" lon="0.31859">
        <ele>82</ele>
        <time>2020-09-13T06:58:44Z</time>
      </trkpt>
      <trkpt lat="46.53052" lon="0.31851">
        <ele>82.6</ele>
        <time>2020-09-13T06:58:51Z</time>
      </trkpt>
      <trkpt lat="46.53052" lon="0.31851">
        <ele>83</ele>
        <time>2020-09-13T06:58:52Z</time>
      </trkpt>
      <trkpt lat="46.53053" lon="0.31847">
        <ele>83.6</ele>
        <time>2020-09-13T06:58:56Z</time>
      </trkpt>
      <trkpt lat="46.53054" lon="0.31845">
        <ele>84</ele>
        <time>2020-09-13T06:58:58Z</time>
      </trkpt>
      <trkpt lat="46.53054" lon="0.31843">
        <ele>84.4</ele>
        <time>2020-09-13T06:59:00Z</time>
      </trkpt>
      <trkpt lat="46.53053" lon="0.31841">
        <ele>84.6</ele>
        <time>2020-09-13T06:59:02Z</time>
      </trkpt>
      <trkpt lat="46.5305" lon="0.31839">
        <ele>85.4</ele>
        <time>2020-09-13T06:59:09Z</time>
      </trkpt>
      <trkpt lat="46.53049" lon="0.31835">
        <ele>85.6</ele>
        <time>2020-09-13T06:59:14Z</time>
      </trkpt>
      <trkpt lat="46.5305" lon="0.31834">
        <ele>85.8</ele>
        <time>2020-09-13T06:59:18Z</time>
      </trkpt>
      <trkpt lat="46.5305" lon="0.31833">
        <ele>85.8</ele>
        <time>2020-09-13T06:59:33Z</time>
      </trkpt>
      <trkpt lat="46.53049" lon="0.31833">
        <ele>85.4</ele>
        <time>2020-09-13T07:00:08Z</time>
      </trkpt>
      <trkpt lat="46.53052" lon="0.31832">
        <ele>85.4</ele>
        <time>2020-09-13T07:00:18Z</time>
      </trkpt>
      <trkpt lat="46.53052" lon="0.31827">
        <ele>85.8</ele>
        <time>2020-09-13T07:00:29Z</time>
      </trkpt>
      <trkpt lat="46.53053" lon="0.31812">
        <ele>86.8</ele>
        <time>2020-09-13T07:00:37Z</time>
      </trkpt>
      <trkpt lat="46.53053" lon="0.3181">
        <ele>87</ele>
        <time>2020-09-13T07:00:38Z</time>
      </trkpt>
      <trkpt lat="46.5305" lon="0.31799">
        <ele>87.8</ele>
        <time>2020-09-13T07:00:43Z</time>
      </trkpt>
      <trkpt lat="46.53045" lon="0.31793">
        <ele>88.2</ele>
        <time>2020-09-13T07:00:45Z</time>
      </trkpt>
      <trkpt lat="46.53044" lon="0.31788">
        <ele>88.8</ele>
        <time>2020-09-13T07:00:47Z</time>
      </trkpt>
      <trkpt lat="46.53044" lon="0.31785">
        <ele>89</ele>
        <time>2020-09-13T07:00:48Z</time>
      </trkpt>
      <trkpt lat="46.53044" lon="0.3178">
        <ele>89.2</ele>
        <time>2020-09-13T07:00:50Z</time>
      </trkpt>
      <trkpt lat="46.53041" lon="0.31768">
        <ele>90.2</ele>
        <time>2020-09-13T07:00:54Z</time>
      </trkpt>
      <trkpt lat="46.53038" lon="0.31762">
        <ele>90.6</ele>
        <time>2020-09-13T07:00:56Z</time>
      </trkpt>
      <trkpt lat="46.53036" lon="0.31757">
        <ele>91.2</ele>
        <time>2020-09-13T07:00:58Z</time>
      </trkpt>
      <trkpt lat="46.53033" lon="0.31749">
        <ele>92.4</ele>
        <time>2020-09-13T07:01:01Z</time>
      </trkpt>
      <trkpt lat="46.53033" lon="0.31746">
        <ele>92.8</ele>
        <time>2020-09-13T07:01:02Z</time>
      </trkpt>
      <trkpt lat="46.53032" lon="0.31741">
        <ele>93.4</ele>
        <time>2020-09-13T07:01:04Z</time>
      </trkpt>
      <trkpt lat="46.53032" lon="0.31731">
        <ele>93.8</ele>
        <time>2020-09-13T07:01:08Z</time>
      </trkpt>
      <trkpt lat="46.53031" lon="0.31726">
        <ele>93.8</ele>
        <time>2020-09-13T07:01:10Z</time>
      </trkpt>
      <trkpt lat="46.5303" lon="0.31717">
        <ele>94.4</ele>
        <time>2020-09-13T07:01:14Z</time>
      </trkpt>
      <trkpt lat="46.53029" lon="0.31715">
        <ele>94.8</ele>
        <time>2020-09-13T07:01:15Z</time>
      </trkpt>
      <trkpt lat="46.53029" lon="0.31713">
        <ele>95.2</ele>
        <time>2020-09-13T07:01:16Z</time>
      </trkpt>
      <trkpt lat="46.53028" lon="0.31711">
        <ele>95.8</ele>
        <time>2020-09-13T07:01:17Z</time>
      </trkpt>
      <trkpt lat="46.53027" lon="0.31708">
        <ele>96.2</ele>
        <time>2020-09-13T07:01:18Z</time>
      </trkpt>
      <trkpt lat="46.53026" lon="0.31704">
        <ele>96.8</ele>
        <time>2020-09-13T07:01:20Z</time>
      </trkpt>
      <trkpt lat="46.53024" lon="0.31698">
        <ele>97.8</ele>
        <time>2020-09-13T07:01:23Z</time>
      </trkpt>
      <trkpt lat="46.53024" lon="0.31696">
        <ele>98</ele>
        <time>2020-09-13T07:01:24Z</time>
      </trkpt>
      <trkpt lat="46.53021" lon="0.31687">
        <ele>99.2</ele>
        <time>2020-09-13T07:01:30Z</time>
      </trkpt>
      <trkpt lat="46.5302" lon="0.31684">
        <ele>99.4</ele>
        <time>2020-09-13T07:01:32Z</time>
      </trkpt>
      <trkpt lat="46.53017" lon="0.31674">
        <ele>100.2</ele>
        <time>2020-09-13T07:01:38Z</time>
      </trkpt>
      <trkpt lat="46.53016" lon="0.3167">
        <ele>100.8</ele>
        <time>2020-09-13T07:01:40Z</time>
      </trkpt>
      <trkpt lat="46.53015" lon="0.31669">
        <ele>101.4</ele>
        <time>2020-09-13T07:01:42Z</time>
      </trkpt>
      <trkpt lat="46.53015" lon="0.31667">
        <ele>101.6</ele>
        <time>2020-09-13T07:01:44Z</time>
      </trkpt>
      <trkpt lat="46.53014" lon="0.31666">
        <ele>102</ele>
        <time>2020-09-13T07:01:45Z</time>
      </trkpt>
      <trkpt lat="46.53013" lon="0.31664">
        <ele>102.4</ele>
        <time>2020-09-13T07:01:47Z</time>
      </trkpt>
      <trkpt lat="46.53012" lon="0.31663">
        <ele>102.6</ele>
        <time>2020-09-13T07:01:49Z</time>
      </trkpt>
      <trkpt lat="46.53011" lon="0.31663">
        <ele>103.2</ele>
        <time>2020-09-13T07:01:51Z</time>
      </trkpt>
      <trkpt lat="46.53011" lon="0.31663">
        <ele>103.4</ele>
        <time>2020-09-13T07:01:52Z</time>
      </trkpt>
      <trkpt lat="46.53009" lon="0.31663">
        <ele>104.2</ele>
        <time>2020-09-13T07:01:55Z</time>
      </trkpt>
      <trkpt lat="46.53009" lon="0.31663">
        <ele>104.6</ele>
        <time>2020-09-13T07:01:57Z</time>
      </trkpt>
      <trkpt lat="46.53008" lon="0.31663">
        <ele>104.8</ele>
        <time>2020-09-13T07:01:58Z</time>
      </trkpt>
      <trkpt lat="46.53005" lon="0.31661">
        <ele>105.8</ele>
        <time>2020-09-13T07:02:03Z</time>
      </trkpt>
      <trkpt lat="46.53004" lon="0.3166">
        <ele>106</ele>
        <time>2020-09-13T07:02:05Z</time>
      </trkpt>
      <trkpt lat="46.53001" lon="0.31654">
        <ele>106.8</ele>
        <time>2020-09-13T07:02:10Z</time>
      </trkpt>
      <trkpt lat="46.53001" lon="0.31647">
        <ele>107</ele>
        <time>2020-09-13T07:02:13Z</time>
      </trkpt>
      <trkpt lat="46.52998" lon="0.31639">
        <ele>107.8</ele>
        <time>2020-09-13T07:02:18Z</time>
      </trkpt>
      <trkpt lat="46.52997" lon="0.31633">
        <ele>108.4</ele>
        <time>2020-09-13T07:02:21Z</time>
      </trkpt>
      <trkpt lat="46.52996" lon="0.31629">
        <ele>109</ele>
        <time>2020-09-13T07:02:23Z</time>
      </trkpt>
      <trkpt lat="46.52994" lon="0.31614">
        <ele>110</ele>
        <time>2020-09-13T07:02:29Z</time>
      </trkpt>
      <trkpt lat="46.52991" lon="0.31581">
        <ele>110.8</ele>
        <time>2020-09-13T07:02:41Z</time>
      </trkpt>
      <trkpt lat="46.52986" lon="0.31561">
        <ele>111.2</ele>
        <time>2020-09-13T07:02:49Z</time>
      </trkpt>
      <trkpt lat="46.52982" lon="0.31544">
        <ele>110.8</ele>
        <time>2020-09-13T07:02:55Z</time>
      </trkpt>
      <trkpt lat="46.52979" lon="0.31528">
        <ele>110.6</ele>
        <time>2020-09-13T07:03:01Z</time>
      </trkpt>
      <trkpt lat="46.52974" lon="0.31511">
        <ele>111.2</ele>
        <time>2020-09-13T07:03:06Z</time>
      </trkpt>
      <trkpt lat="46.52964" lon="0.31485">
        <ele>111.4</ele>
        <time>2020-09-13T07:03:11Z</time>
      </trkpt>
      <trkpt lat="46.52951" lon="0.31468">
        <ele>112.4</ele>
        <time>2020-09-13T07:03:16Z</time>
      </trkpt>
      <trkpt lat="46.5295" lon="0.31465">
        <ele>113</ele>
        <time>2020-09-13T07:03:17Z</time>
      </trkpt>
      <trkpt lat="46.52944" lon="0.31458">
        <ele>113.6</ele>
        <time>2020-09-13T07:03:19Z</time>
      </trkpt>
      <trkpt lat="46.52935" lon="0.31443">
        <ele>114.6</ele>
        <time>2020-09-13T07:03:23Z</time>
      </trkpt>
      <trkpt lat="46.52933" lon="0.3144">
        <ele>114.8</ele>
        <time>2020-09-13T07:03:24Z</time>
      </trkpt>
      <trkpt lat="46.52927" lon="0.3143">
        <ele>115.8</ele>
        <time>2020-09-13T07:03:28Z</time>
      </trkpt>
      <trkpt lat="46.52917" lon="0.31409">
        <ele>116.8</ele>
        <time>2020-09-13T07:03:35Z</time>
      </trkpt>
      <trkpt lat="46.52916" lon="0.31405">
        <ele>116.8</ele>
        <time>2020-09-13T07:03:36Z</time>
      </trkpt>
      <trkpt lat="46.52912" lon="0.31392">
        <ele>116.8</ele>
        <time>2020-09-13T07:03:40Z</time>
      </trkpt>
      <trkpt lat="46.52896" lon="0.31368">
        <ele>117.2</ele>
        <time>2020-09-13T07:03:47Z</time>
      </trkpt>
      <trkpt lat="46.52882" lon="0.31343">
        <ele>117.2</ele>
        <time>2020-09-13T07:03:53Z</time>
      </trkpt>
      <trkpt lat="46.52874" lon="0.31323">
        <ele>117.2</ele>
        <time>2020-09-13T07:03:58Z</time>
      </trkpt>
      <trkpt lat="46.52868" lon="0.31302">
        <ele>115.8</ele>
        <time>2020-09-13T07:04:04Z</time>
      </trkpt>
      <trkpt lat="46.52867" lon="0.313">
        <ele>115.6</ele>
        <time>2020-09-13T07:04:05Z</time>
      </trkpt>
      <trkpt lat="46.52863" lon="0.31286">
        <ele>114.8</ele>
        <time>2020-09-13T07:04:11Z</time>
      </trkpt>
      <trkpt lat="46.52863" lon="0.31284">
        <ele>114.6</ele>
        <time>2020-09-13T07:04:12Z</time>
      </trkpt>
      <trkpt lat="46.52861" lon="0.31281">
        <ele>114.6</ele>
        <time>2020-09-13T07:04:24Z</time>
      </trkpt>
      <trkpt lat="46.52859" lon="0.31274">
        <ele>114.8</ele>
        <time>2020-09-13T07:04:35Z</time>
      </trkpt>
      <trkpt lat="46.52852" lon="0.31263">
        <ele>114</ele>
        <time>2020-09-13T07:04:42Z</time>
      </trkpt>
      <trkpt lat="46.52837" lon="0.31249">
        <ele>114.8</ele>
        <time>2020-09-13T07:04:49Z</time>
      </trkpt>
      <trkpt lat="46.52835" lon="0.31248">
        <ele>115</ele>
        <time>2020-09-13T07:04:50Z</time>
      </trkpt>
      <trkpt lat="46.52833" lon="0.31243">
        <ele>115.4</ele>
        <time>2020-09-13T07:04:53Z</time>
      </trkpt>
      <trkpt lat="46.52832" lon="0.3124">
        <ele>115</ele>
        <time>2020-09-13T07:04:55Z</time>
      </trkpt>
      <trkpt lat="46.5283" lon="0.31232">
        <ele>114.2</ele>
        <time>2020-09-13T07:04:58Z</time>
      </trkpt>
      <trkpt lat="46.52831" lon="0.3123">
        <ele>113.8</ele>
        <time>2020-09-13T07:04:59Z</time>
      </trkpt>
      <trkpt lat="46.52831" lon="0.31225">
        <ele>112.2</ele>
        <time>2020-09-13T07:05:01Z</time>
      </trkpt>
      <trkpt lat="46.52831" lon="0.31224">
        <ele>111.2</ele>
        <time>2020-09-13T07:05:02Z</time>
      </trkpt>
      <trkpt lat="46.5283" lon="0.31221">
        <ele>110.2</ele>
        <time>2020-09-13T07:05:03Z</time>
      </trkpt>
      <trkpt lat="46.52829" lon="0.31218">
        <ele>109.6</ele>
        <time>2020-09-13T07:05:04Z</time>
      </trkpt>
      <trkpt lat="46.52829" lon="0.31217">
        <ele>109</ele>
        <time>2020-09-13T07:05:05Z</time>
      </trkpt>
      <trkpt lat="46.5283" lon="0.31214">
        <ele>107.8</ele>
        <time>2020-09-13T07:05:09Z</time>
      </trkpt>
      <trkpt lat="46.52829" lon="0.3121">
        <ele>106.6</ele>
        <time>2020-09-13T07:05:13Z</time>
      </trkpt>
      <trkpt lat="46.52831" lon="0.31207">
        <ele>106.2</ele>
        <time>2020-09-13T07:05:16Z</time>
      </trkpt>
      <trkpt lat="46.52831" lon="0.31204">
        <ele>105.4</ele>
        <time>2020-09-13T07:05:20Z</time>
      </trkpt>
      <trkpt lat="46.52832" lon="0.31199">
        <ele>104.6</ele>
        <time>2020-09-13T07:05:27Z</time>
      </trkpt>
      <trkpt lat="46.52832" lon="0.31199">
        <ele>104.4</ele>
        <time>2020-09-13T07:05:28Z</time>
      </trkpt>
      <trkpt lat="46.52832" lon="0.31193">
        <ele>103</ele>
        <time>2020-09-13T07:05:35Z</time>
      </trkpt>
      <trkpt lat="46.52831" lon="0.31191">
        <ele>102</ele>
        <time>2020-09-13T07:05:39Z</time>
      </trkpt>
      <trkpt lat="46.52831" lon="0.3119">
        <ele>102</ele>
        <time>2020-09-13T07:05:40Z</time>
      </trkpt>
      <trkpt lat="46.52831" lon="0.31184">
        <ele>100.8</ele>
        <time>2020-09-13T07:05:46Z</time>
      </trkpt>
      <trkpt lat="46.52833" lon="0.31181">
        <ele>99.6</ele>
        <time>2020-09-13T07:05:50Z</time>
      </trkpt>
      <trkpt lat="46.52833" lon="0.3118">
        <ele>99.4</ele>
        <time>2020-09-13T07:05:51Z</time>
      </trkpt>
      <trkpt lat="46.52834" lon="0.31178">
        <ele>98.6</ele>
        <time>2020-09-13T07:05:53Z</time>
      </trkpt>
      <trkpt lat="46.52835" lon="0.31175">
        <ele>97.4</ele>
        <time>2020-09-13T07:05:56Z</time>
      </trkpt>
      <trkpt lat="46.52836" lon="0.31168">
        <ele>96.4</ele>
        <time>2020-09-13T07:06:02Z</time>
      </trkpt>
      <trkpt lat="46.52837" lon="0.31167">
        <ele>96.2</ele>
        <time>2020-09-13T07:06:03Z</time>
      </trkpt>
      <trkpt lat="46.52839" lon="0.31164">
        <ele>94.6</ele>
        <time>2020-09-13T07:06:06Z</time>
      </trkpt>
      <trkpt lat="46.52842" lon="0.31162">
        <ele>92.6</ele>
        <time>2020-09-13T07:06:08Z</time>
      </trkpt>
      <trkpt lat="46.52843" lon="0.31162">
        <ele>91.4</ele>
        <time>2020-09-13T07:06:09Z</time>
      </trkpt>
      <trkpt lat="46.52845" lon="0.31162">
        <ele>90.4</ele>
        <time>2020-09-13T07:06:10Z</time>
      </trkpt>
      <trkpt lat="46.52846" lon="0.31162">
        <ele>88.2</ele>
        <time>2020-09-13T07:06:12Z</time>
      </trkpt>
      <trkpt lat="46.52854" lon="0.31165">
        <ele>87.4</ele>
        <time>2020-09-13T07:06:14Z</time>
      </trkpt>
      <trkpt lat="46.52856" lon="0.31168">
        <ele>86.6</ele>
        <time>2020-09-13T07:06:15Z</time>
      </trkpt>
      <trkpt lat="46.52858" lon="0.31172">
        <ele>86.2</ele>
        <time>2020-09-13T07:06:16Z</time>
      </trkpt>
      <trkpt lat="46.5286" lon="0.31176">
        <ele>86</ele>
        <time>2020-09-13T07:06:17Z</time>
      </trkpt>
      <trkpt lat="46.52863" lon="0.3118">
        <ele>85.6</ele>
        <time>2020-09-13T07:06:18Z</time>
      </trkpt>
      <trkpt lat="46.52872" lon="0.31193">
        <ele>85</ele>
        <time>2020-09-13T07:06:21Z</time>
      </trkpt>
      <trkpt lat="46.52874" lon="0.31197">
        <ele>84.8</ele>
        <time>2020-09-13T07:06:22Z</time>
      </trkpt>
      <trkpt lat="46.52877" lon="0.31201">
        <ele>84.6</ele>
        <time>2020-09-13T07:06:23Z</time>
      </trkpt>
      <trkpt lat="46.52879" lon="0.31204">
        <ele>84.4</ele>
        <time>2020-09-13T07:06:24Z</time>
      </trkpt>
      <trkpt lat="46.52883" lon="0.31213">
        <ele>84.2</ele>
        <time>2020-09-13T07:06:26Z</time>
      </trkpt>
      <trkpt lat="46.52895" lon="0.31231">
        <ele>84.2</ele>
        <time>2020-09-13T07:06:30Z</time>
      </trkpt>
      <trkpt lat="46.52901" lon="0.31243">
        <ele>83.6</ele>
        <time>2020-09-13T07:06:32Z</time>
      </trkpt>
      <trkpt lat="46.52906" lon="0.31248">
        <ele>83.4</ele>
        <time>2020-09-13T07:06:33Z</time>
      </trkpt>
      <trkpt lat="46.52915" lon="0.31252">
        <ele>82.8</ele>
        <time>2020-09-13T07:06:35Z</time>
      </trkpt>
      <trkpt lat="46.5292" lon="0.31252">
        <ele>82.4</ele>
        <time>2020-09-13T07:06:36Z</time>
      </trkpt>
      <trkpt lat="46.52935" lon="0.3125">
        <ele>81.6</ele>
        <time>2020-09-13T07:06:41Z</time>
      </trkpt>
      <trkpt lat="46.52941" lon="0.31247">
        <ele>81.8</ele>
        <time>2020-09-13T07:06:43Z</time>
      </trkpt>
      <trkpt lat="46.52946" lon="0.31245">
        <ele>81.8</ele>
        <time>2020-09-13T07:06:45Z</time>
      </trkpt>
      <trkpt lat="46.52956" lon="0.31243">
        <ele>82</ele>
        <time>2020-09-13T07:06:49Z</time>
      </trkpt>
      <trkpt lat="46.52959" lon="0.31244">
        <ele>82</ele>
        <time>2020-09-13T07:06:50Z</time>
      </trkpt>
      <trkpt lat="46.52965" lon="0.31243">
        <ele>82.4</ele>
        <time>2020-09-13T07:06:52Z</time>
      </trkpt>
      <trkpt lat="46.5297" lon="0.31238">
        <ele>82.4</ele>
        <time>2020-09-13T07:06:54Z</time>
      </trkpt>
      <trkpt lat="46.52983" lon="0.31223">
        <ele>83</ele>
        <time>2020-09-13T07:06:59Z</time>
      </trkpt>
      <trkpt lat="46.52991" lon="0.31213">
        <ele>83.4</ele>
        <time>2020-09-13T07:07:02Z</time>
      </trkpt>
      <trkpt lat="46.52995" lon="0.31208">
        <ele>83.8</ele>
        <time>2020-09-13T07:07:04Z</time>
      </trkpt>
      <trkpt lat="46.53" lon="0.31196">
        <ele>84.6</ele>
        <time>2020-09-13T07:07:07Z</time>
      </trkpt>
      <trkpt lat="46.53002" lon="0.31188">
        <ele>85</ele>
        <time>2020-09-13T07:07:09Z</time>
      </trkpt>
      <trkpt lat="46.53005" lon="0.31176">
        <ele>85.8</ele>
        <time>2020-09-13T07:07:12Z</time>
      </trkpt>
      <trkpt lat="46.53011" lon="0.31164">
        <ele>86.6</ele>
        <time>2020-09-13T07:07:16Z</time>
      </trkpt>
      <trkpt lat="46.53022" lon="0.31149">
        <ele>86.8</ele>
        <time>2020-09-13T07:07:22Z</time>
      </trkpt>
      <trkpt lat="46.53026" lon="0.31143">
        <ele>87</ele>
        <time>2020-09-13T07:07:24Z</time>
      </trkpt>
      <trkpt lat="46.53034" lon="0.31133">
        <ele>87.8</ele>
        <time>2020-09-13T07:07:28Z</time>
      </trkpt>
      <trkpt lat="46.53039" lon="0.31127">
        <ele>88.4</ele>
        <time>2020-09-13T07:07:30Z</time>
      </trkpt>
      <trkpt lat="46.53045" lon="0.31118">
        <ele>89.6</ele>
        <time>2020-09-13T07:07:33Z</time>
      </trkpt>
      <trkpt lat="46.53046" lon="0.31116">
        <ele>89.8</ele>
        <time>2020-09-13T07:07:34Z</time>
      </trkpt>
      <trkpt lat="46.53057" lon="0.31102">
        <ele>90.6</ele>
        <time>2020-09-13T07:07:40Z</time>
      </trkpt>
      <trkpt lat="46.53059" lon="0.311">
        <ele>90.8</ele>
        <time>2020-09-13T07:07:41Z</time>
      </trkpt>
      <trkpt lat="46.53067" lon="0.3109">
        <ele>91.6</ele>
        <time>2020-09-13T07:07:45Z</time>
      </trkpt>
      <trkpt lat="46.53069" lon="0.31087">
        <ele>91.8</ele>
        <time>2020-09-13T07:07:46Z</time>
      </trkpt>
      <trkpt lat="46.53076" lon="0.31079">
        <ele>93</ele>
        <time>2020-09-13T07:07:50Z</time>
      </trkpt>
      <trkpt lat="46.53078" lon="0.31077">
        <ele>93.4</ele>
        <time>2020-09-13T07:07:51Z</time>
      </trkpt>
      <trkpt lat="46.53084" lon="0.31071">
        <ele>93.6</ele>
        <time>2020-09-13T07:07:54Z</time>
      </trkpt>
      <trkpt lat="46.53091" lon="0.31065">
        <ele>93.8</ele>
        <time>2020-09-13T07:07:57Z</time>
      </trkpt>
      <trkpt lat="46.53095" lon="0.31059">
        <ele>94.2</ele>
        <time>2020-09-13T07:07:59Z</time>
      </trkpt>
      <trkpt lat="46.53104" lon="0.31048">
        <ele>95.2</ele>
        <time>2020-09-13T07:08:04Z</time>
      </trkpt>
      <trkpt lat="46.53106" lon="0.31045">
        <ele>95.6</ele>
        <time>2020-09-13T07:08:05Z</time>
      </trkpt>
      <trkpt lat="46.53115" lon="0.31032">
        <ele>96.4</ele>
        <time>2020-09-13T07:08:10Z</time>
      </trkpt>
      <trkpt lat="46.53122" lon="0.31024">
        <ele>97</ele>
        <time>2020-09-13T07:08:13Z</time>
      </trkpt>
      <trkpt lat="46.5313" lon="0.31014">
        <ele>97.4</ele>
        <time>2020-09-13T07:08:17Z</time>
      </trkpt>
      <trkpt lat="46.53137" lon="0.31004">
        <ele>98.4</ele>
        <time>2020-09-13T07:08:21Z</time>
      </trkpt>
      <trkpt lat="46.53138" lon="0.31002">
        <ele>98.6</ele>
        <time>2020-09-13T07:08:22Z</time>
      </trkpt>
      <trkpt lat="46.5315" lon="0.30986">
        <ele>99.4</ele>
        <time>2020-09-13T07:08:28Z</time>
      </trkpt>
      <trkpt lat="46.53156" lon="0.30979">
        <ele>99.8</ele>
        <time>2020-09-13T07:08:31Z</time>
      </trkpt>
      <trkpt lat="46.53163" lon="0.30967">
        <ele>100.4</ele>
        <time>2020-09-13T07:08:36Z</time>
      </trkpt>
      <trkpt lat="46.53167" lon="0.3096">
        <ele>100.8</ele>
        <time>2020-09-13T07:08:39Z</time>
      </trkpt>
      <trkpt lat="46.53175" lon="0.3095">
        <ele>101.8</ele>
        <time>2020-09-13T07:08:43Z</time>
      </trkpt>
      <trkpt lat="46.53176" lon="0.30949">
        <ele>102.2</ele>
        <time>2020-09-13T07:08:44Z</time>
      </trkpt>
      <trkpt lat="46.53178" lon="0.30945">
        <ele>103</ele>
        <time>2020-09-13T07:08:46Z</time>
      </trkpt>
      <trkpt lat="46.53187" lon="0.30937">
        <ele>103.8</ele>
        <time>2020-09-13T07:08:50Z</time>
      </trkpt>
      <trkpt lat="46.53196" lon="0.30929">
        <ele>104</ele>
        <time>2020-09-13T07:08:54Z</time>
      </trkpt>
      <trkpt lat="46.53202" lon="0.30922">
        <ele>104.2</ele>
        <time>2020-09-13T07:08:57Z</time>
      </trkpt>
      <trkpt lat="46.53216" lon="0.3091">
        <ele>104.8</ele>
        <time>2020-09-13T07:09:03Z</time>
      </trkpt>
      <trkpt lat="46.53225" lon="0.30901">
        <ele>105.2</ele>
        <time>2020-09-13T07:09:06Z</time>
      </trkpt>
      <trkpt lat="46.5323" lon="0.30896">
        <ele>105.6</ele>
        <time>2020-09-13T07:09:08Z</time>
      </trkpt>
      <trkpt lat="46.53253" lon="0.30874">
        <ele>105.8</ele>
        <time>2020-09-13T07:09:17Z</time>
      </trkpt>
      <trkpt lat="46.53273" lon="0.30863">
        <ele>106</ele>
        <time>2020-09-13T07:09:24Z</time>
      </trkpt>
      <trkpt lat="46.53282" lon="0.3086">
        <ele>106.2</ele>
        <time>2020-09-13T07:09:27Z</time>
      </trkpt>
      <trkpt lat="46.53296" lon="0.30854">
        <ele>107.4</ele>
        <time>2020-09-13T07:09:31Z</time>
      </trkpt>
      <trkpt lat="46.53311" lon="0.30846">
        <ele>108.2</ele>
        <time>2020-09-13T07:09:37Z</time>
      </trkpt>
      <trkpt lat="46.53319" lon="0.30841">
        <ele>108.4</ele>
        <time>2020-09-13T07:09:40Z</time>
      </trkpt>
      <trkpt lat="46.53324" lon="0.30835">
        <ele>109</ele>
        <time>2020-09-13T07:09:42Z</time>
      </trkpt>
      <trkpt lat="46.53333" lon="0.30826">
        <ele>109.6</ele>
        <time>2020-09-13T07:09:46Z</time>
      </trkpt>
      <trkpt lat="46.53339" lon="0.30822">
        <ele>110</ele>
        <time>2020-09-13T07:09:48Z</time>
      </trkpt>
      <trkpt lat="46.53347" lon="0.30816">
        <ele>110.6</ele>
        <time>2020-09-13T07:09:51Z</time>
      </trkpt>
      <trkpt lat="46.53359" lon="0.3081">
        <ele>111</ele>
        <time>2020-09-13T07:09:55Z</time>
      </trkpt>
      <trkpt lat="46.53376" lon="0.30801">
        <ele>111.6</ele>
        <time>2020-09-13T07:10:01Z</time>
      </trkpt>
      <trkpt lat="46.53382" lon="0.30798">
        <ele>111.8</ele>
        <time>2020-09-13T07:10:03Z</time>
      </trkpt>
      <trkpt lat="46.53395" lon="0.30791">
        <ele>112.8</ele>
        <time>2020-09-13T07:10:08Z</time>
      </trkpt>
      <trkpt lat="46.53397" lon="0.3079">
        <ele>113</ele>
        <time>2020-09-13T07:10:09Z</time>
      </trkpt>
      <trkpt lat="46.53411" lon="0.30783">
        <ele>113.4</ele>
        <time>2020-09-13T07:10:15Z</time>
      </trkpt>
      <trkpt lat="46.53418" lon="0.3078">
        <ele>113.8</ele>
        <time>2020-09-13T07:10:18Z</time>
      </trkpt>
      <trkpt lat="46.53421" lon="0.30779">
        <ele>114.6</ele>
        <time>2020-09-13T07:10:20Z</time>
      </trkpt>
      <trkpt lat="46.53431" lon="0.30775">
        <ele>114.8</ele>
        <time>2020-09-13T07:10:23Z</time>
      </trkpt>
      <trkpt lat="46.5344" lon="0.30773">
        <ele>115.6</ele>
        <time>2020-09-13T07:10:26Z</time>
      </trkpt>
      <trkpt lat="46.53448" lon="0.30771">
        <ele>116</ele>
        <time>2020-09-13T07:10:29Z</time>
      </trkpt>
      <trkpt lat="46.53451" lon="0.30771">
        <ele>116</ele>
        <time>2020-09-13T07:10:30Z</time>
      </trkpt>
      <trkpt lat="46.53456" lon="0.30769">
        <ele>116.4</ele>
        <time>2020-09-13T07:10:32Z</time>
      </trkpt>
      <trkpt lat="46.53464" lon="0.30767">
        <ele>117</ele>
        <time>2020-09-13T07:10:35Z</time>
      </trkpt>
      <trkpt lat="46.53471" lon="0.30766">
        <ele>118.2</ele>
        <time>2020-09-13T07:10:38Z</time>
      </trkpt>
      <trkpt lat="46.53473" lon="0.30766">
        <ele>118.4</ele>
        <time>2020-09-13T07:10:39Z</time>
      </trkpt>
      <trkpt lat="46.53481" lon="0.30764">
        <ele>119.4</ele>
        <time>2020-09-13T07:10:43Z</time>
      </trkpt>
      <trkpt lat="46.5349" lon="0.30762">
        <ele>120.4</ele>
        <time>2020-09-13T07:10:47Z</time>
      </trkpt>
      <trkpt lat="46.53491" lon="0.30762">
        <ele>120.6</ele>
        <time>2020-09-13T07:10:48Z</time>
      </trkpt>
      <trkpt lat="46.53504" lon="0.30758">
        <ele>121.6</ele>
        <time>2020-09-13T07:10:54Z</time>
      </trkpt>
      <trkpt lat="46.53506" lon="0.30758">
        <ele>122</ele>
        <time>2020-09-13T07:10:55Z</time>
      </trkpt>
      <trkpt lat="46.53514" lon="0.30757">
        <ele>123.2</ele>
        <time>2020-09-13T07:10:59Z</time>
      </trkpt>
      <trkpt lat="46.53518" lon="0.30758">
        <ele>123.6</ele>
        <time>2020-09-13T07:11:01Z</time>
      </trkpt>
      <trkpt lat="46.53527" lon="0.30759">
        <ele>124.4</ele>
        <time>2020-09-13T07:11:06Z</time>
      </trkpt>
      <trkpt lat="46.53534" lon="0.30759">
        <ele>125.4</ele>
        <time>2020-09-13T07:11:10Z</time>
      </trkpt>
      <trkpt lat="46.53536" lon="0.30759">
        <ele>125.6</ele>
        <time>2020-09-13T07:11:11Z</time>
      </trkpt>
      <trkpt lat="46.53549" lon="0.30759">
        <ele>126.4</ele>
        <time>2020-09-13T07:11:19Z</time>
      </trkpt>
      <trkpt lat="46.53552" lon="0.30759">
        <ele>126.8</ele>
        <time>2020-09-13T07:11:21Z</time>
      </trkpt>
      <trkpt lat="46.53563" lon="0.30761">
        <ele>127.6</ele>
        <time>2020-09-13T07:11:26Z</time>
      </trkpt>
      <trkpt lat="46.53565" lon="0.30761">
        <ele>127.8</ele>
        <time>2020-09-13T07:11:27Z</time>
      </trkpt>
      <trkpt lat="46.53575" lon="0.30764">
        <ele>128.8</ele>
        <time>2020-09-13T07:11:32Z</time>
      </trkpt>
      <trkpt lat="46.53577" lon="0.30765">
        <ele>129</ele>
        <time>2020-09-13T07:11:33Z</time>
      </trkpt>
      <trkpt lat="46.5359" lon="0.30774">
        <ele>129.8</ele>
        <time>2020-09-13T07:11:40Z</time>
      </trkpt>
      <trkpt lat="46.53592" lon="0.30775">
        <ele>130</ele>
        <time>2020-09-13T07:11:41Z</time>
      </trkpt>
      <trkpt lat="46.53601" lon="0.30785">
        <ele>130.4</ele>
        <time>2020-09-13T07:11:46Z</time>
      </trkpt>
      <trkpt lat="46.53611" lon="0.30799">
        <ele>131</ele>
        <time>2020-09-13T07:11:51Z</time>
      </trkpt>
      <trkpt lat="46.53613" lon="0.30803">
        <ele>131</ele>
        <time>2020-09-13T07:11:52Z</time>
      </trkpt>
      <trkpt lat="46.53626" lon="0.30829">
        <ele>131.8</ele>
        <time>2020-09-13T07:11:59Z</time>
      </trkpt>
      <trkpt lat="46.53632" lon="0.3084">
        <ele>132</ele>
        <time>2020-09-13T07:12:02Z</time>
      </trkpt>
      <trkpt lat="46.53638" lon="0.30852">
        <ele>132.6</ele>
        <time>2020-09-13T07:12:05Z</time>
      </trkpt>
      <trkpt lat="46.53647" lon="0.30877">
        <ele>132.8</ele>
        <time>2020-09-13T07:12:11Z</time>
      </trkpt>
      <trkpt lat="46.53652" lon="0.30897">
        <ele>133.2</ele>
        <time>2020-09-13T07:12:15Z</time>
      </trkpt>
      <trkpt lat="46.53654" lon="0.30903">
        <ele>133.4</ele>
        <time>2020-09-13T07:12:16Z</time>
      </trkpt>
      <trkpt lat="46.53655" lon="0.30909">
        <ele>133.4</ele>
        <time>2020-09-13T07:12:17Z</time>
      </trkpt>
      <trkpt lat="46.53662" lon="0.30932">
        <ele>133.4</ele>
        <time>2020-09-13T07:12:21Z</time>
      </trkpt>
      <trkpt lat="46.53671" lon="0.30974">
        <ele>133.2</ele>
        <time>2020-09-13T07:12:27Z</time>
      </trkpt>
      <trkpt lat="46.5368" lon="0.31002">
        <ele>133.2</ele>
        <time>2020-09-13T07:12:32Z</time>
      </trkpt>
      <trkpt lat="46.53683" lon="0.31008">
        <ele>132.8</ele>
        <time>2020-09-13T07:12:33Z</time>
      </trkpt>
      <trkpt lat="46.53688" lon="0.31017">
        <ele>132.8</ele>
        <time>2020-09-13T07:12:35Z</time>
      </trkpt>
      <trkpt lat="46.53697" lon="0.31032">
        <ele>132.6</ele>
        <time>2020-09-13T07:12:38Z</time>
      </trkpt>
      <trkpt lat="46.537" lon="0.31037">
        <ele>132.6</ele>
        <time>2020-09-13T07:12:39Z</time>
      </trkpt>
      <trkpt lat="46.53719" lon="0.31073">
        <ele>132.8</ele>
        <time>2020-09-13T07:12:45Z</time>
      </trkpt>
      <trkpt lat="46.53728" lon="0.31094">
        <ele>132</ele>
        <time>2020-09-13T07:12:48Z</time>
      </trkpt>
      <trkpt lat="46.53742" lon="0.31122">
        <ele>131.8</ele>
        <time>2020-09-13T07:12:52Z</time>
      </trkpt>
      <trkpt lat="46.53765" lon="0.31165">
        <ele>131.4</ele>
        <time>2020-09-13T07:12:58Z</time>
      </trkpt>
      <trkpt lat="46.53779" lon="0.31192">
        <ele>131</ele>
        <time>2020-09-13T07:13:02Z</time>
      </trkpt>
      <trkpt lat="46.53783" lon="0.31198">
        <ele>131</ele>
        <time>2020-09-13T07:13:03Z</time>
      </trkpt>
      <trkpt lat="46.53788" lon="0.31205">
        <ele>130.6</ele>
        <time>2020-09-13T07:13:04Z</time>
      </trkpt>
      <trkpt lat="46.53798" lon="0.31218">
        <ele>129.4</ele>
        <time>2020-09-13T07:13:06Z</time>
      </trkpt>
      <trkpt lat="46.53815" lon="0.31236">
        <ele>128.2</ele>
        <time>2020-09-13T07:13:09Z</time>
      </trkpt>
      <trkpt lat="46.5382" lon="0.31241">
        <ele>128</ele>
        <time>2020-09-13T07:13:10Z</time>
      </trkpt>
      <trkpt lat="46.53841" lon="0.31255">
        <ele>127.2</ele>
        <time>2020-09-13T07:13:14Z</time>
      </trkpt>
      <trkpt lat="46.53845" lon="0.31258">
        <ele>127</ele>
        <time>2020-09-13T07:13:15Z</time>
      </trkpt>
      <trkpt lat="46.53864" lon="0.31269">
        <ele>126.4</ele>
        <time>2020-09-13T07:13:19Z</time>
      </trkpt>
      <trkpt lat="46.53874" lon="0.31275">
        <ele>126.6</ele>
        <time>2020-09-13T07:13:21Z</time>
      </trkpt>
      <trkpt lat="46.53883" lon="0.31281">
        <ele>126.6</ele>
        <time>2020-09-13T07:13:23Z</time>
      </trkpt>
      <trkpt lat="46.53892" lon="0.31288">
        <ele>126.8</ele>
        <time>2020-09-13T07:13:25Z</time>
      </trkpt>
      <trkpt lat="46.539" lon="0.31295">
        <ele>127</ele>
        <time>2020-09-13T07:13:27Z</time>
      </trkpt>
      <trkpt lat="46.53924" lon="0.31312">
        <ele>127.8</ele>
        <time>2020-09-13T07:13:33Z</time>
      </trkpt>
      <trkpt lat="46.53928" lon="0.31315">
        <ele>128</ele>
        <time>2020-09-13T07:13:34Z</time>
      </trkpt>
      <trkpt lat="46.53932" lon="0.31318">
        <ele>128.2</ele>
        <time>2020-09-13T07:13:35Z</time>
      </trkpt>
      <trkpt lat="46.53943" lon="0.31324">
        <ele>128.8</ele>
        <time>2020-09-13T07:13:38Z</time>
      </trkpt>
      <trkpt lat="46.53953" lon="0.31329">
        <ele>129</ele>
        <time>2020-09-13T07:13:40Z</time>
      </trkpt>
      <trkpt lat="46.53961" lon="0.31335">
        <ele>129.4</ele>
        <time>2020-09-13T07:13:42Z</time>
      </trkpt>
      <trkpt lat="46.53976" lon="0.31348">
        <ele>130.6</ele>
        <time>2020-09-13T07:13:46Z</time>
      </trkpt>
      <trkpt lat="46.53999" lon="0.31363">
        <ele>131</ele>
        <time>2020-09-13T07:13:51Z</time>
      </trkpt>
      <trkpt lat="46.54015" lon="0.31371">
        <ele>131.4</ele>
        <time>2020-09-13T07:13:54Z</time>
      </trkpt>
      <trkpt lat="46.54024" lon="0.31374">
        <ele>131.6</ele>
        <time>2020-09-13T07:13:56Z</time>
      </trkpt>
      <trkpt lat="46.54029" lon="0.31375">
        <ele>131.8</ele>
        <time>2020-09-13T07:13:57Z</time>
      </trkpt>
      <trkpt lat="46.54064" lon="0.3138">
        <ele>132.8</ele>
        <time>2020-09-13T07:14:04Z</time>
      </trkpt>
      <trkpt lat="46.541" lon="0.31386">
        <ele>132.6</ele>
        <time>2020-09-13T07:14:11Z</time>
      </trkpt>
      <trkpt lat="46.54114" lon="0.31389">
        <ele>132.4</ele>
        <time>2020-09-13T07:14:14Z</time>
      </trkpt>
      <trkpt lat="46.54125" lon="0.31393">
        <ele>132.6</ele>
        <time>2020-09-13T07:14:16Z</time>
      </trkpt>
      <trkpt lat="46.54159" lon="0.31402">
        <ele>132.6</ele>
        <time>2020-09-13T07:14:23Z</time>
      </trkpt>
      <trkpt lat="46.54187" lon="0.31409">
        <ele>132.8</ele>
        <time>2020-09-13T07:14:28Z</time>
      </trkpt>
      <trkpt lat="46.54193" lon="0.3141">
        <ele>132.8</ele>
        <time>2020-09-13T07:14:29Z</time>
      </trkpt>
      <trkpt lat="46.54216" lon="0.3141">
        <ele>133.4</ele>
        <time>2020-09-13T07:14:33Z</time>
      </trkpt>
      <trkpt lat="46.54234" lon="0.31408">
        <ele>133.6</ele>
        <time>2020-09-13T07:14:36Z</time>
      </trkpt>
      <trkpt lat="46.54256" lon="0.31403">
        <ele>133.8</ele>
        <time>2020-09-13T07:14:40Z</time>
      </trkpt>
      <trkpt lat="46.54273" lon="0.314">
        <ele>133.6</ele>
        <time>2020-09-13T07:14:43Z</time>
      </trkpt>
      <trkpt lat="46.54309" lon="0.31387">
        <ele>133.6</ele>
        <time>2020-09-13T07:14:50Z</time>
      </trkpt>
      <trkpt lat="46.54349" lon="0.31377">
        <ele>133.4</ele>
        <time>2020-09-13T07:14:57Z</time>
      </trkpt>
      <trkpt lat="46.54379" lon="0.31373">
        <ele>133.6</ele>
        <time>2020-09-13T07:15:02Z</time>
      </trkpt>
      <trkpt lat="46.54416" lon="0.31369">
        <ele>133</ele>
        <time>2020-09-13T07:15:07Z</time>
      </trkpt>
      <trkpt lat="46.54424" lon="0.31368">
        <ele>132.6</ele>
        <time>2020-09-13T07:15:08Z</time>
      </trkpt>
      <trkpt lat="46.54465" lon="0.31361">
        <ele>131.8</ele>
        <time>2020-09-13T07:15:14Z</time>
      </trkpt>
      <trkpt lat="46.54491" lon="0.3136">
        <ele>131.8</ele>
        <time>2020-09-13T07:15:18Z</time>
      </trkpt>
      <trkpt lat="46.54506" lon="0.31361">
        <ele>132.2</ele>
        <time>2020-09-13T07:15:21Z</time>
      </trkpt>
      <trkpt lat="46.54536" lon="0.31363">
        <ele>132.6</ele>
        <time>2020-09-13T07:15:27Z</time>
      </trkpt>
      <trkpt lat="46.54567" lon="0.31365">
        <ele>133</ele>
        <time>2020-09-13T07:15:33Z</time>
      </trkpt>
      <trkpt lat="46.54597" lon="0.31364">
        <ele>132.8</ele>
        <time>2020-09-13T07:15:39Z</time>
      </trkpt>
      <trkpt lat="46.54612" lon="0.31358">
        <ele>133</ele>
        <time>2020-09-13T07:15:42Z</time>
      </trkpt>
      <trkpt lat="46.54621" lon="0.31353">
        <ele>133.2</ele>
        <time>2020-09-13T07:15:44Z</time>
      </trkpt>
      <trkpt lat="46.54627" lon="0.31349">
        <ele>133.4</ele>
        <time>2020-09-13T07:15:45Z</time>
      </trkpt>
      <trkpt lat="46.54635" lon="0.31346">
        <ele>133.4</ele>
        <time>2020-09-13T07:15:46Z</time>
      </trkpt>
      <trkpt lat="46.54663" lon="0.31337">
        <ele>133</ele>
        <time>2020-09-13T07:15:50Z</time>
      </trkpt>
      <trkpt lat="46.54691" lon="0.31332">
        <ele>132.2</ele>
        <time>2020-09-13T07:15:55Z</time>
      </trkpt>
      <trkpt lat="46.54694" lon="0.31331">
        <ele>131.4</ele>
        <time>2020-09-13T07:15:56Z</time>
      </trkpt>
      <trkpt lat="46.54699" lon="0.31332">
        <ele>131.2</ele>
        <time>2020-09-13T07:15:59Z</time>
      </trkpt>
      <trkpt lat="46.54701" lon="0.31332">
        <ele>131.2</ele>
        <time>2020-09-13T07:16:00Z</time>
      </trkpt>
      <trkpt lat="46.54705" lon="0.31327">
        <ele>131</ele>
        <time>2020-09-13T07:16:03Z</time>
      </trkpt>
      <trkpt lat="46.54704" lon="0.31322">
        <ele>130.6</ele>
        <time>2020-09-13T07:16:06Z</time>
      </trkpt>
      <trkpt lat="46.54702" lon="0.31323">
        <ele>130.6</ele>
        <time>2020-09-13T07:16:07Z</time>
      </trkpt>
      <trkpt lat="46.54692" lon="0.31328">
        <ele>130.4</ele>
        <time>2020-09-13T07:16:11Z</time>
      </trkpt>
      <trkpt lat="46.54674" lon="0.31331">
        <ele>130.8</ele>
        <time>2020-09-13T07:16:15Z</time>
      </trkpt>
      <trkpt lat="46.54658" lon="0.31336">
        <ele>131.4</ele>
        <time>2020-09-13T07:16:18Z</time>
      </trkpt>
      <trkpt lat="46.54642" lon="0.31345">
        <ele>131.8</ele>
        <time>2020-09-13T07:16:21Z</time>
      </trkpt>
      <trkpt lat="46.54625" lon="0.31354">
        <ele>132.4</ele>
        <time>2020-09-13T07:16:25Z</time>
      </trkpt>
      <trkpt lat="46.54614" lon="0.31358">
        <ele>132.8</ele>
        <time>2020-09-13T07:16:27Z</time>
      </trkpt>
      <trkpt lat="46.5461" lon="0.31358">
        <ele>132.8</ele>
        <time>2020-09-13T07:16:28Z</time>
      </trkpt>
      <trkpt lat="46.5459" lon="0.31357">
        <ele>132.8</ele>
        <time>2020-09-13T07:16:32Z</time>
      </trkpt>
      <trkpt lat="46.54573" lon="0.31357">
        <ele>133</ele>
        <time>2020-09-13T07:16:35Z</time>
      </trkpt>
      <trkpt lat="46.54555" lon="0.31353">
        <ele>133.4</ele>
        <time>2020-09-13T07:16:38Z</time>
      </trkpt>
      <trkpt lat="46.54523" lon="0.31351">
        <ele>132.8</ele>
        <time>2020-09-13T07:16:43Z</time>
      </trkpt>
      <trkpt lat="46.54509" lon="0.31351">
        <ele>132.8</ele>
        <time>2020-09-13T07:16:45Z</time>
      </trkpt>
      <trkpt lat="46.54488" lon="0.31351">
        <ele>132.8</ele>
        <time>2020-09-13T07:16:48Z</time>
      </trkpt>
      <trkpt lat="46.54442" lon="0.31355">
        <ele>132.2</ele>
        <time>2020-09-13T07:16:55Z</time>
      </trkpt>
      <trkpt lat="46.54409" lon="0.31359">
        <ele>131.8</ele>
        <time>2020-09-13T07:17:01Z</time>
      </trkpt>
      <trkpt lat="46.54407" lon="0.31363">
        <ele>131.4</ele>
        <time>2020-09-13T07:17:03Z</time>
      </trkpt>
      <trkpt lat="46.54408" lon="0.31366">
        <ele>131.2</ele>
        <time>2020-09-13T07:17:04Z</time>
      </trkpt>
      <trkpt lat="46.54414" lon="0.3138">
        <ele>131.2</ele>
        <time>2020-09-13T07:17:07Z</time>
      </trkpt>
      <trkpt lat="46.54418" lon="0.31391">
        <ele>131.2</ele>
        <time>2020-09-13T07:17:09Z</time>
      </trkpt>
      <trkpt lat="46.54419" lon="0.31397">
        <ele>131.2</ele>
        <time>2020-09-13T07:17:10Z</time>
      </trkpt>
      <trkpt lat="46.54415" lon="0.31408">
        <ele>131</ele>
        <time>2020-09-13T07:17:12Z</time>
      </trkpt>
      <trkpt lat="46.5441" lon="0.3142">
        <ele>131</ele>
        <time>2020-09-13T07:17:14Z</time>
      </trkpt>
      <trkpt lat="46.54405" lon="0.31436">
        <ele>131.2</ele>
        <time>2020-09-13T07:17:16Z</time>
      </trkpt>
      <trkpt lat="46.54403" lon="0.31445">
        <ele>131.2</ele>
        <time>2020-09-13T07:17:17Z</time>
      </trkpt>
      <trkpt lat="46.54398" lon="0.31507">
        <ele>131.8</ele>
        <time>2020-09-13T07:17:24Z</time>
      </trkpt>
      <trkpt lat="46.54403" lon="0.31563">
        <ele>131.6</ele>
        <time>2020-09-13T07:17:30Z</time>
      </trkpt>
      <trkpt lat="46.54416" lon="0.31619">
        <ele>131</ele>
        <time>2020-09-13T07:17:36Z</time>
      </trkpt>
      <trkpt lat="46.54426" lon="0.31644">
        <ele>130.4</ele>
        <time>2020-09-13T07:17:39Z</time>
      </trkpt>
      <trkpt lat="46.5443" lon="0.31651">
        <ele>130.2</ele>
        <time>2020-09-13T07:17:40Z</time>
      </trkpt>
      <trkpt lat="46.54434" lon="0.31658">
        <ele>130</ele>
        <time>2020-09-13T07:17:41Z</time>
      </trkpt>
      <trkpt lat="46.54439" lon="0.31664">
        <ele>129.6</ele>
        <time>2020-09-13T07:17:42Z</time>
      </trkpt>
      <trkpt lat="46.5445" lon="0.31676">
        <ele>129</ele>
        <time>2020-09-13T07:17:44Z</time>
      </trkpt>
      <trkpt lat="46.5446" lon="0.31688">
        <ele>128.6</ele>
        <time>2020-09-13T07:17:46Z</time>
      </trkpt>
      <trkpt lat="46.54463" lon="0.31697">
        <ele>128.4</ele>
        <time>2020-09-13T07:17:47Z</time>
      </trkpt>
      <trkpt lat="46.54467" lon="0.31717">
        <ele>128.2</ele>
        <time>2020-09-13T07:17:49Z</time>
      </trkpt>
      <trkpt lat="46.54473" lon="0.31735">
        <ele>128.2</ele>
        <time>2020-09-13T07:17:51Z</time>
      </trkpt>
      <trkpt lat="46.54477" lon="0.31743">
        <ele>128.2</ele>
        <time>2020-09-13T07:17:52Z</time>
      </trkpt>
      <trkpt lat="46.54494" lon="0.31772">
        <ele>128</ele>
        <time>2020-09-13T07:17:56Z</time>
      </trkpt>
      <trkpt lat="46.54496" lon="0.31781">
        <ele>127.8</ele>
        <time>2020-09-13T07:17:57Z</time>
      </trkpt>
      <trkpt lat="46.54497" lon="0.3179">
        <ele>127.8</ele>
        <time>2020-09-13T07:17:58Z</time>
      </trkpt>
      <trkpt lat="46.54501" lon="0.31862">
        <ele>127.2</ele>
        <time>2020-09-13T07:18:05Z</time>
      </trkpt>
      <trkpt lat="46.54504" lon="0.31902">
        <ele>126.8</ele>
        <time>2020-09-13T07:18:09Z</time>
      </trkpt>
      <trkpt lat="46.54507" lon="0.31938">
        <ele>126.4</ele>
        <time>2020-09-13T07:18:13Z</time>
      </trkpt>
      <trkpt lat="46.54513" lon="0.31965">
        <ele>126.2</ele>
        <time>2020-09-13T07:18:16Z</time>
      </trkpt>
      <trkpt lat="46.5452" lon="0.3198">
        <ele>126</ele>
        <time>2020-09-13T07:18:18Z</time>
      </trkpt>
      <trkpt lat="46.54529" lon="0.31994">
        <ele>126</ele>
        <time>2020-09-13T07:18:20Z</time>
      </trkpt>
      <trkpt lat="46.54539" lon="0.32004">
        <ele>126</ele>
        <time>2020-09-13T07:18:22Z</time>
      </trkpt>
      <trkpt lat="46.54551" lon="0.32011">
        <ele>125.8</ele>
        <time>2020-09-13T07:18:24Z</time>
      </trkpt>
      <trkpt lat="46.54563" lon="0.32015">
        <ele>125.8</ele>
        <time>2020-09-13T07:18:26Z</time>
      </trkpt>
      <trkpt lat="46.54577" lon="0.32016">
        <ele>125.8</ele>
        <time>2020-09-13T07:18:28Z</time>
      </trkpt>
      <trkpt lat="46.5459" lon="0.32013">
        <ele>125.8</ele>
        <time>2020-09-13T07:18:30Z</time>
      </trkpt>
      <trkpt lat="46.54623" lon="0.32005">
        <ele>126.2</ele>
        <time>2020-09-13T07:18:35Z</time>
      </trkpt>
      <trkpt lat="46.54661" lon="0.32003">
        <ele>126.2</ele>
        <time>2020-09-13T07:18:41Z</time>
      </trkpt>
      <trkpt lat="46.5468" lon="0.32007">
        <ele>125.8</ele>
        <time>2020-09-13T07:18:44Z</time>
      </trkpt>
      <trkpt lat="46.54699" lon="0.32015">
        <ele>124.8</ele>
        <time>2020-09-13T07:18:47Z</time>
      </trkpt>
      <trkpt lat="46.54705" lon="0.32019">
        <ele>123.6</ele>
        <time>2020-09-13T07:18:48Z</time>
      </trkpt>
      <trkpt lat="46.54715" lon="0.32029">
        <ele>123.6</ele>
        <time>2020-09-13T07:18:50Z</time>
      </trkpt>
      <trkpt lat="46.54719" lon="0.32034">
        <ele>123.4</ele>
        <time>2020-09-13T07:18:51Z</time>
      </trkpt>
      <trkpt lat="46.5473" lon="0.32051">
        <ele>122.6</ele>
        <time>2020-09-13T07:18:54Z</time>
      </trkpt>
      <trkpt lat="46.54736" lon="0.32063">
        <ele>122.2</ele>
        <time>2020-09-13T07:18:56Z</time>
      </trkpt>
      <trkpt lat="46.5474" lon="0.32068">
        <ele>122</ele>
        <time>2020-09-13T07:18:57Z</time>
      </trkpt>
      <trkpt lat="46.54751" lon="0.3208">
        <ele>121.8</ele>
        <time>2020-09-13T07:19:00Z</time>
      </trkpt>
      <trkpt lat="46.54755" lon="0.32083">
        <ele>121.8</ele>
        <time>2020-09-13T07:19:01Z</time>
      </trkpt>
      <trkpt lat="46.54758" lon="0.32086">
        <ele>121.8</ele>
        <time>2020-09-13T07:19:02Z</time>
      </trkpt>
      <trkpt lat="46.54761" lon="0.32088">
        <ele>121.6</ele>
        <time>2020-09-13T07:19:03Z</time>
      </trkpt>
      <trkpt lat="46.54768" lon="0.32089">
        <ele>121.6</ele>
        <time>2020-09-13T07:19:05Z</time>
      </trkpt>
      <trkpt lat="46.54771" lon="0.32089">
        <ele>121.6</ele>
        <time>2020-09-13T07:19:06Z</time>
      </trkpt>
      <trkpt lat="46.54784" lon="0.32094">
        <ele>121.6</ele>
        <time>2020-09-13T07:19:10Z</time>
      </trkpt>
      <trkpt lat="46.54792" lon="0.32094">
        <ele>121.8</ele>
        <time>2020-09-13T07:19:12Z</time>
      </trkpt>
      <trkpt lat="46.548" lon="0.32094">
        <ele>122</ele>
        <time>2020-09-13T07:19:14Z</time>
      </trkpt>
      <trkpt lat="46.54804" lon="0.32094">
        <ele>122.2</ele>
        <time>2020-09-13T07:19:15Z</time>
      </trkpt>
      <trkpt lat="46.54818" lon="0.32096">
        <ele>122</ele>
        <time>2020-09-13T07:19:18Z</time>
      </trkpt>
      <trkpt lat="46.54827" lon="0.32093">
        <ele>122</ele>
        <time>2020-09-13T07:19:20Z</time>
      </trkpt>
      <trkpt lat="46.54854" lon="0.32077">
        <ele>122.4</ele>
        <time>2020-09-13T07:19:26Z</time>
      </trkpt>
      <trkpt lat="46.54864" lon="0.32071">
        <ele>122.6</ele>
        <time>2020-09-13T07:19:28Z</time>
      </trkpt>
      <trkpt lat="46.54868" lon="0.32069">
        <ele>122.6</ele>
        <time>2020-09-13T07:19:29Z</time>
      </trkpt>
      <trkpt lat="46.54876" lon="0.32068">
        <ele>122.8</ele>
        <time>2020-09-13T07:19:31Z</time>
      </trkpt>
      <trkpt lat="46.54883" lon="0.32075">
        <ele>122.8</ele>
        <time>2020-09-13T07:19:33Z</time>
      </trkpt>
      <trkpt lat="46.54885" lon="0.32079">
        <ele>122.8</ele>
        <time>2020-09-13T07:19:34Z</time>
      </trkpt>
      <trkpt lat="46.54887" lon="0.32085">
        <ele>122.8</ele>
        <time>2020-09-13T07:19:35Z</time>
      </trkpt>
      <trkpt lat="46.54895" lon="0.32106">
        <ele>123</ele>
        <time>2020-09-13T07:19:38Z</time>
      </trkpt>
      <trkpt lat="46.549" lon="0.32121">
        <ele>123.2</ele>
        <time>2020-09-13T07:19:40Z</time>
      </trkpt>
      <trkpt lat="46.54901" lon="0.32135">
        <ele>123.6</ele>
        <time>2020-09-13T07:19:42Z</time>
      </trkpt>
      <trkpt lat="46.54897" lon="0.32145">
        <ele>124</ele>
        <time>2020-09-13T07:19:44Z</time>
      </trkpt>
      <trkpt lat="46.54893" lon="0.32149">
        <ele>124</ele>
        <time>2020-09-13T07:19:45Z</time>
      </trkpt>
      <trkpt lat="46.5489" lon="0.32152">
        <ele>124.2</ele>
        <time>2020-09-13T07:19:46Z</time>
      </trkpt>
      <trkpt lat="46.54889" lon="0.32162">
        <ele>124.2</ele>
        <time>2020-09-13T07:19:48Z</time>
      </trkpt>
      <trkpt lat="46.54891" lon="0.3217">
        <ele>124.2</ele>
        <time>2020-09-13T07:19:50Z</time>
      </trkpt>
      <trkpt lat="46.54891" lon="0.32173">
        <ele>124</ele>
        <time>2020-09-13T07:19:51Z</time>
      </trkpt>
      <trkpt lat="46.54882" lon="0.3218">
        <ele>124</ele>
        <time>2020-09-13T07:19:55Z</time>
      </trkpt>
      <trkpt lat="46.54862" lon="0.32191">
        <ele>124.4</ele>
        <time>2020-09-13T07:19:59Z</time>
      </trkpt>
      <trkpt lat="46.54829" lon="0.32206">
        <ele>124.2</ele>
        <time>2020-09-13T07:20:04Z</time>
      </trkpt>
      <trkpt lat="46.54775" lon="0.32231">
        <ele>123</ele>
        <time>2020-09-13T07:20:12Z</time>
      </trkpt>
      <trkpt lat="46.54755" lon="0.32245">
        <ele>122.6</ele>
        <time>2020-09-13T07:20:15Z</time>
      </trkpt>
      <trkpt lat="46.54742" lon="0.32256">
        <ele>122.4</ele>
        <time>2020-09-13T07:20:17Z</time>
      </trkpt>
      <trkpt lat="46.54695" lon="0.32305">
        <ele>121.4</ele>
        <time>2020-09-13T07:20:25Z</time>
      </trkpt>
      <trkpt lat="46.5469" lon="0.32311">
        <ele>121.4</ele>
        <time>2020-09-13T07:20:26Z</time>
      </trkpt>
      <trkpt lat="46.54659" lon="0.32345">
        <ele>120.8</ele>
        <time>2020-09-13T07:20:32Z</time>
      </trkpt>
      <trkpt lat="46.54625" lon="0.32374">
        <ele>120.4</ele>
        <time>2020-09-13T07:20:39Z</time>
      </trkpt>
      <trkpt lat="46.5461" lon="0.32383">
        <ele>120.4</ele>
        <time>2020-09-13T07:20:42Z</time>
      </trkpt>
      <trkpt lat="46.54602" lon="0.32392">
        <ele>120.4</ele>
        <time>2020-09-13T07:20:44Z</time>
      </trkpt>
      <trkpt lat="46.54586" lon="0.32411">
        <ele>120.6</ele>
        <time>2020-09-13T07:20:48Z</time>
      </trkpt>
      <trkpt lat="46.54579" lon="0.32422">
        <ele>120.6</ele>
        <time>2020-09-13T07:20:50Z</time>
      </trkpt>
      <trkpt lat="46.54569" lon="0.32438">
        <ele>120.6</ele>
        <time>2020-09-13T07:20:53Z</time>
      </trkpt>
      <trkpt lat="46.54566" lon="0.3244">
        <ele>120.4</ele>
        <time>2020-09-13T07:20:54Z</time>
      </trkpt>
      <trkpt lat="46.54564" lon="0.32441">
        <ele>120.2</ele>
        <time>2020-09-13T07:20:55Z</time>
      </trkpt>
      <trkpt lat="46.54557" lon="0.32444">
        <ele>119.8</ele>
        <time>2020-09-13T07:20:57Z</time>
      </trkpt>
      <trkpt lat="46.5455" lon="0.32449">
        <ele>119.6</ele>
        <time>2020-09-13T07:20:59Z</time>
      </trkpt>
      <trkpt lat="46.54546" lon="0.3245">
        <ele>119.8</ele>
        <time>2020-09-13T07:21:00Z</time>
      </trkpt>
      <trkpt lat="46.54537" lon="0.32455">
        <ele>120</ele>
        <time>2020-09-13T07:21:03Z</time>
      </trkpt>
      <trkpt lat="46.54533" lon="0.32458">
        <ele>120</ele>
        <time>2020-09-13T07:21:04Z</time>
      </trkpt>
      <trkpt lat="46.5453" lon="0.32462">
        <ele>120.4</ele>
        <time>2020-09-13T07:21:07Z</time>
      </trkpt>
      <trkpt lat="46.54532" lon="0.3247">
        <ele>120.2</ele>
        <time>2020-09-13T07:21:12Z</time>
      </trkpt>
      <trkpt lat="46.54533" lon="0.32472">
        <ele>120.2</ele>
        <time>2020-09-13T07:21:13Z</time>
      </trkpt>
      <trkpt lat="46.54535" lon="0.32486">
        <ele>119.8</ele>
        <time>2020-09-13T07:21:17Z</time>
      </trkpt>
      <trkpt lat="46.54534" lon="0.32488">
        <ele>119.6</ele>
        <time>2020-09-13T07:21:18Z</time>
      </trkpt>
      <trkpt lat="46.54532" lon="0.32493">
        <ele>119</ele>
        <time>2020-09-13T07:21:20Z</time>
      </trkpt>
      <trkpt lat="46.54528" lon="0.32499">
        <ele>118.6</ele>
        <time>2020-09-13T07:21:21Z</time>
      </trkpt>
      <trkpt lat="46.54525" lon="0.32502">
        <ele>118.6</ele>
        <time>2020-09-13T07:21:23Z</time>
      </trkpt>
      <trkpt lat="46.54514" lon="0.32505">
        <ele>118.8</ele>
        <time>2020-09-13T07:21:26Z</time>
      </trkpt>
      <trkpt lat="46.54501" lon="0.32509">
        <ele>119</ele>
        <time>2020-09-13T07:21:29Z</time>
      </trkpt>
      <trkpt lat="46.54493" lon="0.32516">
        <ele>119</ele>
        <time>2020-09-13T07:21:31Z</time>
      </trkpt>
      <trkpt lat="46.54492" lon="0.32523">
        <ele>119</ele>
        <time>2020-09-13T07:21:33Z</time>
      </trkpt>
      <trkpt lat="46.54492" lon="0.32528">
        <ele>119</ele>
        <time>2020-09-13T07:21:34Z</time>
      </trkpt>
      <trkpt lat="46.54493" lon="0.32547">
        <ele>118.2</ele>
        <time>2020-09-13T07:21:37Z</time>
      </trkpt>
      <trkpt lat="46.54495" lon="0.32551">
        <ele>117.8</ele>
        <time>2020-09-13T07:21:38Z</time>
      </trkpt>
      <trkpt lat="46.54496" lon="0.32554">
        <ele>117.8</ele>
        <time>2020-09-13T07:21:39Z</time>
      </trkpt>
      <trkpt lat="46.54498" lon="0.32566">
        <ele>116.8</ele>
        <time>2020-09-13T07:21:41Z</time>
      </trkpt>
      <trkpt lat="46.54499" lon="0.3257">
        <ele>116.6</ele>
        <time>2020-09-13T07:21:42Z</time>
      </trkpt>
      <trkpt lat="46.545" lon="0.32572">
        <ele>116.4</ele>
        <time>2020-09-13T07:21:43Z</time>
      </trkpt>
      <trkpt lat="46.54502" lon="0.3258">
        <ele>115.8</ele>
        <time>2020-09-13T07:21:45Z</time>
      </trkpt>
      <trkpt lat="46.54502" lon="0.32584">
        <ele>115.6</ele>
        <time>2020-09-13T07:21:46Z</time>
      </trkpt>
      <trkpt lat="46.54501" lon="0.32586">
        <ele>115.4</ele>
        <time>2020-09-13T07:21:47Z</time>
      </trkpt>
      <trkpt lat="46.54498" lon="0.32591">
        <ele>114.8</ele>
        <time>2020-09-13T07:21:49Z</time>
      </trkpt>
      <trkpt lat="46.54494" lon="0.32592">
        <ele>114.6</ele>
        <time>2020-09-13T07:21:51Z</time>
      </trkpt>
      <trkpt lat="46.54486" lon="0.32594">
        <ele>114.4</ele>
        <time>2020-09-13T07:21:54Z</time>
      </trkpt>
      <trkpt lat="46.54475" lon="0.32599">
        <ele>114.2</ele>
        <time>2020-09-13T07:21:58Z</time>
      </trkpt>
      <trkpt lat="46.54466" lon="0.32597">
        <ele>113.6</ele>
        <time>2020-09-13T07:22:01Z</time>
      </trkpt>
      <trkpt lat="46.54462" lon="0.32596">
        <ele>113.4</ele>
        <time>2020-09-13T07:22:02Z</time>
      </trkpt>
      <trkpt lat="46.5445" lon="0.32594">
        <ele>113.4</ele>
        <time>2020-09-13T07:22:05Z</time>
      </trkpt>
      <trkpt lat="46.54445" lon="0.32595">
        <ele>113.8</ele>
        <time>2020-09-13T07:22:07Z</time>
      </trkpt>
      <trkpt lat="46.54441" lon="0.32599">
        <ele>113.4</ele>
        <time>2020-09-13T07:22:09Z</time>
      </trkpt>
      <trkpt lat="46.54439" lon="0.32603">
        <ele>112.8</ele>
        <time>2020-09-13T07:22:11Z</time>
      </trkpt>
      <trkpt lat="46.54436" lon="0.32608">
        <ele>112.4</ele>
        <time>2020-09-13T07:22:13Z</time>
      </trkpt>
      <trkpt lat="46.54432" lon="0.32612">
        <ele>111.6</ele>
        <time>2020-09-13T07:22:15Z</time>
      </trkpt>
      <trkpt lat="46.5443" lon="0.32613">
        <ele>111.2</ele>
        <time>2020-09-13T07:22:16Z</time>
      </trkpt>
      <trkpt lat="46.54421" lon="0.32624">
        <ele>110.2</ele>
        <time>2020-09-13T07:22:20Z</time>
      </trkpt>
      <trkpt lat="46.54408" lon="0.32637">
        <ele>109.4</ele>
        <time>2020-09-13T07:22:25Z</time>
      </trkpt>
      <trkpt lat="46.54406" lon="0.32639">
        <ele>109</ele>
        <time>2020-09-13T07:22:26Z</time>
      </trkpt>
      <trkpt lat="46.54405" lon="0.32642">
        <ele>108.8</ele>
        <time>2020-09-13T07:22:27Z</time>
      </trkpt>
      <trkpt lat="46.54405" lon="0.32644">
        <ele>108</ele>
        <time>2020-09-13T07:22:28Z</time>
      </trkpt>
      <trkpt lat="46.54404" lon="0.32648">
        <ele>107.4</ele>
        <time>2020-09-13T07:22:29Z</time>
      </trkpt>
      <trkpt lat="46.54405" lon="0.32651">
        <ele>106.8</ele>
        <time>2020-09-13T07:22:30Z</time>
      </trkpt>
      <trkpt lat="46.54403" lon="0.32659">
        <ele>105.6</ele>
        <time>2020-09-13T07:22:32Z</time>
      </trkpt>
      <trkpt lat="46.54401" lon="0.3266">
        <ele>105</ele>
        <time>2020-09-13T07:22:33Z</time>
      </trkpt>
      <trkpt lat="46.54401" lon="0.32661">
        <ele>104.6</ele>
        <time>2020-09-13T07:22:34Z</time>
      </trkpt>
      <trkpt lat="46.544" lon="0.32662">
        <ele>104.4</ele>
        <time>2020-09-13T07:22:35Z</time>
      </trkpt>
      <trkpt lat="46.54395" lon="0.32669">
        <ele>103.6</ele>
        <time>2020-09-13T07:22:39Z</time>
      </trkpt>
      <trkpt lat="46.54394" lon="0.32669">
        <ele>103.4</ele>
        <time>2020-09-13T07:22:40Z</time>
      </trkpt>
      <trkpt lat="46.5439" lon="0.3267">
        <ele>102.8</ele>
        <time>2020-09-13T07:22:42Z</time>
      </trkpt>
      <trkpt lat="46.54385" lon="0.32669">
        <ele>102.6</ele>
        <time>2020-09-13T07:22:44Z</time>
      </trkpt>
      <trkpt lat="46.54383" lon="0.32667">
        <ele>102.2</ele>
        <time>2020-09-13T07:22:46Z</time>
      </trkpt>
      <trkpt lat="46.54378" lon="0.32663">
        <ele>102</ele>
        <time>2020-09-13T07:22:49Z</time>
      </trkpt>
      <trkpt lat="46.54377" lon="0.32662">
        <ele>102</ele>
        <time>2020-09-13T07:22:50Z</time>
      </trkpt>
      <trkpt lat="46.5437" lon="0.32656">
        <ele>102.4</ele>
        <time>2020-09-13T07:22:53Z</time>
      </trkpt>
      <trkpt lat="46.54368" lon="0.32655">
        <ele>102.6</ele>
        <time>2020-09-13T07:22:54Z</time>
      </trkpt>
      <trkpt lat="46.54362" lon="0.32656">
        <ele>102.8</ele>
        <time>2020-09-13T07:22:56Z</time>
      </trkpt>
      <trkpt lat="46.54359" lon="0.32651">
        <ele>103.2</ele>
        <time>2020-09-13T07:22:59Z</time>
      </trkpt>
      <trkpt lat="46.54356" lon="0.3265">
        <ele>103.8</ele>
        <time>2020-09-13T07:23:01Z</time>
      </trkpt>
      <trkpt lat="46.54355" lon="0.32649">
        <ele>104.4</ele>
        <time>2020-09-13T07:23:02Z</time>
      </trkpt>
      <trkpt lat="46.54354" lon="0.32649">
        <ele>104.8</ele>
        <time>2020-09-13T07:23:03Z</time>
      </trkpt>
      <trkpt lat="46.54351" lon="0.32646">
        <ele>105.4</ele>
        <time>2020-09-13T07:23:06Z</time>
      </trkpt>
      <trkpt lat="46.5435" lon="0.32645">
        <ele>105.6</ele>
        <time>2020-09-13T07:23:07Z</time>
      </trkpt>
      <trkpt lat="46.54349" lon="0.32642">
        <ele>106.4</ele>
        <time>2020-09-13T07:23:10Z</time>
      </trkpt>
      <trkpt lat="46.54349" lon="0.32641">
        <ele>106.6</ele>
        <time>2020-09-13T07:23:11Z</time>
      </trkpt>
      <trkpt lat="46.54348" lon="0.3264">
        <ele>107</ele>
        <time>2020-09-13T07:23:12Z</time>
      </trkpt>
      <trkpt lat="46.54346" lon="0.32639">
        <ele>107.4</ele>
        <time>2020-09-13T07:23:14Z</time>
      </trkpt>
      <trkpt lat="46.54345" lon="0.32639">
        <ele>107.8</ele>
        <time>2020-09-13T07:23:16Z</time>
      </trkpt>
      <trkpt lat="46.54345" lon="0.32639">
        <ele>108</ele>
        <time>2020-09-13T07:23:17Z</time>
      </trkpt>
      <trkpt lat="46.54338" lon="0.32638">
        <ele>109</ele>
        <time>2020-09-13T07:23:25Z</time>
      </trkpt>
      <trkpt lat="46.54335" lon="0.32639">
        <ele>109</ele>
        <time>2020-09-13T07:23:27Z</time>
      </trkpt>
      <trkpt lat="46.54331" lon="0.32636">
        <ele>109.4</ele>
        <time>2020-09-13T07:23:30Z</time>
      </trkpt>
      <trkpt lat="46.5433" lon="0.32633">
        <ele>109.2</ele>
        <time>2020-09-13T07:23:32Z</time>
      </trkpt>
      <trkpt lat="46.54328" lon="0.32629">
        <ele>109.6</ele>
        <time>2020-09-13T07:23:34Z</time>
      </trkpt>
      <trkpt lat="46.54326" lon="0.32628">
        <ele>110.2</ele>
        <time>2020-09-13T07:23:36Z</time>
      </trkpt>
      <trkpt lat="46.5432" lon="0.32626">
        <ele>111.2</ele>
        <time>2020-09-13T07:23:40Z</time>
      </trkpt>
      <trkpt lat="46.54319" lon="0.32626">
        <ele>111.2</ele>
        <time>2020-09-13T07:23:41Z</time>
      </trkpt>
      <trkpt lat="46.54316" lon="0.32628">
        <ele>111.2</ele>
        <time>2020-09-13T07:23:44Z</time>
      </trkpt>
      <trkpt lat="46.54313" lon="0.3263">
        <ele>111</ele>
        <time>2020-09-13T07:23:47Z</time>
      </trkpt>
      <trkpt lat="46.54311" lon="0.32638">
        <ele>109.8</ele>
        <time>2020-09-13T07:23:50Z</time>
      </trkpt>
      <trkpt lat="46.5431" lon="0.3264">
        <ele>109.2</ele>
        <time>2020-09-13T07:23:51Z</time>
      </trkpt>
      <trkpt lat="46.54308" lon="0.32641">
        <ele>108.6</ele>
        <time>2020-09-13T07:23:52Z</time>
      </trkpt>
      <trkpt lat="46.54305" lon="0.32641">
        <ele>107.6</ele>
        <time>2020-09-13T07:23:54Z</time>
      </trkpt>
      <trkpt lat="46.54297" lon="0.32637">
        <ele>107.2</ele>
        <time>2020-09-13T07:23:58Z</time>
      </trkpt>
      <trkpt lat="46.54285" lon="0.32633">
        <ele>108.4</ele>
        <time>2020-09-13T07:24:04Z</time>
      </trkpt>
      <trkpt lat="46.54283" lon="0.32633">
        <ele>108.6</ele>
        <time>2020-09-13T07:24:05Z</time>
      </trkpt>
      <trkpt lat="46.54281" lon="0.32632">
        <ele>109</ele>
        <time>2020-09-13T07:24:06Z</time>
      </trkpt>
      <trkpt lat="46.54277" lon="0.3263">
        <ele>109.4</ele>
        <time>2020-09-13T07:24:08Z</time>
      </trkpt>
      <trkpt lat="46.54276" lon="0.3263">
        <ele>109.4</ele>
        <time>2020-09-13T07:24:09Z</time>
      </trkpt>
      <trkpt lat="46.54267" lon="0.32627">
        <ele>109.8</ele>
        <time>2020-09-13T07:24:13Z</time>
      </trkpt>
      <trkpt lat="46.54263" lon="0.32626">
        <ele>109.8</ele>
        <time>2020-09-13T07:24:15Z</time>
      </trkpt>
      <trkpt lat="46.54262" lon="0.32625">
        <ele>109.8</ele>
        <time>2020-09-13T07:24:16Z</time>
      </trkpt>
      <trkpt lat="46.54258" lon="0.32618">
        <ele>110.4</ele>
        <time>2020-09-13T07:24:20Z</time>
      </trkpt>
      <trkpt lat="46.54254" lon="0.32616">
        <ele>110.4</ele>
        <time>2020-09-13T07:24:21Z</time>
      </trkpt>
      <trkpt lat="46.54249" lon="0.32611">
        <ele>110.8</ele>
        <time>2020-09-13T07:24:23Z</time>
      </trkpt>
      <trkpt lat="46.54247" lon="0.3261">
        <ele>111.2</ele>
        <time>2020-09-13T07:24:24Z</time>
      </trkpt>
      <trkpt lat="46.54241" lon="0.32604">
        <ele>112.2</ele>
        <time>2020-09-13T07:24:28Z</time>
      </trkpt>
      <trkpt lat="46.5424" lon="0.32602">
        <ele>112.6</ele>
        <time>2020-09-13T07:24:29Z</time>
      </trkpt>
      <trkpt lat="46.54237" lon="0.32598">
        <ele>113</ele>
        <time>2020-09-13T07:24:31Z</time>
      </trkpt>
      <trkpt lat="46.54237" lon="0.32595">
        <ele>113.2</ele>
        <time>2020-09-13T07:24:32Z</time>
      </trkpt>
      <trkpt lat="46.54236" lon="0.3259">
        <ele>113.2</ele>
        <time>2020-09-13T07:24:34Z</time>
      </trkpt>
      <trkpt lat="46.54236" lon="0.32588">
        <ele>113.4</ele>
        <time>2020-09-13T07:24:35Z</time>
      </trkpt>
      <trkpt lat="46.54228" lon="0.32583">
        <ele>113.8</ele>
        <time>2020-09-13T07:24:39Z</time>
      </trkpt>
      <trkpt lat="46.54226" lon="0.32584">
        <ele>113.8</ele>
        <time>2020-09-13T07:24:40Z</time>
      </trkpt>
      <trkpt lat="46.54222" lon="0.32587">
        <ele>113.4</ele>
        <time>2020-09-13T07:24:43Z</time>
      </trkpt>
      <trkpt lat="46.54207" lon="0.32591">
        <ele>112</ele>
        <time>2020-09-13T07:24:48Z</time>
      </trkpt>
      <trkpt lat="46.54204" lon="0.32591">
        <ele>111.8</ele>
        <time>2020-09-13T07:24:49Z</time>
      </trkpt>
      <trkpt lat="46.54198" lon="0.32591">
        <ele>111</ele>
        <time>2020-09-13T07:24:51Z</time>
      </trkpt>
      <trkpt lat="46.54189" lon="0.32591">
        <ele>110.2</ele>
        <time>2020-09-13T07:24:53Z</time>
      </trkpt>
      <trkpt lat="46.54185" lon="0.32592">
        <ele>109.8</ele>
        <time>2020-09-13T07:24:54Z</time>
      </trkpt>
      <trkpt lat="46.54179" lon="0.32594">
        <ele>109.6</ele>
        <time>2020-09-13T07:24:55Z</time>
      </trkpt>
      <trkpt lat="46.54167" lon="0.32594">
        <ele>109.2</ele>
        <time>2020-09-13T07:24:57Z</time>
      </trkpt>
      <trkpt lat="46.54162" lon="0.32594">
        <ele>108.4</ele>
        <time>2020-09-13T07:24:58Z</time>
      </trkpt>
      <trkpt lat="46.54153" lon="0.32595">
        <ele>107.4</ele>
        <time>2020-09-13T07:25:00Z</time>
      </trkpt>
      <trkpt lat="46.54144" lon="0.32595">
        <ele>106.6</ele>
        <time>2020-09-13T07:25:02Z</time>
      </trkpt>
      <trkpt lat="46.5414" lon="0.32596">
        <ele>106.2</ele>
        <time>2020-09-13T07:25:03Z</time>
      </trkpt>
      <trkpt lat="46.54138" lon="0.32595">
        <ele>105.8</ele>
        <time>2020-09-13T07:25:04Z</time>
      </trkpt>
      <trkpt lat="46.54136" lon="0.32593">
        <ele>105.4</ele>
        <time>2020-09-13T07:25:05Z</time>
      </trkpt>
      <trkpt lat="46.54135" lon="0.32592">
        <ele>105</ele>
        <time>2020-09-13T07:25:06Z</time>
      </trkpt>
      <trkpt lat="46.54124" lon="0.32583">
        <ele>105</ele>
        <time>2020-09-13T07:25:11Z</time>
      </trkpt>
      <trkpt lat="46.54119" lon="0.32576">
        <ele>106.2</ele>
        <time>2020-09-13T07:25:15Z</time>
      </trkpt>
      <trkpt lat="46.54117" lon="0.32574">
        <ele>106.4</ele>
        <time>2020-09-13T07:25:16Z</time>
      </trkpt>
      <trkpt lat="46.54105" lon="0.32568">
        <ele>107</ele>
        <time>2020-09-13T07:25:21Z</time>
      </trkpt>
      <trkpt lat="46.5409" lon="0.32562">
        <ele>107</ele>
        <time>2020-09-13T07:25:26Z</time>
      </trkpt>
      <trkpt lat="46.54072" lon="0.32554">
        <ele>106.2</ele>
        <time>2020-09-13T07:25:32Z</time>
      </trkpt>
      <trkpt lat="46.54057" lon="0.32552">
        <ele>106.4</ele>
        <time>2020-09-13T07:25:37Z</time>
      </trkpt>
      <trkpt lat="46.54055" lon="0.32552">
        <ele>106.4</ele>
        <time>2020-09-13T07:25:38Z</time>
      </trkpt>
      <trkpt lat="46.54055" lon="0.32553">
        <ele>106.4</ele>
        <time>2020-09-13T07:25:39Z</time>
      </trkpt>
      <trkpt lat="46.54052" lon="0.3256">
        <ele>106.4</ele>
        <time>2020-09-13T07:25:43Z</time>
      </trkpt>
      <trkpt lat="46.54051" lon="0.32569">
        <ele>105</ele>
        <time>2020-09-13T07:25:46Z</time>
      </trkpt>
      <trkpt lat="46.54051" lon="0.32573">
        <ele>104.4</ele>
        <time>2020-09-13T07:25:47Z</time>
      </trkpt>
      <trkpt lat="46.5405" lon="0.32577">
        <ele>103.6</ele>
        <time>2020-09-13T07:25:48Z</time>
      </trkpt>
      <trkpt lat="46.54049" lon="0.32586">
        <ele>102.2</ele>
        <time>2020-09-13T07:25:50Z</time>
      </trkpt>
      <trkpt lat="46.54048" lon="0.32594">
        <ele>100.6</ele>
        <time>2020-09-13T07:25:52Z</time>
      </trkpt>
      <trkpt lat="46.54047" lon="0.32598">
        <ele>99.6</ele>
        <time>2020-09-13T07:25:53Z</time>
      </trkpt>
      <trkpt lat="46.54047" lon="0.32602">
        <ele>98.6</ele>
        <time>2020-09-13T07:25:54Z</time>
      </trkpt>
      <trkpt lat="46.54046" lon="0.32609">
        <ele>97.4</ele>
        <time>2020-09-13T07:25:56Z</time>
      </trkpt>
      <trkpt lat="46.54044" lon="0.32618">
        <ele>96</ele>
        <time>2020-09-13T07:25:58Z</time>
      </trkpt>
      <trkpt lat="46.54043" lon="0.32622">
        <ele>94.6</ele>
        <time>2020-09-13T07:26:00Z</time>
      </trkpt>
      <trkpt lat="46.54043" lon="0.32623">
        <ele>94</ele>
        <time>2020-09-13T07:26:01Z</time>
      </trkpt>
      <trkpt lat="46.54043" lon="0.32625">
        <ele>93.4</ele>
        <time>2020-09-13T07:26:03Z</time>
      </trkpt>
      <trkpt lat="46.54043" lon="0.3263">
        <ele>92.8</ele>
        <time>2020-09-13T07:26:08Z</time>
      </trkpt>
      <trkpt lat="46.54042" lon="0.32633">
        <ele>92.4</ele>
        <time>2020-09-13T07:26:13Z</time>
      </trkpt>
      <trkpt lat="46.54043" lon="0.32637">
        <ele>91.2</ele>
        <time>2020-09-13T07:26:19Z</time>
      </trkpt>
      <trkpt lat="46.54042" lon="0.3264">
        <ele>90</ele>
        <time>2020-09-13T07:26:23Z</time>
      </trkpt>
      <trkpt lat="46.54038" lon="0.32646">
        <ele>89.4</ele>
        <time>2020-09-13T07:26:27Z</time>
      </trkpt>
      <trkpt lat="46.54032" lon="0.32655">
        <ele>88.4</ele>
        <time>2020-09-13T07:26:31Z</time>
      </trkpt>
      <trkpt lat="46.5403" lon="0.32657">
        <ele>87.8</ele>
        <time>2020-09-13T07:26:32Z</time>
      </trkpt>
      <trkpt lat="46.54029" lon="0.32659">
        <ele>87</ele>
        <time>2020-09-13T07:26:33Z</time>
      </trkpt>
      <trkpt lat="46.54028" lon="0.32663">
        <ele>85.6</ele>
        <time>2020-09-13T07:26:35Z</time>
      </trkpt>
      <trkpt lat="46.54027" lon="0.32667">
        <ele>84.2</ele>
        <time>2020-09-13T07:26:38Z</time>
      </trkpt>
      <trkpt lat="46.54027" lon="0.3267">
        <ele>83.2</ele>
        <time>2020-09-13T07:26:40Z</time>
      </trkpt>
      <trkpt lat="46.54028" lon="0.32673">
        <ele>81.6</ele>
        <time>2020-09-13T07:26:43Z</time>
      </trkpt>
      <trkpt lat="46.54028" lon="0.32674">
        <ele>81.2</ele>
        <time>2020-09-13T07:26:44Z</time>
      </trkpt>
      <trkpt lat="46.54029" lon="0.32682">
        <ele>80.2</ele>
        <time>2020-09-13T07:26:47Z</time>
      </trkpt>
      <trkpt lat="46.54031" lon="0.32692">
        <ele>78</ele>
        <time>2020-09-13T07:26:49Z</time>
      </trkpt>
      <trkpt lat="46.54031" lon="0.32696">
        <ele>76.6</ele>
        <time>2020-09-13T07:26:50Z</time>
      </trkpt>
      <trkpt lat="46.54032" lon="0.32699">
        <ele>75.4</ele>
        <time>2020-09-13T07:26:51Z</time>
      </trkpt>
      <trkpt lat="46.54034" lon="0.32702">
        <ele>74.2</ele>
        <time>2020-09-13T07:26:52Z</time>
      </trkpt>
      <trkpt lat="46.54035" lon="0.32704">
        <ele>73.2</ele>
        <time>2020-09-13T07:26:53Z</time>
      </trkpt>
      <trkpt lat="46.54039" lon="0.32711">
        <ele>72</ele>
        <time>2020-09-13T07:26:55Z</time>
      </trkpt>
      <trkpt lat="46.54053" lon="0.32718">
        <ele>72</ele>
        <time>2020-09-13T07:27:00Z</time>
      </trkpt>
      <trkpt lat="46.54076" lon="0.32715">
        <ele>72.2</ele>
        <time>2020-09-13T07:27:06Z</time>
      </trkpt>
      <trkpt lat="46.54093" lon="0.32712">
        <ele>72.2</ele>
        <time>2020-09-13T07:27:10Z</time>
      </trkpt>
      <trkpt lat="46.54102" lon="0.3271">
        <ele>72.2</ele>
        <time>2020-09-13T07:27:12Z</time>
      </trkpt>
      <trkpt lat="46.5414" lon="0.32703">
        <ele>72.4</ele>
        <time>2020-09-13T07:27:19Z</time>
      </trkpt>
      <trkpt lat="46.54181" lon="0.32701">
        <ele>72.4</ele>
        <time>2020-09-13T07:27:27Z</time>
      </trkpt>
      <trkpt lat="46.5419" lon="0.32701">
        <ele>72.4</ele>
        <time>2020-09-13T07:27:29Z</time>
      </trkpt>
      <trkpt lat="46.542" lon="0.32701">
        <ele>72.2</ele>
        <time>2020-09-13T07:27:32Z</time>
      </trkpt>
      <trkpt lat="46.54201" lon="0.32703">
        <ele>72.2</ele>
        <time>2020-09-13T07:27:34Z</time>
      </trkpt>
      <trkpt lat="46.54201" lon="0.32707">
        <ele>72</ele>
        <time>2020-09-13T07:27:36Z</time>
      </trkpt>
      <trkpt lat="46.54203" lon="0.32725">
        <ele>72</ele>
        <time>2020-09-13T07:27:40Z</time>
      </trkpt>
      <trkpt lat="46.542" lon="0.32736">
        <ele>72</ele>
        <time>2020-09-13T07:27:42Z</time>
      </trkpt>
      <trkpt lat="46.54194" lon="0.32748">
        <ele>72.2</ele>
        <time>2020-09-13T07:27:44Z</time>
      </trkpt>
      <trkpt lat="46.54188" lon="0.32755">
        <ele>72</ele>
        <time>2020-09-13T07:27:46Z</time>
      </trkpt>
      <trkpt lat="46.54182" lon="0.3276">
        <ele>71.8</ele>
        <time>2020-09-13T07:27:48Z</time>
      </trkpt>
      <trkpt lat="46.54168" lon="0.32768">
        <ele>71.6</ele>
        <time>2020-09-13T07:27:51Z</time>
      </trkpt>
      <trkpt lat="46.54158" lon="0.32772">
        <ele>71.4</ele>
        <time>2020-09-13T07:27:53Z</time>
      </trkpt>
      <trkpt lat="46.54129" lon="0.32789">
        <ele>71.6</ele>
        <time>2020-09-13T07:27:59Z</time>
      </trkpt>
      <trkpt lat="46.54121" lon="0.32794">
        <ele>71.8</ele>
        <time>2020-09-13T07:28:01Z</time>
      </trkpt>
      <trkpt lat="46.5411" lon="0.32804">
        <ele>72</ele>
        <time>2020-09-13T07:28:04Z</time>
      </trkpt>
      <trkpt lat="46.54104" lon="0.3281">
        <ele>72.4</ele>
        <time>2020-09-13T07:28:06Z</time>
      </trkpt>
      <trkpt lat="46.54099" lon="0.32817">
        <ele>73.2</ele>
        <time>2020-09-13T07:28:08Z</time>
      </trkpt>
      <trkpt lat="46.54097" lon="0.32822">
        <ele>73.4</ele>
        <time>2020-09-13T07:28:09Z</time>
      </trkpt>
      <trkpt lat="46.54089" lon="0.32842">
        <ele>74.4</ele>
        <time>2020-09-13T07:28:13Z</time>
      </trkpt>
      <trkpt lat="46.54083" lon="0.32849">
        <ele>74.6</ele>
        <time>2020-09-13T07:28:15Z</time>
      </trkpt>
      <trkpt lat="46.54061" lon="0.32856">
        <ele>74</ele>
        <time>2020-09-13T07:28:20Z</time>
      </trkpt>
      <trkpt lat="46.54056" lon="0.32856">
        <ele>73.2</ele>
        <time>2020-09-13T07:28:22Z</time>
      </trkpt>
      <trkpt lat="46.54051" lon="0.32856">
        <ele>72.8</ele>
        <time>2020-09-13T07:28:24Z</time>
      </trkpt>
      <trkpt lat="46.54041" lon="0.3286">
        <ele>72</ele>
        <time>2020-09-13T07:28:28Z</time>
      </trkpt>
      <trkpt lat="46.54033" lon="0.32863">
        <ele>71.8</ele>
        <time>2020-09-13T07:28:30Z</time>
      </trkpt>
      <trkpt lat="46.54006" lon="0.3288">
        <ele>71.4</ele>
        <time>2020-09-13T07:28:36Z</time>
      </trkpt>
      <trkpt lat="46.53982" lon="0.32902">
        <ele>71.8</ele>
        <time>2020-09-13T07:28:42Z</time>
      </trkpt>
      <trkpt lat="46.53978" lon="0.32906">
        <ele>72</ele>
        <time>2020-09-13T07:28:43Z</time>
      </trkpt>
      <trkpt lat="46.5397" lon="0.32913">
        <ele>72</ele>
        <time>2020-09-13T07:28:45Z</time>
      </trkpt>
      <trkpt lat="46.53955" lon="0.32927">
        <ele>71.6</ele>
        <time>2020-09-13T07:28:49Z</time>
      </trkpt>
      <trkpt lat="46.53952" lon="0.3293">
        <ele>72</ele>
        <time>2020-09-13T07:28:50Z</time>
      </trkpt>
      <trkpt lat="46.53931" lon="0.3296">
        <ele>72.6</ele>
        <time>2020-09-13T07:28:56Z</time>
      </trkpt>
      <trkpt lat="46.5392" lon="0.32977">
        <ele>73</ele>
        <time>2020-09-13T07:28:59Z</time>
      </trkpt>
      <trkpt lat="46.53914" lon="0.32989">
        <ele>72.8</ele>
        <time>2020-09-13T07:29:01Z</time>
      </trkpt>
      <trkpt lat="46.53909" lon="0.33002">
        <ele>73</ele>
        <time>2020-09-13T07:29:03Z</time>
      </trkpt>
      <trkpt lat="46.53907" lon="0.33009">
        <ele>73.2</ele>
        <time>2020-09-13T07:29:04Z</time>
      </trkpt>
      <trkpt lat="46.53902" lon="0.3302">
        <ele>73</ele>
        <time>2020-09-13T07:29:06Z</time>
      </trkpt>
      <trkpt lat="46.539" lon="0.33025">
        <ele>72.8</ele>
        <time>2020-09-13T07:29:07Z</time>
      </trkpt>
      <trkpt lat="46.53887" lon="0.33055">
        <ele>73</ele>
        <time>2020-09-13T07:29:13Z</time>
      </trkpt>
      <trkpt lat="46.5388" lon="0.33079">
        <ele>73.6</ele>
        <time>2020-09-13T07:29:18Z</time>
      </trkpt>
      <trkpt lat="46.53878" lon="0.33091">
        <ele>73.8</ele>
        <time>2020-09-13T07:29:20Z</time>
      </trkpt>
      <trkpt lat="46.53876" lon="0.33104">
        <ele>73.8</ele>
        <time>2020-09-13T07:29:22Z</time>
      </trkpt>
      <trkpt lat="46.53877" lon="0.3311">
        <ele>74</ele>
        <time>2020-09-13T07:29:23Z</time>
      </trkpt>
      <trkpt lat="46.53879" lon="0.33116">
        <ele>73.8</ele>
        <time>2020-09-13T07:29:24Z</time>
      </trkpt>
      <trkpt lat="46.53885" lon="0.33152">
        <ele>73.2</ele>
        <time>2020-09-13T07:29:28Z</time>
      </trkpt>
      <trkpt lat="46.53888" lon="0.33172">
        <ele>72.8</ele>
        <time>2020-09-13T07:29:31Z</time>
      </trkpt>
      <trkpt lat="46.53888" lon="0.33177">
        <ele>72</ele>
        <time>2020-09-13T07:29:34Z</time>
      </trkpt>
      <trkpt lat="46.53889" lon="0.3318">
        <ele>72</ele>
        <time>2020-09-13T07:29:35Z</time>
      </trkpt>
      <trkpt lat="46.53892" lon="0.33185">
        <ele>70.8</ele>
        <time>2020-09-13T07:29:45Z</time>
      </trkpt>
      <trkpt lat="46.53894" lon="0.33188">
        <ele>70.4</ele>
        <time>2020-09-13T07:29:57Z</time>
      </trkpt>
      <trkpt lat="46.539" lon="0.33189">
        <ele>70.2</ele>
        <time>2020-09-13T07:30:11Z</time>
      </trkpt>
      <trkpt lat="46.53908" lon="0.33189">
        <ele>70.2</ele>
        <time>2020-09-13T07:30:22Z</time>
      </trkpt>
      <trkpt lat="46.53914" lon="0.33188">
        <ele>70.4</ele>
        <time>2020-09-13T07:30:35Z</time>
      </trkpt>
      <trkpt lat="46.53917" lon="0.33188">
        <ele>70.2</ele>
        <time>2020-09-13T07:30:51Z</time>
      </trkpt>
      <trkpt lat="46.5392" lon="0.33187">
        <ele>70.2</ele>
        <time>2020-09-13T07:31:04Z</time>
      </trkpt>
      <trkpt lat="46.53921" lon="0.33187">
        <ele>70.2</ele>
        <time>2020-09-13T07:31:19Z</time>
      </trkpt>
      <trkpt lat="46.53924" lon="0.33188">
        <ele>70.4</ele>
        <time>2020-09-13T07:31:29Z</time>
      </trkpt>
      <trkpt lat="46.53929" lon="0.33186">
        <ele>70.6</ele>
        <time>2020-09-13T07:31:39Z</time>
      </trkpt>
      <trkpt lat="46.53932" lon="0.33171">
        <ele>70.8</ele>
        <time>2020-09-13T07:31:45Z</time>
      </trkpt>
      <trkpt lat="46.5393" lon="0.33141">
        <ele>71.6</ele>
        <time>2020-09-13T07:31:52Z</time>
      </trkpt>
      <trkpt lat="46.5393" lon="0.33109">
        <ele>71.6</ele>
        <time>2020-09-13T07:31:59Z</time>
      </trkpt>
      <trkpt lat="46.5393" lon="0.33103">
        <ele>71.6</ele>
        <time>2020-09-13T07:32:00Z</time>
      </trkpt>
      <trkpt lat="46.53934" lon="0.33085">
        <ele>71.6</ele>
        <time>2020-09-13T07:32:02Z</time>
      </trkpt>
      <trkpt lat="46.53938" lon="0.33071">
        <ele>71.6</ele>
        <time>2020-09-13T07:32:04Z</time>
      </trkpt>
      <trkpt lat="46.53946" lon="0.33063">
        <ele>71.6</ele>
        <time>2020-09-13T07:32:06Z</time>
      </trkpt>
      <trkpt lat="46.5395" lon="0.33062">
        <ele>71.6</ele>
        <time>2020-09-13T07:32:07Z</time>
      </trkpt>
      <trkpt lat="46.53954" lon="0.33061">
        <ele>71.6</ele>
        <time>2020-09-13T07:32:08Z</time>
      </trkpt>
      <trkpt lat="46.53961" lon="0.33059">
        <ele>71.6</ele>
        <time>2020-09-13T07:32:10Z</time>
      </trkpt>
      <trkpt lat="46.53968" lon="0.33056">
        <ele>71.4</ele>
        <time>2020-09-13T07:32:12Z</time>
      </trkpt>
      <trkpt lat="46.5398" lon="0.33044">
        <ele>71.4</ele>
        <time>2020-09-13T07:32:18Z</time>
      </trkpt>
      <trkpt lat="46.53996" lon="0.33029">
        <ele>71.6</ele>
        <time>2020-09-13T07:32:21Z</time>
      </trkpt>
      <trkpt lat="46.53999" lon="0.33023">
        <ele>71.6</ele>
        <time>2020-09-13T07:32:23Z</time>
      </trkpt>
      <trkpt lat="46.54006" lon="0.33012">
        <ele>71.8</ele>
        <time>2020-09-13T07:32:25Z</time>
      </trkpt>
      <trkpt lat="46.5402" lon="0.32994">
        <ele>71.8</ele>
        <time>2020-09-13T07:32:27Z</time>
      </trkpt>
      <trkpt lat="46.54024" lon="0.32988">
        <ele>71.8</ele>
        <time>2020-09-13T07:32:28Z</time>
      </trkpt>
      <trkpt lat="46.54053" lon="0.32956">
        <ele>71.8</ele>
        <time>2020-09-13T07:32:34Z</time>
      </trkpt>
      <trkpt lat="46.54053" lon="0.32956">
        <ele>71.8</ele>
        <time>2020-09-13T07:32:35Z</time>
      </trkpt>
      <trkpt lat="46.54071" lon="0.32935">
        <ele>71.8</ele>
        <time>2020-09-13T07:32:38Z</time>
      </trkpt>
      <trkpt lat="46.54075" lon="0.32931">
        <ele>72</ele>
        <time>2020-09-13T07:32:40Z</time>
      </trkpt>
      <trkpt lat="46.54098" lon="0.32909">
        <ele>72.2</ele>
        <time>2020-09-13T07:32:44Z</time>
      </trkpt>
      <trkpt lat="46.54102" lon="0.32903">
        <ele>72</ele>
        <time>2020-09-13T07:32:45Z</time>
      </trkpt>
      <trkpt lat="46.54122" lon="0.3287">
        <ele>71.8</ele>
        <time>2020-09-13T07:32:51Z</time>
      </trkpt>
      <trkpt lat="46.54125" lon="0.32867">
        <ele>71.6</ele>
        <time>2020-09-13T07:32:52Z</time>
      </trkpt>
      <trkpt lat="46.54128" lon="0.32864">
        <ele>71.6</ele>
        <time>2020-09-13T07:32:53Z</time>
      </trkpt>
      <trkpt lat="46.54135" lon="0.3286">
        <ele>71.6</ele>
        <time>2020-09-13T07:32:55Z</time>
      </trkpt>
      <trkpt lat="46.54139" lon="0.3286">
        <ele>71.6</ele>
        <time>2020-09-13T07:32:56Z</time>
      </trkpt>
      <trkpt lat="46.54144" lon="0.32861">
        <ele>71.6</ele>
        <time>2020-09-13T07:32:57Z</time>
      </trkpt>
      <trkpt lat="46.54154" lon="0.32863">
        <ele>71.6</ele>
        <time>2020-09-13T07:32:59Z</time>
      </trkpt>
      <trkpt lat="46.54159" lon="0.32861">
        <ele>71.6</ele>
        <time>2020-09-13T07:33:00Z</time>
      </trkpt>
      <trkpt lat="46.54166" lon="0.32858">
        <ele>71.4</ele>
        <time>2020-09-13T07:33:02Z</time>
      </trkpt>
      <trkpt lat="46.54173" lon="0.32857">
        <ele>71.4</ele>
        <time>2020-09-13T07:33:04Z</time>
      </trkpt>
      <trkpt lat="46.54177" lon="0.32857">
        <ele>71.2</ele>
        <time>2020-09-13T07:33:05Z</time>
      </trkpt>
      <trkpt lat="46.54202" lon="0.3286">
        <ele>71.2</ele>
        <time>2020-09-13T07:33:10Z</time>
      </trkpt>
      <trkpt lat="46.54218" lon="0.32864">
        <ele>71.4</ele>
        <time>2020-09-13T07:33:13Z</time>
      </trkpt>
      <trkpt lat="46.54228" lon="0.32866">
        <ele>71.2</ele>
        <time>2020-09-13T07:33:15Z</time>
      </trkpt>
      <trkpt lat="46.54233" lon="0.32866">
        <ele>71.4</ele>
        <time>2020-09-13T07:33:16Z</time>
      </trkpt>
      <trkpt lat="46.54243" lon="0.32865">
        <ele>71.4</ele>
        <time>2020-09-13T07:33:18Z</time>
      </trkpt>
      <trkpt lat="46.54263" lon="0.32862">
        <ele>71.6</ele>
        <time>2020-09-13T07:33:22Z</time>
      </trkpt>
      <trkpt lat="46.54297" lon="0.32849">
        <ele>71</ele>
        <time>2020-09-13T07:33:28Z</time>
      </trkpt>
      <trkpt lat="46.54307" lon="0.32846">
        <ele>71</ele>
        <time>2020-09-13T07:33:30Z</time>
      </trkpt>
      <trkpt lat="46.54316" lon="0.32849">
        <ele>71</ele>
        <time>2020-09-13T07:33:32Z</time>
      </trkpt>
      <trkpt lat="46.54321" lon="0.32853">
        <ele>70.8</ele>
        <time>2020-09-13T07:33:33Z</time>
      </trkpt>
      <trkpt lat="46.54325" lon="0.32858">
        <ele>70.8</ele>
        <time>2020-09-13T07:33:34Z</time>
      </trkpt>
      <trkpt lat="46.54334" lon="0.32868">
        <ele>71</ele>
        <time>2020-09-13T07:33:36Z</time>
      </trkpt>
      <trkpt lat="46.54348" lon="0.3288">
        <ele>71.4</ele>
        <time>2020-09-13T07:33:39Z</time>
      </trkpt>
      <trkpt lat="46.54356" lon="0.32889">
        <ele>71.4</ele>
        <time>2020-09-13T07:33:41Z</time>
      </trkpt>
      <trkpt lat="46.54363" lon="0.32902">
        <ele>71.2</ele>
        <time>2020-09-13T07:33:43Z</time>
      </trkpt>
      <trkpt lat="46.54369" lon="0.32914">
        <ele>70.8</ele>
        <time>2020-09-13T07:33:45Z</time>
      </trkpt>
      <trkpt lat="46.54386" lon="0.32933">
        <ele>71.4</ele>
        <time>2020-09-13T07:33:49Z</time>
      </trkpt>
      <trkpt lat="46.544" lon="0.32952">
        <ele>71.2</ele>
        <time>2020-09-13T07:33:53Z</time>
      </trkpt>
      <trkpt lat="46.54404" lon="0.32956">
        <ele>71</ele>
        <time>2020-09-13T07:33:54Z</time>
      </trkpt>
      <trkpt lat="46.54407" lon="0.32961">
        <ele>71</ele>
        <time>2020-09-13T07:33:55Z</time>
      </trkpt>
      <trkpt lat="46.54414" lon="0.32972">
        <ele>70.8</ele>
        <time>2020-09-13T07:33:57Z</time>
      </trkpt>
      <trkpt lat="46.54418" lon="0.32978">
        <ele>70.8</ele>
        <time>2020-09-13T07:33:58Z</time>
      </trkpt>
      <trkpt lat="46.54438" lon="0.33008">
        <ele>71.6</ele>
        <time>2020-09-13T07:34:04Z</time>
      </trkpt>
      <trkpt lat="46.54453" lon="0.3303">
        <ele>71.2</ele>
        <time>2020-09-13T07:34:08Z</time>
      </trkpt>
      <trkpt lat="46.54457" lon="0.33035">
        <ele>71.2</ele>
        <time>2020-09-13T07:34:09Z</time>
      </trkpt>
      <trkpt lat="46.5446" lon="0.3304">
        <ele>71.4</ele>
        <time>2020-09-13T07:34:10Z</time>
      </trkpt>
      <trkpt lat="46.54468" lon="0.3305">
        <ele>71.4</ele>
        <time>2020-09-13T07:34:12Z</time>
      </trkpt>
      <trkpt lat="46.54475" lon="0.33063">
        <ele>71.2</ele>
        <time>2020-09-13T07:34:14Z</time>
      </trkpt>
      <trkpt lat="46.54478" lon="0.33069">
        <ele>71.2</ele>
        <time>2020-09-13T07:34:15Z</time>
      </trkpt>
      <trkpt lat="46.54489" lon="0.33083">
        <ele>70.8</ele>
        <time>2020-09-13T07:34:18Z</time>
      </trkpt>
      <trkpt lat="46.54496" lon="0.33101">
        <ele>71</ele>
        <time>2020-09-13T07:34:21Z</time>
      </trkpt>
      <trkpt lat="46.54499" lon="0.33108">
        <ele>70.8</ele>
        <time>2020-09-13T07:34:22Z</time>
      </trkpt>
      <trkpt lat="46.5451" lon="0.33126">
        <ele>70.8</ele>
        <time>2020-09-13T07:34:25Z</time>
      </trkpt>
      <trkpt lat="46.54516" lon="0.33135">
        <ele>70.8</ele>
        <time>2020-09-13T07:34:27Z</time>
      </trkpt>
      <trkpt lat="46.5452" lon="0.33141">
        <ele>70.8</ele>
        <time>2020-09-13T07:34:28Z</time>
      </trkpt>
      <trkpt lat="46.54529" lon="0.33158">
        <ele>71.4</ele>
        <time>2020-09-13T07:34:31Z</time>
      </trkpt>
      <trkpt lat="46.54539" lon="0.33173">
        <ele>71.4</ele>
        <time>2020-09-13T07:34:34Z</time>
      </trkpt>
      <trkpt lat="46.54543" lon="0.33183">
        <ele>71.2</ele>
        <time>2020-09-13T07:34:36Z</time>
      </trkpt>
      <trkpt lat="46.54548" lon="0.33195">
        <ele>71.2</ele>
        <time>2020-09-13T07:34:38Z</time>
      </trkpt>
      <trkpt lat="46.54554" lon="0.33203">
        <ele>71</ele>
        <time>2020-09-13T07:34:40Z</time>
      </trkpt>
      <trkpt lat="46.54561" lon="0.33208">
        <ele>71</ele>
        <time>2020-09-13T07:34:42Z</time>
      </trkpt>
      <trkpt lat="46.54569" lon="0.33217">
        <ele>71</ele>
        <time>2020-09-13T07:34:44Z</time>
      </trkpt>
      <trkpt lat="46.54571" lon="0.33223">
        <ele>71</ele>
        <time>2020-09-13T07:34:45Z</time>
      </trkpt>
      <trkpt lat="46.54576" lon="0.33237">
        <ele>71.2</ele>
        <time>2020-09-13T07:34:47Z</time>
      </trkpt>
      <trkpt lat="46.54581" lon="0.33242">
        <ele>71.2</ele>
        <time>2020-09-13T07:34:48Z</time>
      </trkpt>
      <trkpt lat="46.54588" lon="0.33252">
        <ele>71.2</ele>
        <time>2020-09-13T07:34:50Z</time>
      </trkpt>
      <trkpt lat="46.54595" lon="0.33265">
        <ele>71.4</ele>
        <time>2020-09-13T07:34:52Z</time>
      </trkpt>
      <trkpt lat="46.54598" lon="0.33271">
        <ele>71.4</ele>
        <time>2020-09-13T07:34:53Z</time>
      </trkpt>
      <trkpt lat="46.54607" lon="0.33282">
        <ele>71.4</ele>
        <time>2020-09-13T07:34:56Z</time>
      </trkpt>
      <trkpt lat="46.5461" lon="0.33287">
        <ele>71.4</ele>
        <time>2020-09-13T07:34:57Z</time>
      </trkpt>
      <trkpt lat="46.54612" lon="0.33292">
        <ele>71.2</ele>
        <time>2020-09-13T07:34:58Z</time>
      </trkpt>
      <trkpt lat="46.54617" lon="0.33305">
        <ele>70.6</ele>
        <time>2020-09-13T07:35:01Z</time>
      </trkpt>
      <trkpt lat="46.54617" lon="0.33305">
        <ele>70.6</ele>
        <time>2020-09-13T07:35:02Z</time>
      </trkpt>
      <trkpt lat="46.54626" lon="0.33316">
        <ele>70.8</ele>
        <time>2020-09-13T07:35:06Z</time>
      </trkpt>
      <trkpt lat="46.54631" lon="0.33321">
        <ele>71</ele>
        <time>2020-09-13T07:35:08Z</time>
      </trkpt>
      <trkpt lat="46.54644" lon="0.33328">
        <ele>70.8</ele>
        <time>2020-09-13T07:35:11Z</time>
      </trkpt>
      <trkpt lat="46.54667" lon="0.33338">
        <ele>71</ele>
        <time>2020-09-13T07:35:16Z</time>
      </trkpt>
      <trkpt lat="46.547" lon="0.33358">
        <ele>71.8</ele>
        <time>2020-09-13T07:35:23Z</time>
      </trkpt>
      <trkpt lat="46.54729" lon="0.33381">
        <ele>71.6</ele>
        <time>2020-09-13T07:35:29Z</time>
      </trkpt>
      <trkpt lat="46.54762" lon="0.3341">
        <ele>71.4</ele>
        <time>2020-09-13T07:35:36Z</time>
      </trkpt>
      <trkpt lat="46.5477" lon="0.33413">
        <ele>71</ele>
        <time>2020-09-13T07:35:38Z</time>
      </trkpt>
      <trkpt lat="46.54775" lon="0.33415">
        <ele>70.8</ele>
        <time>2020-09-13T07:35:40Z</time>
      </trkpt>
      <trkpt lat="46.54786" lon="0.33412">
        <ele>70.6</ele>
        <time>2020-09-13T07:35:46Z</time>
      </trkpt>
      <trkpt lat="46.54797" lon="0.33407">
        <ele>70.6</ele>
        <time>2020-09-13T07:35:51Z</time>
      </trkpt>
      <trkpt lat="46.54812" lon="0.3341">
        <ele>70.6</ele>
        <time>2020-09-13T07:35:56Z</time>
      </trkpt>
      <trkpt lat="46.54831" lon="0.33424">
        <ele>70.4</ele>
        <time>2020-09-13T07:36:02Z</time>
      </trkpt>
      <trkpt lat="46.54846" lon="0.33446">
        <ele>70.8</ele>
        <time>2020-09-13T07:36:07Z</time>
      </trkpt>
      <trkpt lat="46.54861" lon="0.33465">
        <ele>71</ele>
        <time>2020-09-13T07:36:11Z</time>
      </trkpt>
      <trkpt lat="46.54868" lon="0.33475">
        <ele>70.8</ele>
        <time>2020-09-13T07:36:13Z</time>
      </trkpt>
      <trkpt lat="46.54894" lon="0.33516">
        <ele>70.4</ele>
        <time>2020-09-13T07:36:21Z</time>
      </trkpt>
      <trkpt lat="46.54915" lon="0.33545">
        <ele>70.8</ele>
        <time>2020-09-13T07:36:27Z</time>
      </trkpt>
      <trkpt lat="46.54919" lon="0.3355">
        <ele>70.8</ele>
        <time>2020-09-13T07:36:28Z</time>
      </trkpt>
      <trkpt lat="46.54932" lon="0.33567">
        <ele>71</ele>
        <time>2020-09-13T07:36:32Z</time>
      </trkpt>
      <trkpt lat="46.54947" lon="0.33582">
        <ele>70.6</ele>
        <time>2020-09-13T07:36:37Z</time>
      </trkpt>
      <trkpt lat="46.54949" lon="0.33585">
        <ele>70.6</ele>
        <time>2020-09-13T07:36:38Z</time>
      </trkpt>
      <trkpt lat="46.54956" lon="0.33592">
        <ele>70.2</ele>
        <time>2020-09-13T07:36:41Z</time>
      </trkpt>
      <trkpt lat="46.54959" lon="0.33599">
        <ele>70.2</ele>
        <time>2020-09-13T07:36:43Z</time>
      </trkpt>
      <trkpt lat="46.5496" lon="0.33602">
        <ele>70.4</ele>
        <time>2020-09-13T07:36:44Z</time>
      </trkpt>
      <trkpt lat="46.54961" lon="0.33611">
        <ele>70.6</ele>
        <time>2020-09-13T07:36:47Z</time>
      </trkpt>
      <trkpt lat="46.54963" lon="0.33615">
        <ele>70.8</ele>
        <time>2020-09-13T07:36:49Z</time>
      </trkpt>
      <trkpt lat="46.54965" lon="0.33618">
        <ele>71.2</ele>
        <time>2020-09-13T07:36:52Z</time>
      </trkpt>
      <trkpt lat="46.54968" lon="0.33616">
        <ele>71</ele>
        <time>2020-09-13T07:36:57Z</time>
      </trkpt>
      <trkpt lat="46.54966" lon="0.33613">
        <ele>71</ele>
        <time>2020-09-13T07:36:59Z</time>
      </trkpt>
      <trkpt lat="46.54967" lon="0.33608">
        <ele>71</ele>
        <time>2020-09-13T07:37:01Z</time>
      </trkpt>
      <trkpt lat="46.54967" lon="0.33606">
        <ele>70.8</ele>
        <time>2020-09-13T07:37:02Z</time>
      </trkpt>
      <trkpt lat="46.54964" lon="0.33601">
        <ele>70.6</ele>
        <time>2020-09-13T07:37:04Z</time>
      </trkpt>
      <trkpt lat="46.54952" lon="0.33593">
        <ele>70.6</ele>
        <time>2020-09-13T07:37:08Z</time>
      </trkpt>
      <trkpt lat="46.54948" lon="0.33589">
        <ele>70.6</ele>
        <time>2020-09-13T07:37:09Z</time>
      </trkpt>
      <trkpt lat="46.54923" lon="0.33558">
        <ele>70.8</ele>
        <time>2020-09-13T07:37:16Z</time>
      </trkpt>
      <trkpt lat="46.54904" lon="0.3353">
        <ele>70.8</ele>
        <time>2020-09-13T07:37:21Z</time>
      </trkpt>
      <trkpt lat="46.54873" lon="0.33485">
        <ele>70.8</ele>
        <time>2020-09-13T07:37:29Z</time>
      </trkpt>
      <trkpt lat="46.54866" lon="0.33474">
        <ele>70.8</ele>
        <time>2020-09-13T07:37:31Z</time>
      </trkpt>
      <trkpt lat="46.54854" lon="0.3345">
        <ele>70.6</ele>
        <time>2020-09-13T07:37:35Z</time>
      </trkpt>
      <trkpt lat="46.54828" lon="0.33411">
        <ele>70.8</ele>
        <time>2020-09-13T07:37:42Z</time>
      </trkpt>
      <trkpt lat="46.54824" lon="0.33407">
        <ele>70.8</ele>
        <time>2020-09-13T07:37:43Z</time>
      </trkpt>
      <trkpt lat="46.54815" lon="0.33405">
        <ele>70.8</ele>
        <time>2020-09-13T07:37:45Z</time>
      </trkpt>
      <trkpt lat="46.54792" lon="0.33415">
        <ele>70.6</ele>
        <time>2020-09-13T07:37:50Z</time>
      </trkpt>
      <trkpt lat="46.54782" lon="0.33416">
        <ele>70.6</ele>
        <time>2020-09-13T07:37:52Z</time>
      </trkpt>
      <trkpt lat="46.54777" lon="0.33414">
        <ele>70.8</ele>
        <time>2020-09-13T07:37:53Z</time>
      </trkpt>
      <trkpt lat="46.54771" lon="0.33411">
        <ele>70.8</ele>
        <time>2020-09-13T07:37:54Z</time>
      </trkpt>
      <trkpt lat="46.54761" lon="0.33405">
        <ele>71</ele>
        <time>2020-09-13T07:37:56Z</time>
      </trkpt>
      <trkpt lat="46.54752" lon="0.334">
        <ele>71.2</ele>
        <time>2020-09-13T07:37:58Z</time>
      </trkpt>
      <trkpt lat="46.54747" lon="0.33397">
        <ele>71.2</ele>
        <time>2020-09-13T07:37:59Z</time>
      </trkpt>
      <trkpt lat="46.54728" lon="0.33381">
        <ele>71.2</ele>
        <time>2020-09-13T07:38:04Z</time>
      </trkpt>
      <trkpt lat="46.54719" lon="0.33373">
        <ele>71</ele>
        <time>2020-09-13T07:38:06Z</time>
      </trkpt>
      <trkpt lat="46.54711" lon="0.33365">
        <ele>71</ele>
        <time>2020-09-13T07:38:08Z</time>
      </trkpt>
      <trkpt lat="46.54705" lon="0.33361">
        <ele>71.2</ele>
        <time>2020-09-13T07:38:09Z</time>
      </trkpt>
      <trkpt lat="46.54671" lon="0.3334">
        <ele>71.2</ele>
        <time>2020-09-13T07:38:15Z</time>
      </trkpt>
      <trkpt lat="46.54646" lon="0.33322">
        <ele>71.2</ele>
        <time>2020-09-13T07:38:20Z</time>
      </trkpt>
      <trkpt lat="46.54641" lon="0.33319">
        <ele>71.2</ele>
        <time>2020-09-13T07:38:22Z</time>
      </trkpt>
      <trkpt lat="46.5464" lon="0.33319">
        <ele>71</ele>
        <time>2020-09-13T07:38:23Z</time>
      </trkpt>
      <trkpt lat="46.54633" lon="0.33313">
        <ele>70.4</ele>
        <time>2020-09-13T07:38:27Z</time>
      </trkpt>
      <trkpt lat="46.54631" lon="0.33309">
        <ele>70.4</ele>
        <time>2020-09-13T07:38:28Z</time>
      </trkpt>
      <trkpt lat="46.54627" lon="0.33302">
        <ele>70.4</ele>
        <time>2020-09-13T07:38:30Z</time>
      </trkpt>
      <trkpt lat="46.54615" lon="0.33284">
        <ele>70.8</ele>
        <time>2020-09-13T07:38:34Z</time>
      </trkpt>
      <trkpt lat="46.54612" lon="0.33278">
        <ele>70.8</ele>
        <time>2020-09-13T07:38:35Z</time>
      </trkpt>
      <trkpt lat="46.54604" lon="0.33268">
        <ele>71</ele>
        <time>2020-09-13T07:38:37Z</time>
      </trkpt>
      <trkpt lat="46.54597" lon="0.33257">
        <ele>71</ele>
        <time>2020-09-13T07:38:39Z</time>
      </trkpt>
      <trkpt lat="46.54592" lon="0.33243">
        <ele>71.2</ele>
        <time>2020-09-13T07:38:41Z</time>
      </trkpt>
      <trkpt lat="46.54584" lon="0.33235">
        <ele>71.2</ele>
        <time>2020-09-13T07:38:43Z</time>
      </trkpt>
      <trkpt lat="46.54574" lon="0.33227">
        <ele>71.2</ele>
        <time>2020-09-13T07:38:45Z</time>
      </trkpt>
      <trkpt lat="46.54566" lon="0.33214">
        <ele>71.4</ele>
        <time>2020-09-13T07:38:47Z</time>
      </trkpt>
      <trkpt lat="46.54561" lon="0.33201">
        <ele>71.4</ele>
        <time>2020-09-13T07:38:49Z</time>
      </trkpt>
      <trkpt lat="46.54554" lon="0.33187">
        <ele>71.6</ele>
        <time>2020-09-13T07:38:51Z</time>
      </trkpt>
      <trkpt lat="46.54539" lon="0.33158">
        <ele>71.2</ele>
        <time>2020-09-13T07:38:55Z</time>
      </trkpt>
      <trkpt lat="46.54535" lon="0.33153">
        <ele>71</ele>
        <time>2020-09-13T07:38:56Z</time>
      </trkpt>
      <trkpt lat="46.54532" lon="0.33148">
        <ele>71</ele>
        <time>2020-09-13T07:38:57Z</time>
      </trkpt>
      <trkpt lat="46.54518" lon="0.33123">
        <ele>71</ele>
        <time>2020-09-13T07:39:01Z</time>
      </trkpt>
      <trkpt lat="46.54514" lon="0.33114">
        <ele>70.6</ele>
        <time>2020-09-13T07:39:04Z</time>
      </trkpt>
      <trkpt lat="46.54505" lon="0.33098">
        <ele>70.4</ele>
        <time>2020-09-13T07:39:10Z</time>
      </trkpt>
      <trkpt lat="46.54502" lon="0.33095">
        <ele>70.4</ele>
        <time>2020-09-13T07:39:11Z</time>
      </trkpt>
      <trkpt lat="46.54492" lon="0.33081">
        <ele>70.6</ele>
        <time>2020-09-13T07:39:16Z</time>
      </trkpt>
      <trkpt lat="46.54487" lon="0.33069">
        <ele>70.6</ele>
        <time>2020-09-13T07:39:21Z</time>
      </trkpt>
      <trkpt lat="46.54473" lon="0.3305">
        <ele>70.8</ele>
        <time>2020-09-13T07:39:27Z</time>
      </trkpt>
      <trkpt lat="46.5446" lon="0.33028">
        <ele>71</ele>
        <time>2020-09-13T07:39:32Z</time>
      </trkpt>
      <trkpt lat="46.54452" lon="0.33017">
        <ele>71.8</ele>
        <time>2020-09-13T07:39:34Z</time>
      </trkpt>
      <trkpt lat="46.54448" lon="0.33011">
        <ele>72</ele>
        <time>2020-09-13T07:39:35Z</time>
      </trkpt>
      <trkpt lat="46.54439" lon="0.32999">
        <ele>72</ele>
        <time>2020-09-13T07:39:37Z</time>
      </trkpt>
      <trkpt lat="46.5442" lon="0.32975">
        <ele>71.2</ele>
        <time>2020-09-13T07:39:42Z</time>
      </trkpt>
      <trkpt lat="46.54411" lon="0.32965">
        <ele>71.4</ele>
        <time>2020-09-13T07:39:44Z</time>
      </trkpt>
      <trkpt lat="46.54402" lon="0.32952">
        <ele>71.4</ele>
        <time>2020-09-13T07:39:46Z</time>
      </trkpt>
      <trkpt lat="46.54387" lon="0.3293">
        <ele>71.2</ele>
        <time>2020-09-13T07:39:50Z</time>
      </trkpt>
      <trkpt lat="46.54383" lon="0.32924">
        <ele>71.2</ele>
        <time>2020-09-13T07:39:51Z</time>
      </trkpt>
      <trkpt lat="46.54378" lon="0.3291">
        <ele>70.8</ele>
        <time>2020-09-13T07:39:53Z</time>
      </trkpt>
      <trkpt lat="46.5437" lon="0.32899">
        <ele>70.6</ele>
        <time>2020-09-13T07:39:55Z</time>
      </trkpt>
      <trkpt lat="46.54365" lon="0.32895">
        <ele>70.6</ele>
        <time>2020-09-13T07:39:56Z</time>
      </trkpt>
      <trkpt lat="46.54357" lon="0.32888">
        <ele>70.6</ele>
        <time>2020-09-13T07:39:58Z</time>
      </trkpt>
      <trkpt lat="46.54344" lon="0.32871">
        <ele>70.8</ele>
        <time>2020-09-13T07:40:02Z</time>
      </trkpt>
      <trkpt lat="46.54334" lon="0.32858">
        <ele>70.6</ele>
        <time>2020-09-13T07:40:05Z</time>
      </trkpt>
      <trkpt lat="46.54326" lon="0.32854">
        <ele>70.8</ele>
        <time>2020-09-13T07:40:07Z</time>
      </trkpt>
      <trkpt lat="46.54308" lon="0.32862">
        <ele>70.8</ele>
        <time>2020-09-13T07:40:11Z</time>
      </trkpt>
      <trkpt lat="46.54281" lon="0.32869">
        <ele>71.2</ele>
        <time>2020-09-13T07:40:16Z</time>
      </trkpt>
      <trkpt lat="46.54276" lon="0.32869">
        <ele>71.4</ele>
        <time>2020-09-13T07:40:17Z</time>
      </trkpt>
      <trkpt lat="46.5426" lon="0.3287">
        <ele>71.4</ele>
        <time>2020-09-13T07:40:20Z</time>
      </trkpt>
      <trkpt lat="46.54255" lon="0.3287">
        <ele>71.2</ele>
        <time>2020-09-13T07:40:21Z</time>
      </trkpt>
      <trkpt lat="46.5425" lon="0.32869">
        <ele>71.2</ele>
        <time>2020-09-13T07:40:22Z</time>
      </trkpt>
      <trkpt lat="46.54226" lon="0.32862">
        <ele>71.2</ele>
        <time>2020-09-13T07:40:26Z</time>
      </trkpt>
      <trkpt lat="46.5422" lon="0.32861">
        <ele>71.2</ele>
        <time>2020-09-13T07:40:27Z</time>
      </trkpt>
      <trkpt lat="46.54208" lon="0.32859">
        <ele>71.2</ele>
        <time>2020-09-13T07:40:29Z</time>
      </trkpt>
      <trkpt lat="46.54199" lon="0.32858">
        <ele>71.2</ele>
        <time>2020-09-13T07:40:31Z</time>
      </trkpt>
      <trkpt lat="46.54186" lon="0.32857">
        <ele>71</ele>
        <time>2020-09-13T07:40:34Z</time>
      </trkpt>
      <trkpt lat="46.54179" lon="0.32859">
        <ele>71</ele>
        <time>2020-09-13T07:40:36Z</time>
      </trkpt>
      <trkpt lat="46.54175" lon="0.32861">
        <ele>71</ele>
        <time>2020-09-13T07:40:37Z</time>
      </trkpt>
      <trkpt lat="46.54162" lon="0.32861">
        <ele>71</ele>
        <time>2020-09-13T07:40:41Z</time>
      </trkpt>
      <trkpt lat="46.5415" lon="0.32858">
        <ele>70.8</ele>
        <time>2020-09-13T07:40:44Z</time>
      </trkpt>
      <trkpt lat="46.54144" lon="0.3286">
        <ele>70.6</ele>
        <time>2020-09-13T07:40:46Z</time>
      </trkpt>
      <trkpt lat="46.54139" lon="0.32863">
        <ele>70.6</ele>
        <time>2020-09-13T07:40:49Z</time>
      </trkpt>
      <trkpt lat="46.54136" lon="0.32863">
        <ele>70.6</ele>
        <time>2020-09-13T07:40:50Z</time>
      </trkpt>
      <trkpt lat="46.54131" lon="0.32869">
        <ele>71</ele>
        <time>2020-09-13T07:40:53Z</time>
      </trkpt>
      <trkpt lat="46.54127" lon="0.32874">
        <ele>71</ele>
        <time>2020-09-13T07:40:55Z</time>
      </trkpt>
      <trkpt lat="46.54112" lon="0.32894">
        <ele>70.8</ele>
        <time>2020-09-13T07:41:01Z</time>
      </trkpt>
      <trkpt lat="46.541" lon="0.32906">
        <ele>71.2</ele>
        <time>2020-09-13T07:41:05Z</time>
      </trkpt>
      <trkpt lat="46.54088" lon="0.32917">
        <ele>71.6</ele>
        <time>2020-09-13T07:41:08Z</time>
      </trkpt>
      <trkpt lat="46.54076" lon="0.32932">
        <ele>71.8</ele>
        <time>2020-09-13T07:41:11Z</time>
      </trkpt>
      <trkpt lat="46.54049" lon="0.32964">
        <ele>71.6</ele>
        <time>2020-09-13T07:41:17Z</time>
      </trkpt>
      <trkpt lat="46.54024" lon="0.32998">
        <ele>71.6</ele>
        <time>2020-09-13T07:41:23Z</time>
      </trkpt>
      <trkpt lat="46.54021" lon="0.33003">
        <ele>71.6</ele>
        <time>2020-09-13T07:41:24Z</time>
      </trkpt>
      <trkpt lat="46.54019" lon="0.33009">
        <ele>71.6</ele>
        <time>2020-09-13T07:41:25Z</time>
      </trkpt>
      <trkpt lat="46.54019" lon="0.33015">
        <ele>71.4</ele>
        <time>2020-09-13T07:41:27Z</time>
      </trkpt>
      <trkpt lat="46.5402" lon="0.3302">
        <ele>71.4</ele>
        <time>2020-09-13T07:41:28Z</time>
      </trkpt>
      <trkpt lat="46.54023" lon="0.33029">
        <ele>71.2</ele>
        <time>2020-09-13T07:41:30Z</time>
      </trkpt>
      <trkpt lat="46.54032" lon="0.33052">
        <ele>71.4</ele>
        <time>2020-09-13T07:41:35Z</time>
      </trkpt>
      <trkpt lat="46.54037" lon="0.33065">
        <ele>72.2</ele>
        <time>2020-09-13T07:41:37Z</time>
      </trkpt>
      <trkpt lat="46.54041" lon="0.33077">
        <ele>73</ele>
        <time>2020-09-13T07:41:38Z</time>
      </trkpt>
      <trkpt lat="46.54041" lon="0.33077">
        <ele>73.6</ele>
        <time>2020-09-13T07:41:39Z</time>
      </trkpt>
      <trkpt lat="46.54044" lon="0.33089">
        <ele>74.2</ele>
        <time>2020-09-13T07:41:40Z</time>
      </trkpt>
      <trkpt lat="46.54044" lon="0.33089">
        <ele>74.6</ele>
        <time>2020-09-13T07:41:41Z</time>
      </trkpt>
      <trkpt lat="46.5404" lon="0.33103">
        <ele>75.2</ele>
        <time>2020-09-13T07:41:43Z</time>
      </trkpt>
      <trkpt lat="46.54038" lon="0.33107">
        <ele>75.4</ele>
        <time>2020-09-13T07:41:44Z</time>
      </trkpt>
      <trkpt lat="46.54038" lon="0.33107">
        <ele>75.6</ele>
        <time>2020-09-13T07:41:45Z</time>
      </trkpt>
      <trkpt lat="46.5403" lon="0.33135">
        <ele>76.6</ele>
        <time>2020-09-13T07:41:51Z</time>
      </trkpt>
      <trkpt lat="46.54029" lon="0.33154">
        <ele>78</ele>
        <time>2020-09-13T07:41:55Z</time>
      </trkpt>
      <trkpt lat="46.54029" lon="0.33175">
        <ele>79</ele>
        <time>2020-09-13T07:41:59Z</time>
      </trkpt>
      <trkpt lat="46.54029" lon="0.33195">
        <ele>80.2</ele>
        <time>2020-09-13T07:42:03Z</time>
      </trkpt>
      <trkpt lat="46.54029" lon="0.3321">
        <ele>80.8</ele>
        <time>2020-09-13T07:42:06Z</time>
      </trkpt>
      <trkpt lat="46.54029" lon="0.33221">
        <ele>81.2</ele>
        <time>2020-09-13T07:42:08Z</time>
      </trkpt>
      <trkpt lat="46.54033" lon="0.33255">
        <ele>82.4</ele>
        <time>2020-09-13T07:42:13Z</time>
      </trkpt>
      <trkpt lat="46.54037" lon="0.33282">
        <ele>83.4</ele>
        <time>2020-09-13T07:42:18Z</time>
      </trkpt>
      <trkpt lat="46.54039" lon="0.33293">
        <ele>84</ele>
        <time>2020-09-13T07:42:20Z</time>
      </trkpt>
      <trkpt lat="46.54041" lon="0.33306">
        <ele>84.2</ele>
        <time>2020-09-13T07:42:22Z</time>
      </trkpt>
      <trkpt lat="46.54042" lon="0.33312">
        <ele>84.4</ele>
        <time>2020-09-13T07:42:23Z</time>
      </trkpt>
      <trkpt lat="46.54043" lon="0.33333">
        <ele>84.6</ele>
        <time>2020-09-13T07:42:26Z</time>
      </trkpt>
      <trkpt lat="46.54047" lon="0.334">
        <ele>84.8</ele>
        <time>2020-09-13T07:42:35Z</time>
      </trkpt>
      <trkpt lat="46.5405" lon="0.33414">
        <ele>85</ele>
        <time>2020-09-13T07:42:37Z</time>
      </trkpt>
      <trkpt lat="46.54052" lon="0.3342">
        <ele>85</ele>
        <time>2020-09-13T07:42:39Z</time>
      </trkpt>
      <trkpt lat="46.54059" lon="0.33439">
        <ele>85.2</ele>
        <time>2020-09-13T07:42:41Z</time>
      </trkpt>
      <trkpt lat="46.54061" lon="0.33444">
        <ele>85.2</ele>
        <time>2020-09-13T07:42:42Z</time>
      </trkpt>
      <trkpt lat="46.54068" lon="0.33454">
        <ele>85.6</ele>
        <time>2020-09-13T07:42:44Z</time>
      </trkpt>
      <trkpt lat="46.54073" lon="0.33463">
        <ele>86.4</ele>
        <time>2020-09-13T07:42:47Z</time>
      </trkpt>
      <trkpt lat="46.54079" lon="0.33473">
        <ele>86.6</ele>
        <time>2020-09-13T07:42:49Z</time>
      </trkpt>
      <trkpt lat="46.54091" lon="0.33492">
        <ele>87.8</ele>
        <time>2020-09-13T07:42:53Z</time>
      </trkpt>
      <trkpt lat="46.54096" lon="0.33501">
        <ele>88.2</ele>
        <time>2020-09-13T07:42:54Z</time>
      </trkpt>
      <trkpt lat="46.54098" lon="0.33506">
        <ele>88.4</ele>
        <time>2020-09-13T07:42:55Z</time>
      </trkpt>
      <trkpt lat="46.54104" lon="0.33521">
        <ele>88.8</ele>
        <time>2020-09-13T07:42:58Z</time>
      </trkpt>
      <trkpt lat="46.54106" lon="0.33526">
        <ele>89</ele>
        <time>2020-09-13T07:42:59Z</time>
      </trkpt>
      <trkpt lat="46.54111" lon="0.33541">
        <ele>89.8</ele>
        <time>2020-09-13T07:43:02Z</time>
      </trkpt>
      <trkpt lat="46.54118" lon="0.3356">
        <ele>91</ele>
        <time>2020-09-13T07:43:06Z</time>
      </trkpt>
      <trkpt lat="46.54122" lon="0.33574">
        <ele>92.2</ele>
        <time>2020-09-13T07:43:10Z</time>
      </trkpt>
      <trkpt lat="46.54124" lon="0.33583">
        <ele>92.4</ele>
        <time>2020-09-13T07:43:11Z</time>
      </trkpt>
      <trkpt lat="46.54129" lon="0.33601">
        <ele>93.2</ele>
        <time>2020-09-13T07:43:15Z</time>
      </trkpt>
      <trkpt lat="46.54136" lon="0.33623">
        <ele>94.6</ele>
        <time>2020-09-13T07:43:20Z</time>
      </trkpt>
      <trkpt lat="46.54137" lon="0.33628">
        <ele>94.8</ele>
        <time>2020-09-13T07:43:21Z</time>
      </trkpt>
      <trkpt lat="46.5414" lon="0.33641">
        <ele>95.6</ele>
        <time>2020-09-13T07:43:24Z</time>
      </trkpt>
      <trkpt lat="46.54145" lon="0.33657">
        <ele>96.4</ele>
        <time>2020-09-13T07:43:28Z</time>
      </trkpt>
      <trkpt lat="46.54146" lon="0.33661">
        <ele>96.4</ele>
        <time>2020-09-13T07:43:29Z</time>
      </trkpt>
      <trkpt lat="46.54149" lon="0.3367">
        <ele>96.8</ele>
        <time>2020-09-13T07:43:31Z</time>
      </trkpt>
      <trkpt lat="46.54156" lon="0.33694">
        <ele>98</ele>
        <time>2020-09-13T07:43:37Z</time>
      </trkpt>
      <trkpt lat="46.5416" lon="0.3371">
        <ele>99</ele>
        <time>2020-09-13T07:43:42Z</time>
      </trkpt>
      <trkpt lat="46.54162" lon="0.33718">
        <ele>99.4</ele>
        <time>2020-09-13T07:43:44Z</time>
      </trkpt>
      <trkpt lat="46.54166" lon="0.33736">
        <ele>100.2</ele>
        <time>2020-09-13T07:43:47Z</time>
      </trkpt>
      <trkpt lat="46.54169" lon="0.33753">
        <ele>101.2</ele>
        <time>2020-09-13T07:43:52Z</time>
      </trkpt>
      <trkpt lat="46.54169" lon="0.33757">
        <ele>101.4</ele>
        <time>2020-09-13T07:43:53Z</time>
      </trkpt>
      <trkpt lat="46.54172" lon="0.33775">
        <ele>102.4</ele>
        <time>2020-09-13T07:43:57Z</time>
      </trkpt>
      <trkpt lat="46.54175" lon="0.338">
        <ele>103.6</ele>
        <time>2020-09-13T07:44:02Z</time>
      </trkpt>
      <trkpt lat="46.54179" lon="0.33829">
        <ele>104.8</ele>
        <time>2020-09-13T07:44:09Z</time>
      </trkpt>
      <trkpt lat="46.5418" lon="0.33837">
        <ele>105.2</ele>
        <time>2020-09-13T07:44:12Z</time>
      </trkpt>
      <trkpt lat="46.54182" lon="0.33849">
        <ele>105.8</ele>
        <time>2020-09-13T07:44:14Z</time>
      </trkpt>
      <trkpt lat="46.54185" lon="0.3387">
        <ele>106.8</ele>
        <time>2020-09-13T07:44:19Z</time>
      </trkpt>
      <trkpt lat="46.54186" lon="0.33875">
        <ele>107</ele>
        <time>2020-09-13T07:44:20Z</time>
      </trkpt>
      <trkpt lat="46.5419" lon="0.33899">
        <ele>108</ele>
        <time>2020-09-13T07:44:26Z</time>
      </trkpt>
      <trkpt lat="46.5419" lon="0.33903">
        <ele>108.2</ele>
        <time>2020-09-13T07:44:27Z</time>
      </trkpt>
      <trkpt lat="46.54193" lon="0.3392">
        <ele>109.2</ele>
        <time>2020-09-13T07:44:31Z</time>
      </trkpt>
      <trkpt lat="46.54195" lon="0.33937">
        <ele>109.8</ele>
        <time>2020-09-13T07:44:35Z</time>
      </trkpt>
      <trkpt lat="46.54198" lon="0.33949">
        <ele>110.2</ele>
        <time>2020-09-13T07:44:39Z</time>
      </trkpt>
      <trkpt lat="46.54197" lon="0.33958">
        <ele>110.4</ele>
        <time>2020-09-13T07:44:40Z</time>
      </trkpt>
      <trkpt lat="46.54195" lon="0.33962">
        <ele>110.4</ele>
        <time>2020-09-13T07:44:41Z</time>
      </trkpt>
      <trkpt lat="46.54191" lon="0.33974">
        <ele>110.6</ele>
        <time>2020-09-13T07:44:44Z</time>
      </trkpt>
      <trkpt lat="46.54188" lon="0.33981">
        <ele>110.6</ele>
        <time>2020-09-13T07:44:46Z</time>
      </trkpt>
      <trkpt lat="46.54187" lon="0.33985">
        <ele>110.4</ele>
        <time>2020-09-13T07:44:48Z</time>
      </trkpt>
      <trkpt lat="46.54187" lon="0.33995">
        <ele>110.2</ele>
        <time>2020-09-13T07:44:50Z</time>
      </trkpt>
      <trkpt lat="46.5419" lon="0.34005">
        <ele>110</ele>
        <time>2020-09-13T07:44:51Z</time>
      </trkpt>
      <trkpt lat="46.54194" lon="0.34021">
        <ele>109.6</ele>
        <time>2020-09-13T07:44:54Z</time>
      </trkpt>
      <trkpt lat="46.54194" lon="0.34025">
        <ele>109.6</ele>
        <time>2020-09-13T07:44:56Z</time>
      </trkpt>
      <trkpt lat="46.54192" lon="0.34028">
        <ele>109.8</ele>
        <time>2020-09-13T07:44:57Z</time>
      </trkpt>
      <trkpt lat="46.5419" lon="0.3403">
        <ele>109.8</ele>
        <time>2020-09-13T07:44:59Z</time>
      </trkpt>
      <trkpt lat="46.54189" lon="0.34032">
        <ele>109.6</ele>
        <time>2020-09-13T07:45:00Z</time>
      </trkpt>
      <trkpt lat="46.54188" lon="0.34045">
        <ele>109.6</ele>
        <time>2020-09-13T07:45:02Z</time>
      </trkpt>
      <trkpt lat="46.54186" lon="0.3405">
        <ele>109.6</ele>
        <time>2020-09-13T07:45:04Z</time>
      </trkpt>
      <trkpt lat="46.54185" lon="0.34056">
        <ele>109.6</ele>
        <time>2020-09-13T07:45:05Z</time>
      </trkpt>
      <trkpt lat="46.54184" lon="0.34066">
        <ele>109.8</ele>
        <time>2020-09-13T07:45:07Z</time>
      </trkpt>
      <trkpt lat="46.54182" lon="0.34073">
        <ele>110</ele>
        <time>2020-09-13T07:45:08Z</time>
      </trkpt>
      <trkpt lat="46.54179" lon="0.34084">
        <ele>110</ele>
        <time>2020-09-13T07:45:11Z</time>
      </trkpt>
      <trkpt lat="46.54176" lon="0.34092">
        <ele>110.2</ele>
        <time>2020-09-13T07:45:14Z</time>
      </trkpt>
      <trkpt lat="46.54171" lon="0.34105">
        <ele>110</ele>
        <time>2020-09-13T07:45:16Z</time>
      </trkpt>
      <trkpt lat="46.54159" lon="0.34124">
        <ele>111</ele>
        <time>2020-09-13T07:45:21Z</time>
      </trkpt>
      <trkpt lat="46.54152" lon="0.3414">
        <ele>110.2</ele>
        <time>2020-09-13T07:45:25Z</time>
      </trkpt>
      <trkpt lat="46.5415" lon="0.34149">
        <ele>109.2</ele>
        <time>2020-09-13T07:45:27Z</time>
      </trkpt>
      <trkpt lat="46.54149" lon="0.34164">
        <ele>108.2</ele>
        <time>2020-09-13T07:45:30Z</time>
      </trkpt>
      <trkpt lat="46.54145" lon="0.34179">
        <ele>107.8</ele>
        <time>2020-09-13T07:45:32Z</time>
      </trkpt>
      <trkpt lat="46.54143" lon="0.34186">
        <ele>107.6</ele>
        <time>2020-09-13T07:45:33Z</time>
      </trkpt>
      <trkpt lat="46.54141" lon="0.34192">
        <ele>107.4</ele>
        <time>2020-09-13T07:45:34Z</time>
      </trkpt>
      <trkpt lat="46.54137" lon="0.34201">
        <ele>107.6</ele>
        <time>2020-09-13T07:45:37Z</time>
      </trkpt>
      <trkpt lat="46.54131" lon="0.34214">
        <ele>109.2</ele>
        <time>2020-09-13T07:45:41Z</time>
      </trkpt>
      <trkpt lat="46.54129" lon="0.34218">
        <ele>109.2</ele>
        <time>2020-09-13T07:45:42Z</time>
      </trkpt>
      <trkpt lat="46.54128" lon="0.34221">
        <ele>109.4</ele>
        <time>2020-09-13T07:45:43Z</time>
      </trkpt>
      <trkpt lat="46.54123" lon="0.34228">
        <ele>109.4</ele>
        <time>2020-09-13T07:45:45Z</time>
      </trkpt>
      <trkpt lat="46.54121" lon="0.34233">
        <ele>109</ele>
        <time>2020-09-13T07:45:46Z</time>
      </trkpt>
      <trkpt lat="46.54119" lon="0.34237">
        <ele>108.8</ele>
        <time>2020-09-13T07:45:47Z</time>
      </trkpt>
      <trkpt lat="46.54112" lon="0.34247">
        <ele>108</ele>
        <time>2020-09-13T07:45:49Z</time>
      </trkpt>
      <trkpt lat="46.54108" lon="0.34253">
        <ele>107.4</ele>
        <time>2020-09-13T07:45:51Z</time>
      </trkpt>
      <trkpt lat="46.54106" lon="0.34258">
        <ele>106.6</ele>
        <time>2020-09-13T07:45:52Z</time>
      </trkpt>
      <trkpt lat="46.54105" lon="0.34266">
        <ele>105.8</ele>
        <time>2020-09-13T07:45:54Z</time>
      </trkpt>
      <trkpt lat="46.54102" lon="0.34273">
        <ele>105.4</ele>
        <time>2020-09-13T07:45:56Z</time>
      </trkpt>
      <trkpt lat="46.54097" lon="0.34285">
        <ele>104</ele>
        <time>2020-09-13T07:45:59Z</time>
      </trkpt>
      <trkpt lat="46.54096" lon="0.34295">
        <ele>103</ele>
        <time>2020-09-13T07:46:01Z</time>
      </trkpt>
      <trkpt lat="46.54096" lon="0.34299">
        <ele>103</ele>
        <time>2020-09-13T07:46:02Z</time>
      </trkpt>
      <trkpt lat="46.54096" lon="0.34301">
        <ele>103</ele>
        <time>2020-09-13T07:46:03Z</time>
      </trkpt>
      <trkpt lat="46.54096" lon="0.34305">
        <ele>102.8</ele>
        <time>2020-09-13T07:46:06Z</time>
      </trkpt>
      <trkpt lat="46.54095" lon="0.34318">
        <ele>102.4</ele>
        <time>2020-09-13T07:46:11Z</time>
      </trkpt>
      <trkpt lat="46.54092" lon="0.34319">
        <ele>102.2</ele>
        <time>2020-09-13T07:46:12Z</time>
      </trkpt>
      <trkpt lat="46.5409" lon="0.3432">
        <ele>102</ele>
        <time>2020-09-13T07:46:13Z</time>
      </trkpt>
      <trkpt lat="46.54083" lon="0.34325">
        <ele>100.6</ele>
        <time>2020-09-13T07:46:16Z</time>
      </trkpt>
      <trkpt lat="46.54077" lon="0.34328">
        <ele>99.8</ele>
        <time>2020-09-13T07:46:18Z</time>
      </trkpt>
      <trkpt lat="46.54072" lon="0.3433">
        <ele>97.8</ele>
        <time>2020-09-13T07:46:19Z</time>
      </trkpt>
      <trkpt lat="46.5407" lon="0.34331">
        <ele>97.8</ele>
        <time>2020-09-13T07:46:21Z</time>
      </trkpt>
      <trkpt lat="46.54067" lon="0.34333">
        <ele>97.2</ele>
        <time>2020-09-13T07:46:22Z</time>
      </trkpt>
      <trkpt lat="46.54065" lon="0.34337">
        <ele>96.8</ele>
        <time>2020-09-13T07:46:23Z</time>
      </trkpt>
      <trkpt lat="46.54061" lon="0.34344">
        <ele>95.8</ele>
        <time>2020-09-13T07:46:25Z</time>
      </trkpt>
      <trkpt lat="46.54061" lon="0.34345">
        <ele>95.2</ele>
        <time>2020-09-13T07:46:26Z</time>
      </trkpt>
      <trkpt lat="46.5406" lon="0.34348">
        <ele>94</ele>
        <time>2020-09-13T07:46:28Z</time>
      </trkpt>
      <trkpt lat="46.54058" lon="0.34351">
        <ele>93.8</ele>
        <time>2020-09-13T07:46:29Z</time>
      </trkpt>
      <trkpt lat="46.54054" lon="0.34362">
        <ele>94.2</ele>
        <time>2020-09-13T07:46:33Z</time>
      </trkpt>
      <trkpt lat="46.54052" lon="0.34365">
        <ele>95.2</ele>
        <time>2020-09-13T07:46:36Z</time>
      </trkpt>
      <trkpt lat="46.54048" lon="0.34374">
        <ele>95.4</ele>
        <time>2020-09-13T07:46:44Z</time>
      </trkpt>
      <trkpt lat="46.54044" lon="0.34381">
        <ele>95.4</ele>
        <time>2020-09-13T07:46:47Z</time>
      </trkpt>
      <trkpt lat="46.5404" lon="0.34385">
        <ele>95.2</ele>
        <time>2020-09-13T07:46:49Z</time>
      </trkpt>
      <trkpt lat="46.54023" lon="0.3439">
        <ele>95</ele>
        <time>2020-09-13T07:46:54Z</time>
      </trkpt>
      <trkpt lat="46.54017" lon="0.34386">
        <ele>95</ele>
        <time>2020-09-13T07:46:58Z</time>
      </trkpt>
      <trkpt lat="46.54018" lon="0.34382">
        <ele>95</ele>
        <time>2020-09-13T07:47:00Z</time>
      </trkpt>
      <trkpt lat="46.5402" lon="0.34369">
        <ele>94</ele>
        <time>2020-09-13T07:47:02Z</time>
      </trkpt>
      <trkpt lat="46.5402" lon="0.34366">
        <ele>92</ele>
        <time>2020-09-13T07:47:04Z</time>
      </trkpt>
      <trkpt lat="46.5402" lon="0.34364">
        <ele>91</ele>
        <time>2020-09-13T07:47:05Z</time>
      </trkpt>
      <trkpt lat="46.54019" lon="0.34363">
        <ele>90</ele>
        <time>2020-09-13T07:47:06Z</time>
      </trkpt>
      <trkpt lat="46.54018" lon="0.3436">
        <ele>89</ele>
        <time>2020-09-13T07:47:07Z</time>
      </trkpt>
      <trkpt lat="46.54016" lon="0.34358">
        <ele>88</ele>
        <time>2020-09-13T07:47:08Z</time>
      </trkpt>
      <trkpt lat="46.54013" lon="0.34356">
        <ele>87</ele>
        <time>2020-09-13T07:47:09Z</time>
      </trkpt>
      <trkpt lat="46.54011" lon="0.34354">
        <ele>85.6</ele>
        <time>2020-09-13T07:47:10Z</time>
      </trkpt>
      <trkpt lat="46.54009" lon="0.34351">
        <ele>83.8</ele>
        <time>2020-09-13T07:47:11Z</time>
      </trkpt>
      <trkpt lat="46.54008" lon="0.34348">
        <ele>82.2</ele>
        <time>2020-09-13T07:47:12Z</time>
      </trkpt>
      <trkpt lat="46.54005" lon="0.34345">
        <ele>80.8</ele>
        <time>2020-09-13T07:47:13Z</time>
      </trkpt>
      <trkpt lat="46.54002" lon="0.34342">
        <ele>79.2</ele>
        <time>2020-09-13T07:47:14Z</time>
      </trkpt>
      <trkpt lat="46.54001" lon="0.3434">
        <ele>77.6</ele>
        <time>2020-09-13T07:47:15Z</time>
      </trkpt>
      <trkpt lat="46.54" lon="0.34337">
        <ele>76.2</ele>
        <time>2020-09-13T07:47:16Z</time>
      </trkpt>
      <trkpt lat="46.53999" lon="0.34334">
        <ele>75.2</ele>
        <time>2020-09-13T07:47:17Z</time>
      </trkpt>
      <trkpt lat="46.53998" lon="0.34332">
        <ele>73.8</ele>
        <time>2020-09-13T07:47:18Z</time>
      </trkpt>
      <trkpt lat="46.53997" lon="0.3433">
        <ele>72.6</ele>
        <time>2020-09-13T07:47:19Z</time>
      </trkpt>
      <trkpt lat="46.53995" lon="0.34326">
        <ele>71.4</ele>
        <time>2020-09-13T07:47:21Z</time>
      </trkpt>
      <trkpt lat="46.53995" lon="0.34326">
        <ele>70.8</ele>
        <time>2020-09-13T07:47:23Z</time>
      </trkpt>
      <trkpt lat="46.53986" lon="0.34331">
        <ele>70.6</ele>
        <time>2020-09-13T07:47:28Z</time>
      </trkpt>
      <trkpt lat="46.53964" lon="0.34352">
        <ele>72</ele>
        <time>2020-09-13T07:47:35Z</time>
      </trkpt>
      <trkpt lat="46.53957" lon="0.34357">
        <ele>72.8</ele>
        <time>2020-09-13T07:47:37Z</time>
      </trkpt>
      <trkpt lat="46.53946" lon="0.34366">
        <ele>73.8</ele>
        <time>2020-09-13T07:47:41Z</time>
      </trkpt>
      <trkpt lat="46.53943" lon="0.34369">
        <ele>74.2</ele>
        <time>2020-09-13T07:47:42Z</time>
      </trkpt>
      <trkpt lat="46.5393" lon="0.34381">
        <ele>75.2</ele>
        <time>2020-09-13T07:47:46Z</time>
      </trkpt>
      <trkpt lat="46.53928" lon="0.34385">
        <ele>75.4</ele>
        <time>2020-09-13T07:47:47Z</time>
      </trkpt>
      <trkpt lat="46.53918" lon="0.34406">
        <ele>76.4</ele>
        <time>2020-09-13T07:47:52Z</time>
      </trkpt>
      <trkpt lat="46.53919" lon="0.34419">
        <ele>77.4</ele>
        <time>2020-09-13T07:47:55Z</time>
      </trkpt>
      <trkpt lat="46.5392" lon="0.34427">
        <ele>77.8</ele>
        <time>2020-09-13T07:47:57Z</time>
      </trkpt>
      <trkpt lat="46.53923" lon="0.3444">
        <ele>78.6</ele>
        <time>2020-09-13T07:48:00Z</time>
      </trkpt>
      <trkpt lat="46.53925" lon="0.34449">
        <ele>79.6</ele>
        <time>2020-09-13T07:48:02Z</time>
      </trkpt>
      <trkpt lat="46.53927" lon="0.34457">
        <ele>80.2</ele>
        <time>2020-09-13T07:48:04Z</time>
      </trkpt>
      <trkpt lat="46.53928" lon="0.34467">
        <ele>80.8</ele>
        <time>2020-09-13T07:48:06Z</time>
      </trkpt>
      <trkpt lat="46.53926" lon="0.34477">
        <ele>81.6</ele>
        <time>2020-09-13T07:48:08Z</time>
      </trkpt>
      <trkpt lat="46.53923" lon="0.34481">
        <ele>82</ele>
        <time>2020-09-13T07:48:09Z</time>
      </trkpt>
      <trkpt lat="46.53916" lon="0.34487">
        <ele>82.6</ele>
        <time>2020-09-13T07:48:11Z</time>
      </trkpt>
      <trkpt lat="46.53907" lon="0.3449">
        <ele>83</ele>
        <time>2020-09-13T07:48:13Z</time>
      </trkpt>
      <trkpt lat="46.53888" lon="0.34494">
        <ele>83.4</ele>
        <time>2020-09-13T07:48:17Z</time>
      </trkpt>
      <trkpt lat="46.53862" lon="0.34497">
        <ele>83.4</ele>
        <time>2020-09-13T07:48:23Z</time>
      </trkpt>
      <trkpt lat="46.53841" lon="0.34495">
        <ele>84</ele>
        <time>2020-09-13T07:48:28Z</time>
      </trkpt>
      <trkpt lat="46.53817" lon="0.34486">
        <ele>84.4</ele>
        <time>2020-09-13T07:48:33Z</time>
      </trkpt>
      <trkpt lat="46.5378" lon="0.34475">
        <ele>84</ele>
        <time>2020-09-13T07:48:40Z</time>
      </trkpt>
      <trkpt lat="46.5374" lon="0.34461">
        <ele>84.4</ele>
        <time>2020-09-13T07:48:47Z</time>
      </trkpt>
      <trkpt lat="46.53698" lon="0.34441">
        <ele>84</ele>
        <time>2020-09-13T07:48:54Z</time>
      </trkpt>
      <trkpt lat="46.53672" lon="0.34427">
        <ele>84</ele>
        <time>2020-09-13T07:48:58Z</time>
      </trkpt>
      <trkpt lat="46.53645" lon="0.34415">
        <ele>83.6</ele>
        <time>2020-09-13T07:49:02Z</time>
      </trkpt>
      <trkpt lat="46.53616" lon="0.34408">
        <ele>83</ele>
        <time>2020-09-13T07:49:06Z</time>
      </trkpt>
      <trkpt lat="46.53602" lon="0.34409">
        <ele>82.4</ele>
        <time>2020-09-13T07:49:08Z</time>
      </trkpt>
      <trkpt lat="46.53587" lon="0.34409">
        <ele>82.2</ele>
        <time>2020-09-13T07:49:10Z</time>
      </trkpt>
      <trkpt lat="46.53572" lon="0.34404">
        <ele>82.2</ele>
        <time>2020-09-13T07:49:12Z</time>
      </trkpt>
      <trkpt lat="46.53559" lon="0.34394">
        <ele>82.2</ele>
        <time>2020-09-13T07:49:14Z</time>
      </trkpt>
      <trkpt lat="46.53541" lon="0.34378">
        <ele>82.4</ele>
        <time>2020-09-13T07:49:17Z</time>
      </trkpt>
      <trkpt lat="46.5351" lon="0.34362">
        <ele>82.4</ele>
        <time>2020-09-13T07:49:22Z</time>
      </trkpt>
      <trkpt lat="46.53462" lon="0.34345">
        <ele>83.8</ele>
        <time>2020-09-13T07:49:30Z</time>
      </trkpt>
      <trkpt lat="46.53456" lon="0.34343">
        <ele>84</ele>
        <time>2020-09-13T07:49:31Z</time>
      </trkpt>
      <trkpt lat="46.53438" lon="0.3434">
        <ele>84.8</ele>
        <time>2020-09-13T07:49:34Z</time>
      </trkpt>
      <trkpt lat="46.53433" lon="0.34341">
        <ele>85</ele>
        <time>2020-09-13T07:49:35Z</time>
      </trkpt>
      <trkpt lat="46.53427" lon="0.34342">
        <ele>85.2</ele>
        <time>2020-09-13T07:49:36Z</time>
      </trkpt>
      <trkpt lat="46.5341" lon="0.34342">
        <ele>85.2</ele>
        <time>2020-09-13T07:49:39Z</time>
      </trkpt>
      <trkpt lat="46.53398" lon="0.34338">
        <ele>85.2</ele>
        <time>2020-09-13T07:49:41Z</time>
      </trkpt>
      <trkpt lat="46.5338" lon="0.3433">
        <ele>85</ele>
        <time>2020-09-13T07:49:44Z</time>
      </trkpt>
      <trkpt lat="46.53369" lon="0.34321">
        <ele>84.6</ele>
        <time>2020-09-13T07:49:46Z</time>
      </trkpt>
      <trkpt lat="46.53333" lon="0.34287">
        <ele>84.4</ele>
        <time>2020-09-13T07:49:53Z</time>
      </trkpt>
      <trkpt lat="46.53323" lon="0.34278">
        <ele>84.4</ele>
        <time>2020-09-13T07:49:55Z</time>
      </trkpt>
      <trkpt lat="46.53303" lon="0.34263">
        <ele>84.8</ele>
        <time>2020-09-13T07:49:59Z</time>
      </trkpt>
      <trkpt lat="46.53298" lon="0.3426">
        <ele>84.8</ele>
        <time>2020-09-13T07:50:00Z</time>
      </trkpt>
      <trkpt lat="46.53277" lon="0.34248">
        <ele>84.8</ele>
        <time>2020-09-13T07:50:04Z</time>
      </trkpt>
      <trkpt lat="46.53245" lon="0.34226">
        <ele>85.2</ele>
        <time>2020-09-13T07:50:10Z</time>
      </trkpt>
      <trkpt lat="46.53206" lon="0.34188">
        <ele>85.4</ele>
        <time>2020-09-13T07:50:18Z</time>
      </trkpt>
      <trkpt lat="46.53187" lon="0.34167">
        <ele>85.4</ele>
        <time>2020-09-13T07:50:22Z</time>
      </trkpt>
      <trkpt lat="46.53177" lon="0.34155">
        <ele>85.4</ele>
        <time>2020-09-13T07:50:24Z</time>
      </trkpt>
      <trkpt lat="46.53135" lon="0.3411">
        <ele>85.2</ele>
        <time>2020-09-13T07:50:32Z</time>
      </trkpt>
      <trkpt lat="46.53082" lon="0.34079">
        <ele>84.2</ele>
        <time>2020-09-13T07:50:40Z</time>
      </trkpt>
      <trkpt lat="46.53075" lon="0.34075">
        <ele>84</ele>
        <time>2020-09-13T07:50:41Z</time>
      </trkpt>
      <trkpt lat="46.53047" lon="0.34058">
        <ele>82.8</ele>
        <time>2020-09-13T07:50:45Z</time>
      </trkpt>
      <trkpt lat="46.53039" lon="0.34055">
        <ele>82.4</ele>
        <time>2020-09-13T07:50:46Z</time>
      </trkpt>
      <trkpt lat="46.53032" lon="0.34055">
        <ele>82.2</ele>
        <time>2020-09-13T07:50:47Z</time>
      </trkpt>
      <trkpt lat="46.53017" lon="0.34056">
        <ele>81.6</ele>
        <time>2020-09-13T07:50:49Z</time>
      </trkpt>
      <trkpt lat="46.53009" lon="0.34056">
        <ele>81.4</ele>
        <time>2020-09-13T07:50:50Z</time>
      </trkpt>
      <trkpt lat="46.52988" lon="0.34057">
        <ele>80.6</ele>
        <time>2020-09-13T07:50:53Z</time>
      </trkpt>
      <trkpt lat="46.52974" lon="0.34056">
        <ele>80.2</ele>
        <time>2020-09-13T07:50:55Z</time>
      </trkpt>
      <trkpt lat="46.5296" lon="0.34051">
        <ele>79.8</ele>
        <time>2020-09-13T07:50:57Z</time>
      </trkpt>
      <trkpt lat="46.52955" lon="0.34044">
        <ele>79.6</ele>
        <time>2020-09-13T07:50:58Z</time>
      </trkpt>
      <trkpt lat="46.5295" lon="0.34035">
        <ele>79.2</ele>
        <time>2020-09-13T07:50:59Z</time>
      </trkpt>
      <trkpt lat="46.52946" lon="0.34013">
        <ele>78.4</ele>
        <time>2020-09-13T07:51:01Z</time>
      </trkpt>
      <trkpt lat="46.52944" lon="0.33977">
        <ele>77.4</ele>
        <time>2020-09-13T07:51:04Z</time>
      </trkpt>
      <trkpt lat="46.52942" lon="0.33965">
        <ele>77</ele>
        <time>2020-09-13T07:51:05Z</time>
      </trkpt>
      <trkpt lat="46.5294" lon="0.33954">
        <ele>76.6</ele>
        <time>2020-09-13T07:51:06Z</time>
      </trkpt>
      <trkpt lat="46.52938" lon="0.33943">
        <ele>76.2</ele>
        <time>2020-09-13T07:51:07Z</time>
      </trkpt>
      <trkpt lat="46.52934" lon="0.33932">
        <ele>76</ele>
        <time>2020-09-13T07:51:08Z</time>
      </trkpt>
      <trkpt lat="46.52926" lon="0.33915">
        <ele>75.4</ele>
        <time>2020-09-13T07:51:10Z</time>
      </trkpt>
      <trkpt lat="46.5292" lon="0.33908">
        <ele>75.2</ele>
        <time>2020-09-13T07:51:11Z</time>
      </trkpt>
      <trkpt lat="46.52914" lon="0.33905">
        <ele>74.8</ele>
        <time>2020-09-13T07:51:12Z</time>
      </trkpt>
      <trkpt lat="46.52906" lon="0.33903">
        <ele>74.6</ele>
        <time>2020-09-13T07:51:13Z</time>
      </trkpt>
      <trkpt lat="46.529" lon="0.33904">
        <ele>74.6</ele>
        <time>2020-09-13T07:51:14Z</time>
      </trkpt>
      <trkpt lat="46.5288" lon="0.33905">
        <ele>74</ele>
        <time>2020-09-13T07:51:17Z</time>
      </trkpt>
      <trkpt lat="46.52873" lon="0.33905">
        <ele>74</ele>
        <time>2020-09-13T07:51:18Z</time>
      </trkpt>
      <trkpt lat="46.5286" lon="0.33905">
        <ele>73.8</ele>
        <time>2020-09-13T07:51:20Z</time>
      </trkpt>
      <trkpt lat="46.52835" lon="0.3391">
        <ele>74</ele>
        <time>2020-09-13T07:51:24Z</time>
      </trkpt>
      <trkpt lat="46.52816" lon="0.33913">
        <ele>73.8</ele>
        <time>2020-09-13T07:51:27Z</time>
      </trkpt>
      <trkpt lat="46.52803" lon="0.33915">
        <ele>73.8</ele>
        <time>2020-09-13T07:51:29Z</time>
      </trkpt>
      <trkpt lat="46.52791" lon="0.33919">
        <ele>73.6</ele>
        <time>2020-09-13T07:51:31Z</time>
      </trkpt>
      <trkpt lat="46.52784" lon="0.33933">
        <ele>73.6</ele>
        <time>2020-09-13T07:51:33Z</time>
      </trkpt>
      <trkpt lat="46.52778" lon="0.33968">
        <ele>73.8</ele>
        <time>2020-09-13T07:51:37Z</time>
      </trkpt>
      <trkpt lat="46.5277" lon="0.34005">
        <ele>74.6</ele>
        <time>2020-09-13T07:51:42Z</time>
      </trkpt>
      <trkpt lat="46.52768" lon="0.3401">
        <ele>75</ele>
        <time>2020-09-13T07:51:43Z</time>
      </trkpt>
      <trkpt lat="46.52767" lon="0.34015">
        <ele>75.4</ele>
        <time>2020-09-13T07:51:44Z</time>
      </trkpt>
      <trkpt lat="46.52764" lon="0.34019">
        <ele>75.8</ele>
        <time>2020-09-13T07:51:45Z</time>
      </trkpt>
      <trkpt lat="46.52761" lon="0.34021">
        <ele>76.6</ele>
        <time>2020-09-13T07:51:46Z</time>
      </trkpt>
      <trkpt lat="46.52758" lon="0.34023">
        <ele>77</ele>
        <time>2020-09-13T07:51:47Z</time>
      </trkpt>
      <trkpt lat="46.52756" lon="0.34024">
        <ele>77.6</ele>
        <time>2020-09-13T07:51:48Z</time>
      </trkpt>
      <trkpt lat="46.52746" lon="0.34029">
        <ele>78.6</ele>
        <time>2020-09-13T07:51:51Z</time>
      </trkpt>
      <trkpt lat="46.52736" lon="0.34033">
        <ele>80</ele>
        <time>2020-09-13T07:51:54Z</time>
      </trkpt>
      <trkpt lat="46.5273" lon="0.34036">
        <ele>81</ele>
        <time>2020-09-13T07:51:56Z</time>
      </trkpt>
      <trkpt lat="46.52722" lon="0.34038">
        <ele>81.6</ele>
        <time>2020-09-13T07:51:58Z</time>
      </trkpt>
      <trkpt lat="46.52712" lon="0.34041">
        <ele>82</ele>
        <time>2020-09-13T07:52:01Z</time>
      </trkpt>
      <trkpt lat="46.52702" lon="0.34042">
        <ele>82.2</ele>
        <time>2020-09-13T07:52:04Z</time>
      </trkpt>
      <trkpt lat="46.52683" lon="0.34041">
        <ele>82.6</ele>
        <time>2020-09-13T07:52:09Z</time>
      </trkpt>
      <trkpt lat="46.52676" lon="0.3404">
        <ele>82.6</ele>
        <time>2020-09-13T07:52:11Z</time>
      </trkpt>
      <trkpt lat="46.52665" lon="0.34038">
        <ele>83</ele>
        <time>2020-09-13T07:52:14Z</time>
      </trkpt>
      <trkpt lat="46.52654" lon="0.34037">
        <ele>83.4</ele>
        <time>2020-09-13T07:52:17Z</time>
      </trkpt>
      <trkpt lat="46.52636" lon="0.34037">
        <ele>84.2</ele>
        <time>2020-09-13T07:52:22Z</time>
      </trkpt>
      <trkpt lat="46.52628" lon="0.34036">
        <ele>84.2</ele>
        <time>2020-09-13T07:52:24Z</time>
      </trkpt>
      <trkpt lat="46.52617" lon="0.34036">
        <ele>84.2</ele>
        <time>2020-09-13T07:52:27Z</time>
      </trkpt>
      <trkpt lat="46.52605" lon="0.34038">
        <ele>84.4</ele>
        <time>2020-09-13T07:52:31Z</time>
      </trkpt>
      <trkpt lat="46.52588" lon="0.34039">
        <ele>85.4</ele>
        <time>2020-09-13T07:52:36Z</time>
      </trkpt>
      <trkpt lat="46.52584" lon="0.3404">
        <ele>85.8</ele>
        <time>2020-09-13T07:52:37Z</time>
      </trkpt>
      <trkpt lat="46.52577" lon="0.3404">
        <ele>86.6</ele>
        <time>2020-09-13T07:52:39Z</time>
      </trkpt>
      <trkpt lat="46.52565" lon="0.34043">
        <ele>87</ele>
        <time>2020-09-13T07:52:43Z</time>
      </trkpt>
      <trkpt lat="46.52553" lon="0.34046">
        <ele>87.8</ele>
        <time>2020-09-13T07:52:47Z</time>
      </trkpt>
      <trkpt lat="46.52551" lon="0.34046">
        <ele>88.2</ele>
        <time>2020-09-13T07:52:48Z</time>
      </trkpt>
      <trkpt lat="46.5254" lon="0.34048">
        <ele>89</ele>
        <time>2020-09-13T07:52:51Z</time>
      </trkpt>
      <trkpt lat="46.52532" lon="0.34051">
        <ele>89.4</ele>
        <time>2020-09-13T07:52:54Z</time>
      </trkpt>
      <trkpt lat="46.52528" lon="0.34052">
        <ele>90</ele>
        <time>2020-09-13T07:52:56Z</time>
      </trkpt>
      <trkpt lat="46.5252" lon="0.34056">
        <ele>91</ele>
        <time>2020-09-13T07:52:59Z</time>
      </trkpt>
      <trkpt lat="46.52517" lon="0.34058">
        <ele>91.2</ele>
        <time>2020-09-13T07:53:00Z</time>
      </trkpt>
      <trkpt lat="46.52509" lon="0.34067">
        <ele>92.6</ele>
        <time>2020-09-13T07:53:04Z</time>
      </trkpt>
      <trkpt lat="46.52506" lon="0.34073">
        <ele>93</ele>
        <time>2020-09-13T07:53:06Z</time>
      </trkpt>
      <trkpt lat="46.52502" lon="0.34082">
        <ele>93.6</ele>
        <time>2020-09-13T07:53:09Z</time>
      </trkpt>
      <trkpt lat="46.52497" lon="0.34094">
        <ele>94.8</ele>
        <time>2020-09-13T07:53:13Z</time>
      </trkpt>
      <trkpt lat="46.52489" lon="0.34113">
        <ele>96.2</ele>
        <time>2020-09-13T07:53:19Z</time>
      </trkpt>
      <trkpt lat="46.52486" lon="0.34119">
        <ele>96.8</ele>
        <time>2020-09-13T07:53:21Z</time>
      </trkpt>
      <trkpt lat="46.52481" lon="0.34128">
        <ele>97.2</ele>
        <time>2020-09-13T07:53:24Z</time>
      </trkpt>
      <trkpt lat="46.52476" lon="0.34137">
        <ele>98.4</ele>
        <time>2020-09-13T07:53:27Z</time>
      </trkpt>
      <trkpt lat="46.52472" lon="0.34146">
        <ele>99.4</ele>
        <time>2020-09-13T07:53:30Z</time>
      </trkpt>
      <trkpt lat="46.5247" lon="0.34149">
        <ele>99.6</ele>
        <time>2020-09-13T07:53:31Z</time>
      </trkpt>
      <trkpt lat="46.52466" lon="0.34157">
        <ele>101</ele>
        <time>2020-09-13T07:53:34Z</time>
      </trkpt>
      <trkpt lat="46.5246" lon="0.34165">
        <ele>101.8</ele>
        <time>2020-09-13T07:53:37Z</time>
      </trkpt>
      <trkpt lat="46.52458" lon="0.34168">
        <ele>102.2</ele>
        <time>2020-09-13T07:53:38Z</time>
      </trkpt>
      <trkpt lat="46.5245" lon="0.34187">
        <ele>103.4</ele>
        <time>2020-09-13T07:53:43Z</time>
      </trkpt>
      <trkpt lat="46.52444" lon="0.34204">
        <ele>104.4</ele>
        <time>2020-09-13T07:53:47Z</time>
      </trkpt>
      <trkpt lat="46.5244" lon="0.34221">
        <ele>105</ele>
        <time>2020-09-13T07:53:51Z</time>
      </trkpt>
      <trkpt lat="46.52433" lon="0.3425">
        <ele>105.4</ele>
        <time>2020-09-13T07:53:57Z</time>
      </trkpt>
      <trkpt lat="46.52428" lon="0.34256">
        <ele>105.4</ele>
        <time>2020-09-13T07:53:59Z</time>
      </trkpt>
      <trkpt lat="46.52425" lon="0.34257">
        <ele>105.6</ele>
        <time>2020-09-13T07:54:00Z</time>
      </trkpt>
      <trkpt lat="46.52406" lon="0.34268">
        <ele>105.2</ele>
        <time>2020-09-13T07:54:04Z</time>
      </trkpt>
      <trkpt lat="46.52392" lon="0.34275">
        <ele>104</ele>
        <time>2020-09-13T07:54:07Z</time>
      </trkpt>
      <trkpt lat="46.52381" lon="0.34281">
        <ele>102</ele>
        <time>2020-09-13T07:54:09Z</time>
      </trkpt>
      <trkpt lat="46.52375" lon="0.34285">
        <ele>101</ele>
        <time>2020-09-13T07:54:10Z</time>
      </trkpt>
      <trkpt lat="46.52368" lon="0.34288">
        <ele>100.6</ele>
        <time>2020-09-13T07:54:11Z</time>
      </trkpt>
      <trkpt lat="46.52362" lon="0.34291">
        <ele>99.8</ele>
        <time>2020-09-13T07:54:12Z</time>
      </trkpt>
      <trkpt lat="46.52349" lon="0.34296">
        <ele>98.6</ele>
        <time>2020-09-13T07:54:14Z</time>
      </trkpt>
      <trkpt lat="46.52341" lon="0.34297">
        <ele>98.2</ele>
        <time>2020-09-13T07:54:15Z</time>
      </trkpt>
      <trkpt lat="46.52325" lon="0.34295">
        <ele>97.4</ele>
        <time>2020-09-13T07:54:17Z</time>
      </trkpt>
      <trkpt lat="46.5232" lon="0.34296">
        <ele>97</ele>
        <time>2020-09-13T07:54:18Z</time>
      </trkpt>
      <trkpt lat="46.52316" lon="0.34298">
        <ele>96.4</ele>
        <time>2020-09-13T07:54:19Z</time>
      </trkpt>
      <trkpt lat="46.52316" lon="0.34298">
        <ele>95.4</ele>
        <time>2020-09-13T07:54:20Z</time>
      </trkpt>
      <trkpt lat="46.52296" lon="0.34317">
        <ele>93.6</ele>
        <time>2020-09-13T07:54:23Z</time>
      </trkpt>
      <trkpt lat="46.52282" lon="0.34329">
        <ele>92.2</ele>
        <time>2020-09-13T07:54:25Z</time>
      </trkpt>
      <trkpt lat="46.52268" lon="0.34338">
        <ele>91.2</ele>
        <time>2020-09-13T07:54:27Z</time>
      </trkpt>
      <trkpt lat="46.52261" lon="0.3434">
        <ele>90.6</ele>
        <time>2020-09-13T07:54:28Z</time>
      </trkpt>
      <trkpt lat="46.52248" lon="0.34342">
        <ele>89.4</ele>
        <time>2020-09-13T07:54:30Z</time>
      </trkpt>
      <trkpt lat="46.52241" lon="0.34342">
        <ele>89</ele>
        <time>2020-09-13T07:54:31Z</time>
      </trkpt>
      <trkpt lat="46.52228" lon="0.3434">
        <ele>88.2</ele>
        <time>2020-09-13T07:54:33Z</time>
      </trkpt>
      <trkpt lat="46.52216" lon="0.34336">
        <ele>87.2</ele>
        <time>2020-09-13T07:54:35Z</time>
      </trkpt>
      <trkpt lat="46.52211" lon="0.34334">
        <ele>87</ele>
        <time>2020-09-13T07:54:36Z</time>
      </trkpt>
      <trkpt lat="46.5219" lon="0.34329">
        <ele>87.2</ele>
        <time>2020-09-13T07:54:40Z</time>
      </trkpt>
      <trkpt lat="46.52177" lon="0.34325">
        <ele>87.6</ele>
        <time>2020-09-13T07:54:42Z</time>
      </trkpt>
      <trkpt lat="46.52163" lon="0.34318">
        <ele>87.4</ele>
        <time>2020-09-13T07:54:44Z</time>
      </trkpt>
      <trkpt lat="46.5215" lon="0.3431">
        <ele>86.2</ele>
        <time>2020-09-13T07:54:46Z</time>
      </trkpt>
      <trkpt lat="46.52145" lon="0.3431">
        <ele>85.8</ele>
        <time>2020-09-13T07:54:47Z</time>
      </trkpt>
      <trkpt lat="46.5214" lon="0.3431">
        <ele>85.6</ele>
        <time>2020-09-13T07:54:48Z</time>
      </trkpt>
      <trkpt lat="46.52132" lon="0.3431">
        <ele>86</ele>
        <time>2020-09-13T07:54:50Z</time>
      </trkpt>
      <trkpt lat="46.52125" lon="0.34311">
        <ele>87.2</ele>
        <time>2020-09-13T07:54:52Z</time>
      </trkpt>
      <trkpt lat="46.52116" lon="0.34309">
        <ele>88.4</ele>
        <time>2020-09-13T07:54:54Z</time>
      </trkpt>
      <trkpt lat="46.52107" lon="0.34308">
        <ele>89</ele>
        <time>2020-09-13T07:54:56Z</time>
      </trkpt>
      <trkpt lat="46.52102" lon="0.3431">
        <ele>89</ele>
        <time>2020-09-13T07:54:57Z</time>
      </trkpt>
      <trkpt lat="46.52092" lon="0.34314">
        <ele>88.8</ele>
        <time>2020-09-13T07:54:59Z</time>
      </trkpt>
      <trkpt lat="46.52075" lon="0.34318">
        <ele>88.4</ele>
        <time>2020-09-13T07:55:02Z</time>
      </trkpt>
      <trkpt lat="46.52049" lon="0.34324">
        <ele>87.2</ele>
        <time>2020-09-13T07:55:06Z</time>
      </trkpt>
      <trkpt lat="46.52041" lon="0.34326">
        <ele>86.8</ele>
        <time>2020-09-13T07:55:07Z</time>
      </trkpt>
      <trkpt lat="46.52026" lon="0.34331">
        <ele>86.4</ele>
        <time>2020-09-13T07:55:09Z</time>
      </trkpt>
      <trkpt lat="46.52019" lon="0.34335">
        <ele>86</ele>
        <time>2020-09-13T07:55:10Z</time>
      </trkpt>
      <trkpt lat="46.52012" lon="0.34339">
        <ele>85.8</ele>
        <time>2020-09-13T07:55:11Z</time>
      </trkpt>
      <trkpt lat="46.51973" lon="0.34365">
        <ele>86.2</ele>
        <time>2020-09-13T07:55:18Z</time>
      </trkpt>
      <trkpt lat="46.51969" lon="0.34367">
        <ele>87.2</ele>
        <time>2020-09-13T07:55:20Z</time>
      </trkpt>
      <trkpt lat="46.51958" lon="0.34373">
        <ele>88.6</ele>
        <time>2020-09-13T07:55:22Z</time>
      </trkpt>
      <trkpt lat="46.51955" lon="0.34375">
        <ele>90.8</ele>
        <time>2020-09-13T07:55:23Z</time>
      </trkpt>
      <trkpt lat="46.51955" lon="0.34375">
        <ele>90.8</ele>
        <time>2020-09-13T07:55:24Z</time>
      </trkpt>
      <trkpt lat="46.51946" lon="0.34383">
        <ele>92</ele>
        <time>2020-09-13T07:55:27Z</time>
      </trkpt>
      <trkpt lat="46.51937" lon="0.34392">
        <ele>93</ele>
        <time>2020-09-13T07:55:30Z</time>
      </trkpt>
      <trkpt lat="46.51925" lon="0.34405">
        <ele>94</ele>
        <time>2020-09-13T07:55:34Z</time>
      </trkpt>
      <trkpt lat="46.51921" lon="0.3441">
        <ele>94.8</ele>
        <time>2020-09-13T07:55:36Z</time>
      </trkpt>
      <trkpt lat="46.51919" lon="0.34412">
        <ele>95.2</ele>
        <time>2020-09-13T07:55:37Z</time>
      </trkpt>
      <trkpt lat="46.51911" lon="0.3442">
        <ele>96.2</ele>
        <time>2020-09-13T07:55:41Z</time>
      </trkpt>
      <trkpt lat="46.51903" lon="0.34427">
        <ele>97.4</ele>
        <time>2020-09-13T07:55:45Z</time>
      </trkpt>
      <trkpt lat="46.51898" lon="0.34431">
        <ele>98.4</ele>
        <time>2020-09-13T07:55:49Z</time>
      </trkpt>
      <trkpt lat="46.51894" lon="0.34435">
        <ele>99.4</ele>
        <time>2020-09-13T07:55:52Z</time>
      </trkpt>
      <trkpt lat="46.5189" lon="0.34437">
        <ele>99.6</ele>
        <time>2020-09-13T07:55:53Z</time>
      </trkpt>
      <trkpt lat="46.51882" lon="0.34443">
        <ele>100.8</ele>
        <time>2020-09-13T07:55:58Z</time>
      </trkpt>
      <trkpt lat="46.5188" lon="0.34444">
        <ele>101</ele>
        <time>2020-09-13T07:56:00Z</time>
      </trkpt>
      <trkpt lat="46.51873" lon="0.34449">
        <ele>101.8</ele>
        <time>2020-09-13T07:56:03Z</time>
      </trkpt>
      <trkpt lat="46.51865" lon="0.34456">
        <ele>102.8</ele>
        <time>2020-09-13T07:56:07Z</time>
      </trkpt>
      <trkpt lat="46.51864" lon="0.34458">
        <ele>103</ele>
        <time>2020-09-13T07:56:08Z</time>
      </trkpt>
      <trkpt lat="46.51853" lon="0.34469">
        <ele>104.2</ele>
        <time>2020-09-13T07:56:14Z</time>
      </trkpt>
      <trkpt lat="46.51851" lon="0.34471">
        <ele>104.6</ele>
        <time>2020-09-13T07:56:16Z</time>
      </trkpt>
      <trkpt lat="46.51844" lon="0.34477">
        <ele>105.4</ele>
        <time>2020-09-13T07:56:20Z</time>
      </trkpt>
      <trkpt lat="46.51839" lon="0.34483">
        <ele>106.6</ele>
        <time>2020-09-13T07:56:24Z</time>
      </trkpt>
      <trkpt lat="46.51831" lon="0.34492">
        <ele>107.8</ele>
        <time>2020-09-13T07:56:29Z</time>
      </trkpt>
      <trkpt lat="46.51824" lon="0.345">
        <ele>108.6</ele>
        <time>2020-09-13T07:56:32Z</time>
      </trkpt>
      <trkpt lat="46.51824" lon="0.345">
        <ele>108.8</ele>
        <time>2020-09-13T07:56:33Z</time>
      </trkpt>
      <trkpt lat="46.51816" lon="0.34508">
        <ele>109.8</ele>
        <time>2020-09-13T07:56:37Z</time>
      </trkpt>
      <trkpt lat="46.51806" lon="0.34516">
        <ele>110.8</ele>
        <time>2020-09-13T07:56:42Z</time>
      </trkpt>
      <trkpt lat="46.51796" lon="0.34524">
        <ele>112</ele>
        <time>2020-09-13T07:56:47Z</time>
      </trkpt>
      <trkpt lat="46.51794" lon="0.34526">
        <ele>112.2</ele>
        <time>2020-09-13T07:56:48Z</time>
      </trkpt>
      <trkpt lat="46.51778" lon="0.34537">
        <ele>113</ele>
        <time>2020-09-13T07:56:55Z</time>
      </trkpt>
      <trkpt lat="46.51767" lon="0.34546">
        <ele>114</ele>
        <time>2020-09-13T07:57:00Z</time>
      </trkpt>
      <trkpt lat="46.51761" lon="0.34552">
        <ele>114.4</ele>
        <time>2020-09-13T07:57:03Z</time>
      </trkpt>
      <trkpt lat="46.51749" lon="0.34563">
        <ele>115.2</ele>
        <time>2020-09-13T07:57:08Z</time>
      </trkpt>
      <trkpt lat="46.5174" lon="0.34571">
        <ele>115.8</ele>
        <time>2020-09-13T07:57:11Z</time>
      </trkpt>
      <trkpt lat="46.51713" lon="0.3459">
        <ele>116.2</ele>
        <time>2020-09-13T07:57:19Z</time>
      </trkpt>
      <trkpt lat="46.51689" lon="0.34609">
        <ele>116.4</ele>
        <time>2020-09-13T07:57:25Z</time>
      </trkpt>
      <trkpt lat="46.51685" lon="0.34613">
        <ele>116.4</ele>
        <time>2020-09-13T07:57:26Z</time>
      </trkpt>
      <trkpt lat="46.5165" lon="0.34641">
        <ele>115.8</ele>
        <time>2020-09-13T07:57:33Z</time>
      </trkpt>
      <trkpt lat="46.51646" lon="0.34645">
        <ele>115.8</ele>
        <time>2020-09-13T07:57:34Z</time>
      </trkpt>
      <trkpt lat="46.51642" lon="0.34649">
        <ele>115.6</ele>
        <time>2020-09-13T07:57:35Z</time>
      </trkpt>
      <trkpt lat="46.51634" lon="0.34657">
        <ele>115.6</ele>
        <time>2020-09-13T07:57:37Z</time>
      </trkpt>
      <trkpt lat="46.51626" lon="0.34667">
        <ele>115.6</ele>
        <time>2020-09-13T07:57:39Z</time>
      </trkpt>
      <trkpt lat="46.51609" lon="0.34693">
        <ele>115.8</ele>
        <time>2020-09-13T07:57:44Z</time>
      </trkpt>
      <trkpt lat="46.51594" lon="0.34713">
        <ele>115.6</ele>
        <time>2020-09-13T07:57:46Z</time>
      </trkpt>
      <trkpt lat="46.51583" lon="0.34726">
        <ele>115.6</ele>
        <time>2020-09-13T07:57:48Z</time>
      </trkpt>
      <trkpt lat="46.51562" lon="0.34752">
        <ele>115.8</ele>
        <time>2020-09-13T07:57:54Z</time>
      </trkpt>
      <trkpt lat="46.5155" lon="0.34764">
        <ele>115.8</ele>
        <time>2020-09-13T07:57:58Z</time>
      </trkpt>
      <trkpt lat="46.51545" lon="0.34772">
        <ele>116</ele>
        <time>2020-09-13T07:57:59Z</time>
      </trkpt>
      <trkpt lat="46.51528" lon="0.34802">
        <ele>116.6</ele>
        <time>2020-09-13T07:58:04Z</time>
      </trkpt>
      <trkpt lat="46.51525" lon="0.3481">
        <ele>116.8</ele>
        <time>2020-09-13T07:58:05Z</time>
      </trkpt>
      <trkpt lat="46.51517" lon="0.34826">
        <ele>117.4</ele>
        <time>2020-09-13T07:58:07Z</time>
      </trkpt>
      <trkpt lat="46.51496" lon="0.3486">
        <ele>117</ele>
        <time>2020-09-13T07:58:11Z</time>
      </trkpt>
      <trkpt lat="46.5147" lon="0.34894">
        <ele>116.2</ele>
        <time>2020-09-13T07:58:15Z</time>
      </trkpt>
      <trkpt lat="46.51457" lon="0.34909">
        <ele>115.6</ele>
        <time>2020-09-13T07:58:17Z</time>
      </trkpt>
      <trkpt lat="46.51439" lon="0.34928">
        <ele>115</ele>
        <time>2020-09-13T07:58:20Z</time>
      </trkpt>
      <trkpt lat="46.51429" lon="0.34941">
        <ele>114.6</ele>
        <time>2020-09-13T07:58:22Z</time>
      </trkpt>
      <trkpt lat="46.51421" lon="0.34955">
        <ele>113.8</ele>
        <time>2020-09-13T07:58:24Z</time>
      </trkpt>
      <trkpt lat="46.51413" lon="0.34967">
        <ele>112.4</ele>
        <time>2020-09-13T07:58:27Z</time>
      </trkpt>
      <trkpt lat="46.5141" lon="0.34973">
        <ele>111.6</ele>
        <time>2020-09-13T07:58:28Z</time>
      </trkpt>
      <trkpt lat="46.51405" lon="0.34981">
        <ele>111</ele>
        <time>2020-09-13T07:58:29Z</time>
      </trkpt>
      <trkpt lat="46.51395" lon="0.34994">
        <ele>109.8</ele>
        <time>2020-09-13T07:58:32Z</time>
      </trkpt>
      <trkpt lat="46.51392" lon="0.34998">
        <ele>109.8</ele>
        <time>2020-09-13T07:58:33Z</time>
      </trkpt>
      <trkpt lat="46.51381" lon="0.3501">
        <ele>109.8</ele>
        <time>2020-09-13T07:58:36Z</time>
      </trkpt>
      <trkpt lat="46.51372" lon="0.35016">
        <ele>110.8</ele>
        <time>2020-09-13T07:58:38Z</time>
      </trkpt>
      <trkpt lat="46.51372" lon="0.35016">
        <ele>111.8</ele>
        <time>2020-09-13T07:58:39Z</time>
      </trkpt>
      <trkpt lat="46.51355" lon="0.35024">
        <ele>112.6</ele>
        <time>2020-09-13T07:58:42Z</time>
      </trkpt>
      <trkpt lat="46.51351" lon="0.35026">
        <ele>113</ele>
        <time>2020-09-13T07:58:43Z</time>
      </trkpt>
      <trkpt lat="46.51347" lon="0.35029">
        <ele>113.4</ele>
        <time>2020-09-13T07:58:44Z</time>
      </trkpt>
      <trkpt lat="46.51343" lon="0.35031">
        <ele>113.8</ele>
        <time>2020-09-13T07:58:45Z</time>
      </trkpt>
      <trkpt lat="46.5134" lon="0.35032">
        <ele>114.4</ele>
        <time>2020-09-13T07:58:46Z</time>
      </trkpt>
      <trkpt lat="46.51337" lon="0.35034">
        <ele>114.6</ele>
        <time>2020-09-13T07:58:47Z</time>
      </trkpt>
      <trkpt lat="46.51336" lon="0.35036">
        <ele>115</ele>
        <time>2020-09-13T07:58:48Z</time>
      </trkpt>
      <trkpt lat="46.51336" lon="0.35037">
        <ele>115.2</ele>
        <time>2020-09-13T07:58:49Z</time>
      </trkpt>
      <trkpt lat="46.51336" lon="0.35038">
        <ele>115.4</ele>
        <time>2020-09-13T07:58:50Z</time>
      </trkpt>
      <trkpt lat="46.51337" lon="0.35042">
        <ele>115.6</ele>
        <time>2020-09-13T07:58:52Z</time>
      </trkpt>
      <trkpt lat="46.51341" lon="0.35052">
        <ele>116.2</ele>
        <time>2020-09-13T07:58:57Z</time>
      </trkpt>
      <trkpt lat="46.51341" lon="0.35063">
        <ele>116.6</ele>
        <time>2020-09-13T07:58:59Z</time>
      </trkpt>
      <trkpt lat="46.51346" lon="0.35088">
        <ele>117.8</ele>
        <time>2020-09-13T07:59:04Z</time>
      </trkpt>
      <trkpt lat="46.51347" lon="0.35092">
        <ele>118</ele>
        <time>2020-09-13T07:59:05Z</time>
      </trkpt>
      <trkpt lat="46.51353" lon="0.35108">
        <ele>119</ele>
        <time>2020-09-13T07:59:09Z</time>
      </trkpt>
      <trkpt lat="46.51354" lon="0.35117">
        <ele>119.2</ele>
        <time>2020-09-13T07:59:11Z</time>
      </trkpt>
      <trkpt lat="46.51358" lon="0.35142">
        <ele>120</ele>
        <time>2020-09-13T07:59:16Z</time>
      </trkpt>
      <trkpt lat="46.51358" lon="0.35147">
        <ele>120.4</ele>
        <time>2020-09-13T07:59:17Z</time>
      </trkpt>
      <trkpt lat="46.51359" lon="0.35177">
        <ele>121</ele>
        <time>2020-09-13T07:59:22Z</time>
      </trkpt>
      <trkpt lat="46.51358" lon="0.35181">
        <ele>121.4</ele>
        <time>2020-09-13T07:59:24Z</time>
      </trkpt>
      <trkpt lat="46.51355" lon="0.35206">
        <ele>122.2</ele>
        <time>2020-09-13T07:59:28Z</time>
      </trkpt>
      <trkpt lat="46.51353" lon="0.35217">
        <ele>122.6</ele>
        <time>2020-09-13T07:59:30Z</time>
      </trkpt>
      <trkpt lat="46.51352" lon="0.35233">
        <ele>123.2</ele>
        <time>2020-09-13T07:59:33Z</time>
      </trkpt>
      <trkpt lat="46.51351" lon="0.35252">
        <ele>124</ele>
        <time>2020-09-13T07:59:37Z</time>
      </trkpt>
      <trkpt lat="46.51347" lon="0.35254">
        <ele>124.2</ele>
        <time>2020-09-13T07:59:39Z</time>
      </trkpt>
      <trkpt lat="46.51344" lon="0.35255">
        <ele>124.4</ele>
        <time>2020-09-13T07:59:40Z</time>
      </trkpt>
      <trkpt lat="46.51322" lon="0.35257">
        <ele>124.4</ele>
        <time>2020-09-13T07:59:45Z</time>
      </trkpt>
      <trkpt lat="46.51317" lon="0.35257">
        <ele>124.4</ele>
        <time>2020-09-13T07:59:46Z</time>
      </trkpt>
      <trkpt lat="46.51302" lon="0.35262">
        <ele>124</ele>
        <time>2020-09-13T07:59:49Z</time>
      </trkpt>
      <trkpt lat="46.51284" lon="0.35268">
        <ele>123.4</ele>
        <time>2020-09-13T07:59:52Z</time>
      </trkpt>
      <trkpt lat="46.51277" lon="0.3527">
        <ele>123.2</ele>
        <time>2020-09-13T07:59:53Z</time>
      </trkpt>
      <trkpt lat="46.51272" lon="0.35271">
        <ele>123</ele>
        <time>2020-09-13T07:59:54Z</time>
      </trkpt>
      <trkpt lat="46.51268" lon="0.35271">
        <ele>122.8</ele>
        <time>2020-09-13T07:59:55Z</time>
      </trkpt>
      <trkpt lat="46.51263" lon="0.35273">
        <ele>122.4</ele>
        <time>2020-09-13T07:59:57Z</time>
      </trkpt>
      <trkpt lat="46.51262" lon="0.35275">
        <ele>122.2</ele>
        <time>2020-09-13T07:59:58Z</time>
      </trkpt>
      <trkpt lat="46.51266" lon="0.35279">
        <ele>122</ele>
        <time>2020-09-13T08:00:00Z</time>
      </trkpt>
      <trkpt lat="46.51273" lon="0.35289">
        <ele>122</ele>
        <time>2020-09-13T08:00:04Z</time>
      </trkpt>
      <trkpt lat="46.51274" lon="0.35293">
        <ele>122</ele>
        <time>2020-09-13T08:00:05Z</time>
      </trkpt>
      <trkpt lat="46.51275" lon="0.35306">
        <ele>122.2</ele>
        <time>2020-09-13T08:00:10Z</time>
      </trkpt>
      <trkpt lat="46.51278" lon="0.35328">
        <ele>122.4</ele>
        <time>2020-09-13T08:00:14Z</time>
      </trkpt>
      <trkpt lat="46.51279" lon="0.35335">
        <ele>122.4</ele>
        <time>2020-09-13T08:00:15Z</time>
      </trkpt>
      <trkpt lat="46.51283" lon="0.35358">
        <ele>123</ele>
        <time>2020-09-13T08:00:18Z</time>
      </trkpt>
      <trkpt lat="46.51285" lon="0.35366">
        <ele>123.4</ele>
        <time>2020-09-13T08:00:19Z</time>
      </trkpt>
      <trkpt lat="46.51297" lon="0.35412">
        <ele>124.4</ele>
        <time>2020-09-13T08:00:25Z</time>
      </trkpt>
      <trkpt lat="46.51301" lon="0.35427">
        <ele>124.8</ele>
        <time>2020-09-13T08:00:27Z</time>
      </trkpt>
      <trkpt lat="46.5131" lon="0.35463">
        <ele>125.6</ele>
        <time>2020-09-13T08:00:32Z</time>
      </trkpt>
      <trkpt lat="46.51316" lon="0.35484">
        <ele>126.4</ele>
        <time>2020-09-13T08:00:36Z</time>
      </trkpt>
      <trkpt lat="46.51322" lon="0.35505">
        <ele>126.6</ele>
        <time>2020-09-13T08:00:38Z</time>
      </trkpt>
      <trkpt lat="46.51333" lon="0.35548">
        <ele>127.6</ele>
        <time>2020-09-13T08:00:44Z</time>
      </trkpt>
      <trkpt lat="46.5134" lon="0.35573">
        <ele>128</ele>
        <time>2020-09-13T08:00:48Z</time>
      </trkpt>
      <trkpt lat="46.51339" lon="0.35578">
        <ele>128.2</ele>
        <time>2020-09-13T08:00:49Z</time>
      </trkpt>
      <trkpt lat="46.51337" lon="0.35582">
        <ele>128.2</ele>
        <time>2020-09-13T08:00:50Z</time>
      </trkpt>
      <trkpt lat="46.51333" lon="0.35584">
        <ele>128.2</ele>
        <time>2020-09-13T08:00:52Z</time>
      </trkpt>
      <trkpt lat="46.51328" lon="0.35584">
        <ele>128.4</ele>
        <time>2020-09-13T08:00:54Z</time>
      </trkpt>
      <trkpt lat="46.51325" lon="0.35583">
        <ele>128.6</ele>
        <time>2020-09-13T08:00:55Z</time>
      </trkpt>
      <trkpt lat="46.51321" lon="0.35579">
        <ele>128.8</ele>
        <time>2020-09-13T08:00:57Z</time>
      </trkpt>
      <trkpt lat="46.51319" lon="0.35578">
        <ele>128.8</ele>
        <time>2020-09-13T08:00:58Z</time>
      </trkpt>
      <trkpt lat="46.51318" lon="0.35578">
        <ele>128.8</ele>
        <time>2020-09-13T08:00:59Z</time>
      </trkpt>
      <trkpt lat="46.5131" lon="0.35578">
        <ele>128.8</ele>
        <time>2020-09-13T08:01:02Z</time>
      </trkpt>
      <trkpt lat="46.51302" lon="0.35578">
        <ele>129</ele>
        <time>2020-09-13T08:01:04Z</time>
      </trkpt>
      <trkpt lat="46.51297" lon="0.3558">
        <ele>129</ele>
        <time>2020-09-13T08:01:05Z</time>
      </trkpt>
      <trkpt lat="46.51264" lon="0.35602">
        <ele>129.6</ele>
        <time>2020-09-13T08:01:12Z</time>
      </trkpt>
      <trkpt lat="46.51239" lon="0.35614">
        <ele>129.8</ele>
        <time>2020-09-13T08:01:17Z</time>
      </trkpt>
      <trkpt lat="46.5122" lon="0.35626">
        <ele>130</ele>
        <time>2020-09-13T08:01:21Z</time>
      </trkpt>
      <trkpt lat="46.51184" lon="0.35645">
        <ele>130.4</ele>
        <time>2020-09-13T08:01:28Z</time>
      </trkpt>
      <trkpt lat="46.51152" lon="0.35661">
        <ele>130.6</ele>
        <time>2020-09-13T08:01:34Z</time>
      </trkpt>
      <trkpt lat="46.51147" lon="0.35663">
        <ele>130.8</ele>
        <time>2020-09-13T08:01:35Z</time>
      </trkpt>
      <trkpt lat="46.51121" lon="0.35674">
        <ele>131.4</ele>
        <time>2020-09-13T08:01:40Z</time>
      </trkpt>
      <trkpt lat="46.511" lon="0.35685">
        <ele>131.4</ele>
        <time>2020-09-13T08:01:44Z</time>
      </trkpt>
      <trkpt lat="46.5109" lon="0.35692">
        <ele>131.4</ele>
        <time>2020-09-13T08:01:46Z</time>
      </trkpt>
      <trkpt lat="46.51085" lon="0.35694">
        <ele>131.4</ele>
        <time>2020-09-13T08:01:47Z</time>
      </trkpt>
      <trkpt lat="46.51081" lon="0.35695">
        <ele>131.2</ele>
        <time>2020-09-13T08:01:48Z</time>
      </trkpt>
      <trkpt lat="46.51072" lon="0.35695">
        <ele>131</ele>
        <time>2020-09-13T08:01:50Z</time>
      </trkpt>
      <trkpt lat="46.51068" lon="0.35708">
        <ele>131</ele>
        <time>2020-09-13T08:01:53Z</time>
      </trkpt>
      <trkpt lat="46.51061" lon="0.35724">
        <ele>130.8</ele>
        <time>2020-09-13T08:01:57Z</time>
      </trkpt>
      <trkpt lat="46.51063" lon="0.35746">
        <ele>130.6</ele>
        <time>2020-09-13T08:02:01Z</time>
      </trkpt>
      <trkpt lat="46.51061" lon="0.35759">
        <ele>130.6</ele>
        <time>2020-09-13T08:02:03Z</time>
      </trkpt>
      <trkpt lat="46.51058" lon="0.35774">
        <ele>130.8</ele>
        <time>2020-09-13T08:02:05Z</time>
      </trkpt>
      <trkpt lat="46.51045" lon="0.35821">
        <ele>131.8</ele>
        <time>2020-09-13T08:02:11Z</time>
      </trkpt>
      <trkpt lat="46.51042" lon="0.35829">
        <ele>132</ele>
        <time>2020-09-13T08:02:12Z</time>
      </trkpt>
      <trkpt lat="46.51037" lon="0.35843">
        <ele>132</ele>
        <time>2020-09-13T08:02:14Z</time>
      </trkpt>
      <trkpt lat="46.51029" lon="0.35862">
        <ele>132</ele>
        <time>2020-09-13T08:02:17Z</time>
      </trkpt>
      <trkpt lat="46.51018" lon="0.35869">
        <ele>132</ele>
        <time>2020-09-13T08:02:20Z</time>
      </trkpt>
      <trkpt lat="46.51002" lon="0.35857">
        <ele>132</ele>
        <time>2020-09-13T08:02:24Z</time>
      </trkpt>
      <trkpt lat="46.50971" lon="0.35835">
        <ele>132.6</ele>
        <time>2020-09-13T08:02:31Z</time>
      </trkpt>
      <trkpt lat="46.50936" lon="0.35813">
        <ele>132.4</ele>
        <time>2020-09-13T08:02:38Z</time>
      </trkpt>
      <trkpt lat="46.50906" lon="0.35797">
        <ele>132.6</ele>
        <time>2020-09-13T08:02:44Z</time>
      </trkpt>
      <trkpt lat="46.50901" lon="0.35795">
        <ele>132.8</ele>
        <time>2020-09-13T08:02:45Z</time>
      </trkpt>
      <trkpt lat="46.50891" lon="0.35801">
        <ele>132.8</ele>
        <time>2020-09-13T08:02:47Z</time>
      </trkpt>
      <trkpt lat="46.50887" lon="0.35806">
        <ele>133</ele>
        <time>2020-09-13T08:02:48Z</time>
      </trkpt>
      <trkpt lat="46.50883" lon="0.35812">
        <ele>133</ele>
        <time>2020-09-13T08:02:49Z</time>
      </trkpt>
      <trkpt lat="46.50878" lon="0.35827">
        <ele>133.2</ele>
        <time>2020-09-13T08:02:51Z</time>
      </trkpt>
      <trkpt lat="46.50875" lon="0.35835">
        <ele>133.2</ele>
        <time>2020-09-13T08:02:52Z</time>
      </trkpt>
      <trkpt lat="46.50869" lon="0.3585">
        <ele>133.6</ele>
        <time>2020-09-13T08:02:54Z</time>
      </trkpt>
      <trkpt lat="46.50865" lon="0.35857">
        <ele>133.6</ele>
        <time>2020-09-13T08:02:55Z</time>
      </trkpt>
      <trkpt lat="46.50855" lon="0.35877">
        <ele>133.4</ele>
        <time>2020-09-13T08:02:58Z</time>
      </trkpt>
      <trkpt lat="46.50855" lon="0.35877">
        <ele>133</ele>
        <time>2020-09-13T08:02:59Z</time>
      </trkpt>
      <trkpt lat="46.50847" lon="0.35889">
        <ele>132.8</ele>
        <time>2020-09-13T08:03:00Z</time>
      </trkpt>
      <trkpt lat="46.50845" lon="0.35905">
        <ele>132.6</ele>
        <time>2020-09-13T08:03:02Z</time>
      </trkpt>
      <trkpt lat="46.5085" lon="0.3594">
        <ele>132.8</ele>
        <time>2020-09-13T08:03:06Z</time>
      </trkpt>
      <trkpt lat="46.50852" lon="0.35958">
        <ele>132.2</ele>
        <time>2020-09-13T08:03:08Z</time>
      </trkpt>
      <trkpt lat="46.50852" lon="0.35964">
        <ele>131.6</ele>
        <time>2020-09-13T08:03:09Z</time>
      </trkpt>
      <trkpt lat="46.50853" lon="0.3597">
        <ele>131.2</ele>
        <time>2020-09-13T08:03:10Z</time>
      </trkpt>
      <trkpt lat="46.50849" lon="0.35976">
        <ele>130.6</ele>
        <time>2020-09-13T08:03:12Z</time>
      </trkpt>
      <trkpt lat="46.50845" lon="0.35978">
        <ele>130.2</ele>
        <time>2020-09-13T08:03:13Z</time>
      </trkpt>
      <trkpt lat="46.50841" lon="0.35981">
        <ele>130</ele>
        <time>2020-09-13T08:03:14Z</time>
      </trkpt>
      <trkpt lat="46.50827" lon="0.35993">
        <ele>129.6</ele>
        <time>2020-09-13T08:03:17Z</time>
      </trkpt>
      <trkpt lat="46.50817" lon="0.36003">
        <ele>129.6</ele>
        <time>2020-09-13T08:03:19Z</time>
      </trkpt>
      <trkpt lat="46.50812" lon="0.36007">
        <ele>129.6</ele>
        <time>2020-09-13T08:03:20Z</time>
      </trkpt>
      <trkpt lat="46.50807" lon="0.36011">
        <ele>129.4</ele>
        <time>2020-09-13T08:03:21Z</time>
      </trkpt>
      <trkpt lat="46.50802" lon="0.36014">
        <ele>129.2</ele>
        <time>2020-09-13T08:03:23Z</time>
      </trkpt>
      <trkpt lat="46.50789" lon="0.36024">
        <ele>129</ele>
        <time>2020-09-13T08:03:25Z</time>
      </trkpt>
      <trkpt lat="46.50786" lon="0.3603">
        <ele>129.2</ele>
        <time>2020-09-13T08:03:26Z</time>
      </trkpt>
      <trkpt lat="46.50781" lon="0.36041">
        <ele>129.2</ele>
        <time>2020-09-13T08:03:30Z</time>
      </trkpt>
      <trkpt lat="46.50778" lon="0.36052">
        <ele>128.8</ele>
        <time>2020-09-13T08:03:32Z</time>
      </trkpt>
      <trkpt lat="46.50778" lon="0.36059">
        <ele>128.4</ele>
        <time>2020-09-13T08:03:33Z</time>
      </trkpt>
      <trkpt lat="46.50779" lon="0.36072">
        <ele>127.2</ele>
        <time>2020-09-13T08:03:35Z</time>
      </trkpt>
      <trkpt lat="46.5078" lon="0.3609">
        <ele>126.2</ele>
        <time>2020-09-13T08:03:37Z</time>
      </trkpt>
      <trkpt lat="46.50779" lon="0.36099">
        <ele>126</ele>
        <time>2020-09-13T08:03:38Z</time>
      </trkpt>
      <trkpt lat="46.50776" lon="0.36106">
        <ele>125.8</ele>
        <time>2020-09-13T08:03:39Z</time>
      </trkpt>
      <trkpt lat="46.50767" lon="0.36118">
        <ele>125.8</ele>
        <time>2020-09-13T08:03:41Z</time>
      </trkpt>
      <trkpt lat="46.5076" lon="0.36129">
        <ele>126.6</ele>
        <time>2020-09-13T08:03:44Z</time>
      </trkpt>
      <trkpt lat="46.50754" lon="0.36149">
        <ele>127</ele>
        <time>2020-09-13T08:03:46Z</time>
      </trkpt>
      <trkpt lat="46.50745" lon="0.36202">
        <ele>127.2</ele>
        <time>2020-09-13T08:03:52Z</time>
      </trkpt>
      <trkpt lat="46.50736" lon="0.36265">
        <ele>127.2</ele>
        <time>2020-09-13T08:03:58Z</time>
      </trkpt>
      <trkpt lat="46.50725" lon="0.36345">
        <ele>126</ele>
        <time>2020-09-13T08:04:05Z</time>
      </trkpt>
      <trkpt lat="46.50722" lon="0.36368">
        <ele>125.8</ele>
        <time>2020-09-13T08:04:07Z</time>
      </trkpt>
      <trkpt lat="46.50716" lon="0.36405">
        <ele>125</ele>
        <time>2020-09-13T08:04:10Z</time>
      </trkpt>
      <trkpt lat="46.5071" lon="0.36442">
        <ele>123.8</ele>
        <time>2020-09-13T08:04:13Z</time>
      </trkpt>
      <trkpt lat="46.50709" lon="0.36455">
        <ele>123.2</ele>
        <time>2020-09-13T08:04:14Z</time>
      </trkpt>
      <trkpt lat="46.50705" lon="0.36481">
        <ele>122.6</ele>
        <time>2020-09-13T08:04:16Z</time>
      </trkpt>
      <trkpt lat="46.50697" lon="0.36534">
        <ele>121.6</ele>
        <time>2020-09-13T08:04:20Z</time>
      </trkpt>
      <trkpt lat="46.50695" lon="0.36548">
        <ele>121.2</ele>
        <time>2020-09-13T08:04:21Z</time>
      </trkpt>
      <trkpt lat="46.50691" lon="0.36573">
        <ele>120.6</ele>
        <time>2020-09-13T08:04:24Z</time>
      </trkpt>
      <trkpt lat="46.50684" lon="0.36594">
        <ele>120.2</ele>
        <time>2020-09-13T08:04:26Z</time>
      </trkpt>
      <trkpt lat="46.50675" lon="0.36606">
        <ele>120</ele>
        <time>2020-09-13T08:04:28Z</time>
      </trkpt>
      <trkpt lat="46.50669" lon="0.36611">
        <ele>120</ele>
        <time>2020-09-13T08:04:29Z</time>
      </trkpt>
      <trkpt lat="46.50656" lon="0.36622">
        <ele>120.4</ele>
        <time>2020-09-13T08:04:32Z</time>
      </trkpt>
      <trkpt lat="46.50651" lon="0.36632">
        <ele>120.8</ele>
        <time>2020-09-13T08:04:33Z</time>
      </trkpt>
      <trkpt lat="46.50648" lon="0.36647">
        <ele>121.6</ele>
        <time>2020-09-13T08:04:36Z</time>
      </trkpt>
      <trkpt lat="46.50646" lon="0.36661">
        <ele>122.4</ele>
        <time>2020-09-13T08:04:40Z</time>
      </trkpt>
      <trkpt lat="46.50646" lon="0.36665">
        <ele>122.6</ele>
        <time>2020-09-13T08:04:41Z</time>
      </trkpt>
      <trkpt lat="46.50644" lon="0.36682">
        <ele>123.6</ele>
        <time>2020-09-13T08:04:45Z</time>
      </trkpt>
      <trkpt lat="46.50643" lon="0.36697">
        <ele>124.6</ele>
        <time>2020-09-13T08:04:48Z</time>
      </trkpt>
      <trkpt lat="46.50642" lon="0.36702">
        <ele>124.8</ele>
        <time>2020-09-13T08:04:49Z</time>
      </trkpt>
      <trkpt lat="46.50639" lon="0.36731">
        <ele>126</ele>
        <time>2020-09-13T08:04:54Z</time>
      </trkpt>
      <trkpt lat="46.5064" lon="0.36738">
        <ele>126.4</ele>
        <time>2020-09-13T08:04:56Z</time>
      </trkpt>
      <trkpt lat="46.50648" lon="0.3675">
        <ele>127</ele>
        <time>2020-09-13T08:05:02Z</time>
      </trkpt>
      <trkpt lat="46.50648" lon="0.36753">
        <ele>127.2</ele>
        <time>2020-09-13T08:05:03Z</time>
      </trkpt>
      <trkpt lat="46.50646" lon="0.36763">
        <ele>127.4</ele>
        <time>2020-09-13T08:05:07Z</time>
      </trkpt>
      <trkpt lat="46.50641" lon="0.3678">
        <ele>128</ele>
        <time>2020-09-13T08:05:12Z</time>
      </trkpt>
      <trkpt lat="46.50641" lon="0.36793">
        <ele>128.2</ele>
        <time>2020-09-13T08:05:18Z</time>
      </trkpt>
      <trkpt lat="46.50642" lon="0.36797">
        <ele>128.4</ele>
        <time>2020-09-13T08:05:23Z</time>
      </trkpt>
      <trkpt lat="46.50642" lon="0.36797">
        <ele>128.6</ele>
        <time>2020-09-13T08:05:44Z</time>
      </trkpt>
      <trkpt lat="46.50642" lon="0.36797">
        <ele>128.6</ele>
        <time>2020-09-13T08:05:49Z</time>
      </trkpt>
      <trkpt lat="46.50642" lon="0.36797">
        <ele>128.6</ele>
        <time>2020-09-13T08:06:15Z</time>
      </trkpt>
      <trkpt lat="46.50642" lon="0.36797">
        <ele>128.6</ele>
        <time>2020-09-13T08:06:20Z</time>
      </trkpt>
      <trkpt lat="46.50642" lon="0.36797">
        <ele>128.4</ele>
        <time>2020-09-13T08:06:47Z</time>
      </trkpt>
      <trkpt lat="46.50642" lon="0.36797">
        <ele>128.4</ele>
        <time>2020-09-13T08:06:54Z</time>
      </trkpt>
      <trkpt lat="46.50642" lon="0.36797">
        <ele>128.4</ele>
        <time>2020-09-13T08:07:14Z</time>
      </trkpt>
      <trkpt lat="46.50642" lon="0.36798">
        <ele>128.4</ele>
        <time>2020-09-13T08:07:29Z</time>
      </trkpt>
      <trkpt lat="46.50642" lon="0.36798">
        <ele>128.4</ele>
        <time>2020-09-13T08:07:31Z</time>
      </trkpt>
      <trkpt lat="46.50642" lon="0.36798">
        <ele>128.4</ele>
        <time>2020-09-13T08:07:59Z</time>
      </trkpt>
      <trkpt lat="46.50642" lon="0.36799">
        <ele>128.4</ele>
        <time>2020-09-13T08:08:09Z</time>
      </trkpt>
      <trkpt lat="46.50642" lon="0.36802">
        <ele>128.4</ele>
        <time>2020-09-13T08:08:12Z</time>
      </trkpt>
      <trkpt lat="46.50641" lon="0.36799">
        <ele>128.4</ele>
        <time>2020-09-13T08:08:17Z</time>
      </trkpt>
      <trkpt lat="46.50641" lon="0.36798">
        <ele>128.4</ele>
        <time>2020-09-13T08:08:18Z</time>
      </trkpt>
      <trkpt lat="46.50641" lon="0.36798">
        <ele>128.6</ele>
        <time>2020-09-13T08:08:19Z</time>
      </trkpt>
      <trkpt lat="46.50642" lon="0.36786">
        <ele>128.8</ele>
        <time>2020-09-13T08:08:23Z</time>
      </trkpt>
      <trkpt lat="46.5065" lon="0.36756">
        <ele>128.4</ele>
        <time>2020-09-13T08:08:28Z</time>
      </trkpt>
      <trkpt lat="46.50652" lon="0.3675">
        <ele>128.2</ele>
        <time>2020-09-13T08:08:30Z</time>
      </trkpt>
      <trkpt lat="46.50653" lon="0.36748">
        <ele>128.2</ele>
        <time>2020-09-13T08:08:31Z</time>
      </trkpt>
      <trkpt lat="46.50654" lon="0.36748">
        <ele>128</ele>
        <time>2020-09-13T08:08:32Z</time>
      </trkpt>
      <trkpt lat="46.50663" lon="0.36749">
        <ele>128</ele>
        <time>2020-09-13T08:08:35Z</time>
      </trkpt>
      <trkpt lat="46.50666" lon="0.3675">
        <ele>128</ele>
        <time>2020-09-13T08:08:36Z</time>
      </trkpt>
      <trkpt lat="46.5068" lon="0.36754">
        <ele>128.4</ele>
        <time>2020-09-13T08:08:40Z</time>
      </trkpt>
      <trkpt lat="46.50702" lon="0.36769">
        <ele>128.6</ele>
        <time>2020-09-13T08:08:45Z</time>
      </trkpt>
      <trkpt lat="46.50706" lon="0.36771">
        <ele>128.8</ele>
        <time>2020-09-13T08:08:46Z</time>
      </trkpt>
      <trkpt lat="46.50717" lon="0.36777">
        <ele>128.6</ele>
        <time>2020-09-13T08:08:50Z</time>
      </trkpt>
      <trkpt lat="46.50726" lon="0.36776">
        <ele>129</ele>
        <time>2020-09-13T08:08:53Z</time>
      </trkpt>
      <trkpt lat="46.5073" lon="0.36776">
        <ele>129</ele>
        <time>2020-09-13T08:08:54Z</time>
      </trkpt>
      <trkpt lat="46.50734" lon="0.36776">
        <ele>129.2</ele>
        <time>2020-09-13T08:08:55Z</time>
      </trkpt>
      <trkpt lat="46.50763" lon="0.36772">
        <ele>129</ele>
        <time>2020-09-13T08:09:01Z</time>
      </trkpt>
      <trkpt lat="46.50797" lon="0.36771">
        <ele>128.6</ele>
        <time>2020-09-13T08:09:07Z</time>
      </trkpt>
      <trkpt lat="46.50819" lon="0.36772">
        <ele>128.2</ele>
        <time>2020-09-13T08:09:11Z</time>
      </trkpt>
      <trkpt lat="46.50824" lon="0.36774">
        <ele>128.2</ele>
        <time>2020-09-13T08:09:12Z</time>
      </trkpt>
      <trkpt lat="46.50841" lon="0.36778">
        <ele>128.4</ele>
        <time>2020-09-13T08:09:14Z</time>
      </trkpt>
      <trkpt lat="46.50841" lon="0.36778">
        <ele>128.4</ele>
        <time>2020-09-13T08:09:15Z</time>
      </trkpt>
      <trkpt lat="46.50848" lon="0.36782">
        <ele>128.4</ele>
        <time>2020-09-13T08:09:16Z</time>
      </trkpt>
      <trkpt lat="46.50853" lon="0.36785">
        <ele>128.4</ele>
        <time>2020-09-13T08:09:17Z</time>
      </trkpt>
      <trkpt lat="46.50867" lon="0.36792">
        <ele>128.6</ele>
        <time>2020-09-13T08:09:19Z</time>
      </trkpt>
      <trkpt lat="46.50891" lon="0.36798">
        <ele>128.6</ele>
        <time>2020-09-13T08:09:22Z</time>
      </trkpt>
      <trkpt lat="46.50913" lon="0.36807">
        <ele>128.2</ele>
        <time>2020-09-13T08:09:26Z</time>
      </trkpt>
      <trkpt lat="46.50923" lon="0.36813">
        <ele>128.2</ele>
        <time>2020-09-13T08:09:28Z</time>
      </trkpt>
      <trkpt lat="46.50939" lon="0.36817">
        <ele>128</ele>
        <time>2020-09-13T08:09:31Z</time>
      </trkpt>
      <trkpt lat="46.50942" lon="0.36818">
        <ele>128</ele>
        <time>2020-09-13T08:09:32Z</time>
      </trkpt>
      <trkpt lat="46.50947" lon="0.36814">
        <ele>127.8</ele>
        <time>2020-09-13T08:09:35Z</time>
      </trkpt>
      <trkpt lat="46.50947" lon="0.36814">
        <ele>128</ele>
        <time>2020-09-13T08:09:36Z</time>
      </trkpt>
      <trkpt lat="46.50937" lon="0.36807">
        <ele>128.2</ele>
        <time>2020-09-13T08:09:39Z</time>
      </trkpt>
      <trkpt lat="46.50933" lon="0.36807">
        <ele>128.2</ele>
        <time>2020-09-13T08:09:40Z</time>
      </trkpt>
      <trkpt lat="46.50927" lon="0.36806">
        <ele>128.2</ele>
        <time>2020-09-13T08:09:42Z</time>
      </trkpt>
      <trkpt lat="46.50915" lon="0.36805">
        <ele>128.4</ele>
        <time>2020-09-13T08:09:46Z</time>
      </trkpt>
      <trkpt lat="46.50907" lon="0.36802">
        <ele>128.4</ele>
        <time>2020-09-13T08:09:48Z</time>
      </trkpt>
      <trkpt lat="46.50891" lon="0.36791">
        <ele>128.6</ele>
        <time>2020-09-13T08:09:51Z</time>
      </trkpt>
      <trkpt lat="46.50874" lon="0.36787">
        <ele>128.2</ele>
        <time>2020-09-13T08:09:56Z</time>
      </trkpt>
      <trkpt lat="46.50866" lon="0.36787">
        <ele>127.8</ele>
        <time>2020-09-13T08:09:58Z</time>
      </trkpt>
      <trkpt lat="46.50858" lon="0.36789">
        <ele>127.8</ele>
        <time>2020-09-13T08:10:00Z</time>
      </trkpt>
      <trkpt lat="46.50855" lon="0.36791">
        <ele>127.8</ele>
        <time>2020-09-13T08:10:01Z</time>
      </trkpt>
      <trkpt lat="46.50854" lon="0.36794">
        <ele>127.8</ele>
        <time>2020-09-13T08:10:02Z</time>
      </trkpt>
      <trkpt lat="46.50853" lon="0.36801">
        <ele>128.2</ele>
        <time>2020-09-13T08:10:05Z</time>
      </trkpt>
      <trkpt lat="46.50857" lon="0.36811">
        <ele>128.8</ele>
        <time>2020-09-13T08:10:07Z</time>
      </trkpt>
      <trkpt lat="46.50863" lon="0.36813">
        <ele>129.2</ele>
        <time>2020-09-13T08:10:09Z</time>
      </trkpt>
      <trkpt lat="46.50873" lon="0.36816">
        <ele>129.4</ele>
        <time>2020-09-13T08:10:13Z</time>
      </trkpt>
      <trkpt lat="46.50879" lon="0.36821">
        <ele>129.2</ele>
        <time>2020-09-13T08:10:15Z</time>
      </trkpt>
      <trkpt lat="46.50882" lon="0.36825">
        <ele>129.4</ele>
        <time>2020-09-13T08:10:16Z</time>
      </trkpt>
      <trkpt lat="46.50892" lon="0.36839">
        <ele>129.4</ele>
        <time>2020-09-13T08:10:19Z</time>
      </trkpt>
      <trkpt lat="46.50895" lon="0.36844">
        <ele>129.6</ele>
        <time>2020-09-13T08:10:20Z</time>
      </trkpt>
      <trkpt lat="46.50899" lon="0.36849">
        <ele>129.8</ele>
        <time>2020-09-13T08:10:21Z</time>
      </trkpt>
      <trkpt lat="46.50908" lon="0.36869">
        <ele>129.8</ele>
        <time>2020-09-13T08:10:24Z</time>
      </trkpt>
      <trkpt lat="46.50914" lon="0.36882">
        <ele>130</ele>
        <time>2020-09-13T08:10:26Z</time>
      </trkpt>
      <trkpt lat="46.5092" lon="0.36895">
        <ele>130</ele>
        <time>2020-09-13T08:10:28Z</time>
      </trkpt>
      <trkpt lat="46.50926" lon="0.36909">
        <ele>130</ele>
        <time>2020-09-13T08:10:30Z</time>
      </trkpt>
      <trkpt lat="46.50929" lon="0.36916">
        <ele>130.2</ele>
        <time>2020-09-13T08:10:31Z</time>
      </trkpt>
      <trkpt lat="46.50946" lon="0.36942">
        <ele>130.6</ele>
        <time>2020-09-13T08:10:35Z</time>
      </trkpt>
      <trkpt lat="46.5095" lon="0.36946">
        <ele>130.8</ele>
        <time>2020-09-13T08:10:36Z</time>
      </trkpt>
      <trkpt lat="46.50964" lon="0.36966">
        <ele>130.8</ele>
        <time>2020-09-13T08:10:40Z</time>
      </trkpt>
      <trkpt lat="46.50994" lon="0.36999">
        <ele>130.4</ele>
        <time>2020-09-13T08:10:46Z</time>
      </trkpt>
      <trkpt lat="46.51029" lon="0.37047">
        <ele>130.2</ele>
        <time>2020-09-13T08:10:54Z</time>
      </trkpt>
      <trkpt lat="46.51035" lon="0.37049">
        <ele>130</ele>
        <time>2020-09-13T08:10:56Z</time>
      </trkpt>
      <trkpt lat="46.51038" lon="0.3705">
        <ele>130</ele>
        <time>2020-09-13T08:10:57Z</time>
      </trkpt>
      <trkpt lat="46.51041" lon="0.3705">
        <ele>130</ele>
        <time>2020-09-13T08:10:58Z</time>
      </trkpt>
      <trkpt lat="46.51051" lon="0.37053">
        <ele>129.8</ele>
        <time>2020-09-13T08:11:01Z</time>
      </trkpt>
      <trkpt lat="46.51058" lon="0.37054">
        <ele>129.4</ele>
        <time>2020-09-13T08:11:02Z</time>
      </trkpt>
      <trkpt lat="46.51064" lon="0.37054">
        <ele>129.2</ele>
        <time>2020-09-13T08:11:05Z</time>
      </trkpt>
      <trkpt lat="46.51072" lon="0.37054">
        <ele>129</ele>
        <time>2020-09-13T08:11:07Z</time>
      </trkpt>
      <trkpt lat="46.51076" lon="0.37054">
        <ele>129</ele>
        <time>2020-09-13T08:11:08Z</time>
      </trkpt>
      <trkpt lat="46.51079" lon="0.37053">
        <ele>129</ele>
        <time>2020-09-13T08:11:09Z</time>
      </trkpt>
      <trkpt lat="46.51095" lon="0.37055">
        <ele>128.8</ele>
        <time>2020-09-13T08:11:12Z</time>
      </trkpt>
      <trkpt lat="46.51099" lon="0.3705">
        <ele>128.4</ele>
        <time>2020-09-13T08:11:15Z</time>
      </trkpt>
      <trkpt lat="46.511" lon="0.37041">
        <ele>128.2</ele>
        <time>2020-09-13T08:11:16Z</time>
      </trkpt>
      <trkpt lat="46.511" lon="0.37041">
        <ele>128.2</ele>
        <time>2020-09-13T08:11:17Z</time>
      </trkpt>
      <trkpt lat="46.51104" lon="0.37032">
        <ele>128</ele>
        <time>2020-09-13T08:11:18Z</time>
      </trkpt>
      <trkpt lat="46.51109" lon="0.37028">
        <ele>127.8</ele>
        <time>2020-09-13T08:11:20Z</time>
      </trkpt>
      <trkpt lat="46.51119" lon="0.37027">
        <ele>127.6</ele>
        <time>2020-09-13T08:11:24Z</time>
      </trkpt>
      <trkpt lat="46.51133" lon="0.37026">
        <ele>127.4</ele>
        <time>2020-09-13T08:11:26Z</time>
      </trkpt>
      <trkpt lat="46.51138" lon="0.37026">
        <ele>127.2</ele>
        <time>2020-09-13T08:11:27Z</time>
      </trkpt>
      <trkpt lat="46.51147" lon="0.37022">
        <ele>126.8</ele>
        <time>2020-09-13T08:11:29Z</time>
      </trkpt>
      <trkpt lat="46.51152" lon="0.3702">
        <ele>126.6</ele>
        <time>2020-09-13T08:11:30Z</time>
      </trkpt>
      <trkpt lat="46.51159" lon="0.37009">
        <ele>125.6</ele>
        <time>2020-09-13T08:11:33Z</time>
      </trkpt>
      <trkpt lat="46.51159" lon="0.37009">
        <ele>125.6</ele>
        <time>2020-09-13T08:11:34Z</time>
      </trkpt>
      <trkpt lat="46.51166" lon="0.37006">
        <ele>125.4</ele>
        <time>2020-09-13T08:11:35Z</time>
      </trkpt>
      <trkpt lat="46.51172" lon="0.37004">
        <ele>125.2</ele>
        <time>2020-09-13T08:11:38Z</time>
      </trkpt>
      <trkpt lat="46.51186" lon="0.36998">
        <ele>125</ele>
        <time>2020-09-13T08:11:40Z</time>
      </trkpt>
      <trkpt lat="46.51197" lon="0.36991">
        <ele>124.6</ele>
        <time>2020-09-13T08:11:42Z</time>
      </trkpt>
      <trkpt lat="46.51202" lon="0.36987">
        <ele>124.6</ele>
        <time>2020-09-13T08:11:43Z</time>
      </trkpt>
      <trkpt lat="46.51219" lon="0.36975">
        <ele>124.2</ele>
        <time>2020-09-13T08:11:46Z</time>
      </trkpt>
      <trkpt lat="46.51229" lon="0.36972">
        <ele>124</ele>
        <time>2020-09-13T08:11:48Z</time>
      </trkpt>
      <trkpt lat="46.51234" lon="0.3697">
        <ele>123.2</ele>
        <time>2020-09-13T08:11:50Z</time>
      </trkpt>
      <trkpt lat="46.51244" lon="0.36966">
        <ele>123</ele>
        <time>2020-09-13T08:11:51Z</time>
      </trkpt>
      <trkpt lat="46.51253" lon="0.36961">
        <ele>122.4</ele>
        <time>2020-09-13T08:11:54Z</time>
      </trkpt>
      <trkpt lat="46.51262" lon="0.36962">
        <ele>122</ele>
        <time>2020-09-13T08:11:56Z</time>
      </trkpt>
      <trkpt lat="46.51269" lon="0.36967">
        <ele>121.8</ele>
        <time>2020-09-13T08:11:57Z</time>
      </trkpt>
      <trkpt lat="46.51274" lon="0.36971">
        <ele>121.6</ele>
        <time>2020-09-13T08:11:58Z</time>
      </trkpt>
      <trkpt lat="46.51278" lon="0.36972">
        <ele>121</ele>
        <time>2020-09-13T08:12:00Z</time>
      </trkpt>
      <trkpt lat="46.51285" lon="0.36972">
        <ele>120.6</ele>
        <time>2020-09-13T08:12:01Z</time>
      </trkpt>
      <trkpt lat="46.5129" lon="0.36975">
        <ele>119.8</ele>
        <time>2020-09-13T08:12:03Z</time>
      </trkpt>
      <trkpt lat="46.51294" lon="0.36978">
        <ele>118.6</ele>
        <time>2020-09-13T08:12:05Z</time>
      </trkpt>
      <trkpt lat="46.51306" lon="0.36986">
        <ele>117.2</ele>
        <time>2020-09-13T08:12:07Z</time>
      </trkpt>
      <trkpt lat="46.51312" lon="0.36991">
        <ele>116.6</ele>
        <time>2020-09-13T08:12:09Z</time>
      </trkpt>
      <trkpt lat="46.51314" lon="0.36992">
        <ele>115.8</ele>
        <time>2020-09-13T08:12:10Z</time>
      </trkpt>
      <trkpt lat="46.51325" lon="0.36995">
        <ele>114.6</ele>
        <time>2020-09-13T08:12:12Z</time>
      </trkpt>
      <trkpt lat="46.5133" lon="0.36997">
        <ele>114.2</ele>
        <time>2020-09-13T08:12:13Z</time>
      </trkpt>
      <trkpt lat="46.51338" lon="0.37001">
        <ele>113.4</ele>
        <time>2020-09-13T08:12:15Z</time>
      </trkpt>
      <trkpt lat="46.51343" lon="0.37003">
        <ele>112.8</ele>
        <time>2020-09-13T08:12:16Z</time>
      </trkpt>
      <trkpt lat="46.51346" lon="0.37007">
        <ele>111.8</ele>
        <time>2020-09-13T08:12:17Z</time>
      </trkpt>
      <trkpt lat="46.51349" lon="0.37009">
        <ele>110.2</ele>
        <time>2020-09-13T08:12:19Z</time>
      </trkpt>
      <trkpt lat="46.51361" lon="0.3702">
        <ele>109.4</ele>
        <time>2020-09-13T08:12:21Z</time>
      </trkpt>
      <trkpt lat="46.51365" lon="0.37024">
        <ele>109</ele>
        <time>2020-09-13T08:12:22Z</time>
      </trkpt>
      <trkpt lat="46.51369" lon="0.37027">
        <ele>108.4</ele>
        <time>2020-09-13T08:12:23Z</time>
      </trkpt>
      <trkpt lat="46.51376" lon="0.37028">
        <ele>107.6</ele>
        <time>2020-09-13T08:12:24Z</time>
      </trkpt>
      <trkpt lat="46.51381" lon="0.37028">
        <ele>106.2</ele>
        <time>2020-09-13T08:12:25Z</time>
      </trkpt>
      <trkpt lat="46.51386" lon="0.37029">
        <ele>104.8</ele>
        <time>2020-09-13T08:12:26Z</time>
      </trkpt>
      <trkpt lat="46.51391" lon="0.37032">
        <ele>103.8</ele>
        <time>2020-09-13T08:12:27Z</time>
      </trkpt>
      <trkpt lat="46.51394" lon="0.37034">
        <ele>103</ele>
        <time>2020-09-13T08:12:28Z</time>
      </trkpt>
      <trkpt lat="46.51397" lon="0.37034">
        <ele>102.6</ele>
        <time>2020-09-13T08:12:29Z</time>
      </trkpt>
      <trkpt lat="46.514" lon="0.37032">
        <ele>101.4</ele>
        <time>2020-09-13T08:12:31Z</time>
      </trkpt>
      <trkpt lat="46.51414" lon="0.37009">
        <ele>100.6</ele>
        <time>2020-09-13T08:12:35Z</time>
      </trkpt>
      <trkpt lat="46.51417" lon="0.37004">
        <ele>100.4</ele>
        <time>2020-09-13T08:12:36Z</time>
      </trkpt>
      <trkpt lat="46.5142" lon="0.37001">
        <ele>100.2</ele>
        <time>2020-09-13T08:12:37Z</time>
      </trkpt>
      <trkpt lat="46.51427" lon="0.36998">
        <ele>99.8</ele>
        <time>2020-09-13T08:12:39Z</time>
      </trkpt>
      <trkpt lat="46.51434" lon="0.36994">
        <ele>98.8</ele>
        <time>2020-09-13T08:12:41Z</time>
      </trkpt>
      <trkpt lat="46.51434" lon="0.36994">
        <ele>97.8</ele>
        <time>2020-09-13T08:12:42Z</time>
      </trkpt>
      <trkpt lat="46.51436" lon="0.36989">
        <ele>96.8</ele>
        <time>2020-09-13T08:12:43Z</time>
      </trkpt>
      <trkpt lat="46.51443" lon="0.3698">
        <ele>95</ele>
        <time>2020-09-13T08:12:45Z</time>
      </trkpt>
      <trkpt lat="46.51447" lon="0.36971">
        <ele>94.2</ele>
        <time>2020-09-13T08:12:47Z</time>
      </trkpt>
      <trkpt lat="46.5145" lon="0.36969">
        <ele>93.8</ele>
        <time>2020-09-13T08:12:48Z</time>
      </trkpt>
      <trkpt lat="46.5145" lon="0.36969">
        <ele>93.8</ele>
        <time>2020-09-13T08:12:49Z</time>
      </trkpt>
      <trkpt lat="46.51457" lon="0.36968">
        <ele>93.6</ele>
        <time>2020-09-13T08:12:50Z</time>
      </trkpt>
      <trkpt lat="46.51464" lon="0.36973">
        <ele>93.4</ele>
        <time>2020-09-13T08:12:52Z</time>
      </trkpt>
      <trkpt lat="46.51469" lon="0.36981">
        <ele>93.2</ele>
        <time>2020-09-13T08:12:54Z</time>
      </trkpt>
      <trkpt lat="46.51478" lon="0.36991">
        <ele>92.8</ele>
        <time>2020-09-13T08:12:56Z</time>
      </trkpt>
      <trkpt lat="46.51478" lon="0.36997">
        <ele>92.6</ele>
        <time>2020-09-13T08:12:57Z</time>
      </trkpt>
      <trkpt lat="46.51482" lon="0.37011">
        <ele>92.2</ele>
        <time>2020-09-13T08:12:59Z</time>
      </trkpt>
      <trkpt lat="46.51486" lon="0.37026">
        <ele>92.2</ele>
        <time>2020-09-13T08:13:01Z</time>
      </trkpt>
      <trkpt lat="46.51494" lon="0.37034">
        <ele>92</ele>
        <time>2020-09-13T08:13:02Z</time>
      </trkpt>
      <trkpt lat="46.51507" lon="0.37054">
        <ele>92</ele>
        <time>2020-09-13T08:13:04Z</time>
      </trkpt>
      <trkpt lat="46.51511" lon="0.37064">
        <ele>91.8</ele>
        <time>2020-09-13T08:13:05Z</time>
      </trkpt>
      <trkpt lat="46.51525" lon="0.37089">
        <ele>90.8</ele>
        <time>2020-09-13T08:13:08Z</time>
      </trkpt>
      <trkpt lat="46.51531" lon="0.37093">
        <ele>90.6</ele>
        <time>2020-09-13T08:13:09Z</time>
      </trkpt>
      <trkpt lat="46.51533" lon="0.37094">
        <ele>90.4</ele>
        <time>2020-09-13T08:13:10Z</time>
      </trkpt>
      <trkpt lat="46.51542" lon="0.371">
        <ele>89.4</ele>
        <time>2020-09-13T08:13:13Z</time>
      </trkpt>
      <trkpt lat="46.51545" lon="0.37099">
        <ele>89.2</ele>
        <time>2020-09-13T08:13:14Z</time>
      </trkpt>
      <trkpt lat="46.5155" lon="0.37096">
        <ele>88.6</ele>
        <time>2020-09-13T08:13:16Z</time>
      </trkpt>
      <trkpt lat="46.51546" lon="0.37097">
        <ele>88.6</ele>
        <time>2020-09-13T08:13:19Z</time>
      </trkpt>
      <trkpt lat="46.51539" lon="0.37098">
        <ele>88.8</ele>
        <time>2020-09-13T08:13:22Z</time>
      </trkpt>
      <trkpt lat="46.51538" lon="0.37101">
        <ele>89</ele>
        <time>2020-09-13T08:13:23Z</time>
      </trkpt>
      <trkpt lat="46.51537" lon="0.37105">
        <ele>89.2</ele>
        <time>2020-09-13T08:13:24Z</time>
      </trkpt>
      <trkpt lat="46.51536" lon="0.37116">
        <ele>89.8</ele>
        <time>2020-09-13T08:13:26Z</time>
      </trkpt>
      <trkpt lat="46.51531" lon="0.37134">
        <ele>90.2</ele>
        <time>2020-09-13T08:13:30Z</time>
      </trkpt>
      <trkpt lat="46.51533" lon="0.3716">
        <ele>90</ele>
        <time>2020-09-13T08:13:35Z</time>
      </trkpt>
      <trkpt lat="46.51535" lon="0.37173">
        <ele>90</ele>
        <time>2020-09-13T08:13:37Z</time>
      </trkpt>
      <trkpt lat="46.51536" lon="0.37184">
        <ele>89.4</ele>
        <time>2020-09-13T08:13:40Z</time>
      </trkpt>
      <trkpt lat="46.51533" lon="0.37203">
        <ele>88.8</ele>
        <time>2020-09-13T08:13:47Z</time>
      </trkpt>
      <trkpt lat="46.51534" lon="0.37211">
        <ele>88.4</ele>
        <time>2020-09-13T08:13:52Z</time>
      </trkpt>
      <trkpt lat="46.51534" lon="0.3721">
        <ele>88</ele>
        <time>2020-09-13T08:13:54Z</time>
      </trkpt>
      <trkpt lat="46.51535" lon="0.37203">
        <ele>88</ele>
        <time>2020-09-13T08:13:59Z</time>
      </trkpt>
      <trkpt lat="46.51537" lon="0.37196">
        <ele>88.2</ele>
        <time>2020-09-13T08:14:01Z</time>
      </trkpt>
      <trkpt lat="46.51539" lon="0.37193">
        <ele>88.2</ele>
        <time>2020-09-13T08:14:03Z</time>
      </trkpt>
      <trkpt lat="46.51554" lon="0.37176">
        <ele>88</ele>
        <time>2020-09-13T08:14:10Z</time>
      </trkpt>
      <trkpt lat="46.51563" lon="0.37167">
        <ele>87.8</ele>
        <time>2020-09-13T08:14:14Z</time>
      </trkpt>
      <trkpt lat="46.51564" lon="0.37166">
        <ele>87.8</ele>
        <time>2020-09-13T08:14:16Z</time>
      </trkpt>
      <trkpt lat="46.51566" lon="0.37166">
        <ele>87.8</ele>
        <time>2020-09-13T08:14:17Z</time>
      </trkpt>
      <trkpt lat="46.51568" lon="0.3717">
        <ele>87.8</ele>
        <time>2020-09-13T08:14:19Z</time>
      </trkpt>
      <trkpt lat="46.51567" lon="0.37172">
        <ele>87.6</ele>
        <time>2020-09-13T08:14:20Z</time>
      </trkpt>
      <trkpt lat="46.51564" lon="0.37173">
        <ele>87.6</ele>
        <time>2020-09-13T08:14:22Z</time>
      </trkpt>
      <trkpt lat="46.51561" lon="0.37172">
        <ele>87.6</ele>
        <time>2020-09-13T08:14:24Z</time>
      </trkpt>
      <trkpt lat="46.51556" lon="0.37177">
        <ele>87.8</ele>
        <time>2020-09-13T08:14:27Z</time>
      </trkpt>
      <trkpt lat="46.51554" lon="0.3718">
        <ele>87.8</ele>
        <time>2020-09-13T08:14:28Z</time>
      </trkpt>
      <trkpt lat="46.51548" lon="0.37186">
        <ele>87.8</ele>
        <time>2020-09-13T08:14:30Z</time>
      </trkpt>
      <trkpt lat="46.51545" lon="0.37188">
        <ele>88</ele>
        <time>2020-09-13T08:14:32Z</time>
      </trkpt>
      <trkpt lat="46.51541" lon="0.37195">
        <ele>88.2</ele>
        <time>2020-09-13T08:14:33Z</time>
      </trkpt>
      <trkpt lat="46.5154" lon="0.37199">
        <ele>88.2</ele>
        <time>2020-09-13T08:14:35Z</time>
      </trkpt>
      <trkpt lat="46.51539" lon="0.37215">
        <ele>88</ele>
        <time>2020-09-13T08:14:40Z</time>
      </trkpt>
      <trkpt lat="46.51539" lon="0.37237">
        <ele>88.4</ele>
        <time>2020-09-13T08:14:44Z</time>
      </trkpt>
      <trkpt lat="46.51542" lon="0.37253">
        <ele>88.6</ele>
        <time>2020-09-13T08:14:48Z</time>
      </trkpt>
      <trkpt lat="46.51545" lon="0.37271">
        <ele>88.6</ele>
        <time>2020-09-13T08:14:50Z</time>
      </trkpt>
      <trkpt lat="46.51549" lon="0.37295">
        <ele>88.4</ele>
        <time>2020-09-13T08:14:54Z</time>
      </trkpt>
      <trkpt lat="46.5155" lon="0.37301">
        <ele>88.4</ele>
        <time>2020-09-13T08:14:56Z</time>
      </trkpt>
      <trkpt lat="46.51555" lon="0.37318">
        <ele>88.8</ele>
        <time>2020-09-13T08:14:58Z</time>
      </trkpt>
      <trkpt lat="46.51561" lon="0.37332">
        <ele>89</ele>
        <time>2020-09-13T08:15:00Z</time>
      </trkpt>
      <trkpt lat="46.5157" lon="0.37351">
        <ele>89.2</ele>
        <time>2020-09-13T08:15:03Z</time>
      </trkpt>
      <trkpt lat="46.51577" lon="0.37363">
        <ele>89.4</ele>
        <time>2020-09-13T08:15:05Z</time>
      </trkpt>
      <trkpt lat="46.51577" lon="0.37363">
        <ele>89.4</ele>
        <time>2020-09-13T08:15:06Z</time>
      </trkpt>
      <trkpt lat="46.51583" lon="0.37374">
        <ele>89.6</ele>
        <time>2020-09-13T08:15:07Z</time>
      </trkpt>
      <trkpt lat="46.51589" lon="0.37384">
        <ele>89.6</ele>
        <time>2020-09-13T08:15:09Z</time>
      </trkpt>
      <trkpt lat="46.51593" lon="0.37388">
        <ele>89.6</ele>
        <time>2020-09-13T08:15:11Z</time>
      </trkpt>
      <trkpt lat="46.51606" lon="0.37403">
        <ele>89.8</ele>
        <time>2020-09-13T08:15:13Z</time>
      </trkpt>
      <trkpt lat="46.51628" lon="0.37418">
        <ele>89.6</ele>
        <time>2020-09-13T08:15:17Z</time>
      </trkpt>
      <trkpt lat="46.51663" lon="0.37441">
        <ele>90</ele>
        <time>2020-09-13T08:15:23Z</time>
      </trkpt>
      <trkpt lat="46.51669" lon="0.37444">
        <ele>90.2</ele>
        <time>2020-09-13T08:15:24Z</time>
      </trkpt>
      <trkpt lat="46.51684" lon="0.37454">
        <ele>89.8</ele>
        <time>2020-09-13T08:15:27Z</time>
      </trkpt>
      <trkpt lat="46.51694" lon="0.37459">
        <ele>89.6</ele>
        <time>2020-09-13T08:15:29Z</time>
      </trkpt>
      <trkpt lat="46.51707" lon="0.37466">
        <ele>89.6</ele>
        <time>2020-09-13T08:15:32Z</time>
      </trkpt>
      <trkpt lat="46.51714" lon="0.37472">
        <ele>89.6</ele>
        <time>2020-09-13T08:15:34Z</time>
      </trkpt>
      <trkpt lat="46.51718" lon="0.37477">
        <ele>90</ele>
        <time>2020-09-13T08:15:36Z</time>
      </trkpt>
      <trkpt lat="46.5172" lon="0.37482">
        <ele>90.8</ele>
        <time>2020-09-13T08:15:38Z</time>
      </trkpt>
      <trkpt lat="46.51721" lon="0.37484">
        <ele>91.4</ele>
        <time>2020-09-13T08:15:39Z</time>
      </trkpt>
      <trkpt lat="46.51722" lon="0.37487">
        <ele>92.2</ele>
        <time>2020-09-13T08:15:40Z</time>
      </trkpt>
      <trkpt lat="46.51727" lon="0.37492">
        <ele>93.2</ele>
        <time>2020-09-13T08:15:42Z</time>
      </trkpt>
      <trkpt lat="46.5173" lon="0.375">
        <ele>94.4</ele>
        <time>2020-09-13T08:15:45Z</time>
      </trkpt>
      <trkpt lat="46.5174" lon="0.37507">
        <ele>95.8</ele>
        <time>2020-09-13T08:15:48Z</time>
      </trkpt>
      <trkpt lat="46.51743" lon="0.3751">
        <ele>96.2</ele>
        <time>2020-09-13T08:15:49Z</time>
      </trkpt>
      <trkpt lat="46.51748" lon="0.37516">
        <ele>97</ele>
        <time>2020-09-13T08:15:51Z</time>
      </trkpt>
      <trkpt lat="46.51749" lon="0.37518">
        <ele>97.2</ele>
        <time>2020-09-13T08:15:52Z</time>
      </trkpt>
      <trkpt lat="46.51749" lon="0.37523">
        <ele>98.2</ele>
        <time>2020-09-13T08:15:54Z</time>
      </trkpt>
      <trkpt lat="46.51749" lon="0.37532">
        <ele>99.4</ele>
        <time>2020-09-13T08:15:57Z</time>
      </trkpt>
      <trkpt lat="46.51749" lon="0.37534">
        <ele>99.4</ele>
        <time>2020-09-13T08:15:58Z</time>
      </trkpt>
      <trkpt lat="46.51749" lon="0.37543">
        <ele>100.4</ele>
        <time>2020-09-13T08:16:02Z</time>
      </trkpt>
      <trkpt lat="46.51748" lon="0.37549">
        <ele>101</ele>
        <time>2020-09-13T08:16:05Z</time>
      </trkpt>
      <trkpt lat="46.51748" lon="0.37554">
        <ele>101.6</ele>
        <time>2020-09-13T08:16:07Z</time>
      </trkpt>
      <trkpt lat="46.51746" lon="0.37561">
        <ele>102</ele>
        <time>2020-09-13T08:16:10Z</time>
      </trkpt>
      <trkpt lat="46.51746" lon="0.37563">
        <ele>102.2</ele>
        <time>2020-09-13T08:16:11Z</time>
      </trkpt>
      <trkpt lat="46.51743" lon="0.3757">
        <ele>102.8</ele>
        <time>2020-09-13T08:16:14Z</time>
      </trkpt>
      <trkpt lat="46.51741" lon="0.3758">
        <ele>103.6</ele>
        <time>2020-09-13T08:16:18Z</time>
      </trkpt>
      <trkpt lat="46.51741" lon="0.37582">
        <ele>103.8</ele>
        <time>2020-09-13T08:16:19Z</time>
      </trkpt>
      <trkpt lat="46.5174" lon="0.37583">
        <ele>104.2</ele>
        <time>2020-09-13T08:16:20Z</time>
      </trkpt>
      <trkpt lat="46.5174" lon="0.37585">
        <ele>104.2</ele>
        <time>2020-09-13T08:16:21Z</time>
      </trkpt>
      <trkpt lat="46.51738" lon="0.37593">
        <ele>105</ele>
        <time>2020-09-13T08:16:24Z</time>
      </trkpt>
      <trkpt lat="46.51736" lon="0.37599">
        <ele>105.4</ele>
        <time>2020-09-13T08:16:26Z</time>
      </trkpt>
      <trkpt lat="46.51729" lon="0.37622">
        <ele>106</ele>
        <time>2020-09-13T08:16:32Z</time>
      </trkpt>
      <trkpt lat="46.51728" lon="0.37626">
        <ele>106.6</ele>
        <time>2020-09-13T08:16:34Z</time>
      </trkpt>
      <trkpt lat="46.51723" lon="0.37645">
        <ele>107.2</ele>
        <time>2020-09-13T08:16:39Z</time>
      </trkpt>
      <trkpt lat="46.51714" lon="0.37671">
        <ele>107.6</ele>
        <time>2020-09-13T08:16:45Z</time>
      </trkpt>
      <trkpt lat="46.51713" lon="0.37675">
        <ele>107.6</ele>
        <time>2020-09-13T08:16:46Z</time>
      </trkpt>
      <trkpt lat="46.51707" lon="0.37694">
        <ele>108.4</ele>
        <time>2020-09-13T08:16:51Z</time>
      </trkpt>
      <trkpt lat="46.51706" lon="0.37701">
        <ele>108.6</ele>
        <time>2020-09-13T08:16:53Z</time>
      </trkpt>
      <trkpt lat="46.517" lon="0.37722">
        <ele>109</ele>
        <time>2020-09-13T08:16:57Z</time>
      </trkpt>
      <trkpt lat="46.51693" lon="0.37741">
        <ele>109.2</ele>
        <time>2020-09-13T08:17:00Z</time>
      </trkpt>
      <trkpt lat="46.51688" lon="0.37755">
        <ele>109.2</ele>
        <time>2020-09-13T08:17:02Z</time>
      </trkpt>
      <trkpt lat="46.51677" lon="0.37789">
        <ele>108.6</ele>
        <time>2020-09-13T08:17:08Z</time>
      </trkpt>
      <trkpt lat="46.51669" lon="0.37816">
        <ele>108.2</ele>
        <time>2020-09-13T08:17:12Z</time>
      </trkpt>
      <trkpt lat="46.51668" lon="0.37823">
        <ele>107.8</ele>
        <time>2020-09-13T08:17:13Z</time>
      </trkpt>
      <trkpt lat="46.51666" lon="0.37832">
        <ele>107.6</ele>
        <time>2020-09-13T08:17:14Z</time>
      </trkpt>
      <trkpt lat="46.51657" lon="0.37862">
        <ele>106.6</ele>
        <time>2020-09-13T08:17:16Z</time>
      </trkpt>
      <trkpt lat="46.51657" lon="0.37862">
        <ele>106.2</ele>
        <time>2020-09-13T08:17:17Z</time>
      </trkpt>
      <trkpt lat="46.51641" lon="0.37912">
        <ele>106</ele>
        <time>2020-09-13T08:17:23Z</time>
      </trkpt>
      <trkpt lat="46.51635" lon="0.37929">
        <ele>106.2</ele>
        <time>2020-09-13T08:17:26Z</time>
      </trkpt>
      <trkpt lat="46.5163" lon="0.37947">
        <ele>106.6</ele>
        <time>2020-09-13T08:17:28Z</time>
      </trkpt>
      <trkpt lat="46.51625" lon="0.37959">
        <ele>106.2</ele>
        <time>2020-09-13T08:17:31Z</time>
      </trkpt>
      <trkpt lat="46.51619" lon="0.37964">
        <ele>106</ele>
        <time>2020-09-13T08:17:33Z</time>
      </trkpt>
      <trkpt lat="46.51615" lon="0.37962">
        <ele>105.8</ele>
        <time>2020-09-13T08:17:34Z</time>
      </trkpt>
      <trkpt lat="46.51612" lon="0.37962">
        <ele>105.8</ele>
        <time>2020-09-13T08:17:36Z</time>
      </trkpt>
      <trkpt lat="46.51603" lon="0.37957">
        <ele>106</ele>
        <time>2020-09-13T08:17:38Z</time>
      </trkpt>
      <trkpt lat="46.51599" lon="0.37955">
        <ele>106.4</ele>
        <time>2020-09-13T08:17:40Z</time>
      </trkpt>
      <trkpt lat="46.5159" lon="0.37953">
        <ele>107.4</ele>
        <time>2020-09-13T08:17:43Z</time>
      </trkpt>
      <trkpt lat="46.51582" lon="0.37952">
        <ele>107.8</ele>
        <time>2020-09-13T08:17:45Z</time>
      </trkpt>
      <trkpt lat="46.5156" lon="0.37952">
        <ele>108.4</ele>
        <time>2020-09-13T08:17:50Z</time>
      </trkpt>
      <trkpt lat="46.51555" lon="0.37951">
        <ele>108.6</ele>
        <time>2020-09-13T08:17:51Z</time>
      </trkpt>
      <trkpt lat="46.51551" lon="0.37949">
        <ele>108.8</ele>
        <time>2020-09-13T08:17:52Z</time>
      </trkpt>
      <trkpt lat="46.51547" lon="0.37946">
        <ele>108.8</ele>
        <time>2020-09-13T08:17:53Z</time>
      </trkpt>
      <trkpt lat="46.51542" lon="0.37939">
        <ele>109.2</ele>
        <time>2020-09-13T08:17:55Z</time>
      </trkpt>
      <trkpt lat="46.51539" lon="0.37934">
        <ele>109.2</ele>
        <time>2020-09-13T08:17:56Z</time>
      </trkpt>
      <trkpt lat="46.51536" lon="0.37931">
        <ele>109.4</ele>
        <time>2020-09-13T08:17:57Z</time>
      </trkpt>
      <trkpt lat="46.51532" lon="0.37928">
        <ele>109.6</ele>
        <time>2020-09-13T08:17:58Z</time>
      </trkpt>
      <trkpt lat="46.51529" lon="0.37926">
        <ele>109.8</ele>
        <time>2020-09-13T08:17:59Z</time>
      </trkpt>
      <trkpt lat="46.51522" lon="0.37923">
        <ele>110.4</ele>
        <time>2020-09-13T08:18:01Z</time>
      </trkpt>
      <trkpt lat="46.51514" lon="0.3792">
        <ele>110.8</ele>
        <time>2020-09-13T08:18:03Z</time>
      </trkpt>
      <trkpt lat="46.51498" lon="0.37914">
        <ele>111.6</ele>
        <time>2020-09-13T08:18:07Z</time>
      </trkpt>
      <trkpt lat="46.51494" lon="0.37912">
        <ele>111.8</ele>
        <time>2020-09-13T08:18:08Z</time>
      </trkpt>
      <trkpt lat="46.51484" lon="0.37903">
        <ele>112.6</ele>
        <time>2020-09-13T08:18:12Z</time>
      </trkpt>
      <trkpt lat="46.51476" lon="0.37899">
        <ele>113</ele>
        <time>2020-09-13T08:18:15Z</time>
      </trkpt>
      <trkpt lat="46.5147" lon="0.37894">
        <ele>113.8</ele>
        <time>2020-09-13T08:18:17Z</time>
      </trkpt>
      <trkpt lat="46.51466" lon="0.37893">
        <ele>114</ele>
        <time>2020-09-13T08:18:18Z</time>
      </trkpt>
      <trkpt lat="46.51455" lon="0.37886">
        <ele>114.8</ele>
        <time>2020-09-13T08:18:22Z</time>
      </trkpt>
      <trkpt lat="46.51453" lon="0.37885">
        <ele>115</ele>
        <time>2020-09-13T08:18:23Z</time>
      </trkpt>
      <trkpt lat="46.51449" lon="0.37884">
        <ele>115.2</ele>
        <time>2020-09-13T08:18:24Z</time>
      </trkpt>
      <trkpt lat="46.51445" lon="0.37882">
        <ele>115.2</ele>
        <time>2020-09-13T08:18:25Z</time>
      </trkpt>
      <trkpt lat="46.5144" lon="0.37878">
        <ele>115.6</ele>
        <time>2020-09-13T08:18:27Z</time>
      </trkpt>
      <trkpt lat="46.51426" lon="0.37866">
        <ele>116.2</ele>
        <time>2020-09-13T08:18:32Z</time>
      </trkpt>
      <trkpt lat="46.5141" lon="0.37856">
        <ele>116.6</ele>
        <time>2020-09-13T08:18:37Z</time>
      </trkpt>
      <trkpt lat="46.51396" lon="0.37844">
        <ele>117</ele>
        <time>2020-09-13T08:18:42Z</time>
      </trkpt>
      <trkpt lat="46.51388" lon="0.37839">
        <ele>117.2</ele>
        <time>2020-09-13T08:18:44Z</time>
      </trkpt>
      <trkpt lat="46.51376" lon="0.37829">
        <ele>118.2</ele>
        <time>2020-09-13T08:18:47Z</time>
      </trkpt>
      <trkpt lat="46.51372" lon="0.37827">
        <ele>118.2</ele>
        <time>2020-09-13T08:18:48Z</time>
      </trkpt>
      <trkpt lat="46.5136" lon="0.37818">
        <ele>118.8</ele>
        <time>2020-09-13T08:18:52Z</time>
      </trkpt>
      <trkpt lat="46.51346" lon="0.3781">
        <ele>119.4</ele>
        <time>2020-09-13T08:18:57Z</time>
      </trkpt>
      <trkpt lat="46.51337" lon="0.37803">
        <ele>120.2</ele>
        <time>2020-09-13T08:18:58Z</time>
      </trkpt>
      <trkpt lat="46.51334" lon="0.37801">
        <ele>120.4</ele>
        <time>2020-09-13T08:19:01Z</time>
      </trkpt>
      <trkpt lat="46.51319" lon="0.37789">
        <ele>121.2</ele>
        <time>2020-09-13T08:19:06Z</time>
      </trkpt>
      <trkpt lat="46.51309" lon="0.37785">
        <ele>121.4</ele>
        <time>2020-09-13T08:19:09Z</time>
      </trkpt>
      <trkpt lat="46.51294" lon="0.37774">
        <ele>121.8</ele>
        <time>2020-09-13T08:19:14Z</time>
      </trkpt>
      <trkpt lat="46.51273" lon="0.3776">
        <ele>122.4</ele>
        <time>2020-09-13T08:19:19Z</time>
      </trkpt>
      <trkpt lat="46.51273" lon="0.3776">
        <ele>122.6</ele>
        <time>2020-09-13T08:19:20Z</time>
      </trkpt>
      <trkpt lat="46.5125" lon="0.37746">
        <ele>123.2</ele>
        <time>2020-09-13T08:19:26Z</time>
      </trkpt>
      <trkpt lat="46.51237" lon="0.37739">
        <ele>123.4</ele>
        <time>2020-09-13T08:19:29Z</time>
      </trkpt>
      <trkpt lat="46.51234" lon="0.37737">
        <ele>123.6</ele>
        <time>2020-09-13T08:19:30Z</time>
      </trkpt>
      <trkpt lat="46.51225" lon="0.3773">
        <ele>123.8</ele>
        <time>2020-09-13T08:19:32Z</time>
      </trkpt>
      <trkpt lat="46.51205" lon="0.37714">
        <ele>124.2</ele>
        <time>2020-09-13T08:19:37Z</time>
      </trkpt>
      <trkpt lat="46.51188" lon="0.37704">
        <ele>124.6</ele>
        <time>2020-09-13T08:19:41Z</time>
      </trkpt>
      <trkpt lat="46.51185" lon="0.37702">
        <ele>124.6</ele>
        <time>2020-09-13T08:19:42Z</time>
      </trkpt>
      <trkpt lat="46.51176" lon="0.37695">
        <ele>124.8</ele>
        <time>2020-09-13T08:19:44Z</time>
      </trkpt>
      <trkpt lat="46.51167" lon="0.37689">
        <ele>125</ele>
        <time>2020-09-13T08:19:46Z</time>
      </trkpt>
      <trkpt lat="46.51151" lon="0.37677">
        <ele>125.2</ele>
        <time>2020-09-13T08:19:50Z</time>
      </trkpt>
      <trkpt lat="46.51128" lon="0.3766">
        <ele>125.4</ele>
        <time>2020-09-13T08:19:55Z</time>
      </trkpt>
      <trkpt lat="46.51113" lon="0.37654">
        <ele>125.6</ele>
        <time>2020-09-13T08:19:58Z</time>
      </trkpt>
      <trkpt lat="46.51109" lon="0.37651">
        <ele>125.8</ele>
        <time>2020-09-13T08:19:59Z</time>
      </trkpt>
      <trkpt lat="46.51096" lon="0.37643">
        <ele>125.8</ele>
        <time>2020-09-13T08:20:02Z</time>
      </trkpt>
      <trkpt lat="46.51083" lon="0.37636">
        <ele>125.8</ele>
        <time>2020-09-13T08:20:04Z</time>
      </trkpt>
      <trkpt lat="46.51073" lon="0.3763">
        <ele>125.8</ele>
        <time>2020-09-13T08:20:06Z</time>
      </trkpt>
      <trkpt lat="46.51066" lon="0.37619">
        <ele>126</ele>
        <time>2020-09-13T08:20:08Z</time>
      </trkpt>
      <trkpt lat="46.5106" lon="0.37611">
        <ele>126</ele>
        <time>2020-09-13T08:20:10Z</time>
      </trkpt>
      <trkpt lat="46.51056" lon="0.37604">
        <ele>126</ele>
        <time>2020-09-13T08:20:12Z</time>
      </trkpt>
      <trkpt lat="46.51055" lon="0.37597">
        <ele>126</ele>
        <time>2020-09-13T08:20:14Z</time>
      </trkpt>
      <trkpt lat="46.51049" lon="0.37581">
        <ele>126.2</ele>
        <time>2020-09-13T08:20:18Z</time>
      </trkpt>
      <trkpt lat="46.51047" lon="0.37577">
        <ele>126.2</ele>
        <time>2020-09-13T08:20:19Z</time>
      </trkpt>
      <trkpt lat="46.51037" lon="0.37554">
        <ele>126.2</ele>
        <time>2020-09-13T08:20:25Z</time>
      </trkpt>
      <trkpt lat="46.51035" lon="0.37549">
        <ele>126.2</ele>
        <time>2020-09-13T08:20:26Z</time>
      </trkpt>
      <trkpt lat="46.5103" lon="0.37538">
        <ele>126.6</ele>
        <time>2020-09-13T08:20:28Z</time>
      </trkpt>
      <trkpt lat="46.51028" lon="0.37534">
        <ele>126.8</ele>
        <time>2020-09-13T08:20:29Z</time>
      </trkpt>
      <trkpt lat="46.51025" lon="0.37527">
        <ele>126.8</ele>
        <time>2020-09-13T08:20:31Z</time>
      </trkpt>
      <trkpt lat="46.51019" lon="0.37516">
        <ele>126.8</ele>
        <time>2020-09-13T08:20:34Z</time>
      </trkpt>
      <trkpt lat="46.51014" lon="0.37506">
        <ele>127</ele>
        <time>2020-09-13T08:20:36Z</time>
      </trkpt>
      <trkpt lat="46.51009" lon="0.37495">
        <ele>127.2</ele>
        <time>2020-09-13T08:20:38Z</time>
      </trkpt>
      <trkpt lat="46.50996" lon="0.37473">
        <ele>127.2</ele>
        <time>2020-09-13T08:20:43Z</time>
      </trkpt>
      <trkpt lat="46.50993" lon="0.3746">
        <ele>127.2</ele>
        <time>2020-09-13T08:20:46Z</time>
      </trkpt>
      <trkpt lat="46.50994" lon="0.3746">
        <ele>127.4</ele>
        <time>2020-09-13T08:20:48Z</time>
      </trkpt>
      <trkpt lat="46.5099" lon="0.37462">
        <ele>127.4</ele>
        <time>2020-09-13T08:20:50Z</time>
      </trkpt>
      <trkpt lat="46.50996" lon="0.3748">
        <ele>127.4</ele>
        <time>2020-09-13T08:20:55Z</time>
      </trkpt>
      <trkpt lat="46.51018" lon="0.37523">
        <ele>127.2</ele>
        <time>2020-09-13T08:21:02Z</time>
      </trkpt>
      <trkpt lat="46.51021" lon="0.3753">
        <ele>127.2</ele>
        <time>2020-09-13T08:21:03Z</time>
      </trkpt>
      <trkpt lat="46.51028" lon="0.37551">
        <ele>127</ele>
        <time>2020-09-13T08:21:06Z</time>
      </trkpt>
      <trkpt lat="46.51031" lon="0.37557">
        <ele>126.8</ele>
        <time>2020-09-13T08:21:07Z</time>
      </trkpt>
      <trkpt lat="46.51035" lon="0.37568">
        <ele>126.8</ele>
        <time>2020-09-13T08:21:09Z</time>
      </trkpt>
      <trkpt lat="46.51036" lon="0.3758">
        <ele>126.6</ele>
        <time>2020-09-13T08:21:11Z</time>
      </trkpt>
      <trkpt lat="46.51035" lon="0.37587">
        <ele>126.4</ele>
        <time>2020-09-13T08:21:12Z</time>
      </trkpt>
      <trkpt lat="46.51033" lon="0.37603">
        <ele>126.4</ele>
        <time>2020-09-13T08:21:14Z</time>
      </trkpt>
      <trkpt lat="46.51032" lon="0.37611">
        <ele>126.4</ele>
        <time>2020-09-13T08:21:15Z</time>
      </trkpt>
      <trkpt lat="46.51027" lon="0.37638">
        <ele>125.6</ele>
        <time>2020-09-13T08:21:18Z</time>
      </trkpt>
      <trkpt lat="46.51024" lon="0.37656">
        <ele>125</ele>
        <time>2020-09-13T08:21:20Z</time>
      </trkpt>
      <trkpt lat="46.51023" lon="0.37666">
        <ele>124.8</ele>
        <time>2020-09-13T08:21:21Z</time>
      </trkpt>
      <trkpt lat="46.51024" lon="0.37685">
        <ele>124.4</ele>
        <time>2020-09-13T08:21:23Z</time>
      </trkpt>
      <trkpt lat="46.51025" lon="0.37695">
        <ele>124.4</ele>
        <time>2020-09-13T08:21:24Z</time>
      </trkpt>
      <trkpt lat="46.51026" lon="0.37704">
        <ele>124.2</ele>
        <time>2020-09-13T08:21:25Z</time>
      </trkpt>
      <trkpt lat="46.51032" lon="0.37725">
        <ele>123.4</ele>
        <time>2020-09-13T08:21:28Z</time>
      </trkpt>
      <trkpt lat="46.51033" lon="0.3773">
        <ele>123</ele>
        <time>2020-09-13T08:21:29Z</time>
      </trkpt>
      <trkpt lat="46.51033" lon="0.37741">
        <ele>122.4</ele>
        <time>2020-09-13T08:21:31Z</time>
      </trkpt>
      <trkpt lat="46.51033" lon="0.37741">
        <ele>121.6</ele>
        <time>2020-09-13T08:21:32Z</time>
      </trkpt>
      <trkpt lat="46.51027" lon="0.37763">
        <ele>121.6</ele>
        <time>2020-09-13T08:21:33Z</time>
      </trkpt>
      <trkpt lat="46.51025" lon="0.3777">
        <ele>121.2</ele>
        <time>2020-09-13T08:21:34Z</time>
      </trkpt>
      <trkpt lat="46.51018" lon="0.37794">
        <ele>120.2</ele>
        <time>2020-09-13T08:21:37Z</time>
      </trkpt>
      <trkpt lat="46.51015" lon="0.37804">
        <ele>120</ele>
        <time>2020-09-13T08:21:38Z</time>
      </trkpt>
      <trkpt lat="46.51006" lon="0.37841">
        <ele>119.2</ele>
        <time>2020-09-13T08:21:42Z</time>
      </trkpt>
      <trkpt lat="46.51002" lon="0.37852">
        <ele>118.8</ele>
        <time>2020-09-13T08:21:43Z</time>
      </trkpt>
      <trkpt lat="46.50996" lon="0.37871">
        <ele>117.6</ele>
        <time>2020-09-13T08:21:45Z</time>
      </trkpt>
      <trkpt lat="46.50991" lon="0.37886">
        <ele>115.8</ele>
        <time>2020-09-13T08:21:47Z</time>
      </trkpt>
      <trkpt lat="46.50987" lon="0.37895">
        <ele>114.8</ele>
        <time>2020-09-13T08:21:48Z</time>
      </trkpt>
      <trkpt lat="46.50984" lon="0.37904">
        <ele>114</ele>
        <time>2020-09-13T08:21:49Z</time>
      </trkpt>
      <trkpt lat="46.50979" lon="0.37922">
        <ele>113</ele>
        <time>2020-09-13T08:21:51Z</time>
      </trkpt>
      <trkpt lat="46.50974" lon="0.37936">
        <ele>111.4</ele>
        <time>2020-09-13T08:21:53Z</time>
      </trkpt>
      <trkpt lat="46.50973" lon="0.37941">
        <ele>110.2</ele>
        <time>2020-09-13T08:21:54Z</time>
      </trkpt>
      <trkpt lat="46.50973" lon="0.37944">
        <ele>108.6</ele>
        <time>2020-09-13T08:21:55Z</time>
      </trkpt>
      <trkpt lat="46.50973" lon="0.37946">
        <ele>107.2</ele>
        <time>2020-09-13T08:21:56Z</time>
      </trkpt>
      <trkpt lat="46.50974" lon="0.37948">
        <ele>106.4</ele>
        <time>2020-09-13T08:21:57Z</time>
      </trkpt>
      <trkpt lat="46.50975" lon="0.37949">
        <ele>105.6</ele>
        <time>2020-09-13T08:21:58Z</time>
      </trkpt>
      <trkpt lat="46.50976" lon="0.3795">
        <ele>105.2</ele>
        <time>2020-09-13T08:21:59Z</time>
      </trkpt>
      <trkpt lat="46.50979" lon="0.37952">
        <ele>104.6</ele>
        <time>2020-09-13T08:22:01Z</time>
      </trkpt>
      <trkpt lat="46.50982" lon="0.37952">
        <ele>104.4</ele>
        <time>2020-09-13T08:22:02Z</time>
      </trkpt>
      <trkpt lat="46.50984" lon="0.37952">
        <ele>104.2</ele>
        <time>2020-09-13T08:22:03Z</time>
      </trkpt>
      <trkpt lat="46.51006" lon="0.37947">
        <ele>103.8</ele>
        <time>2020-09-13T08:22:08Z</time>
      </trkpt>
      <trkpt lat="46.51013" lon="0.37946">
        <ele>103.6</ele>
        <time>2020-09-13T08:22:10Z</time>
      </trkpt>
      <trkpt lat="46.5102" lon="0.37948">
        <ele>103.4</ele>
        <time>2020-09-13T08:22:12Z</time>
      </trkpt>
      <trkpt lat="46.51024" lon="0.37958">
        <ele>102.4</ele>
        <time>2020-09-13T08:22:16Z</time>
      </trkpt>
      <trkpt lat="46.51025" lon="0.37961">
        <ele>102</ele>
        <time>2020-09-13T08:22:17Z</time>
      </trkpt>
      <trkpt lat="46.51028" lon="0.37965">
        <ele>101.4</ele>
        <time>2020-09-13T08:22:19Z</time>
      </trkpt>
      <trkpt lat="46.51029" lon="0.37966">
        <ele>101.4</ele>
        <time>2020-09-13T08:22:20Z</time>
      </trkpt>
      <trkpt lat="46.51031" lon="0.37967">
        <ele>101.4</ele>
        <time>2020-09-13T08:22:21Z</time>
      </trkpt>
      <trkpt lat="46.51032" lon="0.37968">
        <ele>101.4</ele>
        <time>2020-09-13T08:22:22Z</time>
      </trkpt>
      <trkpt lat="46.51051" lon="0.37971">
        <ele>101.6</ele>
        <time>2020-09-13T08:22:28Z</time>
      </trkpt>
      <trkpt lat="46.51078" lon="0.37971">
        <ele>101.2</ele>
        <time>2020-09-13T08:22:34Z</time>
      </trkpt>
      <trkpt lat="46.51108" lon="0.37974">
        <ele>100.6</ele>
        <time>2020-09-13T08:22:39Z</time>
      </trkpt>
      <trkpt lat="46.51119" lon="0.37978">
        <ele>100.2</ele>
        <time>2020-09-13T08:22:41Z</time>
      </trkpt>
      <trkpt lat="46.51136" lon="0.37988">
        <ele>99.4</ele>
        <time>2020-09-13T08:22:44Z</time>
      </trkpt>
      <trkpt lat="46.51142" lon="0.37992">
        <ele>99</ele>
        <time>2020-09-13T08:22:45Z</time>
      </trkpt>
      <trkpt lat="46.51147" lon="0.37997">
        <ele>98.6</ele>
        <time>2020-09-13T08:22:46Z</time>
      </trkpt>
      <trkpt lat="46.51158" lon="0.38007">
        <ele>97.6</ele>
        <time>2020-09-13T08:22:48Z</time>
      </trkpt>
      <trkpt lat="46.51163" lon="0.38013">
        <ele>97.2</ele>
        <time>2020-09-13T08:22:49Z</time>
      </trkpt>
      <trkpt lat="46.51176" lon="0.38026">
        <ele>96.2</ele>
        <time>2020-09-13T08:22:51Z</time>
      </trkpt>
      <trkpt lat="46.51184" lon="0.38032">
        <ele>95.8</ele>
        <time>2020-09-13T08:22:52Z</time>
      </trkpt>
      <trkpt lat="46.512" lon="0.38044">
        <ele>94.8</ele>
        <time>2020-09-13T08:22:54Z</time>
      </trkpt>
      <trkpt lat="46.51208" lon="0.38049">
        <ele>94.4</ele>
        <time>2020-09-13T08:22:55Z</time>
      </trkpt>
      <trkpt lat="46.51213" lon="0.38053">
        <ele>93.8</ele>
        <time>2020-09-13T08:22:56Z</time>
      </trkpt>
      <trkpt lat="46.51223" lon="0.38061">
        <ele>92.6</ele>
        <time>2020-09-13T08:22:58Z</time>
      </trkpt>
      <trkpt lat="46.51234" lon="0.38065">
        <ele>92.2</ele>
        <time>2020-09-13T08:22:59Z</time>
      </trkpt>
      <trkpt lat="46.51244" lon="0.38071">
        <ele>91.6</ele>
        <time>2020-09-13T08:23:01Z</time>
      </trkpt>
      <trkpt lat="46.51254" lon="0.38077">
        <ele>91.2</ele>
        <time>2020-09-13T08:23:03Z</time>
      </trkpt>
      <trkpt lat="46.51257" lon="0.3808">
        <ele>91.2</ele>
        <time>2020-09-13T08:23:04Z</time>
      </trkpt>
      <trkpt lat="46.51265" lon="0.38084">
        <ele>90.8</ele>
        <time>2020-09-13T08:23:06Z</time>
      </trkpt>
      <trkpt lat="46.5127" lon="0.38085">
        <ele>90.4</ele>
        <time>2020-09-13T08:23:07Z</time>
      </trkpt>
      <trkpt lat="46.51275" lon="0.38086">
        <ele>90.4</ele>
        <time>2020-09-13T08:23:08Z</time>
      </trkpt>
      <trkpt lat="46.51285" lon="0.38088">
        <ele>90.2</ele>
        <time>2020-09-13T08:23:10Z</time>
      </trkpt>
      <trkpt lat="46.5129" lon="0.38089">
        <ele>90.2</ele>
        <time>2020-09-13T08:23:11Z</time>
      </trkpt>
      <trkpt lat="46.51305" lon="0.3809">
        <ele>90.8</ele>
        <time>2020-09-13T08:23:14Z</time>
      </trkpt>
      <trkpt lat="46.51314" lon="0.38092">
        <ele>90.8</ele>
        <time>2020-09-13T08:23:16Z</time>
      </trkpt>
      <trkpt lat="46.51342" lon="0.38099">
        <ele>90.6</ele>
        <time>2020-09-13T08:23:22Z</time>
      </trkpt>
      <trkpt lat="46.51349" lon="0.38106">
        <ele>90.4</ele>
        <time>2020-09-13T08:23:24Z</time>
      </trkpt>
      <trkpt lat="46.51365" lon="0.3812">
        <ele>90.2</ele>
        <time>2020-09-13T08:23:26Z</time>
      </trkpt>
      <trkpt lat="46.51375" lon="0.38131">
        <ele>90</ele>
        <time>2020-09-13T08:23:28Z</time>
      </trkpt>
      <trkpt lat="46.51385" lon="0.38142">
        <ele>89.6</ele>
        <time>2020-09-13T08:23:31Z</time>
      </trkpt>
      <trkpt lat="46.51389" lon="0.38143">
        <ele>89.4</ele>
        <time>2020-09-13T08:23:32Z</time>
      </trkpt>
      <trkpt lat="46.51396" lon="0.38146">
        <ele>89</ele>
        <time>2020-09-13T08:23:34Z</time>
      </trkpt>
      <trkpt lat="46.51399" lon="0.3815">
        <ele>88.8</ele>
        <time>2020-09-13T08:23:35Z</time>
      </trkpt>
      <trkpt lat="46.51402" lon="0.38154">
        <ele>88.6</ele>
        <time>2020-09-13T08:23:36Z</time>
      </trkpt>
      <trkpt lat="46.51407" lon="0.3816">
        <ele>88.8</ele>
        <time>2020-09-13T08:23:38Z</time>
      </trkpt>
      <trkpt lat="46.51412" lon="0.38163">
        <ele>89</ele>
        <time>2020-09-13T08:23:40Z</time>
      </trkpt>
      <trkpt lat="46.51419" lon="0.38164">
        <ele>89.2</ele>
        <time>2020-09-13T08:23:42Z</time>
      </trkpt>
      <trkpt lat="46.51425" lon="0.38166">
        <ele>89.4</ele>
        <time>2020-09-13T08:23:44Z</time>
      </trkpt>
      <trkpt lat="46.51427" lon="0.38167">
        <ele>89.4</ele>
        <time>2020-09-13T08:23:45Z</time>
      </trkpt>
      <trkpt lat="46.51431" lon="0.38166">
        <ele>89.4</ele>
        <time>2020-09-13T08:23:46Z</time>
      </trkpt>
      <trkpt lat="46.51445" lon="0.38161">
        <ele>89.8</ele>
        <time>2020-09-13T08:23:50Z</time>
      </trkpt>
      <trkpt lat="46.51453" lon="0.38164">
        <ele>89.8</ele>
        <time>2020-09-13T08:23:52Z</time>
      </trkpt>
      <trkpt lat="46.51464" lon="0.38169">
        <ele>90.2</ele>
        <time>2020-09-13T08:23:54Z</time>
      </trkpt>
      <trkpt lat="46.5147" lon="0.38173">
        <ele>89.8</ele>
        <time>2020-09-13T08:23:56Z</time>
      </trkpt>
      <trkpt lat="46.51475" lon="0.38174">
        <ele>89.8</ele>
        <time>2020-09-13T08:23:58Z</time>
      </trkpt>
      <trkpt lat="46.51481" lon="0.38179">
        <ele>89.8</ele>
        <time>2020-09-13T08:24:00Z</time>
      </trkpt>
      <trkpt lat="46.51489" lon="0.38184">
        <ele>89.6</ele>
        <time>2020-09-13T08:24:02Z</time>
      </trkpt>
      <trkpt lat="46.51496" lon="0.38185">
        <ele>89.6</ele>
        <time>2020-09-13T08:24:04Z</time>
      </trkpt>
      <trkpt lat="46.51504" lon="0.38189">
        <ele>89.6</ele>
        <time>2020-09-13T08:24:06Z</time>
      </trkpt>
      <trkpt lat="46.5151" lon="0.38194">
        <ele>89.6</ele>
        <time>2020-09-13T08:24:08Z</time>
      </trkpt>
      <trkpt lat="46.51515" lon="0.38198">
        <ele>89.8</ele>
        <time>2020-09-13T08:24:10Z</time>
      </trkpt>
      <trkpt lat="46.51524" lon="0.38205">
        <ele>90</ele>
        <time>2020-09-13T08:24:13Z</time>
      </trkpt>
      <trkpt lat="46.51531" lon="0.38209">
        <ele>90</ele>
        <time>2020-09-13T08:24:15Z</time>
      </trkpt>
      <trkpt lat="46.51538" lon="0.38213">
        <ele>89.8</ele>
        <time>2020-09-13T08:24:18Z</time>
      </trkpt>
      <trkpt lat="46.51543" lon="0.38218">
        <ele>89.8</ele>
        <time>2020-09-13T08:24:20Z</time>
      </trkpt>
      <trkpt lat="46.5155" lon="0.38221">
        <ele>89.8</ele>
        <time>2020-09-13T08:24:22Z</time>
      </trkpt>
      <trkpt lat="46.51559" lon="0.38226">
        <ele>89.8</ele>
        <time>2020-09-13T08:24:24Z</time>
      </trkpt>
      <trkpt lat="46.51562" lon="0.38228">
        <ele>89.8</ele>
        <time>2020-09-13T08:24:25Z</time>
      </trkpt>
      <trkpt lat="46.51571" lon="0.38232">
        <ele>89.8</ele>
        <time>2020-09-13T08:24:27Z</time>
      </trkpt>
      <trkpt lat="46.51583" lon="0.38233">
        <ele>89.8</ele>
        <time>2020-09-13T08:24:29Z</time>
      </trkpt>
      <trkpt lat="46.51596" lon="0.38233">
        <ele>89.6</ele>
        <time>2020-09-13T08:24:33Z</time>
      </trkpt>
      <trkpt lat="46.51603" lon="0.38239">
        <ele>89.6</ele>
        <time>2020-09-13T08:24:35Z</time>
      </trkpt>
      <trkpt lat="46.51613" lon="0.38246">
        <ele>89.6</ele>
        <time>2020-09-13T08:24:37Z</time>
      </trkpt>
      <trkpt lat="46.51613" lon="0.38246">
        <ele>89.6</ele>
        <time>2020-09-13T08:24:38Z</time>
      </trkpt>
      <trkpt lat="46.51641" lon="0.38265">
        <ele>89.2</ele>
        <time>2020-09-13T08:24:44Z</time>
      </trkpt>
      <trkpt lat="46.51647" lon="0.38269">
        <ele>89.2</ele>
        <time>2020-09-13T08:24:45Z</time>
      </trkpt>
      <trkpt lat="46.51657" lon="0.38277">
        <ele>89.6</ele>
        <time>2020-09-13T08:24:47Z</time>
      </trkpt>
      <trkpt lat="46.5168" lon="0.38292">
        <ele>89.6</ele>
        <time>2020-09-13T08:24:50Z</time>
      </trkpt>
      <trkpt lat="46.51686" lon="0.383">
        <ele>90</ele>
        <time>2020-09-13T08:24:52Z</time>
      </trkpt>
      <trkpt lat="46.5169" lon="0.3831">
        <ele>90.4</ele>
        <time>2020-09-13T08:24:54Z</time>
      </trkpt>
      <trkpt lat="46.51696" lon="0.38316">
        <ele>90.6</ele>
        <time>2020-09-13T08:24:56Z</time>
      </trkpt>
      <trkpt lat="46.517" lon="0.3832">
        <ele>90.8</ele>
        <time>2020-09-13T08:24:58Z</time>
      </trkpt>
      <trkpt lat="46.51709" lon="0.38328">
        <ele>91.6</ele>
        <time>2020-09-13T08:25:01Z</time>
      </trkpt>
      <trkpt lat="46.51717" lon="0.38332">
        <ele>92.8</ele>
        <time>2020-09-13T08:25:05Z</time>
      </trkpt>
      <trkpt lat="46.51728" lon="0.38336">
        <ele>94</ele>
        <time>2020-09-13T08:25:09Z</time>
      </trkpt>
      <trkpt lat="46.51732" lon="0.38337">
        <ele>94.4</ele>
        <time>2020-09-13T08:25:11Z</time>
      </trkpt>
      <trkpt lat="46.51741" lon="0.38342">
        <ele>95.2</ele>
        <time>2020-09-13T08:25:15Z</time>
      </trkpt>
      <trkpt lat="46.51747" lon="0.38346">
        <ele>95.8</ele>
        <time>2020-09-13T08:25:17Z</time>
      </trkpt>
      <trkpt lat="46.51758" lon="0.38351">
        <ele>96.8</ele>
        <time>2020-09-13T08:25:21Z</time>
      </trkpt>
      <trkpt lat="46.51763" lon="0.38352">
        <ele>97.4</ele>
        <time>2020-09-13T08:25:23Z</time>
      </trkpt>
      <trkpt lat="46.51765" lon="0.38354">
        <ele>97.8</ele>
        <time>2020-09-13T08:25:24Z</time>
      </trkpt>
      <trkpt lat="46.51778" lon="0.38362">
        <ele>99</ele>
        <time>2020-09-13T08:25:30Z</time>
      </trkpt>
      <trkpt lat="46.51794" lon="0.38371">
        <ele>99.8</ele>
        <time>2020-09-13T08:25:36Z</time>
      </trkpt>
      <trkpt lat="46.51796" lon="0.38372">
        <ele>100</ele>
        <time>2020-09-13T08:25:37Z</time>
      </trkpt>
      <trkpt lat="46.51812" lon="0.38382">
        <ele>101</ele>
        <time>2020-09-13T08:25:42Z</time>
      </trkpt>
      <trkpt lat="46.51815" lon="0.38384">
        <ele>101.2</ele>
        <time>2020-09-13T08:25:43Z</time>
      </trkpt>
      <trkpt lat="46.51824" lon="0.38393">
        <ele>102.2</ele>
        <time>2020-09-13T08:25:47Z</time>
      </trkpt>
      <trkpt lat="46.51825" lon="0.38395">
        <ele>102.4</ele>
        <time>2020-09-13T08:25:48Z</time>
      </trkpt>
      <trkpt lat="46.51836" lon="0.38406">
        <ele>103.4</ele>
        <time>2020-09-13T08:25:53Z</time>
      </trkpt>
      <trkpt lat="46.5184" lon="0.38412">
        <ele>103.6</ele>
        <time>2020-09-13T08:25:55Z</time>
      </trkpt>
      <trkpt lat="46.51845" lon="0.38419">
        <ele>104.6</ele>
        <time>2020-09-13T08:25:58Z</time>
      </trkpt>
      <trkpt lat="46.51851" lon="0.38428">
        <ele>105.4</ele>
        <time>2020-09-13T08:26:02Z</time>
      </trkpt>
      <trkpt lat="46.51854" lon="0.38433">
        <ele>105.8</ele>
        <time>2020-09-13T08:26:04Z</time>
      </trkpt>
      <trkpt lat="46.5186" lon="0.38452">
        <ele>106.4</ele>
        <time>2020-09-13T08:26:09Z</time>
      </trkpt>
      <trkpt lat="46.51867" lon="0.38471">
        <ele>107</ele>
        <time>2020-09-13T08:26:14Z</time>
      </trkpt>
      <trkpt lat="46.51869" lon="0.38474">
        <ele>107</ele>
        <time>2020-09-13T08:26:15Z</time>
      </trkpt>
      <trkpt lat="46.51875" lon="0.38499">
        <ele>108</ele>
        <time>2020-09-13T08:26:21Z</time>
      </trkpt>
      <trkpt lat="46.51884" lon="0.38522">
        <ele>109</ele>
        <time>2020-09-13T08:26:27Z</time>
      </trkpt>
      <trkpt lat="46.51887" lon="0.38529">
        <ele>109.6</ele>
        <time>2020-09-13T08:26:29Z</time>
      </trkpt>
      <trkpt lat="46.51892" lon="0.38539">
        <ele>110.2</ele>
        <time>2020-09-13T08:26:32Z</time>
      </trkpt>
      <trkpt lat="46.51898" lon="0.38558">
        <ele>111</ele>
        <time>2020-09-13T08:26:37Z</time>
      </trkpt>
      <trkpt lat="46.51899" lon="0.38562">
        <ele>111.2</ele>
        <time>2020-09-13T08:26:38Z</time>
      </trkpt>
      <trkpt lat="46.51902" lon="0.3857">
        <ele>111.8</ele>
        <time>2020-09-13T08:26:42Z</time>
      </trkpt>
      <trkpt lat="46.51906" lon="0.38577">
        <ele>112.2</ele>
        <time>2020-09-13T08:26:45Z</time>
      </trkpt>
      <trkpt lat="46.51913" lon="0.38589">
        <ele>113.4</ele>
        <time>2020-09-13T08:26:50Z</time>
      </trkpt>
      <trkpt lat="46.51919" lon="0.38601">
        <ele>114.6</ele>
        <time>2020-09-13T08:26:54Z</time>
      </trkpt>
      <trkpt lat="46.51923" lon="0.38611">
        <ele>115.4</ele>
        <time>2020-09-13T08:26:57Z</time>
      </trkpt>
      <trkpt lat="46.51925" lon="0.38614">
        <ele>115.6</ele>
        <time>2020-09-13T08:26:58Z</time>
      </trkpt>
      <trkpt lat="46.51933" lon="0.38633">
        <ele>116.6</ele>
        <time>2020-09-13T08:27:03Z</time>
      </trkpt>
      <trkpt lat="46.51934" lon="0.38637">
        <ele>116.8</ele>
        <time>2020-09-13T08:27:04Z</time>
      </trkpt>
      <trkpt lat="46.51937" lon="0.38648">
        <ele>117.2</ele>
        <time>2020-09-13T08:27:07Z</time>
      </trkpt>
      <trkpt lat="46.51936" lon="0.38653">
        <ele>117.2</ele>
        <time>2020-09-13T08:27:08Z</time>
      </trkpt>
      <trkpt lat="46.51925" lon="0.3867">
        <ele>117.2</ele>
        <time>2020-09-13T08:27:12Z</time>
      </trkpt>
      <trkpt lat="46.51919" lon="0.38679">
        <ele>117.4</ele>
        <time>2020-09-13T08:27:14Z</time>
      </trkpt>
      <trkpt lat="46.51906" lon="0.38695">
        <ele>117.6</ele>
        <time>2020-09-13T08:27:18Z</time>
      </trkpt>
      <trkpt lat="46.51903" lon="0.387">
        <ele>117.8</ele>
        <time>2020-09-13T08:27:19Z</time>
      </trkpt>
      <trkpt lat="46.51894" lon="0.38711">
        <ele>118.4</ele>
        <time>2020-09-13T08:27:22Z</time>
      </trkpt>
      <trkpt lat="46.51888" lon="0.38721">
        <ele>118.8</ele>
        <time>2020-09-13T08:27:24Z</time>
      </trkpt>
      <trkpt lat="46.51885" lon="0.38726">
        <ele>119</ele>
        <time>2020-09-13T08:27:25Z</time>
      </trkpt>
      <trkpt lat="46.5188" lon="0.38736">
        <ele>118.8</ele>
        <time>2020-09-13T08:27:27Z</time>
      </trkpt>
      <trkpt lat="46.51868" lon="0.38756">
        <ele>118.8</ele>
        <time>2020-09-13T08:27:31Z</time>
      </trkpt>
      <trkpt lat="46.51866" lon="0.38762">
        <ele>118.8</ele>
        <time>2020-09-13T08:27:32Z</time>
      </trkpt>
      <trkpt lat="46.51852" lon="0.38804">
        <ele>118.8</ele>
        <time>2020-09-13T08:27:38Z</time>
      </trkpt>
      <trkpt lat="46.51838" lon="0.38861">
        <ele>118</ele>
        <time>2020-09-13T08:27:45Z</time>
      </trkpt>
      <trkpt lat="46.51836" lon="0.38869">
        <ele>117.6</ele>
        <time>2020-09-13T08:27:46Z</time>
      </trkpt>
      <trkpt lat="46.51835" lon="0.38878">
        <ele>117.2</ele>
        <time>2020-09-13T08:27:47Z</time>
      </trkpt>
      <trkpt lat="46.51831" lon="0.38895">
        <ele>116.8</ele>
        <time>2020-09-13T08:27:49Z</time>
      </trkpt>
      <trkpt lat="46.51828" lon="0.38904">
        <ele>116.6</ele>
        <time>2020-09-13T08:27:50Z</time>
      </trkpt>
      <trkpt lat="46.51813" lon="0.38948">
        <ele>116</ele>
        <time>2020-09-13T08:27:55Z</time>
      </trkpt>
      <trkpt lat="46.5181" lon="0.38955">
        <ele>115.4</ele>
        <time>2020-09-13T08:27:56Z</time>
      </trkpt>
      <trkpt lat="46.51805" lon="0.38972">
        <ele>114.4</ele>
        <time>2020-09-13T08:27:58Z</time>
      </trkpt>
      <trkpt lat="46.51793" lon="0.38998">
        <ele>113.8</ele>
        <time>2020-09-13T08:28:01Z</time>
      </trkpt>
      <trkpt lat="46.51763" lon="0.39048">
        <ele>112.8</ele>
        <time>2020-09-13T08:28:06Z</time>
      </trkpt>
      <trkpt lat="46.51754" lon="0.39063">
        <ele>112.4</ele>
        <time>2020-09-13T08:28:09Z</time>
      </trkpt>
      <trkpt lat="46.51745" lon="0.39078">
        <ele>111.8</ele>
        <time>2020-09-13T08:28:11Z</time>
      </trkpt>
      <trkpt lat="46.51741" lon="0.39086">
        <ele>111.8</ele>
        <time>2020-09-13T08:28:12Z</time>
      </trkpt>
      <trkpt lat="46.51736" lon="0.39093">
        <ele>111.6</ele>
        <time>2020-09-13T08:28:13Z</time>
      </trkpt>
      <trkpt lat="46.51731" lon="0.391">
        <ele>111.6</ele>
        <time>2020-09-13T08:28:14Z</time>
      </trkpt>
      <trkpt lat="46.51726" lon="0.39107">
        <ele>111.4</ele>
        <time>2020-09-13T08:28:15Z</time>
      </trkpt>
      <trkpt lat="46.51712" lon="0.39131">
        <ele>111.2</ele>
        <time>2020-09-13T08:28:18Z</time>
      </trkpt>
      <trkpt lat="46.51708" lon="0.3914">
        <ele>111.2</ele>
        <time>2020-09-13T08:28:19Z</time>
      </trkpt>
      <trkpt lat="46.51699" lon="0.39159">
        <ele>110.6</ele>
        <time>2020-09-13T08:28:21Z</time>
      </trkpt>
      <trkpt lat="46.51695" lon="0.39168">
        <ele>110.2</ele>
        <time>2020-09-13T08:28:22Z</time>
      </trkpt>
      <trkpt lat="46.51685" lon="0.39188">
        <ele>109</ele>
        <time>2020-09-13T08:28:24Z</time>
      </trkpt>
      <trkpt lat="46.51674" lon="0.39209">
        <ele>107.8</ele>
        <time>2020-09-13T08:28:26Z</time>
      </trkpt>
      <trkpt lat="46.51658" lon="0.39243">
        <ele>106.4</ele>
        <time>2020-09-13T08:28:29Z</time>
      </trkpt>
      <trkpt lat="46.51647" lon="0.39265">
        <ele>105.2</ele>
        <time>2020-09-13T08:28:30Z</time>
      </trkpt>
      <trkpt lat="46.51647" lon="0.39265">
        <ele>103.8</ele>
        <time>2020-09-13T08:28:31Z</time>
      </trkpt>
      <trkpt lat="46.51639" lon="0.39282">
        <ele>102.4</ele>
        <time>2020-09-13T08:28:32Z</time>
      </trkpt>
      <trkpt lat="46.51639" lon="0.39282">
        <ele>101.4</ele>
        <time>2020-09-13T08:28:33Z</time>
      </trkpt>
      <trkpt lat="46.51635" lon="0.39288">
        <ele>99.6</ele>
        <time>2020-09-13T08:28:34Z</time>
      </trkpt>
      <trkpt lat="46.5163" lon="0.39291">
        <ele>98.8</ele>
        <time>2020-09-13T08:28:36Z</time>
      </trkpt>
      <trkpt lat="46.51627" lon="0.39288">
        <ele>98.2</ele>
        <time>2020-09-13T08:28:37Z</time>
      </trkpt>
      <trkpt lat="46.51623" lon="0.39285">
        <ele>97.8</ele>
        <time>2020-09-13T08:28:38Z</time>
      </trkpt>
      <trkpt lat="46.51613" lon="0.39284">
        <ele>97.2</ele>
        <time>2020-09-13T08:28:40Z</time>
      </trkpt>
      <trkpt lat="46.51605" lon="0.3929">
        <ele>96.8</ele>
        <time>2020-09-13T08:28:42Z</time>
      </trkpt>
      <trkpt lat="46.51601" lon="0.39295">
        <ele>96.6</ele>
        <time>2020-09-13T08:28:43Z</time>
      </trkpt>
      <trkpt lat="46.51598" lon="0.393">
        <ele>96.4</ele>
        <time>2020-09-13T08:28:44Z</time>
      </trkpt>
      <trkpt lat="46.5159" lon="0.39307">
        <ele>96.4</ele>
        <time>2020-09-13T08:28:46Z</time>
      </trkpt>
      <trkpt lat="46.51587" lon="0.39312">
        <ele>96.4</ele>
        <time>2020-09-13T08:28:47Z</time>
      </trkpt>
      <trkpt lat="46.51585" lon="0.39316">
        <ele>96.8</ele>
        <time>2020-09-13T08:28:48Z</time>
      </trkpt>
      <trkpt lat="46.51585" lon="0.39325">
        <ele>97.8</ele>
        <time>2020-09-13T08:28:50Z</time>
      </trkpt>
      <trkpt lat="46.51586" lon="0.39329">
        <ele>98.4</ele>
        <time>2020-09-13T08:28:51Z</time>
      </trkpt>
      <trkpt lat="46.51589" lon="0.3934">
        <ele>99.6</ele>
        <time>2020-09-13T08:28:53Z</time>
      </trkpt>
      <trkpt lat="46.51589" lon="0.39346">
        <ele>100.2</ele>
        <time>2020-09-13T08:28:54Z</time>
      </trkpt>
      <trkpt lat="46.51589" lon="0.39351">
        <ele>100.8</ele>
        <time>2020-09-13T08:28:55Z</time>
      </trkpt>
      <trkpt lat="46.51589" lon="0.39355">
        <ele>101</ele>
        <time>2020-09-13T08:28:56Z</time>
      </trkpt>
      <trkpt lat="46.51589" lon="0.3936">
        <ele>101.4</ele>
        <time>2020-09-13T08:28:57Z</time>
      </trkpt>
      <trkpt lat="46.51588" lon="0.39371">
        <ele>102</ele>
        <time>2020-09-13T08:29:00Z</time>
      </trkpt>
      <trkpt lat="46.51587" lon="0.39379">
        <ele>102.4</ele>
        <time>2020-09-13T08:29:02Z</time>
      </trkpt>
      <trkpt lat="46.51586" lon="0.39386">
        <ele>103</ele>
        <time>2020-09-13T08:29:04Z</time>
      </trkpt>
      <trkpt lat="46.51583" lon="0.394">
        <ele>103.8</ele>
        <time>2020-09-13T08:29:08Z</time>
      </trkpt>
      <trkpt lat="46.51581" lon="0.39412">
        <ele>104.2</ele>
        <time>2020-09-13T08:29:11Z</time>
      </trkpt>
      <trkpt lat="46.51578" lon="0.39432">
        <ele>105</ele>
        <time>2020-09-13T08:29:16Z</time>
      </trkpt>
      <trkpt lat="46.51578" lon="0.3944">
        <ele>105.4</ele>
        <time>2020-09-13T08:29:18Z</time>
      </trkpt>
      <trkpt lat="46.51576" lon="0.39456">
        <ele>106.6</ele>
        <time>2020-09-13T08:29:22Z</time>
      </trkpt>
      <trkpt lat="46.51575" lon="0.39464">
        <ele>106.8</ele>
        <time>2020-09-13T08:29:23Z</time>
      </trkpt>
      <trkpt lat="46.51574" lon="0.39484">
        <ele>107.6</ele>
        <time>2020-09-13T08:29:29Z</time>
      </trkpt>
      <trkpt lat="46.51573" lon="0.395">
        <ele>108</ele>
        <time>2020-09-13T08:29:32Z</time>
      </trkpt>
      <trkpt lat="46.51573" lon="0.39531">
        <ele>108.4</ele>
        <time>2020-09-13T08:29:38Z</time>
      </trkpt>
      <trkpt lat="46.5157" lon="0.3957">
        <ele>108.8</ele>
        <time>2020-09-13T08:29:45Z</time>
      </trkpt>
      <trkpt lat="46.51568" lon="0.39608">
        <ele>108.6</ele>
        <time>2020-09-13T08:29:51Z</time>
      </trkpt>
      <trkpt lat="46.51567" lon="0.39616">
        <ele>108.6</ele>
        <time>2020-09-13T08:29:52Z</time>
      </trkpt>
      <trkpt lat="46.51562" lon="0.39642">
        <ele>108.2</ele>
        <time>2020-09-13T08:29:55Z</time>
      </trkpt>
      <trkpt lat="46.51561" lon="0.3966">
        <ele>108</ele>
        <time>2020-09-13T08:29:57Z</time>
      </trkpt>
      <trkpt lat="46.51553" lon="0.39715">
        <ele>108.6</ele>
        <time>2020-09-13T08:30:04Z</time>
      </trkpt>
      <trkpt lat="46.51547" lon="0.39759">
        <ele>109.8</ele>
        <time>2020-09-13T08:30:10Z</time>
      </trkpt>
      <trkpt lat="46.51543" lon="0.39778">
        <ele>110.2</ele>
        <time>2020-09-13T08:30:13Z</time>
      </trkpt>
      <trkpt lat="46.51538" lon="0.39796">
        <ele>110.8</ele>
        <time>2020-09-13T08:30:16Z</time>
      </trkpt>
      <trkpt lat="46.51536" lon="0.39807">
        <ele>111.4</ele>
        <time>2020-09-13T08:30:18Z</time>
      </trkpt>
      <trkpt lat="46.51532" lon="0.39819">
        <ele>111.8</ele>
        <time>2020-09-13T08:30:20Z</time>
      </trkpt>
      <trkpt lat="46.51527" lon="0.39838">
        <ele>112</ele>
        <time>2020-09-13T08:30:22Z</time>
      </trkpt>
      <trkpt lat="46.51518" lon="0.3987">
        <ele>113</ele>
        <time>2020-09-13T08:30:27Z</time>
      </trkpt>
      <trkpt lat="46.51517" lon="0.39876">
        <ele>113.2</ele>
        <time>2020-09-13T08:30:28Z</time>
      </trkpt>
      <trkpt lat="46.51514" lon="0.3989">
        <ele>113.6</ele>
        <time>2020-09-13T08:30:31Z</time>
      </trkpt>
      <trkpt lat="46.51513" lon="0.39896">
        <ele>113.6</ele>
        <time>2020-09-13T08:30:32Z</time>
      </trkpt>
      <trkpt lat="46.51512" lon="0.39923">
        <ele>114.2</ele>
        <time>2020-09-13T08:30:36Z</time>
      </trkpt>
      <trkpt lat="46.51512" lon="0.39956">
        <ele>115.2</ele>
        <time>2020-09-13T08:30:41Z</time>
      </trkpt>
      <trkpt lat="46.51514" lon="0.39969">
        <ele>115.8</ele>
        <time>2020-09-13T08:30:43Z</time>
      </trkpt>
      <trkpt lat="46.51517" lon="0.39986">
        <ele>116.2</ele>
        <time>2020-09-13T08:30:46Z</time>
      </trkpt>
      <trkpt lat="46.51519" lon="0.40003">
        <ele>116.6</ele>
        <time>2020-09-13T08:30:49Z</time>
      </trkpt>
      <trkpt lat="46.51521" lon="0.40034">
        <ele>117.4</ele>
        <time>2020-09-13T08:30:54Z</time>
      </trkpt>
      <trkpt lat="46.51521" lon="0.40047">
        <ele>117.6</ele>
        <time>2020-09-13T08:30:56Z</time>
      </trkpt>
      <trkpt lat="46.51515" lon="0.40085">
        <ele>118</ele>
        <time>2020-09-13T08:31:02Z</time>
      </trkpt>
      <trkpt lat="46.51513" lon="0.40098">
        <ele>118.4</ele>
        <time>2020-09-13T08:31:04Z</time>
      </trkpt>
      <trkpt lat="46.51506" lon="0.40144">
        <ele>119</ele>
        <time>2020-09-13T08:31:11Z</time>
      </trkpt>
      <trkpt lat="46.51498" lon="0.40195">
        <ele>119.4</ele>
        <time>2020-09-13T08:31:18Z</time>
      </trkpt>
      <trkpt lat="46.51497" lon="0.40202">
        <ele>119.4</ele>
        <time>2020-09-13T08:31:19Z</time>
      </trkpt>
      <trkpt lat="46.51488" lon="0.40252">
        <ele>119.6</ele>
        <time>2020-09-13T08:31:26Z</time>
      </trkpt>
      <trkpt lat="46.51476" lon="0.40291">
        <ele>119.4</ele>
        <time>2020-09-13T08:31:32Z</time>
      </trkpt>
      <trkpt lat="46.5147" lon="0.4032">
        <ele>120.4</ele>
        <time>2020-09-13T08:31:37Z</time>
      </trkpt>
      <trkpt lat="46.51469" lon="0.40328">
        <ele>120.6</ele>
        <time>2020-09-13T08:31:38Z</time>
      </trkpt>
      <trkpt lat="46.51468" lon="0.40345">
        <ele>120.8</ele>
        <time>2020-09-13T08:31:39Z</time>
      </trkpt>
      <trkpt lat="46.51468" lon="0.40405">
        <ele>120.4</ele>
        <time>2020-09-13T08:31:47Z</time>
      </trkpt>
      <trkpt lat="46.51467" lon="0.4045">
        <ele>119.6</ele>
        <time>2020-09-13T08:31:52Z</time>
      </trkpt>
      <trkpt lat="46.51466" lon="0.40459">
        <ele>119.2</ele>
        <time>2020-09-13T08:31:53Z</time>
      </trkpt>
      <trkpt lat="46.51464" lon="0.40478">
        <ele>118.8</ele>
        <time>2020-09-13T08:31:54Z</time>
      </trkpt>
      <trkpt lat="46.51463" lon="0.40487">
        <ele>118.6</ele>
        <time>2020-09-13T08:31:55Z</time>
      </trkpt>
      <trkpt lat="46.51459" lon="0.40517">
        <ele>118</ele>
        <time>2020-09-13T08:31:58Z</time>
      </trkpt>
      <trkpt lat="46.51457" lon="0.40536">
        <ele>117.4</ele>
        <time>2020-09-13T08:32:00Z</time>
      </trkpt>
      <trkpt lat="46.51456" lon="0.40545">
        <ele>117.2</ele>
        <time>2020-09-13T08:32:01Z</time>
      </trkpt>
      <trkpt lat="46.51454" lon="0.40568">
        <ele>116.4</ele>
        <time>2020-09-13T08:32:04Z</time>
      </trkpt>
      <trkpt lat="46.51451" lon="0.40575">
        <ele>115.6</ele>
        <time>2020-09-13T08:32:06Z</time>
      </trkpt>
      <trkpt lat="46.5145" lon="0.40576">
        <ele>115.2</ele>
        <time>2020-09-13T08:32:07Z</time>
      </trkpt>
      <trkpt lat="46.51446" lon="0.40586">
        <ele>114.4</ele>
        <time>2020-09-13T08:32:10Z</time>
      </trkpt>
      <trkpt lat="46.51445" lon="0.40589">
        <ele>114.2</ele>
        <time>2020-09-13T08:32:11Z</time>
      </trkpt>
      <trkpt lat="46.51443" lon="0.40593">
        <ele>114</ele>
        <time>2020-09-13T08:32:12Z</time>
      </trkpt>
      <trkpt lat="46.51438" lon="0.40598">
        <ele>113.8</ele>
        <time>2020-09-13T08:32:14Z</time>
      </trkpt>
      <trkpt lat="46.51435" lon="0.40599">
        <ele>113.4</ele>
        <time>2020-09-13T08:32:15Z</time>
      </trkpt>
      <trkpt lat="46.5143" lon="0.406">
        <ele>113</ele>
        <time>2020-09-13T08:32:16Z</time>
      </trkpt>
      <trkpt lat="46.51426" lon="0.40601">
        <ele>112.4</ele>
        <time>2020-09-13T08:32:17Z</time>
      </trkpt>
      <trkpt lat="46.51422" lon="0.40602">
        <ele>112</ele>
        <time>2020-09-13T08:32:18Z</time>
      </trkpt>
      <trkpt lat="46.51411" lon="0.40606">
        <ele>111.2</ele>
        <time>2020-09-13T08:32:20Z</time>
      </trkpt>
      <trkpt lat="46.51407" lon="0.40609">
        <ele>110.8</ele>
        <time>2020-09-13T08:32:21Z</time>
      </trkpt>
      <trkpt lat="46.51404" lon="0.40612">
        <ele>109.4</ele>
        <time>2020-09-13T08:32:23Z</time>
      </trkpt>
      <trkpt lat="46.51402" lon="0.40616">
        <ele>108.6</ele>
        <time>2020-09-13T08:32:24Z</time>
      </trkpt>
      <trkpt lat="46.51401" lon="0.40621">
        <ele>107.4</ele>
        <time>2020-09-13T08:32:25Z</time>
      </trkpt>
      <trkpt lat="46.51396" lon="0.4063">
        <ele>105.8</ele>
        <time>2020-09-13T08:32:27Z</time>
      </trkpt>
      <trkpt lat="46.51389" lon="0.4064">
        <ele>105</ele>
        <time>2020-09-13T08:32:29Z</time>
      </trkpt>
      <trkpt lat="46.51385" lon="0.40645">
        <ele>104.8</ele>
        <time>2020-09-13T08:32:30Z</time>
      </trkpt>
      <trkpt lat="46.51382" lon="0.40658">
        <ele>104.6</ele>
        <time>2020-09-13T08:32:32Z</time>
      </trkpt>
      <trkpt lat="46.51379" lon="0.40673">
        <ele>104.6</ele>
        <time>2020-09-13T08:32:33Z</time>
      </trkpt>
      <trkpt lat="46.51378" lon="0.40683">
        <ele>104.8</ele>
        <time>2020-09-13T08:32:34Z</time>
      </trkpt>
      <trkpt lat="46.5138" lon="0.40706">
        <ele>104.8</ele>
        <time>2020-09-13T08:32:37Z</time>
      </trkpt>
      <trkpt lat="46.51377" lon="0.40735">
        <ele>105.4</ele>
        <time>2020-09-13T08:32:42Z</time>
      </trkpt>
      <trkpt lat="46.51375" lon="0.40745">
        <ele>105.6</ele>
        <time>2020-09-13T08:32:43Z</time>
      </trkpt>
      <trkpt lat="46.51375" lon="0.40745">
        <ele>105.8</ele>
        <time>2020-09-13T08:32:44Z</time>
      </trkpt>
      <trkpt lat="46.51371" lon="0.40764">
        <ele>107</ele>
        <time>2020-09-13T08:32:48Z</time>
      </trkpt>
      <trkpt lat="46.51371" lon="0.40771">
        <ele>108.2</ele>
        <time>2020-09-13T08:32:50Z</time>
      </trkpt>
      <trkpt lat="46.51372" lon="0.40781">
        <ele>109.2</ele>
        <time>2020-09-13T08:32:53Z</time>
      </trkpt>
      <trkpt lat="46.51372" lon="0.40801">
        <ele>110.4</ele>
        <time>2020-09-13T08:32:58Z</time>
      </trkpt>
      <trkpt lat="46.51371" lon="0.40822">
        <ele>111.6</ele>
        <time>2020-09-13T08:33:02Z</time>
      </trkpt>
      <trkpt lat="46.51371" lon="0.40831">
        <ele>111.8</ele>
        <time>2020-09-13T08:33:04Z</time>
      </trkpt>
      <trkpt lat="46.51371" lon="0.4085">
        <ele>112.8</ele>
        <time>2020-09-13T08:33:10Z</time>
      </trkpt>
      <trkpt lat="46.51369" lon="0.40872">
        <ele>113.4</ele>
        <time>2020-09-13T08:33:16Z</time>
      </trkpt>
      <trkpt lat="46.51371" lon="0.40885">
        <ele>114</ele>
        <time>2020-09-13T08:33:19Z</time>
      </trkpt>
      <trkpt lat="46.51372" lon="0.40899">
        <ele>114.4</ele>
        <time>2020-09-13T08:33:22Z</time>
      </trkpt>
      <trkpt lat="46.51373" lon="0.40909">
        <ele>115</ele>
        <time>2020-09-13T08:33:24Z</time>
      </trkpt>
      <trkpt lat="46.51373" lon="0.4092">
        <ele>115.6</ele>
        <time>2020-09-13T08:33:26Z</time>
      </trkpt>
      <trkpt lat="46.51373" lon="0.4093">
        <ele>116.2</ele>
        <time>2020-09-13T08:33:28Z</time>
      </trkpt>
      <trkpt lat="46.51372" lon="0.40952">
        <ele>117.2</ele>
        <time>2020-09-13T08:33:32Z</time>
      </trkpt>
      <trkpt lat="46.51372" lon="0.40957">
        <ele>117.6</ele>
        <time>2020-09-13T08:33:33Z</time>
      </trkpt>
      <trkpt lat="46.5137" lon="0.40983">
        <ele>118.4</ele>
        <time>2020-09-13T08:33:38Z</time>
      </trkpt>
      <trkpt lat="46.51368" lon="0.4101">
        <ele>119.2</ele>
        <time>2020-09-13T08:33:44Z</time>
      </trkpt>
      <trkpt lat="46.51368" lon="0.41021">
        <ele>119.4</ele>
        <time>2020-09-13T08:33:46Z</time>
      </trkpt>
      <trkpt lat="46.51367" lon="0.41032">
        <ele>119.4</ele>
        <time>2020-09-13T08:33:48Z</time>
      </trkpt>
      <trkpt lat="46.51366" lon="0.41038">
        <ele>119.6</ele>
        <time>2020-09-13T08:33:49Z</time>
      </trkpt>
      <trkpt lat="46.51366" lon="0.41044">
        <ele>119.8</ele>
        <time>2020-09-13T08:33:50Z</time>
      </trkpt>
      <trkpt lat="46.51366" lon="0.41062">
        <ele>120.2</ele>
        <time>2020-09-13T08:33:54Z</time>
      </trkpt>
      <trkpt lat="46.51365" lon="0.4108">
        <ele>120.4</ele>
        <time>2020-09-13T08:33:57Z</time>
      </trkpt>
      <trkpt lat="46.51364" lon="0.41092">
        <ele>120.8</ele>
        <time>2020-09-13T08:33:59Z</time>
      </trkpt>
      <trkpt lat="46.51362" lon="0.41111">
        <ele>121</ele>
        <time>2020-09-13T08:34:02Z</time>
      </trkpt>
      <trkpt lat="46.51361" lon="0.41117">
        <ele>121</ele>
        <time>2020-09-13T08:34:04Z</time>
      </trkpt>
      <trkpt lat="46.5136" lon="0.4113">
        <ele>121.2</ele>
        <time>2020-09-13T08:34:06Z</time>
      </trkpt>
      <trkpt lat="46.5136" lon="0.41145">
        <ele>121.4</ele>
        <time>2020-09-13T08:34:09Z</time>
      </trkpt>
      <trkpt lat="46.51356" lon="0.41162">
        <ele>121.8</ele>
        <time>2020-09-13T08:34:12Z</time>
      </trkpt>
      <trkpt lat="46.5134" lon="0.41187">
        <ele>122.2</ele>
        <time>2020-09-13T08:34:17Z</time>
      </trkpt>
      <trkpt lat="46.51331" lon="0.41205">
        <ele>122.4</ele>
        <time>2020-09-13T08:34:20Z</time>
      </trkpt>
      <trkpt lat="46.51329" lon="0.4121">
        <ele>122.4</ele>
        <time>2020-09-13T08:34:21Z</time>
      </trkpt>
      <trkpt lat="46.51327" lon="0.41213">
        <ele>122.4</ele>
        <time>2020-09-13T08:34:22Z</time>
      </trkpt>
      <trkpt lat="46.51323" lon="0.41214">
        <ele>122.4</ele>
        <time>2020-09-13T08:34:24Z</time>
      </trkpt>
      <trkpt lat="46.5132" lon="0.41213">
        <ele>122.4</ele>
        <time>2020-09-13T08:34:25Z</time>
      </trkpt>
      <trkpt lat="46.51314" lon="0.41214">
        <ele>122.2</ele>
        <time>2020-09-13T08:34:27Z</time>
      </trkpt>
      <trkpt lat="46.51312" lon="0.41214">
        <ele>122.2</ele>
        <time>2020-09-13T08:34:28Z</time>
      </trkpt>
      <trkpt lat="46.51309" lon="0.41214">
        <ele>122</ele>
        <time>2020-09-13T08:34:29Z</time>
      </trkpt>
      <trkpt lat="46.513" lon="0.41216">
        <ele>121.4</ele>
        <time>2020-09-13T08:34:32Z</time>
      </trkpt>
      <trkpt lat="46.51291" lon="0.41218">
        <ele>121</ele>
        <time>2020-09-13T08:34:34Z</time>
      </trkpt>
      <trkpt lat="46.51276" lon="0.4122">
        <ele>120.4</ele>
        <time>2020-09-13T08:34:37Z</time>
      </trkpt>
      <trkpt lat="46.51272" lon="0.41222">
        <ele>120</ele>
        <time>2020-09-13T08:34:38Z</time>
      </trkpt>
      <trkpt lat="46.51267" lon="0.41224">
        <ele>119.4</ele>
        <time>2020-09-13T08:34:39Z</time>
      </trkpt>
      <trkpt lat="46.51263" lon="0.41225">
        <ele>118.6</ele>
        <time>2020-09-13T08:34:40Z</time>
      </trkpt>
      <trkpt lat="46.51256" lon="0.41226">
        <ele>117.6</ele>
        <time>2020-09-13T08:34:42Z</time>
      </trkpt>
      <trkpt lat="46.51253" lon="0.41227">
        <ele>117</ele>
        <time>2020-09-13T08:34:43Z</time>
      </trkpt>
      <trkpt lat="46.51252" lon="0.41229">
        <ele>116.4</ele>
        <time>2020-09-13T08:34:44Z</time>
      </trkpt>
      <trkpt lat="46.51249" lon="0.41231">
        <ele>115</ele>
        <time>2020-09-13T08:34:46Z</time>
      </trkpt>
      <trkpt lat="46.51247" lon="0.41233">
        <ele>114.2</ele>
        <time>2020-09-13T08:34:47Z</time>
      </trkpt>
      <trkpt lat="46.51244" lon="0.41234">
        <ele>113.4</ele>
        <time>2020-09-13T08:34:48Z</time>
      </trkpt>
      <trkpt lat="46.51242" lon="0.41236">
        <ele>112.8</ele>
        <time>2020-09-13T08:34:49Z</time>
      </trkpt>
      <trkpt lat="46.51241" lon="0.41237">
        <ele>112</ele>
        <time>2020-09-13T08:34:50Z</time>
      </trkpt>
      <trkpt lat="46.51239" lon="0.41238">
        <ele>111.2</ele>
        <time>2020-09-13T08:34:51Z</time>
      </trkpt>
      <trkpt lat="46.51237" lon="0.41238">
        <ele>110.4</ele>
        <time>2020-09-13T08:34:52Z</time>
      </trkpt>
      <trkpt lat="46.51232" lon="0.41241">
        <ele>109.2</ele>
        <time>2020-09-13T08:34:54Z</time>
      </trkpt>
      <trkpt lat="46.51229" lon="0.41243">
        <ele>108</ele>
        <time>2020-09-13T08:34:56Z</time>
      </trkpt>
      <trkpt lat="46.51225" lon="0.41243">
        <ele>107</ele>
        <time>2020-09-13T08:34:58Z</time>
      </trkpt>
      <trkpt lat="46.51222" lon="0.41243">
        <ele>106.4</ele>
        <time>2020-09-13T08:34:59Z</time>
      </trkpt>
      <trkpt lat="46.51218" lon="0.41244">
        <ele>105.2</ele>
        <time>2020-09-13T08:35:01Z</time>
      </trkpt>
      <trkpt lat="46.51216" lon="0.41243">
        <ele>104.6</ele>
        <time>2020-09-13T08:35:02Z</time>
      </trkpt>
      <trkpt lat="46.51215" lon="0.41243">
        <ele>104.2</ele>
        <time>2020-09-13T08:35:03Z</time>
      </trkpt>
      <trkpt lat="46.51212" lon="0.4124">
        <ele>102.6</ele>
        <time>2020-09-13T08:35:05Z</time>
      </trkpt>
      <trkpt lat="46.5121" lon="0.41238">
        <ele>101.8</ele>
        <time>2020-09-13T08:35:06Z</time>
      </trkpt>
      <trkpt lat="46.51208" lon="0.41235">
        <ele>101.2</ele>
        <time>2020-09-13T08:35:07Z</time>
      </trkpt>
      <trkpt lat="46.51201" lon="0.41226">
        <ele>100.6</ele>
        <time>2020-09-13T08:35:11Z</time>
      </trkpt>
      <trkpt lat="46.51194" lon="0.41208">
        <ele>100.8</ele>
        <time>2020-09-13T08:35:17Z</time>
      </trkpt>
      <trkpt lat="46.5119" lon="0.41194">
        <ele>101</ele>
        <time>2020-09-13T08:35:21Z</time>
      </trkpt>
      <trkpt lat="46.5119" lon="0.41193">
        <ele>101</ele>
        <time>2020-09-13T08:35:22Z</time>
      </trkpt>
      <trkpt lat="46.51189" lon="0.41192">
        <ele>101</ele>
        <time>2020-09-13T08:35:24Z</time>
      </trkpt>
      <trkpt lat="46.51189" lon="0.41185">
        <ele>102.2</ele>
        <time>2020-09-13T08:35:30Z</time>
      </trkpt>
      <trkpt lat="46.51188" lon="0.41184">
        <ele>102.8</ele>
        <time>2020-09-13T08:35:31Z</time>
      </trkpt>
      <trkpt lat="46.51188" lon="0.41181">
        <ele>103.6</ele>
        <time>2020-09-13T08:35:33Z</time>
      </trkpt>
      <trkpt lat="46.51188" lon="0.41178">
        <ele>104.6</ele>
        <time>2020-09-13T08:35:36Z</time>
      </trkpt>
      <trkpt lat="46.51186" lon="0.41177">
        <ele>104.8</ele>
        <time>2020-09-13T08:35:37Z</time>
      </trkpt>
      <trkpt lat="46.51185" lon="0.41173">
        <ele>105.8</ele>
        <time>2020-09-13T08:35:42Z</time>
      </trkpt>
      <trkpt lat="46.51183" lon="0.41173">
        <ele>106.8</ele>
        <time>2020-09-13T08:35:53Z</time>
      </trkpt>
      <trkpt lat="46.51183" lon="0.41173">
        <ele>106.8</ele>
        <time>2020-09-13T08:35:54Z</time>
      </trkpt>
      <trkpt lat="46.51183" lon="0.41173">
        <ele>106.8</ele>
        <time>2020-09-13T08:36:05Z</time>
      </trkpt>
      <trkpt lat="46.51186" lon="0.41173">
        <ele>107.4</ele>
        <time>2020-09-13T08:36:13Z</time>
      </trkpt>
      <trkpt lat="46.51187" lon="0.41172">
        <ele>107.8</ele>
        <time>2020-09-13T08:36:17Z</time>
      </trkpt>
      <trkpt lat="46.51186" lon="0.4117">
        <ele>108.8</ele>
        <time>2020-09-13T08:36:24Z</time>
      </trkpt>
      <trkpt lat="46.51186" lon="0.4117">
        <ele>108.8</ele>
        <time>2020-09-13T08:36:25Z</time>
      </trkpt>
      <trkpt lat="46.51186" lon="0.4117">
        <ele>109</ele>
        <time>2020-09-13T08:36:34Z</time>
      </trkpt>
      <trkpt lat="46.51185" lon="0.41167">
        <ele>109.4</ele>
        <time>2020-09-13T08:36:47Z</time>
      </trkpt>
      <trkpt lat="46.51185" lon="0.41166">
        <ele>109.6</ele>
        <time>2020-09-13T08:36:49Z</time>
      </trkpt>
      <trkpt lat="46.51184" lon="0.41165">
        <ele>109.8</ele>
        <time>2020-09-13T08:36:51Z</time>
      </trkpt>
      <trkpt lat="46.51184" lon="0.41165">
        <ele>110</ele>
        <time>2020-09-13T08:36:52Z</time>
      </trkpt>
      <trkpt lat="46.51184" lon="0.41164">
        <ele>110.2</ele>
        <time>2020-09-13T08:36:54Z</time>
      </trkpt>
      <trkpt lat="46.51184" lon="0.41162">
        <ele>110.6</ele>
        <time>2020-09-13T08:36:57Z</time>
      </trkpt>
      <trkpt lat="46.51184" lon="0.41161">
        <ele>110.8</ele>
        <time>2020-09-13T08:36:58Z</time>
      </trkpt>
      <trkpt lat="46.51184" lon="0.41156">
        <ele>110.8</ele>
        <time>2020-09-13T08:37:02Z</time>
      </trkpt>
      <trkpt lat="46.51184" lon="0.41154">
        <ele>111</ele>
        <time>2020-09-13T08:37:03Z</time>
      </trkpt>
      <trkpt lat="46.51186" lon="0.41146">
        <ele>111.6</ele>
        <time>2020-09-13T08:37:07Z</time>
      </trkpt>
      <trkpt lat="46.51188" lon="0.41135">
        <ele>112</ele>
        <time>2020-09-13T08:37:10Z</time>
      </trkpt>
      <trkpt lat="46.51189" lon="0.41127">
        <ele>113</ele>
        <time>2020-09-13T08:37:12Z</time>
      </trkpt>
      <trkpt lat="46.5119" lon="0.41123">
        <ele>113.2</ele>
        <time>2020-09-13T08:37:13Z</time>
      </trkpt>
      <trkpt lat="46.51193" lon="0.41111">
        <ele>113.8</ele>
        <time>2020-09-13T08:37:17Z</time>
      </trkpt>
      <trkpt lat="46.51195" lon="0.41104">
        <ele>114.2</ele>
        <time>2020-09-13T08:37:19Z</time>
      </trkpt>
      <trkpt lat="46.51198" lon="0.41091">
        <ele>115.4</ele>
        <time>2020-09-13T08:37:23Z</time>
      </trkpt>
      <trkpt lat="46.512" lon="0.41088">
        <ele>116.6</ele>
        <time>2020-09-13T08:37:25Z</time>
      </trkpt>
      <trkpt lat="46.51204" lon="0.4107">
        <ele>117.6</ele>
        <time>2020-09-13T08:37:29Z</time>
      </trkpt>
      <trkpt lat="46.51211" lon="0.41041">
        <ele>118.6</ele>
        <time>2020-09-13T08:37:36Z</time>
      </trkpt>
      <trkpt lat="46.51217" lon="0.41028">
        <ele>118.8</ele>
        <time>2020-09-13T08:37:39Z</time>
      </trkpt>
      <trkpt lat="46.51226" lon="0.41009">
        <ele>119.4</ele>
        <time>2020-09-13T08:37:44Z</time>
      </trkpt>
      <trkpt lat="46.51233" lon="0.40989">
        <ele>119.6</ele>
        <time>2020-09-13T08:37:48Z</time>
      </trkpt>
      <trkpt lat="46.51233" lon="0.40982">
        <ele>119.4</ele>
        <time>2020-09-13T08:37:49Z</time>
      </trkpt>
      <trkpt lat="46.51237" lon="0.40971">
        <ele>119.4</ele>
        <time>2020-09-13T08:37:50Z</time>
      </trkpt>
      <trkpt lat="46.51243" lon="0.4096">
        <ele>119.4</ele>
        <time>2020-09-13T08:37:53Z</time>
      </trkpt>
      <trkpt lat="46.51252" lon="0.4094">
        <ele>119.4</ele>
        <time>2020-09-13T08:37:55Z</time>
      </trkpt>
      <trkpt lat="46.51253" lon="0.40935">
        <ele>119.2</ele>
        <time>2020-09-13T08:37:56Z</time>
      </trkpt>
      <trkpt lat="46.51256" lon="0.40925">
        <ele>119.2</ele>
        <time>2020-09-13T08:37:59Z</time>
      </trkpt>
      <trkpt lat="46.51254" lon="0.40917">
        <ele>119.2</ele>
        <time>2020-09-13T08:38:01Z</time>
      </trkpt>
      <trkpt lat="46.5125" lon="0.40908">
        <ele>119.2</ele>
        <time>2020-09-13T08:38:02Z</time>
      </trkpt>
      <trkpt lat="46.51235" lon="0.40888">
        <ele>119.2</ele>
        <time>2020-09-13T08:38:07Z</time>
      </trkpt>
      <trkpt lat="46.51229" lon="0.40881">
        <ele>119.2</ele>
        <time>2020-09-13T08:38:09Z</time>
      </trkpt>
      <trkpt lat="46.51217" lon="0.40867">
        <ele>119.2</ele>
        <time>2020-09-13T08:38:12Z</time>
      </trkpt>
      <trkpt lat="46.51204" lon="0.40852">
        <ele>119</ele>
        <time>2020-09-13T08:38:15Z</time>
      </trkpt>
      <trkpt lat="46.51176" lon="0.40828">
        <ele>119</ele>
        <time>2020-09-13T08:38:21Z</time>
      </trkpt>
      <trkpt lat="46.51167" lon="0.40821">
        <ele>119.2</ele>
        <time>2020-09-13T08:38:23Z</time>
      </trkpt>
      <trkpt lat="46.51163" lon="0.40815">
        <ele>119</ele>
        <time>2020-09-13T08:38:25Z</time>
      </trkpt>
      <trkpt lat="46.51164" lon="0.40802">
        <ele>118.6</ele>
        <time>2020-09-13T08:38:29Z</time>
      </trkpt>
      <trkpt lat="46.51167" lon="0.40797">
        <ele>118.6</ele>
        <time>2020-09-13T08:38:31Z</time>
      </trkpt>
      <trkpt lat="46.51173" lon="0.40787">
        <ele>118.4</ele>
        <time>2020-09-13T08:38:34Z</time>
      </trkpt>
      <trkpt lat="46.51176" lon="0.40785">
        <ele>118.4</ele>
        <time>2020-09-13T08:38:35Z</time>
      </trkpt>
      <trkpt lat="46.5118" lon="0.40781">
        <ele>118</ele>
        <time>2020-09-13T08:38:37Z</time>
      </trkpt>
      <trkpt lat="46.51183" lon="0.40777">
        <ele>117.8</ele>
        <time>2020-09-13T08:38:38Z</time>
      </trkpt>
      <trkpt lat="46.51184" lon="0.40772">
        <ele>117.8</ele>
        <time>2020-09-13T08:38:40Z</time>
      </trkpt>
      <trkpt lat="46.51189" lon="0.4076">
        <ele>117.6</ele>
        <time>2020-09-13T08:38:42Z</time>
      </trkpt>
      <trkpt lat="46.5119" lon="0.40755">
        <ele>117.6</ele>
        <time>2020-09-13T08:38:43Z</time>
      </trkpt>
      <trkpt lat="46.51194" lon="0.4075">
        <ele>117.4</ele>
        <time>2020-09-13T08:38:44Z</time>
      </trkpt>
      <trkpt lat="46.51198" lon="0.40736">
        <ele>117</ele>
        <time>2020-09-13T08:38:47Z</time>
      </trkpt>
      <trkpt lat="46.51199" lon="0.40732">
        <ele>116.8</ele>
        <time>2020-09-13T08:38:48Z</time>
      </trkpt>
      <trkpt lat="46.51201" lon="0.40728">
        <ele>116.8</ele>
        <time>2020-09-13T08:38:49Z</time>
      </trkpt>
      <trkpt lat="46.51208" lon="0.40717">
        <ele>116.8</ele>
        <time>2020-09-13T08:38:50Z</time>
      </trkpt>
      <trkpt lat="46.5121" lon="0.40706">
        <ele>116.6</ele>
        <time>2020-09-13T08:38:52Z</time>
      </trkpt>
      <trkpt lat="46.51211" lon="0.40701">
        <ele>116.4</ele>
        <time>2020-09-13T08:38:53Z</time>
      </trkpt>
      <trkpt lat="46.51211" lon="0.40696">
        <ele>115.4</ele>
        <time>2020-09-13T08:38:55Z</time>
      </trkpt>
      <trkpt lat="46.51209" lon="0.40689">
        <ele>114.6</ele>
        <time>2020-09-13T08:38:57Z</time>
      </trkpt>
      <trkpt lat="46.51207" lon="0.40687">
        <ele>114.4</ele>
        <time>2020-09-13T08:38:59Z</time>
      </trkpt>
      <trkpt lat="46.51204" lon="0.40677">
        <ele>114</ele>
        <time>2020-09-13T08:39:02Z</time>
      </trkpt>
      <trkpt lat="46.51203" lon="0.40677">
        <ele>114</ele>
        <time>2020-09-13T08:39:03Z</time>
      </trkpt>
      <trkpt lat="46.51196" lon="0.40675">
        <ele>114</ele>
        <time>2020-09-13T08:39:06Z</time>
      </trkpt>
      <trkpt lat="46.51191" lon="0.40669">
        <ele>114.2</ele>
        <time>2020-09-13T08:39:09Z</time>
      </trkpt>
      <trkpt lat="46.51186" lon="0.40665">
        <ele>114.2</ele>
        <time>2020-09-13T08:39:11Z</time>
      </trkpt>
      <trkpt lat="46.51178" lon="0.40657">
        <ele>114</ele>
        <time>2020-09-13T08:39:15Z</time>
      </trkpt>
      <trkpt lat="46.51177" lon="0.40653">
        <ele>114</ele>
        <time>2020-09-13T08:39:16Z</time>
      </trkpt>
      <trkpt lat="46.5117" lon="0.40641">
        <ele>113.8</ele>
        <time>2020-09-13T08:39:19Z</time>
      </trkpt>
      <trkpt lat="46.51169" lon="0.40636">
        <ele>113.6</ele>
        <time>2020-09-13T08:39:20Z</time>
      </trkpt>
      <trkpt lat="46.51169" lon="0.40632">
        <ele>113.4</ele>
        <time>2020-09-13T08:39:21Z</time>
      </trkpt>
      <trkpt lat="46.51168" lon="0.40628">
        <ele>113.2</ele>
        <time>2020-09-13T08:39:22Z</time>
      </trkpt>
      <trkpt lat="46.51172" lon="0.40618">
        <ele>112.4</ele>
        <time>2020-09-13T08:39:25Z</time>
      </trkpt>
      <trkpt lat="46.51172" lon="0.40618">
        <ele>112</ele>
        <time>2020-09-13T08:39:26Z</time>
      </trkpt>
      <trkpt lat="46.51174" lon="0.4061">
        <ele>112</ele>
        <time>2020-09-13T08:39:27Z</time>
      </trkpt>
      <trkpt lat="46.51176" lon="0.40601">
        <ele>111.4</ele>
        <time>2020-09-13T08:39:29Z</time>
      </trkpt>
      <trkpt lat="46.51177" lon="0.40597">
        <ele>111.2</ele>
        <time>2020-09-13T08:39:30Z</time>
      </trkpt>
      <trkpt lat="46.51177" lon="0.40595">
        <ele>111</ele>
        <time>2020-09-13T08:39:31Z</time>
      </trkpt>
      <trkpt lat="46.51179" lon="0.40591">
        <ele>110.8</ele>
        <time>2020-09-13T08:39:32Z</time>
      </trkpt>
      <trkpt lat="46.51183" lon="0.40587">
        <ele>110.4</ele>
        <time>2020-09-13T08:39:34Z</time>
      </trkpt>
      <trkpt lat="46.51184" lon="0.40585">
        <ele>110.2</ele>
        <time>2020-09-13T08:39:35Z</time>
      </trkpt>
      <trkpt lat="46.51185" lon="0.40582">
        <ele>110</ele>
        <time>2020-09-13T08:39:36Z</time>
      </trkpt>
      <trkpt lat="46.51188" lon="0.40579">
        <ele>109.6</ele>
        <time>2020-09-13T08:39:37Z</time>
      </trkpt>
      <trkpt lat="46.51191" lon="0.40578">
        <ele>109.2</ele>
        <time>2020-09-13T08:39:38Z</time>
      </trkpt>
      <trkpt lat="46.51193" lon="0.40575">
        <ele>108.8</ele>
        <time>2020-09-13T08:39:39Z</time>
      </trkpt>
      <trkpt lat="46.51194" lon="0.40573">
        <ele>108.4</ele>
        <time>2020-09-13T08:39:40Z</time>
      </trkpt>
      <trkpt lat="46.51206" lon="0.40555">
        <ele>107.6</ele>
        <time>2020-09-13T08:39:45Z</time>
      </trkpt>
      <trkpt lat="46.51209" lon="0.40549">
        <ele>107</ele>
        <time>2020-09-13T08:39:46Z</time>
      </trkpt>
      <trkpt lat="46.51216" lon="0.40536">
        <ele>105</ele>
        <time>2020-09-13T08:39:48Z</time>
      </trkpt>
      <trkpt lat="46.51218" lon="0.4053">
        <ele>103.8</ele>
        <time>2020-09-13T08:39:49Z</time>
      </trkpt>
      <trkpt lat="46.5122" lon="0.40525">
        <ele>102.8</ele>
        <time>2020-09-13T08:39:50Z</time>
      </trkpt>
      <trkpt lat="46.51222" lon="0.40516">
        <ele>101.6</ele>
        <time>2020-09-13T08:39:52Z</time>
      </trkpt>
      <trkpt lat="46.51222" lon="0.40511">
        <ele>101.2</ele>
        <time>2020-09-13T08:39:53Z</time>
      </trkpt>
      <trkpt lat="46.5122" lon="0.40502">
        <ele>101</ele>
        <time>2020-09-13T08:39:55Z</time>
      </trkpt>
      <trkpt lat="46.51215" lon="0.40494">
        <ele>101</ele>
        <time>2020-09-13T08:39:57Z</time>
      </trkpt>
      <trkpt lat="46.51212" lon="0.4049">
        <ele>101</ele>
        <time>2020-09-13T08:39:58Z</time>
      </trkpt>
      <trkpt lat="46.51196" lon="0.40481">
        <ele>101</ele>
        <time>2020-09-13T08:40:01Z</time>
      </trkpt>
      <trkpt lat="46.51191" lon="0.40479">
        <ele>101</ele>
        <time>2020-09-13T08:40:02Z</time>
      </trkpt>
      <trkpt lat="46.51186" lon="0.40478">
        <ele>101</ele>
        <time>2020-09-13T08:40:03Z</time>
      </trkpt>
      <trkpt lat="46.51173" lon="0.40478">
        <ele>100.4</ele>
        <time>2020-09-13T08:40:05Z</time>
      </trkpt>
      <trkpt lat="46.51166" lon="0.40478">
        <ele>100.2</ele>
        <time>2020-09-13T08:40:06Z</time>
      </trkpt>
      <trkpt lat="46.51161" lon="0.4048">
        <ele>99.8</ele>
        <time>2020-09-13T08:40:07Z</time>
      </trkpt>
      <trkpt lat="46.51151" lon="0.40484">
        <ele>99.8</ele>
        <time>2020-09-13T08:40:09Z</time>
      </trkpt>
      <trkpt lat="46.51136" lon="0.40492">
        <ele>99.6</ele>
        <time>2020-09-13T08:40:12Z</time>
      </trkpt>
      <trkpt lat="46.51129" lon="0.40493">
        <ele>99.6</ele>
        <time>2020-09-13T08:40:13Z</time>
      </trkpt>
      <trkpt lat="46.51118" lon="0.40495">
        <ele>99.6</ele>
        <time>2020-09-13T08:40:15Z</time>
      </trkpt>
      <trkpt lat="46.51109" lon="0.40495">
        <ele>99.6</ele>
        <time>2020-09-13T08:40:17Z</time>
      </trkpt>
      <trkpt lat="46.51099" lon="0.40493">
        <ele>99.4</ele>
        <time>2020-09-13T08:40:19Z</time>
      </trkpt>
      <trkpt lat="46.51095" lon="0.40492">
        <ele>99.2</ele>
        <time>2020-09-13T08:40:20Z</time>
      </trkpt>
      <trkpt lat="46.51088" lon="0.40492">
        <ele>99</ele>
        <time>2020-09-13T08:40:22Z</time>
      </trkpt>
      <trkpt lat="46.51082" lon="0.40496">
        <ele>98.8</ele>
        <time>2020-09-13T08:40:24Z</time>
      </trkpt>
      <trkpt lat="46.51079" lon="0.40503">
        <ele>98.6</ele>
        <time>2020-09-13T08:40:26Z</time>
      </trkpt>
      <trkpt lat="46.51072" lon="0.40503">
        <ele>100</ele>
        <time>2020-09-13T08:40:29Z</time>
      </trkpt>
      <trkpt lat="46.5107" lon="0.40502">
        <ele>100.6</ele>
        <time>2020-09-13T08:40:30Z</time>
      </trkpt>
      <trkpt lat="46.51067" lon="0.40505">
        <ele>101.6</ele>
        <time>2020-09-13T08:40:34Z</time>
      </trkpt>
      <trkpt lat="46.51061" lon="0.40508">
        <ele>102.8</ele>
        <time>2020-09-13T08:40:39Z</time>
      </trkpt>
      <trkpt lat="46.51061" lon="0.40509">
        <ele>103</ele>
        <time>2020-09-13T08:40:40Z</time>
      </trkpt>
      <trkpt lat="46.51056" lon="0.40514">
        <ele>103.8</ele>
        <time>2020-09-13T08:40:49Z</time>
      </trkpt>
      <trkpt lat="46.51056" lon="0.40522">
        <ele>105</ele>
        <time>2020-09-13T08:40:55Z</time>
      </trkpt>
      <trkpt lat="46.51054" lon="0.40531">
        <ele>106.4</ele>
        <time>2020-09-13T08:40:59Z</time>
      </trkpt>
      <trkpt lat="46.51051" lon="0.4054">
        <ele>107.6</ele>
        <time>2020-09-13T08:41:02Z</time>
      </trkpt>
      <trkpt lat="46.51049" lon="0.40548">
        <ele>108.6</ele>
        <time>2020-09-13T08:41:05Z</time>
      </trkpt>
      <trkpt lat="46.51048" lon="0.40551">
        <ele>108.8</ele>
        <time>2020-09-13T08:41:06Z</time>
      </trkpt>
      <trkpt lat="46.51046" lon="0.40562">
        <ele>110</ele>
        <time>2020-09-13T08:41:10Z</time>
      </trkpt>
      <trkpt lat="46.51043" lon="0.40576">
        <ele>111.2</ele>
        <time>2020-09-13T08:41:15Z</time>
      </trkpt>
      <trkpt lat="46.51043" lon="0.40583">
        <ele>111.8</ele>
        <time>2020-09-13T08:41:17Z</time>
      </trkpt>
      <trkpt lat="46.51041" lon="0.40589">
        <ele>112.2</ele>
        <time>2020-09-13T08:41:19Z</time>
      </trkpt>
      <trkpt lat="46.51039" lon="0.40601">
        <ele>113</ele>
        <time>2020-09-13T08:41:23Z</time>
      </trkpt>
      <trkpt lat="46.51037" lon="0.40607">
        <ele>113.4</ele>
        <time>2020-09-13T08:41:25Z</time>
      </trkpt>
      <trkpt lat="46.51034" lon="0.40624">
        <ele>114.6</ele>
        <time>2020-09-13T08:41:30Z</time>
      </trkpt>
      <trkpt lat="46.51029" lon="0.40646">
        <ele>115.6</ele>
        <time>2020-09-13T08:41:36Z</time>
      </trkpt>
      <trkpt lat="46.51029" lon="0.40649">
        <ele>115.6</ele>
        <time>2020-09-13T08:41:37Z</time>
      </trkpt>
      <trkpt lat="46.51024" lon="0.40674">
        <ele>116</ele>
        <time>2020-09-13T08:41:43Z</time>
      </trkpt>
      <trkpt lat="46.51019" lon="0.40699">
        <ele>116.6</ele>
        <time>2020-09-13T08:41:48Z</time>
      </trkpt>
      <trkpt lat="46.51015" lon="0.40707">
        <ele>116.8</ele>
        <time>2020-09-13T08:41:50Z</time>
      </trkpt>
      <trkpt lat="46.51013" lon="0.40709">
        <ele>116.8</ele>
        <time>2020-09-13T08:41:51Z</time>
      </trkpt>
      <trkpt lat="46.50998" lon="0.40707">
        <ele>116.8</ele>
        <time>2020-09-13T08:41:55Z</time>
      </trkpt>
      <trkpt lat="46.50986" lon="0.40703">
        <ele>116.8</ele>
        <time>2020-09-13T08:41:58Z</time>
      </trkpt>
      <trkpt lat="46.50977" lon="0.40701">
        <ele>116.8</ele>
        <time>2020-09-13T08:42:00Z</time>
      </trkpt>
      <trkpt lat="46.5095" lon="0.40689">
        <ele>116</ele>
        <time>2020-09-13T08:42:06Z</time>
      </trkpt>
      <trkpt lat="46.50936" lon="0.40682">
        <ele>115.6</ele>
        <time>2020-09-13T08:42:09Z</time>
      </trkpt>
      <trkpt lat="46.50927" lon="0.40677">
        <ele>115.2</ele>
        <time>2020-09-13T08:42:11Z</time>
      </trkpt>
      <trkpt lat="46.50918" lon="0.40672">
        <ele>114.6</ele>
        <time>2020-09-13T08:42:13Z</time>
      </trkpt>
      <trkpt lat="46.50913" lon="0.40671">
        <ele>114.2</ele>
        <time>2020-09-13T08:42:14Z</time>
      </trkpt>
      <trkpt lat="46.50908" lon="0.40671">
        <ele>113.8</ele>
        <time>2020-09-13T08:42:15Z</time>
      </trkpt>
      <trkpt lat="46.509" lon="0.40679">
        <ele>113.4</ele>
        <time>2020-09-13T08:42:17Z</time>
      </trkpt>
      <trkpt lat="46.50896" lon="0.40685">
        <ele>113</ele>
        <time>2020-09-13T08:42:18Z</time>
      </trkpt>
      <trkpt lat="46.50893" lon="0.40692">
        <ele>112.8</ele>
        <time>2020-09-13T08:42:19Z</time>
      </trkpt>
      <trkpt lat="46.50886" lon="0.4071">
        <ele>112.8</ele>
        <time>2020-09-13T08:42:21Z</time>
      </trkpt>
      <trkpt lat="46.50867" lon="0.40761">
        <ele>112.6</ele>
        <time>2020-09-13T08:42:27Z</time>
      </trkpt>
      <trkpt lat="46.50859" lon="0.40789">
        <ele>112</ele>
        <time>2020-09-13T08:42:30Z</time>
      </trkpt>
      <trkpt lat="46.50854" lon="0.40807">
        <ele>111.8</ele>
        <time>2020-09-13T08:42:32Z</time>
      </trkpt>
      <trkpt lat="46.50851" lon="0.40816">
        <ele>111.6</ele>
        <time>2020-09-13T08:42:33Z</time>
      </trkpt>
      <trkpt lat="46.50842" lon="0.4086">
        <ele>110.8</ele>
        <time>2020-09-13T08:42:38Z</time>
      </trkpt>
      <trkpt lat="46.50842" lon="0.40868">
        <ele>110.6</ele>
        <time>2020-09-13T08:42:39Z</time>
      </trkpt>
      <trkpt lat="46.50842" lon="0.40882">
        <ele>110</ele>
        <time>2020-09-13T08:42:41Z</time>
      </trkpt>
      <trkpt lat="46.50844" lon="0.40888">
        <ele>109.8</ele>
        <time>2020-09-13T08:42:42Z</time>
      </trkpt>
      <trkpt lat="46.50846" lon="0.40891">
        <ele>109.6</ele>
        <time>2020-09-13T08:42:43Z</time>
      </trkpt>
      <trkpt lat="46.50852" lon="0.40897">
        <ele>109.2</ele>
        <time>2020-09-13T08:42:45Z</time>
      </trkpt>
      <trkpt lat="46.50861" lon="0.40903">
        <ele>109</ele>
        <time>2020-09-13T08:42:48Z</time>
      </trkpt>
      <trkpt lat="46.50878" lon="0.40913">
        <ele>109.2</ele>
        <time>2020-09-13T08:42:52Z</time>
      </trkpt>
      <trkpt lat="46.50887" lon="0.40915">
        <ele>109.4</ele>
        <time>2020-09-13T08:42:54Z</time>
      </trkpt>
      <trkpt lat="46.50915" lon="0.40918">
        <ele>110</ele>
        <time>2020-09-13T08:43:00Z</time>
      </trkpt>
      <trkpt lat="46.50923" lon="0.40918">
        <ele>110.2</ele>
        <time>2020-09-13T08:43:02Z</time>
      </trkpt>
      <trkpt lat="46.50931" lon="0.40918">
        <ele>110.8</ele>
        <time>2020-09-13T08:43:04Z</time>
      </trkpt>
      <trkpt lat="46.50935" lon="0.40918">
        <ele>111</ele>
        <time>2020-09-13T08:43:05Z</time>
      </trkpt>
      <trkpt lat="46.50943" lon="0.40919">
        <ele>111.4</ele>
        <time>2020-09-13T08:43:07Z</time>
      </trkpt>
      <trkpt lat="46.50954" lon="0.40919">
        <ele>112</ele>
        <time>2020-09-13T08:43:09Z</time>
      </trkpt>
      <trkpt lat="46.5096" lon="0.40919">
        <ele>112.2</ele>
        <time>2020-09-13T08:43:10Z</time>
      </trkpt>
      <trkpt lat="46.5097" lon="0.4092">
        <ele>112.6</ele>
        <time>2020-09-13T08:43:12Z</time>
      </trkpt>
      <trkpt lat="46.50985" lon="0.40922">
        <ele>113.2</ele>
        <time>2020-09-13T08:43:15Z</time>
      </trkpt>
      <trkpt lat="46.50991" lon="0.40923">
        <ele>113.2</ele>
        <time>2020-09-13T08:43:16Z</time>
      </trkpt>
      <trkpt lat="46.51001" lon="0.40924">
        <ele>113.4</ele>
        <time>2020-09-13T08:43:18Z</time>
      </trkpt>
      <trkpt lat="46.51013" lon="0.40924">
        <ele>113.4</ele>
        <time>2020-09-13T08:43:21Z</time>
      </trkpt>
      <trkpt lat="46.51031" lon="0.40926">
        <ele>113.8</ele>
        <time>2020-09-13T08:43:25Z</time>
      </trkpt>
      <trkpt lat="46.51038" lon="0.40925">
        <ele>114.2</ele>
        <time>2020-09-13T08:43:27Z</time>
      </trkpt>
      <trkpt lat="46.51042" lon="0.40925">
        <ele>114.2</ele>
        <time>2020-09-13T08:43:28Z</time>
      </trkpt>
      <trkpt lat="46.51046" lon="0.40924">
        <ele>114.4</ele>
        <time>2020-09-13T08:43:29Z</time>
      </trkpt>
      <trkpt lat="46.51055" lon="0.40925">
        <ele>114.8</ele>
        <time>2020-09-13T08:43:31Z</time>
      </trkpt>
      <trkpt lat="46.51062" lon="0.40924">
        <ele>115.2</ele>
        <time>2020-09-13T08:43:33Z</time>
      </trkpt>
      <trkpt lat="46.51067" lon="0.40924">
        <ele>115.4</ele>
        <time>2020-09-13T08:43:34Z</time>
      </trkpt>
      <trkpt lat="46.51077" lon="0.40925">
        <ele>116.6</ele>
        <time>2020-09-13T08:43:38Z</time>
      </trkpt>
      <trkpt lat="46.51098" lon="0.40934">
        <ele>116.8</ele>
        <time>2020-09-13T08:43:44Z</time>
      </trkpt>
      <trkpt lat="46.51105" lon="0.40934">
        <ele>116.8</ele>
        <time>2020-09-13T08:43:46Z</time>
      </trkpt>
      <trkpt lat="46.51111" lon="0.40934">
        <ele>116.8</ele>
        <time>2020-09-13T08:43:48Z</time>
      </trkpt>
      <trkpt lat="46.51121" lon="0.40929">
        <ele>116.8</ele>
        <time>2020-09-13T08:43:52Z</time>
      </trkpt>
      <trkpt lat="46.51127" lon="0.40928">
        <ele>117.6</ele>
        <time>2020-09-13T08:43:55Z</time>
      </trkpt>
      <trkpt lat="46.51129" lon="0.40929">
        <ele>117.6</ele>
        <time>2020-09-13T08:43:56Z</time>
      </trkpt>
      <trkpt lat="46.51133" lon="0.40931">
        <ele>117.8</ele>
        <time>2020-09-13T08:43:58Z</time>
      </trkpt>
      <trkpt lat="46.51148" lon="0.4094">
        <ele>118.2</ele>
        <time>2020-09-13T08:44:04Z</time>
      </trkpt>
      <trkpt lat="46.51148" lon="0.40941">
        <ele>118</ele>
        <time>2020-09-13T08:44:08Z</time>
      </trkpt>
      <trkpt lat="46.51149" lon="0.4094">
        <ele>117.8</ele>
        <time>2020-09-13T08:44:09Z</time>
      </trkpt>
      <trkpt lat="46.51144" lon="0.40937">
        <ele>117</ele>
        <time>2020-09-13T08:44:13Z</time>
      </trkpt>
      <trkpt lat="46.51143" lon="0.40939">
        <ele>116.8</ele>
        <time>2020-09-13T08:44:14Z</time>
      </trkpt>
      <trkpt lat="46.51143" lon="0.40939">
        <ele>116.4</ele>
        <time>2020-09-13T08:44:15Z</time>
      </trkpt>
      <trkpt lat="46.51143" lon="0.40939">
        <ele>116.2</ele>
        <time>2020-09-13T08:44:16Z</time>
      </trkpt>
      <trkpt lat="46.51144" lon="0.40942">
        <ele>116.6</ele>
        <time>2020-09-13T08:44:20Z</time>
      </trkpt>
      <trkpt lat="46.51145" lon="0.40944">
        <ele>116.6</ele>
        <time>2020-09-13T08:44:21Z</time>
      </trkpt>
      <trkpt lat="46.51147" lon="0.40956">
        <ele>117</ele>
        <time>2020-09-13T08:44:26Z</time>
      </trkpt>
      <trkpt lat="46.51149" lon="0.40959">
        <ele>117.2</ele>
        <time>2020-09-13T08:44:27Z</time>
      </trkpt>
      <trkpt lat="46.51152" lon="0.40964">
        <ele>117.6</ele>
        <time>2020-09-13T08:44:30Z</time>
      </trkpt>
      <trkpt lat="46.51161" lon="0.4098">
        <ele>117.6</ele>
        <time>2020-09-13T08:44:33Z</time>
      </trkpt>
      <trkpt lat="46.51161" lon="0.4098">
        <ele>117.6</ele>
        <time>2020-09-13T08:44:34Z</time>
      </trkpt>
      <trkpt lat="46.51177" lon="0.41009">
        <ele>118</ele>
        <time>2020-09-13T08:44:39Z</time>
      </trkpt>
      <trkpt lat="46.5118" lon="0.41017">
        <ele>118</ele>
        <time>2020-09-13T08:44:41Z</time>
      </trkpt>
      <trkpt lat="46.51181" lon="0.41021">
        <ele>118.2</ele>
        <time>2020-09-13T08:44:43Z</time>
      </trkpt>
      <trkpt lat="46.51178" lon="0.41031">
        <ele>118</ele>
        <time>2020-09-13T08:44:45Z</time>
      </trkpt>
      <trkpt lat="46.51171" lon="0.41034">
        <ele>117.6</ele>
        <time>2020-09-13T08:44:47Z</time>
      </trkpt>
      <trkpt lat="46.51162" lon="0.41035">
        <ele>117.2</ele>
        <time>2020-09-13T08:44:49Z</time>
      </trkpt>
      <trkpt lat="46.51147" lon="0.41037">
        <ele>116.2</ele>
        <time>2020-09-13T08:44:52Z</time>
      </trkpt>
      <trkpt lat="46.51142" lon="0.41039">
        <ele>115.6</ele>
        <time>2020-09-13T08:44:53Z</time>
      </trkpt>
      <trkpt lat="46.51138" lon="0.41041">
        <ele>115</ele>
        <time>2020-09-13T08:44:54Z</time>
      </trkpt>
      <trkpt lat="46.51136" lon="0.41044">
        <ele>114.4</ele>
        <time>2020-09-13T08:44:55Z</time>
      </trkpt>
      <trkpt lat="46.51135" lon="0.41048">
        <ele>113.6</ele>
        <time>2020-09-13T08:44:56Z</time>
      </trkpt>
      <trkpt lat="46.51135" lon="0.41052">
        <ele>112.8</ele>
        <time>2020-09-13T08:44:57Z</time>
      </trkpt>
      <trkpt lat="46.51136" lon="0.41057">
        <ele>112</ele>
        <time>2020-09-13T08:44:58Z</time>
      </trkpt>
      <trkpt lat="46.51137" lon="0.41063">
        <ele>111.2</ele>
        <time>2020-09-13T08:44:59Z</time>
      </trkpt>
      <trkpt lat="46.51139" lon="0.41067">
        <ele>110.2</ele>
        <time>2020-09-13T08:45:00Z</time>
      </trkpt>
      <trkpt lat="46.51139" lon="0.4107">
        <ele>109.4</ele>
        <time>2020-09-13T08:45:01Z</time>
      </trkpt>
      <trkpt lat="46.5114" lon="0.41074">
        <ele>108.4</ele>
        <time>2020-09-13T08:45:02Z</time>
      </trkpt>
      <trkpt lat="46.51142" lon="0.41079">
        <ele>107.8</ele>
        <time>2020-09-13T08:45:03Z</time>
      </trkpt>
      <trkpt lat="46.51143" lon="0.41084">
        <ele>107.2</ele>
        <time>2020-09-13T08:45:04Z</time>
      </trkpt>
      <trkpt lat="46.51145" lon="0.41089">
        <ele>106.4</ele>
        <time>2020-09-13T08:45:05Z</time>
      </trkpt>
      <trkpt lat="46.51146" lon="0.41093">
        <ele>105.8</ele>
        <time>2020-09-13T08:45:06Z</time>
      </trkpt>
      <trkpt lat="46.51149" lon="0.411">
        <ele>104.4</ele>
        <time>2020-09-13T08:45:08Z</time>
      </trkpt>
      <trkpt lat="46.5115" lon="0.41105">
        <ele>103.8</ele>
        <time>2020-09-13T08:45:09Z</time>
      </trkpt>
      <trkpt lat="46.5115" lon="0.41108">
        <ele>103.4</ele>
        <time>2020-09-13T08:45:10Z</time>
      </trkpt>
      <trkpt lat="46.5115" lon="0.41111">
        <ele>103</ele>
        <time>2020-09-13T08:45:11Z</time>
      </trkpt>
      <trkpt lat="46.51148" lon="0.41114">
        <ele>102.4</ele>
        <time>2020-09-13T08:45:13Z</time>
      </trkpt>
      <trkpt lat="46.51147" lon="0.41114">
        <ele>102</ele>
        <time>2020-09-13T08:45:14Z</time>
      </trkpt>
      <trkpt lat="46.51144" lon="0.41113">
        <ele>101.6</ele>
        <time>2020-09-13T08:45:17Z</time>
      </trkpt>
      <trkpt lat="46.5114" lon="0.41111">
        <ele>101.4</ele>
        <time>2020-09-13T08:45:18Z</time>
      </trkpt>
      <trkpt lat="46.51123" lon="0.411">
        <ele>101.2</ele>
        <time>2020-09-13T08:45:22Z</time>
      </trkpt>
      <trkpt lat="46.51118" lon="0.41098">
        <ele>101</ele>
        <time>2020-09-13T08:45:23Z</time>
      </trkpt>
      <trkpt lat="46.51107" lon="0.41094">
        <ele>100.6</ele>
        <time>2020-09-13T08:45:25Z</time>
      </trkpt>
      <trkpt lat="46.51093" lon="0.4109">
        <ele>100</ele>
        <time>2020-09-13T08:45:27Z</time>
      </trkpt>
      <trkpt lat="46.51086" lon="0.41088">
        <ele>99.6</ele>
        <time>2020-09-13T08:45:28Z</time>
      </trkpt>
      <trkpt lat="46.51077" lon="0.41086">
        <ele>99</ele>
        <time>2020-09-13T08:45:29Z</time>
      </trkpt>
      <trkpt lat="46.51061" lon="0.4108">
        <ele>98.4</ele>
        <time>2020-09-13T08:45:31Z</time>
      </trkpt>
      <trkpt lat="46.51017" lon="0.4106">
        <ele>97.6</ele>
        <time>2020-09-13T08:45:37Z</time>
      </trkpt>
      <trkpt lat="46.50976" lon="0.41046">
        <ele>97.6</ele>
        <time>2020-09-13T08:45:43Z</time>
      </trkpt>
      <trkpt lat="46.50939" lon="0.41038">
        <ele>97.6</ele>
        <time>2020-09-13T08:45:49Z</time>
      </trkpt>
      <trkpt lat="46.50934" lon="0.41035">
        <ele>97.4</ele>
        <time>2020-09-13T08:45:50Z</time>
      </trkpt>
      <trkpt lat="46.509" lon="0.4102">
        <ele>97.6</ele>
        <time>2020-09-13T08:45:56Z</time>
      </trkpt>
      <trkpt lat="46.50883" lon="0.41011">
        <ele>98.4</ele>
        <time>2020-09-13T08:46:00Z</time>
      </trkpt>
      <trkpt lat="46.50879" lon="0.41008">
        <ele>98.6</ele>
        <time>2020-09-13T08:46:01Z</time>
      </trkpt>
      <trkpt lat="46.50847" lon="0.40999">
        <ele>99</ele>
        <time>2020-09-13T08:46:06Z</time>
      </trkpt>
      <trkpt lat="46.50824" lon="0.40992">
        <ele>98.8</ele>
        <time>2020-09-13T08:46:10Z</time>
      </trkpt>
      <trkpt lat="46.50819" lon="0.40991">
        <ele>98.6</ele>
        <time>2020-09-13T08:46:11Z</time>
      </trkpt>
      <trkpt lat="46.50807" lon="0.40988">
        <ele>98.6</ele>
        <time>2020-09-13T08:46:13Z</time>
      </trkpt>
      <trkpt lat="46.50798" lon="0.40982">
        <ele>98.4</ele>
        <time>2020-09-13T08:46:15Z</time>
      </trkpt>
      <trkpt lat="46.50765" lon="0.40958">
        <ele>98.2</ele>
        <time>2020-09-13T08:46:21Z</time>
      </trkpt>
      <trkpt lat="46.50736" lon="0.40929">
        <ele>98</ele>
        <time>2020-09-13T08:46:27Z</time>
      </trkpt>
      <trkpt lat="46.50719" lon="0.40909">
        <ele>97.8</ele>
        <time>2020-09-13T08:46:31Z</time>
      </trkpt>
      <trkpt lat="46.50711" lon="0.40897">
        <ele>97.8</ele>
        <time>2020-09-13T08:46:33Z</time>
      </trkpt>
      <trkpt lat="46.50704" lon="0.40881">
        <ele>97.8</ele>
        <time>2020-09-13T08:46:36Z</time>
      </trkpt>
      <trkpt lat="46.50702" lon="0.40868">
        <ele>97.8</ele>
        <time>2020-09-13T08:46:38Z</time>
      </trkpt>
      <trkpt lat="46.50702" lon="0.40856">
        <ele>98</ele>
        <time>2020-09-13T08:46:40Z</time>
      </trkpt>
      <trkpt lat="46.50703" lon="0.40842">
        <ele>98.2</ele>
        <time>2020-09-13T08:46:42Z</time>
      </trkpt>
      <trkpt lat="46.50705" lon="0.40827">
        <ele>98.4</ele>
        <time>2020-09-13T08:46:43Z</time>
      </trkpt>
      <trkpt lat="46.50706" lon="0.4082">
        <ele>98.4</ele>
        <time>2020-09-13T08:46:45Z</time>
      </trkpt>
      <trkpt lat="46.5071" lon="0.40805">
        <ele>98.6</ele>
        <time>2020-09-13T08:46:47Z</time>
      </trkpt>
      <trkpt lat="46.50718" lon="0.40784">
        <ele>98.6</ele>
        <time>2020-09-13T08:46:50Z</time>
      </trkpt>
      <trkpt lat="46.5072" lon="0.40769">
        <ele>98.6</ele>
        <time>2020-09-13T08:46:52Z</time>
      </trkpt>
      <trkpt lat="46.50723" lon="0.40762">
        <ele>98.2</ele>
        <time>2020-09-13T08:46:54Z</time>
      </trkpt>
      <trkpt lat="46.50727" lon="0.40754">
        <ele>98</ele>
        <time>2020-09-13T08:46:56Z</time>
      </trkpt>
      <trkpt lat="46.50736" lon="0.40744">
        <ele>98</ele>
        <time>2020-09-13T08:46:59Z</time>
      </trkpt>
      <trkpt lat="46.50738" lon="0.40741">
        <ele>98</ele>
        <time>2020-09-13T08:47:00Z</time>
      </trkpt>
      <trkpt lat="46.50743" lon="0.40739">
        <ele>98.4</ele>
        <time>2020-09-13T08:47:02Z</time>
      </trkpt>
      <trkpt lat="46.50744" lon="0.40739">
        <ele>98.8</ele>
        <time>2020-09-13T08:47:03Z</time>
      </trkpt>
      <trkpt lat="46.50746" lon="0.40738">
        <ele>99.6</ele>
        <time>2020-09-13T08:47:05Z</time>
      </trkpt>
      <trkpt lat="46.50747" lon="0.40737">
        <ele>100</ele>
        <time>2020-09-13T08:47:06Z</time>
      </trkpt>
      <trkpt lat="46.50752" lon="0.40734">
        <ele>101</ele>
        <time>2020-09-13T08:47:09Z</time>
      </trkpt>
      <trkpt lat="46.50756" lon="0.4073">
        <ele>101.8</ele>
        <time>2020-09-13T08:47:12Z</time>
      </trkpt>
      <trkpt lat="46.5076" lon="0.40723">
        <ele>102.2</ele>
        <time>2020-09-13T08:47:14Z</time>
      </trkpt>
      <trkpt lat="46.50767" lon="0.40715">
        <ele>102.6</ele>
        <time>2020-09-13T08:47:17Z</time>
      </trkpt>
      <trkpt lat="46.50769" lon="0.40715">
        <ele>102.8</ele>
        <time>2020-09-13T08:47:18Z</time>
      </trkpt>
      <trkpt lat="46.50772" lon="0.40714">
        <ele>102.8</ele>
        <time>2020-09-13T08:47:19Z</time>
      </trkpt>
      <trkpt lat="46.5078" lon="0.40713">
        <ele>103.6</ele>
        <time>2020-09-13T08:47:23Z</time>
      </trkpt>
      <trkpt lat="46.50786" lon="0.40709">
        <ele>104.8</ele>
        <time>2020-09-13T08:47:26Z</time>
      </trkpt>
      <trkpt lat="46.50789" lon="0.40704">
        <ele>105</ele>
        <time>2020-09-13T08:47:28Z</time>
      </trkpt>
      <trkpt lat="46.50792" lon="0.40699">
        <ele>105.2</ele>
        <time>2020-09-13T08:47:30Z</time>
      </trkpt>
      <trkpt lat="46.50795" lon="0.4069">
        <ele>105.4</ele>
        <time>2020-09-13T08:47:33Z</time>
      </trkpt>
      <trkpt lat="46.50797" lon="0.40687">
        <ele>105.2</ele>
        <time>2020-09-13T08:47:34Z</time>
      </trkpt>
      <trkpt lat="46.50801" lon="0.40681">
        <ele>104</ele>
        <time>2020-09-13T08:47:37Z</time>
      </trkpt>
      <trkpt lat="46.50802" lon="0.4068">
        <ele>103.6</ele>
        <time>2020-09-13T08:47:38Z</time>
      </trkpt>
      <trkpt lat="46.50805" lon="0.40677">
        <ele>103.4</ele>
        <time>2020-09-13T08:47:41Z</time>
      </trkpt>
      <trkpt lat="46.50816" lon="0.4067">
        <ele>103.6</ele>
        <time>2020-09-13T08:47:51Z</time>
      </trkpt>
      <trkpt lat="46.50821" lon="0.40662">
        <ele>103.6</ele>
        <time>2020-09-13T08:48:01Z</time>
      </trkpt>
      <trkpt lat="46.50822" lon="0.40661">
        <ele>103.6</ele>
        <time>2020-09-13T08:48:03Z</time>
      </trkpt>
      <trkpt lat="46.50823" lon="0.40657">
        <ele>104.8</ele>
        <time>2020-09-13T08:48:07Z</time>
      </trkpt>
      <trkpt lat="46.50824" lon="0.40656">
        <ele>105.6</ele>
        <time>2020-09-13T08:48:08Z</time>
      </trkpt>
      <trkpt lat="46.50825" lon="0.40654">
        <ele>106</ele>
        <time>2020-09-13T08:48:09Z</time>
      </trkpt>
      <trkpt lat="46.50826" lon="0.40653">
        <ele>106.4</ele>
        <time>2020-09-13T08:48:10Z</time>
      </trkpt>
      <trkpt lat="46.50832" lon="0.40647">
        <ele>107.2</ele>
        <time>2020-09-13T08:48:16Z</time>
      </trkpt>
      <trkpt lat="46.50833" lon="0.40645">
        <ele>107.4</ele>
        <time>2020-09-13T08:48:19Z</time>
      </trkpt>
      <trkpt lat="46.50836" lon="0.40643">
        <ele>107.6</ele>
        <time>2020-09-13T08:48:22Z</time>
      </trkpt>
      <trkpt lat="46.50837" lon="0.40642">
        <ele>107.8</ele>
        <time>2020-09-13T08:48:24Z</time>
      </trkpt>
      <trkpt lat="46.5084" lon="0.40639">
        <ele>108</ele>
        <time>2020-09-13T08:48:26Z</time>
      </trkpt>
      <trkpt lat="46.50842" lon="0.40636">
        <ele>108.2</ele>
        <time>2020-09-13T08:48:28Z</time>
      </trkpt>
      <trkpt lat="46.50845" lon="0.4063">
        <ele>108</ele>
        <time>2020-09-13T08:48:31Z</time>
      </trkpt>
      <trkpt lat="46.50846" lon="0.40627">
        <ele>108</ele>
        <time>2020-09-13T08:48:32Z</time>
      </trkpt>
      <trkpt lat="46.50856" lon="0.40609">
        <ele>108</ele>
        <time>2020-09-13T08:48:40Z</time>
      </trkpt>
      <trkpt lat="46.5086" lon="0.40594">
        <ele>108.4</ele>
        <time>2020-09-13T08:48:45Z</time>
      </trkpt>
      <trkpt lat="46.50863" lon="0.40585">
        <ele>109.4</ele>
        <time>2020-09-13T08:48:49Z</time>
      </trkpt>
      <trkpt lat="46.50866" lon="0.40581">
        <ele>109.6</ele>
        <time>2020-09-13T08:48:51Z</time>
      </trkpt>
      <trkpt lat="46.50872" lon="0.40571">
        <ele>110.2</ele>
        <time>2020-09-13T08:48:55Z</time>
      </trkpt>
      <trkpt lat="46.50874" lon="0.40568">
        <ele>110.4</ele>
        <time>2020-09-13T08:48:56Z</time>
      </trkpt>
      <trkpt lat="46.50876" lon="0.40566">
        <ele>110.4</ele>
        <time>2020-09-13T08:48:58Z</time>
      </trkpt>
      <trkpt lat="46.50881" lon="0.40561">
        <ele>110.6</ele>
        <time>2020-09-13T08:49:01Z</time>
      </trkpt>
      <trkpt lat="46.50884" lon="0.40558">
        <ele>110.6</ele>
        <time>2020-09-13T08:49:02Z</time>
      </trkpt>
      <trkpt lat="46.50888" lon="0.40547">
        <ele>110.4</ele>
        <time>2020-09-13T08:49:05Z</time>
      </trkpt>
      <trkpt lat="46.50888" lon="0.40545">
        <ele>110.2</ele>
        <time>2020-09-13T08:49:06Z</time>
      </trkpt>
      <trkpt lat="46.5089" lon="0.40537">
        <ele>109.6</ele>
        <time>2020-09-13T08:49:09Z</time>
      </trkpt>
      <trkpt lat="46.50889" lon="0.40534">
        <ele>109.6</ele>
        <time>2020-09-13T08:49:10Z</time>
      </trkpt>
      <trkpt lat="46.50888" lon="0.40531">
        <ele>109.4</ele>
        <time>2020-09-13T08:49:12Z</time>
      </trkpt>
      <trkpt lat="46.50888" lon="0.40529">
        <ele>109.2</ele>
        <time>2020-09-13T08:49:14Z</time>
      </trkpt>
      <trkpt lat="46.50887" lon="0.40524">
        <ele>108.8</ele>
        <time>2020-09-13T08:49:18Z</time>
      </trkpt>
      <trkpt lat="46.50886" lon="0.40521">
        <ele>108.4</ele>
        <time>2020-09-13T08:49:23Z</time>
      </trkpt>
      <trkpt lat="46.50886" lon="0.40522">
        <ele>108.2</ele>
        <time>2020-09-13T08:49:25Z</time>
      </trkpt>
      <trkpt lat="46.50882" lon="0.40523">
        <ele>107</ele>
        <time>2020-09-13T08:49:28Z</time>
      </trkpt>
      <trkpt lat="46.50882" lon="0.40523">
        <ele>106</ele>
        <time>2020-09-13T08:49:29Z</time>
      </trkpt>
      <trkpt lat="46.50879" lon="0.40527">
        <ele>105.2</ele>
        <time>2020-09-13T08:49:31Z</time>
      </trkpt>
      <trkpt lat="46.50876" lon="0.40532">
        <ele>104.2</ele>
        <time>2020-09-13T08:49:32Z</time>
      </trkpt>
      <trkpt lat="46.50872" lon="0.40543">
        <ele>102.2</ele>
        <time>2020-09-13T08:49:34Z</time>
      </trkpt>
      <trkpt lat="46.50869" lon="0.40551">
        <ele>101.2</ele>
        <time>2020-09-13T08:49:36Z</time>
      </trkpt>
      <trkpt lat="46.50868" lon="0.40553">
        <ele>101</ele>
        <time>2020-09-13T08:49:37Z</time>
      </trkpt>
      <trkpt lat="46.50867" lon="0.40555">
        <ele>100.8</ele>
        <time>2020-09-13T08:49:38Z</time>
      </trkpt>
      <trkpt lat="46.50863" lon="0.40559">
        <ele>100.4</ele>
        <time>2020-09-13T08:49:41Z</time>
      </trkpt>
      <trkpt lat="46.50862" lon="0.40558">
        <ele>99.8</ele>
        <time>2020-09-13T08:49:42Z</time>
      </trkpt>
      <trkpt lat="46.50858" lon="0.40554">
        <ele>98.6</ele>
        <time>2020-09-13T08:49:44Z</time>
      </trkpt>
      <trkpt lat="46.50855" lon="0.4055">
        <ele>98</ele>
        <time>2020-09-13T08:49:45Z</time>
      </trkpt>
      <trkpt lat="46.50852" lon="0.40547">
        <ele>97.4</ele>
        <time>2020-09-13T08:49:46Z</time>
      </trkpt>
      <trkpt lat="46.50852" lon="0.40538">
        <ele>96.2</ele>
        <time>2020-09-13T08:49:48Z</time>
      </trkpt>
      <trkpt lat="46.50859" lon="0.40512">
        <ele>95.2</ele>
        <time>2020-09-13T08:49:53Z</time>
      </trkpt>
      <trkpt lat="46.50869" lon="0.40474">
        <ele>95.6</ele>
        <time>2020-09-13T08:50:00Z</time>
      </trkpt>
      <trkpt lat="46.50882" lon="0.40438">
        <ele>95.4</ele>
        <time>2020-09-13T08:50:06Z</time>
      </trkpt>
      <trkpt lat="46.50885" lon="0.40432">
        <ele>95.2</ele>
        <time>2020-09-13T08:50:07Z</time>
      </trkpt>
      <trkpt lat="46.50896" lon="0.40383">
        <ele>95.2</ele>
        <time>2020-09-13T08:50:14Z</time>
      </trkpt>
      <trkpt lat="46.50897" lon="0.40347">
        <ele>95.6</ele>
        <time>2020-09-13T08:50:20Z</time>
      </trkpt>
      <trkpt lat="46.50898" lon="0.40333">
        <ele>95.6</ele>
        <time>2020-09-13T08:50:21Z</time>
      </trkpt>
      <trkpt lat="46.50899" lon="0.4032">
        <ele>96</ele>
        <time>2020-09-13T08:50:23Z</time>
      </trkpt>
      <trkpt lat="46.50897" lon="0.40314">
        <ele>96.2</ele>
        <time>2020-09-13T08:50:24Z</time>
      </trkpt>
      <trkpt lat="46.50894" lon="0.40309">
        <ele>96.2</ele>
        <time>2020-09-13T08:50:25Z</time>
      </trkpt>
      <trkpt lat="46.50889" lon="0.40306">
        <ele>96.4</ele>
        <time>2020-09-13T08:50:26Z</time>
      </trkpt>
      <trkpt lat="46.50886" lon="0.40306">
        <ele>96.6</ele>
        <time>2020-09-13T08:50:27Z</time>
      </trkpt>
      <trkpt lat="46.50873" lon="0.40307">
        <ele>96.8</ele>
        <time>2020-09-13T08:50:30Z</time>
      </trkpt>
      <trkpt lat="46.50846" lon="0.4031">
        <ele>97</ele>
        <time>2020-09-13T08:50:36Z</time>
      </trkpt>
      <trkpt lat="46.50841" lon="0.40311">
        <ele>97.4</ele>
        <time>2020-09-13T08:50:37Z</time>
      </trkpt>
      <trkpt lat="46.50837" lon="0.40312">
        <ele>97.6</ele>
        <time>2020-09-13T08:50:38Z</time>
      </trkpt>
      <trkpt lat="46.5082" lon="0.40312">
        <ele>97.8</ele>
        <time>2020-09-13T08:50:41Z</time>
      </trkpt>
      <trkpt lat="46.50814" lon="0.40312">
        <ele>97.8</ele>
        <time>2020-09-13T08:50:42Z</time>
      </trkpt>
      <trkpt lat="46.50803" lon="0.40308">
        <ele>97.6</ele>
        <time>2020-09-13T08:50:44Z</time>
      </trkpt>
      <trkpt lat="46.50792" lon="0.40303">
        <ele>97.6</ele>
        <time>2020-09-13T08:50:46Z</time>
      </trkpt>
      <trkpt lat="46.50787" lon="0.40301">
        <ele>97.6</ele>
        <time>2020-09-13T08:50:47Z</time>
      </trkpt>
      <trkpt lat="46.50774" lon="0.40298">
        <ele>97.8</ele>
        <time>2020-09-13T08:50:50Z</time>
      </trkpt>
      <trkpt lat="46.5077" lon="0.40299">
        <ele>98</ele>
        <time>2020-09-13T08:50:51Z</time>
      </trkpt>
      <trkpt lat="46.50767" lon="0.403">
        <ele>98.2</ele>
        <time>2020-09-13T08:50:52Z</time>
      </trkpt>
      <trkpt lat="46.50763" lon="0.40302">
        <ele>98.4</ele>
        <time>2020-09-13T08:50:53Z</time>
      </trkpt>
      <trkpt lat="46.50751" lon="0.40308">
        <ele>99.2</ele>
        <time>2020-09-13T08:50:57Z</time>
      </trkpt>
      <trkpt lat="46.50748" lon="0.40308">
        <ele>99.4</ele>
        <time>2020-09-13T08:50:58Z</time>
      </trkpt>
      <trkpt lat="46.50742" lon="0.40308">
        <ele>100.6</ele>
        <time>2020-09-13T08:51:01Z</time>
      </trkpt>
      <trkpt lat="46.50741" lon="0.40308">
        <ele>101.2</ele>
        <time>2020-09-13T08:51:02Z</time>
      </trkpt>
      <trkpt lat="46.50738" lon="0.40309">
        <ele>102.2</ele>
        <time>2020-09-13T08:51:04Z</time>
      </trkpt>
      <trkpt lat="46.50734" lon="0.4031">
        <ele>103.2</ele>
        <time>2020-09-13T08:51:07Z</time>
      </trkpt>
      <trkpt lat="46.50732" lon="0.4031">
        <ele>103.8</ele>
        <time>2020-09-13T08:51:09Z</time>
      </trkpt>
      <trkpt lat="46.5073" lon="0.4031">
        <ele>104.2</ele>
        <time>2020-09-13T08:51:11Z</time>
      </trkpt>
      <trkpt lat="46.50729" lon="0.40308">
        <ele>104.4</ele>
        <time>2020-09-13T08:51:12Z</time>
      </trkpt>
      <trkpt lat="46.50727" lon="0.40306">
        <ele>105.4</ele>
        <time>2020-09-13T08:51:14Z</time>
      </trkpt>
      <trkpt lat="46.50727" lon="0.40306">
        <ele>105.6</ele>
        <time>2020-09-13T08:51:15Z</time>
      </trkpt>
      <trkpt lat="46.50724" lon="0.40307">
        <ele>106.6</ele>
        <time>2020-09-13T08:51:18Z</time>
      </trkpt>
      <trkpt lat="46.50723" lon="0.40307">
        <ele>106.8</ele>
        <time>2020-09-13T08:51:19Z</time>
      </trkpt>
      <trkpt lat="46.50722" lon="0.40307">
        <ele>107.2</ele>
        <time>2020-09-13T08:51:20Z</time>
      </trkpt>
      <trkpt lat="46.50719" lon="0.40306">
        <ele>108</ele>
        <time>2020-09-13T08:51:23Z</time>
      </trkpt>
      <trkpt lat="46.50716" lon="0.40303">
        <ele>108.6</ele>
        <time>2020-09-13T08:51:26Z</time>
      </trkpt>
      <trkpt lat="46.50715" lon="0.40302">
        <ele>109.2</ele>
        <time>2020-09-13T08:51:27Z</time>
      </trkpt>
      <trkpt lat="46.50712" lon="0.40302">
        <ele>109.6</ele>
        <time>2020-09-13T08:51:29Z</time>
      </trkpt>
      <trkpt lat="46.5071" lon="0.403">
        <ele>110.2</ele>
        <time>2020-09-13T08:51:31Z</time>
      </trkpt>
      <trkpt lat="46.50707" lon="0.40298">
        <ele>110.6</ele>
        <time>2020-09-13T08:51:33Z</time>
      </trkpt>
      <trkpt lat="46.50703" lon="0.40294">
        <ele>111.2</ele>
        <time>2020-09-13T08:51:36Z</time>
      </trkpt>
      <trkpt lat="46.507" lon="0.40292">
        <ele>111.8</ele>
        <time>2020-09-13T08:51:39Z</time>
      </trkpt>
      <trkpt lat="46.50692" lon="0.40289">
        <ele>112</ele>
        <time>2020-09-13T08:51:44Z</time>
      </trkpt>
      <trkpt lat="46.50689" lon="0.40287">
        <ele>112.2</ele>
        <time>2020-09-13T08:51:47Z</time>
      </trkpt>
      <trkpt lat="46.50688" lon="0.40287">
        <ele>112.2</ele>
        <time>2020-09-13T08:51:48Z</time>
      </trkpt>
      <trkpt lat="46.50688" lon="0.40288">
        <ele>112.4</ele>
        <time>2020-09-13T08:51:50Z</time>
      </trkpt>
      <trkpt lat="46.50688" lon="0.40288">
        <ele>111.6</ele>
        <time>2020-09-13T08:51:59Z</time>
      </trkpt>
      <trkpt lat="46.50687" lon="0.40289">
        <ele>112</ele>
        <time>2020-09-13T08:52:11Z</time>
      </trkpt>
      <trkpt lat="46.50687" lon="0.40289">
        <ele>111.8</ele>
        <time>2020-09-13T08:52:29Z</time>
      </trkpt>
      <trkpt lat="46.50687" lon="0.40289">
        <ele>111.8</ele>
        <time>2020-09-13T08:52:42Z</time>
      </trkpt>
      <trkpt lat="46.50687" lon="0.40289">
        <ele>112</ele>
        <time>2020-09-13T08:53:38Z</time>
      </trkpt>
      <trkpt lat="46.50687" lon="0.40289">
        <ele>111.8</ele>
        <time>2020-09-13T08:53:57Z</time>
      </trkpt>
      <trkpt lat="46.50688" lon="0.40289">
        <ele>111.8</ele>
        <time>2020-09-13T08:54:22Z</time>
      </trkpt>
      <trkpt lat="46.50688" lon="0.40289">
        <ele>111.8</ele>
        <time>2020-09-13T08:54:43Z</time>
      </trkpt>
      <trkpt lat="46.5069" lon="0.40284">
        <ele>111.8</ele>
        <time>2020-09-13T08:55:12Z</time>
      </trkpt>
      <trkpt lat="46.50694" lon="0.40271">
        <ele>112.2</ele>
        <time>2020-09-13T08:55:19Z</time>
      </trkpt>
      <trkpt lat="46.50694" lon="0.40262">
        <ele>113.4</ele>
        <time>2020-09-13T08:55:26Z</time>
      </trkpt>
      <trkpt lat="46.50693" lon="0.4024">
        <ele>113.6</ele>
        <time>2020-09-13T08:55:33Z</time>
      </trkpt>
      <trkpt lat="46.50692" lon="0.40235">
        <ele>113.6</ele>
        <time>2020-09-13T08:55:36Z</time>
      </trkpt>
      <trkpt lat="46.50691" lon="0.40224">
        <ele>113.6</ele>
        <time>2020-09-13T08:55:38Z</time>
      </trkpt>
      <trkpt lat="46.50692" lon="0.4022">
        <ele>113.8</ele>
        <time>2020-09-13T08:55:40Z</time>
      </trkpt>
      <trkpt lat="46.50693" lon="0.40197">
        <ele>114.2</ele>
        <time>2020-09-13T08:55:45Z</time>
      </trkpt>
      <trkpt lat="46.50697" lon="0.40162">
        <ele>114</ele>
        <time>2020-09-13T08:55:51Z</time>
      </trkpt>
      <trkpt lat="46.50708" lon="0.40113">
        <ele>113.8</ele>
        <time>2020-09-13T08:55:57Z</time>
      </trkpt>
      <trkpt lat="46.50721" lon="0.40067">
        <ele>112.4</ele>
        <time>2020-09-13T08:56:02Z</time>
      </trkpt>
      <trkpt lat="46.50724" lon="0.40057">
        <ele>112</ele>
        <time>2020-09-13T08:56:03Z</time>
      </trkpt>
      <trkpt lat="46.50739" lon="0.40005">
        <ele>110.8</ele>
        <time>2020-09-13T08:56:08Z</time>
      </trkpt>
      <trkpt lat="46.50742" lon="0.39994">
        <ele>110.4</ele>
        <time>2020-09-13T08:56:09Z</time>
      </trkpt>
      <trkpt lat="46.50748" lon="0.3997">
        <ele>109.8</ele>
        <time>2020-09-13T08:56:11Z</time>
      </trkpt>
      <trkpt lat="46.50762" lon="0.39925">
        <ele>108.8</ele>
        <time>2020-09-13T08:56:15Z</time>
      </trkpt>
      <trkpt lat="46.50765" lon="0.39913">
        <ele>108.4</ele>
        <time>2020-09-13T08:56:16Z</time>
      </trkpt>
      <trkpt lat="46.50783" lon="0.39857">
        <ele>107.8</ele>
        <time>2020-09-13T08:56:21Z</time>
      </trkpt>
      <trkpt lat="46.50783" lon="0.39857">
        <ele>107.6</ele>
        <time>2020-09-13T08:56:22Z</time>
      </trkpt>
      <trkpt lat="46.50787" lon="0.39836">
        <ele>107.6</ele>
        <time>2020-09-13T08:56:23Z</time>
      </trkpt>
      <trkpt lat="46.50792" lon="0.39816">
        <ele>106.2</ele>
        <time>2020-09-13T08:56:25Z</time>
      </trkpt>
      <trkpt lat="46.50795" lon="0.39806">
        <ele>104.4</ele>
        <time>2020-09-13T08:56:27Z</time>
      </trkpt>
      <trkpt lat="46.50803" lon="0.39787">
        <ele>103.4</ele>
        <time>2020-09-13T08:56:29Z</time>
      </trkpt>
      <trkpt lat="46.50819" lon="0.39765">
        <ele>102.2</ele>
        <time>2020-09-13T08:56:32Z</time>
      </trkpt>
      <trkpt lat="46.50823" lon="0.39761">
        <ele>101.6</ele>
        <time>2020-09-13T08:56:33Z</time>
      </trkpt>
      <trkpt lat="46.50827" lon="0.39758">
        <ele>100.6</ele>
        <time>2020-09-13T08:56:34Z</time>
      </trkpt>
      <trkpt lat="46.50831" lon="0.39754">
        <ele>98.6</ele>
        <time>2020-09-13T08:56:36Z</time>
      </trkpt>
      <trkpt lat="46.5083" lon="0.39749">
        <ele>97.6</ele>
        <time>2020-09-13T08:56:38Z</time>
      </trkpt>
      <trkpt lat="46.50829" lon="0.39747">
        <ele>97.2</ele>
        <time>2020-09-13T08:56:39Z</time>
      </trkpt>
      <trkpt lat="46.50828" lon="0.39748">
        <ele>97</ele>
        <time>2020-09-13T08:56:40Z</time>
      </trkpt>
      <trkpt lat="46.50826" lon="0.39748">
        <ele>96.4</ele>
        <time>2020-09-13T08:56:42Z</time>
      </trkpt>
      <trkpt lat="46.50825" lon="0.39749">
        <ele>96.2</ele>
        <time>2020-09-13T08:56:43Z</time>
      </trkpt>
      <trkpt lat="46.50814" lon="0.39747">
        <ele>96.2</ele>
        <time>2020-09-13T08:56:51Z</time>
      </trkpt>
      <trkpt lat="46.5081" lon="0.39744">
        <ele>96.2</ele>
        <time>2020-09-13T08:56:53Z</time>
      </trkpt>
      <trkpt lat="46.50802" lon="0.39742">
        <ele>95.8</ele>
        <time>2020-09-13T08:56:55Z</time>
      </trkpt>
      <trkpt lat="46.50799" lon="0.39743">
        <ele>95.8</ele>
        <time>2020-09-13T08:56:56Z</time>
      </trkpt>
      <trkpt lat="46.5078" lon="0.39742">
        <ele>95.4</ele>
        <time>2020-09-13T08:57:01Z</time>
      </trkpt>
      <trkpt lat="46.50777" lon="0.39743">
        <ele>95.4</ele>
        <time>2020-09-13T08:57:02Z</time>
      </trkpt>
      <trkpt lat="46.50774" lon="0.39744">
        <ele>95.4</ele>
        <time>2020-09-13T08:57:03Z</time>
      </trkpt>
      <trkpt lat="46.5077" lon="0.39744">
        <ele>95.4</ele>
        <time>2020-09-13T08:57:04Z</time>
      </trkpt>
      <trkpt lat="46.50763" lon="0.39745">
        <ele>95.4</ele>
        <time>2020-09-13T08:57:07Z</time>
      </trkpt>
      <trkpt lat="46.5076" lon="0.39746">
        <ele>95.4</ele>
        <time>2020-09-13T08:57:08Z</time>
      </trkpt>
      <trkpt lat="46.50754" lon="0.39746">
        <ele>95.4</ele>
        <time>2020-09-13T08:57:10Z</time>
      </trkpt>
      <trkpt lat="46.50753" lon="0.39747">
        <ele>95.4</ele>
        <time>2020-09-13T08:57:11Z</time>
      </trkpt>
      <trkpt lat="46.50741" lon="0.39752">
        <ele>95</ele>
        <time>2020-09-13T08:57:15Z</time>
      </trkpt>
      <trkpt lat="46.50738" lon="0.39752">
        <ele>95</ele>
        <time>2020-09-13T08:57:16Z</time>
      </trkpt>
      <trkpt lat="46.5073" lon="0.39749">
        <ele>94.4</ele>
        <time>2020-09-13T08:57:20Z</time>
      </trkpt>
      <trkpt lat="46.50719" lon="0.3975">
        <ele>94</ele>
        <time>2020-09-13T08:57:21Z</time>
      </trkpt>
      <trkpt lat="46.50703" lon="0.39753">
        <ele>93.4</ele>
        <time>2020-09-13T08:57:24Z</time>
      </trkpt>
      <trkpt lat="46.50687" lon="0.39755">
        <ele>93.8</ele>
        <time>2020-09-13T08:57:27Z</time>
      </trkpt>
      <trkpt lat="46.50681" lon="0.39755">
        <ele>93.8</ele>
        <time>2020-09-13T08:57:28Z</time>
      </trkpt>
      <trkpt lat="46.50641" lon="0.39758">
        <ele>94.4</ele>
        <time>2020-09-13T08:57:36Z</time>
      </trkpt>
      <trkpt lat="46.50598" lon="0.3976">
        <ele>93.8</ele>
        <time>2020-09-13T08:57:42Z</time>
      </trkpt>
      <trkpt lat="46.50592" lon="0.39759">
        <ele>93.8</ele>
        <time>2020-09-13T08:57:43Z</time>
      </trkpt>
      <trkpt lat="46.50568" lon="0.39755">
        <ele>94.2</ele>
        <time>2020-09-13T08:57:47Z</time>
      </trkpt>
      <trkpt lat="46.50557" lon="0.39751">
        <ele>94.8</ele>
        <time>2020-09-13T08:57:49Z</time>
      </trkpt>
      <trkpt lat="46.50546" lon="0.39749">
        <ele>95.2</ele>
        <time>2020-09-13T08:57:51Z</time>
      </trkpt>
      <trkpt lat="46.50537" lon="0.39746">
        <ele>95.2</ele>
        <time>2020-09-13T08:57:54Z</time>
      </trkpt>
      <trkpt lat="46.50525" lon="0.3973">
        <ele>95</ele>
        <time>2020-09-13T08:57:57Z</time>
      </trkpt>
      <trkpt lat="46.50521" lon="0.39726">
        <ele>94.8</ele>
        <time>2020-09-13T08:57:58Z</time>
      </trkpt>
      <trkpt lat="46.50514" lon="0.39719">
        <ele>94.6</ele>
        <time>2020-09-13T08:58:00Z</time>
      </trkpt>
      <trkpt lat="46.50508" lon="0.39714">
        <ele>94.2</ele>
        <time>2020-09-13T08:58:03Z</time>
      </trkpt>
      <trkpt lat="46.50501" lon="0.39705">
        <ele>94.2</ele>
        <time>2020-09-13T08:58:05Z</time>
      </trkpt>
      <trkpt lat="46.50497" lon="0.39691">
        <ele>94.4</ele>
        <time>2020-09-13T08:58:07Z</time>
      </trkpt>
      <trkpt lat="46.50494" lon="0.39687">
        <ele>94.4</ele>
        <time>2020-09-13T08:58:09Z</time>
      </trkpt>
      <trkpt lat="46.50487" lon="0.3968">
        <ele>94.6</ele>
        <time>2020-09-13T08:58:11Z</time>
      </trkpt>
      <trkpt lat="46.50485" lon="0.39678">
        <ele>94.8</ele>
        <time>2020-09-13T08:58:12Z</time>
      </trkpt>
      <trkpt lat="46.50478" lon="0.39668">
        <ele>95.8</ele>
        <time>2020-09-13T08:58:17Z</time>
      </trkpt>
      <trkpt lat="46.50474" lon="0.39651">
        <ele>96.2</ele>
        <time>2020-09-13T08:58:22Z</time>
      </trkpt>
      <trkpt lat="46.50466" lon="0.3963">
        <ele>96</ele>
        <time>2020-09-13T08:58:28Z</time>
      </trkpt>
      <trkpt lat="46.50459" lon="0.39609">
        <ele>96.2</ele>
        <time>2020-09-13T08:58:34Z</time>
      </trkpt>
      <trkpt lat="46.50456" lon="0.39585">
        <ele>96.4</ele>
        <time>2020-09-13T08:58:38Z</time>
      </trkpt>
      <trkpt lat="46.50456" lon="0.39579">
        <ele>96.4</ele>
        <time>2020-09-13T08:58:39Z</time>
      </trkpt>
      <trkpt lat="46.50457" lon="0.39567">
        <ele>96.4</ele>
        <time>2020-09-13T08:58:41Z</time>
      </trkpt>
      <trkpt lat="46.50459" lon="0.39548">
        <ele>96</ele>
        <time>2020-09-13T08:58:44Z</time>
      </trkpt>
      <trkpt lat="46.5046" lon="0.39542">
        <ele>96</ele>
        <time>2020-09-13T08:58:45Z</time>
      </trkpt>
      <trkpt lat="46.50462" lon="0.39535">
        <ele>96</ele>
        <time>2020-09-13T08:58:46Z</time>
      </trkpt>
      <trkpt lat="46.50468" lon="0.39513">
        <ele>96</ele>
        <time>2020-09-13T08:58:48Z</time>
      </trkpt>
      <trkpt lat="46.5047" lon="0.39504">
        <ele>96</ele>
        <time>2020-09-13T08:58:49Z</time>
      </trkpt>
      <trkpt lat="46.5047" lon="0.39497">
        <ele>95.8</ele>
        <time>2020-09-13T08:58:50Z</time>
      </trkpt>
      <trkpt lat="46.50465" lon="0.39485">
        <ele>95.8</ele>
        <time>2020-09-13T08:58:52Z</time>
      </trkpt>
      <trkpt lat="46.50453" lon="0.39461">
        <ele>96</ele>
        <time>2020-09-13T08:58:56Z</time>
      </trkpt>
      <trkpt lat="46.50447" lon="0.39451">
        <ele>96.4</ele>
        <time>2020-09-13T08:58:58Z</time>
      </trkpt>
      <trkpt lat="46.50436" lon="0.39437">
        <ele>96.6</ele>
        <time>2020-09-13T08:59:02Z</time>
      </trkpt>
      <trkpt lat="46.50427" lon="0.39426">
        <ele>97.2</ele>
        <time>2020-09-13T08:59:05Z</time>
      </trkpt>
      <trkpt lat="46.50421" lon="0.39417">
        <ele>97.4</ele>
        <time>2020-09-13T08:59:07Z</time>
      </trkpt>
      <trkpt lat="46.50417" lon="0.39413">
        <ele>97.6</ele>
        <time>2020-09-13T08:59:08Z</time>
      </trkpt>
      <trkpt lat="46.50407" lon="0.39401">
        <ele>97.8</ele>
        <time>2020-09-13T08:59:11Z</time>
      </trkpt>
      <trkpt lat="46.50395" lon="0.3939">
        <ele>98.2</ele>
        <time>2020-09-13T08:59:14Z</time>
      </trkpt>
      <trkpt lat="46.50385" lon="0.3938">
        <ele>98.6</ele>
        <time>2020-09-13T08:59:17Z</time>
      </trkpt>
      <trkpt lat="46.50372" lon="0.39368">
        <ele>99.2</ele>
        <time>2020-09-13T08:59:20Z</time>
      </trkpt>
      <trkpt lat="46.50364" lon="0.39358">
        <ele>99.6</ele>
        <time>2020-09-13T08:59:22Z</time>
      </trkpt>
      <trkpt lat="46.50345" lon="0.39334">
        <ele>99.8</ele>
        <time>2020-09-13T08:59:27Z</time>
      </trkpt>
      <trkpt lat="46.50335" lon="0.39318">
        <ele>100.4</ele>
        <time>2020-09-13T08:59:32Z</time>
      </trkpt>
      <trkpt lat="46.50332" lon="0.39314">
        <ele>100.8</ele>
        <time>2020-09-13T08:59:33Z</time>
      </trkpt>
      <trkpt lat="46.50327" lon="0.39305">
        <ele>102.2</ele>
        <time>2020-09-13T08:59:36Z</time>
      </trkpt>
      <trkpt lat="46.50322" lon="0.39296">
        <ele>103</ele>
        <time>2020-09-13T08:59:39Z</time>
      </trkpt>
      <trkpt lat="46.50321" lon="0.39289">
        <ele>103.2</ele>
        <time>2020-09-13T08:59:41Z</time>
      </trkpt>
      <trkpt lat="46.50321" lon="0.39286">
        <ele>103.2</ele>
        <time>2020-09-13T08:59:42Z</time>
      </trkpt>
      <trkpt lat="46.5032" lon="0.39279">
        <ele>103.4</ele>
        <time>2020-09-13T08:59:44Z</time>
      </trkpt>
      <trkpt lat="46.50313" lon="0.39255">
        <ele>104</ele>
        <time>2020-09-13T08:59:49Z</time>
      </trkpt>
      <trkpt lat="46.50313" lon="0.39246">
        <ele>104.4</ele>
        <time>2020-09-13T08:59:51Z</time>
      </trkpt>
      <trkpt lat="46.50314" lon="0.39235">
        <ele>104.6</ele>
        <time>2020-09-13T08:59:54Z</time>
      </trkpt>
      <trkpt lat="46.50315" lon="0.39214">
        <ele>105.6</ele>
        <time>2020-09-13T08:59:59Z</time>
      </trkpt>
      <trkpt lat="46.50312" lon="0.39203">
        <ele>106</ele>
        <time>2020-09-13T09:00:01Z</time>
      </trkpt>
      <trkpt lat="46.50311" lon="0.39185">
        <ele>106.8</ele>
        <time>2020-09-13T09:00:05Z</time>
      </trkpt>
      <trkpt lat="46.5031" lon="0.39176">
        <ele>107.4</ele>
        <time>2020-09-13T09:00:07Z</time>
      </trkpt>
      <trkpt lat="46.50313" lon="0.39164">
        <ele>107.8</ele>
        <time>2020-09-13T09:00:10Z</time>
      </trkpt>
      <trkpt lat="46.50315" lon="0.39151">
        <ele>108</ele>
        <time>2020-09-13T09:00:13Z</time>
      </trkpt>
      <trkpt lat="46.50317" lon="0.39135">
        <ele>108.8</ele>
        <time>2020-09-13T09:00:17Z</time>
      </trkpt>
      <trkpt lat="46.50316" lon="0.39125">
        <ele>109.2</ele>
        <time>2020-09-13T09:00:19Z</time>
      </trkpt>
      <trkpt lat="46.50314" lon="0.39106">
        <ele>109.8</ele>
        <time>2020-09-13T09:00:23Z</time>
      </trkpt>
      <trkpt lat="46.50316" lon="0.39092">
        <ele>110.6</ele>
        <time>2020-09-13T09:00:26Z</time>
      </trkpt>
      <trkpt lat="46.50315" lon="0.39082">
        <ele>111</ele>
        <time>2020-09-13T09:00:28Z</time>
      </trkpt>
      <trkpt lat="46.50313" lon="0.39058">
        <ele>111.8</ele>
        <time>2020-09-13T09:00:33Z</time>
      </trkpt>
      <trkpt lat="46.50311" lon="0.39044">
        <ele>112</ele>
        <time>2020-09-13T09:00:36Z</time>
      </trkpt>
      <trkpt lat="46.50308" lon="0.39026">
        <ele>112.4</ele>
        <time>2020-09-13T09:00:40Z</time>
      </trkpt>
      <trkpt lat="46.50303" lon="0.38996">
        <ele>113</ele>
        <time>2020-09-13T09:00:47Z</time>
      </trkpt>
      <trkpt lat="46.50301" lon="0.38969">
        <ele>113.6</ele>
        <time>2020-09-13T09:00:52Z</time>
      </trkpt>
      <trkpt lat="46.503" lon="0.38954">
        <ele>114.2</ele>
        <time>2020-09-13T09:00:55Z</time>
      </trkpt>
      <trkpt lat="46.50302" lon="0.38938">
        <ele>114.4</ele>
        <time>2020-09-13T09:00:58Z</time>
      </trkpt>
      <trkpt lat="46.503" lon="0.38921">
        <ele>114.8</ele>
        <time>2020-09-13T09:01:01Z</time>
      </trkpt>
      <trkpt lat="46.50299" lon="0.38898">
        <ele>115.4</ele>
        <time>2020-09-13T09:01:05Z</time>
      </trkpt>
      <trkpt lat="46.50301" lon="0.38871">
        <ele>116</ele>
        <time>2020-09-13T09:01:10Z</time>
      </trkpt>
      <trkpt lat="46.50301" lon="0.3886">
        <ele>116.4</ele>
        <time>2020-09-13T09:01:12Z</time>
      </trkpt>
      <trkpt lat="46.50305" lon="0.38845">
        <ele>116.8</ele>
        <time>2020-09-13T09:01:15Z</time>
      </trkpt>
      <trkpt lat="46.50307" lon="0.38812">
        <ele>117.2</ele>
        <time>2020-09-13T09:01:21Z</time>
      </trkpt>
      <trkpt lat="46.50305" lon="0.38794">
        <ele>117.4</ele>
        <time>2020-09-13T09:01:24Z</time>
      </trkpt>
      <trkpt lat="46.50307" lon="0.38783">
        <ele>117.4</ele>
        <time>2020-09-13T09:01:26Z</time>
      </trkpt>
      <trkpt lat="46.50307" lon="0.38777">
        <ele>117.4</ele>
        <time>2020-09-13T09:01:27Z</time>
      </trkpt>
      <trkpt lat="46.50307" lon="0.38761">
        <ele>117.6</ele>
        <time>2020-09-13T09:01:30Z</time>
      </trkpt>
      <trkpt lat="46.50307" lon="0.38745">
        <ele>117.8</ele>
        <time>2020-09-13T09:01:33Z</time>
      </trkpt>
      <trkpt lat="46.50311" lon="0.38708">
        <ele>118.4</ele>
        <time>2020-09-13T09:01:40Z</time>
      </trkpt>
      <trkpt lat="46.50311" lon="0.38703">
        <ele>118.6</ele>
        <time>2020-09-13T09:01:41Z</time>
      </trkpt>
      <trkpt lat="46.50313" lon="0.38677">
        <ele>118.8</ele>
        <time>2020-09-13T09:01:46Z</time>
      </trkpt>
      <trkpt lat="46.50318" lon="0.38657">
        <ele>118.8</ele>
        <time>2020-09-13T09:01:49Z</time>
      </trkpt>
      <trkpt lat="46.50324" lon="0.38638">
        <ele>119.2</ele>
        <time>2020-09-13T09:01:52Z</time>
      </trkpt>
      <trkpt lat="46.50326" lon="0.38631">
        <ele>119.2</ele>
        <time>2020-09-13T09:01:53Z</time>
      </trkpt>
      <trkpt lat="46.50329" lon="0.38617">
        <ele>119.2</ele>
        <time>2020-09-13T09:01:55Z</time>
      </trkpt>
      <trkpt lat="46.50336" lon="0.38597">
        <ele>119.4</ele>
        <time>2020-09-13T09:01:57Z</time>
      </trkpt>
      <trkpt lat="46.50341" lon="0.38577">
        <ele>119.4</ele>
        <time>2020-09-13T09:02:01Z</time>
      </trkpt>
      <trkpt lat="46.50342" lon="0.3856">
        <ele>119.4</ele>
        <time>2020-09-13T09:02:03Z</time>
      </trkpt>
      <trkpt lat="46.50341" lon="0.38545">
        <ele>119.6</ele>
        <time>2020-09-13T09:02:05Z</time>
      </trkpt>
      <trkpt lat="46.50342" lon="0.38538">
        <ele>119.6</ele>
        <time>2020-09-13T09:02:06Z</time>
      </trkpt>
      <trkpt lat="46.50342" lon="0.38531">
        <ele>119.8</ele>
        <time>2020-09-13T09:02:07Z</time>
      </trkpt>
      <trkpt lat="46.50342" lon="0.38524">
        <ele>119.8</ele>
        <time>2020-09-13T09:02:08Z</time>
      </trkpt>
      <trkpt lat="46.50342" lon="0.38518">
        <ele>119.8</ele>
        <time>2020-09-13T09:02:09Z</time>
      </trkpt>
      <trkpt lat="46.50339" lon="0.3849">
        <ele>120.2</ele>
        <time>2020-09-13T09:02:13Z</time>
      </trkpt>
      <trkpt lat="46.50338" lon="0.38475">
        <ele>120.4</ele>
        <time>2020-09-13T09:02:15Z</time>
      </trkpt>
      <trkpt lat="46.50339" lon="0.38453">
        <ele>120.6</ele>
        <time>2020-09-13T09:02:18Z</time>
      </trkpt>
      <trkpt lat="46.50339" lon="0.38447">
        <ele>120.8</ele>
        <time>2020-09-13T09:02:19Z</time>
      </trkpt>
      <trkpt lat="46.50339" lon="0.38419">
        <ele>121.4</ele>
        <time>2020-09-13T09:02:23Z</time>
      </trkpt>
      <trkpt lat="46.50338" lon="0.38411">
        <ele>121.6</ele>
        <time>2020-09-13T09:02:24Z</time>
      </trkpt>
      <trkpt lat="46.50338" lon="0.38399">
        <ele>122</ele>
        <time>2020-09-13T09:02:26Z</time>
      </trkpt>
      <trkpt lat="46.50339" lon="0.38384">
        <ele>122.4</ele>
        <time>2020-09-13T09:02:29Z</time>
      </trkpt>
      <trkpt lat="46.50341" lon="0.38361">
        <ele>123</ele>
        <time>2020-09-13T09:02:33Z</time>
      </trkpt>
      <trkpt lat="46.50342" lon="0.38345">
        <ele>123.4</ele>
        <time>2020-09-13T09:02:35Z</time>
      </trkpt>
      <trkpt lat="46.50344" lon="0.38343">
        <ele>123.6</ele>
        <time>2020-09-13T09:02:37Z</time>
      </trkpt>
      <trkpt lat="46.50352" lon="0.3834">
        <ele>124.2</ele>
        <time>2020-09-13T09:02:40Z</time>
      </trkpt>
      <trkpt lat="46.50354" lon="0.38337">
        <ele>124</ele>
        <time>2020-09-13T09:02:41Z</time>
      </trkpt>
      <trkpt lat="46.50359" lon="0.38331">
        <ele>124</ele>
        <time>2020-09-13T09:02:43Z</time>
      </trkpt>
      <trkpt lat="46.50361" lon="0.38327">
        <ele>124</ele>
        <time>2020-09-13T09:02:44Z</time>
      </trkpt>
      <trkpt lat="46.50365" lon="0.38319">
        <ele>124</ele>
        <time>2020-09-13T09:02:46Z</time>
      </trkpt>
      <trkpt lat="46.50372" lon="0.38307">
        <ele>124.2</ele>
        <time>2020-09-13T09:02:49Z</time>
      </trkpt>
      <trkpt lat="46.50378" lon="0.383">
        <ele>124.4</ele>
        <time>2020-09-13T09:02:51Z</time>
      </trkpt>
      <trkpt lat="46.50382" lon="0.38293">
        <ele>124.4</ele>
        <time>2020-09-13T09:02:53Z</time>
      </trkpt>
      <trkpt lat="46.50385" lon="0.38289">
        <ele>124.6</ele>
        <time>2020-09-13T09:02:54Z</time>
      </trkpt>
      <trkpt lat="46.50388" lon="0.38285">
        <ele>124.6</ele>
        <time>2020-09-13T09:02:55Z</time>
      </trkpt>
      <trkpt lat="46.50409" lon="0.38253">
        <ele>125</ele>
        <time>2020-09-13T09:03:01Z</time>
      </trkpt>
      <trkpt lat="46.50413" lon="0.38247">
        <ele>125</ele>
        <time>2020-09-13T09:03:02Z</time>
      </trkpt>
      <trkpt lat="46.50421" lon="0.38236">
        <ele>125.2</ele>
        <time>2020-09-13T09:03:04Z</time>
      </trkpt>
      <trkpt lat="46.50435" lon="0.38216">
        <ele>125.2</ele>
        <time>2020-09-13T09:03:07Z</time>
      </trkpt>
      <trkpt lat="46.50448" lon="0.38199">
        <ele>125</ele>
        <time>2020-09-13T09:03:10Z</time>
      </trkpt>
      <trkpt lat="46.50455" lon="0.38187">
        <ele>125.2</ele>
        <time>2020-09-13T09:03:12Z</time>
      </trkpt>
      <trkpt lat="46.50468" lon="0.38167">
        <ele>125</ele>
        <time>2020-09-13T09:03:16Z</time>
      </trkpt>
      <trkpt lat="46.50476" lon="0.38151">
        <ele>124.8</ele>
        <time>2020-09-13T09:03:19Z</time>
      </trkpt>
      <trkpt lat="46.50478" lon="0.38145">
        <ele>124.8</ele>
        <time>2020-09-13T09:03:20Z</time>
      </trkpt>
      <trkpt lat="46.50481" lon="0.38133">
        <ele>124.8</ele>
        <time>2020-09-13T09:03:22Z</time>
      </trkpt>
      <trkpt lat="46.5048" lon="0.3813">
        <ele>125</ele>
        <time>2020-09-13T09:03:23Z</time>
      </trkpt>
      <trkpt lat="46.5048" lon="0.38127">
        <ele>125</ele>
        <time>2020-09-13T09:03:24Z</time>
      </trkpt>
      <trkpt lat="46.50478" lon="0.38119">
        <ele>124.8</ele>
        <time>2020-09-13T09:03:27Z</time>
      </trkpt>
      <trkpt lat="46.50478" lon="0.38117">
        <ele>125</ele>
        <time>2020-09-13T09:03:28Z</time>
      </trkpt>
      <trkpt lat="46.5047" lon="0.38106">
        <ele>125.4</ele>
        <time>2020-09-13T09:03:31Z</time>
      </trkpt>
      <trkpt lat="46.50444" lon="0.38078">
        <ele>126.2</ele>
        <time>2020-09-13T09:03:38Z</time>
      </trkpt>
      <trkpt lat="46.50415" lon="0.38054">
        <ele>126.6</ele>
        <time>2020-09-13T09:03:44Z</time>
      </trkpt>
      <trkpt lat="46.50411" lon="0.38051">
        <ele>126.6</ele>
        <time>2020-09-13T09:03:45Z</time>
      </trkpt>
      <trkpt lat="46.50399" lon="0.38045">
        <ele>127</ele>
        <time>2020-09-13T09:03:47Z</time>
      </trkpt>
      <trkpt lat="46.50394" lon="0.38046">
        <ele>127.2</ele>
        <time>2020-09-13T09:03:48Z</time>
      </trkpt>
      <trkpt lat="46.5039" lon="0.38048">
        <ele>127.2</ele>
        <time>2020-09-13T09:03:49Z</time>
      </trkpt>
      <trkpt lat="46.50377" lon="0.38058">
        <ele>127.4</ele>
        <time>2020-09-13T09:03:52Z</time>
      </trkpt>
      <trkpt lat="46.50353" lon="0.38081">
        <ele>127.6</ele>
        <time>2020-09-13T09:03:58Z</time>
      </trkpt>
      <trkpt lat="46.50346" lon="0.38088">
        <ele>127.6</ele>
        <time>2020-09-13T09:03:59Z</time>
      </trkpt>
      <trkpt lat="46.50331" lon="0.38104">
        <ele>127.6</ele>
        <time>2020-09-13T09:04:04Z</time>
      </trkpt>
      <trkpt lat="46.50322" lon="0.38108">
        <ele>127.6</ele>
        <time>2020-09-13T09:04:06Z</time>
      </trkpt>
      <trkpt lat="46.50312" lon="0.3811">
        <ele>127.4</ele>
        <time>2020-09-13T09:04:08Z</time>
      </trkpt>
      <trkpt lat="46.50306" lon="0.3811">
        <ele>127.4</ele>
        <time>2020-09-13T09:04:09Z</time>
      </trkpt>
      <trkpt lat="46.50289" lon="0.38112">
        <ele>127.4</ele>
        <time>2020-09-13T09:04:12Z</time>
      </trkpt>
      <trkpt lat="46.50273" lon="0.38116">
        <ele>127.4</ele>
        <time>2020-09-13T09:04:15Z</time>
      </trkpt>
      <trkpt lat="46.50269" lon="0.38119">
        <ele>127.2</ele>
        <time>2020-09-13T09:04:16Z</time>
      </trkpt>
      <trkpt lat="46.50265" lon="0.38123">
        <ele>127</ele>
        <time>2020-09-13T09:04:17Z</time>
      </trkpt>
      <trkpt lat="46.50254" lon="0.38136">
        <ele>126.8</ele>
        <time>2020-09-13T09:04:20Z</time>
      </trkpt>
      <trkpt lat="46.50251" lon="0.3814">
        <ele>126.8</ele>
        <time>2020-09-13T09:04:21Z</time>
      </trkpt>
      <trkpt lat="46.50244" lon="0.38147">
        <ele>126.8</ele>
        <time>2020-09-13T09:04:23Z</time>
      </trkpt>
      <trkpt lat="46.50236" lon="0.38153">
        <ele>126.6</ele>
        <time>2020-09-13T09:04:25Z</time>
      </trkpt>
      <trkpt lat="46.50233" lon="0.38154">
        <ele>126.6</ele>
        <time>2020-09-13T09:04:26Z</time>
      </trkpt>
      <trkpt lat="46.50229" lon="0.38153">
        <ele>126.6</ele>
        <time>2020-09-13T09:04:27Z</time>
      </trkpt>
      <trkpt lat="46.50209" lon="0.38151">
        <ele>126.4</ele>
        <time>2020-09-13T09:04:30Z</time>
      </trkpt>
      <trkpt lat="46.50191" lon="0.38153">
        <ele>126.6</ele>
        <time>2020-09-13T09:04:33Z</time>
      </trkpt>
      <trkpt lat="46.50177" lon="0.3815">
        <ele>126.8</ele>
        <time>2020-09-13T09:04:35Z</time>
      </trkpt>
      <trkpt lat="46.5017" lon="0.38147">
        <ele>126.8</ele>
        <time>2020-09-13T09:04:37Z</time>
      </trkpt>
      <trkpt lat="46.50161" lon="0.3814">
        <ele>126.8</ele>
        <time>2020-09-13T09:04:39Z</time>
      </trkpt>
      <trkpt lat="46.50157" lon="0.38136">
        <ele>126.8</ele>
        <time>2020-09-13T09:04:40Z</time>
      </trkpt>
      <trkpt lat="46.50153" lon="0.38133">
        <ele>126.8</ele>
        <time>2020-09-13T09:04:41Z</time>
      </trkpt>
      <trkpt lat="46.50144" lon="0.38126">
        <ele>126.6</ele>
        <time>2020-09-13T09:04:43Z</time>
      </trkpt>
      <trkpt lat="46.50141" lon="0.38123">
        <ele>126.6</ele>
        <time>2020-09-13T09:04:44Z</time>
      </trkpt>
      <trkpt lat="46.50138" lon="0.38119">
        <ele>126.4</ele>
        <time>2020-09-13T09:04:45Z</time>
      </trkpt>
      <trkpt lat="46.50124" lon="0.38102">
        <ele>126.6</ele>
        <time>2020-09-13T09:04:49Z</time>
      </trkpt>
      <trkpt lat="46.50121" lon="0.38098">
        <ele>126.6</ele>
        <time>2020-09-13T09:04:50Z</time>
      </trkpt>
      <trkpt lat="46.50103" lon="0.38084">
        <ele>126.8</ele>
        <time>2020-09-13T09:04:54Z</time>
      </trkpt>
      <trkpt lat="46.50098" lon="0.38081">
        <ele>126.8</ele>
        <time>2020-09-13T09:04:55Z</time>
      </trkpt>
      <trkpt lat="46.50083" lon="0.38079">
        <ele>126.4</ele>
        <time>2020-09-13T09:04:58Z</time>
      </trkpt>
      <trkpt lat="46.50072" lon="0.38074">
        <ele>126.6</ele>
        <time>2020-09-13T09:05:00Z</time>
      </trkpt>
      <trkpt lat="46.50061" lon="0.38065">
        <ele>126.6</ele>
        <time>2020-09-13T09:05:02Z</time>
      </trkpt>
      <trkpt lat="46.50053" lon="0.38055">
        <ele>126.8</ele>
        <time>2020-09-13T09:05:04Z</time>
      </trkpt>
      <trkpt lat="46.50044" lon="0.38043">
        <ele>126.8</ele>
        <time>2020-09-13T09:05:06Z</time>
      </trkpt>
      <trkpt lat="46.50041" lon="0.38037">
        <ele>126.8</ele>
        <time>2020-09-13T09:05:07Z</time>
      </trkpt>
      <trkpt lat="46.50032" lon="0.38026">
        <ele>126.8</ele>
        <time>2020-09-13T09:05:09Z</time>
      </trkpt>
      <trkpt lat="46.50024" lon="0.38023">
        <ele>127.2</ele>
        <time>2020-09-13T09:05:11Z</time>
      </trkpt>
      <trkpt lat="46.50005" lon="0.38015">
        <ele>127.4</ele>
        <time>2020-09-13T09:05:14Z</time>
      </trkpt>
      <trkpt lat="46.49998" lon="0.3801">
        <ele>127.4</ele>
        <time>2020-09-13T09:05:15Z</time>
      </trkpt>
      <trkpt lat="46.49966" lon="0.37975">
        <ele>127.8</ele>
        <time>2020-09-13T09:05:21Z</time>
      </trkpt>
      <trkpt lat="46.49929" lon="0.37936">
        <ele>128.2</ele>
        <time>2020-09-13T09:05:28Z</time>
      </trkpt>
      <trkpt lat="46.49919" lon="0.37926">
        <ele>128.2</ele>
        <time>2020-09-13T09:05:30Z</time>
      </trkpt>
      <trkpt lat="46.49914" lon="0.37921">
        <ele>128.4</ele>
        <time>2020-09-13T09:05:31Z</time>
      </trkpt>
      <trkpt lat="46.49909" lon="0.37916">
        <ele>128.4</ele>
        <time>2020-09-13T09:05:32Z</time>
      </trkpt>
      <trkpt lat="46.49901" lon="0.37907">
        <ele>128.6</ele>
        <time>2020-09-13T09:05:34Z</time>
      </trkpt>
      <trkpt lat="46.49883" lon="0.37888">
        <ele>128.6</ele>
        <time>2020-09-13T09:05:39Z</time>
      </trkpt>
      <trkpt lat="46.49854" lon="0.37858">
        <ele>129.2</ele>
        <time>2020-09-13T09:05:46Z</time>
      </trkpt>
      <trkpt lat="46.49824" lon="0.37824">
        <ele>129.2</ele>
        <time>2020-09-13T09:05:53Z</time>
      </trkpt>
      <trkpt lat="46.49816" lon="0.37814">
        <ele>129.4</ele>
        <time>2020-09-13T09:05:55Z</time>
      </trkpt>
      <trkpt lat="46.49813" lon="0.37809">
        <ele>129.6</ele>
        <time>2020-09-13T09:05:56Z</time>
      </trkpt>
      <trkpt lat="46.49812" lon="0.37804">
        <ele>129.4</ele>
        <time>2020-09-13T09:05:57Z</time>
      </trkpt>
      <trkpt lat="46.49813" lon="0.37794">
        <ele>129.6</ele>
        <time>2020-09-13T09:05:59Z</time>
      </trkpt>
      <trkpt lat="46.49814" lon="0.3779">
        <ele>129.6</ele>
        <time>2020-09-13T09:06:00Z</time>
      </trkpt>
      <trkpt lat="46.49823" lon="0.37761">
        <ele>130</ele>
        <time>2020-09-13T09:06:05Z</time>
      </trkpt>
      <trkpt lat="46.49827" lon="0.3775">
        <ele>130</ele>
        <time>2020-09-13T09:06:07Z</time>
      </trkpt>
      <trkpt lat="46.49829" lon="0.37741">
        <ele>130</ele>
        <time>2020-09-13T09:06:09Z</time>
      </trkpt>
      <trkpt lat="46.49819" lon="0.37724">
        <ele>129.8</ele>
        <time>2020-09-13T09:06:14Z</time>
      </trkpt>
      <trkpt lat="46.49804" lon="0.37704">
        <ele>129.8</ele>
        <time>2020-09-13T09:06:19Z</time>
      </trkpt>
      <trkpt lat="46.49802" lon="0.377">
        <ele>129.8</ele>
        <time>2020-09-13T09:06:20Z</time>
      </trkpt>
      <trkpt lat="46.49796" lon="0.37695">
        <ele>130</ele>
        <time>2020-09-13T09:06:22Z</time>
      </trkpt>
      <trkpt lat="46.49792" lon="0.37693">
        <ele>130</ele>
        <time>2020-09-13T09:06:23Z</time>
      </trkpt>
      <trkpt lat="46.49781" lon="0.37688">
        <ele>130</ele>
        <time>2020-09-13T09:06:27Z</time>
      </trkpt>
      <trkpt lat="46.49774" lon="0.37683">
        <ele>129.8</ele>
        <time>2020-09-13T09:06:33Z</time>
      </trkpt>
      <trkpt lat="46.49773" lon="0.37682">
        <ele>129.8</ele>
        <time>2020-09-13T09:06:34Z</time>
      </trkpt>
      <trkpt lat="46.49768" lon="0.37679">
        <ele>130</ele>
        <time>2020-09-13T09:06:37Z</time>
      </trkpt>
      <trkpt lat="46.49757" lon="0.37674">
        <ele>129.8</ele>
        <time>2020-09-13T09:06:43Z</time>
      </trkpt>
      <trkpt lat="46.49752" lon="0.37668">
        <ele>129.8</ele>
        <time>2020-09-13T09:06:45Z</time>
      </trkpt>
      <trkpt lat="46.49744" lon="0.3766">
        <ele>130</ele>
        <time>2020-09-13T09:06:47Z</time>
      </trkpt>
      <trkpt lat="46.4973" lon="0.3765">
        <ele>130.4</ele>
        <time>2020-09-13T09:06:50Z</time>
      </trkpt>
      <trkpt lat="46.4972" lon="0.37643">
        <ele>130.4</ele>
        <time>2020-09-13T09:06:52Z</time>
      </trkpt>
      <trkpt lat="46.49714" lon="0.37639">
        <ele>130.4</ele>
        <time>2020-09-13T09:06:53Z</time>
      </trkpt>
      <trkpt lat="46.49697" lon="0.37623">
        <ele>130.4</ele>
        <time>2020-09-13T09:06:57Z</time>
      </trkpt>
      <trkpt lat="46.49693" lon="0.37619">
        <ele>130.4</ele>
        <time>2020-09-13T09:06:58Z</time>
      </trkpt>
      <trkpt lat="46.49692" lon="0.37613">
        <ele>130.4</ele>
        <time>2020-09-13T09:07:00Z</time>
      </trkpt>
      <trkpt lat="46.49692" lon="0.37602">
        <ele>130.2</ele>
        <time>2020-09-13T09:07:03Z</time>
      </trkpt>
      <trkpt lat="46.49691" lon="0.37597">
        <ele>130.2</ele>
        <time>2020-09-13T09:07:04Z</time>
      </trkpt>
      <trkpt lat="46.49691" lon="0.37584">
        <ele>130</ele>
        <time>2020-09-13T09:07:06Z</time>
      </trkpt>
      <trkpt lat="46.49694" lon="0.37567">
        <ele>130</ele>
        <time>2020-09-13T09:07:09Z</time>
      </trkpt>
      <trkpt lat="46.49697" lon="0.37555">
        <ele>130.2</ele>
        <time>2020-09-13T09:07:11Z</time>
      </trkpt>
      <trkpt lat="46.49699" lon="0.37545">
        <ele>130.6</ele>
        <time>2020-09-13T09:07:13Z</time>
      </trkpt>
      <trkpt lat="46.497" lon="0.37534">
        <ele>130.8</ele>
        <time>2020-09-13T09:07:15Z</time>
      </trkpt>
      <trkpt lat="46.49704" lon="0.37517">
        <ele>131</ele>
        <time>2020-09-13T09:07:18Z</time>
      </trkpt>
      <trkpt lat="46.49708" lon="0.37508">
        <ele>130.8</ele>
        <time>2020-09-13T09:07:20Z</time>
      </trkpt>
      <trkpt lat="46.49717" lon="0.37486">
        <ele>130.4</ele>
        <time>2020-09-13T09:07:24Z</time>
      </trkpt>
      <trkpt lat="46.49722" lon="0.37466">
        <ele>130.4</ele>
        <time>2020-09-13T09:07:27Z</time>
      </trkpt>
      <trkpt lat="46.49725" lon="0.37459">
        <ele>130.8</ele>
        <time>2020-09-13T09:07:28Z</time>
      </trkpt>
      <trkpt lat="46.49732" lon="0.37446">
        <ele>131.4</ele>
        <time>2020-09-13T09:07:30Z</time>
      </trkpt>
      <trkpt lat="46.49735" lon="0.37434">
        <ele>131.4</ele>
        <time>2020-09-13T09:07:32Z</time>
      </trkpt>
      <trkpt lat="46.49739" lon="0.37415">
        <ele>131</ele>
        <time>2020-09-13T09:07:35Z</time>
      </trkpt>
      <trkpt lat="46.4974" lon="0.37401">
        <ele>130.6</ele>
        <time>2020-09-13T09:07:37Z</time>
      </trkpt>
      <trkpt lat="46.49748" lon="0.37359">
        <ele>129.8</ele>
        <time>2020-09-13T09:07:43Z</time>
      </trkpt>
      <trkpt lat="46.49752" lon="0.37349">
        <ele>130</ele>
        <time>2020-09-13T09:07:45Z</time>
      </trkpt>
      <trkpt lat="46.49759" lon="0.37342">
        <ele>130</ele>
        <time>2020-09-13T09:07:47Z</time>
      </trkpt>
      <trkpt lat="46.49781" lon="0.37325">
        <ele>129.8</ele>
        <time>2020-09-13T09:07:52Z</time>
      </trkpt>
      <trkpt lat="46.49784" lon="0.37323">
        <ele>129.8</ele>
        <time>2020-09-13T09:07:53Z</time>
      </trkpt>
      <trkpt lat="46.49786" lon="0.37323">
        <ele>129.8</ele>
        <time>2020-09-13T09:07:54Z</time>
      </trkpt>
      <trkpt lat="46.49797" lon="0.37329">
        <ele>130</ele>
        <time>2020-09-13T09:07:57Z</time>
      </trkpt>
      <trkpt lat="46.49808" lon="0.37335">
        <ele>130</ele>
        <time>2020-09-13T09:08:00Z</time>
      </trkpt>
      <trkpt lat="46.49816" lon="0.37339">
        <ele>130.2</ele>
        <time>2020-09-13T09:08:02Z</time>
      </trkpt>
      <trkpt lat="46.49831" lon="0.3735">
        <ele>130</ele>
        <time>2020-09-13T09:08:06Z</time>
      </trkpt>
      <trkpt lat="46.49836" lon="0.37349">
        <ele>130</ele>
        <time>2020-09-13T09:08:08Z</time>
      </trkpt>
      <trkpt lat="46.49843" lon="0.37342">
        <ele>130</ele>
        <time>2020-09-13T09:08:11Z</time>
      </trkpt>
      <trkpt lat="46.49851" lon="0.37333">
        <ele>129.8</ele>
        <time>2020-09-13T09:08:14Z</time>
      </trkpt>
      <trkpt lat="46.49862" lon="0.3732">
        <ele>129.4</ele>
        <time>2020-09-13T09:08:18Z</time>
      </trkpt>
      <trkpt lat="46.49877" lon="0.37306">
        <ele>129.4</ele>
        <time>2020-09-13T09:08:22Z</time>
      </trkpt>
      <trkpt lat="46.4989" lon="0.37287">
        <ele>129</ele>
        <time>2020-09-13T09:08:27Z</time>
      </trkpt>
      <trkpt lat="46.49891" lon="0.37282">
        <ele>129</ele>
        <time>2020-09-13T09:08:28Z</time>
      </trkpt>
      <trkpt lat="46.49893" lon="0.37269">
        <ele>129</ele>
        <time>2020-09-13T09:08:32Z</time>
      </trkpt>
      <trkpt lat="46.49892" lon="0.37258">
        <ele>129</ele>
        <time>2020-09-13T09:08:35Z</time>
      </trkpt>
      <trkpt lat="46.4989" lon="0.37251">
        <ele>129.2</ele>
        <time>2020-09-13T09:08:37Z</time>
      </trkpt>
      <trkpt lat="46.49879" lon="0.37236">
        <ele>129.6</ele>
        <time>2020-09-13T09:08:41Z</time>
      </trkpt>
      <trkpt lat="46.49872" lon="0.37228">
        <ele>129.6</ele>
        <time>2020-09-13T09:08:43Z</time>
      </trkpt>
      <trkpt lat="46.49869" lon="0.3722">
        <ele>129.6</ele>
        <time>2020-09-13T09:08:45Z</time>
      </trkpt>
      <trkpt lat="46.4987" lon="0.37217">
        <ele>129.4</ele>
        <time>2020-09-13T09:08:46Z</time>
      </trkpt>
      <trkpt lat="46.49869" lon="0.37209">
        <ele>129</ele>
        <time>2020-09-13T09:08:50Z</time>
      </trkpt>
      <trkpt lat="46.49869" lon="0.37206">
        <ele>129</ele>
        <time>2020-09-13T09:08:51Z</time>
      </trkpt>
      <trkpt lat="46.4987" lon="0.37204">
        <ele>129.2</ele>
        <time>2020-09-13T09:08:52Z</time>
      </trkpt>
      <trkpt lat="46.49872" lon="0.37197">
        <ele>129.4</ele>
        <time>2020-09-13T09:08:54Z</time>
      </trkpt>
      <trkpt lat="46.49874" lon="0.37193">
        <ele>129.4</ele>
        <time>2020-09-13T09:08:55Z</time>
      </trkpt>
      <trkpt lat="46.49876" lon="0.37183">
        <ele>129.6</ele>
        <time>2020-09-13T09:08:57Z</time>
      </trkpt>
      <trkpt lat="46.4988" lon="0.37177">
        <ele>129.4</ele>
        <time>2020-09-13T09:08:59Z</time>
      </trkpt>
      <trkpt lat="46.49881" lon="0.37174">
        <ele>129.2</ele>
        <time>2020-09-13T09:09:00Z</time>
      </trkpt>
      <trkpt lat="46.49882" lon="0.3717">
        <ele>129.2</ele>
        <time>2020-09-13T09:09:01Z</time>
      </trkpt>
      <trkpt lat="46.49885" lon="0.3716">
        <ele>129.4</ele>
        <time>2020-09-13T09:09:03Z</time>
      </trkpt>
      <trkpt lat="46.49886" lon="0.37154">
        <ele>129.4</ele>
        <time>2020-09-13T09:09:04Z</time>
      </trkpt>
      <trkpt lat="46.49887" lon="0.37149">
        <ele>129.4</ele>
        <time>2020-09-13T09:09:05Z</time>
      </trkpt>
      <trkpt lat="46.49896" lon="0.37129">
        <ele>128.8</ele>
        <time>2020-09-13T09:09:09Z</time>
      </trkpt>
      <trkpt lat="46.49897" lon="0.37126">
        <ele>128.6</ele>
        <time>2020-09-13T09:09:10Z</time>
      </trkpt>
      <trkpt lat="46.49899" lon="0.37124">
        <ele>128.4</ele>
        <time>2020-09-13T09:09:11Z</time>
      </trkpt>
      <trkpt lat="46.49901" lon="0.37123">
        <ele>128.4</ele>
        <time>2020-09-13T09:09:12Z</time>
      </trkpt>
      <trkpt lat="46.49903" lon="0.37122">
        <ele>128.4</ele>
        <time>2020-09-13T09:09:13Z</time>
      </trkpt>
      <trkpt lat="46.49905" lon="0.37119">
        <ele>128.4</ele>
        <time>2020-09-13T09:09:14Z</time>
      </trkpt>
      <trkpt lat="46.49914" lon="0.37104">
        <ele>128.6</ele>
        <time>2020-09-13T09:09:17Z</time>
      </trkpt>
      <trkpt lat="46.49918" lon="0.37094">
        <ele>128.6</ele>
        <time>2020-09-13T09:09:19Z</time>
      </trkpt>
      <trkpt lat="46.49922" lon="0.37088">
        <ele>128.6</ele>
        <time>2020-09-13T09:09:21Z</time>
      </trkpt>
      <trkpt lat="46.49923" lon="0.37087">
        <ele>128.6</ele>
        <time>2020-09-13T09:09:22Z</time>
      </trkpt>
      <trkpt lat="46.4993" lon="0.37083">
        <ele>128.4</ele>
        <time>2020-09-13T09:09:25Z</time>
      </trkpt>
      <trkpt lat="46.49935" lon="0.3708">
        <ele>128.4</ele>
        <time>2020-09-13T09:09:27Z</time>
      </trkpt>
      <trkpt lat="46.49938" lon="0.37078">
        <ele>128.4</ele>
        <time>2020-09-13T09:09:28Z</time>
      </trkpt>
      <trkpt lat="46.49949" lon="0.37067">
        <ele>128.2</ele>
        <time>2020-09-13T09:09:35Z</time>
      </trkpt>
      <trkpt lat="46.49956" lon="0.37063">
        <ele>128.2</ele>
        <time>2020-09-13T09:09:38Z</time>
      </trkpt>
      <trkpt lat="46.49961" lon="0.37059">
        <ele>128.4</ele>
        <time>2020-09-13T09:09:41Z</time>
      </trkpt>
      <trkpt lat="46.49969" lon="0.37055">
        <ele>128.2</ele>
        <time>2020-09-13T09:09:43Z</time>
      </trkpt>
      <trkpt lat="46.49978" lon="0.37056">
        <ele>128.4</ele>
        <time>2020-09-13T09:09:46Z</time>
      </trkpt>
      <trkpt lat="46.49996" lon="0.37059">
        <ele>128.4</ele>
        <time>2020-09-13T09:09:51Z</time>
      </trkpt>
      <trkpt lat="46.50001" lon="0.37058">
        <ele>128.2</ele>
        <time>2020-09-13T09:09:54Z</time>
      </trkpt>
      <trkpt lat="46.50003" lon="0.37056">
        <ele>128.2</ele>
        <time>2020-09-13T09:09:56Z</time>
      </trkpt>
      <trkpt lat="46.50013" lon="0.37049">
        <ele>127.8</ele>
        <time>2020-09-13T09:10:02Z</time>
      </trkpt>
      <trkpt lat="46.50014" lon="0.37049">
        <ele>127.8</ele>
        <time>2020-09-13T09:10:03Z</time>
      </trkpt>
      <trkpt lat="46.50018" lon="0.37051">
        <ele>127.8</ele>
        <time>2020-09-13T09:10:05Z</time>
      </trkpt>
      <trkpt lat="46.50026" lon="0.3706">
        <ele>128</ele>
        <time>2020-09-13T09:10:09Z</time>
      </trkpt>
      <trkpt lat="46.50036" lon="0.37075">
        <ele>128</ele>
        <time>2020-09-13T09:10:13Z</time>
      </trkpt>
      <trkpt lat="46.50051" lon="0.37082">
        <ele>127.6</ele>
        <time>2020-09-13T09:10:17Z</time>
      </trkpt>
      <trkpt lat="46.50054" lon="0.37083">
        <ele>127.4</ele>
        <time>2020-09-13T09:10:18Z</time>
      </trkpt>
      <trkpt lat="46.50059" lon="0.37088">
        <ele>127.2</ele>
        <time>2020-09-13T09:10:20Z</time>
      </trkpt>
      <trkpt lat="46.5006" lon="0.37091">
        <ele>127.4</ele>
        <time>2020-09-13T09:10:21Z</time>
      </trkpt>
      <trkpt lat="46.50062" lon="0.37095">
        <ele>127.4</ele>
        <time>2020-09-13T09:10:22Z</time>
      </trkpt>
      <trkpt lat="46.5007" lon="0.371">
        <ele>127.4</ele>
        <time>2020-09-13T09:10:25Z</time>
      </trkpt>
      <trkpt lat="46.5008" lon="0.37103">
        <ele>127.6</ele>
        <time>2020-09-13T09:10:28Z</time>
      </trkpt>
      <trkpt lat="46.50085" lon="0.371">
        <ele>127.6</ele>
        <time>2020-09-13T09:10:30Z</time>
      </trkpt>
      <trkpt lat="46.50097" lon="0.37079">
        <ele>127.4</ele>
        <time>2020-09-13T09:10:35Z</time>
      </trkpt>
      <trkpt lat="46.50106" lon="0.37065">
        <ele>127.2</ele>
        <time>2020-09-13T09:10:38Z</time>
      </trkpt>
      <trkpt lat="46.5011" lon="0.37064">
        <ele>127.4</ele>
        <time>2020-09-13T09:10:40Z</time>
      </trkpt>
      <trkpt lat="46.50131" lon="0.37069">
        <ele>127.6</ele>
        <time>2020-09-13T09:10:44Z</time>
      </trkpt>
      <trkpt lat="46.50165" lon="0.37082">
        <ele>127.4</ele>
        <time>2020-09-13T09:10:50Z</time>
      </trkpt>
      <trkpt lat="46.50177" lon="0.37088">
        <ele>127.2</ele>
        <time>2020-09-13T09:10:53Z</time>
      </trkpt>
      <trkpt lat="46.50181" lon="0.37086">
        <ele>127.2</ele>
        <time>2020-09-13T09:10:55Z</time>
      </trkpt>
      <trkpt lat="46.50182" lon="0.3708">
        <ele>127</ele>
        <time>2020-09-13T09:10:58Z</time>
      </trkpt>
      <trkpt lat="46.50181" lon="0.37077">
        <ele>127.2</ele>
        <time>2020-09-13T09:10:59Z</time>
      </trkpt>
      <trkpt lat="46.50181" lon="0.37068">
        <ele>127.4</ele>
        <time>2020-09-13T09:11:01Z</time>
      </trkpt>
      <trkpt lat="46.50181" lon="0.37051">
        <ele>127.4</ele>
        <time>2020-09-13T09:11:04Z</time>
      </trkpt>
      <trkpt lat="46.50182" lon="0.37047">
        <ele>127.4</ele>
        <time>2020-09-13T09:11:05Z</time>
      </trkpt>
      <trkpt lat="46.50184" lon="0.3703">
        <ele>127.6</ele>
        <time>2020-09-13T09:11:08Z</time>
      </trkpt>
      <trkpt lat="46.50184" lon="0.37019">
        <ele>127.6</ele>
        <time>2020-09-13T09:11:10Z</time>
      </trkpt>
      <trkpt lat="46.50185" lon="0.3701">
        <ele>127.6</ele>
        <time>2020-09-13T09:11:12Z</time>
      </trkpt>
      <trkpt lat="46.50188" lon="0.36991">
        <ele>128</ele>
        <time>2020-09-13T09:11:16Z</time>
      </trkpt>
      <trkpt lat="46.5019" lon="0.36967">
        <ele>128</ele>
        <time>2020-09-13T09:11:21Z</time>
      </trkpt>
      <trkpt lat="46.50193" lon="0.36953">
        <ele>128</ele>
        <time>2020-09-13T09:11:24Z</time>
      </trkpt>
      <trkpt lat="46.50191" lon="0.3693">
        <ele>127.8</ele>
        <time>2020-09-13T09:11:28Z</time>
      </trkpt>
      <trkpt lat="46.50189" lon="0.36911">
        <ele>128</ele>
        <time>2020-09-13T09:11:32Z</time>
      </trkpt>
      <trkpt lat="46.50189" lon="0.36903">
        <ele>128.2</ele>
        <time>2020-09-13T09:11:34Z</time>
      </trkpt>
      <trkpt lat="46.50185" lon="0.36884">
        <ele>128.2</ele>
        <time>2020-09-13T09:11:38Z</time>
      </trkpt>
      <trkpt lat="46.50194" lon="0.36866">
        <ele>128.2</ele>
        <time>2020-09-13T09:11:44Z</time>
      </trkpt>
      <trkpt lat="46.50198" lon="0.36862">
        <ele>128</ele>
        <time>2020-09-13T09:11:48Z</time>
      </trkpt>
      <trkpt lat="46.50198" lon="0.36859">
        <ele>128</ele>
        <time>2020-09-13T09:11:49Z</time>
      </trkpt>
      <trkpt lat="46.50198" lon="0.36857">
        <ele>127.8</ele>
        <time>2020-09-13T09:11:50Z</time>
      </trkpt>
      <trkpt lat="46.502" lon="0.36851">
        <ele>127.6</ele>
        <time>2020-09-13T09:11:52Z</time>
      </trkpt>
      <trkpt lat="46.502" lon="0.36849">
        <ele>127.6</ele>
        <time>2020-09-13T09:11:53Z</time>
      </trkpt>
      <trkpt lat="46.50201" lon="0.36847">
        <ele>127.6</ele>
        <time>2020-09-13T09:11:54Z</time>
      </trkpt>
      <trkpt lat="46.50201" lon="0.36841">
        <ele>127.8</ele>
        <time>2020-09-13T09:11:59Z</time>
      </trkpt>
      <trkpt lat="46.50204" lon="0.36823">
        <ele>129.4</ele>
        <time>2020-09-13T09:12:03Z</time>
      </trkpt>
      <trkpt lat="46.50205" lon="0.3681">
        <ele>128.2</ele>
        <time>2020-09-13T09:12:05Z</time>
      </trkpt>
      <trkpt lat="46.50207" lon="0.36798">
        <ele>128</ele>
        <time>2020-09-13T09:12:07Z</time>
      </trkpt>
      <trkpt lat="46.50208" lon="0.36794">
        <ele>127.8</ele>
        <time>2020-09-13T09:12:08Z</time>
      </trkpt>
      <trkpt lat="46.50205" lon="0.3679">
        <ele>127.8</ele>
        <time>2020-09-13T09:12:09Z</time>
      </trkpt>
      <trkpt lat="46.50202" lon="0.3679">
        <ele>127.6</ele>
        <time>2020-09-13T09:12:10Z</time>
      </trkpt>
      <trkpt lat="46.50193" lon="0.36789">
        <ele>127.4</ele>
        <time>2020-09-13T09:12:13Z</time>
      </trkpt>
      <trkpt lat="46.50191" lon="0.36786">
        <ele>127.4</ele>
        <time>2020-09-13T09:12:15Z</time>
      </trkpt>
      <trkpt lat="46.50189" lon="0.3678">
        <ele>127.4</ele>
        <time>2020-09-13T09:12:17Z</time>
      </trkpt>
      <trkpt lat="46.50185" lon="0.3678">
        <ele>127.4</ele>
        <time>2020-09-13T09:12:19Z</time>
      </trkpt>
      <trkpt lat="46.50184" lon="0.3678">
        <ele>127.4</ele>
        <time>2020-09-13T09:12:20Z</time>
      </trkpt>
      <trkpt lat="46.50178" lon="0.36776">
        <ele>127.4</ele>
        <time>2020-09-13T09:12:23Z</time>
      </trkpt>
      <trkpt lat="46.50169" lon="0.36764">
        <ele>127.6</ele>
        <time>2020-09-13T09:12:28Z</time>
      </trkpt>
      <trkpt lat="46.50162" lon="0.36761">
        <ele>127.8</ele>
        <time>2020-09-13T09:12:31Z</time>
      </trkpt>
      <trkpt lat="46.50157" lon="0.36762">
        <ele>128</ele>
        <time>2020-09-13T09:12:33Z</time>
      </trkpt>
      <trkpt lat="46.50154" lon="0.36762">
        <ele>128.2</ele>
        <time>2020-09-13T09:12:34Z</time>
      </trkpt>
      <trkpt lat="46.50144" lon="0.36758">
        <ele>127.6</ele>
        <time>2020-09-13T09:12:38Z</time>
      </trkpt>
      <trkpt lat="46.50139" lon="0.36758">
        <ele>127.4</ele>
        <time>2020-09-13T09:12:40Z</time>
      </trkpt>
      <trkpt lat="46.50135" lon="0.36755">
        <ele>127.4</ele>
        <time>2020-09-13T09:12:42Z</time>
      </trkpt>
      <trkpt lat="46.50126" lon="0.36745">
        <ele>127.6</ele>
        <time>2020-09-13T09:12:47Z</time>
      </trkpt>
      <trkpt lat="46.50121" lon="0.36738">
        <ele>127.4</ele>
        <time>2020-09-13T09:12:50Z</time>
      </trkpt>
      <trkpt lat="46.50119" lon="0.36733">
        <ele>127.4</ele>
        <time>2020-09-13T09:12:52Z</time>
      </trkpt>
      <trkpt lat="46.50116" lon="0.36714">
        <ele>127.6</ele>
        <time>2020-09-13T09:12:57Z</time>
      </trkpt>
      <trkpt lat="46.50111" lon="0.36695">
        <ele>127.6</ele>
        <time>2020-09-13T09:13:02Z</time>
      </trkpt>
      <trkpt lat="46.50111" lon="0.36689">
        <ele>127.4</ele>
        <time>2020-09-13T09:13:05Z</time>
      </trkpt>
      <trkpt lat="46.50113" lon="0.36685">
        <ele>127.4</ele>
        <time>2020-09-13T09:13:07Z</time>
      </trkpt>
      <trkpt lat="46.50113" lon="0.36682">
        <ele>127.4</ele>
        <time>2020-09-13T09:13:08Z</time>
      </trkpt>
      <trkpt lat="46.50113" lon="0.36671">
        <ele>127.4</ele>
        <time>2020-09-13T09:13:11Z</time>
      </trkpt>
      <trkpt lat="46.50114" lon="0.36667">
        <ele>127.4</ele>
        <time>2020-09-13T09:13:12Z</time>
      </trkpt>
      <trkpt lat="46.50116" lon="0.36662">
        <ele>127.4</ele>
        <time>2020-09-13T09:13:13Z</time>
      </trkpt>
      <trkpt lat="46.50117" lon="0.36658">
        <ele>127.2</ele>
        <time>2020-09-13T09:13:14Z</time>
      </trkpt>
      <trkpt lat="46.50121" lon="0.36651">
        <ele>127.2</ele>
        <time>2020-09-13T09:13:16Z</time>
      </trkpt>
      <trkpt lat="46.5013" lon="0.36643">
        <ele>126.8</ele>
        <time>2020-09-13T09:13:20Z</time>
      </trkpt>
      <trkpt lat="46.50132" lon="0.36641">
        <ele>126.8</ele>
        <time>2020-09-13T09:13:21Z</time>
      </trkpt>
      <trkpt lat="46.50139" lon="0.36625">
        <ele>126.6</ele>
        <time>2020-09-13T09:13:28Z</time>
      </trkpt>
      <trkpt lat="46.50142" lon="0.36623">
        <ele>126.6</ele>
        <time>2020-09-13T09:13:29Z</time>
      </trkpt>
      <trkpt lat="46.50152" lon="0.36621">
        <ele>126.6</ele>
        <time>2020-09-13T09:13:32Z</time>
      </trkpt>
      <trkpt lat="46.50162" lon="0.36625">
        <ele>126.8</ele>
        <time>2020-09-13T09:13:36Z</time>
      </trkpt>
      <trkpt lat="46.50165" lon="0.36627">
        <ele>126.6</ele>
        <time>2020-09-13T09:13:38Z</time>
      </trkpt>
      <trkpt lat="46.50176" lon="0.36634">
        <ele>126.6</ele>
        <time>2020-09-13T09:13:41Z</time>
      </trkpt>
      <trkpt lat="46.50189" lon="0.36643">
        <ele>126.6</ele>
        <time>2020-09-13T09:13:47Z</time>
      </trkpt>
      <trkpt lat="46.50192" lon="0.36648">
        <ele>126.8</ele>
        <time>2020-09-13T09:13:49Z</time>
      </trkpt>
      <trkpt lat="46.50194" lon="0.36653">
        <ele>126.8</ele>
        <time>2020-09-13T09:13:51Z</time>
      </trkpt>
      <trkpt lat="46.50196" lon="0.36656">
        <ele>127</ele>
        <time>2020-09-13T09:13:52Z</time>
      </trkpt>
      <trkpt lat="46.50203" lon="0.36664">
        <ele>126.8</ele>
        <time>2020-09-13T09:13:56Z</time>
      </trkpt>
      <trkpt lat="46.50208" lon="0.36666">
        <ele>126.8</ele>
        <time>2020-09-13T09:13:58Z</time>
      </trkpt>
      <trkpt lat="46.50213" lon="0.36672">
        <ele>126.8</ele>
        <time>2020-09-13T09:14:00Z</time>
      </trkpt>
      <trkpt lat="46.50223" lon="0.36681">
        <ele>126.8</ele>
        <time>2020-09-13T09:14:04Z</time>
      </trkpt>
      <trkpt lat="46.50226" lon="0.36684">
        <ele>126.8</ele>
        <time>2020-09-13T09:14:06Z</time>
      </trkpt>
      <trkpt lat="46.50231" lon="0.36681">
        <ele>126.8</ele>
        <time>2020-09-13T09:14:10Z</time>
      </trkpt>
      <trkpt lat="46.50232" lon="0.36679">
        <ele>126.8</ele>
        <time>2020-09-13T09:14:11Z</time>
      </trkpt>
      <trkpt lat="46.50237" lon="0.36667">
        <ele>126.6</ele>
        <time>2020-09-13T09:14:15Z</time>
      </trkpt>
      <trkpt lat="46.50239" lon="0.36662">
        <ele>126.6</ele>
        <time>2020-09-13T09:14:18Z</time>
      </trkpt>
      <trkpt lat="46.50247" lon="0.36656">
        <ele>126.6</ele>
        <time>2020-09-13T09:14:20Z</time>
      </trkpt>
      <trkpt lat="46.50263" lon="0.36649">
        <ele>126.2</ele>
        <time>2020-09-13T09:14:25Z</time>
      </trkpt>
      <trkpt lat="46.50276" lon="0.36658">
        <ele>125.4</ele>
        <time>2020-09-13T09:14:29Z</time>
      </trkpt>
      <trkpt lat="46.50284" lon="0.36663">
        <ele>125.4</ele>
        <time>2020-09-13T09:14:32Z</time>
      </trkpt>
      <trkpt lat="46.50292" lon="0.36665">
        <ele>125.6</ele>
        <time>2020-09-13T09:14:35Z</time>
      </trkpt>
      <trkpt lat="46.50295" lon="0.36666">
        <ele>125.6</ele>
        <time>2020-09-13T09:14:36Z</time>
      </trkpt>
      <trkpt lat="46.50301" lon="0.36665">
        <ele>125.8</ele>
        <time>2020-09-13T09:14:39Z</time>
      </trkpt>
      <trkpt lat="46.50303" lon="0.36664">
        <ele>125.6</ele>
        <time>2020-09-13T09:14:40Z</time>
      </trkpt>
      <trkpt lat="46.50305" lon="0.36661">
        <ele>125.2</ele>
        <time>2020-09-13T09:14:43Z</time>
      </trkpt>
      <trkpt lat="46.50306" lon="0.36658">
        <ele>125.2</ele>
        <time>2020-09-13T09:14:44Z</time>
      </trkpt>
      <trkpt lat="46.50308" lon="0.36654">
        <ele>124.8</ele>
        <time>2020-09-13T09:14:48Z</time>
      </trkpt>
      <trkpt lat="46.50309" lon="0.36652">
        <ele>124.8</ele>
        <time>2020-09-13T09:14:49Z</time>
      </trkpt>
      <trkpt lat="46.50312" lon="0.36651">
        <ele>124.4</ele>
        <time>2020-09-13T09:14:53Z</time>
      </trkpt>
      <trkpt lat="46.50316" lon="0.36648">
        <ele>124.6</ele>
        <time>2020-09-13T09:14:55Z</time>
      </trkpt>
      <trkpt lat="46.50323" lon="0.36648">
        <ele>124.6</ele>
        <time>2020-09-13T09:14:59Z</time>
      </trkpt>
      <trkpt lat="46.50329" lon="0.36653">
        <ele>124.6</ele>
        <time>2020-09-13T09:15:02Z</time>
      </trkpt>
      <trkpt lat="46.50331" lon="0.36658">
        <ele>124.4</ele>
        <time>2020-09-13T09:15:04Z</time>
      </trkpt>
      <trkpt lat="46.50334" lon="0.36669">
        <ele>124.6</ele>
        <time>2020-09-13T09:15:09Z</time>
      </trkpt>
      <trkpt lat="46.50336" lon="0.3667">
        <ele>125</ele>
        <time>2020-09-13T09:15:10Z</time>
      </trkpt>
      <trkpt lat="46.50336" lon="0.3667">
        <ele>125.2</ele>
        <time>2020-09-13T09:15:11Z</time>
      </trkpt>
      <trkpt lat="46.50346" lon="0.36676">
        <ele>125.6</ele>
        <time>2020-09-13T09:15:15Z</time>
      </trkpt>
      <trkpt lat="46.50364" lon="0.36691">
        <ele>124.8</ele>
        <time>2020-09-13T09:15:21Z</time>
      </trkpt>
      <trkpt lat="46.50385" lon="0.36705">
        <ele>125.4</ele>
        <time>2020-09-13T09:15:28Z</time>
      </trkpt>
      <trkpt lat="46.50409" lon="0.3671">
        <ele>125.2</ele>
        <time>2020-09-13T09:15:34Z</time>
      </trkpt>
      <trkpt lat="46.50413" lon="0.36709">
        <ele>125.2</ele>
        <time>2020-09-13T09:15:35Z</time>
      </trkpt>
      <trkpt lat="46.50422" lon="0.3671">
        <ele>125</ele>
        <time>2020-09-13T09:15:37Z</time>
      </trkpt>
      <trkpt lat="46.50431" lon="0.3671">
        <ele>124.8</ele>
        <time>2020-09-13T09:15:39Z</time>
      </trkpt>
      <trkpt lat="46.5044" lon="0.36713">
        <ele>124.6</ele>
        <time>2020-09-13T09:15:41Z</time>
      </trkpt>
      <trkpt lat="46.50458" lon="0.36721">
        <ele>124.4</ele>
        <time>2020-09-13T09:15:47Z</time>
      </trkpt>
      <trkpt lat="46.50473" lon="0.36729">
        <ele>124.8</ele>
        <time>2020-09-13T09:15:52Z</time>
      </trkpt>
      <trkpt lat="46.5048" lon="0.36737">
        <ele>125</ele>
        <time>2020-09-13T09:15:56Z</time>
      </trkpt>
      <trkpt lat="46.50483" lon="0.36739">
        <ele>125</ele>
        <time>2020-09-13T09:15:58Z</time>
      </trkpt>
      <trkpt lat="46.50498" lon="0.36746">
        <ele>125.2</ele>
        <time>2020-09-13T09:16:04Z</time>
      </trkpt>
      <trkpt lat="46.50509" lon="0.36752">
        <ele>125.8</ele>
        <time>2020-09-13T09:16:08Z</time>
      </trkpt>
      <trkpt lat="46.50515" lon="0.36753">
        <ele>125.8</ele>
        <time>2020-09-13T09:16:10Z</time>
      </trkpt>
      <trkpt lat="46.50534" lon="0.3676">
        <ele>126.2</ele>
        <time>2020-09-13T09:16:16Z</time>
      </trkpt>
      <trkpt lat="46.50537" lon="0.36763">
        <ele>126.2</ele>
        <time>2020-09-13T09:16:17Z</time>
      </trkpt>
      <trkpt lat="46.50539" lon="0.36764">
        <ele>126.2</ele>
        <time>2020-09-13T09:16:19Z</time>
      </trkpt>
      <trkpt lat="46.50548" lon="0.36769">
        <ele>126.4</ele>
        <time>2020-09-13T09:16:22Z</time>
      </trkpt>
      <trkpt lat="46.50562" lon="0.36783">
        <ele>126.6</ele>
        <time>2020-09-13T09:16:27Z</time>
      </trkpt>
      <trkpt lat="46.50575" lon="0.36792">
        <ele>127.2</ele>
        <time>2020-09-13T09:16:32Z</time>
      </trkpt>
      <trkpt lat="46.50578" lon="0.3679">
        <ele>127.2</ele>
        <time>2020-09-13T09:16:33Z</time>
      </trkpt>
      <trkpt lat="46.50589" lon="0.36783">
        <ele>127.4</ele>
        <time>2020-09-13T09:16:35Z</time>
      </trkpt>
      <trkpt lat="46.50596" lon="0.3678">
        <ele>127.4</ele>
        <time>2020-09-13T09:16:38Z</time>
      </trkpt>
      <trkpt lat="46.5061" lon="0.36776">
        <ele>127</ele>
        <time>2020-09-13T09:16:43Z</time>
      </trkpt>
      <trkpt lat="46.50615" lon="0.3677">
        <ele>127</ele>
        <time>2020-09-13T09:16:44Z</time>
      </trkpt>
      <trkpt lat="46.50616" lon="0.36766">
        <ele>126.6</ele>
        <time>2020-09-13T09:16:46Z</time>
      </trkpt>
      <trkpt lat="46.50621" lon="0.36757">
        <ele>126.2</ele>
        <time>2020-09-13T09:16:48Z</time>
      </trkpt>
      <trkpt lat="46.50626" lon="0.36753">
        <ele>125.8</ele>
        <time>2020-09-13T09:16:50Z</time>
      </trkpt>
      <trkpt lat="46.50631" lon="0.36752">
        <ele>125.6</ele>
        <time>2020-09-13T09:16:51Z</time>
      </trkpt>
      <trkpt lat="46.50636" lon="0.36753">
        <ele>125.6</ele>
        <time>2020-09-13T09:16:53Z</time>
      </trkpt>
      <trkpt lat="46.50637" lon="0.36756">
        <ele>125.6</ele>
        <time>2020-09-13T09:16:54Z</time>
      </trkpt>
      <trkpt lat="46.50638" lon="0.3676">
        <ele>125.6</ele>
        <time>2020-09-13T09:16:56Z</time>
      </trkpt>
      <trkpt lat="46.50639" lon="0.36768">
        <ele>126</ele>
        <time>2020-09-13T09:16:58Z</time>
      </trkpt>
      <trkpt lat="46.50636" lon="0.36781">
        <ele>126.4</ele>
        <time>2020-09-13T09:17:00Z</time>
      </trkpt>
      <trkpt lat="46.50634" lon="0.36798">
        <ele>127</ele>
        <time>2020-09-13T09:17:05Z</time>
      </trkpt>
      <trkpt lat="46.50634" lon="0.368">
        <ele>127</ele>
        <time>2020-09-13T09:17:06Z</time>
      </trkpt>
      <trkpt lat="46.50635" lon="0.36801">
        <ele>127</ele>
        <time>2020-09-13T09:17:08Z</time>
      </trkpt>
      <trkpt lat="46.50635" lon="0.36801">
        <ele>127</ele>
        <time>2020-09-13T09:17:09Z</time>
      </trkpt>
      <trkpt lat="46.50637" lon="0.36801">
        <ele>127</ele>
        <time>2020-09-13T09:17:19Z</time>
      </trkpt>
      <trkpt lat="46.50637" lon="0.36801">
        <ele>127</ele>
        <time>2020-09-13T09:17:21Z</time>
      </trkpt>
      <trkpt lat="46.50637" lon="0.36801">
        <ele>127</ele>
        <time>2020-09-13T09:17:35Z</time>
      </trkpt>
      <trkpt lat="46.50637" lon="0.36801">
        <ele>127</ele>
        <time>2020-09-13T09:17:56Z</time>
      </trkpt>
      <trkpt lat="46.50637" lon="0.36801">
        <ele>127.2</ele>
        <time>2020-09-13T09:18:17Z</time>
      </trkpt>
      <trkpt lat="46.50637" lon="0.36801">
        <ele>127.2</ele>
        <time>2020-09-13T09:18:40Z</time>
      </trkpt>
      <trkpt lat="46.50637" lon="0.36801">
        <ele>127.2</ele>
        <time>2020-09-13T09:19:01Z</time>
      </trkpt>
      <trkpt lat="46.50637" lon="0.36801">
        <ele>127.2</ele>
        <time>2020-09-13T09:19:15Z</time>
      </trkpt>
      <trkpt lat="46.50637" lon="0.368">
        <ele>127.2</ele>
        <time>2020-09-13T09:19:27Z</time>
      </trkpt>
      <trkpt lat="46.50637" lon="0.36801">
        <ele>127.2</ele>
        <time>2020-09-13T09:19:50Z</time>
      </trkpt>
      <trkpt lat="46.50637" lon="0.36801">
        <ele>127.2</ele>
        <time>2020-09-13T09:20:39Z</time>
      </trkpt>
      <trkpt lat="46.50638" lon="0.36791">
        <ele>127.2</ele>
        <time>2020-09-13T09:20:56Z</time>
      </trkpt>
      <trkpt lat="46.50641" lon="0.36771">
        <ele>127.2</ele>
        <time>2020-09-13T09:21:01Z</time>
      </trkpt>
      <trkpt lat="46.50645" lon="0.36761">
        <ele>127.2</ele>
        <time>2020-09-13T09:21:02Z</time>
      </trkpt>
      <trkpt lat="46.50652" lon="0.36757">
        <ele>126.8</ele>
        <time>2020-09-13T09:21:04Z</time>
      </trkpt>
      <trkpt lat="46.50667" lon="0.36756">
        <ele>126.6</ele>
        <time>2020-09-13T09:21:08Z</time>
      </trkpt>
      <trkpt lat="46.50671" lon="0.36757">
        <ele>126.6</ele>
        <time>2020-09-13T09:21:09Z</time>
      </trkpt>
      <trkpt lat="46.50681" lon="0.36759">
        <ele>126.6</ele>
        <time>2020-09-13T09:21:11Z</time>
      </trkpt>
      <trkpt lat="46.50698" lon="0.36767">
        <ele>126.6</ele>
        <time>2020-09-13T09:21:15Z</time>
      </trkpt>
      <trkpt lat="46.50707" lon="0.36771">
        <ele>126.8</ele>
        <time>2020-09-13T09:21:17Z</time>
      </trkpt>
      <trkpt lat="46.50725" lon="0.36774">
        <ele>127.2</ele>
        <time>2020-09-13T09:21:21Z</time>
      </trkpt>
      <trkpt lat="46.50738" lon="0.36773">
        <ele>127.4</ele>
        <time>2020-09-13T09:21:24Z</time>
      </trkpt>
      <trkpt lat="46.50758" lon="0.36773">
        <ele>127.4</ele>
        <time>2020-09-13T09:21:28Z</time>
      </trkpt>
      <trkpt lat="46.50793" lon="0.36772">
        <ele>126.8</ele>
        <time>2020-09-13T09:21:34Z</time>
      </trkpt>
      <trkpt lat="46.50799" lon="0.36773">
        <ele>126.6</ele>
        <time>2020-09-13T09:21:35Z</time>
      </trkpt>
      <trkpt lat="46.50814" lon="0.36778">
        <ele>126.6</ele>
        <time>2020-09-13T09:21:37Z</time>
      </trkpt>
      <trkpt lat="46.50819" lon="0.36782">
        <ele>126.6</ele>
        <time>2020-09-13T09:21:38Z</time>
      </trkpt>
      <trkpt lat="46.50824" lon="0.36786">
        <ele>126.6</ele>
        <time>2020-09-13T09:21:39Z</time>
      </trkpt>
      <trkpt lat="46.50834" lon="0.36801">
        <ele>127</ele>
        <time>2020-09-13T09:21:42Z</time>
      </trkpt>
      <trkpt lat="46.50839" lon="0.36805">
        <ele>127.2</ele>
        <time>2020-09-13T09:21:43Z</time>
      </trkpt>
      <trkpt lat="46.50847" lon="0.36809">
        <ele>127.8</ele>
        <time>2020-09-13T09:21:45Z</time>
      </trkpt>
      <trkpt lat="46.5085" lon="0.3681">
        <ele>127.8</ele>
        <time>2020-09-13T09:21:46Z</time>
      </trkpt>
      <trkpt lat="46.50863" lon="0.36813">
        <ele>127.8</ele>
        <time>2020-09-13T09:21:49Z</time>
      </trkpt>
      <trkpt lat="46.5087" lon="0.36818">
        <ele>127.8</ele>
        <time>2020-09-13T09:21:51Z</time>
      </trkpt>
      <trkpt lat="46.50889" lon="0.36829">
        <ele>127.8</ele>
        <time>2020-09-13T09:21:55Z</time>
      </trkpt>
      <trkpt lat="46.50901" lon="0.3684">
        <ele>128</ele>
        <time>2020-09-13T09:21:58Z</time>
      </trkpt>
      <trkpt lat="46.50914" lon="0.36853">
        <ele>128.2</ele>
        <time>2020-09-13T09:22:01Z</time>
      </trkpt>
      <trkpt lat="46.50917" lon="0.36859">
        <ele>128.4</ele>
        <time>2020-09-13T09:22:02Z</time>
      </trkpt>
      <trkpt lat="46.50921" lon="0.36864">
        <ele>128.6</ele>
        <time>2020-09-13T09:22:03Z</time>
      </trkpt>
      <trkpt lat="46.50927" lon="0.36874">
        <ele>128.6</ele>
        <time>2020-09-13T09:22:05Z</time>
      </trkpt>
      <trkpt lat="46.50936" lon="0.36887">
        <ele>128.6</ele>
        <time>2020-09-13T09:22:07Z</time>
      </trkpt>
      <trkpt lat="46.50939" lon="0.36894">
        <ele>128.8</ele>
        <time>2020-09-13T09:22:08Z</time>
      </trkpt>
      <trkpt lat="46.50945" lon="0.36905">
        <ele>128.8</ele>
        <time>2020-09-13T09:22:10Z</time>
      </trkpt>
      <trkpt lat="46.50952" lon="0.36916">
        <ele>129</ele>
        <time>2020-09-13T09:22:12Z</time>
      </trkpt>
      <trkpt lat="46.50955" lon="0.36923">
        <ele>129</ele>
        <time>2020-09-13T09:22:13Z</time>
      </trkpt>
      <trkpt lat="46.50967" lon="0.36939">
        <ele>129</ele>
        <time>2020-09-13T09:22:16Z</time>
      </trkpt>
      <trkpt lat="46.50976" lon="0.36949">
        <ele>129</ele>
        <time>2020-09-13T09:22:18Z</time>
      </trkpt>
      <trkpt lat="46.50994" lon="0.36969">
        <ele>129</ele>
        <time>2020-09-13T09:22:22Z</time>
      </trkpt>
      <trkpt lat="46.51007" lon="0.3699">
        <ele>129.2</ele>
        <time>2020-09-13T09:22:25Z</time>
      </trkpt>
      <trkpt lat="46.51025" lon="0.37022">
        <ele>129.2</ele>
        <time>2020-09-13T09:22:30Z</time>
      </trkpt>
      <trkpt lat="46.51028" lon="0.37027">
        <ele>129.2</ele>
        <time>2020-09-13T09:22:31Z</time>
      </trkpt>
      <trkpt lat="46.51034" lon="0.37039">
        <ele>129</ele>
        <time>2020-09-13T09:22:33Z</time>
      </trkpt>
      <trkpt lat="46.51041" lon="0.37045">
        <ele>129</ele>
        <time>2020-09-13T09:22:35Z</time>
      </trkpt>
      <trkpt lat="46.51048" lon="0.37047">
        <ele>129</ele>
        <time>2020-09-13T09:22:37Z</time>
      </trkpt>
      <trkpt lat="46.51061" lon="0.37055">
        <ele>128.8</ele>
        <time>2020-09-13T09:22:40Z</time>
      </trkpt>
      <trkpt lat="46.51067" lon="0.37056">
        <ele>128.8</ele>
        <time>2020-09-13T09:22:41Z</time>
      </trkpt>
      <trkpt lat="46.51071" lon="0.37057">
        <ele>128.8</ele>
        <time>2020-09-13T09:22:42Z</time>
      </trkpt>
      <trkpt lat="46.51079" lon="0.37055">
        <ele>128.8</ele>
        <time>2020-09-13T09:22:44Z</time>
      </trkpt>
      <trkpt lat="46.51083" lon="0.37056">
        <ele>128.8</ele>
        <time>2020-09-13T09:22:45Z</time>
      </trkpt>
      <trkpt lat="46.51088" lon="0.37056">
        <ele>128.6</ele>
        <time>2020-09-13T09:22:46Z</time>
      </trkpt>
      <trkpt lat="46.511" lon="0.37054">
        <ele>128.4</ele>
        <time>2020-09-13T09:22:49Z</time>
      </trkpt>
      <trkpt lat="46.51104" lon="0.37055">
        <ele>128.2</ele>
        <time>2020-09-13T09:22:50Z</time>
      </trkpt>
      <trkpt lat="46.51111" lon="0.37058">
        <ele>128</ele>
        <time>2020-09-13T09:22:52Z</time>
      </trkpt>
      <trkpt lat="46.51114" lon="0.37056">
        <ele>127.4</ele>
        <time>2020-09-13T09:22:54Z</time>
      </trkpt>
      <trkpt lat="46.51118" lon="0.37039">
        <ele>127</ele>
        <time>2020-09-13T09:22:58Z</time>
      </trkpt>
      <trkpt lat="46.51119" lon="0.37036">
        <ele>127</ele>
        <time>2020-09-13T09:22:59Z</time>
      </trkpt>
      <trkpt lat="46.51125" lon="0.37032">
        <ele>127.2</ele>
        <time>2020-09-13T09:23:01Z</time>
      </trkpt>
      <trkpt lat="46.5114" lon="0.37031">
        <ele>126.8</ele>
        <time>2020-09-13T09:23:05Z</time>
      </trkpt>
      <trkpt lat="46.51148" lon="0.37031">
        <ele>126.6</ele>
        <time>2020-09-13T09:23:07Z</time>
      </trkpt>
      <trkpt lat="46.51156" lon="0.37029">
        <ele>126.2</ele>
        <time>2020-09-13T09:23:09Z</time>
      </trkpt>
      <trkpt lat="46.51162" lon="0.37027">
        <ele>126</ele>
        <time>2020-09-13T09:23:10Z</time>
      </trkpt>
      <trkpt lat="46.51168" lon="0.37024">
        <ele>125.8</ele>
        <time>2020-09-13T09:23:12Z</time>
      </trkpt>
      <trkpt lat="46.51172" lon="0.37016">
        <ele>125.2</ele>
        <time>2020-09-13T09:23:14Z</time>
      </trkpt>
      <trkpt lat="46.51175" lon="0.37013">
        <ele>125</ele>
        <time>2020-09-13T09:23:15Z</time>
      </trkpt>
      <trkpt lat="46.51176" lon="0.37011">
        <ele>124.8</ele>
        <time>2020-09-13T09:23:16Z</time>
      </trkpt>
      <trkpt lat="46.51182" lon="0.37008">
        <ele>124.4</ele>
        <time>2020-09-13T09:23:18Z</time>
      </trkpt>
      <trkpt lat="46.51193" lon="0.37004">
        <ele>124.2</ele>
        <time>2020-09-13T09:23:21Z</time>
      </trkpt>
      <trkpt lat="46.51203" lon="0.37001">
        <ele>124.4</ele>
        <time>2020-09-13T09:23:23Z</time>
      </trkpt>
      <trkpt lat="46.5121" lon="0.36996">
        <ele>124.4</ele>
        <time>2020-09-13T09:23:25Z</time>
      </trkpt>
      <trkpt lat="46.51221" lon="0.36988">
        <ele>123.8</ele>
        <time>2020-09-13T09:23:28Z</time>
      </trkpt>
      <trkpt lat="46.5123" lon="0.36981">
        <ele>123.4</ele>
        <time>2020-09-13T09:23:30Z</time>
      </trkpt>
      <trkpt lat="46.5124" lon="0.36978">
        <ele>123</ele>
        <time>2020-09-13T09:23:32Z</time>
      </trkpt>
      <trkpt lat="46.51247" lon="0.36976">
        <ele>122.8</ele>
        <time>2020-09-13T09:23:33Z</time>
      </trkpt>
      <trkpt lat="46.51254" lon="0.36974">
        <ele>122.4</ele>
        <time>2020-09-13T09:23:35Z</time>
      </trkpt>
      <trkpt lat="46.51258" lon="0.36973">
        <ele>122</ele>
        <time>2020-09-13T09:23:36Z</time>
      </trkpt>
      <trkpt lat="46.51261" lon="0.3697">
        <ele>121.8</ele>
        <time>2020-09-13T09:23:37Z</time>
      </trkpt>
      <trkpt lat="46.51268" lon="0.36968">
        <ele>121.6</ele>
        <time>2020-09-13T09:23:39Z</time>
      </trkpt>
      <trkpt lat="46.51272" lon="0.36969">
        <ele>121.4</ele>
        <time>2020-09-13T09:23:40Z</time>
      </trkpt>
      <trkpt lat="46.51278" lon="0.36971">
        <ele>121.4</ele>
        <time>2020-09-13T09:23:41Z</time>
      </trkpt>
      <trkpt lat="46.51288" lon="0.36976">
        <ele>121.6</ele>
        <time>2020-09-13T09:23:43Z</time>
      </trkpt>
      <trkpt lat="46.51295" lon="0.36978">
        <ele>121.4</ele>
        <time>2020-09-13T09:23:44Z</time>
      </trkpt>
      <trkpt lat="46.51302" lon="0.36978">
        <ele>121.2</ele>
        <time>2020-09-13T09:23:45Z</time>
      </trkpt>
      <trkpt lat="46.51311" lon="0.36978">
        <ele>120.8</ele>
        <time>2020-09-13T09:23:47Z</time>
      </trkpt>
      <trkpt lat="46.51316" lon="0.36979">
        <ele>120.2</ele>
        <time>2020-09-13T09:23:48Z</time>
      </trkpt>
      <trkpt lat="46.51321" lon="0.36981">
        <ele>119.4</ele>
        <time>2020-09-13T09:23:49Z</time>
      </trkpt>
      <trkpt lat="46.51323" lon="0.36984">
        <ele>118.6</ele>
        <time>2020-09-13T09:23:50Z</time>
      </trkpt>
      <trkpt lat="46.51327" lon="0.36986">
        <ele>118</ele>
        <time>2020-09-13T09:23:51Z</time>
      </trkpt>
      <trkpt lat="46.51331" lon="0.36988">
        <ele>117.4</ele>
        <time>2020-09-13T09:23:52Z</time>
      </trkpt>
      <trkpt lat="46.51339" lon="0.36991">
        <ele>116.4</ele>
        <time>2020-09-13T09:23:54Z</time>
      </trkpt>
      <trkpt lat="46.51343" lon="0.36993">
        <ele>115.8</ele>
        <time>2020-09-13T09:23:55Z</time>
      </trkpt>
      <trkpt lat="46.51346" lon="0.36994">
        <ele>115.4</ele>
        <time>2020-09-13T09:23:56Z</time>
      </trkpt>
      <trkpt lat="46.51364" lon="0.36999">
        <ele>114</ele>
        <time>2020-09-13T09:24:01Z</time>
      </trkpt>
      <trkpt lat="46.51372" lon="0.37003">
        <ele>113</ele>
        <time>2020-09-13T09:24:03Z</time>
      </trkpt>
      <trkpt lat="46.5138" lon="0.37008">
        <ele>111.4</ele>
        <time>2020-09-13T09:24:05Z</time>
      </trkpt>
      <trkpt lat="46.51384" lon="0.3701">
        <ele>110.4</ele>
        <time>2020-09-13T09:24:06Z</time>
      </trkpt>
      <trkpt lat="46.51388" lon="0.37013">
        <ele>109.4</ele>
        <time>2020-09-13T09:24:07Z</time>
      </trkpt>
      <trkpt lat="46.51396" lon="0.37018">
        <ele>108</ele>
        <time>2020-09-13T09:24:09Z</time>
      </trkpt>
      <trkpt lat="46.514" lon="0.37021">
        <ele>107.2</ele>
        <time>2020-09-13T09:24:10Z</time>
      </trkpt>
      <trkpt lat="46.51405" lon="0.37025">
        <ele>106.6</ele>
        <time>2020-09-13T09:24:11Z</time>
      </trkpt>
      <trkpt lat="46.51409" lon="0.37028">
        <ele>105.8</ele>
        <time>2020-09-13T09:24:12Z</time>
      </trkpt>
      <trkpt lat="46.51413" lon="0.37028">
        <ele>105</ele>
        <time>2020-09-13T09:24:13Z</time>
      </trkpt>
      <trkpt lat="46.51416" lon="0.37028">
        <ele>104</ele>
        <time>2020-09-13T09:24:14Z</time>
      </trkpt>
      <trkpt lat="46.51419" lon="0.37029">
        <ele>103.2</ele>
        <time>2020-09-13T09:24:15Z</time>
      </trkpt>
      <trkpt lat="46.51427" lon="0.37034">
        <ele>102.4</ele>
        <time>2020-09-13T09:24:17Z</time>
      </trkpt>
      <trkpt lat="46.51429" lon="0.37035">
        <ele>102.2</ele>
        <time>2020-09-13T09:24:18Z</time>
      </trkpt>
      <trkpt lat="46.51433" lon="0.3703">
        <ele>101.2</ele>
        <time>2020-09-13T09:24:20Z</time>
      </trkpt>
      <trkpt lat="46.51435" lon="0.37026">
        <ele>101</ele>
        <time>2020-09-13T09:24:21Z</time>
      </trkpt>
      <trkpt lat="46.51441" lon="0.37015">
        <ele>100.4</ele>
        <time>2020-09-13T09:24:24Z</time>
      </trkpt>
      <trkpt lat="46.51443" lon="0.3701">
        <ele>100.2</ele>
        <time>2020-09-13T09:24:25Z</time>
      </trkpt>
      <trkpt lat="46.51443" lon="0.3701">
        <ele>99.8</ele>
        <time>2020-09-13T09:24:26Z</time>
      </trkpt>
      <trkpt lat="46.51448" lon="0.37">
        <ele>99.4</ele>
        <time>2020-09-13T09:24:28Z</time>
      </trkpt>
      <trkpt lat="46.51452" lon="0.36998">
        <ele>98.4</ele>
        <time>2020-09-13T09:24:30Z</time>
      </trkpt>
      <trkpt lat="46.51457" lon="0.36994">
        <ele>97.4</ele>
        <time>2020-09-13T09:24:32Z</time>
      </trkpt>
      <trkpt lat="46.5146" lon="0.36993">
        <ele>96.2</ele>
        <time>2020-09-13T09:24:33Z</time>
      </trkpt>
      <trkpt lat="46.51462" lon="0.36993">
        <ele>95</ele>
        <time>2020-09-13T09:24:34Z</time>
      </trkpt>
      <trkpt lat="46.51463" lon="0.36995">
        <ele>93.6</ele>
        <time>2020-09-13T09:24:36Z</time>
      </trkpt>
      <trkpt lat="46.51468" lon="0.36999">
        <ele>93.2</ele>
        <time>2020-09-13T09:24:39Z</time>
      </trkpt>
      <trkpt lat="46.51476" lon="0.37014">
        <ele>93.8</ele>
        <time>2020-09-13T09:24:46Z</time>
      </trkpt>
      <trkpt lat="46.51486" lon="0.37035">
        <ele>94.2</ele>
        <time>2020-09-13T09:24:51Z</time>
      </trkpt>
      <trkpt lat="46.51492" lon="0.37043">
        <ele>94.2</ele>
        <time>2020-09-13T09:24:53Z</time>
      </trkpt>
      <trkpt lat="46.51495" lon="0.37051">
        <ele>94.2</ele>
        <time>2020-09-13T09:24:55Z</time>
      </trkpt>
      <trkpt lat="46.51497" lon="0.37055">
        <ele>94.2</ele>
        <time>2020-09-13T09:24:56Z</time>
      </trkpt>
      <trkpt lat="46.51498" lon="0.3707">
        <ele>94.6</ele>
        <time>2020-09-13T09:25:00Z</time>
      </trkpt>
      <trkpt lat="46.51497" lon="0.37072">
        <ele>94.8</ele>
        <time>2020-09-13T09:25:01Z</time>
      </trkpt>
      <trkpt lat="46.51495" lon="0.37078">
        <ele>96</ele>
        <time>2020-09-13T09:25:04Z</time>
      </trkpt>
      <trkpt lat="46.51488" lon="0.37085">
        <ele>97</ele>
        <time>2020-09-13T09:25:09Z</time>
      </trkpt>
      <trkpt lat="46.51487" lon="0.37086">
        <ele>97.4</ele>
        <time>2020-09-13T09:25:10Z</time>
      </trkpt>
      <trkpt lat="46.51482" lon="0.37089">
        <ele>98.4</ele>
        <time>2020-09-13T09:25:13Z</time>
      </trkpt>
      <trkpt lat="46.51477" lon="0.37091">
        <ele>99.6</ele>
        <time>2020-09-13T09:25:16Z</time>
      </trkpt>
      <trkpt lat="46.51476" lon="0.37091">
        <ele>99.8</ele>
        <time>2020-09-13T09:25:17Z</time>
      </trkpt>
      <trkpt lat="46.51473" lon="0.37093">
        <ele>100.2</ele>
        <time>2020-09-13T09:25:19Z</time>
      </trkpt>
      <trkpt lat="46.51472" lon="0.37094">
        <ele>100.6</ele>
        <time>2020-09-13T09:25:20Z</time>
      </trkpt>
      <trkpt lat="46.51469" lon="0.37098">
        <ele>101.8</ele>
        <time>2020-09-13T09:25:23Z</time>
      </trkpt>
      <trkpt lat="46.51465" lon="0.37105">
        <ele>102.8</ele>
        <time>2020-09-13T09:25:27Z</time>
      </trkpt>
      <trkpt lat="46.5146" lon="0.37112">
        <ele>104</ele>
        <time>2020-09-13T09:25:32Z</time>
      </trkpt>
      <trkpt lat="46.51458" lon="0.37117">
        <ele>105</ele>
        <time>2020-09-13T09:25:35Z</time>
      </trkpt>
      <trkpt lat="46.51456" lon="0.37125">
        <ele>105.8</ele>
        <time>2020-09-13T09:25:39Z</time>
      </trkpt>
      <trkpt lat="46.51455" lon="0.37127">
        <ele>106</ele>
        <time>2020-09-13T09:25:40Z</time>
      </trkpt>
      <trkpt lat="46.51451" lon="0.37136">
        <ele>107.2</ele>
        <time>2020-09-13T09:25:45Z</time>
      </trkpt>
      <trkpt lat="46.51451" lon="0.37137">
        <ele>107.4</ele>
        <time>2020-09-13T09:25:46Z</time>
      </trkpt>
      <trkpt lat="46.51449" lon="0.37142">
        <ele>107.8</ele>
        <time>2020-09-13T09:25:48Z</time>
      </trkpt>
      <trkpt lat="46.51448" lon="0.37147">
        <ele>108.2</ele>
        <time>2020-09-13T09:25:50Z</time>
      </trkpt>
      <trkpt lat="46.51446" lon="0.37154">
        <ele>108.8</ele>
        <time>2020-09-13T09:25:53Z</time>
      </trkpt>
      <trkpt lat="46.51445" lon="0.37158">
        <ele>109</ele>
        <time>2020-09-13T09:25:55Z</time>
      </trkpt>
      <trkpt lat="46.51444" lon="0.37161">
        <ele>109.4</ele>
        <time>2020-09-13T09:25:57Z</time>
      </trkpt>
      <trkpt lat="46.51442" lon="0.37164">
        <ele>109.8</ele>
        <time>2020-09-13T09:25:59Z</time>
      </trkpt>
      <trkpt lat="46.51442" lon="0.37165">
        <ele>110</ele>
        <time>2020-09-13T09:26:00Z</time>
      </trkpt>
      <trkpt lat="46.51441" lon="0.37169">
        <ele>110.4</ele>
        <time>2020-09-13T09:26:02Z</time>
      </trkpt>
      <trkpt lat="46.51439" lon="0.37175">
        <ele>111.2</ele>
        <time>2020-09-13T09:26:06Z</time>
      </trkpt>
      <trkpt lat="46.51438" lon="0.37177">
        <ele>111.6</ele>
        <time>2020-09-13T09:26:08Z</time>
      </trkpt>
      <trkpt lat="46.51435" lon="0.37183">
        <ele>112.4</ele>
        <time>2020-09-13T09:26:12Z</time>
      </trkpt>
      <trkpt lat="46.51433" lon="0.37187">
        <ele>112.8</ele>
        <time>2020-09-13T09:26:15Z</time>
      </trkpt>
      <trkpt lat="46.51429" lon="0.37196">
        <ele>114</ele>
        <time>2020-09-13T09:26:19Z</time>
      </trkpt>
      <trkpt lat="46.51426" lon="0.37201">
        <ele>114.2</ele>
        <time>2020-09-13T09:26:22Z</time>
      </trkpt>
      <trkpt lat="46.51423" lon="0.37212">
        <ele>115</ele>
        <time>2020-09-13T09:26:27Z</time>
      </trkpt>
      <trkpt lat="46.5142" lon="0.37224">
        <ele>116</ele>
        <time>2020-09-13T09:26:31Z</time>
      </trkpt>
      <trkpt lat="46.5142" lon="0.37228">
        <ele>116.2</ele>
        <time>2020-09-13T09:26:32Z</time>
      </trkpt>
      <trkpt lat="46.51418" lon="0.37245">
        <ele>116.8</ele>
        <time>2020-09-13T09:26:37Z</time>
      </trkpt>
      <trkpt lat="46.51417" lon="0.37252">
        <ele>117.2</ele>
        <time>2020-09-13T09:26:39Z</time>
      </trkpt>
      <trkpt lat="46.51416" lon="0.37266">
        <ele>117.6</ele>
        <time>2020-09-13T09:26:43Z</time>
      </trkpt>
      <trkpt lat="46.51416" lon="0.37286">
        <ele>118.2</ele>
        <time>2020-09-13T09:26:48Z</time>
      </trkpt>
      <trkpt lat="46.51416" lon="0.3729">
        <ele>118.4</ele>
        <time>2020-09-13T09:26:49Z</time>
      </trkpt>
      <trkpt lat="46.51411" lon="0.373">
        <ele>118.6</ele>
        <time>2020-09-13T09:26:52Z</time>
      </trkpt>
      <trkpt lat="46.51405" lon="0.37307">
        <ele>119.6</ele>
        <time>2020-09-13T09:26:55Z</time>
      </trkpt>
      <trkpt lat="46.51395" lon="0.37318">
        <ele>120.6</ele>
        <time>2020-09-13T09:26:59Z</time>
      </trkpt>
      <trkpt lat="46.51392" lon="0.37319">
        <ele>120.8</ele>
        <time>2020-09-13T09:27:00Z</time>
      </trkpt>
      <trkpt lat="46.51379" lon="0.37326">
        <ele>121.6</ele>
        <time>2020-09-13T09:27:05Z</time>
      </trkpt>
      <trkpt lat="46.51377" lon="0.37327">
        <ele>121.8</ele>
        <time>2020-09-13T09:27:06Z</time>
      </trkpt>
      <trkpt lat="46.51366" lon="0.37332">
        <ele>122.8</ele>
        <time>2020-09-13T09:27:11Z</time>
      </trkpt>
      <trkpt lat="46.51347" lon="0.37339">
        <ele>123.6</ele>
        <time>2020-09-13T09:27:18Z</time>
      </trkpt>
      <trkpt lat="46.51338" lon="0.37343">
        <ele>124</ele>
        <time>2020-09-13T09:27:21Z</time>
      </trkpt>
      <trkpt lat="46.51327" lon="0.37353">
        <ele>124.8</ele>
        <time>2020-09-13T09:27:25Z</time>
      </trkpt>
      <trkpt lat="46.51324" lon="0.37355">
        <ele>125</ele>
        <time>2020-09-13T09:27:26Z</time>
      </trkpt>
      <trkpt lat="46.51308" lon="0.37365">
        <ele>125.2</ele>
        <time>2020-09-13T09:27:31Z</time>
      </trkpt>
      <trkpt lat="46.51291" lon="0.37375">
        <ele>125.6</ele>
        <time>2020-09-13T09:27:36Z</time>
      </trkpt>
      <trkpt lat="46.51272" lon="0.37385">
        <ele>125.6</ele>
        <time>2020-09-13T09:27:41Z</time>
      </trkpt>
      <trkpt lat="46.51265" lon="0.37389">
        <ele>125.6</ele>
        <time>2020-09-13T09:27:43Z</time>
      </trkpt>
      <trkpt lat="46.51255" lon="0.37393">
        <ele>125.8</ele>
        <time>2020-09-13T09:27:46Z</time>
      </trkpt>
      <trkpt lat="46.51247" lon="0.37395">
        <ele>126.2</ele>
        <time>2020-09-13T09:27:48Z</time>
      </trkpt>
      <trkpt lat="46.51236" lon="0.37401">
        <ele>126.6</ele>
        <time>2020-09-13T09:27:51Z</time>
      </trkpt>
      <trkpt lat="46.51228" lon="0.37406">
        <ele>126.8</ele>
        <time>2020-09-13T09:27:53Z</time>
      </trkpt>
      <trkpt lat="46.51216" lon="0.37411">
        <ele>127</ele>
        <time>2020-09-13T09:27:56Z</time>
      </trkpt>
      <trkpt lat="46.51212" lon="0.37413">
        <ele>127.2</ele>
        <time>2020-09-13T09:27:57Z</time>
      </trkpt>
      <trkpt lat="46.51205" lon="0.37419">
        <ele>127.2</ele>
        <time>2020-09-13T09:27:59Z</time>
      </trkpt>
      <trkpt lat="46.512" lon="0.37426">
        <ele>127.2</ele>
        <time>2020-09-13T09:28:01Z</time>
      </trkpt>
      <trkpt lat="46.51196" lon="0.37433">
        <ele>127.2</ele>
        <time>2020-09-13T09:28:03Z</time>
      </trkpt>
      <trkpt lat="46.51197" lon="0.37442">
        <ele>127.2</ele>
        <time>2020-09-13T09:28:05Z</time>
      </trkpt>
      <trkpt lat="46.51202" lon="0.37446">
        <ele>127.2</ele>
        <time>2020-09-13T09:28:07Z</time>
      </trkpt>
      <trkpt lat="46.51208" lon="0.37448">
        <ele>127.2</ele>
        <time>2020-09-13T09:28:09Z</time>
      </trkpt>
      <trkpt lat="46.51211" lon="0.37449">
        <ele>127.2</ele>
        <time>2020-09-13T09:28:10Z</time>
      </trkpt>
      <trkpt lat="46.51222" lon="0.3745">
        <ele>127.2</ele>
        <time>2020-09-13T09:28:13Z</time>
      </trkpt>
      <trkpt lat="46.51229" lon="0.37455">
        <ele>126.8</ele>
        <time>2020-09-13T09:28:15Z</time>
      </trkpt>
      <trkpt lat="46.51236" lon="0.37461">
        <ele>126.4</ele>
        <time>2020-09-13T09:28:17Z</time>
      </trkpt>
      <trkpt lat="46.51244" lon="0.37468">
        <ele>126.2</ele>
        <time>2020-09-13T09:28:19Z</time>
      </trkpt>
      <trkpt lat="46.51264" lon="0.37482">
        <ele>125.6</ele>
        <time>2020-09-13T09:28:24Z</time>
      </trkpt>
      <trkpt lat="46.51276" lon="0.37488">
        <ele>125.2</ele>
        <time>2020-09-13T09:28:26Z</time>
      </trkpt>
      <trkpt lat="46.51287" lon="0.37492">
        <ele>124.6</ele>
        <time>2020-09-13T09:28:28Z</time>
      </trkpt>
      <trkpt lat="46.51299" lon="0.37496">
        <ele>124.2</ele>
        <time>2020-09-13T09:28:30Z</time>
      </trkpt>
      <trkpt lat="46.51311" lon="0.375">
        <ele>123.6</ele>
        <time>2020-09-13T09:28:32Z</time>
      </trkpt>
      <trkpt lat="46.51325" lon="0.37504">
        <ele>123.4</ele>
        <time>2020-09-13T09:28:34Z</time>
      </trkpt>
      <trkpt lat="46.51331" lon="0.37508">
        <ele>123</ele>
        <time>2020-09-13T09:28:35Z</time>
      </trkpt>
      <trkpt lat="46.51337" lon="0.37512">
        <ele>122.8</ele>
        <time>2020-09-13T09:28:36Z</time>
      </trkpt>
      <trkpt lat="46.51342" lon="0.37513">
        <ele>122.6</ele>
        <time>2020-09-13T09:28:37Z</time>
      </trkpt>
      <trkpt lat="46.51347" lon="0.37515">
        <ele>122</ele>
        <time>2020-09-13T09:28:38Z</time>
      </trkpt>
      <trkpt lat="46.51355" lon="0.37518">
        <ele>121.2</ele>
        <time>2020-09-13T09:28:40Z</time>
      </trkpt>
      <trkpt lat="46.51359" lon="0.37518">
        <ele>121</ele>
        <time>2020-09-13T09:28:41Z</time>
      </trkpt>
      <trkpt lat="46.51364" lon="0.37517">
        <ele>121</ele>
        <time>2020-09-13T09:28:42Z</time>
      </trkpt>
      <trkpt lat="46.51374" lon="0.37516">
        <ele>120.6</ele>
        <time>2020-09-13T09:28:44Z</time>
      </trkpt>
      <trkpt lat="46.51378" lon="0.37518">
        <ele>120.2</ele>
        <time>2020-09-13T09:28:45Z</time>
      </trkpt>
      <trkpt lat="46.51383" lon="0.3752">
        <ele>119.8</ele>
        <time>2020-09-13T09:28:46Z</time>
      </trkpt>
      <trkpt lat="46.51392" lon="0.37525">
        <ele>119.6</ele>
        <time>2020-09-13T09:28:48Z</time>
      </trkpt>
      <trkpt lat="46.51394" lon="0.37524">
        <ele>119.6</ele>
        <time>2020-09-13T09:28:49Z</time>
      </trkpt>
      <trkpt lat="46.51396" lon="0.37514">
        <ele>119.2</ele>
        <time>2020-09-13T09:28:52Z</time>
      </trkpt>
      <trkpt lat="46.51398" lon="0.37511">
        <ele>119.2</ele>
        <time>2020-09-13T09:28:53Z</time>
      </trkpt>
      <trkpt lat="46.51401" lon="0.37495">
        <ele>119.4</ele>
        <time>2020-09-13T09:28:56Z</time>
      </trkpt>
      <trkpt lat="46.51407" lon="0.37469">
        <ele>119.8</ele>
        <time>2020-09-13T09:29:00Z</time>
      </trkpt>
      <trkpt lat="46.51409" lon="0.37464">
        <ele>119.6</ele>
        <time>2020-09-13T09:29:01Z</time>
      </trkpt>
      <trkpt lat="46.51414" lon="0.3746">
        <ele>119.2</ele>
        <time>2020-09-13T09:29:02Z</time>
      </trkpt>
      <trkpt lat="46.51419" lon="0.37457">
        <ele>118.6</ele>
        <time>2020-09-13T09:29:03Z</time>
      </trkpt>
      <trkpt lat="46.51425" lon="0.37455">
        <ele>118</ele>
        <time>2020-09-13T09:29:04Z</time>
      </trkpt>
      <trkpt lat="46.51431" lon="0.37455">
        <ele>117.4</ele>
        <time>2020-09-13T09:29:05Z</time>
      </trkpt>
      <trkpt lat="46.51436" lon="0.37455">
        <ele>116.8</ele>
        <time>2020-09-13T09:29:06Z</time>
      </trkpt>
      <trkpt lat="46.51443" lon="0.37453">
        <ele>116.2</ele>
        <time>2020-09-13T09:29:08Z</time>
      </trkpt>
      <trkpt lat="46.51454" lon="0.37447">
        <ele>115.8</ele>
        <time>2020-09-13T09:29:10Z</time>
      </trkpt>
      <trkpt lat="46.51458" lon="0.37446">
        <ele>115.4</ele>
        <time>2020-09-13T09:29:11Z</time>
      </trkpt>
      <trkpt lat="46.51461" lon="0.37447">
        <ele>115</ele>
        <time>2020-09-13T09:29:12Z</time>
      </trkpt>
      <trkpt lat="46.51471" lon="0.37449">
        <ele>113.8</ele>
        <time>2020-09-13T09:29:14Z</time>
      </trkpt>
      <trkpt lat="46.51475" lon="0.37451">
        <ele>113.6</ele>
        <time>2020-09-13T09:29:15Z</time>
      </trkpt>
      <trkpt lat="46.51484" lon="0.37457">
        <ele>113.2</ele>
        <time>2020-09-13T09:29:18Z</time>
      </trkpt>
      <trkpt lat="46.51486" lon="0.37458">
        <ele>113.4</ele>
        <time>2020-09-13T09:29:19Z</time>
      </trkpt>
      <trkpt lat="46.51489" lon="0.37459">
        <ele>113.4</ele>
        <time>2020-09-13T09:29:21Z</time>
      </trkpt>
      <trkpt lat="46.51492" lon="0.37458">
        <ele>113.6</ele>
        <time>2020-09-13T09:29:23Z</time>
      </trkpt>
      <trkpt lat="46.51492" lon="0.37459">
        <ele>113.6</ele>
        <time>2020-09-13T09:29:24Z</time>
      </trkpt>
      <trkpt lat="46.51493" lon="0.37461">
        <ele>113.8</ele>
        <time>2020-09-13T09:29:27Z</time>
      </trkpt>
      <trkpt lat="46.51495" lon="0.37465">
        <ele>113.8</ele>
        <time>2020-09-13T09:29:31Z</time>
      </trkpt>
      <trkpt lat="46.51496" lon="0.37467">
        <ele>113.8</ele>
        <time>2020-09-13T09:29:33Z</time>
      </trkpt>
      <trkpt lat="46.51497" lon="0.37469">
        <ele>114</ele>
        <time>2020-09-13T09:29:34Z</time>
      </trkpt>
      <trkpt lat="46.51502" lon="0.37482">
        <ele>114.8</ele>
        <time>2020-09-13T09:29:40Z</time>
      </trkpt>
      <trkpt lat="46.51502" lon="0.37484">
        <ele>115</ele>
        <time>2020-09-13T09:29:41Z</time>
      </trkpt>
      <trkpt lat="46.51506" lon="0.37484">
        <ele>115.2</ele>
        <time>2020-09-13T09:29:44Z</time>
      </trkpt>
      <trkpt lat="46.51507" lon="0.37483">
        <ele>115.2</ele>
        <time>2020-09-13T09:29:45Z</time>
      </trkpt>
      <trkpt lat="46.51508" lon="0.37475">
        <ele>114.6</ele>
        <time>2020-09-13T09:29:49Z</time>
      </trkpt>
      <trkpt lat="46.51514" lon="0.37473">
        <ele>114.4</ele>
        <time>2020-09-13T09:29:52Z</time>
      </trkpt>
      <trkpt lat="46.51514" lon="0.3747">
        <ele>114.4</ele>
        <time>2020-09-13T09:29:53Z</time>
      </trkpt>
      <trkpt lat="46.51517" lon="0.37464">
        <ele>114.2</ele>
        <time>2020-09-13T09:29:55Z</time>
      </trkpt>
      <trkpt lat="46.51522" lon="0.37464">
        <ele>114</ele>
        <time>2020-09-13T09:29:57Z</time>
      </trkpt>
      <trkpt lat="46.51529" lon="0.37468">
        <ele>113.2</ele>
        <time>2020-09-13T09:30:00Z</time>
      </trkpt>
      <trkpt lat="46.51529" lon="0.37468">
        <ele>112.8</ele>
        <time>2020-09-13T09:30:01Z</time>
      </trkpt>
      <trkpt lat="46.51533" lon="0.37467">
        <ele>112.8</ele>
        <time>2020-09-13T09:30:02Z</time>
      </trkpt>
      <trkpt lat="46.51536" lon="0.37461">
        <ele>112.4</ele>
        <time>2020-09-13T09:30:05Z</time>
      </trkpt>
      <trkpt lat="46.51536" lon="0.3746">
        <ele>112.4</ele>
        <time>2020-09-13T09:30:06Z</time>
      </trkpt>
      <trkpt lat="46.51536" lon="0.37459">
        <ele>112.4</ele>
        <time>2020-09-13T09:30:07Z</time>
      </trkpt>
      <trkpt lat="46.51536" lon="0.37447">
        <ele>112.2</ele>
        <time>2020-09-13T09:30:11Z</time>
      </trkpt>
      <trkpt lat="46.51537" lon="0.37444">
        <ele>112</ele>
        <time>2020-09-13T09:30:12Z</time>
      </trkpt>
      <trkpt lat="46.51535" lon="0.37441">
        <ele>111.4</ele>
        <time>2020-09-13T09:30:13Z</time>
      </trkpt>
      <trkpt lat="46.51534" lon="0.37439">
        <ele>110.6</ele>
        <time>2020-09-13T09:30:14Z</time>
      </trkpt>
      <trkpt lat="46.51532" lon="0.37437">
        <ele>110</ele>
        <time>2020-09-13T09:30:15Z</time>
      </trkpt>
      <trkpt lat="46.5153" lon="0.37436">
        <ele>109.8</ele>
        <time>2020-09-13T09:30:16Z</time>
      </trkpt>
      <trkpt lat="46.51528" lon="0.3743">
        <ele>109.4</ele>
        <time>2020-09-13T09:30:18Z</time>
      </trkpt>
      <trkpt lat="46.51527" lon="0.37427">
        <ele>109.4</ele>
        <time>2020-09-13T09:30:19Z</time>
      </trkpt>
      <trkpt lat="46.51526" lon="0.37423">
        <ele>109.2</ele>
        <time>2020-09-13T09:30:20Z</time>
      </trkpt>
      <trkpt lat="46.51527" lon="0.37421">
        <ele>108.8</ele>
        <time>2020-09-13T09:30:21Z</time>
      </trkpt>
      <trkpt lat="46.51526" lon="0.37416">
        <ele>108</ele>
        <time>2020-09-13T09:30:23Z</time>
      </trkpt>
      <trkpt lat="46.51524" lon="0.37416">
        <ele>107.6</ele>
        <time>2020-09-13T09:30:24Z</time>
      </trkpt>
      <trkpt lat="46.51521" lon="0.37414">
        <ele>107</ele>
        <time>2020-09-13T09:30:26Z</time>
      </trkpt>
      <trkpt lat="46.5152" lon="0.37415">
        <ele>106.8</ele>
        <time>2020-09-13T09:30:27Z</time>
      </trkpt>
      <trkpt lat="46.51517" lon="0.37414">
        <ele>106.8</ele>
        <time>2020-09-13T09:30:28Z</time>
      </trkpt>
      <trkpt lat="46.51517" lon="0.37414">
        <ele>107</ele>
        <time>2020-09-13T09:30:30Z</time>
      </trkpt>
      <trkpt lat="46.51516" lon="0.37411">
        <ele>107.6</ele>
        <time>2020-09-13T09:30:32Z</time>
      </trkpt>
      <trkpt lat="46.51516" lon="0.37398">
        <ele>108.2</ele>
        <time>2020-09-13T09:30:36Z</time>
      </trkpt>
      <trkpt lat="46.51517" lon="0.37395">
        <ele>107.8</ele>
        <time>2020-09-13T09:30:37Z</time>
      </trkpt>
      <trkpt lat="46.51515" lon="0.37394">
        <ele>107.2</ele>
        <time>2020-09-13T09:30:38Z</time>
      </trkpt>
      <trkpt lat="46.5151" lon="0.37392">
        <ele>106.6</ele>
        <time>2020-09-13T09:30:40Z</time>
      </trkpt>
      <trkpt lat="46.51507" lon="0.37391">
        <ele>106.4</ele>
        <time>2020-09-13T09:30:41Z</time>
      </trkpt>
      <trkpt lat="46.515" lon="0.3739">
        <ele>107.2</ele>
        <time>2020-09-13T09:30:44Z</time>
      </trkpt>
      <trkpt lat="46.51499" lon="0.37391">
        <ele>107.6</ele>
        <time>2020-09-13T09:30:45Z</time>
      </trkpt>
      <trkpt lat="46.51498" lon="0.37391">
        <ele>108</ele>
        <time>2020-09-13T09:30:46Z</time>
      </trkpt>
      <trkpt lat="46.51495" lon="0.37396">
        <ele>108.8</ele>
        <time>2020-09-13T09:30:49Z</time>
      </trkpt>
      <trkpt lat="46.51495" lon="0.374">
        <ele>109.2</ele>
        <time>2020-09-13T09:30:51Z</time>
      </trkpt>
      <trkpt lat="46.51494" lon="0.37401">
        <ele>109.4</ele>
        <time>2020-09-13T09:30:52Z</time>
      </trkpt>
      <trkpt lat="46.51493" lon="0.37402">
        <ele>109.6</ele>
        <time>2020-09-13T09:30:53Z</time>
      </trkpt>
      <trkpt lat="46.5149" lon="0.37405">
        <ele>110</ele>
        <time>2020-09-13T09:30:55Z</time>
      </trkpt>
      <trkpt lat="46.51487" lon="0.37407">
        <ele>110.6</ele>
        <time>2020-09-13T09:30:57Z</time>
      </trkpt>
      <trkpt lat="46.51483" lon="0.3741">
        <ele>111.6</ele>
        <time>2020-09-13T09:31:00Z</time>
      </trkpt>
      <trkpt lat="46.51482" lon="0.37411">
        <ele>112</ele>
        <time>2020-09-13T09:31:01Z</time>
      </trkpt>
      <trkpt lat="46.51479" lon="0.37411">
        <ele>112.8</ele>
        <time>2020-09-13T09:31:03Z</time>
      </trkpt>
      <trkpt lat="46.5147" lon="0.3741">
        <ele>114</ele>
        <time>2020-09-13T09:31:08Z</time>
      </trkpt>
      <trkpt lat="46.51469" lon="0.37409">
        <ele>114</ele>
        <time>2020-09-13T09:31:09Z</time>
      </trkpt>
      <trkpt lat="46.51468" lon="0.37408">
        <ele>114</ele>
        <time>2020-09-13T09:31:10Z</time>
      </trkpt>
      <trkpt lat="46.51466" lon="0.37405">
        <ele>114.2</ele>
        <time>2020-09-13T09:31:12Z</time>
      </trkpt>
      <trkpt lat="46.51465" lon="0.37397">
        <ele>114.2</ele>
        <time>2020-09-13T09:31:15Z</time>
      </trkpt>
      <trkpt lat="46.51465" lon="0.37375">
        <ele>113.8</ele>
        <time>2020-09-13T09:31:20Z</time>
      </trkpt>
      <trkpt lat="46.51466" lon="0.37363">
        <ele>113.8</ele>
        <time>2020-09-13T09:31:22Z</time>
      </trkpt>
      <trkpt lat="46.51466" lon="0.37344">
        <ele>113.6</ele>
        <time>2020-09-13T09:31:25Z</time>
      </trkpt>
      <trkpt lat="46.51465" lon="0.37305">
        <ele>113.2</ele>
        <time>2020-09-13T09:31:31Z</time>
      </trkpt>
      <trkpt lat="46.51465" lon="0.37298">
        <ele>113.2</ele>
        <time>2020-09-13T09:31:32Z</time>
      </trkpt>
      <trkpt lat="46.51468" lon="0.37284">
        <ele>112.8</ele>
        <time>2020-09-13T09:31:34Z</time>
      </trkpt>
      <trkpt lat="46.51469" lon="0.37278">
        <ele>112.6</ele>
        <time>2020-09-13T09:31:35Z</time>
      </trkpt>
      <trkpt lat="46.51469" lon="0.3727">
        <ele>112</ele>
        <time>2020-09-13T09:31:37Z</time>
      </trkpt>
      <trkpt lat="46.5147" lon="0.37266">
        <ele>111.6</ele>
        <time>2020-09-13T09:31:38Z</time>
      </trkpt>
      <trkpt lat="46.5147" lon="0.37262">
        <ele>111.2</ele>
        <time>2020-09-13T09:31:39Z</time>
      </trkpt>
      <trkpt lat="46.51469" lon="0.37252">
        <ele>110.2</ele>
        <time>2020-09-13T09:31:41Z</time>
      </trkpt>
      <trkpt lat="46.51472" lon="0.37245">
        <ele>109.6</ele>
        <time>2020-09-13T09:31:43Z</time>
      </trkpt>
      <trkpt lat="46.51474" lon="0.3724">
        <ele>109.4</ele>
        <time>2020-09-13T09:31:44Z</time>
      </trkpt>
      <trkpt lat="46.51477" lon="0.37235">
        <ele>109</ele>
        <time>2020-09-13T09:31:45Z</time>
      </trkpt>
      <trkpt lat="46.51482" lon="0.37226">
        <ele>107.8</ele>
        <time>2020-09-13T09:31:47Z</time>
      </trkpt>
      <trkpt lat="46.51484" lon="0.37224">
        <ele>106.6</ele>
        <time>2020-09-13T09:31:48Z</time>
      </trkpt>
      <trkpt lat="46.51486" lon="0.37223">
        <ele>105.8</ele>
        <time>2020-09-13T09:31:49Z</time>
      </trkpt>
      <trkpt lat="46.51488" lon="0.37221">
        <ele>105.2</ele>
        <time>2020-09-13T09:31:50Z</time>
      </trkpt>
      <trkpt lat="46.51491" lon="0.37218">
        <ele>103.6</ele>
        <time>2020-09-13T09:31:52Z</time>
      </trkpt>
      <trkpt lat="46.51493" lon="0.37216">
        <ele>102.4</ele>
        <time>2020-09-13T09:31:53Z</time>
      </trkpt>
      <trkpt lat="46.51496" lon="0.37214">
        <ele>101.4</ele>
        <time>2020-09-13T09:31:54Z</time>
      </trkpt>
      <trkpt lat="46.51498" lon="0.37213">
        <ele>100.2</ele>
        <time>2020-09-13T09:31:55Z</time>
      </trkpt>
      <trkpt lat="46.51502" lon="0.3721">
        <ele>98.6</ele>
        <time>2020-09-13T09:31:57Z</time>
      </trkpt>
      <trkpt lat="46.51508" lon="0.37204">
        <ele>97.2</ele>
        <time>2020-09-13T09:31:59Z</time>
      </trkpt>
      <trkpt lat="46.51512" lon="0.37201">
        <ele>96</ele>
        <time>2020-09-13T09:32:00Z</time>
      </trkpt>
      <trkpt lat="46.51515" lon="0.37198">
        <ele>94.2</ele>
        <time>2020-09-13T09:32:01Z</time>
      </trkpt>
      <trkpt lat="46.51517" lon="0.37195">
        <ele>92.4</ele>
        <time>2020-09-13T09:32:02Z</time>
      </trkpt>
      <trkpt lat="46.51517" lon="0.37192">
        <ele>91</ele>
        <time>2020-09-13T09:32:03Z</time>
      </trkpt>
      <trkpt lat="46.51518" lon="0.37184">
        <ele>89.6</ele>
        <time>2020-09-13T09:32:05Z</time>
      </trkpt>
      <trkpt lat="46.51524" lon="0.37175">
        <ele>89.2</ele>
        <time>2020-09-13T09:32:07Z</time>
      </trkpt>
      <trkpt lat="46.51533" lon="0.37147">
        <ele>89.4</ele>
        <time>2020-09-13T09:32:13Z</time>
      </trkpt>
      <trkpt lat="46.51533" lon="0.37144">
        <ele>89.4</ele>
        <time>2020-09-13T09:32:14Z</time>
      </trkpt>
      <trkpt lat="46.51535" lon="0.37132">
        <ele>89.6</ele>
        <time>2020-09-13T09:32:17Z</time>
      </trkpt>
      <trkpt lat="46.51539" lon="0.37109">
        <ele>90</ele>
        <time>2020-09-13T09:32:21Z</time>
      </trkpt>
      <trkpt lat="46.51537" lon="0.37098">
        <ele>90</ele>
        <time>2020-09-13T09:32:23Z</time>
      </trkpt>
      <trkpt lat="46.51525" lon="0.37057">
        <ele>90</ele>
        <time>2020-09-13T09:32:30Z</time>
      </trkpt>
      <trkpt lat="46.51519" lon="0.37037">
        <ele>90.6</ele>
        <time>2020-09-13T09:32:34Z</time>
      </trkpt>
      <trkpt lat="46.51517" lon="0.37027">
        <ele>90.8</ele>
        <time>2020-09-13T09:32:36Z</time>
      </trkpt>
      <trkpt lat="46.51513" lon="0.36997">
        <ele>91</ele>
        <time>2020-09-13T09:32:41Z</time>
      </trkpt>
      <trkpt lat="46.51512" lon="0.36987">
        <ele>91.2</ele>
        <time>2020-09-13T09:32:43Z</time>
      </trkpt>
      <trkpt lat="46.51509" lon="0.36979">
        <ele>91.4</ele>
        <time>2020-09-13T09:32:45Z</time>
      </trkpt>
      <trkpt lat="46.51509" lon="0.36968">
        <ele>91.6</ele>
        <time>2020-09-13T09:32:49Z</time>
      </trkpt>
      <trkpt lat="46.5151" lon="0.36962">
        <ele>91.8</ele>
        <time>2020-09-13T09:32:52Z</time>
      </trkpt>
      <trkpt lat="46.51512" lon="0.36962">
        <ele>91.6</ele>
        <time>2020-09-13T09:32:55Z</time>
      </trkpt>
      <trkpt lat="46.51511" lon="0.36964">
        <ele>91.6</ele>
        <time>2020-09-13T09:32:56Z</time>
      </trkpt>
      <trkpt lat="46.51508" lon="0.3697">
        <ele>91.6</ele>
        <time>2020-09-13T09:33:01Z</time>
      </trkpt>
      <trkpt lat="46.51507" lon="0.36969">
        <ele>91.6</ele>
        <time>2020-09-13T09:33:02Z</time>
      </trkpt>
      <trkpt lat="46.51505" lon="0.36966">
        <ele>91.8</ele>
        <time>2020-09-13T09:33:04Z</time>
      </trkpt>
      <trkpt lat="46.51502" lon="0.36964">
        <ele>91.8</ele>
        <time>2020-09-13T09:33:05Z</time>
      </trkpt>
      <trkpt lat="46.51491" lon="0.36959">
        <ele>92.4</ele>
        <time>2020-09-13T09:33:10Z</time>
      </trkpt>
      <trkpt lat="46.51489" lon="0.36956">
        <ele>92.6</ele>
        <time>2020-09-13T09:33:11Z</time>
      </trkpt>
      <trkpt lat="46.51487" lon="0.36953">
        <ele>92.8</ele>
        <time>2020-09-13T09:33:12Z</time>
      </trkpt>
      <trkpt lat="46.51483" lon="0.36936">
        <ele>93</ele>
        <time>2020-09-13T09:33:16Z</time>
      </trkpt>
      <trkpt lat="46.51481" lon="0.36904">
        <ele>93.6</ele>
        <time>2020-09-13T09:33:23Z</time>
      </trkpt>
      <trkpt lat="46.5148" lon="0.36892">
        <ele>93.8</ele>
        <time>2020-09-13T09:33:25Z</time>
      </trkpt>
      <trkpt lat="46.5148" lon="0.36881">
        <ele>94.2</ele>
        <time>2020-09-13T09:33:27Z</time>
      </trkpt>
      <trkpt lat="46.51478" lon="0.36865">
        <ele>95</ele>
        <time>2020-09-13T09:33:30Z</time>
      </trkpt>
      <trkpt lat="46.51479" lon="0.36856">
        <ele>95</ele>
        <time>2020-09-13T09:33:32Z</time>
      </trkpt>
      <trkpt lat="46.5148" lon="0.36824">
        <ele>95.2</ele>
        <time>2020-09-13T09:33:39Z</time>
      </trkpt>
      <trkpt lat="46.51476" lon="0.36799">
        <ele>96</ele>
        <time>2020-09-13T09:33:45Z</time>
      </trkpt>
      <trkpt lat="46.51474" lon="0.36793">
        <ele>96</ele>
        <time>2020-09-13T09:33:47Z</time>
      </trkpt>
      <trkpt lat="46.5147" lon="0.36785">
        <ele>96</ele>
        <time>2020-09-13T09:33:50Z</time>
      </trkpt>
      <trkpt lat="46.51462" lon="0.36772">
        <ele>96.6</ele>
        <time>2020-09-13T09:33:54Z</time>
      </trkpt>
      <trkpt lat="46.51455" lon="0.3676">
        <ele>96.8</ele>
        <time>2020-09-13T09:33:57Z</time>
      </trkpt>
      <trkpt lat="46.51452" lon="0.36756">
        <ele>97</ele>
        <time>2020-09-13T09:33:58Z</time>
      </trkpt>
      <trkpt lat="46.51436" lon="0.36734">
        <ele>97.4</ele>
        <time>2020-09-13T09:34:03Z</time>
      </trkpt>
      <trkpt lat="46.51432" lon="0.3673">
        <ele>97.4</ele>
        <time>2020-09-13T09:34:04Z</time>
      </trkpt>
      <trkpt lat="46.51414" lon="0.36705">
        <ele>97.8</ele>
        <time>2020-09-13T09:34:09Z</time>
      </trkpt>
      <trkpt lat="46.51412" lon="0.367">
        <ele>97.8</ele>
        <time>2020-09-13T09:34:10Z</time>
      </trkpt>
      <trkpt lat="46.51404" lon="0.36681">
        <ele>97.8</ele>
        <time>2020-09-13T09:34:13Z</time>
      </trkpt>
      <trkpt lat="46.514" lon="0.36666">
        <ele>98</ele>
        <time>2020-09-13T09:34:15Z</time>
      </trkpt>
      <trkpt lat="46.51394" lon="0.3665">
        <ele>98</ele>
        <time>2020-09-13T09:34:17Z</time>
      </trkpt>
      <trkpt lat="46.51396" lon="0.36624">
        <ele>98.2</ele>
        <time>2020-09-13T09:34:22Z</time>
      </trkpt>
      <trkpt lat="46.51405" lon="0.36594">
        <ele>99.2</ele>
        <time>2020-09-13T09:34:28Z</time>
      </trkpt>
      <trkpt lat="46.51417" lon="0.36561">
        <ele>100.2</ele>
        <time>2020-09-13T09:34:35Z</time>
      </trkpt>
      <trkpt lat="46.51423" lon="0.36531">
        <ele>101.2</ele>
        <time>2020-09-13T09:34:41Z</time>
      </trkpt>
      <trkpt lat="46.51423" lon="0.36527">
        <ele>101.4</ele>
        <time>2020-09-13T09:34:42Z</time>
      </trkpt>
      <trkpt lat="46.51425" lon="0.36521">
        <ele>102.2</ele>
        <time>2020-09-13T09:34:44Z</time>
      </trkpt>
      <trkpt lat="46.51426" lon="0.3652">
        <ele>102.4</ele>
        <time>2020-09-13T09:34:45Z</time>
      </trkpt>
      <trkpt lat="46.51433" lon="0.36526">
        <ele>103</ele>
        <time>2020-09-13T09:34:51Z</time>
      </trkpt>
      <trkpt lat="46.51432" lon="0.36532">
        <ele>103.8</ele>
        <time>2020-09-13T09:34:55Z</time>
      </trkpt>
      <trkpt lat="46.51432" lon="0.36534">
        <ele>104</ele>
        <time>2020-09-13T09:34:56Z</time>
      </trkpt>
      <trkpt lat="46.5143" lon="0.3654">
        <ele>104.8</ele>
        <time>2020-09-13T09:34:59Z</time>
      </trkpt>
      <trkpt lat="46.51428" lon="0.36549">
        <ele>105.8</ele>
        <time>2020-09-13T09:35:03Z</time>
      </trkpt>
      <trkpt lat="46.51428" lon="0.36551">
        <ele>106.2</ele>
        <time>2020-09-13T09:35:04Z</time>
      </trkpt>
      <trkpt lat="46.51426" lon="0.36557">
        <ele>106.8</ele>
        <time>2020-09-13T09:35:07Z</time>
      </trkpt>
      <trkpt lat="46.51426" lon="0.36558">
        <ele>107</ele>
        <time>2020-09-13T09:35:08Z</time>
      </trkpt>
      <trkpt lat="46.51427" lon="0.36563">
        <ele>107.4</ele>
        <time>2020-09-13T09:35:10Z</time>
      </trkpt>
      <trkpt lat="46.51429" lon="0.36575">
        <ele>107.8</ele>
        <time>2020-09-13T09:35:15Z</time>
      </trkpt>
      <trkpt lat="46.51431" lon="0.36577">
        <ele>108</ele>
        <time>2020-09-13T09:35:16Z</time>
      </trkpt>
      <trkpt lat="46.51432" lon="0.36579">
        <ele>108.2</ele>
        <time>2020-09-13T09:35:17Z</time>
      </trkpt>
      <trkpt lat="46.51438" lon="0.36581">
        <ele>109.4</ele>
        <time>2020-09-13T09:35:22Z</time>
      </trkpt>
      <trkpt lat="46.5144" lon="0.36582">
        <ele>109.8</ele>
        <time>2020-09-13T09:35:23Z</time>
      </trkpt>
      <trkpt lat="46.51448" lon="0.36587">
        <ele>110.4</ele>
        <time>2020-09-13T09:35:27Z</time>
      </trkpt>
      <trkpt lat="46.51452" lon="0.36591">
        <ele>111.2</ele>
        <time>2020-09-13T09:35:30Z</time>
      </trkpt>
      <trkpt lat="46.51456" lon="0.36594">
        <ele>111.6</ele>
        <time>2020-09-13T09:35:32Z</time>
      </trkpt>
      <trkpt lat="46.51463" lon="0.36599">
        <ele>112.2</ele>
        <time>2020-09-13T09:35:36Z</time>
      </trkpt>
      <trkpt lat="46.51468" lon="0.36601">
        <ele>113</ele>
        <time>2020-09-13T09:35:39Z</time>
      </trkpt>
      <trkpt lat="46.51476" lon="0.366">
        <ele>113.8</ele>
        <time>2020-09-13T09:35:43Z</time>
      </trkpt>
      <trkpt lat="46.51481" lon="0.36601">
        <ele>114</ele>
        <time>2020-09-13T09:35:45Z</time>
      </trkpt>
      <trkpt lat="46.5149" lon="0.36603">
        <ele>115</ele>
        <time>2020-09-13T09:35:49Z</time>
      </trkpt>
      <trkpt lat="46.51492" lon="0.36603">
        <ele>115.2</ele>
        <time>2020-09-13T09:35:50Z</time>
      </trkpt>
      <trkpt lat="46.51508" lon="0.36612">
        <ele>116</ele>
        <time>2020-09-13T09:35:57Z</time>
      </trkpt>
      <trkpt lat="46.51513" lon="0.36616">
        <ele>116.2</ele>
        <time>2020-09-13T09:35:59Z</time>
      </trkpt>
      <trkpt lat="46.5152" lon="0.36624">
        <ele>116.4</ele>
        <time>2020-09-13T09:36:02Z</time>
      </trkpt>
      <trkpt lat="46.51532" lon="0.36642">
        <ele>117</ele>
        <time>2020-09-13T09:36:08Z</time>
      </trkpt>
      <trkpt lat="46.51534" lon="0.36646">
        <ele>117</ele>
        <time>2020-09-13T09:36:09Z</time>
      </trkpt>
      <trkpt lat="46.51536" lon="0.36649">
        <ele>117.2</ele>
        <time>2020-09-13T09:36:10Z</time>
      </trkpt>
      <trkpt lat="46.51546" lon="0.36662">
        <ele>117</ele>
        <time>2020-09-13T09:36:14Z</time>
      </trkpt>
      <trkpt lat="46.51558" lon="0.36678">
        <ele>116.8</ele>
        <time>2020-09-13T09:36:19Z</time>
      </trkpt>
      <trkpt lat="46.51574" lon="0.36699">
        <ele>117</ele>
        <time>2020-09-13T09:36:25Z</time>
      </trkpt>
      <trkpt lat="46.51593" lon="0.36701">
        <ele>117.4</ele>
        <time>2020-09-13T09:36:31Z</time>
      </trkpt>
      <trkpt lat="46.51608" lon="0.36698">
        <ele>117.4</ele>
        <time>2020-09-13T09:36:36Z</time>
      </trkpt>
      <trkpt lat="46.51623" lon="0.36676">
        <ele>117.6</ele>
        <time>2020-09-13T09:36:41Z</time>
      </trkpt>
      <trkpt lat="46.51637" lon="0.36649">
        <ele>117.4</ele>
        <time>2020-09-13T09:36:47Z</time>
      </trkpt>
      <trkpt lat="46.51652" lon="0.36621">
        <ele>116.6</ele>
        <time>2020-09-13T09:36:52Z</time>
      </trkpt>
      <trkpt lat="46.51654" lon="0.36616">
        <ele>116.2</ele>
        <time>2020-09-13T09:36:53Z</time>
      </trkpt>
      <trkpt lat="46.51665" lon="0.36591">
        <ele>114.8</ele>
        <time>2020-09-13T09:36:57Z</time>
      </trkpt>
      <trkpt lat="46.51668" lon="0.36585">
        <ele>114.6</ele>
        <time>2020-09-13T09:36:58Z</time>
      </trkpt>
      <trkpt lat="46.51678" lon="0.36573">
        <ele>114.2</ele>
        <time>2020-09-13T09:37:00Z</time>
      </trkpt>
      <trkpt lat="46.51691" lon="0.36555">
        <ele>113.8</ele>
        <time>2020-09-13T09:37:03Z</time>
      </trkpt>
      <trkpt lat="46.51717" lon="0.36519">
        <ele>113.6</ele>
        <time>2020-09-13T09:37:08Z</time>
      </trkpt>
      <trkpt lat="46.51728" lon="0.36498">
        <ele>114</ele>
        <time>2020-09-13T09:37:11Z</time>
      </trkpt>
      <trkpt lat="46.51741" lon="0.36479">
        <ele>114.4</ele>
        <time>2020-09-13T09:37:14Z</time>
      </trkpt>
      <trkpt lat="46.51766" lon="0.36444">
        <ele>114</ele>
        <time>2020-09-13T09:37:19Z</time>
      </trkpt>
      <trkpt lat="46.51781" lon="0.36424">
        <ele>114.6</ele>
        <time>2020-09-13T09:37:22Z</time>
      </trkpt>
      <trkpt lat="46.51786" lon="0.3642">
        <ele>115</ele>
        <time>2020-09-13T09:37:23Z</time>
      </trkpt>
      <trkpt lat="46.51792" lon="0.36415">
        <ele>115.2</ele>
        <time>2020-09-13T09:37:24Z</time>
      </trkpt>
      <trkpt lat="46.51803" lon="0.36409">
        <ele>115.4</ele>
        <time>2020-09-13T09:37:26Z</time>
      </trkpt>
      <trkpt lat="46.51819" lon="0.36404">
        <ele>115.6</ele>
        <time>2020-09-13T09:37:29Z</time>
      </trkpt>
      <trkpt lat="46.51852" lon="0.3639">
        <ele>115.6</ele>
        <time>2020-09-13T09:37:36Z</time>
      </trkpt>
      <trkpt lat="46.5188" lon="0.36382">
        <ele>115.8</ele>
        <time>2020-09-13T09:37:42Z</time>
      </trkpt>
      <trkpt lat="46.51911" lon="0.36373">
        <ele>115.6</ele>
        <time>2020-09-13T09:37:49Z</time>
      </trkpt>
      <trkpt lat="46.51921" lon="0.36371">
        <ele>116</ele>
        <time>2020-09-13T09:37:51Z</time>
      </trkpt>
      <trkpt lat="46.51926" lon="0.3637">
        <ele>116</ele>
        <time>2020-09-13T09:37:52Z</time>
      </trkpt>
      <trkpt lat="46.51941" lon="0.36366">
        <ele>116</ele>
        <time>2020-09-13T09:37:55Z</time>
      </trkpt>
      <trkpt lat="46.51971" lon="0.36351">
        <ele>115.6</ele>
        <time>2020-09-13T09:38:01Z</time>
      </trkpt>
      <trkpt lat="46.51997" lon="0.36341">
        <ele>115</ele>
        <time>2020-09-13T09:38:06Z</time>
      </trkpt>
      <trkpt lat="46.52002" lon="0.36338">
        <ele>114.4</ele>
        <time>2020-09-13T09:38:07Z</time>
      </trkpt>
      <trkpt lat="46.52013" lon="0.36331">
        <ele>113.6</ele>
        <time>2020-09-13T09:38:09Z</time>
      </trkpt>
      <trkpt lat="46.52025" lon="0.36323">
        <ele>113</ele>
        <time>2020-09-13T09:38:11Z</time>
      </trkpt>
      <trkpt lat="46.52033" lon="0.36319">
        <ele>112.6</ele>
        <time>2020-09-13T09:38:12Z</time>
      </trkpt>
      <trkpt lat="46.52039" lon="0.36316">
        <ele>112</ele>
        <time>2020-09-13T09:38:13Z</time>
      </trkpt>
      <trkpt lat="46.52045" lon="0.36313">
        <ele>111.2</ele>
        <time>2020-09-13T09:38:14Z</time>
      </trkpt>
      <trkpt lat="46.52057" lon="0.36305">
        <ele>109</ele>
        <time>2020-09-13T09:38:16Z</time>
      </trkpt>
      <trkpt lat="46.52065" lon="0.36301">
        <ele>107.8</ele>
        <time>2020-09-13T09:38:17Z</time>
      </trkpt>
      <trkpt lat="46.52072" lon="0.36299">
        <ele>106.6</ele>
        <time>2020-09-13T09:38:18Z</time>
      </trkpt>
      <trkpt lat="46.52083" lon="0.36298">
        <ele>105</ele>
        <time>2020-09-13T09:38:20Z</time>
      </trkpt>
      <trkpt lat="46.52093" lon="0.36306">
        <ele>104</ele>
        <time>2020-09-13T09:38:22Z</time>
      </trkpt>
      <trkpt lat="46.52095" lon="0.36313">
        <ele>103.8</ele>
        <time>2020-09-13T09:38:23Z</time>
      </trkpt>
      <trkpt lat="46.52097" lon="0.36321">
        <ele>103.6</ele>
        <time>2020-09-13T09:38:24Z</time>
      </trkpt>
      <trkpt lat="46.52104" lon="0.36347">
        <ele>103</ele>
        <time>2020-09-13T09:38:27Z</time>
      </trkpt>
      <trkpt lat="46.52105" lon="0.36357">
        <ele>102.6</ele>
        <time>2020-09-13T09:38:28Z</time>
      </trkpt>
      <trkpt lat="46.5211" lon="0.36377">
        <ele>102</ele>
        <time>2020-09-13T09:38:30Z</time>
      </trkpt>
      <trkpt lat="46.52113" lon="0.36387">
        <ele>101.4</ele>
        <time>2020-09-13T09:38:31Z</time>
      </trkpt>
      <trkpt lat="46.52118" lon="0.36407">
        <ele>100.6</ele>
        <time>2020-09-13T09:38:33Z</time>
      </trkpt>
      <trkpt lat="46.5212" lon="0.36419">
        <ele>100.4</ele>
        <time>2020-09-13T09:38:34Z</time>
      </trkpt>
      <trkpt lat="46.52127" lon="0.36453">
        <ele>99.2</ele>
        <time>2020-09-13T09:38:37Z</time>
      </trkpt>
      <trkpt lat="46.52132" lon="0.36477">
        <ele>98.2</ele>
        <time>2020-09-13T09:38:39Z</time>
      </trkpt>
      <trkpt lat="46.52135" lon="0.36488">
        <ele>97.6</ele>
        <time>2020-09-13T09:38:40Z</time>
      </trkpt>
      <trkpt lat="46.5214" lon="0.36522">
        <ele>96.2</ele>
        <time>2020-09-13T09:38:43Z</time>
      </trkpt>
      <trkpt lat="46.52143" lon="0.36544">
        <ele>95.2</ele>
        <time>2020-09-13T09:38:45Z</time>
      </trkpt>
      <trkpt lat="46.52148" lon="0.36564">
        <ele>94</ele>
        <time>2020-09-13T09:38:47Z</time>
      </trkpt>
      <trkpt lat="46.52153" lon="0.36573">
        <ele>93.4</ele>
        <time>2020-09-13T09:38:48Z</time>
      </trkpt>
      <trkpt lat="46.52158" lon="0.36579">
        <ele>92.6</ele>
        <time>2020-09-13T09:38:49Z</time>
      </trkpt>
      <trkpt lat="46.52177" lon="0.36599">
        <ele>91.4</ele>
        <time>2020-09-13T09:38:52Z</time>
      </trkpt>
      <trkpt lat="46.52189" lon="0.36613">
        <ele>91.2</ele>
        <time>2020-09-13T09:38:54Z</time>
      </trkpt>
      <trkpt lat="46.52199" lon="0.36617">
        <ele>91.8</ele>
        <time>2020-09-13T09:38:56Z</time>
      </trkpt>
      <trkpt lat="46.52204" lon="0.36617">
        <ele>91.8</ele>
        <time>2020-09-13T09:38:58Z</time>
      </trkpt>
      <trkpt lat="46.52209" lon="0.36618">
        <ele>92</ele>
        <time>2020-09-13T09:39:00Z</time>
      </trkpt>
      <trkpt lat="46.52215" lon="0.36621">
        <ele>92.6</ele>
        <time>2020-09-13T09:39:03Z</time>
      </trkpt>
      <trkpt lat="46.52218" lon="0.36621">
        <ele>93.8</ele>
        <time>2020-09-13T09:39:06Z</time>
      </trkpt>
      <trkpt lat="46.52221" lon="0.36622">
        <ele>94.8</ele>
        <time>2020-09-13T09:39:08Z</time>
      </trkpt>
      <trkpt lat="46.52224" lon="0.36624">
        <ele>95</ele>
        <time>2020-09-13T09:39:09Z</time>
      </trkpt>
      <trkpt lat="46.52231" lon="0.36627">
        <ele>95.4</ele>
        <time>2020-09-13T09:39:11Z</time>
      </trkpt>
      <trkpt lat="46.52244" lon="0.36634">
        <ele>96.2</ele>
        <time>2020-09-13T09:39:15Z</time>
      </trkpt>
      <trkpt lat="46.52251" lon="0.36637">
        <ele>96.4</ele>
        <time>2020-09-13T09:39:17Z</time>
      </trkpt>
      <trkpt lat="46.52269" lon="0.36642">
        <ele>97.2</ele>
        <time>2020-09-13T09:39:23Z</time>
      </trkpt>
      <trkpt lat="46.52272" lon="0.36643">
        <ele>97.2</ele>
        <time>2020-09-13T09:39:24Z</time>
      </trkpt>
      <trkpt lat="46.52287" lon="0.36649">
        <ele>98.2</ele>
        <time>2020-09-13T09:39:30Z</time>
      </trkpt>
      <trkpt lat="46.52289" lon="0.36649">
        <ele>98.4</ele>
        <time>2020-09-13T09:39:31Z</time>
      </trkpt>
      <trkpt lat="46.52293" lon="0.3665">
        <ele>98.6</ele>
        <time>2020-09-13T09:39:33Z</time>
      </trkpt>
      <trkpt lat="46.52298" lon="0.36652">
        <ele>99.2</ele>
        <time>2020-09-13T09:39:36Z</time>
      </trkpt>
      <trkpt lat="46.52299" lon="0.36652">
        <ele>99.6</ele>
        <time>2020-09-13T09:39:37Z</time>
      </trkpt>
      <trkpt lat="46.52301" lon="0.36652">
        <ele>100</ele>
        <time>2020-09-13T09:39:38Z</time>
      </trkpt>
      <trkpt lat="46.52303" lon="0.36652">
        <ele>100.6</ele>
        <time>2020-09-13T09:39:40Z</time>
      </trkpt>
      <trkpt lat="46.52311" lon="0.36651">
        <ele>101.6</ele>
        <time>2020-09-13T09:39:44Z</time>
      </trkpt>
      <trkpt lat="46.52317" lon="0.36652">
        <ele>102.4</ele>
        <time>2020-09-13T09:39:47Z</time>
      </trkpt>
      <trkpt lat="46.52318" lon="0.36652">
        <ele>102.8</ele>
        <time>2020-09-13T09:39:48Z</time>
      </trkpt>
      <trkpt lat="46.52337" lon="0.36657">
        <ele>103.8</ele>
        <time>2020-09-13T09:39:54Z</time>
      </trkpt>
      <trkpt lat="46.52347" lon="0.3666">
        <ele>103.8</ele>
        <time>2020-09-13T09:39:56Z</time>
      </trkpt>
      <trkpt lat="46.52361" lon="0.3666">
        <ele>104.6</ele>
        <time>2020-09-13T09:40:00Z</time>
      </trkpt>
      <trkpt lat="46.52364" lon="0.36658">
        <ele>104.6</ele>
        <time>2020-09-13T09:40:01Z</time>
      </trkpt>
      <trkpt lat="46.52368" lon="0.36647">
        <ele>104.8</ele>
        <time>2020-09-13T09:40:04Z</time>
      </trkpt>
      <trkpt lat="46.52365" lon="0.36629">
        <ele>105.4</ele>
        <time>2020-09-13T09:40:09Z</time>
      </trkpt>
      <trkpt lat="46.52363" lon="0.36608">
        <ele>106.2</ele>
        <time>2020-09-13T09:40:14Z</time>
      </trkpt>
      <trkpt lat="46.52364" lon="0.36599">
        <ele>106.6</ele>
        <time>2020-09-13T09:40:16Z</time>
      </trkpt>
      <trkpt lat="46.52365" lon="0.36594">
        <ele>106.8</ele>
        <time>2020-09-13T09:40:17Z</time>
      </trkpt>
      <trkpt lat="46.52365" lon="0.36585">
        <ele>107.4</ele>
        <time>2020-09-13T09:40:19Z</time>
      </trkpt>
      <trkpt lat="46.52366" lon="0.36574">
        <ele>107.8</ele>
        <time>2020-09-13T09:40:22Z</time>
      </trkpt>
      <trkpt lat="46.52367" lon="0.36552">
        <ele>108.4</ele>
        <time>2020-09-13T09:40:27Z</time>
      </trkpt>
      <trkpt lat="46.52368" lon="0.36543">
        <ele>108.8</ele>
        <time>2020-09-13T09:40:29Z</time>
      </trkpt>
      <trkpt lat="46.52372" lon="0.36519">
        <ele>109.2</ele>
        <time>2020-09-13T09:40:34Z</time>
      </trkpt>
      <trkpt lat="46.52372" lon="0.3651">
        <ele>109.4</ele>
        <time>2020-09-13T09:40:36Z</time>
      </trkpt>
      <trkpt lat="46.52377" lon="0.36492">
        <ele>109.4</ele>
        <time>2020-09-13T09:40:40Z</time>
      </trkpt>
      <trkpt lat="46.52383" lon="0.36473">
        <ele>109.2</ele>
        <time>2020-09-13T09:40:45Z</time>
      </trkpt>
      <trkpt lat="46.52391" lon="0.36465">
        <ele>109.4</ele>
        <time>2020-09-13T09:40:49Z</time>
      </trkpt>
      <trkpt lat="46.52397" lon="0.36448">
        <ele>109</ele>
        <time>2020-09-13T09:40:53Z</time>
      </trkpt>
      <trkpt lat="46.52403" lon="0.36422">
        <ele>109.2</ele>
        <time>2020-09-13T09:40:58Z</time>
      </trkpt>
      <trkpt lat="46.52404" lon="0.36411">
        <ele>109.2</ele>
        <time>2020-09-13T09:41:00Z</time>
      </trkpt>
      <trkpt lat="46.52404" lon="0.36398">
        <ele>109.6</ele>
        <time>2020-09-13T09:41:03Z</time>
      </trkpt>
      <trkpt lat="46.52403" lon="0.36384">
        <ele>110</ele>
        <time>2020-09-13T09:41:06Z</time>
      </trkpt>
      <trkpt lat="46.52404" lon="0.36374">
        <ele>110.2</ele>
        <time>2020-09-13T09:41:08Z</time>
      </trkpt>
      <trkpt lat="46.52405" lon="0.36362">
        <ele>110.4</ele>
        <time>2020-09-13T09:41:10Z</time>
      </trkpt>
      <trkpt lat="46.52405" lon="0.36355">
        <ele>110.4</ele>
        <time>2020-09-13T09:41:11Z</time>
      </trkpt>
      <trkpt lat="46.52403" lon="0.36348">
        <ele>110.6</ele>
        <time>2020-09-13T09:41:12Z</time>
      </trkpt>
      <trkpt lat="46.52402" lon="0.3634">
        <ele>110.6</ele>
        <time>2020-09-13T09:41:13Z</time>
      </trkpt>
      <trkpt lat="46.524" lon="0.36333">
        <ele>110.8</ele>
        <time>2020-09-13T09:41:14Z</time>
      </trkpt>
      <trkpt lat="46.52395" lon="0.36307">
        <ele>111</ele>
        <time>2020-09-13T09:41:18Z</time>
      </trkpt>
      <trkpt lat="46.52394" lon="0.36301">
        <ele>111.2</ele>
        <time>2020-09-13T09:41:19Z</time>
      </trkpt>
      <trkpt lat="46.52394" lon="0.36301">
        <ele>111.8</ele>
        <time>2020-09-13T09:41:20Z</time>
      </trkpt>
      <trkpt lat="46.52393" lon="0.36288">
        <ele>111.8</ele>
        <time>2020-09-13T09:41:21Z</time>
      </trkpt>
      <trkpt lat="46.52394" lon="0.36268">
        <ele>112.2</ele>
        <time>2020-09-13T09:41:24Z</time>
      </trkpt>
      <trkpt lat="46.52398" lon="0.36223">
        <ele>111.2</ele>
        <time>2020-09-13T09:41:30Z</time>
      </trkpt>
      <trkpt lat="46.52402" lon="0.36202">
        <ele>110.6</ele>
        <time>2020-09-13T09:41:33Z</time>
      </trkpt>
      <trkpt lat="46.52408" lon="0.36178">
        <ele>110.4</ele>
        <time>2020-09-13T09:41:36Z</time>
      </trkpt>
      <trkpt lat="46.52419" lon="0.36132">
        <ele>110.6</ele>
        <time>2020-09-13T09:41:42Z</time>
      </trkpt>
      <trkpt lat="46.52422" lon="0.36111">
        <ele>110.8</ele>
        <time>2020-09-13T09:41:45Z</time>
      </trkpt>
      <trkpt lat="46.52425" lon="0.36099">
        <ele>111.4</ele>
        <time>2020-09-13T09:41:47Z</time>
      </trkpt>
      <trkpt lat="46.52429" lon="0.36088">
        <ele>112</ele>
        <time>2020-09-13T09:41:49Z</time>
      </trkpt>
      <trkpt lat="46.5243" lon="0.36082">
        <ele>112.2</ele>
        <time>2020-09-13T09:41:50Z</time>
      </trkpt>
      <trkpt lat="46.52435" lon="0.36064">
        <ele>113</ele>
        <time>2020-09-13T09:41:53Z</time>
      </trkpt>
      <trkpt lat="46.52437" lon="0.36059">
        <ele>113.2</ele>
        <time>2020-09-13T09:41:54Z</time>
      </trkpt>
      <trkpt lat="46.52441" lon="0.3604">
        <ele>114</ele>
        <time>2020-09-13T09:41:58Z</time>
      </trkpt>
      <trkpt lat="46.52442" lon="0.36036">
        <ele>114.2</ele>
        <time>2020-09-13T09:41:59Z</time>
      </trkpt>
      <trkpt lat="46.52443" lon="0.36022">
        <ele>114.8</ele>
        <time>2020-09-13T09:42:02Z</time>
      </trkpt>
      <trkpt lat="46.52444" lon="0.36017">
        <ele>115</ele>
        <time>2020-09-13T09:42:03Z</time>
      </trkpt>
      <trkpt lat="46.52447" lon="0.36006">
        <ele>115.2</ele>
        <time>2020-09-13T09:42:04Z</time>
      </trkpt>
      <trkpt lat="46.52448" lon="0.36">
        <ele>115.2</ele>
        <time>2020-09-13T09:42:06Z</time>
      </trkpt>
      <trkpt lat="46.52453" lon="0.35989">
        <ele>115.4</ele>
        <time>2020-09-13T09:42:08Z</time>
      </trkpt>
      <trkpt lat="46.52455" lon="0.35984">
        <ele>115.6</ele>
        <time>2020-09-13T09:42:09Z</time>
      </trkpt>
      <trkpt lat="46.52466" lon="0.35962">
        <ele>115.6</ele>
        <time>2020-09-13T09:42:14Z</time>
      </trkpt>
      <trkpt lat="46.52482" lon="0.35928">
        <ele>115</ele>
        <time>2020-09-13T09:42:20Z</time>
      </trkpt>
      <trkpt lat="46.5249" lon="0.35911">
        <ele>115.2</ele>
        <time>2020-09-13T09:42:23Z</time>
      </trkpt>
      <trkpt lat="46.52498" lon="0.35893">
        <ele>115</ele>
        <time>2020-09-13T09:42:26Z</time>
      </trkpt>
      <trkpt lat="46.52501" lon="0.35887">
        <ele>115</ele>
        <time>2020-09-13T09:42:27Z</time>
      </trkpt>
      <trkpt lat="46.52515" lon="0.35859">
        <ele>114.6</ele>
        <time>2020-09-13T09:42:31Z</time>
      </trkpt>
      <trkpt lat="46.52518" lon="0.35851">
        <ele>114</ele>
        <time>2020-09-13T09:42:32Z</time>
      </trkpt>
      <trkpt lat="46.52525" lon="0.35832">
        <ele>112.8</ele>
        <time>2020-09-13T09:42:34Z</time>
      </trkpt>
      <trkpt lat="46.5253" lon="0.35814">
        <ele>111.6</ele>
        <time>2020-09-13T09:42:36Z</time>
      </trkpt>
      <trkpt lat="46.52535" lon="0.35795">
        <ele>110.6</ele>
        <time>2020-09-13T09:42:38Z</time>
      </trkpt>
      <trkpt lat="46.52536" lon="0.35787">
        <ele>109.8</ele>
        <time>2020-09-13T09:42:39Z</time>
      </trkpt>
      <trkpt lat="46.52536" lon="0.35779">
        <ele>109.2</ele>
        <time>2020-09-13T09:42:40Z</time>
      </trkpt>
      <trkpt lat="46.52535" lon="0.35774">
        <ele>108.6</ele>
        <time>2020-09-13T09:42:41Z</time>
      </trkpt>
      <trkpt lat="46.52536" lon="0.35769">
        <ele>107.8</ele>
        <time>2020-09-13T09:42:42Z</time>
      </trkpt>
      <trkpt lat="46.52536" lon="0.35765">
        <ele>107</ele>
        <time>2020-09-13T09:42:43Z</time>
      </trkpt>
      <trkpt lat="46.52537" lon="0.35763">
        <ele>106.6</ele>
        <time>2020-09-13T09:42:44Z</time>
      </trkpt>
      <trkpt lat="46.52544" lon="0.35758">
        <ele>105.8</ele>
        <time>2020-09-13T09:42:47Z</time>
      </trkpt>
      <trkpt lat="46.52548" lon="0.35757">
        <ele>105.6</ele>
        <time>2020-09-13T09:42:48Z</time>
      </trkpt>
      <trkpt lat="46.52559" lon="0.35755">
        <ele>105</ele>
        <time>2020-09-13T09:42:51Z</time>
      </trkpt>
      <trkpt lat="46.52583" lon="0.35761">
        <ele>104</ele>
        <time>2020-09-13T09:42:55Z</time>
      </trkpt>
      <trkpt lat="46.5259" lon="0.35763">
        <ele>103</ele>
        <time>2020-09-13T09:42:56Z</time>
      </trkpt>
      <trkpt lat="46.52598" lon="0.35766">
        <ele>103.2</ele>
        <time>2020-09-13T09:42:57Z</time>
      </trkpt>
      <trkpt lat="46.52604" lon="0.3577">
        <ele>102.6</ele>
        <time>2020-09-13T09:42:58Z</time>
      </trkpt>
      <trkpt lat="46.52615" lon="0.3578">
        <ele>101.6</ele>
        <time>2020-09-13T09:43:00Z</time>
      </trkpt>
      <trkpt lat="46.5262" lon="0.35785">
        <ele>101.4</ele>
        <time>2020-09-13T09:43:01Z</time>
      </trkpt>
      <trkpt lat="46.52641" lon="0.3581">
        <ele>100.2</ele>
        <time>2020-09-13T09:43:06Z</time>
      </trkpt>
      <trkpt lat="46.52654" lon="0.35825">
        <ele>99</ele>
        <time>2020-09-13T09:43:09Z</time>
      </trkpt>
      <trkpt lat="46.52664" lon="0.35838">
        <ele>98.4</ele>
        <time>2020-09-13T09:43:11Z</time>
      </trkpt>
      <trkpt lat="46.52673" lon="0.35852">
        <ele>98</ele>
        <time>2020-09-13T09:43:13Z</time>
      </trkpt>
      <trkpt lat="46.5268" lon="0.35866">
        <ele>97.2</ele>
        <time>2020-09-13T09:43:15Z</time>
      </trkpt>
      <trkpt lat="46.52683" lon="0.35874">
        <ele>96.4</ele>
        <time>2020-09-13T09:43:16Z</time>
      </trkpt>
      <trkpt lat="46.52692" lon="0.35892">
        <ele>95.2</ele>
        <time>2020-09-13T09:43:18Z</time>
      </trkpt>
      <trkpt lat="46.52706" lon="0.35931">
        <ele>94.8</ele>
        <time>2020-09-13T09:43:22Z</time>
      </trkpt>
      <trkpt lat="46.52716" lon="0.35964">
        <ele>94.6</ele>
        <time>2020-09-13T09:43:26Z</time>
      </trkpt>
      <trkpt lat="46.52726" lon="0.36">
        <ele>93.8</ele>
        <time>2020-09-13T09:43:31Z</time>
      </trkpt>
      <trkpt lat="46.52727" lon="0.36007">
        <ele>93</ele>
        <time>2020-09-13T09:43:32Z</time>
      </trkpt>
      <trkpt lat="46.52729" lon="0.36013">
        <ele>92.6</ele>
        <time>2020-09-13T09:43:33Z</time>
      </trkpt>
      <trkpt lat="46.52731" lon="0.3602">
        <ele>92.2</ele>
        <time>2020-09-13T09:43:34Z</time>
      </trkpt>
      <trkpt lat="46.52736" lon="0.36031">
        <ele>91.6</ele>
        <time>2020-09-13T09:43:36Z</time>
      </trkpt>
      <trkpt lat="46.52739" lon="0.36035">
        <ele>91.6</ele>
        <time>2020-09-13T09:43:37Z</time>
      </trkpt>
      <trkpt lat="46.52752" lon="0.36056">
        <ele>91.6</ele>
        <time>2020-09-13T09:43:41Z</time>
      </trkpt>
      <trkpt lat="46.52759" lon="0.36068">
        <ele>91.2</ele>
        <time>2020-09-13T09:43:43Z</time>
      </trkpt>
      <trkpt lat="46.52768" lon="0.36081">
        <ele>90.4</ele>
        <time>2020-09-13T09:43:45Z</time>
      </trkpt>
      <trkpt lat="46.52782" lon="0.36101">
        <ele>89.8</ele>
        <time>2020-09-13T09:43:48Z</time>
      </trkpt>
      <trkpt lat="46.52795" lon="0.36122">
        <ele>89.4</ele>
        <time>2020-09-13T09:43:51Z</time>
      </trkpt>
      <trkpt lat="46.52798" lon="0.3613">
        <ele>89.4</ele>
        <time>2020-09-13T09:43:52Z</time>
      </trkpt>
      <trkpt lat="46.52805" lon="0.36147">
        <ele>89</ele>
        <time>2020-09-13T09:43:54Z</time>
      </trkpt>
      <trkpt lat="46.52807" lon="0.36157">
        <ele>88.8</ele>
        <time>2020-09-13T09:43:55Z</time>
      </trkpt>
      <trkpt lat="46.52814" lon="0.36189">
        <ele>88.2</ele>
        <time>2020-09-13T09:43:58Z</time>
      </trkpt>
      <trkpt lat="46.52816" lon="0.36197">
        <ele>87.6</ele>
        <time>2020-09-13T09:43:59Z</time>
      </trkpt>
      <trkpt lat="46.52819" lon="0.36214">
        <ele>86.8</ele>
        <time>2020-09-13T09:44:01Z</time>
      </trkpt>
      <trkpt lat="46.52825" lon="0.36224">
        <ele>86.4</ele>
        <time>2020-09-13T09:44:03Z</time>
      </trkpt>
      <trkpt lat="46.52835" lon="0.36224">
        <ele>85.8</ele>
        <time>2020-09-13T09:44:05Z</time>
      </trkpt>
      <trkpt lat="46.52844" lon="0.36225">
        <ele>85.6</ele>
        <time>2020-09-13T09:44:07Z</time>
      </trkpt>
      <trkpt lat="46.52864" lon="0.36225">
        <ele>86.8</ele>
        <time>2020-09-13T09:44:13Z</time>
      </trkpt>
      <trkpt lat="46.52867" lon="0.36225">
        <ele>87</ele>
        <time>2020-09-13T09:44:14Z</time>
      </trkpt>
      <trkpt lat="46.52874" lon="0.36223">
        <ele>88</ele>
        <time>2020-09-13T09:44:18Z</time>
      </trkpt>
      <trkpt lat="46.52877" lon="0.36222">
        <ele>89</ele>
        <time>2020-09-13T09:44:20Z</time>
      </trkpt>
      <trkpt lat="46.52879" lon="0.36221">
        <ele>89.4</ele>
        <time>2020-09-13T09:44:21Z</time>
      </trkpt>
      <trkpt lat="46.52887" lon="0.36211">
        <ele>90.4</ele>
        <time>2020-09-13T09:44:26Z</time>
      </trkpt>
      <trkpt lat="46.52893" lon="0.36201">
        <ele>91.6</ele>
        <time>2020-09-13T09:44:30Z</time>
      </trkpt>
      <trkpt lat="46.52899" lon="0.36189">
        <ele>92.4</ele>
        <time>2020-09-13T09:44:34Z</time>
      </trkpt>
      <trkpt lat="46.52901" lon="0.36186">
        <ele>92.6</ele>
        <time>2020-09-13T09:44:35Z</time>
      </trkpt>
      <trkpt lat="46.52907" lon="0.36173">
        <ele>93.6</ele>
        <time>2020-09-13T09:44:39Z</time>
      </trkpt>
      <trkpt lat="46.52912" lon="0.36164">
        <ele>94.2</ele>
        <time>2020-09-13T09:44:42Z</time>
      </trkpt>
      <trkpt lat="46.52921" lon="0.36141">
        <ele>94.8</ele>
        <time>2020-09-13T09:44:50Z</time>
      </trkpt>
      <trkpt lat="46.5293" lon="0.36123">
        <ele>96</ele>
        <time>2020-09-13T09:44:57Z</time>
      </trkpt>
      <trkpt lat="46.52932" lon="0.3612">
        <ele>96</ele>
        <time>2020-09-13T09:44:58Z</time>
      </trkpt>
      <trkpt lat="46.52942" lon="0.3611">
        <ele>96.8</ele>
        <time>2020-09-13T09:45:03Z</time>
      </trkpt>
      <trkpt lat="46.52944" lon="0.36108">
        <ele>97</ele>
        <time>2020-09-13T09:45:04Z</time>
      </trkpt>
      <trkpt lat="46.52946" lon="0.36107">
        <ele>97.2</ele>
        <time>2020-09-13T09:45:05Z</time>
      </trkpt>
      <trkpt lat="46.52961" lon="0.36098">
        <ele>97.8</ele>
        <time>2020-09-13T09:45:12Z</time>
      </trkpt>
      <trkpt lat="46.52965" lon="0.36095">
        <ele>98.2</ele>
        <time>2020-09-13T09:45:14Z</time>
      </trkpt>
      <trkpt lat="46.52976" lon="0.36092">
        <ele>99</ele>
        <time>2020-09-13T09:45:19Z</time>
      </trkpt>
      <trkpt lat="46.52981" lon="0.36094">
        <ele>99.2</ele>
        <time>2020-09-13T09:45:21Z</time>
      </trkpt>
      <trkpt lat="46.52995" lon="0.36094">
        <ele>100.2</ele>
        <time>2020-09-13T09:45:26Z</time>
      </trkpt>
      <trkpt lat="46.53004" lon="0.36092">
        <ele>100.4</ele>
        <time>2020-09-13T09:45:29Z</time>
      </trkpt>
      <trkpt lat="46.53019" lon="0.36087">
        <ele>100.4</ele>
        <time>2020-09-13T09:45:33Z</time>
      </trkpt>
      <trkpt lat="46.53028" lon="0.36084">
        <ele>100</ele>
        <time>2020-09-13T09:45:35Z</time>
      </trkpt>
      <trkpt lat="46.53036" lon="0.36082">
        <ele>99.8</ele>
        <time>2020-09-13T09:45:37Z</time>
      </trkpt>
      <trkpt lat="46.5304" lon="0.3608">
        <ele>99.6</ele>
        <time>2020-09-13T09:45:38Z</time>
      </trkpt>
      <trkpt lat="46.53059" lon="0.36076">
        <ele>100.2</ele>
        <time>2020-09-13T09:45:44Z</time>
      </trkpt>
      <trkpt lat="46.53083" lon="0.3607">
        <ele>101</ele>
        <time>2020-09-13T09:45:51Z</time>
      </trkpt>
      <trkpt lat="46.53088" lon="0.36064">
        <ele>101.2</ele>
        <time>2020-09-13T09:45:53Z</time>
      </trkpt>
      <trkpt lat="46.531" lon="0.36051">
        <ele>101.2</ele>
        <time>2020-09-13T09:45:57Z</time>
      </trkpt>
      <trkpt lat="46.53118" lon="0.36037">
        <ele>101.2</ele>
        <time>2020-09-13T09:46:03Z</time>
      </trkpt>
      <trkpt lat="46.53133" lon="0.36028">
        <ele>100.8</ele>
        <time>2020-09-13T09:46:08Z</time>
      </trkpt>
      <trkpt lat="46.53156" lon="0.36013">
        <ele>99</ele>
        <time>2020-09-13T09:46:13Z</time>
      </trkpt>
      <trkpt lat="46.53161" lon="0.36011">
        <ele>98.4</ele>
        <time>2020-09-13T09:46:14Z</time>
      </trkpt>
      <trkpt lat="46.53166" lon="0.36009">
        <ele>97.8</ele>
        <time>2020-09-13T09:46:15Z</time>
      </trkpt>
      <trkpt lat="46.53173" lon="0.36008">
        <ele>96.6</ele>
        <time>2020-09-13T09:46:17Z</time>
      </trkpt>
      <trkpt lat="46.53178" lon="0.36011">
        <ele>95.6</ele>
        <time>2020-09-13T09:46:19Z</time>
      </trkpt>
      <trkpt lat="46.53181" lon="0.36015">
        <ele>95.4</ele>
        <time>2020-09-13T09:46:20Z</time>
      </trkpt>
      <trkpt lat="46.53196" lon="0.36048">
        <ele>94.8</ele>
        <time>2020-09-13T09:46:26Z</time>
      </trkpt>
      <trkpt lat="46.53207" lon="0.36073">
        <ele>94</ele>
        <time>2020-09-13T09:46:30Z</time>
      </trkpt>
      <trkpt lat="46.53214" lon="0.36087">
        <ele>93.4</ele>
        <time>2020-09-13T09:46:32Z</time>
      </trkpt>
      <trkpt lat="46.53223" lon="0.36094">
        <ele>93</ele>
        <time>2020-09-13T09:46:34Z</time>
      </trkpt>
      <trkpt lat="46.53227" lon="0.36094">
        <ele>93</ele>
        <time>2020-09-13T09:46:35Z</time>
      </trkpt>
      <trkpt lat="46.53232" lon="0.36092">
        <ele>92.6</ele>
        <time>2020-09-13T09:46:36Z</time>
      </trkpt>
      <trkpt lat="46.53241" lon="0.36085">
        <ele>92</ele>
        <time>2020-09-13T09:46:38Z</time>
      </trkpt>
      <trkpt lat="46.53245" lon="0.36083">
        <ele>91.8</ele>
        <time>2020-09-13T09:46:39Z</time>
      </trkpt>
      <trkpt lat="46.53259" lon="0.36078">
        <ele>91.6</ele>
        <time>2020-09-13T09:46:42Z</time>
      </trkpt>
      <trkpt lat="46.53266" lon="0.36074">
        <ele>91.8</ele>
        <time>2020-09-13T09:46:44Z</time>
      </trkpt>
      <trkpt lat="46.53274" lon="0.36069">
        <ele>93.2</ele>
        <time>2020-09-13T09:46:48Z</time>
      </trkpt>
      <trkpt lat="46.53276" lon="0.36069">
        <ele>93.8</ele>
        <time>2020-09-13T09:46:49Z</time>
      </trkpt>
      <trkpt lat="46.5328" lon="0.36068">
        <ele>94.4</ele>
        <time>2020-09-13T09:46:51Z</time>
      </trkpt>
      <trkpt lat="46.53285" lon="0.36066">
        <ele>95</ele>
        <time>2020-09-13T09:46:54Z</time>
      </trkpt>
      <trkpt lat="46.53287" lon="0.36064">
        <ele>95.6</ele>
        <time>2020-09-13T09:46:56Z</time>
      </trkpt>
      <trkpt lat="46.53294" lon="0.36061">
        <ele>96.8</ele>
        <time>2020-09-13T09:46:59Z</time>
      </trkpt>
      <trkpt lat="46.53299" lon="0.3606">
        <ele>97.2</ele>
        <time>2020-09-13T09:47:01Z</time>
      </trkpt>
      <trkpt lat="46.53306" lon="0.36059">
        <ele>98</ele>
        <time>2020-09-13T09:47:04Z</time>
      </trkpt>
      <trkpt lat="46.53313" lon="0.36058">
        <ele>98.8</ele>
        <time>2020-09-13T09:47:07Z</time>
      </trkpt>
      <trkpt lat="46.53315" lon="0.36058">
        <ele>99</ele>
        <time>2020-09-13T09:47:08Z</time>
      </trkpt>
      <trkpt lat="46.53326" lon="0.36056">
        <ele>100.2</ele>
        <time>2020-09-13T09:47:12Z</time>
      </trkpt>
      <trkpt lat="46.53328" lon="0.36055">
        <ele>100.6</ele>
        <time>2020-09-13T09:47:13Z</time>
      </trkpt>
      <trkpt lat="46.53333" lon="0.36056">
        <ele>101.4</ele>
        <time>2020-09-13T09:47:14Z</time>
      </trkpt>
      <trkpt lat="46.53341" lon="0.36057">
        <ele>102</ele>
        <time>2020-09-13T09:47:19Z</time>
      </trkpt>
      <trkpt lat="46.53344" lon="0.36058">
        <ele>102.4</ele>
        <time>2020-09-13T09:47:21Z</time>
      </trkpt>
      <trkpt lat="46.53356" lon="0.36064">
        <ele>103.8</ele>
        <time>2020-09-13T09:47:27Z</time>
      </trkpt>
      <trkpt lat="46.53364" lon="0.36069">
        <ele>104.8</ele>
        <time>2020-09-13T09:47:31Z</time>
      </trkpt>
      <trkpt lat="46.5337" lon="0.36074">
        <ele>105.2</ele>
        <time>2020-09-13T09:47:34Z</time>
      </trkpt>
      <trkpt lat="46.53381" lon="0.36083">
        <ele>105.8</ele>
        <time>2020-09-13T09:47:39Z</time>
      </trkpt>
      <trkpt lat="46.53387" lon="0.36088">
        <ele>106</ele>
        <time>2020-09-13T09:47:42Z</time>
      </trkpt>
      <trkpt lat="46.53401" lon="0.36102">
        <ele>106.8</ele>
        <time>2020-09-13T09:47:48Z</time>
      </trkpt>
      <trkpt lat="46.53412" lon="0.36109">
        <ele>107.4</ele>
        <time>2020-09-13T09:47:52Z</time>
      </trkpt>
      <trkpt lat="46.53414" lon="0.3611">
        <ele>107.4</ele>
        <time>2020-09-13T09:47:53Z</time>
      </trkpt>
      <trkpt lat="46.53421" lon="0.36115">
        <ele>108</ele>
        <time>2020-09-13T09:47:55Z</time>
      </trkpt>
      <trkpt lat="46.53437" lon="0.36128">
        <ele>108.2</ele>
        <time>2020-09-13T09:47:59Z</time>
      </trkpt>
      <trkpt lat="46.53463" lon="0.36156">
        <ele>108.4</ele>
        <time>2020-09-13T09:48:07Z</time>
      </trkpt>
      <trkpt lat="46.53482" lon="0.36171">
        <ele>108.4</ele>
        <time>2020-09-13T09:48:12Z</time>
      </trkpt>
      <trkpt lat="46.53498" lon="0.36177">
        <ele>108.8</ele>
        <time>2020-09-13T09:48:15Z</time>
      </trkpt>
      <trkpt lat="46.53509" lon="0.36179">
        <ele>109</ele>
        <time>2020-09-13T09:48:17Z</time>
      </trkpt>
      <trkpt lat="46.53535" lon="0.36181">
        <ele>109.6</ele>
        <time>2020-09-13T09:48:23Z</time>
      </trkpt>
      <trkpt lat="46.53548" lon="0.36186">
        <ele>109.8</ele>
        <time>2020-09-13T09:48:26Z</time>
      </trkpt>
      <trkpt lat="46.5356" lon="0.36195">
        <ele>110</ele>
        <time>2020-09-13T09:48:29Z</time>
      </trkpt>
      <trkpt lat="46.53568" lon="0.362">
        <ele>109.8</ele>
        <time>2020-09-13T09:48:31Z</time>
      </trkpt>
      <trkpt lat="46.53584" lon="0.36211">
        <ele>109.6</ele>
        <time>2020-09-13T09:48:35Z</time>
      </trkpt>
      <trkpt lat="46.53589" lon="0.36215">
        <ele>109.6</ele>
        <time>2020-09-13T09:48:36Z</time>
      </trkpt>
      <trkpt lat="46.53593" lon="0.36221">
        <ele>109.6</ele>
        <time>2020-09-13T09:48:37Z</time>
      </trkpt>
      <trkpt lat="46.53608" lon="0.36246">
        <ele>109</ele>
        <time>2020-09-13T09:48:41Z</time>
      </trkpt>
      <trkpt lat="46.53636" lon="0.36277">
        <ele>109</ele>
        <time>2020-09-13T09:48:47Z</time>
      </trkpt>
      <trkpt lat="46.53668" lon="0.36312">
        <ele>108.4</ele>
        <time>2020-09-13T09:48:54Z</time>
      </trkpt>
      <trkpt lat="46.53679" lon="0.36322">
        <ele>108</ele>
        <time>2020-09-13T09:48:56Z</time>
      </trkpt>
      <trkpt lat="46.53704" lon="0.36346">
        <ele>107.6</ele>
        <time>2020-09-13T09:49:01Z</time>
      </trkpt>
      <trkpt lat="46.53734" lon="0.36376">
        <ele>107.4</ele>
        <time>2020-09-13T09:49:07Z</time>
      </trkpt>
      <trkpt lat="46.53753" lon="0.36391">
        <ele>108</ele>
        <time>2020-09-13T09:49:11Z</time>
      </trkpt>
      <trkpt lat="46.53757" lon="0.36395">
        <ele>108.2</ele>
        <time>2020-09-13T09:49:12Z</time>
      </trkpt>
      <trkpt lat="46.53779" lon="0.36418">
        <ele>108.6</ele>
        <time>2020-09-13T09:49:18Z</time>
      </trkpt>
      <trkpt lat="46.53808" lon="0.36442">
        <ele>108.4</ele>
        <time>2020-09-13T09:49:24Z</time>
      </trkpt>
      <trkpt lat="46.53813" lon="0.36445">
        <ele>108.2</ele>
        <time>2020-09-13T09:49:25Z</time>
      </trkpt>
      <trkpt lat="46.53823" lon="0.36447">
        <ele>107.8</ele>
        <time>2020-09-13T09:49:27Z</time>
      </trkpt>
      <trkpt lat="46.53827" lon="0.36446">
        <ele>107.8</ele>
        <time>2020-09-13T09:49:28Z</time>
      </trkpt>
      <trkpt lat="46.5383" lon="0.36444">
        <ele>107.8</ele>
        <time>2020-09-13T09:49:29Z</time>
      </trkpt>
      <trkpt lat="46.53834" lon="0.36435">
        <ele>107.8</ele>
        <time>2020-09-13T09:49:31Z</time>
      </trkpt>
      <trkpt lat="46.53834" lon="0.36407">
        <ele>108.2</ele>
        <time>2020-09-13T09:49:35Z</time>
      </trkpt>
      <trkpt lat="46.5383" lon="0.36371">
        <ele>109.2</ele>
        <time>2020-09-13T09:49:40Z</time>
      </trkpt>
      <trkpt lat="46.53829" lon="0.36358">
        <ele>109.4</ele>
        <time>2020-09-13T09:49:42Z</time>
      </trkpt>
      <trkpt lat="46.53825" lon="0.36326">
        <ele>110.2</ele>
        <time>2020-09-13T09:49:47Z</time>
      </trkpt>
      <trkpt lat="46.53823" lon="0.36312">
        <ele>110.4</ele>
        <time>2020-09-13T09:49:49Z</time>
      </trkpt>
      <trkpt lat="46.53823" lon="0.36285">
        <ele>111.2</ele>
        <time>2020-09-13T09:49:53Z</time>
      </trkpt>
      <trkpt lat="46.53824" lon="0.36279">
        <ele>111.2</ele>
        <time>2020-09-13T09:49:54Z</time>
      </trkpt>
      <trkpt lat="46.53825" lon="0.36273">
        <ele>111.4</ele>
        <time>2020-09-13T09:49:55Z</time>
      </trkpt>
      <trkpt lat="46.53826" lon="0.36266">
        <ele>111.6</ele>
        <time>2020-09-13T09:49:56Z</time>
      </trkpt>
      <trkpt lat="46.53836" lon="0.36236">
        <ele>112.2</ele>
        <time>2020-09-13T09:50:01Z</time>
      </trkpt>
      <trkpt lat="46.53839" lon="0.36231">
        <ele>112.4</ele>
        <time>2020-09-13T09:50:02Z</time>
      </trkpt>
      <trkpt lat="46.53862" lon="0.36191">
        <ele>112.8</ele>
        <time>2020-09-13T09:50:09Z</time>
      </trkpt>
      <trkpt lat="46.53899" lon="0.36136">
        <ele>112.6</ele>
        <time>2020-09-13T09:50:18Z</time>
      </trkpt>
      <trkpt lat="46.53934" lon="0.36088">
        <ele>112.4</ele>
        <time>2020-09-13T09:50:26Z</time>
      </trkpt>
      <trkpt lat="46.53944" lon="0.36077">
        <ele>112.2</ele>
        <time>2020-09-13T09:50:28Z</time>
      </trkpt>
      <trkpt lat="46.5396" lon="0.36062">
        <ele>112</ele>
        <time>2020-09-13T09:50:31Z</time>
      </trkpt>
      <trkpt lat="46.5397" lon="0.3605">
        <ele>111.8</ele>
        <time>2020-09-13T09:50:33Z</time>
      </trkpt>
      <trkpt lat="46.53983" lon="0.36027">
        <ele>111.4</ele>
        <time>2020-09-13T09:50:36Z</time>
      </trkpt>
      <trkpt lat="46.5399" lon="0.36008">
        <ele>111.2</ele>
        <time>2020-09-13T09:50:38Z</time>
      </trkpt>
      <trkpt lat="46.53992" lon="0.35997">
        <ele>110.6</ele>
        <time>2020-09-13T09:50:40Z</time>
      </trkpt>
      <trkpt lat="46.53994" lon="0.35974">
        <ele>110.6</ele>
        <time>2020-09-13T09:50:41Z</time>
      </trkpt>
      <trkpt lat="46.53995" lon="0.35951">
        <ele>110</ele>
        <time>2020-09-13T09:50:43Z</time>
      </trkpt>
      <trkpt lat="46.53996" lon="0.3593">
        <ele>109.6</ele>
        <time>2020-09-13T09:50:45Z</time>
      </trkpt>
      <trkpt lat="46.53999" lon="0.35877">
        <ele>109.6</ele>
        <time>2020-09-13T09:50:51Z</time>
      </trkpt>
      <trkpt lat="46.53999" lon="0.35869">
        <ele>109.6</ele>
        <time>2020-09-13T09:50:52Z</time>
      </trkpt>
      <trkpt lat="46.54001" lon="0.35822">
        <ele>111.2</ele>
        <time>2020-09-13T09:50:58Z</time>
      </trkpt>
      <trkpt lat="46.54001" lon="0.35815">
        <ele>111.4</ele>
        <time>2020-09-13T09:50:59Z</time>
      </trkpt>
      <trkpt lat="46.54004" lon="0.35769">
        <ele>112.4</ele>
        <time>2020-09-13T09:51:05Z</time>
      </trkpt>
      <trkpt lat="46.54005" lon="0.35763">
        <ele>112.6</ele>
        <time>2020-09-13T09:51:06Z</time>
      </trkpt>
      <trkpt lat="46.54014" lon="0.35719">
        <ele>113</ele>
        <time>2020-09-13T09:51:12Z</time>
      </trkpt>
      <trkpt lat="46.54019" lon="0.35695">
        <ele>113.4</ele>
        <time>2020-09-13T09:51:15Z</time>
      </trkpt>
      <trkpt lat="46.54026" lon="0.35662">
        <ele>113.6</ele>
        <time>2020-09-13T09:51:19Z</time>
      </trkpt>
      <trkpt lat="46.54045" lon="0.35618">
        <ele>113.8</ele>
        <time>2020-09-13T09:51:25Z</time>
      </trkpt>
      <trkpt lat="46.54071" lon="0.35561">
        <ele>114.4</ele>
        <time>2020-09-13T09:51:33Z</time>
      </trkpt>
      <trkpt lat="46.54074" lon="0.35553">
        <ele>114.4</ele>
        <time>2020-09-13T09:51:34Z</time>
      </trkpt>
      <trkpt lat="46.54087" lon="0.35524">
        <ele>114.4</ele>
        <time>2020-09-13T09:51:38Z</time>
      </trkpt>
      <trkpt lat="46.541" lon="0.35485">
        <ele>114.2</ele>
        <time>2020-09-13T09:51:43Z</time>
      </trkpt>
      <trkpt lat="46.54106" lon="0.35462">
        <ele>114</ele>
        <time>2020-09-13T09:51:46Z</time>
      </trkpt>
      <trkpt lat="46.54106" lon="0.3545">
        <ele>113.8</ele>
        <time>2020-09-13T09:51:48Z</time>
      </trkpt>
      <trkpt lat="46.54106" lon="0.35445">
        <ele>113.6</ele>
        <time>2020-09-13T09:51:49Z</time>
      </trkpt>
      <trkpt lat="46.5411" lon="0.35437">
        <ele>113.4</ele>
        <time>2020-09-13T09:51:51Z</time>
      </trkpt>
      <trkpt lat="46.54112" lon="0.35433">
        <ele>113.4</ele>
        <time>2020-09-13T09:51:52Z</time>
      </trkpt>
      <trkpt lat="46.54127" lon="0.35417">
        <ele>113.2</ele>
        <time>2020-09-13T09:51:56Z</time>
      </trkpt>
      <trkpt lat="46.54156" lon="0.35389">
        <ele>114</ele>
        <time>2020-09-13T09:52:03Z</time>
      </trkpt>
      <trkpt lat="46.5419" lon="0.35374">
        <ele>114.2</ele>
        <time>2020-09-13T09:52:10Z</time>
      </trkpt>
      <trkpt lat="46.54204" lon="0.3537">
        <ele>114.6</ele>
        <time>2020-09-13T09:52:13Z</time>
      </trkpt>
      <trkpt lat="46.54212" lon="0.35368">
        <ele>114.8</ele>
        <time>2020-09-13T09:52:15Z</time>
      </trkpt>
      <trkpt lat="46.54216" lon="0.35368">
        <ele>114.8</ele>
        <time>2020-09-13T09:52:16Z</time>
      </trkpt>
      <trkpt lat="46.54242" lon="0.3537">
        <ele>115</ele>
        <time>2020-09-13T09:52:22Z</time>
      </trkpt>
      <trkpt lat="46.5426" lon="0.35372">
        <ele>115.6</ele>
        <time>2020-09-13T09:52:26Z</time>
      </trkpt>
      <trkpt lat="46.54273" lon="0.35375">
        <ele>115.6</ele>
        <time>2020-09-13T09:52:29Z</time>
      </trkpt>
      <trkpt lat="46.54303" lon="0.35379">
        <ele>115.4</ele>
        <time>2020-09-13T09:52:36Z</time>
      </trkpt>
      <trkpt lat="46.54323" lon="0.35385">
        <ele>115.4</ele>
        <time>2020-09-13T09:52:40Z</time>
      </trkpt>
      <trkpt lat="46.54325" lon="0.35388">
        <ele>115.2</ele>
        <time>2020-09-13T09:52:41Z</time>
      </trkpt>
      <trkpt lat="46.54326" lon="0.35391">
        <ele>115.2</ele>
        <time>2020-09-13T09:52:42Z</time>
      </trkpt>
      <trkpt lat="46.5433" lon="0.35397">
        <ele>115</ele>
        <time>2020-09-13T09:52:44Z</time>
      </trkpt>
      <trkpt lat="46.54333" lon="0.35399">
        <ele>114.8</ele>
        <time>2020-09-13T09:52:45Z</time>
      </trkpt>
      <trkpt lat="46.54334" lon="0.35401">
        <ele>114.6</ele>
        <time>2020-09-13T09:52:46Z</time>
      </trkpt>
      <trkpt lat="46.54337" lon="0.35403">
        <ele>114.4</ele>
        <time>2020-09-13T09:52:47Z</time>
      </trkpt>
      <trkpt lat="46.54339" lon="0.35406">
        <ele>114.2</ele>
        <time>2020-09-13T09:52:48Z</time>
      </trkpt>
      <trkpt lat="46.54344" lon="0.35411">
        <ele>114.2</ele>
        <time>2020-09-13T09:52:51Z</time>
      </trkpt>
      <trkpt lat="46.54347" lon="0.35412">
        <ele>114.2</ele>
        <time>2020-09-13T09:52:53Z</time>
      </trkpt>
      <trkpt lat="46.54362" lon="0.35419">
        <ele>113.8</ele>
        <time>2020-09-13T09:52:59Z</time>
      </trkpt>
      <trkpt lat="46.54371" lon="0.35423">
        <ele>113.8</ele>
        <time>2020-09-13T09:53:02Z</time>
      </trkpt>
      <trkpt lat="46.54374" lon="0.3543">
        <ele>113.6</ele>
        <time>2020-09-13T09:53:04Z</time>
      </trkpt>
      <trkpt lat="46.54378" lon="0.35437">
        <ele>113.4</ele>
        <time>2020-09-13T09:53:06Z</time>
      </trkpt>
      <trkpt lat="46.54383" lon="0.3544">
        <ele>113.4</ele>
        <time>2020-09-13T09:53:08Z</time>
      </trkpt>
      <trkpt lat="46.54397" lon="0.35444">
        <ele>113.4</ele>
        <time>2020-09-13T09:53:12Z</time>
      </trkpt>
      <trkpt lat="46.544" lon="0.35445">
        <ele>113.4</ele>
        <time>2020-09-13T09:53:13Z</time>
      </trkpt>
      <trkpt lat="46.54407" lon="0.3545">
        <ele>113.2</ele>
        <time>2020-09-13T09:53:15Z</time>
      </trkpt>
      <trkpt lat="46.54409" lon="0.35452">
        <ele>113.2</ele>
        <time>2020-09-13T09:53:16Z</time>
      </trkpt>
      <trkpt lat="46.54414" lon="0.35455">
        <ele>113</ele>
        <time>2020-09-13T09:53:17Z</time>
      </trkpt>
      <trkpt lat="46.54424" lon="0.35453">
        <ele>113</ele>
        <time>2020-09-13T09:53:19Z</time>
      </trkpt>
      <trkpt lat="46.54431" lon="0.35448">
        <ele>112.6</ele>
        <time>2020-09-13T09:53:21Z</time>
      </trkpt>
      <trkpt lat="46.54434" lon="0.35445">
        <ele>112.4</ele>
        <time>2020-09-13T09:53:22Z</time>
      </trkpt>
      <trkpt lat="46.54436" lon="0.35443">
        <ele>112.2</ele>
        <time>2020-09-13T09:53:23Z</time>
      </trkpt>
      <trkpt lat="46.54436" lon="0.35441">
        <ele>112</ele>
        <time>2020-09-13T09:53:24Z</time>
      </trkpt>
      <trkpt lat="46.54439" lon="0.35442">
        <ele>111.2</ele>
        <time>2020-09-13T09:53:26Z</time>
      </trkpt>
      <trkpt lat="46.54441" lon="0.35442">
        <ele>110.6</ele>
        <time>2020-09-13T09:53:28Z</time>
      </trkpt>
      <trkpt lat="46.54452" lon="0.35456">
        <ele>110.8</ele>
        <time>2020-09-13T09:53:33Z</time>
      </trkpt>
      <trkpt lat="46.54454" lon="0.35459">
        <ele>110.8</ele>
        <time>2020-09-13T09:53:34Z</time>
      </trkpt>
      <trkpt lat="46.54456" lon="0.35463">
        <ele>110</ele>
        <time>2020-09-13T09:53:37Z</time>
      </trkpt>
      <trkpt lat="46.54458" lon="0.35468">
        <ele>109.8</ele>
        <time>2020-09-13T09:53:38Z</time>
      </trkpt>
      <trkpt lat="46.54458" lon="0.35469">
        <ele>109.8</ele>
        <time>2020-09-13T09:53:39Z</time>
      </trkpt>
      <trkpt lat="46.54462" lon="0.35472">
        <ele>109.8</ele>
        <time>2020-09-13T09:53:41Z</time>
      </trkpt>
      <trkpt lat="46.54465" lon="0.35476">
        <ele>109.6</ele>
        <time>2020-09-13T09:53:43Z</time>
      </trkpt>
      <trkpt lat="46.54474" lon="0.35476">
        <ele>109</ele>
        <time>2020-09-13T09:53:47Z</time>
      </trkpt>
      <trkpt lat="46.54481" lon="0.35473">
        <ele>108.8</ele>
        <time>2020-09-13T09:53:48Z</time>
      </trkpt>
      <trkpt lat="46.54485" lon="0.35468">
        <ele>108.8</ele>
        <time>2020-09-13T09:53:50Z</time>
      </trkpt>
      <trkpt lat="46.54487" lon="0.35465">
        <ele>108.6</ele>
        <time>2020-09-13T09:53:51Z</time>
      </trkpt>
      <trkpt lat="46.54488" lon="0.35462">
        <ele>108.2</ele>
        <time>2020-09-13T09:53:52Z</time>
      </trkpt>
      <trkpt lat="46.54491" lon="0.35459">
        <ele>107.8</ele>
        <time>2020-09-13T09:53:53Z</time>
      </trkpt>
      <trkpt lat="46.54493" lon="0.35456">
        <ele>107</ele>
        <time>2020-09-13T09:53:56Z</time>
      </trkpt>
      <trkpt lat="46.54496" lon="0.35452">
        <ele>106.8</ele>
        <time>2020-09-13T09:53:58Z</time>
      </trkpt>
      <trkpt lat="46.54498" lon="0.35448">
        <ele>106.8</ele>
        <time>2020-09-13T09:54:00Z</time>
      </trkpt>
      <trkpt lat="46.54503" lon="0.35446">
        <ele>106.8</ele>
        <time>2020-09-13T09:54:02Z</time>
      </trkpt>
      <trkpt lat="46.54505" lon="0.35444">
        <ele>106.8</ele>
        <time>2020-09-13T09:54:03Z</time>
      </trkpt>
      <trkpt lat="46.54506" lon="0.35441">
        <ele>106.6</ele>
        <time>2020-09-13T09:54:05Z</time>
      </trkpt>
      <trkpt lat="46.54509" lon="0.35436">
        <ele>106.2</ele>
        <time>2020-09-13T09:54:07Z</time>
      </trkpt>
      <trkpt lat="46.54514" lon="0.35436">
        <ele>105.8</ele>
        <time>2020-09-13T09:54:09Z</time>
      </trkpt>
      <trkpt lat="46.54515" lon="0.35435">
        <ele>105.6</ele>
        <time>2020-09-13T09:54:10Z</time>
      </trkpt>
      <trkpt lat="46.54522" lon="0.35432">
        <ele>104.6</ele>
        <time>2020-09-13T09:54:12Z</time>
      </trkpt>
      <trkpt lat="46.54522" lon="0.35432">
        <ele>104.2</ele>
        <time>2020-09-13T09:54:13Z</time>
      </trkpt>
      <trkpt lat="46.54535" lon="0.35412">
        <ele>104</ele>
        <time>2020-09-13T09:54:18Z</time>
      </trkpt>
      <trkpt lat="46.54548" lon="0.35384">
        <ele>104.8</ele>
        <time>2020-09-13T09:54:25Z</time>
      </trkpt>
      <trkpt lat="46.5455" lon="0.35363">
        <ele>105</ele>
        <time>2020-09-13T09:54:29Z</time>
      </trkpt>
      <trkpt lat="46.54552" lon="0.3536">
        <ele>105</ele>
        <time>2020-09-13T09:54:30Z</time>
      </trkpt>
      <trkpt lat="46.54566" lon="0.35354">
        <ele>104.6</ele>
        <time>2020-09-13T09:54:35Z</time>
      </trkpt>
      <trkpt lat="46.54578" lon="0.35352">
        <ele>103.4</ele>
        <time>2020-09-13T09:54:38Z</time>
      </trkpt>
      <trkpt lat="46.5458" lon="0.35354">
        <ele>102.8</ele>
        <time>2020-09-13T09:54:39Z</time>
      </trkpt>
      <trkpt lat="46.54583" lon="0.35356">
        <ele>102</ele>
        <time>2020-09-13T09:54:40Z</time>
      </trkpt>
      <trkpt lat="46.54589" lon="0.35356">
        <ele>100</ele>
        <time>2020-09-13T09:54:42Z</time>
      </trkpt>
      <trkpt lat="46.54592" lon="0.35358">
        <ele>98.8</ele>
        <time>2020-09-13T09:54:43Z</time>
      </trkpt>
      <trkpt lat="46.54598" lon="0.3536">
        <ele>97.2</ele>
        <time>2020-09-13T09:54:44Z</time>
      </trkpt>
      <trkpt lat="46.54602" lon="0.35363">
        <ele>96</ele>
        <time>2020-09-13T09:54:45Z</time>
      </trkpt>
      <trkpt lat="46.54613" lon="0.3537">
        <ele>94.2</ele>
        <time>2020-09-13T09:54:47Z</time>
      </trkpt>
      <trkpt lat="46.54624" lon="0.35377">
        <ele>92.4</ele>
        <time>2020-09-13T09:54:49Z</time>
      </trkpt>
      <trkpt lat="46.54637" lon="0.35391">
        <ele>91</ele>
        <time>2020-09-13T09:54:52Z</time>
      </trkpt>
      <trkpt lat="46.54643" lon="0.35399">
        <ele>89.6</ele>
        <time>2020-09-13T09:54:54Z</time>
      </trkpt>
      <trkpt lat="46.54649" lon="0.35404">
        <ele>88.6</ele>
        <time>2020-09-13T09:54:56Z</time>
      </trkpt>
      <trkpt lat="46.54654" lon="0.35409">
        <ele>88.2</ele>
        <time>2020-09-13T09:54:57Z</time>
      </trkpt>
      <trkpt lat="46.54668" lon="0.35425">
        <ele>87.4</ele>
        <time>2020-09-13T09:55:00Z</time>
      </trkpt>
      <trkpt lat="46.54672" lon="0.35431">
        <ele>87.2</ele>
        <time>2020-09-13T09:55:01Z</time>
      </trkpt>
      <trkpt lat="46.54674" lon="0.35436">
        <ele>86.8</ele>
        <time>2020-09-13T09:55:02Z</time>
      </trkpt>
      <trkpt lat="46.54679" lon="0.35442">
        <ele>86.4</ele>
        <time>2020-09-13T09:55:03Z</time>
      </trkpt>
      <trkpt lat="46.54681" lon="0.35446">
        <ele>86</ele>
        <time>2020-09-13T09:55:04Z</time>
      </trkpt>
      <trkpt lat="46.54682" lon="0.3545">
        <ele>85.8</ele>
        <time>2020-09-13T09:55:05Z</time>
      </trkpt>
      <trkpt lat="46.5469" lon="0.35473">
        <ele>85.6</ele>
        <time>2020-09-13T09:55:09Z</time>
      </trkpt>
      <trkpt lat="46.54694" lon="0.35503">
        <ele>85.8</ele>
        <time>2020-09-13T09:55:14Z</time>
      </trkpt>
      <trkpt lat="46.54697" lon="0.35518">
        <ele>85.2</ele>
        <time>2020-09-13T09:55:17Z</time>
      </trkpt>
      <trkpt lat="46.54698" lon="0.3552">
        <ele>85</ele>
        <time>2020-09-13T09:55:18Z</time>
      </trkpt>
      <trkpt lat="46.54699" lon="0.35523">
        <ele>84.6</ele>
        <time>2020-09-13T09:55:19Z</time>
      </trkpt>
      <trkpt lat="46.54703" lon="0.35527">
        <ele>83.4</ele>
        <time>2020-09-13T09:55:21Z</time>
      </trkpt>
      <trkpt lat="46.54708" lon="0.35531">
        <ele>82.4</ele>
        <time>2020-09-13T09:55:23Z</time>
      </trkpt>
      <trkpt lat="46.5471" lon="0.35533">
        <ele>81.8</ele>
        <time>2020-09-13T09:55:24Z</time>
      </trkpt>
      <trkpt lat="46.54715" lon="0.3554">
        <ele>80.6</ele>
        <time>2020-09-13T09:55:27Z</time>
      </trkpt>
      <trkpt lat="46.54719" lon="0.35545">
        <ele>79.2</ele>
        <time>2020-09-13T09:55:29Z</time>
      </trkpt>
      <trkpt lat="46.54722" lon="0.35548">
        <ele>78.2</ele>
        <time>2020-09-13T09:55:30Z</time>
      </trkpt>
      <trkpt lat="46.54724" lon="0.3555">
        <ele>76.4</ele>
        <time>2020-09-13T09:55:31Z</time>
      </trkpt>
      <trkpt lat="46.54727" lon="0.35557">
        <ele>76.4</ele>
        <time>2020-09-13T09:55:34Z</time>
      </trkpt>
      <trkpt lat="46.54729" lon="0.35578">
        <ele>77</ele>
        <time>2020-09-13T09:55:40Z</time>
      </trkpt>
      <trkpt lat="46.54728" lon="0.35583">
        <ele>77.8</ele>
        <time>2020-09-13T09:55:42Z</time>
      </trkpt>
      <trkpt lat="46.54727" lon="0.3559">
        <ele>79.2</ele>
        <time>2020-09-13T09:55:45Z</time>
      </trkpt>
      <trkpt lat="46.54727" lon="0.35595">
        <ele>79.8</ele>
        <time>2020-09-13T09:55:47Z</time>
      </trkpt>
      <trkpt lat="46.54727" lon="0.35598">
        <ele>80.4</ele>
        <time>2020-09-13T09:55:49Z</time>
      </trkpt>
      <trkpt lat="46.54726" lon="0.35603">
        <ele>81.4</ele>
        <time>2020-09-13T09:55:52Z</time>
      </trkpt>
      <trkpt lat="46.54726" lon="0.35607">
        <ele>82.4</ele>
        <time>2020-09-13T09:55:55Z</time>
      </trkpt>
      <trkpt lat="46.54725" lon="0.35609">
        <ele>82.8</ele>
        <time>2020-09-13T09:55:56Z</time>
      </trkpt>
      <trkpt lat="46.54725" lon="0.35614">
        <ele>83.2</ele>
        <time>2020-09-13T09:55:58Z</time>
      </trkpt>
      <trkpt lat="46.54727" lon="0.35625">
        <ele>83.8</ele>
        <time>2020-09-13T09:56:03Z</time>
      </trkpt>
      <trkpt lat="46.54727" lon="0.35628">
        <ele>83.8</ele>
        <time>2020-09-13T09:56:04Z</time>
      </trkpt>
      <trkpt lat="46.54731" lon="0.35652">
        <ele>83.2</ele>
        <time>2020-09-13T09:56:13Z</time>
      </trkpt>
      <trkpt lat="46.54731" lon="0.35653">
        <ele>83.2</ele>
        <time>2020-09-13T09:56:14Z</time>
      </trkpt>
      <trkpt lat="46.54732" lon="0.35665">
        <ele>83.6</ele>
        <time>2020-09-13T09:56:24Z</time>
      </trkpt>
      <trkpt lat="46.54733" lon="0.35672">
        <ele>83.2</ele>
        <time>2020-09-13T09:56:35Z</time>
      </trkpt>
      <trkpt lat="46.54731" lon="0.35676">
        <ele>84.2</ele>
        <time>2020-09-13T09:56:41Z</time>
      </trkpt>
      <trkpt lat="46.5473" lon="0.3568">
        <ele>84.8</ele>
        <time>2020-09-13T09:56:44Z</time>
      </trkpt>
      <trkpt lat="46.5473" lon="0.35681">
        <ele>85</ele>
        <time>2020-09-13T09:56:45Z</time>
      </trkpt>
      <trkpt lat="46.54729" lon="0.35682">
        <ele>85.4</ele>
        <time>2020-09-13T09:56:46Z</time>
      </trkpt>
      <trkpt lat="46.54729" lon="0.35683">
        <ele>86.2</ele>
        <time>2020-09-13T09:56:48Z</time>
      </trkpt>
      <trkpt lat="46.54726" lon="0.35687">
        <ele>86.8</ele>
        <time>2020-09-13T09:56:50Z</time>
      </trkpt>
      <trkpt lat="46.54724" lon="0.35689">
        <ele>87.2</ele>
        <time>2020-09-13T09:56:52Z</time>
      </trkpt>
      <trkpt lat="46.54721" lon="0.35692">
        <ele>88.2</ele>
        <time>2020-09-13T09:56:56Z</time>
      </trkpt>
      <trkpt lat="46.5472" lon="0.35694">
        <ele>88.4</ele>
        <time>2020-09-13T09:56:57Z</time>
      </trkpt>
      <trkpt lat="46.54718" lon="0.35697">
        <ele>89.6</ele>
        <time>2020-09-13T09:57:02Z</time>
      </trkpt>
      <trkpt lat="46.54716" lon="0.357">
        <ele>90</ele>
        <time>2020-09-13T09:57:05Z</time>
      </trkpt>
      <trkpt lat="46.54716" lon="0.357">
        <ele>90.4</ele>
        <time>2020-09-13T09:57:08Z</time>
      </trkpt>
      <trkpt lat="46.54715" lon="0.35701">
        <ele>90.6</ele>
        <time>2020-09-13T09:57:10Z</time>
      </trkpt>
      <trkpt lat="46.54711" lon="0.35705">
        <ele>91.4</ele>
        <time>2020-09-13T09:57:15Z</time>
      </trkpt>
      <trkpt lat="46.5471" lon="0.35706">
        <ele>91.8</ele>
        <time>2020-09-13T09:57:16Z</time>
      </trkpt>
      <trkpt lat="46.54709" lon="0.35708">
        <ele>92.4</ele>
        <time>2020-09-13T09:57:18Z</time>
      </trkpt>
      <trkpt lat="46.54707" lon="0.35709">
        <ele>92.8</ele>
        <time>2020-09-13T09:57:20Z</time>
      </trkpt>
      <trkpt lat="46.54703" lon="0.35712">
        <ele>94</ele>
        <time>2020-09-13T09:57:24Z</time>
      </trkpt>
      <trkpt lat="46.54701" lon="0.35716">
        <ele>94.8</ele>
        <time>2020-09-13T09:57:27Z</time>
      </trkpt>
      <trkpt lat="46.547" lon="0.35718">
        <ele>95</ele>
        <time>2020-09-13T09:57:29Z</time>
      </trkpt>
      <trkpt lat="46.54698" lon="0.35725">
        <ele>96.2</ele>
        <time>2020-09-13T09:57:34Z</time>
      </trkpt>
      <trkpt lat="46.54697" lon="0.35727">
        <ele>96.4</ele>
        <time>2020-09-13T09:57:35Z</time>
      </trkpt>
      <trkpt lat="46.54697" lon="0.35729">
        <ele>96.8</ele>
        <time>2020-09-13T09:57:37Z</time>
      </trkpt>
      <trkpt lat="46.54695" lon="0.35732">
        <ele>97.2</ele>
        <time>2020-09-13T09:57:39Z</time>
      </trkpt>
      <trkpt lat="46.54692" lon="0.35743">
        <ele>98</ele>
        <time>2020-09-13T09:57:45Z</time>
      </trkpt>
      <trkpt lat="46.54691" lon="0.35744">
        <ele>98.2</ele>
        <time>2020-09-13T09:57:46Z</time>
      </trkpt>
      <trkpt lat="46.5469" lon="0.35751">
        <ele>98.4</ele>
        <time>2020-09-13T09:57:53Z</time>
      </trkpt>
      <trkpt lat="46.54694" lon="0.35768">
        <ele>98.4</ele>
        <time>2020-09-13T09:58:02Z</time>
      </trkpt>
      <trkpt lat="46.54699" lon="0.35779">
        <ele>98.6</ele>
        <time>2020-09-13T09:58:07Z</time>
      </trkpt>
      <trkpt lat="46.547" lon="0.35784">
        <ele>99.4</ele>
        <time>2020-09-13T09:58:10Z</time>
      </trkpt>
      <trkpt lat="46.54701" lon="0.35788">
        <ele>99.8</ele>
        <time>2020-09-13T09:58:12Z</time>
      </trkpt>
      <trkpt lat="46.54702" lon="0.35792">
        <ele>100.2</ele>
        <time>2020-09-13T09:58:14Z</time>
      </trkpt>
      <trkpt lat="46.54702" lon="0.35795">
        <ele>100.2</ele>
        <time>2020-09-13T09:58:15Z</time>
      </trkpt>
      <trkpt lat="46.54705" lon="0.35796">
        <ele>100.2</ele>
        <time>2020-09-13T09:58:19Z</time>
      </trkpt>
      <trkpt lat="46.5471" lon="0.35788">
        <ele>98.8</ele>
        <time>2020-09-13T09:58:25Z</time>
      </trkpt>
      <trkpt lat="46.54711" lon="0.35787">
        <ele>98.2</ele>
        <time>2020-09-13T09:58:26Z</time>
      </trkpt>
      <trkpt lat="46.54712" lon="0.35785">
        <ele>96.6</ele>
        <time>2020-09-13T09:58:28Z</time>
      </trkpt>
      <trkpt lat="46.54714" lon="0.35784">
        <ele>95.4</ele>
        <time>2020-09-13T09:58:30Z</time>
      </trkpt>
      <trkpt lat="46.54715" lon="0.35783">
        <ele>95</ele>
        <time>2020-09-13T09:58:31Z</time>
      </trkpt>
      <trkpt lat="46.54718" lon="0.3578">
        <ele>94</ele>
        <time>2020-09-13T09:58:34Z</time>
      </trkpt>
      <trkpt lat="46.5472" lon="0.35779">
        <ele>92.8</ele>
        <time>2020-09-13T09:58:36Z</time>
      </trkpt>
      <trkpt lat="46.5472" lon="0.35779">
        <ele>91.6</ele>
        <time>2020-09-13T09:58:37Z</time>
      </trkpt>
      <trkpt lat="46.54721" lon="0.35777">
        <ele>91.6</ele>
        <time>2020-09-13T09:58:39Z</time>
      </trkpt>
      <trkpt lat="46.54724" lon="0.3577">
        <ele>90.6</ele>
        <time>2020-09-13T09:58:44Z</time>
      </trkpt>
      <trkpt lat="46.54725" lon="0.35768">
        <ele>90.2</ele>
        <time>2020-09-13T09:58:46Z</time>
      </trkpt>
      <trkpt lat="46.54728" lon="0.35763">
        <ele>89.4</ele>
        <time>2020-09-13T09:58:50Z</time>
      </trkpt>
      <trkpt lat="46.54731" lon="0.35757">
        <ele>88.2</ele>
        <time>2020-09-13T09:58:54Z</time>
      </trkpt>
      <trkpt lat="46.54733" lon="0.35756">
        <ele>87.4</ele>
        <time>2020-09-13T09:58:56Z</time>
      </trkpt>
      <trkpt lat="46.54733" lon="0.35754">
        <ele>87</ele>
        <time>2020-09-13T09:58:58Z</time>
      </trkpt>
      <trkpt lat="46.54733" lon="0.35754">
        <ele>87</ele>
        <time>2020-09-13T09:58:59Z</time>
      </trkpt>
      <trkpt lat="46.54735" lon="0.35754">
        <ele>86</ele>
        <time>2020-09-13T09:59:02Z</time>
      </trkpt>
      <trkpt lat="46.54736" lon="0.35755">
        <ele>85.4</ele>
        <time>2020-09-13T09:59:08Z</time>
      </trkpt>
      <trkpt lat="46.54736" lon="0.35756">
        <ele>85.4</ele>
        <time>2020-09-13T09:59:10Z</time>
      </trkpt>
      <trkpt lat="46.54737" lon="0.35757">
        <ele>85</ele>
        <time>2020-09-13T09:59:14Z</time>
      </trkpt>
      <trkpt lat="46.54738" lon="0.35755">
        <ele>83.8</ele>
        <time>2020-09-13T09:59:17Z</time>
      </trkpt>
      <trkpt lat="46.54739" lon="0.35753">
        <ele>83.4</ele>
        <time>2020-09-13T09:59:19Z</time>
      </trkpt>
      <trkpt lat="46.54739" lon="0.35751">
        <ele>83.2</ele>
        <time>2020-09-13T09:59:21Z</time>
      </trkpt>
      <trkpt lat="46.54739" lon="0.35748">
        <ele>83.2</ele>
        <time>2020-09-13T09:59:24Z</time>
      </trkpt>
      <trkpt lat="46.5474" lon="0.35746">
        <ele>82.6</ele>
        <time>2020-09-13T09:59:27Z</time>
      </trkpt>
      <trkpt lat="46.54741" lon="0.35746">
        <ele>82.4</ele>
        <time>2020-09-13T09:59:28Z</time>
      </trkpt>
      <trkpt lat="46.54741" lon="0.35744">
        <ele>82</ele>
        <time>2020-09-13T09:59:31Z</time>
      </trkpt>
      <trkpt lat="46.54742" lon="0.35741">
        <ele>81.4</ele>
        <time>2020-09-13T09:59:34Z</time>
      </trkpt>
      <trkpt lat="46.54745" lon="0.35737">
        <ele>80.2</ele>
        <time>2020-09-13T09:59:40Z</time>
      </trkpt>
      <trkpt lat="46.54746" lon="0.35734">
        <ele>79.2</ele>
        <time>2020-09-13T09:59:45Z</time>
      </trkpt>
      <trkpt lat="46.54749" lon="0.35732">
        <ele>78</ele>
        <time>2020-09-13T09:59:51Z</time>
      </trkpt>
      <trkpt lat="46.54751" lon="0.35731">
        <ele>77</ele>
        <time>2020-09-13T09:59:56Z</time>
      </trkpt>
      <trkpt lat="46.54753" lon="0.35731">
        <ele>76.4</ele>
        <time>2020-09-13T09:59:59Z</time>
      </trkpt>
      <trkpt lat="46.54757" lon="0.35734">
        <ele>76</ele>
        <time>2020-09-13T10:00:07Z</time>
      </trkpt>
      <trkpt lat="46.54757" lon="0.35735">
        <ele>75.8</ele>
        <time>2020-09-13T10:00:09Z</time>
      </trkpt>
      <trkpt lat="46.54757" lon="0.35748">
        <ele>76</ele>
        <time>2020-09-13T10:00:17Z</time>
      </trkpt>
      <trkpt lat="46.54757" lon="0.3577">
        <ele>76</ele>
        <time>2020-09-13T10:00:25Z</time>
      </trkpt>
      <trkpt lat="46.5476" lon="0.35794">
        <ele>76.2</ele>
        <time>2020-09-13T10:00:31Z</time>
      </trkpt>
      <trkpt lat="46.54761" lon="0.35808">
        <ele>76</ele>
        <time>2020-09-13T10:00:34Z</time>
      </trkpt>
      <trkpt lat="46.54762" lon="0.35825">
        <ele>76</ele>
        <time>2020-09-13T10:00:38Z</time>
      </trkpt>
      <trkpt lat="46.54766" lon="0.35839">
        <ele>76.2</ele>
        <time>2020-09-13T10:00:41Z</time>
      </trkpt>
      <trkpt lat="46.54769" lon="0.35848">
        <ele>76.2</ele>
        <time>2020-09-13T10:00:43Z</time>
      </trkpt>
      <trkpt lat="46.5477" lon="0.35852">
        <ele>76.2</ele>
        <time>2020-09-13T10:00:44Z</time>
      </trkpt>
      <trkpt lat="46.54771" lon="0.35854">
        <ele>76</ele>
        <time>2020-09-13T10:00:45Z</time>
      </trkpt>
      <trkpt lat="46.54775" lon="0.3586">
        <ele>76</ele>
        <time>2020-09-13T10:00:48Z</time>
      </trkpt>
      <trkpt lat="46.54778" lon="0.35879">
        <ele>77</ele>
        <time>2020-09-13T10:00:57Z</time>
      </trkpt>
      <trkpt lat="46.54779" lon="0.35883">
        <ele>77.4</ele>
        <time>2020-09-13T10:00:59Z</time>
      </trkpt>
      <trkpt lat="46.54779" lon="0.35888">
        <ele>78</ele>
        <time>2020-09-13T10:01:01Z</time>
      </trkpt>
      <trkpt lat="46.54779" lon="0.35888">
        <ele>78.2</ele>
        <time>2020-09-13T10:01:02Z</time>
      </trkpt>
      <trkpt lat="46.54778" lon="0.35891">
        <ele>78.4</ele>
        <time>2020-09-13T10:01:03Z</time>
      </trkpt>
      <trkpt lat="46.54778" lon="0.35894">
        <ele>79</ele>
        <time>2020-09-13T10:01:05Z</time>
      </trkpt>
      <trkpt lat="46.54778" lon="0.35896">
        <ele>79.2</ele>
        <time>2020-09-13T10:01:07Z</time>
      </trkpt>
      <trkpt lat="46.54778" lon="0.35899">
        <ele>79.6</ele>
        <time>2020-09-13T10:01:09Z</time>
      </trkpt>
      <trkpt lat="46.54778" lon="0.35901">
        <ele>79.8</ele>
        <time>2020-09-13T10:01:11Z</time>
      </trkpt>
      <trkpt lat="46.54778" lon="0.35906">
        <ele>80.4</ele>
        <time>2020-09-13T10:01:14Z</time>
      </trkpt>
      <trkpt lat="46.54778" lon="0.35908">
        <ele>80.8</ele>
        <time>2020-09-13T10:01:17Z</time>
      </trkpt>
      <trkpt lat="46.54779" lon="0.35912">
        <ele>81.2</ele>
        <time>2020-09-13T10:01:19Z</time>
      </trkpt>
      <trkpt lat="46.54779" lon="0.35912">
        <ele>81.6</ele>
        <time>2020-09-13T10:01:20Z</time>
      </trkpt>
      <trkpt lat="46.5478" lon="0.35916">
        <ele>81.8</ele>
        <time>2020-09-13T10:01:22Z</time>
      </trkpt>
      <trkpt lat="46.54781" lon="0.35918">
        <ele>81.8</ele>
        <time>2020-09-13T10:01:24Z</time>
      </trkpt>
      <trkpt lat="46.54781" lon="0.35921">
        <ele>82</ele>
        <time>2020-09-13T10:01:26Z</time>
      </trkpt>
      <trkpt lat="46.54779" lon="0.35923">
        <ele>82.6</ele>
        <time>2020-09-13T10:01:30Z</time>
      </trkpt>
      <trkpt lat="46.54778" lon="0.35924">
        <ele>83.4</ele>
        <time>2020-09-13T10:01:35Z</time>
      </trkpt>
      <trkpt lat="46.54772" lon="0.35924">
        <ele>83.4</ele>
        <time>2020-09-13T10:01:45Z</time>
      </trkpt>
      <trkpt lat="46.54771" lon="0.35924">
        <ele>83.8</ele>
        <time>2020-09-13T10:01:46Z</time>
      </trkpt>
      <trkpt lat="46.54769" lon="0.35922">
        <ele>84.8</ele>
        <time>2020-09-13T10:01:49Z</time>
      </trkpt>
      <trkpt lat="46.54768" lon="0.35921">
        <ele>85.4</ele>
        <time>2020-09-13T10:01:50Z</time>
      </trkpt>
      <trkpt lat="46.54768" lon="0.35921">
        <ele>85.4</ele>
        <time>2020-09-13T10:01:52Z</time>
      </trkpt>
      <trkpt lat="46.54767" lon="0.35919">
        <ele>85.6</ele>
        <time>2020-09-13T10:01:54Z</time>
      </trkpt>
      <trkpt lat="46.54766" lon="0.35918">
        <ele>85.8</ele>
        <time>2020-09-13T10:01:57Z</time>
      </trkpt>
      <trkpt lat="46.54766" lon="0.35917">
        <ele>86</ele>
        <time>2020-09-13T10:01:58Z</time>
      </trkpt>
      <trkpt lat="46.54764" lon="0.35914">
        <ele>86.2</ele>
        <time>2020-09-13T10:02:02Z</time>
      </trkpt>
      <trkpt lat="46.54764" lon="0.35913">
        <ele>86.4</ele>
        <time>2020-09-13T10:02:04Z</time>
      </trkpt>
      <trkpt lat="46.54761" lon="0.35909">
        <ele>86.6</ele>
        <time>2020-09-13T10:02:09Z</time>
      </trkpt>
      <trkpt lat="46.5476" lon="0.35907">
        <ele>86.6</ele>
        <time>2020-09-13T10:02:11Z</time>
      </trkpt>
      <trkpt lat="46.54755" lon="0.359">
        <ele>87</ele>
        <time>2020-09-13T10:02:16Z</time>
      </trkpt>
      <trkpt lat="46.54753" lon="0.35898">
        <ele>87.4</ele>
        <time>2020-09-13T10:02:19Z</time>
      </trkpt>
      <trkpt lat="46.54753" lon="0.35898">
        <ele>87.4</ele>
        <time>2020-09-13T10:02:20Z</time>
      </trkpt>
      <trkpt lat="46.5475" lon="0.35896">
        <ele>88.6</ele>
        <time>2020-09-13T10:02:25Z</time>
      </trkpt>
      <trkpt lat="46.54746" lon="0.35891">
        <ele>89.4</ele>
        <time>2020-09-13T10:02:34Z</time>
      </trkpt>
      <trkpt lat="46.54746" lon="0.3589">
        <ele>89.6</ele>
        <time>2020-09-13T10:02:36Z</time>
      </trkpt>
      <trkpt lat="46.54745" lon="0.35888">
        <ele>89.6</ele>
        <time>2020-09-13T10:02:37Z</time>
      </trkpt>
      <trkpt lat="46.54742" lon="0.35875">
        <ele>90</ele>
        <time>2020-09-13T10:02:42Z</time>
      </trkpt>
      <trkpt lat="46.54738" lon="0.35865">
        <ele>90.6</ele>
        <time>2020-09-13T10:02:47Z</time>
      </trkpt>
      <trkpt lat="46.54737" lon="0.35864">
        <ele>90.6</ele>
        <time>2020-09-13T10:02:48Z</time>
      </trkpt>
      <trkpt lat="46.54736" lon="0.35863">
        <ele>90.8</ele>
        <time>2020-09-13T10:02:49Z</time>
      </trkpt>
      <trkpt lat="46.54735" lon="0.35861">
        <ele>90.8</ele>
        <time>2020-09-13T10:02:50Z</time>
      </trkpt>
      <trkpt lat="46.54732" lon="0.3586">
        <ele>91.8</ele>
        <time>2020-09-13T10:02:54Z</time>
      </trkpt>
      <trkpt lat="46.54731" lon="0.3586">
        <ele>92.2</ele>
        <time>2020-09-13T10:02:57Z</time>
      </trkpt>
      <trkpt lat="46.5473" lon="0.35861">
        <ele>92.8</ele>
        <time>2020-09-13T10:03:00Z</time>
      </trkpt>
      <trkpt lat="46.5473" lon="0.35862">
        <ele>93.2</ele>
        <time>2020-09-13T10:03:01Z</time>
      </trkpt>
      <trkpt lat="46.5473" lon="0.35867">
        <ele>93.4</ele>
        <time>2020-09-13T10:03:05Z</time>
      </trkpt>
      <trkpt lat="46.54731" lon="0.35868">
        <ele>93.6</ele>
        <time>2020-09-13T10:03:06Z</time>
      </trkpt>
      <trkpt lat="46.54731" lon="0.35873">
        <ele>94</ele>
        <time>2020-09-13T10:03:11Z</time>
      </trkpt>
      <trkpt lat="46.54732" lon="0.35876">
        <ele>94.2</ele>
        <time>2020-09-13T10:03:14Z</time>
      </trkpt>
      <trkpt lat="46.54732" lon="0.35878">
        <ele>94.2</ele>
        <time>2020-09-13T10:03:16Z</time>
      </trkpt>
      <trkpt lat="46.54731" lon="0.35881">
        <ele>94.6</ele>
        <time>2020-09-13T10:03:18Z</time>
      </trkpt>
      <trkpt lat="46.5473" lon="0.35882">
        <ele>95</ele>
        <time>2020-09-13T10:03:20Z</time>
      </trkpt>
      <trkpt lat="46.54729" lon="0.35884">
        <ele>95.2</ele>
        <time>2020-09-13T10:03:22Z</time>
      </trkpt>
      <trkpt lat="46.54729" lon="0.35887">
        <ele>95.6</ele>
        <time>2020-09-13T10:03:28Z</time>
      </trkpt>
      <trkpt lat="46.54732" lon="0.35904">
        <ele>94.8</ele>
        <time>2020-09-13T10:03:35Z</time>
      </trkpt>
      <trkpt lat="46.54741" lon="0.35928">
        <ele>94.2</ele>
        <time>2020-09-13T10:03:41Z</time>
      </trkpt>
      <trkpt lat="46.54744" lon="0.35936">
        <ele>94</ele>
        <time>2020-09-13T10:03:43Z</time>
      </trkpt>
      <trkpt lat="46.54751" lon="0.35946">
        <ele>93.2</ele>
        <time>2020-09-13T10:03:48Z</time>
      </trkpt>
      <trkpt lat="46.54753" lon="0.35946">
        <ele>92.8</ele>
        <time>2020-09-13T10:03:51Z</time>
      </trkpt>
      <trkpt lat="46.54757" lon="0.35944">
        <ele>91.6</ele>
        <time>2020-09-13T10:03:54Z</time>
      </trkpt>
      <trkpt lat="46.54758" lon="0.35943">
        <ele>90.2</ele>
        <time>2020-09-13T10:03:57Z</time>
      </trkpt>
      <trkpt lat="46.5476" lon="0.35942">
        <ele>89.8</ele>
        <time>2020-09-13T10:03:59Z</time>
      </trkpt>
      <trkpt lat="46.54761" lon="0.35941">
        <ele>89.2</ele>
        <time>2020-09-13T10:04:01Z</time>
      </trkpt>
      <trkpt lat="46.54764" lon="0.35942">
        <ele>88.2</ele>
        <time>2020-09-13T10:04:06Z</time>
      </trkpt>
      <trkpt lat="46.54765" lon="0.35942">
        <ele>88</ele>
        <time>2020-09-13T10:04:07Z</time>
      </trkpt>
      <trkpt lat="46.54767" lon="0.35939">
        <ele>86.8</ele>
        <time>2020-09-13T10:04:12Z</time>
      </trkpt>
      <trkpt lat="46.54769" lon="0.35938">
        <ele>85.8</ele>
        <time>2020-09-13T10:04:14Z</time>
      </trkpt>
      <trkpt lat="46.5477" lon="0.35937">
        <ele>85.4</ele>
        <time>2020-09-13T10:04:15Z</time>
      </trkpt>
      <trkpt lat="46.5477" lon="0.35937">
        <ele>85</ele>
        <time>2020-09-13T10:04:16Z</time>
      </trkpt>
      <trkpt lat="46.54772" lon="0.35935">
        <ele>84.6</ele>
        <time>2020-09-13T10:04:17Z</time>
      </trkpt>
      <trkpt lat="46.54772" lon="0.35934">
        <ele>84</ele>
        <time>2020-09-13T10:04:18Z</time>
      </trkpt>
      <trkpt lat="46.54774" lon="0.35933">
        <ele>82.2</ele>
        <time>2020-09-13T10:04:20Z</time>
      </trkpt>
      <trkpt lat="46.54777" lon="0.35931">
        <ele>80.8</ele>
        <time>2020-09-13T10:04:22Z</time>
      </trkpt>
      <trkpt lat="46.54778" lon="0.35928">
        <ele>80</ele>
        <time>2020-09-13T10:04:24Z</time>
      </trkpt>
      <trkpt lat="46.5478" lon="0.35926">
        <ele>79.4</ele>
        <time>2020-09-13T10:04:26Z</time>
      </trkpt>
      <trkpt lat="46.54783" lon="0.35924">
        <ele>77.6</ele>
        <time>2020-09-13T10:04:28Z</time>
      </trkpt>
      <trkpt lat="46.54785" lon="0.35925">
        <ele>76.8</ele>
        <time>2020-09-13T10:04:30Z</time>
      </trkpt>
      <trkpt lat="46.54787" lon="0.35925">
        <ele>76.6</ele>
        <time>2020-09-13T10:04:31Z</time>
      </trkpt>
      <trkpt lat="46.54794" lon="0.35932">
        <ele>76</ele>
        <time>2020-09-13T10:04:37Z</time>
      </trkpt>
      <trkpt lat="46.54795" lon="0.35932">
        <ele>75.8</ele>
        <time>2020-09-13T10:04:39Z</time>
      </trkpt>
      <trkpt lat="46.54797" lon="0.35942">
        <ele>76.6</ele>
        <time>2020-09-13T10:04:47Z</time>
      </trkpt>
      <trkpt lat="46.54798" lon="0.35944">
        <ele>77.2</ele>
        <time>2020-09-13T10:04:49Z</time>
      </trkpt>
      <trkpt lat="46.548" lon="0.35946">
        <ele>77.6</ele>
        <time>2020-09-13T10:04:51Z</time>
      </trkpt>
      <trkpt lat="46.54801" lon="0.35949">
        <ele>78</ele>
        <time>2020-09-13T10:04:53Z</time>
      </trkpt>
      <trkpt lat="46.54803" lon="0.35951">
        <ele>78.8</ele>
        <time>2020-09-13T10:04:56Z</time>
      </trkpt>
      <trkpt lat="46.54803" lon="0.35954">
        <ele>78.8</ele>
        <time>2020-09-13T10:04:58Z</time>
      </trkpt>
      <trkpt lat="46.54805" lon="0.35958">
        <ele>79.2</ele>
        <time>2020-09-13T10:05:00Z</time>
      </trkpt>
      <trkpt lat="46.54808" lon="0.35962">
        <ele>79.8</ele>
        <time>2020-09-13T10:05:03Z</time>
      </trkpt>
      <trkpt lat="46.54811" lon="0.35966">
        <ele>80.2</ele>
        <time>2020-09-13T10:05:05Z</time>
      </trkpt>
      <trkpt lat="46.54812" lon="0.35968">
        <ele>81</ele>
        <time>2020-09-13T10:05:08Z</time>
      </trkpt>
      <trkpt lat="46.54813" lon="0.35971">
        <ele>81.2</ele>
        <time>2020-09-13T10:05:10Z</time>
      </trkpt>
      <trkpt lat="46.54813" lon="0.35973">
        <ele>81.4</ele>
        <time>2020-09-13T10:05:11Z</time>
      </trkpt>
      <trkpt lat="46.54813" lon="0.35975">
        <ele>82</ele>
        <time>2020-09-13T10:05:14Z</time>
      </trkpt>
      <trkpt lat="46.54813" lon="0.35976">
        <ele>82.2</ele>
        <time>2020-09-13T10:05:15Z</time>
      </trkpt>
      <trkpt lat="46.54812" lon="0.35977">
        <ele>82.6</ele>
        <time>2020-09-13T10:05:17Z</time>
      </trkpt>
      <trkpt lat="46.54811" lon="0.35977">
        <ele>83</ele>
        <time>2020-09-13T10:05:20Z</time>
      </trkpt>
      <trkpt lat="46.54809" lon="0.35976">
        <ele>83.4</ele>
        <time>2020-09-13T10:05:23Z</time>
      </trkpt>
      <trkpt lat="46.54806" lon="0.35975">
        <ele>83.8</ele>
        <time>2020-09-13T10:05:27Z</time>
      </trkpt>
      <trkpt lat="46.54803" lon="0.35975">
        <ele>84</ele>
        <time>2020-09-13T10:05:31Z</time>
      </trkpt>
      <trkpt lat="46.548" lon="0.35976">
        <ele>84.4</ele>
        <time>2020-09-13T10:05:34Z</time>
      </trkpt>
      <trkpt lat="46.548" lon="0.35977">
        <ele>84.8</ele>
        <time>2020-09-13T10:05:35Z</time>
      </trkpt>
      <trkpt lat="46.54797" lon="0.35976">
        <ele>85.4</ele>
        <time>2020-09-13T10:05:38Z</time>
      </trkpt>
      <trkpt lat="46.54797" lon="0.35976">
        <ele>85.6</ele>
        <time>2020-09-13T10:05:39Z</time>
      </trkpt>
      <trkpt lat="46.54795" lon="0.35975">
        <ele>85.8</ele>
        <time>2020-09-13T10:05:42Z</time>
      </trkpt>
      <trkpt lat="46.54792" lon="0.35973">
        <ele>86.4</ele>
        <time>2020-09-13T10:05:46Z</time>
      </trkpt>
      <trkpt lat="46.5479" lon="0.35972">
        <ele>86.8</ele>
        <time>2020-09-13T10:05:49Z</time>
      </trkpt>
      <trkpt lat="46.54788" lon="0.35972">
        <ele>87.8</ele>
        <time>2020-09-13T10:05:53Z</time>
      </trkpt>
      <trkpt lat="46.54787" lon="0.35971">
        <ele>88.2</ele>
        <time>2020-09-13T10:05:54Z</time>
      </trkpt>
      <trkpt lat="46.54783" lon="0.35971">
        <ele>88.8</ele>
        <time>2020-09-13T10:05:58Z</time>
      </trkpt>
      <trkpt lat="46.54779" lon="0.35972">
        <ele>89.6</ele>
        <time>2020-09-13T10:06:02Z</time>
      </trkpt>
      <trkpt lat="46.54777" lon="0.35973">
        <ele>90</ele>
        <time>2020-09-13T10:06:04Z</time>
      </trkpt>
      <trkpt lat="46.54776" lon="0.35973">
        <ele>90.4</ele>
        <time>2020-09-13T10:06:06Z</time>
      </trkpt>
      <trkpt lat="46.54775" lon="0.35973">
        <ele>90.6</ele>
        <time>2020-09-13T10:06:07Z</time>
      </trkpt>
      <trkpt lat="46.54773" lon="0.35973">
        <ele>91</ele>
        <time>2020-09-13T10:06:09Z</time>
      </trkpt>
      <trkpt lat="46.54772" lon="0.35973">
        <ele>91.4</ele>
        <time>2020-09-13T10:06:10Z</time>
      </trkpt>
      <trkpt lat="46.54771" lon="0.35973">
        <ele>91.8</ele>
        <time>2020-09-13T10:06:12Z</time>
      </trkpt>
      <trkpt lat="46.54771" lon="0.35974">
        <ele>92</ele>
        <time>2020-09-13T10:06:14Z</time>
      </trkpt>
      <trkpt lat="46.5477" lon="0.35975">
        <ele>92.2</ele>
        <time>2020-09-13T10:06:15Z</time>
      </trkpt>
      <trkpt lat="46.54771" lon="0.35977">
        <ele>92.2</ele>
        <time>2020-09-13T10:06:17Z</time>
      </trkpt>
      <trkpt lat="46.54772" lon="0.35979">
        <ele>92.2</ele>
        <time>2020-09-13T10:06:19Z</time>
      </trkpt>
      <trkpt lat="46.54776" lon="0.3599">
        <ele>92.8</ele>
        <time>2020-09-13T10:06:24Z</time>
      </trkpt>
      <trkpt lat="46.54781" lon="0.36005">
        <ele>93.2</ele>
        <time>2020-09-13T10:06:29Z</time>
      </trkpt>
      <trkpt lat="46.54782" lon="0.3601">
        <ele>93.4</ele>
        <time>2020-09-13T10:06:31Z</time>
      </trkpt>
      <trkpt lat="46.54787" lon="0.36023">
        <ele>93.6</ele>
        <time>2020-09-13T10:06:36Z</time>
      </trkpt>
      <trkpt lat="46.54792" lon="0.36035">
        <ele>94.2</ele>
        <time>2020-09-13T10:06:39Z</time>
      </trkpt>
      <trkpt lat="46.54799" lon="0.36052">
        <ele>94.4</ele>
        <time>2020-09-13T10:06:44Z</time>
      </trkpt>
      <trkpt lat="46.5481" lon="0.36065">
        <ele>94.6</ele>
        <time>2020-09-13T10:06:50Z</time>
      </trkpt>
      <trkpt lat="46.54827" lon="0.3608">
        <ele>94.4</ele>
        <time>2020-09-13T10:06:54Z</time>
      </trkpt>
      <trkpt lat="46.54849" lon="0.36109">
        <ele>93.2</ele>
        <time>2020-09-13T10:07:02Z</time>
      </trkpt>
      <trkpt lat="46.54854" lon="0.36113">
        <ele>93.2</ele>
        <time>2020-09-13T10:07:03Z</time>
      </trkpt>
      <trkpt lat="46.54871" lon="0.36131">
        <ele>92.4</ele>
        <time>2020-09-13T10:07:07Z</time>
      </trkpt>
      <trkpt lat="46.54875" lon="0.36136">
        <ele>91.8</ele>
        <time>2020-09-13T10:07:08Z</time>
      </trkpt>
      <trkpt lat="46.54882" lon="0.36146">
        <ele>90.4</ele>
        <time>2020-09-13T10:07:10Z</time>
      </trkpt>
      <trkpt lat="46.54893" lon="0.3616">
        <ele>89</ele>
        <time>2020-09-13T10:07:13Z</time>
      </trkpt>
      <trkpt lat="46.54898" lon="0.36167">
        <ele>88.8</ele>
        <time>2020-09-13T10:07:14Z</time>
      </trkpt>
      <trkpt lat="46.5491" lon="0.3618">
        <ele>87.8</ele>
        <time>2020-09-13T10:07:17Z</time>
      </trkpt>
      <trkpt lat="46.54911" lon="0.36181">
        <ele>87.4</ele>
        <time>2020-09-13T10:07:18Z</time>
      </trkpt>
      <trkpt lat="46.54913" lon="0.36182">
        <ele>86.4</ele>
        <time>2020-09-13T10:07:19Z</time>
      </trkpt>
      <trkpt lat="46.54917" lon="0.36184">
        <ele>86.2</ele>
        <time>2020-09-13T10:07:23Z</time>
      </trkpt>
      <trkpt lat="46.54919" lon="0.36185">
        <ele>86.6</ele>
        <time>2020-09-13T10:07:26Z</time>
      </trkpt>
      <trkpt lat="46.54921" lon="0.36185">
        <ele>86.6</ele>
        <time>2020-09-13T10:07:28Z</time>
      </trkpt>
      <trkpt lat="46.54923" lon="0.36182">
        <ele>86.6</ele>
        <time>2020-09-13T10:07:31Z</time>
      </trkpt>
      <trkpt lat="46.54924" lon="0.36178">
        <ele>86.4</ele>
        <time>2020-09-13T10:07:33Z</time>
      </trkpt>
      <trkpt lat="46.54924" lon="0.36173">
        <ele>86.6</ele>
        <time>2020-09-13T10:07:36Z</time>
      </trkpt>
      <trkpt lat="46.54921" lon="0.36169">
        <ele>87</ele>
        <time>2020-09-13T10:07:39Z</time>
      </trkpt>
      <trkpt lat="46.54919" lon="0.36166">
        <ele>87.6</ele>
        <time>2020-09-13T10:07:42Z</time>
      </trkpt>
      <trkpt lat="46.54916" lon="0.36156">
        <ele>88.8</ele>
        <time>2020-09-13T10:07:48Z</time>
      </trkpt>
      <trkpt lat="46.54911" lon="0.36148">
        <ele>89.2</ele>
        <time>2020-09-13T10:07:53Z</time>
      </trkpt>
      <trkpt lat="46.54906" lon="0.36143">
        <ele>89.4</ele>
        <time>2020-09-13T10:07:56Z</time>
      </trkpt>
      <trkpt lat="46.54904" lon="0.36142">
        <ele>89.6</ele>
        <time>2020-09-13T10:07:57Z</time>
      </trkpt>
      <trkpt lat="46.549" lon="0.3614">
        <ele>90</ele>
        <time>2020-09-13T10:07:59Z</time>
      </trkpt>
      <trkpt lat="46.54897" lon="0.36137">
        <ele>90.4</ele>
        <time>2020-09-13T10:08:01Z</time>
      </trkpt>
      <trkpt lat="46.54895" lon="0.36136">
        <ele>90.6</ele>
        <time>2020-09-13T10:08:02Z</time>
      </trkpt>
      <trkpt lat="46.54891" lon="0.3613">
        <ele>91</ele>
        <time>2020-09-13T10:08:05Z</time>
      </trkpt>
      <trkpt lat="46.54891" lon="0.36128">
        <ele>91.4</ele>
        <time>2020-09-13T10:08:07Z</time>
      </trkpt>
      <trkpt lat="46.54892" lon="0.36125">
        <ele>91.4</ele>
        <time>2020-09-13T10:08:08Z</time>
      </trkpt>
      <trkpt lat="46.54895" lon="0.36119">
        <ele>91.4</ele>
        <time>2020-09-13T10:08:12Z</time>
      </trkpt>
      <trkpt lat="46.54896" lon="0.36112">
        <ele>90</ele>
        <time>2020-09-13T10:08:17Z</time>
      </trkpt>
      <trkpt lat="46.54897" lon="0.36109">
        <ele>89</ele>
        <time>2020-09-13T10:08:19Z</time>
      </trkpt>
      <trkpt lat="46.54897" lon="0.36106">
        <ele>87.6</ele>
        <time>2020-09-13T10:08:21Z</time>
      </trkpt>
      <trkpt lat="46.54897" lon="0.36105">
        <ele>87.2</ele>
        <time>2020-09-13T10:08:22Z</time>
      </trkpt>
      <trkpt lat="46.54897" lon="0.36105">
        <ele>86.8</ele>
        <time>2020-09-13T10:08:23Z</time>
      </trkpt>
      <trkpt lat="46.54897" lon="0.36102">
        <ele>86.4</ele>
        <time>2020-09-13T10:08:24Z</time>
      </trkpt>
      <trkpt lat="46.54898" lon="0.36099">
        <ele>85.4</ele>
        <time>2020-09-13T10:08:26Z</time>
      </trkpt>
      <trkpt lat="46.54898" lon="0.36098">
        <ele>84.6</ele>
        <time>2020-09-13T10:08:27Z</time>
      </trkpt>
      <trkpt lat="46.54898" lon="0.36098">
        <ele>84</ele>
        <time>2020-09-13T10:08:28Z</time>
      </trkpt>
      <trkpt lat="46.54897" lon="0.36096">
        <ele>83.2</ele>
        <time>2020-09-13T10:08:29Z</time>
      </trkpt>
      <trkpt lat="46.54898" lon="0.36095">
        <ele>82.8</ele>
        <time>2020-09-13T10:08:30Z</time>
      </trkpt>
      <trkpt lat="46.54898" lon="0.36094">
        <ele>82.4</ele>
        <time>2020-09-13T10:08:31Z</time>
      </trkpt>
      <trkpt lat="46.54899" lon="0.3609">
        <ele>81.8</ele>
        <time>2020-09-13T10:08:33Z</time>
      </trkpt>
      <trkpt lat="46.549" lon="0.36088">
        <ele>81.4</ele>
        <time>2020-09-13T10:08:34Z</time>
      </trkpt>
      <trkpt lat="46.54902" lon="0.36081">
        <ele>79.8</ele>
        <time>2020-09-13T10:08:37Z</time>
      </trkpt>
      <trkpt lat="46.54904" lon="0.36074">
        <ele>78.8</ele>
        <time>2020-09-13T10:08:38Z</time>
      </trkpt>
      <trkpt lat="46.54904" lon="0.36072">
        <ele>77.8</ele>
        <time>2020-09-13T10:08:39Z</time>
      </trkpt>
      <trkpt lat="46.54905" lon="0.36073">
        <ele>77.2</ele>
        <time>2020-09-13T10:08:40Z</time>
      </trkpt>
      <trkpt lat="46.54906" lon="0.36074">
        <ele>76.4</ele>
        <time>2020-09-13T10:08:42Z</time>
      </trkpt>
      <trkpt lat="46.54908" lon="0.36077">
        <ele>76</ele>
        <time>2020-09-13T10:08:44Z</time>
      </trkpt>
      <trkpt lat="46.54913" lon="0.36082">
        <ele>76</ele>
        <time>2020-09-13T10:08:48Z</time>
      </trkpt>
      <trkpt lat="46.54919" lon="0.36094">
        <ele>76.2</ele>
        <time>2020-09-13T10:08:53Z</time>
      </trkpt>
      <trkpt lat="46.54929" lon="0.36112">
        <ele>76.8</ele>
        <time>2020-09-13T10:09:00Z</time>
      </trkpt>
      <trkpt lat="46.54936" lon="0.36128">
        <ele>76.8</ele>
        <time>2020-09-13T10:09:05Z</time>
      </trkpt>
      <trkpt lat="46.54949" lon="0.36148">
        <ele>77</ele>
        <time>2020-09-13T10:09:10Z</time>
      </trkpt>
      <trkpt lat="46.54951" lon="0.36152">
        <ele>77</ele>
        <time>2020-09-13T10:09:11Z</time>
      </trkpt>
      <trkpt lat="46.54953" lon="0.36156">
        <ele>77</ele>
        <time>2020-09-13T10:09:12Z</time>
      </trkpt>
      <trkpt lat="46.54955" lon="0.36159">
        <ele>77</ele>
        <time>2020-09-13T10:09:13Z</time>
      </trkpt>
      <trkpt lat="46.54965" lon="0.36171">
        <ele>77.8</ele>
        <time>2020-09-13T10:09:18Z</time>
      </trkpt>
      <trkpt lat="46.54975" lon="0.36176">
        <ele>78</ele>
        <time>2020-09-13T10:09:19Z</time>
      </trkpt>
      <trkpt lat="46.54987" lon="0.36183">
        <ele>77.6</ele>
        <time>2020-09-13T10:09:22Z</time>
      </trkpt>
      <trkpt lat="46.54994" lon="0.36187">
        <ele>77.4</ele>
        <time>2020-09-13T10:09:24Z</time>
      </trkpt>
      <trkpt lat="46.55002" lon="0.36192">
        <ele>77</ele>
        <time>2020-09-13T10:09:26Z</time>
      </trkpt>
      <trkpt lat="46.55004" lon="0.36194">
        <ele>76.8</ele>
        <time>2020-09-13T10:09:28Z</time>
      </trkpt>
      <trkpt lat="46.55016" lon="0.36222">
        <ele>78.4</ele>
        <time>2020-09-13T10:09:36Z</time>
      </trkpt>
      <trkpt lat="46.55023" lon="0.36234">
        <ele>79.4</ele>
        <time>2020-09-13T10:09:40Z</time>
      </trkpt>
      <trkpt lat="46.55023" lon="0.36234">
        <ele>79.8</ele>
        <time>2020-09-13T10:09:41Z</time>
      </trkpt>
      <trkpt lat="46.55025" lon="0.36239">
        <ele>80.6</ele>
        <time>2020-09-13T10:09:43Z</time>
      </trkpt>
      <trkpt lat="46.55028" lon="0.36242">
        <ele>80.8</ele>
        <time>2020-09-13T10:09:45Z</time>
      </trkpt>
      <trkpt lat="46.55029" lon="0.36244">
        <ele>81.2</ele>
        <time>2020-09-13T10:09:46Z</time>
      </trkpt>
      <trkpt lat="46.55033" lon="0.36246">
        <ele>81.6</ele>
        <time>2020-09-13T10:09:50Z</time>
      </trkpt>
      <trkpt lat="46.55036" lon="0.36247">
        <ele>81.6</ele>
        <time>2020-09-13T10:09:51Z</time>
      </trkpt>
      <trkpt lat="46.55043" lon="0.36247">
        <ele>81.2</ele>
        <time>2020-09-13T10:09:55Z</time>
      </trkpt>
      <trkpt lat="46.55046" lon="0.36248">
        <ele>80.8</ele>
        <time>2020-09-13T10:09:59Z</time>
      </trkpt>
      <trkpt lat="46.5505" lon="0.36254">
        <ele>81</ele>
        <time>2020-09-13T10:10:05Z</time>
      </trkpt>
      <trkpt lat="46.5505" lon="0.36255">
        <ele>81.2</ele>
        <time>2020-09-13T10:10:07Z</time>
      </trkpt>
      <trkpt lat="46.55051" lon="0.36257">
        <ele>81.2</ele>
        <time>2020-09-13T10:10:08Z</time>
      </trkpt>
      <trkpt lat="46.55054" lon="0.36266">
        <ele>81.8</ele>
        <time>2020-09-13T10:10:18Z</time>
      </trkpt>
      <trkpt lat="46.55054" lon="0.36269">
        <ele>81.8</ele>
        <time>2020-09-13T10:10:20Z</time>
      </trkpt>
      <trkpt lat="46.55055" lon="0.36283">
        <ele>81.4</ele>
        <time>2020-09-13T10:10:24Z</time>
      </trkpt>
      <trkpt lat="46.55055" lon="0.36287">
        <ele>80.4</ele>
        <time>2020-09-13T10:10:25Z</time>
      </trkpt>
      <trkpt lat="46.55056" lon="0.36291">
        <ele>79.6</ele>
        <time>2020-09-13T10:10:26Z</time>
      </trkpt>
      <trkpt lat="46.55056" lon="0.363">
        <ele>78.4</ele>
        <time>2020-09-13T10:10:29Z</time>
      </trkpt>
      <trkpt lat="46.55056" lon="0.36304">
        <ele>78.2</ele>
        <time>2020-09-13T10:10:30Z</time>
      </trkpt>
      <trkpt lat="46.55054" lon="0.3632">
        <ele>77.8</ele>
        <time>2020-09-13T10:10:35Z</time>
      </trkpt>
      <trkpt lat="46.55054" lon="0.36322">
        <ele>77.8</ele>
        <time>2020-09-13T10:10:36Z</time>
      </trkpt>
      <trkpt lat="46.55046" lon="0.36345">
        <ele>78.6</ele>
        <time>2020-09-13T10:10:42Z</time>
      </trkpt>
      <trkpt lat="46.55039" lon="0.36374">
        <ele>79.2</ele>
        <time>2020-09-13T10:10:49Z</time>
      </trkpt>
      <trkpt lat="46.55039" lon="0.36378">
        <ele>79.4</ele>
        <time>2020-09-13T10:10:50Z</time>
      </trkpt>
      <trkpt lat="46.55039" lon="0.36383">
        <ele>79.6</ele>
        <time>2020-09-13T10:10:51Z</time>
      </trkpt>
      <trkpt lat="46.55039" lon="0.36398">
        <ele>80</ele>
        <time>2020-09-13T10:10:55Z</time>
      </trkpt>
      <trkpt lat="46.55039" lon="0.36409">
        <ele>80.6</ele>
        <time>2020-09-13T10:10:59Z</time>
      </trkpt>
      <trkpt lat="46.55038" lon="0.36419">
        <ele>81</ele>
        <time>2020-09-13T10:11:02Z</time>
      </trkpt>
      <trkpt lat="46.55037" lon="0.36429">
        <ele>81.8</ele>
        <time>2020-09-13T10:11:06Z</time>
      </trkpt>
      <trkpt lat="46.55036" lon="0.36441">
        <ele>82.2</ele>
        <time>2020-09-13T10:11:09Z</time>
      </trkpt>
      <trkpt lat="46.55037" lon="0.36448">
        <ele>82.4</ele>
        <time>2020-09-13T10:11:11Z</time>
      </trkpt>
      <trkpt lat="46.55038" lon="0.36455">
        <ele>82.8</ele>
        <time>2020-09-13T10:11:13Z</time>
      </trkpt>
      <trkpt lat="46.55038" lon="0.36455">
        <ele>83</ele>
        <time>2020-09-13T10:11:14Z</time>
      </trkpt>
      <trkpt lat="46.55039" lon="0.36472">
        <ele>84</ele>
        <time>2020-09-13T10:11:20Z</time>
      </trkpt>
      <trkpt lat="46.5504" lon="0.36477">
        <ele>84.2</ele>
        <time>2020-09-13T10:11:21Z</time>
      </trkpt>
      <trkpt lat="46.55043" lon="0.36488">
        <ele>85.2</ele>
        <time>2020-09-13T10:11:26Z</time>
      </trkpt>
      <trkpt lat="46.5505" lon="0.365">
        <ele>85.6</ele>
        <time>2020-09-13T10:11:30Z</time>
      </trkpt>
      <trkpt lat="46.55056" lon="0.36509">
        <ele>86.2</ele>
        <time>2020-09-13T10:11:34Z</time>
      </trkpt>
      <trkpt lat="46.55062" lon="0.36516">
        <ele>87</ele>
        <time>2020-09-13T10:11:39Z</time>
      </trkpt>
      <trkpt lat="46.55066" lon="0.36521">
        <ele>87.2</ele>
        <time>2020-09-13T10:11:42Z</time>
      </trkpt>
      <trkpt lat="46.55071" lon="0.36527">
        <ele>88.4</ele>
        <time>2020-09-13T10:11:46Z</time>
      </trkpt>
      <trkpt lat="46.55089" lon="0.36541">
        <ele>89.2</ele>
        <time>2020-09-13T10:11:55Z</time>
      </trkpt>
      <trkpt lat="46.55093" lon="0.36545">
        <ele>89.2</ele>
        <time>2020-09-13T10:11:56Z</time>
      </trkpt>
      <trkpt lat="46.55099" lon="0.36551">
        <ele>89.4</ele>
        <time>2020-09-13T10:11:59Z</time>
      </trkpt>
      <trkpt lat="46.55104" lon="0.3656">
        <ele>89.8</ele>
        <time>2020-09-13T10:12:02Z</time>
      </trkpt>
      <trkpt lat="46.55113" lon="0.36574">
        <ele>90.4</ele>
        <time>2020-09-13T10:12:08Z</time>
      </trkpt>
      <trkpt lat="46.55115" lon="0.3658">
        <ele>90.6</ele>
        <time>2020-09-13T10:12:09Z</time>
      </trkpt>
      <trkpt lat="46.5512" lon="0.36597">
        <ele>91.6</ele>
        <time>2020-09-13T10:12:15Z</time>
      </trkpt>
      <trkpt lat="46.55122" lon="0.36605">
        <ele>92</ele>
        <time>2020-09-13T10:12:17Z</time>
      </trkpt>
      <trkpt lat="46.55121" lon="0.36613">
        <ele>92.2</ele>
        <time>2020-09-13T10:12:20Z</time>
      </trkpt>
      <trkpt lat="46.5512" lon="0.36616">
        <ele>92.4</ele>
        <time>2020-09-13T10:12:23Z</time>
      </trkpt>
      <trkpt lat="46.55118" lon="0.36622">
        <ele>92.6</ele>
        <time>2020-09-13T10:12:31Z</time>
      </trkpt>
      <trkpt lat="46.55118" lon="0.36622">
        <ele>92.6</ele>
        <time>2020-09-13T10:12:33Z</time>
      </trkpt>
      <trkpt lat="46.55118" lon="0.36622">
        <ele>92.4</ele>
        <time>2020-09-13T10:12:48Z</time>
      </trkpt>
      <trkpt lat="46.55118" lon="0.36622">
        <ele>92.6</ele>
        <time>2020-09-13T10:12:54Z</time>
      </trkpt>
      <trkpt lat="46.55118" lon="0.36622">
        <ele>93.2</ele>
        <time>2020-09-13T10:13:38Z</time>
      </trkpt>
      <trkpt lat="46.55118" lon="0.36622">
        <ele>93</ele>
        <time>2020-09-13T10:14:17Z</time>
      </trkpt>
      <trkpt lat="46.55118" lon="0.36623">
        <ele>93</ele>
        <time>2020-09-13T10:14:35Z</time>
      </trkpt>
      <trkpt lat="46.55117" lon="0.36624">
        <ele>93</ele>
        <time>2020-09-13T10:14:45Z</time>
      </trkpt>
      <trkpt lat="46.55117" lon="0.36624">
        <ele>93.2</ele>
        <time>2020-09-13T10:15:09Z</time>
      </trkpt>
      <trkpt lat="46.55118" lon="0.36624">
        <ele>93.4</ele>
        <time>2020-09-13T10:15:45Z</time>
      </trkpt>
      <trkpt lat="46.55118" lon="0.36624">
        <ele>93.2</ele>
        <time>2020-09-13T10:16:01Z</time>
      </trkpt>
      <trkpt lat="46.55118" lon="0.36622">
        <ele>93.2</ele>
        <time>2020-09-13T10:16:10Z</time>
      </trkpt>
      <trkpt lat="46.55118" lon="0.36622">
        <ele>93.2</ele>
        <time>2020-09-13T10:16:11Z</time>
      </trkpt>
      <trkpt lat="46.55118" lon="0.36622">
        <ele>93.4</ele>
        <time>2020-09-13T10:16:13Z</time>
      </trkpt>
      <trkpt lat="46.55115" lon="0.36623">
        <ele>93.4</ele>
        <time>2020-09-13T10:16:21Z</time>
      </trkpt>
      <trkpt lat="46.5511" lon="0.36624">
        <ele>93.4</ele>
        <time>2020-09-13T10:16:24Z</time>
      </trkpt>
      <trkpt lat="46.5511" lon="0.36624">
        <ele>93.6</ele>
        <time>2020-09-13T10:16:25Z</time>
      </trkpt>
      <trkpt lat="46.55104" lon="0.36623">
        <ele>93.6</ele>
        <time>2020-09-13T10:16:27Z</time>
      </trkpt>
      <trkpt lat="46.55099" lon="0.36621">
        <ele>93.8</ele>
        <time>2020-09-13T10:16:30Z</time>
      </trkpt>
      <trkpt lat="46.55087" lon="0.36612">
        <ele>94.4</ele>
        <time>2020-09-13T10:16:36Z</time>
      </trkpt>
      <trkpt lat="46.55082" lon="0.36609">
        <ele>94.6</ele>
        <time>2020-09-13T10:16:37Z</time>
      </trkpt>
      <trkpt lat="46.55082" lon="0.36609">
        <ele>94.6</ele>
        <time>2020-09-13T10:16:38Z</time>
      </trkpt>
      <trkpt lat="46.5507" lon="0.36602">
        <ele>94.8</ele>
        <time>2020-09-13T10:16:42Z</time>
      </trkpt>
      <trkpt lat="46.55068" lon="0.366">
        <ele>95</ele>
        <time>2020-09-13T10:16:43Z</time>
      </trkpt>
      <trkpt lat="46.55056" lon="0.36594">
        <ele>95.8</ele>
        <time>2020-09-13T10:16:49Z</time>
      </trkpt>
      <trkpt lat="46.55048" lon="0.36589">
        <ele>96.2</ele>
        <time>2020-09-13T10:16:52Z</time>
      </trkpt>
      <trkpt lat="46.55039" lon="0.36584">
        <ele>96.8</ele>
        <time>2020-09-13T10:16:55Z</time>
      </trkpt>
      <trkpt lat="46.55031" lon="0.36579">
        <ele>97.8</ele>
        <time>2020-09-13T10:17:00Z</time>
      </trkpt>
      <trkpt lat="46.55029" lon="0.36578">
        <ele>98.2</ele>
        <time>2020-09-13T10:17:01Z</time>
      </trkpt>
      <trkpt lat="46.55023" lon="0.36574">
        <ele>99.2</ele>
        <time>2020-09-13T10:17:05Z</time>
      </trkpt>
      <trkpt lat="46.55017" lon="0.36571">
        <ele>99.6</ele>
        <time>2020-09-13T10:17:08Z</time>
      </trkpt>
      <trkpt lat="46.55014" lon="0.36569">
        <ele>100.2</ele>
        <time>2020-09-13T10:17:10Z</time>
      </trkpt>
      <trkpt lat="46.55008" lon="0.36565">
        <ele>101.4</ele>
        <time>2020-09-13T10:17:15Z</time>
      </trkpt>
      <trkpt lat="46.55007" lon="0.36565">
        <ele>101.8</ele>
        <time>2020-09-13T10:17:17Z</time>
      </trkpt>
      <trkpt lat="46.55001" lon="0.36559">
        <ele>102.6</ele>
        <time>2020-09-13T10:17:22Z</time>
      </trkpt>
      <trkpt lat="46.55" lon="0.36558">
        <ele>103.2</ele>
        <time>2020-09-13T10:17:24Z</time>
      </trkpt>
      <trkpt lat="46.54997" lon="0.36556">
        <ele>103.8</ele>
        <time>2020-09-13T10:17:26Z</time>
      </trkpt>
      <trkpt lat="46.54991" lon="0.36549">
        <ele>104.8</ele>
        <time>2020-09-13T10:17:33Z</time>
      </trkpt>
      <trkpt lat="46.54989" lon="0.36546">
        <ele>105</ele>
        <time>2020-09-13T10:17:34Z</time>
      </trkpt>
      <trkpt lat="46.54984" lon="0.36539">
        <ele>106</ele>
        <time>2020-09-13T10:17:39Z</time>
      </trkpt>
      <trkpt lat="46.54977" lon="0.36531">
        <ele>107.2</ele>
        <time>2020-09-13T10:17:44Z</time>
      </trkpt>
      <trkpt lat="46.54969" lon="0.36522">
        <ele>108</ele>
        <time>2020-09-13T10:17:50Z</time>
      </trkpt>
      <trkpt lat="46.54966" lon="0.36519">
        <ele>108.2</ele>
        <time>2020-09-13T10:17:51Z</time>
      </trkpt>
      <trkpt lat="46.54955" lon="0.36512">
        <ele>109.2</ele>
        <time>2020-09-13T10:17:59Z</time>
      </trkpt>
      <trkpt lat="46.54952" lon="0.36511">
        <ele>109.6</ele>
        <time>2020-09-13T10:18:01Z</time>
      </trkpt>
      <trkpt lat="46.54938" lon="0.365">
        <ele>110</ele>
        <time>2020-09-13T10:18:09Z</time>
      </trkpt>
      <trkpt lat="46.54936" lon="0.36498">
        <ele>110.4</ele>
        <time>2020-09-13T10:18:11Z</time>
      </trkpt>
      <trkpt lat="46.54924" lon="0.36492">
        <ele>111.4</ele>
        <time>2020-09-13T10:18:18Z</time>
      </trkpt>
      <trkpt lat="46.54913" lon="0.36486">
        <ele>112.6</ele>
        <time>2020-09-13T10:18:23Z</time>
      </trkpt>
      <trkpt lat="46.54911" lon="0.36486">
        <ele>112.6</ele>
        <time>2020-09-13T10:18:24Z</time>
      </trkpt>
      <trkpt lat="46.54899" lon="0.36479">
        <ele>113.6</ele>
        <time>2020-09-13T10:18:30Z</time>
      </trkpt>
      <trkpt lat="46.54897" lon="0.36479">
        <ele>113.8</ele>
        <time>2020-09-13T10:18:31Z</time>
      </trkpt>
      <trkpt lat="46.54874" lon="0.36472">
        <ele>114.8</ele>
        <time>2020-09-13T10:18:40Z</time>
      </trkpt>
      <trkpt lat="46.54856" lon="0.36472">
        <ele>115.6</ele>
        <time>2020-09-13T10:18:48Z</time>
      </trkpt>
      <trkpt lat="46.54849" lon="0.36472">
        <ele>115.8</ele>
        <time>2020-09-13T10:18:50Z</time>
      </trkpt>
      <trkpt lat="46.54831" lon="0.36474">
        <ele>116.6</ele>
        <time>2020-09-13T10:18:56Z</time>
      </trkpt>
      <trkpt lat="46.54827" lon="0.36474">
        <ele>116.8</ele>
        <time>2020-09-13T10:18:58Z</time>
      </trkpt>
      <trkpt lat="46.54808" lon="0.36479">
        <ele>117.2</ele>
        <time>2020-09-13T10:19:03Z</time>
      </trkpt>
      <trkpt lat="46.54802" lon="0.36486">
        <ele>117.2</ele>
        <time>2020-09-13T10:19:04Z</time>
      </trkpt>
      <trkpt lat="46.54799" lon="0.36491">
        <ele>117.4</ele>
        <time>2020-09-13T10:19:06Z</time>
      </trkpt>
      <trkpt lat="46.54795" lon="0.36508">
        <ele>117.8</ele>
        <time>2020-09-13T10:19:09Z</time>
      </trkpt>
      <trkpt lat="46.54793" lon="0.36518">
        <ele>118.2</ele>
        <time>2020-09-13T10:19:11Z</time>
      </trkpt>
      <trkpt lat="46.54792" lon="0.36529">
        <ele>118.2</ele>
        <time>2020-09-13T10:19:12Z</time>
      </trkpt>
      <trkpt lat="46.5479" lon="0.36545">
        <ele>118.8</ele>
        <time>2020-09-13T10:19:16Z</time>
      </trkpt>
      <trkpt lat="46.54784" lon="0.36558">
        <ele>119.4</ele>
        <time>2020-09-13T10:19:19Z</time>
      </trkpt>
      <trkpt lat="46.5477" lon="0.36564">
        <ele>119.6</ele>
        <time>2020-09-13T10:19:23Z</time>
      </trkpt>
      <trkpt lat="46.54757" lon="0.3658">
        <ele>119.4</ele>
        <time>2020-09-13T10:19:27Z</time>
      </trkpt>
      <trkpt lat="46.54725" lon="0.36644">
        <ele>118.6</ele>
        <time>2020-09-13T10:19:36Z</time>
      </trkpt>
      <trkpt lat="46.54709" lon="0.36689">
        <ele>118.2</ele>
        <time>2020-09-13T10:19:42Z</time>
      </trkpt>
      <trkpt lat="46.54698" lon="0.36731">
        <ele>117.8</ele>
        <time>2020-09-13T10:19:48Z</time>
      </trkpt>
      <trkpt lat="46.54692" lon="0.36748">
        <ele>117.6</ele>
        <time>2020-09-13T10:19:49Z</time>
      </trkpt>
      <trkpt lat="46.54685" lon="0.36764">
        <ele>117</ele>
        <time>2020-09-13T10:19:52Z</time>
      </trkpt>
      <trkpt lat="46.54667" lon="0.36779">
        <ele>116.4</ele>
        <time>2020-09-13T10:19:54Z</time>
      </trkpt>
      <trkpt lat="46.5466" lon="0.36782">
        <ele>116.2</ele>
        <time>2020-09-13T10:19:55Z</time>
      </trkpt>
      <trkpt lat="46.54648" lon="0.36788">
        <ele>115.4</ele>
        <time>2020-09-13T10:19:57Z</time>
      </trkpt>
      <trkpt lat="46.54642" lon="0.36791">
        <ele>115.2</ele>
        <time>2020-09-13T10:19:58Z</time>
      </trkpt>
      <trkpt lat="46.5462" lon="0.36801">
        <ele>114.8</ele>
        <time>2020-09-13T10:20:02Z</time>
      </trkpt>
      <trkpt lat="46.54592" lon="0.36813">
        <ele>115</ele>
        <time>2020-09-13T10:20:08Z</time>
      </trkpt>
      <trkpt lat="46.54561" lon="0.36826">
        <ele>116.4</ele>
        <time>2020-09-13T10:20:15Z</time>
      </trkpt>
      <trkpt lat="46.54557" lon="0.36828">
        <ele>116.6</ele>
        <time>2020-09-13T10:20:16Z</time>
      </trkpt>
      <trkpt lat="46.54529" lon="0.3684">
        <ele>117.6</ele>
        <time>2020-09-13T10:20:23Z</time>
      </trkpt>
      <trkpt lat="46.54525" lon="0.36841">
        <ele>117.6</ele>
        <time>2020-09-13T10:20:24Z</time>
      </trkpt>
      <trkpt lat="46.54506" lon="0.3685">
        <ele>118.8</ele>
        <time>2020-09-13T10:20:29Z</time>
      </trkpt>
      <trkpt lat="46.54498" lon="0.36853">
        <ele>119</ele>
        <time>2020-09-13T10:20:31Z</time>
      </trkpt>
      <trkpt lat="46.54466" lon="0.36866">
        <ele>119.2</ele>
        <time>2020-09-13T10:20:40Z</time>
      </trkpt>
      <trkpt lat="46.54448" lon="0.36875">
        <ele>120</ele>
        <time>2020-09-13T10:20:45Z</time>
      </trkpt>
      <trkpt lat="46.54435" lon="0.3688">
        <ele>120.2</ele>
        <time>2020-09-13T10:20:48Z</time>
      </trkpt>
      <trkpt lat="46.54422" lon="0.36886">
        <ele>120</ele>
        <time>2020-09-13T10:20:51Z</time>
      </trkpt>
      <trkpt lat="46.54407" lon="0.36891">
        <ele>120</ele>
        <time>2020-09-13T10:20:56Z</time>
      </trkpt>
      <trkpt lat="46.54398" lon="0.36893">
        <ele>120</ele>
        <time>2020-09-13T10:20:57Z</time>
      </trkpt>
      <trkpt lat="46.54384" lon="0.36893">
        <ele>119.8</ele>
        <time>2020-09-13T10:21:00Z</time>
      </trkpt>
      <trkpt lat="46.54352" lon="0.36892">
        <ele>119.8</ele>
        <time>2020-09-13T10:21:07Z</time>
      </trkpt>
      <trkpt lat="46.54302" lon="0.36889">
        <ele>119.2</ele>
        <time>2020-09-13T10:21:14Z</time>
      </trkpt>
      <trkpt lat="46.54288" lon="0.36887">
        <ele>118.8</ele>
        <time>2020-09-13T10:21:16Z</time>
      </trkpt>
      <trkpt lat="46.5425" lon="0.36883">
        <ele>118</ele>
        <time>2020-09-13T10:21:22Z</time>
      </trkpt>
      <trkpt lat="46.5425" lon="0.36883">
        <ele>118</ele>
        <time>2020-09-13T10:21:23Z</time>
      </trkpt>
      <trkpt lat="46.5424" lon="0.3689">
        <ele>117.6</ele>
        <time>2020-09-13T10:21:24Z</time>
      </trkpt>
      <trkpt lat="46.54239" lon="0.36897">
        <ele>117.4</ele>
        <time>2020-09-13T10:21:25Z</time>
      </trkpt>
      <trkpt lat="46.5424" lon="0.36909">
        <ele>117</ele>
        <time>2020-09-13T10:21:27Z</time>
      </trkpt>
      <trkpt lat="46.54246" lon="0.3692">
        <ele>116.8</ele>
        <time>2020-09-13T10:21:29Z</time>
      </trkpt>
      <trkpt lat="46.54246" lon="0.3692">
        <ele>116.6</ele>
        <time>2020-09-13T10:21:30Z</time>
      </trkpt>
      <trkpt lat="46.54267" lon="0.36963">
        <ele>116.6</ele>
        <time>2020-09-13T10:21:37Z</time>
      </trkpt>
      <trkpt lat="46.54285" lon="0.37001">
        <ele>117.6</ele>
        <time>2020-09-13T10:21:43Z</time>
      </trkpt>
      <trkpt lat="46.54294" lon="0.37017">
        <ele>117.4</ele>
        <time>2020-09-13T10:21:46Z</time>
      </trkpt>
      <trkpt lat="46.54298" lon="0.3703">
        <ele>117</ele>
        <time>2020-09-13T10:21:48Z</time>
      </trkpt>
      <trkpt lat="46.54302" lon="0.37042">
        <ele>116.8</ele>
        <time>2020-09-13T10:21:49Z</time>
      </trkpt>
      <trkpt lat="46.54315" lon="0.37067">
        <ele>116</ele>
        <time>2020-09-13T10:21:53Z</time>
      </trkpt>
      <trkpt lat="46.54321" lon="0.3708">
        <ele>115.8</ele>
        <time>2020-09-13T10:21:56Z</time>
      </trkpt>
      <trkpt lat="46.54328" lon="0.37091">
        <ele>115.8</ele>
        <time>2020-09-13T10:21:57Z</time>
      </trkpt>
      <trkpt lat="46.54331" lon="0.37094">
        <ele>115.8</ele>
        <time>2020-09-13T10:21:58Z</time>
      </trkpt>
      <trkpt lat="46.54334" lon="0.37098">
        <ele>116.2</ele>
        <time>2020-09-13T10:22:00Z</time>
      </trkpt>
      <trkpt lat="46.54334" lon="0.37098">
        <ele>116.4</ele>
        <time>2020-09-13T10:22:01Z</time>
      </trkpt>
      <trkpt lat="46.54326" lon="0.37109">
        <ele>116.4</ele>
        <time>2020-09-13T10:22:06Z</time>
      </trkpt>
      <trkpt lat="46.54317" lon="0.37118">
        <ele>115.8</ele>
        <time>2020-09-13T10:22:10Z</time>
      </trkpt>
      <trkpt lat="46.54314" lon="0.3712">
        <ele>115.4</ele>
        <time>2020-09-13T10:22:11Z</time>
      </trkpt>
      <trkpt lat="46.54311" lon="0.37122">
        <ele>114.8</ele>
        <time>2020-09-13T10:22:13Z</time>
      </trkpt>
      <trkpt lat="46.54299" lon="0.37124">
        <ele>114</ele>
        <time>2020-09-13T10:22:15Z</time>
      </trkpt>
      <trkpt lat="46.54296" lon="0.37124">
        <ele>113.2</ele>
        <time>2020-09-13T10:22:16Z</time>
      </trkpt>
      <trkpt lat="46.54296" lon="0.37124">
        <ele>112.6</ele>
        <time>2020-09-13T10:22:17Z</time>
      </trkpt>
      <trkpt lat="46.54288" lon="0.37124">
        <ele>112.2</ele>
        <time>2020-09-13T10:22:18Z</time>
      </trkpt>
      <trkpt lat="46.54282" lon="0.37126">
        <ele>111.6</ele>
        <time>2020-09-13T10:22:19Z</time>
      </trkpt>
      <trkpt lat="46.54275" lon="0.37126">
        <ele>110</ele>
        <time>2020-09-13T10:22:21Z</time>
      </trkpt>
      <trkpt lat="46.54275" lon="0.37126">
        <ele>108.6</ele>
        <time>2020-09-13T10:22:22Z</time>
      </trkpt>
      <trkpt lat="46.54272" lon="0.37126">
        <ele>107.6</ele>
        <time>2020-09-13T10:22:23Z</time>
      </trkpt>
      <trkpt lat="46.54269" lon="0.37126">
        <ele>106.8</ele>
        <time>2020-09-13T10:22:25Z</time>
      </trkpt>
      <trkpt lat="46.54267" lon="0.37125">
        <ele>106.6</ele>
        <time>2020-09-13T10:22:26Z</time>
      </trkpt>
      <trkpt lat="46.54264" lon="0.37123">
        <ele>106.4</ele>
        <time>2020-09-13T10:22:28Z</time>
      </trkpt>
      <trkpt lat="46.54263" lon="0.3712">
        <ele>105.8</ele>
        <time>2020-09-13T10:22:31Z</time>
      </trkpt>
      <trkpt lat="46.54263" lon="0.37108">
        <ele>106</ele>
        <time>2020-09-13T10:22:37Z</time>
      </trkpt>
      <trkpt lat="46.54261" lon="0.37097">
        <ele>106.8</ele>
        <time>2020-09-13T10:22:41Z</time>
      </trkpt>
      <trkpt lat="46.54258" lon="0.37095">
        <ele>107</ele>
        <time>2020-09-13T10:22:42Z</time>
      </trkpt>
      <trkpt lat="46.54256" lon="0.37094">
        <ele>107.2</ele>
        <time>2020-09-13T10:22:45Z</time>
      </trkpt>
      <trkpt lat="46.54252" lon="0.37094">
        <ele>106.6</ele>
        <time>2020-09-13T10:22:49Z</time>
      </trkpt>
      <trkpt lat="46.54247" lon="0.37093">
        <ele>106.2</ele>
        <time>2020-09-13T10:22:51Z</time>
      </trkpt>
      <trkpt lat="46.54244" lon="0.37094">
        <ele>105.2</ele>
        <time>2020-09-13T10:22:53Z</time>
      </trkpt>
      <trkpt lat="46.54238" lon="0.37095">
        <ele>103.4</ele>
        <time>2020-09-13T10:22:55Z</time>
      </trkpt>
      <trkpt lat="46.54237" lon="0.37097">
        <ele>102.4</ele>
        <time>2020-09-13T10:22:56Z</time>
      </trkpt>
      <trkpt lat="46.54237" lon="0.371">
        <ele>100.8</ele>
        <time>2020-09-13T10:22:57Z</time>
      </trkpt>
      <trkpt lat="46.54235" lon="0.3711">
        <ele>100.6</ele>
        <time>2020-09-13T10:23:00Z</time>
      </trkpt>
      <trkpt lat="46.54238" lon="0.37134">
        <ele>100.8</ele>
        <time>2020-09-13T10:23:09Z</time>
      </trkpt>
      <trkpt lat="46.54243" lon="0.37144">
        <ele>101.8</ele>
        <time>2020-09-13T10:23:14Z</time>
      </trkpt>
      <trkpt lat="46.54243" lon="0.37146">
        <ele>102.4</ele>
        <time>2020-09-13T10:23:15Z</time>
      </trkpt>
      <trkpt lat="46.54241" lon="0.37165">
        <ele>102.4</ele>
        <time>2020-09-13T10:23:21Z</time>
      </trkpt>
      <trkpt lat="46.54229" lon="0.37188">
        <ele>102.2</ele>
        <time>2020-09-13T10:23:26Z</time>
      </trkpt>
      <trkpt lat="46.54222" lon="0.37201">
        <ele>103.2</ele>
        <time>2020-09-13T10:23:31Z</time>
      </trkpt>
      <trkpt lat="46.5422" lon="0.37202">
        <ele>104.2</ele>
        <time>2020-09-13T10:23:33Z</time>
      </trkpt>
      <trkpt lat="46.54218" lon="0.37204">
        <ele>104.6</ele>
        <time>2020-09-13T10:23:34Z</time>
      </trkpt>
      <trkpt lat="46.54214" lon="0.3721">
        <ele>106</ele>
        <time>2020-09-13T10:23:38Z</time>
      </trkpt>
      <trkpt lat="46.54211" lon="0.37214">
        <ele>107.2</ele>
        <time>2020-09-13T10:23:42Z</time>
      </trkpt>
      <trkpt lat="46.54204" lon="0.37221">
        <ele>108.4</ele>
        <time>2020-09-13T10:23:47Z</time>
      </trkpt>
      <trkpt lat="46.54202" lon="0.37224">
        <ele>109</ele>
        <time>2020-09-13T10:23:49Z</time>
      </trkpt>
      <trkpt lat="46.54199" lon="0.37227">
        <ele>109.6</ele>
        <time>2020-09-13T10:23:51Z</time>
      </trkpt>
      <trkpt lat="46.54192" lon="0.37235">
        <ele>110.8</ele>
        <time>2020-09-13T10:23:56Z</time>
      </trkpt>
      <trkpt lat="46.54182" lon="0.37244">
        <ele>111.8</ele>
        <time>2020-09-13T10:24:03Z</time>
      </trkpt>
      <trkpt lat="46.54176" lon="0.3725">
        <ele>112.2</ele>
        <time>2020-09-13T10:24:07Z</time>
      </trkpt>
      <trkpt lat="46.54165" lon="0.37261">
        <ele>113</ele>
        <time>2020-09-13T10:24:14Z</time>
      </trkpt>
      <trkpt lat="46.54152" lon="0.37273">
        <ele>114</ele>
        <time>2020-09-13T10:24:22Z</time>
      </trkpt>
      <trkpt lat="46.54138" lon="0.37287">
        <ele>115</ele>
        <time>2020-09-13T10:24:29Z</time>
      </trkpt>
      <trkpt lat="46.54136" lon="0.37288">
        <ele>115.2</ele>
        <time>2020-09-13T10:24:30Z</time>
      </trkpt>
      <trkpt lat="46.54118" lon="0.37305">
        <ele>116</ele>
        <time>2020-09-13T10:24:38Z</time>
      </trkpt>
      <trkpt lat="46.54116" lon="0.37307">
        <ele>116.2</ele>
        <time>2020-09-13T10:24:39Z</time>
      </trkpt>
      <trkpt lat="46.54106" lon="0.37311">
        <ele>116.4</ele>
        <time>2020-09-13T10:24:44Z</time>
      </trkpt>
      <trkpt lat="46.541" lon="0.37308">
        <ele>116.4</ele>
        <time>2020-09-13T10:24:45Z</time>
      </trkpt>
      <trkpt lat="46.54097" lon="0.373">
        <ele>116.2</ele>
        <time>2020-09-13T10:24:47Z</time>
      </trkpt>
      <trkpt lat="46.54092" lon="0.3729">
        <ele>115.8</ele>
        <time>2020-09-13T10:24:50Z</time>
      </trkpt>
      <trkpt lat="46.54089" lon="0.37287">
        <ele>115.8</ele>
        <time>2020-09-13T10:24:51Z</time>
      </trkpt>
      <trkpt lat="46.5408" lon="0.37289">
        <ele>115.6</ele>
        <time>2020-09-13T10:24:52Z</time>
      </trkpt>
      <trkpt lat="46.54076" lon="0.37293">
        <ele>115.8</ele>
        <time>2020-09-13T10:24:53Z</time>
      </trkpt>
      <trkpt lat="46.54051" lon="0.37324">
        <ele>116.4</ele>
        <time>2020-09-13T10:25:00Z</time>
      </trkpt>
      <trkpt lat="46.54047" lon="0.37329">
        <ele>116.4</ele>
        <time>2020-09-13T10:25:01Z</time>
      </trkpt>
      <trkpt lat="46.54028" lon="0.37354">
        <ele>117</ele>
        <time>2020-09-13T10:25:08Z</time>
      </trkpt>
      <trkpt lat="46.54023" lon="0.37361">
        <ele>117.2</ele>
        <time>2020-09-13T10:25:09Z</time>
      </trkpt>
      <trkpt lat="46.54006" lon="0.37386">
        <ele>118.4</ele>
        <time>2020-09-13T10:25:15Z</time>
      </trkpt>
      <trkpt lat="46.54" lon="0.37396">
        <ele>118.6</ele>
        <time>2020-09-13T10:25:17Z</time>
      </trkpt>
      <trkpt lat="46.53985" lon="0.37432">
        <ele>119.4</ele>
        <time>2020-09-13T10:25:24Z</time>
      </trkpt>
      <trkpt lat="46.53984" lon="0.37437">
        <ele>119.6</ele>
        <time>2020-09-13T10:25:25Z</time>
      </trkpt>
      <trkpt lat="46.53971" lon="0.37469">
        <ele>120.4</ele>
        <time>2020-09-13T10:25:31Z</time>
      </trkpt>
      <trkpt lat="46.53966" lon="0.3748">
        <ele>120.8</ele>
        <time>2020-09-13T10:25:33Z</time>
      </trkpt>
      <trkpt lat="46.53947" lon="0.37511">
        <ele>121</ele>
        <time>2020-09-13T10:25:39Z</time>
      </trkpt>
      <trkpt lat="46.53925" lon="0.37541">
        <ele>121.4</ele>
        <time>2020-09-13T10:25:45Z</time>
      </trkpt>
      <trkpt lat="46.53921" lon="0.37548">
        <ele>121.4</ele>
        <time>2020-09-13T10:25:46Z</time>
      </trkpt>
      <trkpt lat="46.53903" lon="0.37596">
        <ele>121.4</ele>
        <time>2020-09-13T10:25:53Z</time>
      </trkpt>
      <trkpt lat="46.53889" lon="0.37631">
        <ele>121</ele>
        <time>2020-09-13T10:25:58Z</time>
      </trkpt>
      <trkpt lat="46.53885" lon="0.37637">
        <ele>121</ele>
        <time>2020-09-13T10:25:59Z</time>
      </trkpt>
      <trkpt lat="46.53854" lon="0.37675">
        <ele>120.6</ele>
        <time>2020-09-13T10:26:06Z</time>
      </trkpt>
      <trkpt lat="46.53841" lon="0.37696">
        <ele>120</ele>
        <time>2020-09-13T10:26:10Z</time>
      </trkpt>
      <trkpt lat="46.53835" lon="0.37712">
        <ele>120</ele>
        <time>2020-09-13T10:26:11Z</time>
      </trkpt>
      <trkpt lat="46.53824" lon="0.37751">
        <ele>119.4</ele>
        <time>2020-09-13T10:26:16Z</time>
      </trkpt>
      <trkpt lat="46.53821" lon="0.37759">
        <ele>119.4</ele>
        <time>2020-09-13T10:26:17Z</time>
      </trkpt>
      <trkpt lat="46.53819" lon="0.37767">
        <ele>119.4</ele>
        <time>2020-09-13T10:26:18Z</time>
      </trkpt>
      <trkpt lat="46.53807" lon="0.37808">
        <ele>118.2</ele>
        <time>2020-09-13T10:26:23Z</time>
      </trkpt>
      <trkpt lat="46.53802" lon="0.37826">
        <ele>118.2</ele>
        <time>2020-09-13T10:26:25Z</time>
      </trkpt>
      <trkpt lat="46.5379" lon="0.37869">
        <ele>117.2</ele>
        <time>2020-09-13T10:26:29Z</time>
      </trkpt>
      <trkpt lat="46.53787" lon="0.3788">
        <ele>116.8</ele>
        <time>2020-09-13T10:26:30Z</time>
      </trkpt>
      <trkpt lat="46.53784" lon="0.37892">
        <ele>116</ele>
        <time>2020-09-13T10:26:32Z</time>
      </trkpt>
      <trkpt lat="46.5378" lon="0.37903">
        <ele>115.6</ele>
        <time>2020-09-13T10:26:33Z</time>
      </trkpt>
      <trkpt lat="46.53761" lon="0.3793">
        <ele>114.6</ele>
        <time>2020-09-13T10:26:36Z</time>
      </trkpt>
      <trkpt lat="46.53738" lon="0.37946">
        <ele>112.2</ele>
        <time>2020-09-13T10:26:38Z</time>
      </trkpt>
      <trkpt lat="46.5373" lon="0.37949">
        <ele>111</ele>
        <time>2020-09-13T10:26:39Z</time>
      </trkpt>
      <trkpt lat="46.5371" lon="0.37951">
        <ele>109.2</ele>
        <time>2020-09-13T10:26:41Z</time>
      </trkpt>
      <trkpt lat="46.537" lon="0.37949">
        <ele>108.2</ele>
        <time>2020-09-13T10:26:42Z</time>
      </trkpt>
      <trkpt lat="46.5369" lon="0.37947">
        <ele>107.4</ele>
        <time>2020-09-13T10:26:43Z</time>
      </trkpt>
      <trkpt lat="46.53671" lon="0.37945">
        <ele>105.8</ele>
        <time>2020-09-13T10:26:45Z</time>
      </trkpt>
      <trkpt lat="46.53661" lon="0.37945">
        <ele>105.4</ele>
        <time>2020-09-13T10:26:46Z</time>
      </trkpt>
      <trkpt lat="46.53651" lon="0.37944">
        <ele>105</ele>
        <time>2020-09-13T10:26:47Z</time>
      </trkpt>
      <trkpt lat="46.53643" lon="0.3794">
        <ele>104.6</ele>
        <time>2020-09-13T10:26:48Z</time>
      </trkpt>
      <trkpt lat="46.53635" lon="0.37935">
        <ele>104.4</ele>
        <time>2020-09-13T10:26:49Z</time>
      </trkpt>
      <trkpt lat="46.53624" lon="0.37923">
        <ele>104.2</ele>
        <time>2020-09-13T10:26:51Z</time>
      </trkpt>
      <trkpt lat="46.5362" lon="0.37917">
        <ele>104.2</ele>
        <time>2020-09-13T10:26:52Z</time>
      </trkpt>
      <trkpt lat="46.53611" lon="0.37904">
        <ele>105.4</ele>
        <time>2020-09-13T10:26:56Z</time>
      </trkpt>
      <trkpt lat="46.53605" lon="0.37899">
        <ele>105.6</ele>
        <time>2020-09-13T10:26:57Z</time>
      </trkpt>
      <trkpt lat="46.53598" lon="0.37894">
        <ele>106.8</ele>
        <time>2020-09-13T10:27:00Z</time>
      </trkpt>
      <trkpt lat="46.5359" lon="0.3789">
        <ele>107</ele>
        <time>2020-09-13T10:27:01Z</time>
      </trkpt>
      <trkpt lat="46.53583" lon="0.37885">
        <ele>107.8</ele>
        <time>2020-09-13T10:27:04Z</time>
      </trkpt>
      <trkpt lat="46.53571" lon="0.3788">
        <ele>108.8</ele>
        <time>2020-09-13T10:27:08Z</time>
      </trkpt>
      <trkpt lat="46.53556" lon="0.37871">
        <ele>110</ele>
        <time>2020-09-13T10:27:13Z</time>
      </trkpt>
      <trkpt lat="46.53553" lon="0.37868">
        <ele>110.2</ele>
        <time>2020-09-13T10:27:14Z</time>
      </trkpt>
      <trkpt lat="46.53539" lon="0.37861">
        <ele>111.2</ele>
        <time>2020-09-13T10:27:18Z</time>
      </trkpt>
      <trkpt lat="46.53534" lon="0.37859">
        <ele>111.6</ele>
        <time>2020-09-13T10:27:20Z</time>
      </trkpt>
      <trkpt lat="46.53527" lon="0.37856">
        <ele>112.2</ele>
        <time>2020-09-13T10:27:24Z</time>
      </trkpt>
      <trkpt lat="46.53522" lon="0.37851">
        <ele>113</ele>
        <time>2020-09-13T10:27:27Z</time>
      </trkpt>
      <trkpt lat="46.53517" lon="0.37848">
        <ele>113.2</ele>
        <time>2020-09-13T10:27:29Z</time>
      </trkpt>
      <trkpt lat="46.53507" lon="0.37843">
        <ele>114.4</ele>
        <time>2020-09-13T10:27:33Z</time>
      </trkpt>
      <trkpt lat="46.53501" lon="0.37838">
        <ele>114.6</ele>
        <time>2020-09-13T10:27:34Z</time>
      </trkpt>
      <trkpt lat="46.53491" lon="0.3783">
        <ele>115.4</ele>
        <time>2020-09-13T10:27:38Z</time>
      </trkpt>
      <trkpt lat="46.53479" lon="0.37815">
        <ele>116</ele>
        <time>2020-09-13T10:27:41Z</time>
      </trkpt>
      <trkpt lat="46.53457" lon="0.37778">
        <ele>116.2</ele>
        <time>2020-09-13T10:27:48Z</time>
      </trkpt>
      <trkpt lat="46.53446" lon="0.37755">
        <ele>116.6</ele>
        <time>2020-09-13T10:27:52Z</time>
      </trkpt>
      <trkpt lat="46.5344" lon="0.37738">
        <ele>117</ele>
        <time>2020-09-13T10:27:56Z</time>
      </trkpt>
      <trkpt lat="46.53434" lon="0.37724">
        <ele>117.2</ele>
        <time>2020-09-13T10:27:58Z</time>
      </trkpt>
      <trkpt lat="46.53428" lon="0.37713">
        <ele>117.4</ele>
        <time>2020-09-13T10:28:01Z</time>
      </trkpt>
      <trkpt lat="46.53421" lon="0.37692">
        <ele>117.6</ele>
        <time>2020-09-13T10:28:06Z</time>
      </trkpt>
      <trkpt lat="46.53416" lon="0.3768">
        <ele>118.2</ele>
        <time>2020-09-13T10:28:09Z</time>
      </trkpt>
      <trkpt lat="46.53414" lon="0.37676">
        <ele>118.6</ele>
        <time>2020-09-13T10:28:11Z</time>
      </trkpt>
      <trkpt lat="46.53403" lon="0.37648">
        <ele>119.8</ele>
        <time>2020-09-13T10:28:16Z</time>
      </trkpt>
      <trkpt lat="46.53383" lon="0.37602">
        <ele>120.6</ele>
        <time>2020-09-13T10:28:25Z</time>
      </trkpt>
      <trkpt lat="46.5338" lon="0.37596">
        <ele>120.8</ele>
        <time>2020-09-13T10:28:26Z</time>
      </trkpt>
      <trkpt lat="46.53358" lon="0.37544">
        <ele>121</ele>
        <time>2020-09-13T10:28:33Z</time>
      </trkpt>
      <trkpt lat="46.53343" lon="0.37507">
        <ele>120.6</ele>
        <time>2020-09-13T10:28:39Z</time>
      </trkpt>
      <trkpt lat="46.53321" lon="0.37456">
        <ele>120</ele>
        <time>2020-09-13T10:28:46Z</time>
      </trkpt>
      <trkpt lat="46.53314" lon="0.37438">
        <ele>119.6</ele>
        <time>2020-09-13T10:28:48Z</time>
      </trkpt>
      <trkpt lat="46.53301" lon="0.37398">
        <ele>118.4</ele>
        <time>2020-09-13T10:28:52Z</time>
      </trkpt>
      <trkpt lat="46.53291" lon="0.37367">
        <ele>117.4</ele>
        <time>2020-09-13T10:28:55Z</time>
      </trkpt>
      <trkpt lat="46.5328" lon="0.37334">
        <ele>116.4</ele>
        <time>2020-09-13T10:28:58Z</time>
      </trkpt>
      <trkpt lat="46.5328" lon="0.37334">
        <ele>116.2</ele>
        <time>2020-09-13T10:28:59Z</time>
      </trkpt>
      <trkpt lat="46.53266" lon="0.37305">
        <ele>115.4</ele>
        <time>2020-09-13T10:29:01Z</time>
      </trkpt>
      <trkpt lat="46.53261" lon="0.37298">
        <ele>115.2</ele>
        <time>2020-09-13T10:29:02Z</time>
      </trkpt>
      <trkpt lat="46.53254" lon="0.37291">
        <ele>115</ele>
        <time>2020-09-13T10:29:03Z</time>
      </trkpt>
      <trkpt lat="46.53248" lon="0.37287">
        <ele>114.8</ele>
        <time>2020-09-13T10:29:04Z</time>
      </trkpt>
      <trkpt lat="46.53234" lon="0.37279">
        <ele>114.2</ele>
        <time>2020-09-13T10:29:06Z</time>
      </trkpt>
      <trkpt lat="46.53226" lon="0.37274">
        <ele>113.4</ele>
        <time>2020-09-13T10:29:07Z</time>
      </trkpt>
      <trkpt lat="46.53218" lon="0.3727">
        <ele>112.2</ele>
        <time>2020-09-13T10:29:08Z</time>
      </trkpt>
      <trkpt lat="46.53209" lon="0.37267">
        <ele>111.2</ele>
        <time>2020-09-13T10:29:09Z</time>
      </trkpt>
      <trkpt lat="46.53209" lon="0.37267">
        <ele>109.8</ele>
        <time>2020-09-13T10:29:10Z</time>
      </trkpt>
      <trkpt lat="46.53154" lon="0.37251">
        <ele>108.8</ele>
        <time>2020-09-13T10:29:16Z</time>
      </trkpt>
      <trkpt lat="46.53148" lon="0.37248">
        <ele>108.8</ele>
        <time>2020-09-13T10:29:17Z</time>
      </trkpt>
      <trkpt lat="46.53125" lon="0.3724">
        <ele>109.2</ele>
        <time>2020-09-13T10:29:22Z</time>
      </trkpt>
      <trkpt lat="46.53102" lon="0.37229">
        <ele>109.8</ele>
        <time>2020-09-13T10:29:27Z</time>
      </trkpt>
      <trkpt lat="46.5309" lon="0.37221">
        <ele>109.8</ele>
        <time>2020-09-13T10:29:30Z</time>
      </trkpt>
      <trkpt lat="46.53079" lon="0.37211">
        <ele>110.2</ele>
        <time>2020-09-13T10:29:33Z</time>
      </trkpt>
      <trkpt lat="46.53073" lon="0.37203">
        <ele>110.4</ele>
        <time>2020-09-13T10:29:35Z</time>
      </trkpt>
      <trkpt lat="46.5307" lon="0.37193">
        <ele>110.4</ele>
        <time>2020-09-13T10:29:37Z</time>
      </trkpt>
      <trkpt lat="46.53066" lon="0.37184">
        <ele>110.4</ele>
        <time>2020-09-13T10:29:39Z</time>
      </trkpt>
      <trkpt lat="46.53059" lon="0.37162">
        <ele>110</ele>
        <time>2020-09-13T10:29:43Z</time>
      </trkpt>
      <trkpt lat="46.53052" lon="0.37138">
        <ele>109.8</ele>
        <time>2020-09-13T10:29:49Z</time>
      </trkpt>
      <trkpt lat="46.53046" lon="0.37117">
        <ele>110.4</ele>
        <time>2020-09-13T10:29:54Z</time>
      </trkpt>
      <trkpt lat="46.5304" lon="0.3709">
        <ele>110.4</ele>
        <time>2020-09-13T10:30:00Z</time>
      </trkpt>
      <trkpt lat="46.53026" lon="0.37077">
        <ele>110.8</ele>
        <time>2020-09-13T10:30:04Z</time>
      </trkpt>
      <trkpt lat="46.53004" lon="0.37058">
        <ele>112</ele>
        <time>2020-09-13T10:30:09Z</time>
      </trkpt>
      <trkpt lat="46.52996" lon="0.37053">
        <ele>112.6</ele>
        <time>2020-09-13T10:30:11Z</time>
      </trkpt>
      <trkpt lat="46.52988" lon="0.37046">
        <ele>113</ele>
        <time>2020-09-13T10:30:13Z</time>
      </trkpt>
      <trkpt lat="46.52976" lon="0.3704">
        <ele>114.2</ele>
        <time>2020-09-13T10:30:17Z</time>
      </trkpt>
      <trkpt lat="46.52974" lon="0.37038">
        <ele>114.6</ele>
        <time>2020-09-13T10:30:18Z</time>
      </trkpt>
      <trkpt lat="46.52963" lon="0.37031">
        <ele>115.4</ele>
        <time>2020-09-13T10:30:22Z</time>
      </trkpt>
      <trkpt lat="46.5296" lon="0.3703">
        <ele>115.6</ele>
        <time>2020-09-13T10:30:23Z</time>
      </trkpt>
      <trkpt lat="46.52953" lon="0.37026">
        <ele>116.6</ele>
        <time>2020-09-13T10:30:26Z</time>
      </trkpt>
      <trkpt lat="46.52947" lon="0.37018">
        <ele>117</ele>
        <time>2020-09-13T10:30:29Z</time>
      </trkpt>
      <trkpt lat="46.52938" lon="0.37001">
        <ele>117.8</ele>
        <time>2020-09-13T10:30:34Z</time>
      </trkpt>
      <trkpt lat="46.52929" lon="0.3697">
        <ele>118</ele>
        <time>2020-09-13T10:30:40Z</time>
      </trkpt>
      <trkpt lat="46.5292" lon="0.36922">
        <ele>117.6</ele>
        <time>2020-09-13T10:30:47Z</time>
      </trkpt>
      <trkpt lat="46.52916" lon="0.36898">
        <ele>116.8</ele>
        <time>2020-09-13T10:30:50Z</time>
      </trkpt>
      <trkpt lat="46.52914" lon="0.36889">
        <ele>116.4</ele>
        <time>2020-09-13T10:30:51Z</time>
      </trkpt>
      <trkpt lat="46.52911" lon="0.36882">
        <ele>116.2</ele>
        <time>2020-09-13T10:30:52Z</time>
      </trkpt>
      <trkpt lat="46.52888" lon="0.36852">
        <ele>115.4</ele>
        <time>2020-09-13T10:30:57Z</time>
      </trkpt>
      <trkpt lat="46.52864" lon="0.36827">
        <ele>114.2</ele>
        <time>2020-09-13T10:31:02Z</time>
      </trkpt>
      <trkpt lat="46.52854" lon="0.36818">
        <ele>113.8</ele>
        <time>2020-09-13T10:31:04Z</time>
      </trkpt>
      <trkpt lat="46.52839" lon="0.36806">
        <ele>113.6</ele>
        <time>2020-09-13T10:31:07Z</time>
      </trkpt>
      <trkpt lat="46.52819" lon="0.36803">
        <ele>113.2</ele>
        <time>2020-09-13T10:31:09Z</time>
      </trkpt>
      <trkpt lat="46.52805" lon="0.36802">
        <ele>112</ele>
        <time>2020-09-13T10:31:12Z</time>
      </trkpt>
      <trkpt lat="46.52797" lon="0.36802">
        <ele>111.8</ele>
        <time>2020-09-13T10:31:13Z</time>
      </trkpt>
      <trkpt lat="46.52783" lon="0.36807">
        <ele>110.4</ele>
        <time>2020-09-13T10:31:15Z</time>
      </trkpt>
      <trkpt lat="46.52762" lon="0.36819">
        <ele>108.4</ele>
        <time>2020-09-13T10:31:17Z</time>
      </trkpt>
      <trkpt lat="46.52749" lon="0.3683">
        <ele>106.8</ele>
        <time>2020-09-13T10:31:19Z</time>
      </trkpt>
      <trkpt lat="46.52734" lon="0.36847">
        <ele>105.2</ele>
        <time>2020-09-13T10:31:21Z</time>
      </trkpt>
      <trkpt lat="46.52726" lon="0.36857">
        <ele>104</ele>
        <time>2020-09-13T10:31:22Z</time>
      </trkpt>
      <trkpt lat="46.52719" lon="0.36866">
        <ele>102.4</ele>
        <time>2020-09-13T10:31:23Z</time>
      </trkpt>
      <trkpt lat="46.52712" lon="0.36877">
        <ele>101.2</ele>
        <time>2020-09-13T10:31:24Z</time>
      </trkpt>
      <trkpt lat="46.52699" lon="0.36899">
        <ele>99.6</ele>
        <time>2020-09-13T10:31:26Z</time>
      </trkpt>
      <trkpt lat="46.52688" lon="0.3692">
        <ele>97.4</ele>
        <time>2020-09-13T10:31:28Z</time>
      </trkpt>
      <trkpt lat="46.52683" lon="0.36931">
        <ele>96</ele>
        <time>2020-09-13T10:31:29Z</time>
      </trkpt>
      <trkpt lat="46.52673" lon="0.36952">
        <ele>94.2</ele>
        <time>2020-09-13T10:31:31Z</time>
      </trkpt>
      <trkpt lat="46.52666" lon="0.36973">
        <ele>93.2</ele>
        <time>2020-09-13T10:31:33Z</time>
      </trkpt>
      <trkpt lat="46.52663" lon="0.36983">
        <ele>93</ele>
        <time>2020-09-13T10:31:34Z</time>
      </trkpt>
      <trkpt lat="46.52661" lon="0.36992">
        <ele>92.8</ele>
        <time>2020-09-13T10:31:35Z</time>
      </trkpt>
      <trkpt lat="46.52659" lon="0.37012">
        <ele>92</ele>
        <time>2020-09-13T10:31:37Z</time>
      </trkpt>
      <trkpt lat="46.52657" lon="0.37029">
        <ele>90.8</ele>
        <time>2020-09-13T10:31:39Z</time>
      </trkpt>
      <trkpt lat="46.52653" lon="0.37056">
        <ele>90.2</ele>
        <time>2020-09-13T10:31:42Z</time>
      </trkpt>
      <trkpt lat="46.52653" lon="0.37075">
        <ele>90</ele>
        <time>2020-09-13T10:31:44Z</time>
      </trkpt>
      <trkpt lat="46.52653" lon="0.37092">
        <ele>89.8</ele>
        <time>2020-09-13T10:31:46Z</time>
      </trkpt>
      <trkpt lat="46.52655" lon="0.37116">
        <ele>90.2</ele>
        <time>2020-09-13T10:31:49Z</time>
      </trkpt>
      <trkpt lat="46.52659" lon="0.3714">
        <ele>90.2</ele>
        <time>2020-09-13T10:31:52Z</time>
      </trkpt>
      <trkpt lat="46.52664" lon="0.37173">
        <ele>89.8</ele>
        <time>2020-09-13T10:31:56Z</time>
      </trkpt>
      <trkpt lat="46.52677" lon="0.37225">
        <ele>89.2</ele>
        <time>2020-09-13T10:32:02Z</time>
      </trkpt>
      <trkpt lat="46.5268" lon="0.37243">
        <ele>88.8</ele>
        <time>2020-09-13T10:32:04Z</time>
      </trkpt>
      <trkpt lat="46.52689" lon="0.37286">
        <ele>88.4</ele>
        <time>2020-09-13T10:32:09Z</time>
      </trkpt>
      <trkpt lat="46.52688" lon="0.37302">
        <ele>88.2</ele>
        <time>2020-09-13T10:32:11Z</time>
      </trkpt>
      <trkpt lat="46.52685" lon="0.37318">
        <ele>88</ele>
        <time>2020-09-13T10:32:13Z</time>
      </trkpt>
      <trkpt lat="46.52682" lon="0.37325">
        <ele>87.8</ele>
        <time>2020-09-13T10:32:14Z</time>
      </trkpt>
      <trkpt lat="46.52669" lon="0.37357">
        <ele>87.6</ele>
        <time>2020-09-13T10:32:19Z</time>
      </trkpt>
      <trkpt lat="46.52666" lon="0.37363">
        <ele>87.8</ele>
        <time>2020-09-13T10:32:20Z</time>
      </trkpt>
      <trkpt lat="46.52658" lon="0.3738">
        <ele>88.2</ele>
        <time>2020-09-13T10:32:23Z</time>
      </trkpt>
      <trkpt lat="46.52656" lon="0.37384">
        <ele>88.2</ele>
        <time>2020-09-13T10:32:24Z</time>
      </trkpt>
      <trkpt lat="46.52653" lon="0.37387">
        <ele>88.2</ele>
        <time>2020-09-13T10:32:25Z</time>
      </trkpt>
      <trkpt lat="46.52642" lon="0.37389">
        <ele>88.6</ele>
        <time>2020-09-13T10:32:28Z</time>
      </trkpt>
      <trkpt lat="46.52628" lon="0.37382">
        <ele>88.6</ele>
        <time>2020-09-13T10:32:31Z</time>
      </trkpt>
      <trkpt lat="46.52623" lon="0.37378">
        <ele>88.6</ele>
        <time>2020-09-13T10:32:32Z</time>
      </trkpt>
      <trkpt lat="46.52615" lon="0.37369">
        <ele>88.4</ele>
        <time>2020-09-13T10:32:34Z</time>
      </trkpt>
      <trkpt lat="46.52605" lon="0.37353">
        <ele>88.2</ele>
        <time>2020-09-13T10:32:37Z</time>
      </trkpt>
      <trkpt lat="46.52593" lon="0.37332">
        <ele>88.8</ele>
        <time>2020-09-13T10:32:42Z</time>
      </trkpt>
      <trkpt lat="46.52591" lon="0.37328">
        <ele>89</ele>
        <time>2020-09-13T10:32:43Z</time>
      </trkpt>
      <trkpt lat="46.52585" lon="0.37316">
        <ele>90</ele>
        <time>2020-09-13T10:32:46Z</time>
      </trkpt>
      <trkpt lat="46.52578" lon="0.37303">
        <ele>90.6</ele>
        <time>2020-09-13T10:32:49Z</time>
      </trkpt>
      <trkpt lat="46.52573" lon="0.37294">
        <ele>90.6</ele>
        <time>2020-09-13T10:32:51Z</time>
      </trkpt>
      <trkpt lat="46.52567" lon="0.37282">
        <ele>91</ele>
        <time>2020-09-13T10:32:54Z</time>
      </trkpt>
      <trkpt lat="46.52559" lon="0.37268">
        <ele>91.8</ele>
        <time>2020-09-13T10:32:57Z</time>
      </trkpt>
      <trkpt lat="46.52551" lon="0.37254">
        <ele>92</ele>
        <time>2020-09-13T10:33:00Z</time>
      </trkpt>
      <trkpt lat="46.52541" lon="0.37235">
        <ele>92.4</ele>
        <time>2020-09-13T10:33:04Z</time>
      </trkpt>
      <trkpt lat="46.5252" lon="0.372">
        <ele>93</ele>
        <time>2020-09-13T10:33:12Z</time>
      </trkpt>
      <trkpt lat="46.52514" lon="0.37191">
        <ele>93.2</ele>
        <time>2020-09-13T10:33:14Z</time>
      </trkpt>
      <trkpt lat="46.52503" lon="0.37169">
        <ele>93.2</ele>
        <time>2020-09-13T10:33:19Z</time>
      </trkpt>
      <trkpt lat="46.52491" lon="0.37151">
        <ele>94.2</ele>
        <time>2020-09-13T10:33:25Z</time>
      </trkpt>
      <trkpt lat="46.52487" lon="0.37143">
        <ele>94.8</ele>
        <time>2020-09-13T10:33:27Z</time>
      </trkpt>
      <trkpt lat="46.5248" lon="0.3713">
        <ele>95.2</ele>
        <time>2020-09-13T10:33:30Z</time>
      </trkpt>
      <trkpt lat="46.52475" lon="0.37122">
        <ele>95.8</ele>
        <time>2020-09-13T10:33:33Z</time>
      </trkpt>
      <trkpt lat="46.5247" lon="0.37111">
        <ele>96.6</ele>
        <time>2020-09-13T10:33:37Z</time>
      </trkpt>
      <trkpt lat="46.52465" lon="0.37099">
        <ele>97.6</ele>
        <time>2020-09-13T10:33:41Z</time>
      </trkpt>
      <trkpt lat="46.52463" lon="0.37096">
        <ele>97.8</ele>
        <time>2020-09-13T10:33:42Z</time>
      </trkpt>
      <trkpt lat="46.52455" lon="0.37087">
        <ele>98.4</ele>
        <time>2020-09-13T10:33:47Z</time>
      </trkpt>
      <trkpt lat="46.52451" lon="0.37084">
        <ele>98.6</ele>
        <time>2020-09-13T10:33:48Z</time>
      </trkpt>
      <trkpt lat="46.52448" lon="0.37084">
        <ele>98.8</ele>
        <time>2020-09-13T10:33:49Z</time>
      </trkpt>
      <trkpt lat="46.52443" lon="0.37083">
        <ele>99.2</ele>
        <time>2020-09-13T10:33:51Z</time>
      </trkpt>
      <trkpt lat="46.52435" lon="0.37084">
        <ele>100</ele>
        <time>2020-09-13T10:33:54Z</time>
      </trkpt>
      <trkpt lat="46.52424" lon="0.37091">
        <ele>100.4</ele>
        <time>2020-09-13T10:33:58Z</time>
      </trkpt>
      <trkpt lat="46.52412" lon="0.3711">
        <ele>100.2</ele>
        <time>2020-09-13T10:34:02Z</time>
      </trkpt>
      <trkpt lat="46.52393" lon="0.37135">
        <ele>98.6</ele>
        <time>2020-09-13T10:34:07Z</time>
      </trkpt>
      <trkpt lat="46.52383" lon="0.37164">
        <ele>98</ele>
        <time>2020-09-13T10:34:09Z</time>
      </trkpt>
      <trkpt lat="46.52381" lon="0.37176">
        <ele>97.6</ele>
        <time>2020-09-13T10:34:10Z</time>
      </trkpt>
      <trkpt lat="46.52375" lon="0.37199">
        <ele>96.6</ele>
        <time>2020-09-13T10:34:12Z</time>
      </trkpt>
      <trkpt lat="46.52375" lon="0.37199">
        <ele>96.4</ele>
        <time>2020-09-13T10:34:13Z</time>
      </trkpt>
      <trkpt lat="46.52362" lon="0.37217">
        <ele>96</ele>
        <time>2020-09-13T10:34:14Z</time>
      </trkpt>
      <trkpt lat="46.52345" lon="0.3722">
        <ele>95.2</ele>
        <time>2020-09-13T10:34:16Z</time>
      </trkpt>
      <trkpt lat="46.52328" lon="0.37222">
        <ele>94</ele>
        <time>2020-09-13T10:34:18Z</time>
      </trkpt>
      <trkpt lat="46.52314" lon="0.37235">
        <ele>93</ele>
        <time>2020-09-13T10:34:20Z</time>
      </trkpt>
      <trkpt lat="46.5231" lon="0.37245">
        <ele>92.4</ele>
        <time>2020-09-13T10:34:21Z</time>
      </trkpt>
      <trkpt lat="46.52308" lon="0.37257">
        <ele>92.2</ele>
        <time>2020-09-13T10:34:22Z</time>
      </trkpt>
      <trkpt lat="46.52305" lon="0.37279">
        <ele>91.4</ele>
        <time>2020-09-13T10:34:24Z</time>
      </trkpt>
      <trkpt lat="46.52305" lon="0.373">
        <ele>91</ele>
        <time>2020-09-13T10:34:26Z</time>
      </trkpt>
      <trkpt lat="46.52305" lon="0.37365">
        <ele>90.6</ele>
        <time>2020-09-13T10:34:33Z</time>
      </trkpt>
      <trkpt lat="46.523" lon="0.37418">
        <ele>90.8</ele>
        <time>2020-09-13T10:34:39Z</time>
      </trkpt>
      <trkpt lat="46.523" lon="0.37442">
        <ele>91</ele>
        <time>2020-09-13T10:34:42Z</time>
      </trkpt>
      <trkpt lat="46.52301" lon="0.37457">
        <ele>91.6</ele>
        <time>2020-09-13T10:34:44Z</time>
      </trkpt>
      <trkpt lat="46.52302" lon="0.37477">
        <ele>92.4</ele>
        <time>2020-09-13T10:34:47Z</time>
      </trkpt>
      <trkpt lat="46.52304" lon="0.37488">
        <ele>92.6</ele>
        <time>2020-09-13T10:34:49Z</time>
      </trkpt>
      <trkpt lat="46.52305" lon="0.37502">
        <ele>93.6</ele>
        <time>2020-09-13T10:34:52Z</time>
      </trkpt>
      <trkpt lat="46.52305" lon="0.37517">
        <ele>94</ele>
        <time>2020-09-13T10:34:55Z</time>
      </trkpt>
      <trkpt lat="46.52304" lon="0.37531">
        <ele>94.6</ele>
        <time>2020-09-13T10:34:58Z</time>
      </trkpt>
      <trkpt lat="46.52305" lon="0.37548">
        <ele>95.8</ele>
        <time>2020-09-13T10:35:03Z</time>
      </trkpt>
      <trkpt lat="46.52304" lon="0.37565">
        <ele>97</ele>
        <time>2020-09-13T10:35:07Z</time>
      </trkpt>
      <trkpt lat="46.52304" lon="0.37587">
        <ele>98.2</ele>
        <time>2020-09-13T10:35:12Z</time>
      </trkpt>
      <trkpt lat="46.52306" lon="0.37609">
        <ele>99.2</ele>
        <time>2020-09-13T10:35:17Z</time>
      </trkpt>
      <trkpt lat="46.52307" lon="0.37613">
        <ele>99.4</ele>
        <time>2020-09-13T10:35:18Z</time>
      </trkpt>
      <trkpt lat="46.52309" lon="0.37633">
        <ele>100.2</ele>
        <time>2020-09-13T10:35:23Z</time>
      </trkpt>
      <trkpt lat="46.52313" lon="0.37653">
        <ele>101.4</ele>
        <time>2020-09-13T10:35:27Z</time>
      </trkpt>
      <trkpt lat="46.52317" lon="0.37674">
        <ele>102.4</ele>
        <time>2020-09-13T10:35:33Z</time>
      </trkpt>
      <trkpt lat="46.52319" lon="0.37683">
        <ele>103</ele>
        <time>2020-09-13T10:35:36Z</time>
      </trkpt>
      <trkpt lat="46.52319" lon="0.37692">
        <ele>103.6</ele>
        <time>2020-09-13T10:35:39Z</time>
      </trkpt>
      <trkpt lat="46.52322" lon="0.37707">
        <ele>104.4</ele>
        <time>2020-09-13T10:35:45Z</time>
      </trkpt>
      <trkpt lat="46.52323" lon="0.37712">
        <ele>104.6</ele>
        <time>2020-09-13T10:35:47Z</time>
      </trkpt>
      <trkpt lat="46.52323" lon="0.37724">
        <ele>105.2</ele>
        <time>2020-09-13T10:35:53Z</time>
      </trkpt>
      <trkpt lat="46.52324" lon="0.37729">
        <ele>105.4</ele>
        <time>2020-09-13T10:35:54Z</time>
      </trkpt>
      <trkpt lat="46.52325" lon="0.37738">
        <ele>105.6</ele>
        <time>2020-09-13T10:35:57Z</time>
      </trkpt>
      <trkpt lat="46.52325" lon="0.37741">
        <ele>106</ele>
        <time>2020-09-13T10:35:59Z</time>
      </trkpt>
      <trkpt lat="46.52325" lon="0.37752">
        <ele>106.8</ele>
        <time>2020-09-13T10:36:03Z</time>
      </trkpt>
      <trkpt lat="46.52326" lon="0.37766">
        <ele>107.8</ele>
        <time>2020-09-13T10:36:08Z</time>
      </trkpt>
      <trkpt lat="46.52325" lon="0.37783">
        <ele>109</ele>
        <time>2020-09-13T10:36:15Z</time>
      </trkpt>
      <trkpt lat="46.52324" lon="0.3779">
        <ele>109.2</ele>
        <time>2020-09-13T10:36:17Z</time>
      </trkpt>
      <trkpt lat="46.52323" lon="0.37802">
        <ele>110</ele>
        <time>2020-09-13T10:36:22Z</time>
      </trkpt>
      <trkpt lat="46.52323" lon="0.37805">
        <ele>110</ele>
        <time>2020-09-13T10:36:23Z</time>
      </trkpt>
      <trkpt lat="46.52323" lon="0.37819">
        <ele>111.2</ele>
        <time>2020-09-13T10:36:29Z</time>
      </trkpt>
      <trkpt lat="46.52322" lon="0.37825">
        <ele>111.6</ele>
        <time>2020-09-13T10:36:32Z</time>
      </trkpt>
      <trkpt lat="46.52321" lon="0.37833">
        <ele>112.2</ele>
        <time>2020-09-13T10:36:35Z</time>
      </trkpt>
      <trkpt lat="46.52321" lon="0.37845">
        <ele>113.2</ele>
        <time>2020-09-13T10:36:40Z</time>
      </trkpt>
      <trkpt lat="46.52321" lon="0.3786">
        <ele>114.2</ele>
        <time>2020-09-13T10:36:47Z</time>
      </trkpt>
      <trkpt lat="46.52321" lon="0.37863">
        <ele>114.4</ele>
        <time>2020-09-13T10:36:48Z</time>
      </trkpt>
      <trkpt lat="46.52322" lon="0.37875">
        <ele>115.4</ele>
        <time>2020-09-13T10:36:53Z</time>
      </trkpt>
      <trkpt lat="46.52322" lon="0.37879">
        <ele>115.8</ele>
        <time>2020-09-13T10:36:55Z</time>
      </trkpt>
      <trkpt lat="46.52322" lon="0.37886">
        <ele>116.6</ele>
        <time>2020-09-13T10:36:58Z</time>
      </trkpt>
      <trkpt lat="46.52322" lon="0.37896">
        <ele>117.4</ele>
        <time>2020-09-13T10:37:03Z</time>
      </trkpt>
      <trkpt lat="46.52322" lon="0.37901">
        <ele>117.6</ele>
        <time>2020-09-13T10:37:05Z</time>
      </trkpt>
      <trkpt lat="46.52325" lon="0.37911">
        <ele>118.4</ele>
        <time>2020-09-13T10:37:09Z</time>
      </trkpt>
      <trkpt lat="46.52325" lon="0.37917">
        <ele>118.8</ele>
        <time>2020-09-13T10:37:11Z</time>
      </trkpt>
      <trkpt lat="46.52329" lon="0.37933">
        <ele>120</ele>
        <time>2020-09-13T10:37:16Z</time>
      </trkpt>
      <trkpt lat="46.52331" lon="0.37942">
        <ele>120.2</ele>
        <time>2020-09-13T10:37:19Z</time>
      </trkpt>
      <trkpt lat="46.52329" lon="0.37945">
        <ele>120.4</ele>
        <time>2020-09-13T10:37:21Z</time>
      </trkpt>
      <trkpt lat="46.52325" lon="0.37944">
        <ele>121</ele>
        <time>2020-09-13T10:37:24Z</time>
      </trkpt>
      <trkpt lat="46.52322" lon="0.3794">
        <ele>121</ele>
        <time>2020-09-13T10:37:26Z</time>
      </trkpt>
      <trkpt lat="46.52312" lon="0.37925">
        <ele>120.6</ele>
        <time>2020-09-13T10:37:31Z</time>
      </trkpt>
      <trkpt lat="46.523" lon="0.37909">
        <ele>120.4</ele>
        <time>2020-09-13T10:37:35Z</time>
      </trkpt>
      <trkpt lat="46.52295" lon="0.379">
        <ele>120.2</ele>
        <time>2020-09-13T10:37:37Z</time>
      </trkpt>
      <trkpt lat="46.52292" lon="0.37896">
        <ele>120</ele>
        <time>2020-09-13T10:37:38Z</time>
      </trkpt>
      <trkpt lat="46.52289" lon="0.37892">
        <ele>119.8</ele>
        <time>2020-09-13T10:37:39Z</time>
      </trkpt>
      <trkpt lat="46.52286" lon="0.37891">
        <ele>119.4</ele>
        <time>2020-09-13T10:37:40Z</time>
      </trkpt>
      <trkpt lat="46.52283" lon="0.37891">
        <ele>119.2</ele>
        <time>2020-09-13T10:37:41Z</time>
      </trkpt>
      <trkpt lat="46.52266" lon="0.37901">
        <ele>119.2</ele>
        <time>2020-09-13T10:37:47Z</time>
      </trkpt>
      <trkpt lat="46.52254" lon="0.37909">
        <ele>119.4</ele>
        <time>2020-09-13T10:37:50Z</time>
      </trkpt>
      <trkpt lat="46.52247" lon="0.37914">
        <ele>119.4</ele>
        <time>2020-09-13T10:37:53Z</time>
      </trkpt>
      <trkpt lat="46.52241" lon="0.37922">
        <ele>119.6</ele>
        <time>2020-09-13T10:37:55Z</time>
      </trkpt>
      <trkpt lat="46.52231" lon="0.37934">
        <ele>119.8</ele>
        <time>2020-09-13T10:37:58Z</time>
      </trkpt>
      <trkpt lat="46.52227" lon="0.37938">
        <ele>119.8</ele>
        <time>2020-09-13T10:37:59Z</time>
      </trkpt>
      <trkpt lat="46.5222" lon="0.37943">
        <ele>120</ele>
        <time>2020-09-13T10:38:00Z</time>
      </trkpt>
      <trkpt lat="46.5221" lon="0.37956">
        <ele>120</ele>
        <time>2020-09-13T10:38:04Z</time>
      </trkpt>
      <trkpt lat="46.52201" lon="0.37965">
        <ele>120</ele>
        <time>2020-09-13T10:38:05Z</time>
      </trkpt>
      <trkpt lat="46.52183" lon="0.3798">
        <ele>119.4</ele>
        <time>2020-09-13T10:38:09Z</time>
      </trkpt>
      <trkpt lat="46.52161" lon="0.37997">
        <ele>119</ele>
        <time>2020-09-13T10:38:15Z</time>
      </trkpt>
      <trkpt lat="46.52155" lon="0.37998">
        <ele>118.6</ele>
        <time>2020-09-13T10:38:16Z</time>
      </trkpt>
      <trkpt lat="46.52145" lon="0.38">
        <ele>118.4</ele>
        <time>2020-09-13T10:38:17Z</time>
      </trkpt>
      <trkpt lat="46.52132" lon="0.38003">
        <ele>117.2</ele>
        <time>2020-09-13T10:38:19Z</time>
      </trkpt>
      <trkpt lat="46.52121" lon="0.38006">
        <ele>116</ele>
        <time>2020-09-13T10:38:21Z</time>
      </trkpt>
      <trkpt lat="46.52116" lon="0.38006">
        <ele>115.4</ele>
        <time>2020-09-13T10:38:22Z</time>
      </trkpt>
      <trkpt lat="46.52112" lon="0.38006">
        <ele>114.4</ele>
        <time>2020-09-13T10:38:23Z</time>
      </trkpt>
      <trkpt lat="46.52107" lon="0.38007">
        <ele>113.4</ele>
        <time>2020-09-13T10:38:24Z</time>
      </trkpt>
      <trkpt lat="46.52103" lon="0.38006">
        <ele>112.6</ele>
        <time>2020-09-13T10:38:25Z</time>
      </trkpt>
      <trkpt lat="46.52098" lon="0.38006">
        <ele>111.6</ele>
        <time>2020-09-13T10:38:26Z</time>
      </trkpt>
      <trkpt lat="46.52093" lon="0.38006">
        <ele>110.6</ele>
        <time>2020-09-13T10:38:27Z</time>
      </trkpt>
      <trkpt lat="46.52085" lon="0.38005">
        <ele>109</ele>
        <time>2020-09-13T10:38:29Z</time>
      </trkpt>
      <trkpt lat="46.5208" lon="0.38004">
        <ele>107.6</ele>
        <time>2020-09-13T10:38:30Z</time>
      </trkpt>
      <trkpt lat="46.52076" lon="0.38002">
        <ele>106</ele>
        <time>2020-09-13T10:38:31Z</time>
      </trkpt>
      <trkpt lat="46.5207" lon="0.38003">
        <ele>104.6</ele>
        <time>2020-09-13T10:38:32Z</time>
      </trkpt>
      <trkpt lat="46.52063" lon="0.38001">
        <ele>102.8</ele>
        <time>2020-09-13T10:38:34Z</time>
      </trkpt>
      <trkpt lat="46.52059" lon="0.37999">
        <ele>101.8</ele>
        <time>2020-09-13T10:38:35Z</time>
      </trkpt>
      <trkpt lat="46.52056" lon="0.37995">
        <ele>100.8</ele>
        <time>2020-09-13T10:38:36Z</time>
      </trkpt>
      <trkpt lat="46.5205" lon="0.37993">
        <ele>100</ele>
        <time>2020-09-13T10:38:37Z</time>
      </trkpt>
      <trkpt lat="46.52046" lon="0.3799">
        <ele>99.2</ele>
        <time>2020-09-13T10:38:38Z</time>
      </trkpt>
      <trkpt lat="46.52043" lon="0.37989">
        <ele>98.8</ele>
        <time>2020-09-13T10:38:39Z</time>
      </trkpt>
      <trkpt lat="46.52038" lon="0.37987">
        <ele>98.2</ele>
        <time>2020-09-13T10:38:40Z</time>
      </trkpt>
      <trkpt lat="46.5203" lon="0.37982">
        <ele>97.4</ele>
        <time>2020-09-13T10:38:42Z</time>
      </trkpt>
      <trkpt lat="46.52022" lon="0.37973">
        <ele>96.8</ele>
        <time>2020-09-13T10:38:44Z</time>
      </trkpt>
      <trkpt lat="46.52017" lon="0.37968">
        <ele>96.8</ele>
        <time>2020-09-13T10:38:45Z</time>
      </trkpt>
      <trkpt lat="46.52" lon="0.3796">
        <ele>96.6</ele>
        <time>2020-09-13T10:38:47Z</time>
      </trkpt>
      <trkpt lat="46.51992" lon="0.37959">
        <ele>96.2</ele>
        <time>2020-09-13T10:38:48Z</time>
      </trkpt>
      <trkpt lat="46.51983" lon="0.37962">
        <ele>95.8</ele>
        <time>2020-09-13T10:38:49Z</time>
      </trkpt>
      <trkpt lat="46.5196" lon="0.37967">
        <ele>95</ele>
        <time>2020-09-13T10:38:52Z</time>
      </trkpt>
      <trkpt lat="46.51955" lon="0.37968">
        <ele>94.8</ele>
        <time>2020-09-13T10:38:53Z</time>
      </trkpt>
      <trkpt lat="46.51948" lon="0.37968">
        <ele>93.8</ele>
        <time>2020-09-13T10:38:55Z</time>
      </trkpt>
      <trkpt lat="46.51945" lon="0.37968">
        <ele>92.8</ele>
        <time>2020-09-13T10:38:57Z</time>
      </trkpt>
      <trkpt lat="46.51945" lon="0.37968">
        <ele>92.6</ele>
        <time>2020-09-13T10:38:58Z</time>
      </trkpt>
      <trkpt lat="46.5194" lon="0.37968">
        <ele>92.6</ele>
        <time>2020-09-13T10:39:05Z</time>
      </trkpt>
      <trkpt lat="46.51936" lon="0.37971">
        <ele>92.6</ele>
        <time>2020-09-13T10:39:12Z</time>
      </trkpt>
      <trkpt lat="46.51932" lon="0.37976">
        <ele>92.6</ele>
        <time>2020-09-13T10:39:20Z</time>
      </trkpt>
      <trkpt lat="46.51925" lon="0.3798">
        <ele>92.6</ele>
        <time>2020-09-13T10:39:27Z</time>
      </trkpt>
      <trkpt lat="46.51921" lon="0.37983">
        <ele>92.6</ele>
        <time>2020-09-13T10:39:33Z</time>
      </trkpt>
      <trkpt lat="46.51914" lon="0.37991">
        <ele>92.6</ele>
        <time>2020-09-13T10:39:41Z</time>
      </trkpt>
      <trkpt lat="46.5191" lon="0.37996">
        <ele>92.6</ele>
        <time>2020-09-13T10:39:48Z</time>
      </trkpt>
      <trkpt lat="46.51906" lon="0.37999">
        <ele>92.6</ele>
        <time>2020-09-13T10:39:52Z</time>
      </trkpt>
      <trkpt lat="46.51901" lon="0.38005">
        <ele>92.8</ele>
        <time>2020-09-13T10:39:56Z</time>
      </trkpt>
      <trkpt lat="46.51897" lon="0.38007">
        <ele>93</ele>
        <time>2020-09-13T10:39:58Z</time>
      </trkpt>
      <trkpt lat="46.51892" lon="0.38006">
        <ele>93.4</ele>
        <time>2020-09-13T10:40:00Z</time>
      </trkpt>
      <trkpt lat="46.51875" lon="0.37997">
        <ele>93.8</ele>
        <time>2020-09-13T10:40:05Z</time>
      </trkpt>
      <trkpt lat="46.51871" lon="0.37996">
        <ele>93.8</ele>
        <time>2020-09-13T10:40:06Z</time>
      </trkpt>
      <trkpt lat="46.5186" lon="0.37993">
        <ele>94.8</ele>
        <time>2020-09-13T10:40:10Z</time>
      </trkpt>
      <trkpt lat="46.51849" lon="0.37992">
        <ele>95.4</ele>
        <time>2020-09-13T10:40:13Z</time>
      </trkpt>
      <trkpt lat="46.51838" lon="0.37986">
        <ele>95.6</ele>
        <time>2020-09-13T10:40:18Z</time>
      </trkpt>
      <trkpt lat="46.51839" lon="0.37978">
        <ele>95.8</ele>
        <time>2020-09-13T10:40:21Z</time>
      </trkpt>
      <trkpt lat="46.5184" lon="0.37974">
        <ele>96.2</ele>
        <time>2020-09-13T10:40:22Z</time>
      </trkpt>
      <trkpt lat="46.51842" lon="0.37963">
        <ele>96.8</ele>
        <time>2020-09-13T10:40:25Z</time>
      </trkpt>
      <trkpt lat="46.51843" lon="0.37955">
        <ele>97</ele>
        <time>2020-09-13T10:40:27Z</time>
      </trkpt>
      <trkpt lat="46.51845" lon="0.37934">
        <ele>97.2</ele>
        <time>2020-09-13T10:40:33Z</time>
      </trkpt>
      <trkpt lat="46.51845" lon="0.37924">
        <ele>97</ele>
        <time>2020-09-13T10:40:35Z</time>
      </trkpt>
      <trkpt lat="46.51846" lon="0.37913">
        <ele>96.8</ele>
        <time>2020-09-13T10:40:37Z</time>
      </trkpt>
      <trkpt lat="46.51847" lon="0.379">
        <ele>96.8</ele>
        <time>2020-09-13T10:40:39Z</time>
      </trkpt>
      <trkpt lat="46.51853" lon="0.37881">
        <ele>96.6</ele>
        <time>2020-09-13T10:40:42Z</time>
      </trkpt>
      <trkpt lat="46.51857" lon="0.37875">
        <ele>96.4</ele>
        <time>2020-09-13T10:40:43Z</time>
      </trkpt>
      <trkpt lat="46.51863" lon="0.37865">
        <ele>96.2</ele>
        <time>2020-09-13T10:40:45Z</time>
      </trkpt>
      <trkpt lat="46.51868" lon="0.37852">
        <ele>95.6</ele>
        <time>2020-09-13T10:40:47Z</time>
      </trkpt>
      <trkpt lat="46.51876" lon="0.37837">
        <ele>95.2</ele>
        <time>2020-09-13T10:40:49Z</time>
      </trkpt>
      <trkpt lat="46.51879" lon="0.3783">
        <ele>95</ele>
        <time>2020-09-13T10:40:50Z</time>
      </trkpt>
      <trkpt lat="46.51882" lon="0.37813">
        <ele>95</ele>
        <time>2020-09-13T10:40:52Z</time>
      </trkpt>
      <trkpt lat="46.51885" lon="0.37797">
        <ele>95</ele>
        <time>2020-09-13T10:40:54Z</time>
      </trkpt>
      <trkpt lat="46.51888" lon="0.37773">
        <ele>95.2</ele>
        <time>2020-09-13T10:40:57Z</time>
      </trkpt>
      <trkpt lat="46.51889" lon="0.37759">
        <ele>95.2</ele>
        <time>2020-09-13T10:40:59Z</time>
      </trkpt>
      <trkpt lat="46.5189" lon="0.3773">
        <ele>95.6</ele>
        <time>2020-09-13T10:41:03Z</time>
      </trkpt>
      <trkpt lat="46.51892" lon="0.37718">
        <ele>95.6</ele>
        <time>2020-09-13T10:41:05Z</time>
      </trkpt>
      <trkpt lat="46.51898" lon="0.37682">
        <ele>95.6</ele>
        <time>2020-09-13T10:41:10Z</time>
      </trkpt>
      <trkpt lat="46.51903" lon="0.3763">
        <ele>95.8</ele>
        <time>2020-09-13T10:41:16Z</time>
      </trkpt>
      <trkpt lat="46.51903" lon="0.37622">
        <ele>95.8</ele>
        <time>2020-09-13T10:41:17Z</time>
      </trkpt>
      <trkpt lat="46.51902" lon="0.37591">
        <ele>95.4</ele>
        <time>2020-09-13T10:41:22Z</time>
      </trkpt>
      <trkpt lat="46.519" lon="0.37577">
        <ele>95.4</ele>
        <time>2020-09-13T10:41:23Z</time>
      </trkpt>
      <trkpt lat="46.51894" lon="0.3756">
        <ele>95.2</ele>
        <time>2020-09-13T10:41:26Z</time>
      </trkpt>
      <trkpt lat="46.51882" lon="0.37543">
        <ele>94.8</ele>
        <time>2020-09-13T10:41:30Z</time>
      </trkpt>
      <trkpt lat="46.51873" lon="0.37535">
        <ele>94.6</ele>
        <time>2020-09-13T10:41:31Z</time>
      </trkpt>
      <trkpt lat="46.51863" lon="0.37525">
        <ele>94.6</ele>
        <time>2020-09-13T10:41:34Z</time>
      </trkpt>
      <trkpt lat="46.51858" lon="0.37522">
        <ele>94.8</ele>
        <time>2020-09-13T10:41:35Z</time>
      </trkpt>
      <trkpt lat="46.51848" lon="0.37518">
        <ele>94.8</ele>
        <time>2020-09-13T10:41:36Z</time>
      </trkpt>
      <trkpt lat="46.51831" lon="0.37514">
        <ele>95</ele>
        <time>2020-09-13T10:41:40Z</time>
      </trkpt>
      <trkpt lat="46.51819" lon="0.37512">
        <ele>95</ele>
        <time>2020-09-13T10:41:41Z</time>
      </trkpt>
      <trkpt lat="46.51814" lon="0.37511">
        <ele>95</ele>
        <time>2020-09-13T10:41:42Z</time>
      </trkpt>
      <trkpt lat="46.51794" lon="0.37504">
        <ele>95.2</ele>
        <time>2020-09-13T10:41:46Z</time>
      </trkpt>
      <trkpt lat="46.51774" lon="0.37492">
        <ele>95</ele>
        <time>2020-09-13T10:41:51Z</time>
      </trkpt>
      <trkpt lat="46.51771" lon="0.37491">
        <ele>94.8</ele>
        <time>2020-09-13T10:41:52Z</time>
      </trkpt>
      <trkpt lat="46.5177" lon="0.37491">
        <ele>94.8</ele>
        <time>2020-09-13T10:41:54Z</time>
      </trkpt>
      <trkpt lat="46.51769" lon="0.37492">
        <ele>94.8</ele>
        <time>2020-09-13T10:41:55Z</time>
      </trkpt>
      <trkpt lat="46.51768" lon="0.37495">
        <ele>95.2</ele>
        <time>2020-09-13T10:41:57Z</time>
      </trkpt>
      <trkpt lat="46.51767" lon="0.37497">
        <ele>95.6</ele>
        <time>2020-09-13T10:41:59Z</time>
      </trkpt>
      <trkpt lat="46.5177" lon="0.37503">
        <ele>97</ele>
        <time>2020-09-13T10:42:04Z</time>
      </trkpt>
      <trkpt lat="46.51768" lon="0.37504">
        <ele>97.8</ele>
        <time>2020-09-13T10:42:06Z</time>
      </trkpt>
      <trkpt lat="46.51769" lon="0.37506">
        <ele>98.2</ele>
        <time>2020-09-13T10:42:07Z</time>
      </trkpt>
      <trkpt lat="46.51766" lon="0.37509">
        <ele>99.6</ele>
        <time>2020-09-13T10:42:10Z</time>
      </trkpt>
      <trkpt lat="46.51765" lon="0.37512">
        <ele>100.4</ele>
        <time>2020-09-13T10:42:12Z</time>
      </trkpt>
      <trkpt lat="46.51764" lon="0.37513">
        <ele>100.8</ele>
        <time>2020-09-13T10:42:13Z</time>
      </trkpt>
      <trkpt lat="46.51763" lon="0.37517">
        <ele>101.4</ele>
        <time>2020-09-13T10:42:15Z</time>
      </trkpt>
      <trkpt lat="46.51763" lon="0.37519">
        <ele>101.8</ele>
        <time>2020-09-13T10:42:16Z</time>
      </trkpt>
      <trkpt lat="46.51762" lon="0.37524">
        <ele>103</ele>
        <time>2020-09-13T10:42:19Z</time>
      </trkpt>
      <trkpt lat="46.51761" lon="0.3753">
        <ele>104.2</ele>
        <time>2020-09-13T10:42:23Z</time>
      </trkpt>
      <trkpt lat="46.51759" lon="0.37536">
        <ele>104.8</ele>
        <time>2020-09-13T10:42:26Z</time>
      </trkpt>
      <trkpt lat="46.51758" lon="0.37542">
        <ele>105.4</ele>
        <time>2020-09-13T10:42:29Z</time>
      </trkpt>
      <trkpt lat="46.51755" lon="0.3755">
        <ele>106.6</ele>
        <time>2020-09-13T10:42:34Z</time>
      </trkpt>
      <trkpt lat="46.51753" lon="0.37554">
        <ele>106.8</ele>
        <time>2020-09-13T10:42:36Z</time>
      </trkpt>
      <trkpt lat="46.51751" lon="0.37561">
        <ele>107.6</ele>
        <time>2020-09-13T10:42:40Z</time>
      </trkpt>
      <trkpt lat="46.51746" lon="0.37579">
        <ele>108.4</ele>
        <time>2020-09-13T10:42:48Z</time>
      </trkpt>
      <trkpt lat="46.51745" lon="0.37581">
        <ele>108.6</ele>
        <time>2020-09-13T10:42:49Z</time>
      </trkpt>
      <trkpt lat="46.51743" lon="0.37589">
        <ele>109.8</ele>
        <time>2020-09-13T10:42:54Z</time>
      </trkpt>
      <trkpt lat="46.5174" lon="0.37601">
        <ele>110</ele>
        <time>2020-09-13T10:43:00Z</time>
      </trkpt>
      <trkpt lat="46.51736" lon="0.37615">
        <ele>110.8</ele>
        <time>2020-09-13T10:43:05Z</time>
      </trkpt>
      <trkpt lat="46.5173" lon="0.3763">
        <ele>111.4</ele>
        <time>2020-09-13T10:43:10Z</time>
      </trkpt>
      <trkpt lat="46.51726" lon="0.37646">
        <ele>111.8</ele>
        <time>2020-09-13T10:43:15Z</time>
      </trkpt>
      <trkpt lat="46.51723" lon="0.3765">
        <ele>112.2</ele>
        <time>2020-09-13T10:43:16Z</time>
      </trkpt>
      <trkpt lat="46.51717" lon="0.37669">
        <ele>112.6</ele>
        <time>2020-09-13T10:43:21Z</time>
      </trkpt>
      <trkpt lat="46.51713" lon="0.37681">
        <ele>113</ele>
        <time>2020-09-13T10:43:24Z</time>
      </trkpt>
      <trkpt lat="46.51712" lon="0.37688">
        <ele>113.4</ele>
        <time>2020-09-13T10:43:26Z</time>
      </trkpt>
      <trkpt lat="46.51705" lon="0.3771">
        <ele>113.8</ele>
        <time>2020-09-13T10:43:32Z</time>
      </trkpt>
      <trkpt lat="46.51696" lon="0.37741">
        <ele>113.4</ele>
        <time>2020-09-13T10:43:38Z</time>
      </trkpt>
      <trkpt lat="46.51686" lon="0.37765">
        <ele>113.2</ele>
        <time>2020-09-13T10:43:43Z</time>
      </trkpt>
      <trkpt lat="46.5168" lon="0.37799">
        <ele>112.6</ele>
        <time>2020-09-13T10:43:49Z</time>
      </trkpt>
      <trkpt lat="46.51676" lon="0.3781">
        <ele>112.4</ele>
        <time>2020-09-13T10:43:51Z</time>
      </trkpt>
      <trkpt lat="46.51672" lon="0.37832">
        <ele>111.4</ele>
        <time>2020-09-13T10:43:54Z</time>
      </trkpt>
      <trkpt lat="46.51666" lon="0.37855">
        <ele>110.2</ele>
        <time>2020-09-13T10:43:57Z</time>
      </trkpt>
      <trkpt lat="46.51662" lon="0.37863">
        <ele>110.2</ele>
        <time>2020-09-13T10:43:58Z</time>
      </trkpt>
      <trkpt lat="46.51647" lon="0.37905">
        <ele>110.6</ele>
        <time>2020-09-13T10:44:03Z</time>
      </trkpt>
      <trkpt lat="46.51634" lon="0.37934">
        <ele>111.2</ele>
        <time>2020-09-13T10:44:09Z</time>
      </trkpt>
      <trkpt lat="46.51633" lon="0.37938">
        <ele>111.2</ele>
        <time>2020-09-13T10:44:10Z</time>
      </trkpt>
      <trkpt lat="46.51632" lon="0.37943">
        <ele>111.2</ele>
        <time>2020-09-13T10:44:11Z</time>
      </trkpt>
      <trkpt lat="46.51629" lon="0.37953">
        <ele>110.8</ele>
        <time>2020-09-13T10:44:13Z</time>
      </trkpt>
      <trkpt lat="46.51628" lon="0.37958">
        <ele>110.6</ele>
        <time>2020-09-13T10:44:14Z</time>
      </trkpt>
      <trkpt lat="46.51624" lon="0.37963">
        <ele>110.2</ele>
        <time>2020-09-13T10:44:15Z</time>
      </trkpt>
      <trkpt lat="46.51621" lon="0.37965">
        <ele>110</ele>
        <time>2020-09-13T10:44:16Z</time>
      </trkpt>
      <trkpt lat="46.51618" lon="0.37965">
        <ele>110</ele>
        <time>2020-09-13T10:44:17Z</time>
      </trkpt>
      <trkpt lat="46.51614" lon="0.37962">
        <ele>110.4</ele>
        <time>2020-09-13T10:44:20Z</time>
      </trkpt>
      <trkpt lat="46.51611" lon="0.37959">
        <ele>110.6</ele>
        <time>2020-09-13T10:44:21Z</time>
      </trkpt>
      <trkpt lat="46.51605" lon="0.37955">
        <ele>111.2</ele>
        <time>2020-09-13T10:44:24Z</time>
      </trkpt>
      <trkpt lat="46.51597" lon="0.37954">
        <ele>111.4</ele>
        <time>2020-09-13T10:44:26Z</time>
      </trkpt>
      <trkpt lat="46.51584" lon="0.37949">
        <ele>112.2</ele>
        <time>2020-09-13T10:44:30Z</time>
      </trkpt>
      <trkpt lat="46.51575" lon="0.37949">
        <ele>112.4</ele>
        <time>2020-09-13T10:44:31Z</time>
      </trkpt>
      <trkpt lat="46.51558" lon="0.3795">
        <ele>113.2</ele>
        <time>2020-09-13T10:44:36Z</time>
      </trkpt>
      <trkpt lat="46.51553" lon="0.3795">
        <ele>113.2</ele>
        <time>2020-09-13T10:44:37Z</time>
      </trkpt>
      <trkpt lat="46.51549" lon="0.37951">
        <ele>113.4</ele>
        <time>2020-09-13T10:44:38Z</time>
      </trkpt>
      <trkpt lat="46.51544" lon="0.3795">
        <ele>113.4</ele>
        <time>2020-09-13T10:44:39Z</time>
      </trkpt>
      <trkpt lat="46.51538" lon="0.37945">
        <ele>113.6</ele>
        <time>2020-09-13T10:44:41Z</time>
      </trkpt>
      <trkpt lat="46.51536" lon="0.37942">
        <ele>113.6</ele>
        <time>2020-09-13T10:44:42Z</time>
      </trkpt>
      <trkpt lat="46.51529" lon="0.37931">
        <ele>114.2</ele>
        <time>2020-09-13T10:44:45Z</time>
      </trkpt>
      <trkpt lat="46.51526" lon="0.37927">
        <ele>114.2</ele>
        <time>2020-09-13T10:44:46Z</time>
      </trkpt>
      <trkpt lat="46.51519" lon="0.37922">
        <ele>114.4</ele>
        <time>2020-09-13T10:44:48Z</time>
      </trkpt>
      <trkpt lat="46.51505" lon="0.37912">
        <ele>115.2</ele>
        <time>2020-09-13T10:44:52Z</time>
      </trkpt>
      <trkpt lat="46.51498" lon="0.37908">
        <ele>115.6</ele>
        <time>2020-09-13T10:44:54Z</time>
      </trkpt>
      <trkpt lat="46.51486" lon="0.37902">
        <ele>116.4</ele>
        <time>2020-09-13T10:44:58Z</time>
      </trkpt>
      <trkpt lat="46.51481" lon="0.37897">
        <ele>116.8</ele>
        <time>2020-09-13T10:45:00Z</time>
      </trkpt>
      <trkpt lat="46.51475" lon="0.37894">
        <ele>117.4</ele>
        <time>2020-09-13T10:45:03Z</time>
      </trkpt>
      <trkpt lat="46.51466" lon="0.37888">
        <ele>117.6</ele>
        <time>2020-09-13T10:45:07Z</time>
      </trkpt>
      <trkpt lat="46.5145" lon="0.37878">
        <ele>118.6</ele>
        <time>2020-09-13T10:45:12Z</time>
      </trkpt>
      <trkpt lat="46.51436" lon="0.37872">
        <ele>119.6</ele>
        <time>2020-09-13T10:45:17Z</time>
      </trkpt>
      <trkpt lat="46.51435" lon="0.3787">
        <ele>119.8</ele>
        <time>2020-09-13T10:45:18Z</time>
      </trkpt>
      <trkpt lat="46.51423" lon="0.37862">
        <ele>120.6</ele>
        <time>2020-09-13T10:45:23Z</time>
      </trkpt>
      <trkpt lat="46.51404" lon="0.37848">
        <ele>121.2</ele>
        <time>2020-09-13T10:45:29Z</time>
      </trkpt>
      <trkpt lat="46.51388" lon="0.37836">
        <ele>121.8</ele>
        <time>2020-09-13T10:45:34Z</time>
      </trkpt>
      <trkpt lat="46.51382" lon="0.37831">
        <ele>122.2</ele>
        <time>2020-09-13T10:45:36Z</time>
      </trkpt>
      <trkpt lat="46.51365" lon="0.3782">
        <ele>122.8</ele>
        <time>2020-09-13T10:45:41Z</time>
      </trkpt>
      <trkpt lat="46.51362" lon="0.37818">
        <ele>123</ele>
        <time>2020-09-13T10:45:42Z</time>
      </trkpt>
      <trkpt lat="46.51349" lon="0.3781">
        <ele>123.6</ele>
        <time>2020-09-13T10:45:46Z</time>
      </trkpt>
      <trkpt lat="46.51335" lon="0.37799">
        <ele>124</ele>
        <time>2020-09-13T10:45:51Z</time>
      </trkpt>
      <trkpt lat="46.51332" lon="0.37797">
        <ele>124.2</ele>
        <time>2020-09-13T10:45:52Z</time>
      </trkpt>
      <trkpt lat="46.51309" lon="0.37783">
        <ele>125.2</ele>
        <time>2020-09-13T10:45:59Z</time>
      </trkpt>
      <trkpt lat="46.51292" lon="0.37769">
        <ele>126.4</ele>
        <time>2020-09-13T10:46:04Z</time>
      </trkpt>
      <trkpt lat="46.51288" lon="0.37766">
        <ele>126.6</ele>
        <time>2020-09-13T10:46:05Z</time>
      </trkpt>
      <trkpt lat="46.51268" lon="0.37754">
        <ele>127.2</ele>
        <time>2020-09-13T10:46:11Z</time>
      </trkpt>
      <trkpt lat="46.5126" lon="0.3775">
        <ele>127.4</ele>
        <time>2020-09-13T10:46:12Z</time>
      </trkpt>
      <trkpt lat="46.51251" lon="0.37743">
        <ele>127.6</ele>
        <time>2020-09-13T10:46:16Z</time>
      </trkpt>
      <trkpt lat="46.51237" lon="0.37736">
        <ele>128</ele>
        <time>2020-09-13T10:46:20Z</time>
      </trkpt>
      <trkpt lat="46.51222" lon="0.37727">
        <ele>128.4</ele>
        <time>2020-09-13T10:46:24Z</time>
      </trkpt>
      <trkpt lat="46.51218" lon="0.37725">
        <ele>128.6</ele>
        <time>2020-09-13T10:46:25Z</time>
      </trkpt>
      <trkpt lat="46.51194" lon="0.3771">
        <ele>129.2</ele>
        <time>2020-09-13T10:46:31Z</time>
      </trkpt>
      <trkpt lat="46.51169" lon="0.37691">
        <ele>129.2</ele>
        <time>2020-09-13T10:46:37Z</time>
      </trkpt>
      <trkpt lat="46.51157" lon="0.37684">
        <ele>129</ele>
        <time>2020-09-13T10:46:39Z</time>
      </trkpt>
      <trkpt lat="46.51146" lon="0.37677">
        <ele>129.2</ele>
        <time>2020-09-13T10:46:42Z</time>
      </trkpt>
      <trkpt lat="46.51137" lon="0.3767">
        <ele>129.8</ele>
        <time>2020-09-13T10:46:44Z</time>
      </trkpt>
      <trkpt lat="46.51123" lon="0.37659">
        <ele>130.4</ele>
        <time>2020-09-13T10:46:48Z</time>
      </trkpt>
      <trkpt lat="46.5111" lon="0.37651">
        <ele>130.6</ele>
        <time>2020-09-13T10:46:51Z</time>
      </trkpt>
      <trkpt lat="46.51074" lon="0.37628">
        <ele>130.4</ele>
        <time>2020-09-13T10:46:59Z</time>
      </trkpt>
      <trkpt lat="46.51066" lon="0.37619">
        <ele>130.4</ele>
        <time>2020-09-13T10:47:01Z</time>
      </trkpt>
      <trkpt lat="46.51062" lon="0.37609">
        <ele>130.2</ele>
        <time>2020-09-13T10:47:03Z</time>
      </trkpt>
      <trkpt lat="46.51059" lon="0.37597">
        <ele>130.6</ele>
        <time>2020-09-13T10:47:05Z</time>
      </trkpt>
      <trkpt lat="46.51056" lon="0.37592">
        <ele>131</ele>
        <time>2020-09-13T10:47:06Z</time>
      </trkpt>
      <trkpt lat="46.51048" lon="0.37576">
        <ele>131.2</ele>
        <time>2020-09-13T10:47:09Z</time>
      </trkpt>
      <trkpt lat="46.51029" lon="0.37536">
        <ele>131.4</ele>
        <time>2020-09-13T10:47:16Z</time>
      </trkpt>
      <trkpt lat="46.51011" lon="0.37503">
        <ele>132</ele>
        <time>2020-09-13T10:47:22Z</time>
      </trkpt>
      <trkpt lat="46.50998" lon="0.37477">
        <ele>132.4</ele>
        <time>2020-09-13T10:47:26Z</time>
      </trkpt>
      <trkpt lat="46.50978" lon="0.37437">
        <ele>132.8</ele>
        <time>2020-09-13T10:47:32Z</time>
      </trkpt>
      <trkpt lat="46.50955" lon="0.3739">
        <ele>132.8</ele>
        <time>2020-09-13T10:47:39Z</time>
      </trkpt>
      <trkpt lat="46.5095" lon="0.37377">
        <ele>133</ele>
        <time>2020-09-13T10:47:41Z</time>
      </trkpt>
      <trkpt lat="46.50939" lon="0.37351">
        <ele>132.8</ele>
        <time>2020-09-13T10:47:45Z</time>
      </trkpt>
      <trkpt lat="46.50925" lon="0.37318">
        <ele>133.2</ele>
        <time>2020-09-13T10:47:51Z</time>
      </trkpt>
      <trkpt lat="46.50922" lon="0.37311">
        <ele>133.4</ele>
        <time>2020-09-13T10:47:52Z</time>
      </trkpt>
      <trkpt lat="46.50916" lon="0.37291">
        <ele>133.6</ele>
        <time>2020-09-13T10:47:55Z</time>
      </trkpt>
      <trkpt lat="46.50914" lon="0.37284">
        <ele>133.8</ele>
        <time>2020-09-13T10:47:56Z</time>
      </trkpt>
      <trkpt lat="46.50902" lon="0.37248">
        <ele>134.2</ele>
        <time>2020-09-13T10:48:01Z</time>
      </trkpt>
      <trkpt lat="46.509" lon="0.37241">
        <ele>134.2</ele>
        <time>2020-09-13T10:48:02Z</time>
      </trkpt>
      <trkpt lat="46.50898" lon="0.37235">
        <ele>134.2</ele>
        <time>2020-09-13T10:48:03Z</time>
      </trkpt>
      <trkpt lat="46.50892" lon="0.37221">
        <ele>134.2</ele>
        <time>2020-09-13T10:48:05Z</time>
      </trkpt>
      <trkpt lat="46.50883" lon="0.3719">
        <ele>134.4</ele>
        <time>2020-09-13T10:48:09Z</time>
      </trkpt>
      <trkpt lat="46.50872" lon="0.37143">
        <ele>134.8</ele>
        <time>2020-09-13T10:48:15Z</time>
      </trkpt>
      <trkpt lat="46.50869" lon="0.37135">
        <ele>134.8</ele>
        <time>2020-09-13T10:48:16Z</time>
      </trkpt>
      <trkpt lat="46.50864" lon="0.3712">
        <ele>134.8</ele>
        <time>2020-09-13T10:48:18Z</time>
      </trkpt>
      <trkpt lat="46.50855" lon="0.37097">
        <ele>134.6</ele>
        <time>2020-09-13T10:48:20Z</time>
      </trkpt>
      <trkpt lat="46.50838" lon="0.37048">
        <ele>134.8</ele>
        <time>2020-09-13T10:48:27Z</time>
      </trkpt>
      <trkpt lat="46.50835" lon="0.37031">
        <ele>134.8</ele>
        <time>2020-09-13T10:48:29Z</time>
      </trkpt>
      <trkpt lat="46.50825" lon="0.36978">
        <ele>135.2</ele>
        <time>2020-09-13T10:48:35Z</time>
      </trkpt>
      <trkpt lat="46.50822" lon="0.36954">
        <ele>135.2</ele>
        <time>2020-09-13T10:48:38Z</time>
      </trkpt>
      <trkpt lat="46.50821" lon="0.36947">
        <ele>135.2</ele>
        <time>2020-09-13T10:48:39Z</time>
      </trkpt>
      <trkpt lat="46.50817" lon="0.36932">
        <ele>135.4</ele>
        <time>2020-09-13T10:48:41Z</time>
      </trkpt>
      <trkpt lat="46.50807" lon="0.36895">
        <ele>134.4</ele>
        <time>2020-09-13T10:48:47Z</time>
      </trkpt>
      <trkpt lat="46.50805" lon="0.36888">
        <ele>134.4</ele>
        <time>2020-09-13T10:48:48Z</time>
      </trkpt>
      <trkpt lat="46.50799" lon="0.36864">
        <ele>134.2</ele>
        <time>2020-09-13T10:48:52Z</time>
      </trkpt>
      <trkpt lat="46.50793" lon="0.36853">
        <ele>134</ele>
        <time>2020-09-13T10:48:54Z</time>
      </trkpt>
      <trkpt lat="46.50785" lon="0.36844">
        <ele>133.4</ele>
        <time>2020-09-13T10:48:56Z</time>
      </trkpt>
      <trkpt lat="46.50771" lon="0.3683">
        <ele>133.2</ele>
        <time>2020-09-13T10:48:59Z</time>
      </trkpt>
      <trkpt lat="46.50768" lon="0.36826">
        <ele>133</ele>
        <time>2020-09-13T10:49:00Z</time>
      </trkpt>
      <trkpt lat="46.50764" lon="0.3682">
        <ele>133</ele>
        <time>2020-09-13T10:49:01Z</time>
      </trkpt>
      <trkpt lat="46.50757" lon="0.36809">
        <ele>132.8</ele>
        <time>2020-09-13T10:49:03Z</time>
      </trkpt>
      <trkpt lat="46.50747" lon="0.36798">
        <ele>132.6</ele>
        <time>2020-09-13T10:49:05Z</time>
      </trkpt>
      <trkpt lat="46.50742" lon="0.36793">
        <ele>132.6</ele>
        <time>2020-09-13T10:49:06Z</time>
      </trkpt>
      <trkpt lat="46.50736" lon="0.3679">
        <ele>132.4</ele>
        <time>2020-09-13T10:49:07Z</time>
      </trkpt>
      <trkpt lat="46.50721" lon="0.3678">
        <ele>132.4</ele>
        <time>2020-09-13T10:49:10Z</time>
      </trkpt>
      <trkpt lat="46.50716" lon="0.36775">
        <ele>132.4</ele>
        <time>2020-09-13T10:49:11Z</time>
      </trkpt>
      <trkpt lat="46.50705" lon="0.36766">
        <ele>132.4</ele>
        <time>2020-09-13T10:49:12Z</time>
      </trkpt>
      <trkpt lat="46.50695" lon="0.36762">
        <ele>132</ele>
        <time>2020-09-13T10:49:15Z</time>
      </trkpt>
      <trkpt lat="46.50689" lon="0.3676">
        <ele>131.6</ele>
        <time>2020-09-13T10:49:16Z</time>
      </trkpt>
      <trkpt lat="46.50668" lon="0.36756">
        <ele>131.6</ele>
        <time>2020-09-13T10:49:20Z</time>
      </trkpt>
      <trkpt lat="46.5066" lon="0.3676">
        <ele>131.6</ele>
        <time>2020-09-13T10:49:21Z</time>
      </trkpt>
      <trkpt lat="46.50657" lon="0.36764">
        <ele>132</ele>
        <time>2020-09-13T10:49:23Z</time>
      </trkpt>
      <trkpt lat="46.50652" lon="0.36774">
        <ele>132</ele>
        <time>2020-09-13T10:49:26Z</time>
      </trkpt>
      <trkpt lat="46.50646" lon="0.36792">
        <ele>131.8</ele>
        <time>2020-09-13T10:49:31Z</time>
      </trkpt>
      <trkpt lat="46.50635" lon="0.36818">
        <ele>133</ele>
        <time>2020-09-13T10:49:38Z</time>
      </trkpt>
      <trkpt lat="46.50629" lon="0.36843">
        <ele>133.4</ele>
        <time>2020-09-13T10:49:43Z</time>
      </trkpt>
      <trkpt lat="46.50628" lon="0.36864">
        <ele>133.6</ele>
        <time>2020-09-13T10:49:48Z</time>
      </trkpt>
      <trkpt lat="46.50631" lon="0.36872">
        <ele>133.8</ele>
        <time>2020-09-13T10:49:53Z</time>
      </trkpt>
      <trkpt lat="46.50631" lon="0.36872">
        <ele>133.8</ele>
        <time>2020-09-13T10:49:56Z</time>
      </trkpt>
    </trkseg>
  </trk>
</gpx>